<?xml version="1.0" encoding="UTF-8"?>
<gpx version="1.1" creator="https://www.youtrack.es" xsi:schemaLocation="http://www.topografix.com/GPX/1/1 http://www.topografix.com/GPX/1/1/gpx.xsd http://www.garmin.com/xmlschemas/GpxExtensions/v3 http://www.garmin.com/xmlschemas/GpxExtensionsv3.xsd http://www.garmin.com/xmlschemas/TrackPointExtension/v1 http://www.garmin.com/xmlschemas/TrackPointExtensionv1.xsd" xmlns:gpxtpx="http://www.garmin.com/xmlschemas/TrackPointExtension/v1" xmlns:gpxx="http://www.garmin.com/xmlschemas/GpxExtensions/v3" xmlns:xsi="http://www.w3.org/2001/XMLSchema-instance">
  <metadata>
    <link href="https://www.youtrack.es">
      <text>YouTrack.es</text>
    </link>
    <time>2026-05-08T14:50:05Z</time>
  </metadata>
  <trk>
    <src>https://www.youtrack.es</src>
    <link href="https://www.youtrack.es/ruta/37054-danielnox">
      <text>YouTrack.es</text>
    </link>
    <trkseg>
      <trkpt lat="10.3695130" lon="-85.7818033">
        <ele>50.2</ele>
        <time>2022-10-06T16:34:03.070Z</time>
      </trkpt>
      <trkpt lat="10.3694683" lon="-85.7818892">
        <ele>50.1</ele>
        <time>2022-10-06T16:34:03.328Z</time>
      </trkpt>
      <trkpt lat="10.3694213" lon="-85.7819780">
        <ele>50.1</ele>
        <time>2022-10-06T16:34:04Z</time>
      </trkpt>
      <trkpt lat="10.3693724" lon="-85.7820703">
        <ele>49.9</ele>
        <time>2022-10-06T16:34:05Z</time>
      </trkpt>
      <trkpt lat="10.3693223" lon="-85.7821646">
        <ele>49.7</ele>
        <time>2022-10-06T16:34:06Z</time>
      </trkpt>
      <trkpt lat="10.3692712" lon="-85.7822621">
        <ele>49.5</ele>
        <time>2022-10-06T16:34:07Z</time>
      </trkpt>
      <trkpt lat="10.3692186" lon="-85.7823624">
        <ele>49.4</ele>
        <time>2022-10-06T16:34:08Z</time>
      </trkpt>
      <trkpt lat="10.3691651" lon="-85.7824619">
        <ele>49.3</ele>
        <time>2022-10-06T16:34:09Z</time>
      </trkpt>
      <trkpt lat="10.3691102" lon="-85.7825666">
        <ele>49.1</ele>
        <time>2022-10-06T16:34:10Z</time>
      </trkpt>
      <trkpt lat="10.3690545" lon="-85.7826735">
        <ele>49.1</ele>
        <time>2022-10-06T16:34:11Z</time>
      </trkpt>
      <trkpt lat="10.3689991" lon="-85.7827785">
        <ele>48.9</ele>
        <time>2022-10-06T16:34:12Z</time>
      </trkpt>
      <trkpt lat="10.3689427" lon="-85.7828864">
        <ele>48.9</ele>
        <time>2022-10-06T16:34:13Z</time>
      </trkpt>
      <trkpt lat="10.3688870" lon="-85.7829969">
        <ele>48.7</ele>
        <time>2022-10-06T16:34:14Z</time>
      </trkpt>
      <trkpt lat="10.3688315" lon="-85.7831059">
        <ele>48.4</ele>
        <time>2022-10-06T16:34:15Z</time>
      </trkpt>
      <trkpt lat="10.3687772" lon="-85.7832165">
        <ele>48.3</ele>
        <time>2022-10-06T16:34:16Z</time>
      </trkpt>
      <trkpt lat="10.3687225" lon="-85.7833304">
        <ele>48.2</ele>
        <time>2022-10-06T16:34:17Z</time>
      </trkpt>
      <trkpt lat="10.3686711" lon="-85.7834440">
        <ele>48.1</ele>
        <time>2022-10-06T16:34:18Z</time>
      </trkpt>
      <trkpt lat="10.3686179" lon="-85.7835589">
        <ele>48.1</ele>
        <time>2022-10-06T16:34:19Z</time>
      </trkpt>
      <trkpt lat="10.3685665" lon="-85.7836740">
        <ele>47.9</ele>
        <time>2022-10-06T16:34:20Z</time>
      </trkpt>
      <trkpt lat="10.3685170" lon="-85.7837896">
        <ele>47.9</ele>
        <time>2022-10-06T16:34:21Z</time>
      </trkpt>
      <trkpt lat="10.3684682" lon="-85.7839063">
        <ele>47.7</ele>
        <time>2022-10-06T16:34:22Z</time>
      </trkpt>
      <trkpt lat="10.3684198" lon="-85.7840239">
        <ele>47.6</ele>
        <time>2022-10-06T16:34:23Z</time>
      </trkpt>
      <trkpt lat="10.3683722" lon="-85.7841405">
        <ele>47.5</ele>
        <time>2022-10-06T16:34:24Z</time>
      </trkpt>
      <trkpt lat="10.3683275" lon="-85.7842561">
        <ele>47.5</ele>
        <time>2022-10-06T16:34:25Z</time>
      </trkpt>
      <trkpt lat="10.3682862" lon="-85.7843690">
        <ele>47.3</ele>
        <time>2022-10-06T16:34:26Z</time>
      </trkpt>
      <trkpt lat="10.3682480" lon="-85.7844781">
        <ele>47.2</ele>
        <time>2022-10-06T16:34:27Z</time>
      </trkpt>
      <trkpt lat="10.3682128" lon="-85.7845811">
        <ele>47.1</ele>
        <time>2022-10-06T16:34:28Z</time>
      </trkpt>
      <trkpt lat="10.3681791" lon="-85.7846811">
        <ele>46.8</ele>
        <time>2022-10-06T16:34:29Z</time>
      </trkpt>
      <trkpt lat="10.3681452" lon="-85.7847812">
        <ele>46.7</ele>
        <time>2022-10-06T16:34:30Z</time>
      </trkpt>
      <trkpt lat="10.3681138" lon="-85.7848818">
        <ele>46.7</ele>
        <time>2022-10-06T16:34:31Z</time>
      </trkpt>
      <trkpt lat="10.3680829" lon="-85.7849883">
        <ele>46.6</ele>
        <time>2022-10-06T16:34:32Z</time>
      </trkpt>
      <trkpt lat="10.3680514" lon="-85.7850948">
        <ele>46.5</ele>
        <time>2022-10-06T16:34:33Z</time>
      </trkpt>
      <trkpt lat="10.3680193" lon="-85.7852068">
        <ele>46.4</ele>
        <time>2022-10-06T16:34:34Z</time>
      </trkpt>
      <trkpt lat="10.3679858" lon="-85.7853207">
        <ele>46.2</ele>
        <time>2022-10-06T16:34:35Z</time>
      </trkpt>
      <trkpt lat="10.3679515" lon="-85.7854345">
        <ele>46.0</ele>
        <time>2022-10-06T16:34:36Z</time>
      </trkpt>
      <trkpt lat="10.3679175" lon="-85.7855487">
        <ele>46.0</ele>
        <time>2022-10-06T16:34:37Z</time>
      </trkpt>
      <trkpt lat="10.3678826" lon="-85.7856620">
        <ele>45.7</ele>
        <time>2022-10-06T16:34:38Z</time>
      </trkpt>
      <trkpt lat="10.3678487" lon="-85.7857739">
        <ele>45.6</ele>
        <time>2022-10-06T16:34:39Z</time>
      </trkpt>
      <trkpt lat="10.3678163" lon="-85.7858823">
        <ele>45.4</ele>
        <time>2022-10-06T16:34:40Z</time>
      </trkpt>
      <trkpt lat="10.3677840" lon="-85.7859909">
        <ele>45.1</ele>
        <time>2022-10-06T16:34:41Z</time>
      </trkpt>
      <trkpt lat="10.3677516" lon="-85.7860973">
        <ele>44.9</ele>
        <time>2022-10-06T16:34:42Z</time>
      </trkpt>
      <trkpt lat="10.3677171" lon="-85.7862015">
        <ele>44.9</ele>
        <time>2022-10-06T16:34:43Z</time>
      </trkpt>
      <trkpt lat="10.3676818" lon="-85.7863029">
        <ele>44.7</ele>
        <time>2022-10-06T16:34:44Z</time>
      </trkpt>
      <trkpt lat="10.3676460" lon="-85.7864082">
        <ele>44.5</ele>
        <time>2022-10-06T16:34:45Z</time>
      </trkpt>
      <trkpt lat="10.3676119" lon="-85.7865194">
        <ele>44.1</ele>
        <time>2022-10-06T16:34:46Z</time>
      </trkpt>
      <trkpt lat="10.3675803" lon="-85.7866308">
        <ele>44.1</ele>
        <time>2022-10-06T16:34:47Z</time>
      </trkpt>
      <trkpt lat="10.3675491" lon="-85.7867440">
        <ele>43.7</ele>
        <time>2022-10-06T16:34:48Z</time>
      </trkpt>
      <trkpt lat="10.3675197" lon="-85.7868583">
        <ele>43.2</ele>
        <time>2022-10-06T16:34:49Z</time>
      </trkpt>
      <trkpt lat="10.3674885" lon="-85.7869741">
        <ele>43.0</ele>
        <time>2022-10-06T16:34:50Z</time>
      </trkpt>
      <trkpt lat="10.3674555" lon="-85.7870886">
        <ele>43.0</ele>
        <time>2022-10-06T16:34:51Z</time>
      </trkpt>
      <trkpt lat="10.3674228" lon="-85.7872027">
        <ele>42.8</ele>
        <time>2022-10-06T16:34:52Z</time>
      </trkpt>
      <trkpt lat="10.3673920" lon="-85.7873109">
        <ele>42.8</ele>
        <time>2022-10-06T16:34:53Z</time>
      </trkpt>
      <trkpt lat="10.3673658" lon="-85.7874038">
        <ele>42.4</ele>
        <time>2022-10-06T16:34:54Z</time>
      </trkpt>
      <trkpt lat="10.3673420" lon="-85.7874857">
        <ele>42.4</ele>
        <time>2022-10-06T16:34:55Z</time>
      </trkpt>
      <trkpt lat="10.3673204" lon="-85.7875591">
        <ele>42.3</ele>
        <time>2022-10-06T16:34:56Z</time>
      </trkpt>
      <trkpt lat="10.3672996" lon="-85.7876304">
        <ele>42.3</ele>
        <time>2022-10-06T16:34:57Z</time>
      </trkpt>
      <trkpt lat="10.3672779" lon="-85.7877050">
        <ele>42.1</ele>
        <time>2022-10-06T16:34:58Z</time>
      </trkpt>
      <trkpt lat="10.3672543" lon="-85.7877855">
        <ele>41.8</ele>
        <time>2022-10-06T16:34:59Z</time>
      </trkpt>
      <trkpt lat="10.3672275" lon="-85.7878751">
        <ele>41.5</ele>
        <time>2022-10-06T16:35:00Z</time>
      </trkpt>
      <trkpt lat="10.3672000" lon="-85.7879677">
        <ele>41.4</ele>
        <time>2022-10-06T16:35:01Z</time>
      </trkpt>
      <trkpt lat="10.3671709" lon="-85.7880694">
        <ele>41.2</ele>
        <time>2022-10-06T16:35:02Z</time>
      </trkpt>
      <trkpt lat="10.3671400" lon="-85.7881774">
        <ele>41.3</ele>
        <time>2022-10-06T16:35:03Z</time>
      </trkpt>
      <trkpt lat="10.3671091" lon="-85.7882887">
        <ele>41.1</ele>
        <time>2022-10-06T16:35:04Z</time>
      </trkpt>
      <trkpt lat="10.3670771" lon="-85.7884028">
        <ele>40.9</ele>
        <time>2022-10-06T16:35:05Z</time>
      </trkpt>
      <trkpt lat="10.3670439" lon="-85.7885217">
        <ele>40.8</ele>
        <time>2022-10-06T16:35:06Z</time>
      </trkpt>
      <trkpt lat="10.3670090" lon="-85.7886444">
        <ele>40.8</ele>
        <time>2022-10-06T16:35:07Z</time>
      </trkpt>
      <trkpt lat="10.3669736" lon="-85.7887687">
        <ele>40.8</ele>
        <time>2022-10-06T16:35:08Z</time>
      </trkpt>
      <trkpt lat="10.3669382" lon="-85.7888945">
        <ele>40.6</ele>
        <time>2022-10-06T16:35:09Z</time>
      </trkpt>
      <trkpt lat="10.3669009" lon="-85.7890214">
        <ele>40.5</ele>
        <time>2022-10-06T16:35:10Z</time>
      </trkpt>
      <trkpt lat="10.3668634" lon="-85.7891521">
        <ele>40.6</ele>
        <time>2022-10-06T16:35:11Z</time>
      </trkpt>
      <trkpt lat="10.3668254" lon="-85.7892827">
        <ele>40.3</ele>
        <time>2022-10-06T16:35:12Z</time>
      </trkpt>
      <trkpt lat="10.3667880" lon="-85.7894150">
        <ele>40.3</ele>
        <time>2022-10-06T16:35:13Z</time>
      </trkpt>
      <trkpt lat="10.3667522" lon="-85.7895514">
        <ele>40.1</ele>
        <time>2022-10-06T16:35:14Z</time>
      </trkpt>
      <trkpt lat="10.3667138" lon="-85.7896903">
        <ele>40.3</ele>
        <time>2022-10-06T16:35:15Z</time>
      </trkpt>
      <trkpt lat="10.3666751" lon="-85.7898270">
        <ele>40.2</ele>
        <time>2022-10-06T16:35:16Z</time>
      </trkpt>
      <trkpt lat="10.3666360" lon="-85.7899631">
        <ele>40.2</ele>
        <time>2022-10-06T16:35:17Z</time>
      </trkpt>
      <trkpt lat="10.3665974" lon="-85.7901014">
        <ele>40.1</ele>
        <time>2022-10-06T16:35:18Z</time>
      </trkpt>
      <trkpt lat="10.3665580" lon="-85.7902413">
        <ele>40.3</ele>
        <time>2022-10-06T16:35:19Z</time>
      </trkpt>
      <trkpt lat="10.3665181" lon="-85.7903833">
        <ele>40.3</ele>
        <time>2022-10-06T16:35:20Z</time>
      </trkpt>
      <trkpt lat="10.3664780" lon="-85.7905282">
        <ele>40.4</ele>
        <time>2022-10-06T16:35:21Z</time>
      </trkpt>
      <trkpt lat="10.3664367" lon="-85.7906714">
        <ele>40.4</ele>
        <time>2022-10-06T16:35:22Z</time>
      </trkpt>
      <trkpt lat="10.3663960" lon="-85.7908149">
        <ele>40.4</ele>
        <time>2022-10-06T16:35:23Z</time>
      </trkpt>
      <trkpt lat="10.3663565" lon="-85.7909627">
        <ele>40.3</ele>
        <time>2022-10-06T16:35:24Z</time>
      </trkpt>
      <trkpt lat="10.3663174" lon="-85.7911096">
        <ele>39.9</ele>
        <time>2022-10-06T16:35:25Z</time>
      </trkpt>
      <trkpt lat="10.3662775" lon="-85.7912560">
        <ele>39.8</ele>
        <time>2022-10-06T16:35:26Z</time>
      </trkpt>
      <trkpt lat="10.3662368" lon="-85.7913974">
        <ele>39.9</ele>
        <time>2022-10-06T16:35:27Z</time>
      </trkpt>
      <trkpt lat="10.3661997" lon="-85.7915417">
        <ele>39.8</ele>
        <time>2022-10-06T16:35:28Z</time>
      </trkpt>
      <trkpt lat="10.3661602" lon="-85.7916855">
        <ele>39.8</ele>
        <time>2022-10-06T16:35:29Z</time>
      </trkpt>
      <trkpt lat="10.3661215" lon="-85.7918289">
        <ele>39.7</ele>
        <time>2022-10-06T16:35:30Z</time>
      </trkpt>
      <trkpt lat="10.3660806" lon="-85.7919669">
        <ele>40.1</ele>
        <time>2022-10-06T16:35:31Z</time>
      </trkpt>
      <trkpt lat="10.3660418" lon="-85.7921060">
        <ele>40.7</ele>
        <time>2022-10-06T16:35:32Z</time>
      </trkpt>
      <trkpt lat="10.3660025" lon="-85.7922432">
        <ele>40.7</ele>
        <time>2022-10-06T16:35:33Z</time>
      </trkpt>
      <trkpt lat="10.3659647" lon="-85.7923800">
        <ele>41.0</ele>
        <time>2022-10-06T16:35:34Z</time>
      </trkpt>
      <trkpt lat="10.3659291" lon="-85.7925091">
        <ele>41.4</ele>
        <time>2022-10-06T16:35:35Z</time>
      </trkpt>
      <trkpt lat="10.3658929" lon="-85.7926324">
        <ele>41.6</ele>
        <time>2022-10-06T16:35:36Z</time>
      </trkpt>
      <trkpt lat="10.3658582" lon="-85.7927480">
        <ele>41.2</ele>
        <time>2022-10-06T16:35:37Z</time>
      </trkpt>
      <trkpt lat="10.3658297" lon="-85.7928537">
        <ele>41.1</ele>
        <time>2022-10-06T16:35:38Z</time>
      </trkpt>
      <trkpt lat="10.3658063" lon="-85.7929506">
        <ele>42.6</ele>
        <time>2022-10-06T16:35:39Z</time>
      </trkpt>
      <trkpt lat="10.3657819" lon="-85.7930504">
        <ele>43.2</ele>
        <time>2022-10-06T16:35:40Z</time>
      </trkpt>
      <trkpt lat="10.3657638" lon="-85.7931619">
        <ele>43.5</ele>
        <time>2022-10-06T16:35:41Z</time>
      </trkpt>
      <trkpt lat="10.3657520" lon="-85.7932733">
        <ele>43.8</ele>
        <time>2022-10-06T16:35:42Z</time>
      </trkpt>
      <trkpt lat="10.3657444" lon="-85.7933904">
        <ele>44.1</ele>
        <time>2022-10-06T16:35:43Z</time>
      </trkpt>
      <trkpt lat="10.3657374" lon="-85.7935083">
        <ele>44.4</ele>
        <time>2022-10-06T16:35:44Z</time>
      </trkpt>
      <trkpt lat="10.3657300" lon="-85.7936292">
        <ele>44.9</ele>
        <time>2022-10-06T16:35:45Z</time>
      </trkpt>
      <trkpt lat="10.3657220" lon="-85.7937555">
        <ele>45.1</ele>
        <time>2022-10-06T16:35:46Z</time>
      </trkpt>
      <trkpt lat="10.3657142" lon="-85.7938819">
        <ele>45.4</ele>
        <time>2022-10-06T16:35:47Z</time>
      </trkpt>
      <trkpt lat="10.3657080" lon="-85.7940076">
        <ele>45.5</ele>
        <time>2022-10-06T16:35:48Z</time>
      </trkpt>
      <trkpt lat="10.3656998" lon="-85.7941375">
        <ele>46.0</ele>
        <time>2022-10-06T16:35:49Z</time>
      </trkpt>
      <trkpt lat="10.3656924" lon="-85.7942717">
        <ele>46.2</ele>
        <time>2022-10-06T16:35:50Z</time>
      </trkpt>
      <trkpt lat="10.3656853" lon="-85.7944075">
        <ele>46.3</ele>
        <time>2022-10-06T16:35:51Z</time>
      </trkpt>
      <trkpt lat="10.3656767" lon="-85.7945464">
        <ele>46.7</ele>
        <time>2022-10-06T16:35:52Z</time>
      </trkpt>
      <trkpt lat="10.3656682" lon="-85.7946872">
        <ele>46.8</ele>
        <time>2022-10-06T16:35:53Z</time>
      </trkpt>
      <trkpt lat="10.3656596" lon="-85.7948285">
        <ele>47.0</ele>
        <time>2022-10-06T16:35:54Z</time>
      </trkpt>
      <trkpt lat="10.3656514" lon="-85.7949694">
        <ele>47.3</ele>
        <time>2022-10-06T16:35:55Z</time>
      </trkpt>
      <trkpt lat="10.3656432" lon="-85.7951100">
        <ele>47.5</ele>
        <time>2022-10-06T16:35:56Z</time>
      </trkpt>
      <trkpt lat="10.3656343" lon="-85.7952498">
        <ele>47.8</ele>
        <time>2022-10-06T16:35:57Z</time>
      </trkpt>
      <trkpt lat="10.3656261" lon="-85.7953929">
        <ele>48.3</ele>
        <time>2022-10-06T16:35:58Z</time>
      </trkpt>
      <trkpt lat="10.3656177" lon="-85.7955378">
        <ele>48.6</ele>
        <time>2022-10-06T16:35:59Z</time>
      </trkpt>
      <trkpt lat="10.3656076" lon="-85.7956866">
        <ele>49.0</ele>
        <time>2022-10-06T16:36:00Z</time>
      </trkpt>
      <trkpt lat="10.3655987" lon="-85.7958356">
        <ele>49.6</ele>
        <time>2022-10-06T16:36:01Z</time>
      </trkpt>
      <trkpt lat="10.3655908" lon="-85.7959867">
        <ele>50.1</ele>
        <time>2022-10-06T16:36:02Z</time>
      </trkpt>
      <trkpt lat="10.3655838" lon="-85.7961377">
        <ele>50.6</ele>
        <time>2022-10-06T16:36:03Z</time>
      </trkpt>
      <trkpt lat="10.3655777" lon="-85.7962880">
        <ele>51.6</ele>
        <time>2022-10-06T16:36:04Z</time>
      </trkpt>
      <trkpt lat="10.3655714" lon="-85.7964368">
        <ele>51.8</ele>
        <time>2022-10-06T16:36:05Z</time>
      </trkpt>
      <trkpt lat="10.3655726" lon="-85.7965844">
        <ele>52.2</ele>
        <time>2022-10-06T16:36:06Z</time>
      </trkpt>
      <trkpt lat="10.3655769" lon="-85.7967346">
        <ele>52.8</ele>
        <time>2022-10-06T16:36:07Z</time>
      </trkpt>
      <trkpt lat="10.3655860" lon="-85.7968829">
        <ele>53.4</ele>
        <time>2022-10-06T16:36:08Z</time>
      </trkpt>
      <trkpt lat="10.3656017" lon="-85.7970276">
        <ele>54.5</ele>
        <time>2022-10-06T16:36:09Z</time>
      </trkpt>
      <trkpt lat="10.3656171" lon="-85.7971739">
        <ele>54.9</ele>
        <time>2022-10-06T16:36:10Z</time>
      </trkpt>
      <trkpt lat="10.3656420" lon="-85.7973184">
        <ele>56.2</ele>
        <time>2022-10-06T16:36:11Z</time>
      </trkpt>
      <trkpt lat="10.3656688" lon="-85.7974587">
        <ele>56.5</ele>
        <time>2022-10-06T16:36:12Z</time>
      </trkpt>
      <trkpt lat="10.3657080" lon="-85.7975992">
        <ele>57.8</ele>
        <time>2022-10-06T16:36:13Z</time>
      </trkpt>
      <trkpt lat="10.3657467" lon="-85.7977316">
        <ele>58.8</ele>
        <time>2022-10-06T16:36:14Z</time>
      </trkpt>
      <trkpt lat="10.3657848" lon="-85.7978628">
        <ele>59.8</ele>
        <time>2022-10-06T16:36:15Z</time>
      </trkpt>
      <trkpt lat="10.3658223" lon="-85.7979923">
        <ele>59.9</ele>
        <time>2022-10-06T16:36:16Z</time>
      </trkpt>
      <trkpt lat="10.3658592" lon="-85.7981215">
        <ele>59.8</ele>
        <time>2022-10-06T16:36:17Z</time>
      </trkpt>
      <trkpt lat="10.3658908" lon="-85.7982566">
        <ele>60.8</ele>
        <time>2022-10-06T16:36:18Z</time>
      </trkpt>
      <trkpt lat="10.3659217" lon="-85.7983942">
        <ele>61.4</ele>
        <time>2022-10-06T16:36:19Z</time>
      </trkpt>
      <trkpt lat="10.3659546" lon="-85.7985364">
        <ele>61.8</ele>
        <time>2022-10-06T16:36:20Z</time>
      </trkpt>
      <trkpt lat="10.3659853" lon="-85.7986775">
        <ele>62.1</ele>
        <time>2022-10-06T16:36:21Z</time>
      </trkpt>
      <trkpt lat="10.3660092" lon="-85.7988186">
        <ele>62.2</ele>
        <time>2022-10-06T16:36:22Z</time>
      </trkpt>
      <trkpt lat="10.3660329" lon="-85.7989580">
        <ele>62.3</ele>
        <time>2022-10-06T16:36:23Z</time>
      </trkpt>
      <trkpt lat="10.3660429" lon="-85.7991016">
        <ele>62.3</ele>
        <time>2022-10-06T16:36:24Z</time>
      </trkpt>
      <trkpt lat="10.3660531" lon="-85.7992427">
        <ele>62.4</ele>
        <time>2022-10-06T16:36:25Z</time>
      </trkpt>
      <trkpt lat="10.3660485" lon="-85.7993915">
        <ele>62.3</ele>
        <time>2022-10-06T16:36:26Z</time>
      </trkpt>
      <trkpt lat="10.3660382" lon="-85.7995428">
        <ele>62.4</ele>
        <time>2022-10-06T16:36:27Z</time>
      </trkpt>
      <trkpt lat="10.3660222" lon="-85.7996977">
        <ele>62.1</ele>
        <time>2022-10-06T16:36:28Z</time>
      </trkpt>
      <trkpt lat="10.3660032" lon="-85.7998545">
        <ele>61.8</ele>
        <time>2022-10-06T16:36:29Z</time>
      </trkpt>
      <trkpt lat="10.3659835" lon="-85.8000064">
        <ele>62.0</ele>
        <time>2022-10-06T16:36:30Z</time>
      </trkpt>
      <trkpt lat="10.3659548" lon="-85.8001575">
        <ele>61.5</ele>
        <time>2022-10-06T16:36:31Z</time>
      </trkpt>
      <trkpt lat="10.3659232" lon="-85.8003104">
        <ele>61.5</ele>
        <time>2022-10-06T16:36:32Z</time>
      </trkpt>
      <trkpt lat="10.3658900" lon="-85.8004738">
        <ele>60.9</ele>
        <time>2022-10-06T16:36:33Z</time>
      </trkpt>
      <trkpt lat="10.3658568" lon="-85.8006383">
        <ele>60.1</ele>
        <time>2022-10-06T16:36:34Z</time>
      </trkpt>
      <trkpt lat="10.3658215" lon="-85.8008025">
        <ele>59.4</ele>
        <time>2022-10-06T16:36:35Z</time>
      </trkpt>
      <trkpt lat="10.3657865" lon="-85.8009664">
        <ele>58.6</ele>
        <time>2022-10-06T16:36:36Z</time>
      </trkpt>
      <trkpt lat="10.3657501" lon="-85.8011291">
        <ele>58.5</ele>
        <time>2022-10-06T16:36:37Z</time>
      </trkpt>
      <trkpt lat="10.3657088" lon="-85.8012952">
        <ele>57.9</ele>
        <time>2022-10-06T16:36:38Z</time>
      </trkpt>
      <trkpt lat="10.3656706" lon="-85.8014584">
        <ele>57.3</ele>
        <time>2022-10-06T16:36:39Z</time>
      </trkpt>
      <trkpt lat="10.3656340" lon="-85.8016190">
        <ele>56.8</ele>
        <time>2022-10-06T16:36:40Z</time>
      </trkpt>
      <trkpt lat="10.3655994" lon="-85.8017795">
        <ele>56.4</ele>
        <time>2022-10-06T16:36:41Z</time>
      </trkpt>
      <trkpt lat="10.3655658" lon="-85.8019399">
        <ele>55.9</ele>
        <time>2022-10-06T16:36:42Z</time>
      </trkpt>
      <trkpt lat="10.3655319" lon="-85.8020997">
        <ele>55.5</ele>
        <time>2022-10-06T16:36:43Z</time>
      </trkpt>
      <trkpt lat="10.3654985" lon="-85.8022568">
        <ele>55.1</ele>
        <time>2022-10-06T16:36:44Z</time>
      </trkpt>
      <trkpt lat="10.3654643" lon="-85.8024129">
        <ele>54.8</ele>
        <time>2022-10-06T16:36:45Z</time>
      </trkpt>
      <trkpt lat="10.3654313" lon="-85.8025677">
        <ele>54.4</ele>
        <time>2022-10-06T16:36:46Z</time>
      </trkpt>
      <trkpt lat="10.3653995" lon="-85.8027209">
        <ele>54.0</ele>
        <time>2022-10-06T16:36:47Z</time>
      </trkpt>
      <trkpt lat="10.3653686" lon="-85.8028731">
        <ele>53.6</ele>
        <time>2022-10-06T16:36:48Z</time>
      </trkpt>
      <trkpt lat="10.3653370" lon="-85.8030241">
        <ele>53.4</ele>
        <time>2022-10-06T16:36:49Z</time>
      </trkpt>
      <trkpt lat="10.3653053" lon="-85.8031730">
        <ele>53.0</ele>
        <time>2022-10-06T16:36:50Z</time>
      </trkpt>
      <trkpt lat="10.3652732" lon="-85.8033207">
        <ele>52.8</ele>
        <time>2022-10-06T16:36:51Z</time>
      </trkpt>
      <trkpt lat="10.3652417" lon="-85.8034672">
        <ele>52.5</ele>
        <time>2022-10-06T16:36:52Z</time>
      </trkpt>
      <trkpt lat="10.3652091" lon="-85.8036124">
        <ele>52.2</ele>
        <time>2022-10-06T16:36:53Z</time>
      </trkpt>
      <trkpt lat="10.3651757" lon="-85.8037557">
        <ele>52.1</ele>
        <time>2022-10-06T16:36:54Z</time>
      </trkpt>
      <trkpt lat="10.3651378" lon="-85.8038996">
        <ele>51.8</ele>
        <time>2022-10-06T16:36:55Z</time>
      </trkpt>
      <trkpt lat="10.3650980" lon="-85.8040391">
        <ele>51.6</ele>
        <time>2022-10-06T16:36:56Z</time>
      </trkpt>
      <trkpt lat="10.3650477" lon="-85.8041717">
        <ele>51.2</ele>
        <time>2022-10-06T16:36:57Z</time>
      </trkpt>
      <trkpt lat="10.3649914" lon="-85.8043017">
        <ele>50.9</ele>
        <time>2022-10-06T16:36:58Z</time>
      </trkpt>
      <trkpt lat="10.3649270" lon="-85.8044266">
        <ele>50.6</ele>
        <time>2022-10-06T16:36:59Z</time>
      </trkpt>
      <trkpt lat="10.3648557" lon="-85.8045424">
        <ele>50.3</ele>
        <time>2022-10-06T16:37:00Z</time>
      </trkpt>
      <trkpt lat="10.3647821" lon="-85.8046558">
        <ele>50.1</ele>
        <time>2022-10-06T16:37:01Z</time>
      </trkpt>
      <trkpt lat="10.3647072" lon="-85.8047665">
        <ele>49.8</ele>
        <time>2022-10-06T16:37:02Z</time>
      </trkpt>
      <trkpt lat="10.3646314" lon="-85.8048766">
        <ele>49.4</ele>
        <time>2022-10-06T16:37:03Z</time>
      </trkpt>
      <trkpt lat="10.3645561" lon="-85.8049858">
        <ele>49.1</ele>
        <time>2022-10-06T16:37:04Z</time>
      </trkpt>
      <trkpt lat="10.3644815" lon="-85.8050941">
        <ele>48.7</ele>
        <time>2022-10-06T16:37:05Z</time>
      </trkpt>
      <trkpt lat="10.3644078" lon="-85.8052016">
        <ele>48.5</ele>
        <time>2022-10-06T16:37:06Z</time>
      </trkpt>
      <trkpt lat="10.3643344" lon="-85.8053076">
        <ele>48.2</ele>
        <time>2022-10-06T16:37:07Z</time>
      </trkpt>
      <trkpt lat="10.3642606" lon="-85.8054123">
        <ele>47.9</ele>
        <time>2022-10-06T16:37:08Z</time>
      </trkpt>
      <trkpt lat="10.3641877" lon="-85.8055159">
        <ele>47.6</ele>
        <time>2022-10-06T16:37:09Z</time>
      </trkpt>
      <trkpt lat="10.3641145" lon="-85.8056185">
        <ele>47.2</ele>
        <time>2022-10-06T16:37:10Z</time>
      </trkpt>
      <trkpt lat="10.3640428" lon="-85.8057209">
        <ele>46.8</ele>
        <time>2022-10-06T16:37:11Z</time>
      </trkpt>
      <trkpt lat="10.3639731" lon="-85.8058253">
        <ele>46.6</ele>
        <time>2022-10-06T16:37:12Z</time>
      </trkpt>
      <trkpt lat="10.3638949" lon="-85.8059247">
        <ele>46.1</ele>
        <time>2022-10-06T16:37:13Z</time>
      </trkpt>
      <trkpt lat="10.3638230" lon="-85.8060269">
        <ele>45.6</ele>
        <time>2022-10-06T16:37:14Z</time>
      </trkpt>
      <trkpt lat="10.3637500" lon="-85.8061270">
        <ele>45.0</ele>
        <time>2022-10-06T16:37:15Z</time>
      </trkpt>
      <trkpt lat="10.3636783" lon="-85.8062282">
        <ele>44.3</ele>
        <time>2022-10-06T16:37:16Z</time>
      </trkpt>
      <trkpt lat="10.3636038" lon="-85.8063323">
        <ele>43.8</ele>
        <time>2022-10-06T16:37:17Z</time>
      </trkpt>
      <trkpt lat="10.3635285" lon="-85.8064371">
        <ele>43.2</ele>
        <time>2022-10-06T16:37:18Z</time>
      </trkpt>
      <trkpt lat="10.3634542" lon="-85.8065438">
        <ele>42.6</ele>
        <time>2022-10-06T16:37:19Z</time>
      </trkpt>
      <trkpt lat="10.3633792" lon="-85.8066499">
        <ele>42.1</ele>
        <time>2022-10-06T16:37:20Z</time>
      </trkpt>
      <trkpt lat="10.3633047" lon="-85.8067554">
        <ele>41.7</ele>
        <time>2022-10-06T16:37:21Z</time>
      </trkpt>
      <trkpt lat="10.3632331" lon="-85.8068606">
        <ele>41.4</ele>
        <time>2022-10-06T16:37:22Z</time>
      </trkpt>
      <trkpt lat="10.3631634" lon="-85.8069617">
        <ele>41.2</ele>
        <time>2022-10-06T16:37:23Z</time>
      </trkpt>
      <trkpt lat="10.3630961" lon="-85.8070590">
        <ele>41.0</ele>
        <time>2022-10-06T16:37:24Z</time>
      </trkpt>
      <trkpt lat="10.3630312" lon="-85.8071534">
        <ele>40.9</ele>
        <time>2022-10-06T16:37:25Z</time>
      </trkpt>
      <trkpt lat="10.3629681" lon="-85.8072433">
        <ele>40.8</ele>
        <time>2022-10-06T16:37:26Z</time>
      </trkpt>
      <trkpt lat="10.3629073" lon="-85.8073295">
        <ele>40.7</ele>
        <time>2022-10-06T16:37:27Z</time>
      </trkpt>
      <trkpt lat="10.3628509" lon="-85.8074092">
        <ele>40.6</ele>
        <time>2022-10-06T16:37:28Z</time>
      </trkpt>
      <trkpt lat="10.3627994" lon="-85.8074807">
        <ele>40.4</ele>
        <time>2022-10-06T16:37:29Z</time>
      </trkpt>
      <trkpt lat="10.3627539" lon="-85.8075429">
        <ele>40.3</ele>
        <time>2022-10-06T16:37:30Z</time>
      </trkpt>
      <trkpt lat="10.3627167" lon="-85.8075953">
        <ele>40.3</ele>
        <time>2022-10-06T16:37:31Z</time>
      </trkpt>
      <trkpt lat="10.3626839" lon="-85.8076357">
        <ele>40.3</ele>
        <time>2022-10-06T16:37:32Z</time>
      </trkpt>
      <trkpt lat="10.3626635" lon="-85.8076655">
        <ele>40.3</ele>
        <time>2022-10-06T16:37:33Z</time>
      </trkpt>
      <trkpt lat="10.3626485" lon="-85.8076828">
        <ele>40.3</ele>
        <time>2022-10-06T16:37:34Z</time>
      </trkpt>
      <trkpt lat="10.3626349" lon="-85.8077008">
        <ele>40.2</ele>
        <time>2022-10-06T16:37:35Z</time>
      </trkpt>
      <trkpt lat="10.3626133" lon="-85.8077167">
        <ele>40.3</ele>
        <time>2022-10-06T16:37:36Z</time>
      </trkpt>
      <trkpt lat="10.3625863" lon="-85.8077304">
        <ele>40.1</ele>
        <time>2022-10-06T16:37:37Z</time>
      </trkpt>
      <trkpt lat="10.3625482" lon="-85.8077392">
        <ele>40.1</ele>
        <time>2022-10-06T16:37:38Z</time>
      </trkpt>
      <trkpt lat="10.3625141" lon="-85.8077429">
        <ele>40.5</ele>
        <time>2022-10-06T16:37:39Z</time>
      </trkpt>
      <trkpt lat="10.3624823" lon="-85.8077418">
        <ele>40.2</ele>
        <time>2022-10-06T16:37:40Z</time>
      </trkpt>
      <trkpt lat="10.3624434" lon="-85.8077343">
        <ele>40.4</ele>
        <time>2022-10-06T16:37:41Z</time>
      </trkpt>
      <trkpt lat="10.3624053" lon="-85.8077320">
        <ele>40.5</ele>
        <time>2022-10-06T16:37:42Z</time>
      </trkpt>
      <trkpt lat="10.3623693" lon="-85.8077323">
        <ele>40.5</ele>
        <time>2022-10-06T16:37:43Z</time>
      </trkpt>
      <trkpt lat="10.3623294" lon="-85.8077439">
        <ele>40.7</ele>
        <time>2022-10-06T16:37:44Z</time>
      </trkpt>
      <trkpt lat="10.3622817" lon="-85.8077557">
        <ele>40.7</ele>
        <time>2022-10-06T16:37:45Z</time>
      </trkpt>
      <trkpt lat="10.3622359" lon="-85.8077686">
        <ele>40.8</ele>
        <time>2022-10-06T16:37:46Z</time>
      </trkpt>
      <trkpt lat="10.3621804" lon="-85.8077765">
        <ele>40.8</ele>
        <time>2022-10-06T16:37:47Z</time>
      </trkpt>
      <trkpt lat="10.3621203" lon="-85.8077773">
        <ele>40.9</ele>
        <time>2022-10-06T16:37:48Z</time>
      </trkpt>
      <trkpt lat="10.3620626" lon="-85.8077729">
        <ele>40.9</ele>
        <time>2022-10-06T16:37:49Z</time>
      </trkpt>
      <trkpt lat="10.3620100" lon="-85.8077679">
        <ele>40.9</ele>
        <time>2022-10-06T16:37:50Z</time>
      </trkpt>
      <trkpt lat="10.3619680" lon="-85.8077579">
        <ele>40.8</ele>
        <time>2022-10-06T16:37:51Z</time>
      </trkpt>
      <trkpt lat="10.3619179" lon="-85.8077496">
        <ele>41.0</ele>
        <time>2022-10-06T16:37:52Z</time>
      </trkpt>
      <trkpt lat="10.3618709" lon="-85.8077335">
        <ele>41.1</ele>
        <time>2022-10-06T16:37:53Z</time>
      </trkpt>
      <trkpt lat="10.3618307" lon="-85.8077195">
        <ele>40.9</ele>
        <time>2022-10-06T16:37:54Z</time>
      </trkpt>
      <trkpt lat="10.3617857" lon="-85.8077089">
        <ele>39.5</ele>
        <time>2022-10-06T16:37:55Z</time>
      </trkpt>
      <trkpt lat="10.3617439" lon="-85.8076993">
        <ele>40.0</ele>
        <time>2022-10-06T16:37:56Z</time>
      </trkpt>
      <trkpt lat="10.3616962" lon="-85.8076924">
        <ele>40.0</ele>
        <time>2022-10-06T16:37:57Z</time>
      </trkpt>
      <trkpt lat="10.3616393" lon="-85.8076854">
        <ele>40.3</ele>
        <time>2022-10-06T16:37:58Z</time>
      </trkpt>
      <trkpt lat="10.3615859" lon="-85.8076755">
        <ele>40.2</ele>
        <time>2022-10-06T16:37:59Z</time>
      </trkpt>
      <trkpt lat="10.3615392" lon="-85.8076719">
        <ele>39.8</ele>
        <time>2022-10-06T16:38:00Z</time>
      </trkpt>
      <trkpt lat="10.3614975" lon="-85.8076693">
        <ele>39.8</ele>
        <time>2022-10-06T16:38:01Z</time>
      </trkpt>
      <trkpt lat="10.3614633" lon="-85.8076640">
        <ele>39.7</ele>
        <time>2022-10-06T16:38:02Z</time>
      </trkpt>
      <trkpt lat="10.3614173" lon="-85.8076710">
        <ele>39.7</ele>
        <time>2022-10-06T16:38:03Z</time>
      </trkpt>
      <trkpt lat="10.3613848" lon="-85.8076694">
        <ele>39.4</ele>
        <time>2022-10-06T16:38:04Z</time>
      </trkpt>
      <trkpt lat="10.3613507" lon="-85.8076666">
        <ele>39.2</ele>
        <time>2022-10-06T16:38:05Z</time>
      </trkpt>
      <trkpt lat="10.3613137" lon="-85.8076631">
        <ele>39.0</ele>
        <time>2022-10-06T16:38:06Z</time>
      </trkpt>
      <trkpt lat="10.3612703" lon="-85.8076657">
        <ele>38.8</ele>
        <time>2022-10-06T16:38:07Z</time>
      </trkpt>
      <trkpt lat="10.3612261" lon="-85.8076647">
        <ele>38.7</ele>
        <time>2022-10-06T16:38:08Z</time>
      </trkpt>
      <trkpt lat="10.3611820" lon="-85.8076686">
        <ele>38.4</ele>
        <time>2022-10-06T16:38:09Z</time>
      </trkpt>
      <trkpt lat="10.3611344" lon="-85.8076714">
        <ele>38.2</ele>
        <time>2022-10-06T16:38:10Z</time>
      </trkpt>
      <trkpt lat="10.3610891" lon="-85.8076707">
        <ele>38.0</ele>
        <time>2022-10-06T16:38:11Z</time>
      </trkpt>
      <trkpt lat="10.3610452" lon="-85.8076751">
        <ele>38.1</ele>
        <time>2022-10-06T16:38:12Z</time>
      </trkpt>
      <trkpt lat="10.3610025" lon="-85.8076732">
        <ele>38.3</ele>
        <time>2022-10-06T16:38:13Z</time>
      </trkpt>
      <trkpt lat="10.3609572" lon="-85.8076670">
        <ele>38.2</ele>
        <time>2022-10-06T16:38:14Z</time>
      </trkpt>
      <trkpt lat="10.3609100" lon="-85.8076632">
        <ele>38.2</ele>
        <time>2022-10-06T16:38:15Z</time>
      </trkpt>
      <trkpt lat="10.3608643" lon="-85.8076595">
        <ele>38.0</ele>
        <time>2022-10-06T16:38:16Z</time>
      </trkpt>
      <trkpt lat="10.3608199" lon="-85.8076582">
        <ele>37.8</ele>
        <time>2022-10-06T16:38:17Z</time>
      </trkpt>
      <trkpt lat="10.3607726" lon="-85.8076552">
        <ele>37.7</ele>
        <time>2022-10-06T16:38:18Z</time>
      </trkpt>
      <trkpt lat="10.3607270" lon="-85.8076510">
        <ele>37.7</ele>
        <time>2022-10-06T16:38:19Z</time>
      </trkpt>
      <trkpt lat="10.3606793" lon="-85.8076468">
        <ele>37.5</ele>
        <time>2022-10-06T16:38:20Z</time>
      </trkpt>
      <trkpt lat="10.3606282" lon="-85.8076437">
        <ele>37.3</ele>
        <time>2022-10-06T16:38:21Z</time>
      </trkpt>
      <trkpt lat="10.3605825" lon="-85.8076383">
        <ele>37.2</ele>
        <time>2022-10-06T16:38:22Z</time>
      </trkpt>
      <trkpt lat="10.3605377" lon="-85.8076331">
        <ele>37.0</ele>
        <time>2022-10-06T16:38:23Z</time>
      </trkpt>
      <trkpt lat="10.3604972" lon="-85.8076273">
        <ele>37.0</ele>
        <time>2022-10-06T16:38:24Z</time>
      </trkpt>
      <trkpt lat="10.3604626" lon="-85.8076216">
        <ele>37.1</ele>
        <time>2022-10-06T16:38:25Z</time>
      </trkpt>
      <trkpt lat="10.3604301" lon="-85.8076170">
        <ele>37.1</ele>
        <time>2022-10-06T16:38:26Z</time>
      </trkpt>
      <trkpt lat="10.3603971" lon="-85.8076113">
        <ele>37.1</ele>
        <time>2022-10-06T16:38:27Z</time>
      </trkpt>
      <trkpt lat="10.3603658" lon="-85.8076039">
        <ele>37.0</ele>
        <time>2022-10-06T16:38:28Z</time>
      </trkpt>
      <trkpt lat="10.3603354" lon="-85.8075921">
        <ele>37.0</ele>
        <time>2022-10-06T16:38:29Z</time>
      </trkpt>
      <trkpt lat="10.3603017" lon="-85.8075765">
        <ele>37.1</ele>
        <time>2022-10-06T16:38:30Z</time>
      </trkpt>
      <trkpt lat="10.3602677" lon="-85.8075592">
        <ele>37.1</ele>
        <time>2022-10-06T16:38:31Z</time>
      </trkpt>
      <trkpt lat="10.3602318" lon="-85.8075430">
        <ele>37.0</ele>
        <time>2022-10-06T16:38:32Z</time>
      </trkpt>
      <trkpt lat="10.3601963" lon="-85.8075202">
        <ele>36.9</ele>
        <time>2022-10-06T16:38:33Z</time>
      </trkpt>
      <trkpt lat="10.3601562" lon="-85.8074959">
        <ele>36.9</ele>
        <time>2022-10-06T16:38:34Z</time>
      </trkpt>
      <trkpt lat="10.3601170" lon="-85.8074738">
        <ele>36.9</ele>
        <time>2022-10-06T16:38:35Z</time>
      </trkpt>
      <trkpt lat="10.3600846" lon="-85.8074628">
        <ele>37.0</ele>
        <time>2022-10-06T16:38:36Z</time>
      </trkpt>
      <trkpt lat="10.3600526" lon="-85.8074699">
        <ele>36.8</ele>
        <time>2022-10-06T16:38:37Z</time>
      </trkpt>
      <trkpt lat="10.3600194" lon="-85.8074781">
        <ele>36.6</ele>
        <time>2022-10-06T16:38:38Z</time>
      </trkpt>
      <trkpt lat="10.3599936" lon="-85.8074902">
        <ele>36.7</ele>
        <time>2022-10-06T16:38:39Z</time>
      </trkpt>
      <trkpt lat="10.3599710" lon="-85.8074961">
        <ele>36.7</ele>
        <time>2022-10-06T16:38:40Z</time>
      </trkpt>
      <trkpt lat="10.3599545" lon="-85.8075042">
        <ele>36.8</ele>
        <time>2022-10-06T16:38:41Z</time>
      </trkpt>
      <trkpt lat="10.3599362" lon="-85.8075089">
        <ele>36.9</ele>
        <time>2022-10-06T16:38:42Z</time>
      </trkpt>
      <trkpt lat="10.3599155" lon="-85.8075160">
        <ele>36.7</ele>
        <time>2022-10-06T16:38:43Z</time>
      </trkpt>
      <trkpt lat="10.3598872" lon="-85.8075228">
        <ele>36.9</ele>
        <time>2022-10-06T16:38:44Z</time>
      </trkpt>
      <trkpt lat="10.3598583" lon="-85.8075311">
        <ele>37.1</ele>
        <time>2022-10-06T16:38:45Z</time>
      </trkpt>
      <trkpt lat="10.3598277" lon="-85.8075385">
        <ele>37.1</ele>
        <time>2022-10-06T16:38:46Z</time>
      </trkpt>
      <trkpt lat="10.3597955" lon="-85.8075467">
        <ele>37.2</ele>
        <time>2022-10-06T16:38:47Z</time>
      </trkpt>
      <trkpt lat="10.3597628" lon="-85.8075553">
        <ele>37.3</ele>
        <time>2022-10-06T16:38:48Z</time>
      </trkpt>
      <trkpt lat="10.3597279" lon="-85.8075645">
        <ele>37.4</ele>
        <time>2022-10-06T16:38:49Z</time>
      </trkpt>
      <trkpt lat="10.3596907" lon="-85.8075742">
        <ele>37.6</ele>
        <time>2022-10-06T16:38:50Z</time>
      </trkpt>
      <trkpt lat="10.3596530" lon="-85.8075843">
        <ele>37.6</ele>
        <time>2022-10-06T16:38:51Z</time>
      </trkpt>
      <trkpt lat="10.3596195" lon="-85.8075926">
        <ele>37.8</ele>
        <time>2022-10-06T16:38:52Z</time>
      </trkpt>
      <trkpt lat="10.3595944" lon="-85.8075999">
        <ele>38.0</ele>
        <time>2022-10-06T16:38:53Z</time>
      </trkpt>
      <trkpt lat="10.3595766" lon="-85.8076053">
        <ele>38.0</ele>
        <time>2022-10-06T16:38:54Z</time>
      </trkpt>
      <trkpt lat="10.3595625" lon="-85.8076103">
        <ele>38.1</ele>
        <time>2022-10-06T16:38:55Z</time>
      </trkpt>
      <trkpt lat="10.3595482" lon="-85.8076152">
        <ele>38.1</ele>
        <time>2022-10-06T16:38:56Z</time>
      </trkpt>
      <trkpt lat="10.3595333" lon="-85.8076216">
        <ele>38.0</ele>
        <time>2022-10-06T16:38:57Z</time>
      </trkpt>
      <trkpt lat="10.3595172" lon="-85.8076286">
        <ele>38.0</ele>
        <time>2022-10-06T16:38:58Z</time>
      </trkpt>
      <trkpt lat="10.3594996" lon="-85.8076370">
        <ele>38.0</ele>
        <time>2022-10-06T16:38:59Z</time>
      </trkpt>
      <trkpt lat="10.3594782" lon="-85.8076468">
        <ele>38.0</ele>
        <time>2022-10-06T16:39:00Z</time>
      </trkpt>
      <trkpt lat="10.3594544" lon="-85.8076574">
        <ele>37.8</ele>
        <time>2022-10-06T16:39:01Z</time>
      </trkpt>
      <trkpt lat="10.3594245" lon="-85.8076713">
        <ele>37.8</ele>
        <time>2022-10-06T16:39:02Z</time>
      </trkpt>
      <trkpt lat="10.3593947" lon="-85.8076838">
        <ele>37.7</ele>
        <time>2022-10-06T16:39:03Z</time>
      </trkpt>
      <trkpt lat="10.3593592" lon="-85.8076962">
        <ele>37.5</ele>
        <time>2022-10-06T16:39:04Z</time>
      </trkpt>
      <trkpt lat="10.3593229" lon="-85.8077093">
        <ele>37.3</ele>
        <time>2022-10-06T16:39:05Z</time>
      </trkpt>
      <trkpt lat="10.3592825" lon="-85.8077221">
        <ele>37.2</ele>
        <time>2022-10-06T16:39:06Z</time>
      </trkpt>
      <trkpt lat="10.3592384" lon="-85.8077342">
        <ele>37.0</ele>
        <time>2022-10-06T16:39:07Z</time>
      </trkpt>
      <trkpt lat="10.3591916" lon="-85.8077439">
        <ele>36.8</ele>
        <time>2022-10-06T16:39:08Z</time>
      </trkpt>
      <trkpt lat="10.3591431" lon="-85.8077518">
        <ele>36.7</ele>
        <time>2022-10-06T16:39:09Z</time>
      </trkpt>
      <trkpt lat="10.3590932" lon="-85.8077566">
        <ele>36.5</ele>
        <time>2022-10-06T16:39:10Z</time>
      </trkpt>
      <trkpt lat="10.3590440" lon="-85.8077575">
        <ele>36.4</ele>
        <time>2022-10-06T16:39:11Z</time>
      </trkpt>
      <trkpt lat="10.3589979" lon="-85.8077577">
        <ele>36.5</ele>
        <time>2022-10-06T16:39:12Z</time>
      </trkpt>
      <trkpt lat="10.3589554" lon="-85.8077578">
        <ele>36.5</ele>
        <time>2022-10-06T16:39:13Z</time>
      </trkpt>
      <trkpt lat="10.3589084" lon="-85.8077658">
        <ele>36.2</ele>
        <time>2022-10-06T16:39:14Z</time>
      </trkpt>
      <trkpt lat="10.3588617" lon="-85.8077663">
        <ele>36.2</ele>
        <time>2022-10-06T16:39:15Z</time>
      </trkpt>
      <trkpt lat="10.3588159" lon="-85.8077638">
        <ele>36.1</ele>
        <time>2022-10-06T16:39:16Z</time>
      </trkpt>
      <trkpt lat="10.3587734" lon="-85.8077602">
        <ele>35.9</ele>
        <time>2022-10-06T16:39:17Z</time>
      </trkpt>
      <trkpt lat="10.3587327" lon="-85.8077513">
        <ele>36.1</ele>
        <time>2022-10-06T16:39:18Z</time>
      </trkpt>
      <trkpt lat="10.3586970" lon="-85.8077439">
        <ele>36.1</ele>
        <time>2022-10-06T16:39:19Z</time>
      </trkpt>
      <trkpt lat="10.3586662" lon="-85.8077349">
        <ele>35.9</ele>
        <time>2022-10-06T16:39:20Z</time>
      </trkpt>
      <trkpt lat="10.3586359" lon="-85.8077272">
        <ele>36.0</ele>
        <time>2022-10-06T16:39:21Z</time>
      </trkpt>
      <trkpt lat="10.3586166" lon="-85.8077216">
        <ele>35.5</ele>
        <time>2022-10-06T16:39:22Z</time>
      </trkpt>
      <trkpt lat="10.3585960" lon="-85.8077144">
        <ele>35.2</ele>
        <time>2022-10-06T16:39:23Z</time>
      </trkpt>
      <trkpt lat="10.3585703" lon="-85.8077066">
        <ele>35.1</ele>
        <time>2022-10-06T16:39:24Z</time>
      </trkpt>
      <trkpt lat="10.3585353" lon="-85.8076965">
        <ele>35.1</ele>
        <time>2022-10-06T16:39:25Z</time>
      </trkpt>
      <trkpt lat="10.3585061" lon="-85.8076821">
        <ele>36.0</ele>
        <time>2022-10-06T16:39:26Z</time>
      </trkpt>
      <trkpt lat="10.3584662" lon="-85.8076592">
        <ele>35.7</ele>
        <time>2022-10-06T16:39:27Z</time>
      </trkpt>
      <trkpt lat="10.3584255" lon="-85.8076356">
        <ele>35.2</ele>
        <time>2022-10-06T16:39:28Z</time>
      </trkpt>
      <trkpt lat="10.3583938" lon="-85.8076149">
        <ele>34.8</ele>
        <time>2022-10-06T16:39:29Z</time>
      </trkpt>
      <trkpt lat="10.3583635" lon="-85.8075937">
        <ele>34.6</ele>
        <time>2022-10-06T16:39:30Z</time>
      </trkpt>
      <trkpt lat="10.3583240" lon="-85.8075684">
        <ele>34.5</ele>
        <time>2022-10-06T16:39:31Z</time>
      </trkpt>
      <trkpt lat="10.3582862" lon="-85.8075437">
        <ele>34.3</ele>
        <time>2022-10-06T16:39:32Z</time>
      </trkpt>
      <trkpt lat="10.3582472" lon="-85.8075170">
        <ele>33.7</ele>
        <time>2022-10-06T16:39:33Z</time>
      </trkpt>
      <trkpt lat="10.3582074" lon="-85.8074913">
        <ele>34.0</ele>
        <time>2022-10-06T16:39:34Z</time>
      </trkpt>
      <trkpt lat="10.3581635" lon="-85.8074683">
        <ele>34.3</ele>
        <time>2022-10-06T16:39:35Z</time>
      </trkpt>
      <trkpt lat="10.3581171" lon="-85.8074494">
        <ele>35.5</ele>
        <time>2022-10-06T16:39:36Z</time>
      </trkpt>
      <trkpt lat="10.3580696" lon="-85.8074284">
        <ele>35.4</ele>
        <time>2022-10-06T16:39:37Z</time>
      </trkpt>
      <trkpt lat="10.3580220" lon="-85.8074089">
        <ele>35.5</ele>
        <time>2022-10-06T16:39:38Z</time>
      </trkpt>
      <trkpt lat="10.3579739" lon="-85.8073939">
        <ele>35.2</ele>
        <time>2022-10-06T16:39:39Z</time>
      </trkpt>
      <trkpt lat="10.3579218" lon="-85.8073776">
        <ele>35.4</ele>
        <time>2022-10-06T16:39:40Z</time>
      </trkpt>
      <trkpt lat="10.3578761" lon="-85.8073569">
        <ele>35.6</ele>
        <time>2022-10-06T16:39:41Z</time>
      </trkpt>
      <trkpt lat="10.3578380" lon="-85.8073309">
        <ele>35.4</ele>
        <time>2022-10-06T16:39:42Z</time>
      </trkpt>
      <trkpt lat="10.3577881" lon="-85.8072967">
        <ele>35.5</ele>
        <time>2022-10-06T16:39:43Z</time>
      </trkpt>
      <trkpt lat="10.3577382" lon="-85.8072621">
        <ele>35.3</ele>
        <time>2022-10-06T16:39:44Z</time>
      </trkpt>
      <trkpt lat="10.3576880" lon="-85.8072305">
        <ele>35.2</ele>
        <time>2022-10-06T16:39:45Z</time>
      </trkpt>
      <trkpt lat="10.3576410" lon="-85.8072025">
        <ele>35.1</ele>
        <time>2022-10-06T16:39:46Z</time>
      </trkpt>
      <trkpt lat="10.3576057" lon="-85.8071799">
        <ele>35.0</ele>
        <time>2022-10-06T16:39:47Z</time>
      </trkpt>
      <trkpt lat="10.3575765" lon="-85.8071643">
        <ele>35.0</ele>
        <time>2022-10-06T16:39:48Z</time>
      </trkpt>
      <trkpt lat="10.3575583" lon="-85.8071528">
        <ele>34.9</ele>
        <time>2022-10-06T16:39:49Z</time>
      </trkpt>
      <trkpt lat="10.3575407" lon="-85.8071429">
        <ele>34.9</ele>
        <time>2022-10-06T16:39:50Z</time>
      </trkpt>
      <trkpt lat="10.3575307" lon="-85.8071371">
        <ele>34.8</ele>
        <time>2022-10-06T16:39:51Z</time>
      </trkpt>
      <trkpt lat="10.3575176" lon="-85.8071291">
        <ele>34.7</ele>
        <time>2022-10-06T16:39:52Z</time>
      </trkpt>
      <trkpt lat="10.3575064" lon="-85.8071235">
        <ele>34.7</ele>
        <time>2022-10-06T16:39:53Z</time>
      </trkpt>
      <trkpt lat="10.3574920" lon="-85.8071144">
        <ele>34.7</ele>
        <time>2022-10-06T16:39:54Z</time>
      </trkpt>
      <trkpt lat="10.3574729" lon="-85.8071005">
        <ele>34.7</ele>
        <time>2022-10-06T16:39:55Z</time>
      </trkpt>
      <trkpt lat="10.3574449" lon="-85.8070818">
        <ele>34.7</ele>
        <time>2022-10-06T16:39:56Z</time>
      </trkpt>
      <trkpt lat="10.3574167" lon="-85.8070619">
        <ele>35.1</ele>
        <time>2022-10-06T16:39:57Z</time>
      </trkpt>
      <trkpt lat="10.3573747" lon="-85.8070359">
        <ele>34.9</ele>
        <time>2022-10-06T16:39:58Z</time>
      </trkpt>
      <trkpt lat="10.3573382" lon="-85.8070090">
        <ele>35.1</ele>
        <time>2022-10-06T16:39:59Z</time>
      </trkpt>
      <trkpt lat="10.3572988" lon="-85.8069804">
        <ele>35.2</ele>
        <time>2022-10-06T16:40:00Z</time>
      </trkpt>
      <trkpt lat="10.3572574" lon="-85.8069516">
        <ele>35.5</ele>
        <time>2022-10-06T16:40:01Z</time>
      </trkpt>
      <trkpt lat="10.3572143" lon="-85.8069186">
        <ele>35.2</ele>
        <time>2022-10-06T16:40:02Z</time>
      </trkpt>
      <trkpt lat="10.3571707" lon="-85.8068897">
        <ele>34.8</ele>
        <time>2022-10-06T16:40:03Z</time>
      </trkpt>
      <trkpt lat="10.3571279" lon="-85.8068622">
        <ele>35.0</ele>
        <time>2022-10-06T16:40:04Z</time>
      </trkpt>
      <trkpt lat="10.3570868" lon="-85.8068324">
        <ele>35.2</ele>
        <time>2022-10-06T16:40:05Z</time>
      </trkpt>
      <trkpt lat="10.3570428" lon="-85.8068022">
        <ele>34.9</ele>
        <time>2022-10-06T16:40:06Z</time>
      </trkpt>
      <trkpt lat="10.3569926" lon="-85.8067783">
        <ele>34.6</ele>
        <time>2022-10-06T16:40:07Z</time>
      </trkpt>
      <trkpt lat="10.3569387" lon="-85.8067502">
        <ele>34.6</ele>
        <time>2022-10-06T16:40:08Z</time>
      </trkpt>
      <trkpt lat="10.3568841" lon="-85.8067166">
        <ele>34.8</ele>
        <time>2022-10-06T16:40:09Z</time>
      </trkpt>
      <trkpt lat="10.3568278" lon="-85.8066819">
        <ele>34.8</ele>
        <time>2022-10-06T16:40:10Z</time>
      </trkpt>
      <trkpt lat="10.3567746" lon="-85.8066507">
        <ele>34.7</ele>
        <time>2022-10-06T16:40:11Z</time>
      </trkpt>
      <trkpt lat="10.3567224" lon="-85.8066227">
        <ele>34.4</ele>
        <time>2022-10-06T16:40:12Z</time>
      </trkpt>
      <trkpt lat="10.3566711" lon="-85.8065949">
        <ele>34.2</ele>
        <time>2022-10-06T16:40:13Z</time>
      </trkpt>
      <trkpt lat="10.3566162" lon="-85.8065726">
        <ele>33.7</ele>
        <time>2022-10-06T16:40:14Z</time>
      </trkpt>
      <trkpt lat="10.3565567" lon="-85.8065540">
        <ele>33.6</ele>
        <time>2022-10-06T16:40:15Z</time>
      </trkpt>
      <trkpt lat="10.3565018" lon="-85.8065323">
        <ele>33.6</ele>
        <time>2022-10-06T16:40:16Z</time>
      </trkpt>
      <trkpt lat="10.3564518" lon="-85.8065083">
        <ele>33.6</ele>
        <time>2022-10-06T16:40:17Z</time>
      </trkpt>
      <trkpt lat="10.3564066" lon="-85.8064857">
        <ele>33.6</ele>
        <time>2022-10-06T16:40:18Z</time>
      </trkpt>
      <trkpt lat="10.3563708" lon="-85.8064698">
        <ele>33.7</ele>
        <time>2022-10-06T16:40:19Z</time>
      </trkpt>
      <trkpt lat="10.3563402" lon="-85.8064630">
        <ele>33.6</ele>
        <time>2022-10-06T16:40:20Z</time>
      </trkpt>
      <trkpt lat="10.3563180" lon="-85.8064574">
        <ele>33.7</ele>
        <time>2022-10-06T16:40:21Z</time>
      </trkpt>
      <trkpt lat="10.3563061" lon="-85.8064565">
        <ele>33.6</ele>
        <time>2022-10-06T16:40:22Z</time>
      </trkpt>
      <trkpt lat="10.3562975" lon="-85.8064561">
        <ele>33.4</ele>
        <time>2022-10-06T16:40:23Z</time>
      </trkpt>
      <trkpt lat="10.3562924" lon="-85.8064557">
        <ele>33.5</ele>
        <time>2022-10-06T16:40:24Z</time>
      </trkpt>
      <trkpt lat="10.3562833" lon="-85.8064515">
        <ele>33.5</ele>
        <time>2022-10-06T16:40:25Z</time>
      </trkpt>
      <trkpt lat="10.3562753" lon="-85.8064462">
        <ele>33.5</ele>
        <time>2022-10-06T16:40:26Z</time>
      </trkpt>
      <trkpt lat="10.3562577" lon="-85.8064359">
        <ele>33.6</ele>
        <time>2022-10-06T16:40:27Z</time>
      </trkpt>
      <trkpt lat="10.3562374" lon="-85.8064232">
        <ele>33.7</ele>
        <time>2022-10-06T16:40:28Z</time>
      </trkpt>
      <trkpt lat="10.3562150" lon="-85.8064102">
        <ele>33.5</ele>
        <time>2022-10-06T16:40:29Z</time>
      </trkpt>
      <trkpt lat="10.3561837" lon="-85.8063943">
        <ele>33.6</ele>
        <time>2022-10-06T16:40:30Z</time>
      </trkpt>
      <trkpt lat="10.3561573" lon="-85.8063782">
        <ele>33.9</ele>
        <time>2022-10-06T16:40:31Z</time>
      </trkpt>
      <trkpt lat="10.3561212" lon="-85.8063599">
        <ele>33.9</ele>
        <time>2022-10-06T16:40:32Z</time>
      </trkpt>
      <trkpt lat="10.3560840" lon="-85.8063416">
        <ele>33.8</ele>
        <time>2022-10-06T16:40:33Z</time>
      </trkpt>
      <trkpt lat="10.3560441" lon="-85.8063235">
        <ele>33.9</ele>
        <time>2022-10-06T16:40:34Z</time>
      </trkpt>
      <trkpt lat="10.3560025" lon="-85.8063025">
        <ele>33.8</ele>
        <time>2022-10-06T16:40:35Z</time>
      </trkpt>
      <trkpt lat="10.3559617" lon="-85.8062817">
        <ele>33.7</ele>
        <time>2022-10-06T16:40:36Z</time>
      </trkpt>
      <trkpt lat="10.3559215" lon="-85.8062623">
        <ele>33.7</ele>
        <time>2022-10-06T16:40:37Z</time>
      </trkpt>
      <trkpt lat="10.3558787" lon="-85.8062413">
        <ele>33.6</ele>
        <time>2022-10-06T16:40:38Z</time>
      </trkpt>
      <trkpt lat="10.3558352" lon="-85.8062198">
        <ele>33.6</ele>
        <time>2022-10-06T16:40:39Z</time>
      </trkpt>
      <trkpt lat="10.3557991" lon="-85.8061973">
        <ele>33.7</ele>
        <time>2022-10-06T16:40:40Z</time>
      </trkpt>
      <trkpt lat="10.3557627" lon="-85.8061755">
        <ele>33.7</ele>
        <time>2022-10-06T16:40:41Z</time>
      </trkpt>
      <trkpt lat="10.3557280" lon="-85.8061563">
        <ele>33.7</ele>
        <time>2022-10-06T16:40:42Z</time>
      </trkpt>
      <trkpt lat="10.3556930" lon="-85.8061402">
        <ele>33.8</ele>
        <time>2022-10-06T16:40:43Z</time>
      </trkpt>
      <trkpt lat="10.3556547" lon="-85.8061260">
        <ele>33.4</ele>
        <time>2022-10-06T16:40:44Z</time>
      </trkpt>
      <trkpt lat="10.3556153" lon="-85.8061107">
        <ele>33.1</ele>
        <time>2022-10-06T16:40:45Z</time>
      </trkpt>
      <trkpt lat="10.3555722" lon="-85.8060920">
        <ele>33.2</ele>
        <time>2022-10-06T16:40:46Z</time>
      </trkpt>
      <trkpt lat="10.3555307" lon="-85.8060721">
        <ele>33.4</ele>
        <time>2022-10-06T16:40:47Z</time>
      </trkpt>
      <trkpt lat="10.3554882" lon="-85.8060543">
        <ele>33.2</ele>
        <time>2022-10-06T16:40:48Z</time>
      </trkpt>
      <trkpt lat="10.3554429" lon="-85.8060319">
        <ele>33.1</ele>
        <time>2022-10-06T16:40:49Z</time>
      </trkpt>
      <trkpt lat="10.3553989" lon="-85.8060116">
        <ele>32.9</ele>
        <time>2022-10-06T16:40:50Z</time>
      </trkpt>
      <trkpt lat="10.3553571" lon="-85.8059920">
        <ele>32.8</ele>
        <time>2022-10-06T16:40:51Z</time>
      </trkpt>
      <trkpt lat="10.3553148" lon="-85.8059705">
        <ele>33.0</ele>
        <time>2022-10-06T16:40:52Z</time>
      </trkpt>
      <trkpt lat="10.3552628" lon="-85.8059475">
        <ele>33.2</ele>
        <time>2022-10-06T16:40:53Z</time>
      </trkpt>
      <trkpt lat="10.3552130" lon="-85.8059231">
        <ele>33.2</ele>
        <time>2022-10-06T16:40:54Z</time>
      </trkpt>
      <trkpt lat="10.3551638" lon="-85.8058987">
        <ele>33.1</ele>
        <time>2022-10-06T16:40:55Z</time>
      </trkpt>
      <trkpt lat="10.3551121" lon="-85.8058779">
        <ele>33.3</ele>
        <time>2022-10-06T16:40:56Z</time>
      </trkpt>
      <trkpt lat="10.3550623" lon="-85.8058546">
        <ele>33.4</ele>
        <time>2022-10-06T16:40:57Z</time>
      </trkpt>
      <trkpt lat="10.3550183" lon="-85.8058326">
        <ele>33.5</ele>
        <time>2022-10-06T16:40:58Z</time>
      </trkpt>
      <trkpt lat="10.3549730" lon="-85.8058068">
        <ele>33.5</ele>
        <time>2022-10-06T16:40:59Z</time>
      </trkpt>
      <trkpt lat="10.3549273" lon="-85.8057858">
        <ele>33.5</ele>
        <time>2022-10-06T16:41:00Z</time>
      </trkpt>
      <trkpt lat="10.3548842" lon="-85.8057658">
        <ele>33.5</ele>
        <time>2022-10-06T16:41:01Z</time>
      </trkpt>
      <trkpt lat="10.3548315" lon="-85.8057497">
        <ele>33.6</ele>
        <time>2022-10-06T16:41:02Z</time>
      </trkpt>
      <trkpt lat="10.3547794" lon="-85.8057324">
        <ele>33.6</ele>
        <time>2022-10-06T16:41:03Z</time>
      </trkpt>
      <trkpt lat="10.3547243" lon="-85.8057190">
        <ele>33.6</ele>
        <time>2022-10-06T16:41:04Z</time>
      </trkpt>
      <trkpt lat="10.3546673" lon="-85.8057115">
        <ele>33.7</ele>
        <time>2022-10-06T16:41:05Z</time>
      </trkpt>
      <trkpt lat="10.3546161" lon="-85.8057079">
        <ele>33.7</ele>
        <time>2022-10-06T16:41:06Z</time>
      </trkpt>
      <trkpt lat="10.3545715" lon="-85.8057070">
        <ele>33.8</ele>
        <time>2022-10-06T16:41:07Z</time>
      </trkpt>
      <trkpt lat="10.3545326" lon="-85.8057050">
        <ele>33.8</ele>
        <time>2022-10-06T16:41:08Z</time>
      </trkpt>
      <trkpt lat="10.3544951" lon="-85.8057037">
        <ele>33.8</ele>
        <time>2022-10-06T16:41:09Z</time>
      </trkpt>
      <trkpt lat="10.3544566" lon="-85.8057054">
        <ele>33.9</ele>
        <time>2022-10-06T16:41:10Z</time>
      </trkpt>
      <trkpt lat="10.3544163" lon="-85.8057078">
        <ele>34.0</ele>
        <time>2022-10-06T16:41:11Z</time>
      </trkpt>
      <trkpt lat="10.3543752" lon="-85.8057106">
        <ele>33.7</ele>
        <time>2022-10-06T16:41:12Z</time>
      </trkpt>
      <trkpt lat="10.3543280" lon="-85.8057132">
        <ele>33.9</ele>
        <time>2022-10-06T16:41:13Z</time>
      </trkpt>
      <trkpt lat="10.3542795" lon="-85.8057150">
        <ele>33.9</ele>
        <time>2022-10-06T16:41:14Z</time>
      </trkpt>
      <trkpt lat="10.3542283" lon="-85.8057172">
        <ele>34.1</ele>
        <time>2022-10-06T16:41:15Z</time>
      </trkpt>
      <trkpt lat="10.3541772" lon="-85.8057195">
        <ele>34.0</ele>
        <time>2022-10-06T16:41:16Z</time>
      </trkpt>
      <trkpt lat="10.3541185" lon="-85.8057236">
        <ele>34.2</ele>
        <time>2022-10-06T16:41:17Z</time>
      </trkpt>
      <trkpt lat="10.3540587" lon="-85.8057252">
        <ele>34.2</ele>
        <time>2022-10-06T16:41:18Z</time>
      </trkpt>
      <trkpt lat="10.3539991" lon="-85.8057304">
        <ele>34.6</ele>
        <time>2022-10-06T16:41:19Z</time>
      </trkpt>
      <trkpt lat="10.3539410" lon="-85.8057376">
        <ele>34.6</ele>
        <time>2022-10-06T16:41:20Z</time>
      </trkpt>
      <trkpt lat="10.3538782" lon="-85.8057454">
        <ele>34.7</ele>
        <time>2022-10-06T16:41:21Z</time>
      </trkpt>
      <trkpt lat="10.3538159" lon="-85.8057542">
        <ele>34.9</ele>
        <time>2022-10-06T16:41:22Z</time>
      </trkpt>
      <trkpt lat="10.3537548" lon="-85.8057634">
        <ele>35.0</ele>
        <time>2022-10-06T16:41:23Z</time>
      </trkpt>
      <trkpt lat="10.3536934" lon="-85.8057734">
        <ele>35.3</ele>
        <time>2022-10-06T16:41:24Z</time>
      </trkpt>
      <trkpt lat="10.3536331" lon="-85.8057837">
        <ele>35.3</ele>
        <time>2022-10-06T16:41:25Z</time>
      </trkpt>
      <trkpt lat="10.3535728" lon="-85.8057933">
        <ele>35.6</ele>
        <time>2022-10-06T16:41:26Z</time>
      </trkpt>
      <trkpt lat="10.3535149" lon="-85.8058024">
        <ele>35.8</ele>
        <time>2022-10-06T16:41:27Z</time>
      </trkpt>
      <trkpt lat="10.3534542" lon="-85.8058136">
        <ele>35.9</ele>
        <time>2022-10-06T16:41:28Z</time>
      </trkpt>
      <trkpt lat="10.3533912" lon="-85.8058247">
        <ele>36.2</ele>
        <time>2022-10-06T16:41:29Z</time>
      </trkpt>
      <trkpt lat="10.3533239" lon="-85.8058377">
        <ele>36.4</ele>
        <time>2022-10-06T16:41:30Z</time>
      </trkpt>
      <trkpt lat="10.3532553" lon="-85.8058517">
        <ele>36.4</ele>
        <time>2022-10-06T16:41:31Z</time>
      </trkpt>
      <trkpt lat="10.3531834" lon="-85.8058656">
        <ele>36.5</ele>
        <time>2022-10-06T16:41:32Z</time>
      </trkpt>
      <trkpt lat="10.3531119" lon="-85.8058803">
        <ele>36.5</ele>
        <time>2022-10-06T16:41:33Z</time>
      </trkpt>
      <trkpt lat="10.3530380" lon="-85.8058939">
        <ele>36.3</ele>
        <time>2022-10-06T16:41:34Z</time>
      </trkpt>
      <trkpt lat="10.3529641" lon="-85.8059046">
        <ele>36.1</ele>
        <time>2022-10-06T16:41:35Z</time>
      </trkpt>
      <trkpt lat="10.3528944" lon="-85.8059120">
        <ele>36.0</ele>
        <time>2022-10-06T16:41:36Z</time>
      </trkpt>
      <trkpt lat="10.3528235" lon="-85.8059185">
        <ele>36.3</ele>
        <time>2022-10-06T16:41:37Z</time>
      </trkpt>
      <trkpt lat="10.3527520" lon="-85.8059100">
        <ele>36.3</ele>
        <time>2022-10-06T16:41:38Z</time>
      </trkpt>
      <trkpt lat="10.3526840" lon="-85.8059008">
        <ele>36.4</ele>
        <time>2022-10-06T16:41:39Z</time>
      </trkpt>
      <trkpt lat="10.3526142" lon="-85.8058759">
        <ele>36.2</ele>
        <time>2022-10-06T16:41:40Z</time>
      </trkpt>
      <trkpt lat="10.3525418" lon="-85.8058475">
        <ele>35.9</ele>
        <time>2022-10-06T16:41:41Z</time>
      </trkpt>
      <trkpt lat="10.3524658" lon="-85.8058162">
        <ele>35.8</ele>
        <time>2022-10-06T16:41:42Z</time>
      </trkpt>
      <trkpt lat="10.3523909" lon="-85.8057844">
        <ele>35.9</ele>
        <time>2022-10-06T16:41:43Z</time>
      </trkpt>
      <trkpt lat="10.3523168" lon="-85.8057523">
        <ele>35.8</ele>
        <time>2022-10-06T16:41:44Z</time>
      </trkpt>
      <trkpt lat="10.3522428" lon="-85.8057176">
        <ele>35.6</ele>
        <time>2022-10-06T16:41:45Z</time>
      </trkpt>
      <trkpt lat="10.3521724" lon="-85.8056812">
        <ele>35.4</ele>
        <time>2022-10-06T16:41:46Z</time>
      </trkpt>
      <trkpt lat="10.3521021" lon="-85.8056466">
        <ele>35.3</ele>
        <time>2022-10-06T16:41:47Z</time>
      </trkpt>
      <trkpt lat="10.3520306" lon="-85.8056136">
        <ele>35.2</ele>
        <time>2022-10-06T16:41:48Z</time>
      </trkpt>
      <trkpt lat="10.3519588" lon="-85.8055827">
        <ele>35.0</ele>
        <time>2022-10-06T16:41:49Z</time>
      </trkpt>
      <trkpt lat="10.3518871" lon="-85.8055515">
        <ele>34.8</ele>
        <time>2022-10-06T16:41:50Z</time>
      </trkpt>
      <trkpt lat="10.3518167" lon="-85.8055201">
        <ele>34.5</ele>
        <time>2022-10-06T16:41:51Z</time>
      </trkpt>
      <trkpt lat="10.3517459" lon="-85.8054886">
        <ele>34.2</ele>
        <time>2022-10-06T16:41:52Z</time>
      </trkpt>
      <trkpt lat="10.3516802" lon="-85.8054564">
        <ele>34.0</ele>
        <time>2022-10-06T16:41:53Z</time>
      </trkpt>
      <trkpt lat="10.3516157" lon="-85.8054251">
        <ele>34.1</ele>
        <time>2022-10-06T16:41:54Z</time>
      </trkpt>
      <trkpt lat="10.3515524" lon="-85.8053952">
        <ele>34.0</ele>
        <time>2022-10-06T16:41:55Z</time>
      </trkpt>
      <trkpt lat="10.3514904" lon="-85.8053707">
        <ele>34.0</ele>
        <time>2022-10-06T16:41:56Z</time>
      </trkpt>
      <trkpt lat="10.3514291" lon="-85.8053454">
        <ele>33.9</ele>
        <time>2022-10-06T16:41:57Z</time>
      </trkpt>
      <trkpt lat="10.3513672" lon="-85.8053215">
        <ele>34.1</ele>
        <time>2022-10-06T16:41:58Z</time>
      </trkpt>
      <trkpt lat="10.3513054" lon="-85.8052953">
        <ele>34.1</ele>
        <time>2022-10-06T16:41:59Z</time>
      </trkpt>
      <trkpt lat="10.3512443" lon="-85.8052698">
        <ele>34.0</ele>
        <time>2022-10-06T16:42:00Z</time>
      </trkpt>
      <trkpt lat="10.3511819" lon="-85.8052450">
        <ele>34.0</ele>
        <time>2022-10-06T16:42:01Z</time>
      </trkpt>
      <trkpt lat="10.3511181" lon="-85.8052195">
        <ele>33.9</ele>
        <time>2022-10-06T16:42:02Z</time>
      </trkpt>
      <trkpt lat="10.3510521" lon="-85.8051922">
        <ele>34.0</ele>
        <time>2022-10-06T16:42:03Z</time>
      </trkpt>
      <trkpt lat="10.3509853" lon="-85.8051618">
        <ele>33.8</ele>
        <time>2022-10-06T16:42:04Z</time>
      </trkpt>
      <trkpt lat="10.3509189" lon="-85.8051331">
        <ele>33.9</ele>
        <time>2022-10-06T16:42:05Z</time>
      </trkpt>
      <trkpt lat="10.3508482" lon="-85.8051067">
        <ele>33.8</ele>
        <time>2022-10-06T16:42:06Z</time>
      </trkpt>
      <trkpt lat="10.3507801" lon="-85.8050792">
        <ele>33.8</ele>
        <time>2022-10-06T16:42:07Z</time>
      </trkpt>
      <trkpt lat="10.3507095" lon="-85.8050487">
        <ele>33.8</ele>
        <time>2022-10-06T16:42:08Z</time>
      </trkpt>
      <trkpt lat="10.3506416" lon="-85.8050181">
        <ele>33.8</ele>
        <time>2022-10-06T16:42:09Z</time>
      </trkpt>
      <trkpt lat="10.3505725" lon="-85.8049853">
        <ele>33.7</ele>
        <time>2022-10-06T16:42:10Z</time>
      </trkpt>
      <trkpt lat="10.3505019" lon="-85.8049503">
        <ele>33.7</ele>
        <time>2022-10-06T16:42:11Z</time>
      </trkpt>
      <trkpt lat="10.3504313" lon="-85.8049141">
        <ele>33.8</ele>
        <time>2022-10-06T16:42:12Z</time>
      </trkpt>
      <trkpt lat="10.3503611" lon="-85.8048783">
        <ele>33.8</ele>
        <time>2022-10-06T16:42:13Z</time>
      </trkpt>
      <trkpt lat="10.3502901" lon="-85.8048417">
        <ele>33.8</ele>
        <time>2022-10-06T16:42:14Z</time>
      </trkpt>
      <trkpt lat="10.3502207" lon="-85.8048041">
        <ele>33.9</ele>
        <time>2022-10-06T16:42:15Z</time>
      </trkpt>
      <trkpt lat="10.3501575" lon="-85.8047638">
        <ele>33.7</ele>
        <time>2022-10-06T16:42:16Z</time>
      </trkpt>
      <trkpt lat="10.3500947" lon="-85.8047248">
        <ele>33.3</ele>
        <time>2022-10-06T16:42:17Z</time>
      </trkpt>
      <trkpt lat="10.3500361" lon="-85.8046886">
        <ele>33.2</ele>
        <time>2022-10-06T16:42:18Z</time>
      </trkpt>
      <trkpt lat="10.3499832" lon="-85.8046591">
        <ele>33.1</ele>
        <time>2022-10-06T16:42:19Z</time>
      </trkpt>
      <trkpt lat="10.3499323" lon="-85.8046324">
        <ele>33.0</ele>
        <time>2022-10-06T16:42:20Z</time>
      </trkpt>
      <trkpt lat="10.3498798" lon="-85.8046048">
        <ele>33.0</ele>
        <time>2022-10-06T16:42:21Z</time>
      </trkpt>
      <trkpt lat="10.3498296" lon="-85.8045794">
        <ele>33.0</ele>
        <time>2022-10-06T16:42:22Z</time>
      </trkpt>
      <trkpt lat="10.3497799" lon="-85.8045542">
        <ele>33.0</ele>
        <time>2022-10-06T16:42:23Z</time>
      </trkpt>
      <trkpt lat="10.3497301" lon="-85.8045297">
        <ele>33.0</ele>
        <time>2022-10-06T16:42:24Z</time>
      </trkpt>
      <trkpt lat="10.3496776" lon="-85.8045053">
        <ele>32.9</ele>
        <time>2022-10-06T16:42:25Z</time>
      </trkpt>
      <trkpt lat="10.3496224" lon="-85.8044830">
        <ele>33.0</ele>
        <time>2022-10-06T16:42:26Z</time>
      </trkpt>
      <trkpt lat="10.3495643" lon="-85.8044595">
        <ele>32.9</ele>
        <time>2022-10-06T16:42:27Z</time>
      </trkpt>
      <trkpt lat="10.3494995" lon="-85.8044395">
        <ele>33.0</ele>
        <time>2022-10-06T16:42:28Z</time>
      </trkpt>
      <trkpt lat="10.3494309" lon="-85.8044254">
        <ele>33.0</ele>
        <time>2022-10-06T16:42:29Z</time>
      </trkpt>
      <trkpt lat="10.3493637" lon="-85.8044163">
        <ele>33.1</ele>
        <time>2022-10-06T16:42:30Z</time>
      </trkpt>
      <trkpt lat="10.3492942" lon="-85.8044078">
        <ele>33.3</ele>
        <time>2022-10-06T16:42:31Z</time>
      </trkpt>
      <trkpt lat="10.3492260" lon="-85.8044000">
        <ele>33.3</ele>
        <time>2022-10-06T16:42:32Z</time>
      </trkpt>
      <trkpt lat="10.3491578" lon="-85.8043927">
        <ele>33.4</ele>
        <time>2022-10-06T16:42:33Z</time>
      </trkpt>
      <trkpt lat="10.3490890" lon="-85.8043859">
        <ele>33.4</ele>
        <time>2022-10-06T16:42:34Z</time>
      </trkpt>
      <trkpt lat="10.3490173" lon="-85.8043791">
        <ele>33.4</ele>
        <time>2022-10-06T16:42:35Z</time>
      </trkpt>
      <trkpt lat="10.3489452" lon="-85.8043725">
        <ele>33.3</ele>
        <time>2022-10-06T16:42:36Z</time>
      </trkpt>
      <trkpt lat="10.3488723" lon="-85.8043656">
        <ele>33.3</ele>
        <time>2022-10-06T16:42:37Z</time>
      </trkpt>
      <trkpt lat="10.3487995" lon="-85.8043571">
        <ele>33.4</ele>
        <time>2022-10-06T16:42:38Z</time>
      </trkpt>
      <trkpt lat="10.3487273" lon="-85.8043489">
        <ele>33.7</ele>
        <time>2022-10-06T16:42:39Z</time>
      </trkpt>
      <trkpt lat="10.3486544" lon="-85.8043398">
        <ele>33.7</ele>
        <time>2022-10-06T16:42:40Z</time>
      </trkpt>
      <trkpt lat="10.3485813" lon="-85.8043302">
        <ele>33.9</ele>
        <time>2022-10-06T16:42:41Z</time>
      </trkpt>
      <trkpt lat="10.3485082" lon="-85.8043200">
        <ele>34.0</ele>
        <time>2022-10-06T16:42:42Z</time>
      </trkpt>
      <trkpt lat="10.3484359" lon="-85.8043090">
        <ele>34.1</ele>
        <time>2022-10-06T16:42:43Z</time>
      </trkpt>
      <trkpt lat="10.3483660" lon="-85.8042979">
        <ele>34.2</ele>
        <time>2022-10-06T16:42:44Z</time>
      </trkpt>
      <trkpt lat="10.3482968" lon="-85.8042890">
        <ele>34.3</ele>
        <time>2022-10-06T16:42:45Z</time>
      </trkpt>
      <trkpt lat="10.3482280" lon="-85.8042798">
        <ele>34.3</ele>
        <time>2022-10-06T16:42:46Z</time>
      </trkpt>
      <trkpt lat="10.3481592" lon="-85.8042694">
        <ele>34.5</ele>
        <time>2022-10-06T16:42:47Z</time>
      </trkpt>
      <trkpt lat="10.3480937" lon="-85.8042512">
        <ele>34.7</ele>
        <time>2022-10-06T16:42:48Z</time>
      </trkpt>
      <trkpt lat="10.3480293" lon="-85.8042291">
        <ele>34.7</ele>
        <time>2022-10-06T16:42:49Z</time>
      </trkpt>
      <trkpt lat="10.3479658" lon="-85.8042037">
        <ele>34.7</ele>
        <time>2022-10-06T16:42:50Z</time>
      </trkpt>
      <trkpt lat="10.3479013" lon="-85.8041772">
        <ele>34.7</ele>
        <time>2022-10-06T16:42:51Z</time>
      </trkpt>
      <trkpt lat="10.3478364" lon="-85.8041466">
        <ele>34.4</ele>
        <time>2022-10-06T16:42:52Z</time>
      </trkpt>
      <trkpt lat="10.3477721" lon="-85.8041140">
        <ele>34.2</ele>
        <time>2022-10-06T16:42:53Z</time>
      </trkpt>
      <trkpt lat="10.3477130" lon="-85.8040816">
        <ele>34.1</ele>
        <time>2022-10-06T16:42:54Z</time>
      </trkpt>
      <trkpt lat="10.3476647" lon="-85.8040539">
        <ele>33.9</ele>
        <time>2022-10-06T16:42:55Z</time>
      </trkpt>
      <trkpt lat="10.3476204" lon="-85.8040280">
        <ele>33.8</ele>
        <time>2022-10-06T16:42:56Z</time>
      </trkpt>
      <trkpt lat="10.3475792" lon="-85.8040044">
        <ele>33.6</ele>
        <time>2022-10-06T16:42:57Z</time>
      </trkpt>
      <trkpt lat="10.3475405" lon="-85.8039837">
        <ele>33.5</ele>
        <time>2022-10-06T16:42:58Z</time>
      </trkpt>
      <trkpt lat="10.3475051" lon="-85.8039633">
        <ele>33.4</ele>
        <time>2022-10-06T16:42:59Z</time>
      </trkpt>
      <trkpt lat="10.3474701" lon="-85.8039446">
        <ele>33.4</ele>
        <time>2022-10-06T16:43:00Z</time>
      </trkpt>
      <trkpt lat="10.3474372" lon="-85.8039242">
        <ele>33.3</ele>
        <time>2022-10-06T16:43:01Z</time>
      </trkpt>
      <trkpt lat="10.3474051" lon="-85.8039056">
        <ele>33.2</ele>
        <time>2022-10-06T16:43:02Z</time>
      </trkpt>
      <trkpt lat="10.3473722" lon="-85.8038868">
        <ele>33.2</ele>
        <time>2022-10-06T16:43:03Z</time>
      </trkpt>
      <trkpt lat="10.3473386" lon="-85.8038669">
        <ele>33.0</ele>
        <time>2022-10-06T16:43:04Z</time>
      </trkpt>
      <trkpt lat="10.3473025" lon="-85.8038461">
        <ele>33.0</ele>
        <time>2022-10-06T16:43:05Z</time>
      </trkpt>
      <trkpt lat="10.3472642" lon="-85.8038241">
        <ele>32.8</ele>
        <time>2022-10-06T16:43:06Z</time>
      </trkpt>
      <trkpt lat="10.3472257" lon="-85.8038022">
        <ele>32.8</ele>
        <time>2022-10-06T16:43:07Z</time>
      </trkpt>
      <trkpt lat="10.3471860" lon="-85.8037786">
        <ele>32.7</ele>
        <time>2022-10-06T16:43:08Z</time>
      </trkpt>
      <trkpt lat="10.3471465" lon="-85.8037550">
        <ele>32.9</ele>
        <time>2022-10-06T16:43:09Z</time>
      </trkpt>
      <trkpt lat="10.3471039" lon="-85.8037273">
        <ele>33.0</ele>
        <time>2022-10-06T16:43:10Z</time>
      </trkpt>
      <trkpt lat="10.3470606" lon="-85.8037017">
        <ele>33.0</ele>
        <time>2022-10-06T16:43:11Z</time>
      </trkpt>
      <trkpt lat="10.3470194" lon="-85.8036777">
        <ele>33.0</ele>
        <time>2022-10-06T16:43:12Z</time>
      </trkpt>
      <trkpt lat="10.3469773" lon="-85.8036515">
        <ele>33.0</ele>
        <time>2022-10-06T16:43:13Z</time>
      </trkpt>
      <trkpt lat="10.3469320" lon="-85.8036226">
        <ele>32.9</ele>
        <time>2022-10-06T16:43:14Z</time>
      </trkpt>
      <trkpt lat="10.3468873" lon="-85.8035938">
        <ele>32.9</ele>
        <time>2022-10-06T16:43:15Z</time>
      </trkpt>
      <trkpt lat="10.3468437" lon="-85.8035640">
        <ele>32.9</ele>
        <time>2022-10-06T16:43:16Z</time>
      </trkpt>
      <trkpt lat="10.3468003" lon="-85.8035343">
        <ele>32.8</ele>
        <time>2022-10-06T16:43:17Z</time>
      </trkpt>
      <trkpt lat="10.3467602" lon="-85.8035057">
        <ele>32.8</ele>
        <time>2022-10-06T16:43:18Z</time>
      </trkpt>
      <trkpt lat="10.3467249" lon="-85.8034791">
        <ele>32.8</ele>
        <time>2022-10-06T16:43:19Z</time>
      </trkpt>
      <trkpt lat="10.3466902" lon="-85.8034542">
        <ele>32.7</ele>
        <time>2022-10-06T16:43:20Z</time>
      </trkpt>
      <trkpt lat="10.3466587" lon="-85.8034313">
        <ele>32.8</ele>
        <time>2022-10-06T16:43:21Z</time>
      </trkpt>
      <trkpt lat="10.3466283" lon="-85.8034096">
        <ele>32.7</ele>
        <time>2022-10-06T16:43:22Z</time>
      </trkpt>
      <trkpt lat="10.3465962" lon="-85.8033832">
        <ele>32.7</ele>
        <time>2022-10-06T16:43:23Z</time>
      </trkpt>
      <trkpt lat="10.3465730" lon="-85.8033619">
        <ele>32.8</ele>
        <time>2022-10-06T16:43:24Z</time>
      </trkpt>
      <trkpt lat="10.3465558" lon="-85.8033440">
        <ele>32.8</ele>
        <time>2022-10-06T16:43:25Z</time>
      </trkpt>
      <trkpt lat="10.3465397" lon="-85.8033284">
        <ele>32.7</ele>
        <time>2022-10-06T16:43:26Z</time>
      </trkpt>
      <trkpt lat="10.3465249" lon="-85.8033110">
        <ele>32.6</ele>
        <time>2022-10-06T16:43:27Z</time>
      </trkpt>
      <trkpt lat="10.3465087" lon="-85.8032941">
        <ele>32.5</ele>
        <time>2022-10-06T16:43:28Z</time>
      </trkpt>
      <trkpt lat="10.3464941" lon="-85.8032789">
        <ele>32.5</ele>
        <time>2022-10-06T16:43:29Z</time>
      </trkpt>
      <trkpt lat="10.3464844" lon="-85.8032631">
        <ele>32.4</ele>
        <time>2022-10-06T16:43:30Z</time>
      </trkpt>
      <trkpt lat="10.3464771" lon="-85.8032517">
        <ele>32.5</ele>
        <time>2022-10-06T16:43:31Z</time>
      </trkpt>
      <trkpt lat="10.3464697" lon="-85.8032440">
        <ele>32.4</ele>
        <time>2022-10-06T16:43:32Z</time>
      </trkpt>
      <trkpt lat="10.3464639" lon="-85.8032387">
        <ele>32.4</ele>
        <time>2022-10-06T16:43:33Z</time>
      </trkpt>
      <trkpt lat="10.3464558" lon="-85.8032329">
        <ele>32.7</ele>
        <time>2022-10-06T16:43:34Z</time>
      </trkpt>
      <trkpt lat="10.3464504" lon="-85.8032290">
        <ele>32.5</ele>
        <time>2022-10-06T16:43:35Z</time>
      </trkpt>
      <trkpt lat="10.3464455" lon="-85.8032262">
        <ele>32.5</ele>
        <time>2022-10-06T16:43:36Z</time>
      </trkpt>
      <trkpt lat="10.3464380" lon="-85.8032201">
        <ele>32.4</ele>
        <time>2022-10-06T16:43:37Z</time>
      </trkpt>
      <trkpt lat="10.3464271" lon="-85.8032083">
        <ele>32.3</ele>
        <time>2022-10-06T16:43:38Z</time>
      </trkpt>
      <trkpt lat="10.3464125" lon="-85.8031965">
        <ele>32.8</ele>
        <time>2022-10-06T16:43:39Z</time>
      </trkpt>
      <trkpt lat="10.3464096" lon="-85.8031927">
        <ele>32.7</ele>
        <time>2022-10-06T16:43:40Z</time>
      </trkpt>
      <trkpt lat="10.3464096" lon="-85.8031927">
        <ele>32.9</ele>
        <time>2022-10-06T16:43:41Z</time>
      </trkpt>
      <trkpt lat="10.3464096" lon="-85.8031927">
        <ele>32.9</ele>
        <time>2022-10-06T16:43:42Z</time>
      </trkpt>
      <trkpt lat="10.3464096" lon="-85.8031927">
        <ele>32.9</ele>
        <time>2022-10-06T16:43:43Z</time>
      </trkpt>
      <trkpt lat="10.3464096" lon="-85.8031927">
        <ele>32.9</ele>
        <time>2022-10-06T16:43:44Z</time>
      </trkpt>
      <trkpt lat="10.3464096" lon="-85.8031927">
        <ele>32.8</ele>
        <time>2022-10-06T16:43:45Z</time>
      </trkpt>
      <trkpt lat="10.3464096" lon="-85.8031927">
        <ele>32.9</ele>
        <time>2022-10-06T16:43:46Z</time>
      </trkpt>
      <trkpt lat="10.3464096" lon="-85.8031927">
        <ele>32.9</ele>
        <time>2022-10-06T16:43:47Z</time>
      </trkpt>
      <trkpt lat="10.3464096" lon="-85.8031927">
        <ele>32.9</ele>
        <time>2022-10-06T16:43:48Z</time>
      </trkpt>
      <trkpt lat="10.3464096" lon="-85.8031927">
        <ele>33.0</ele>
        <time>2022-10-06T16:43:49Z</time>
      </trkpt>
      <trkpt lat="10.3464096" lon="-85.8031927">
        <ele>33.0</ele>
        <time>2022-10-06T16:43:50Z</time>
      </trkpt>
      <trkpt lat="10.3464096" lon="-85.8031927">
        <ele>32.9</ele>
        <time>2022-10-06T16:43:51Z</time>
      </trkpt>
      <trkpt lat="10.3464096" lon="-85.8031927">
        <ele>33.0</ele>
        <time>2022-10-06T16:43:52Z</time>
      </trkpt>
      <trkpt lat="10.3464096" lon="-85.8031927">
        <ele>33.1</ele>
        <time>2022-10-06T16:43:53Z</time>
      </trkpt>
      <trkpt lat="10.3464096" lon="-85.8031927">
        <ele>33.2</ele>
        <time>2022-10-06T16:43:54Z</time>
      </trkpt>
      <trkpt lat="10.3464096" lon="-85.8031927">
        <ele>33.2</ele>
        <time>2022-10-06T16:43:55Z</time>
      </trkpt>
      <trkpt lat="10.3464096" lon="-85.8031927">
        <ele>33.3</ele>
        <time>2022-10-06T16:43:56Z</time>
      </trkpt>
      <trkpt lat="10.3464096" lon="-85.8031927">
        <ele>33.3</ele>
        <time>2022-10-06T16:43:57Z</time>
      </trkpt>
      <trkpt lat="10.3464096" lon="-85.8031927">
        <ele>33.3</ele>
        <time>2022-10-06T16:43:58Z</time>
      </trkpt>
      <trkpt lat="10.3464096" lon="-85.8031927">
        <ele>33.2</ele>
        <time>2022-10-06T16:43:59Z</time>
      </trkpt>
      <trkpt lat="10.3464096" lon="-85.8031927">
        <ele>33.2</ele>
        <time>2022-10-06T16:44:00Z</time>
      </trkpt>
      <trkpt lat="10.3464096" lon="-85.8031927">
        <ele>33.2</ele>
        <time>2022-10-06T16:44:01Z</time>
      </trkpt>
      <trkpt lat="10.3464096" lon="-85.8031927">
        <ele>33.2</ele>
        <time>2022-10-06T16:44:02Z</time>
      </trkpt>
      <trkpt lat="10.3464096" lon="-85.8031927">
        <ele>33.3</ele>
        <time>2022-10-06T16:44:03Z</time>
      </trkpt>
      <trkpt lat="10.3464096" lon="-85.8031927">
        <ele>33.2</ele>
        <time>2022-10-06T16:44:04Z</time>
      </trkpt>
      <trkpt lat="10.3464096" lon="-85.8031927">
        <ele>33.1</ele>
        <time>2022-10-06T16:44:05Z</time>
      </trkpt>
      <trkpt lat="10.3464096" lon="-85.8031927">
        <ele>33.1</ele>
        <time>2022-10-06T16:44:06Z</time>
      </trkpt>
      <trkpt lat="10.3464096" lon="-85.8031927">
        <ele>33.2</ele>
        <time>2022-10-06T16:44:07Z</time>
      </trkpt>
      <trkpt lat="10.3464096" lon="-85.8031927">
        <ele>33.2</ele>
        <time>2022-10-06T16:44:08Z</time>
      </trkpt>
      <trkpt lat="10.3464096" lon="-85.8031927">
        <ele>33.1</ele>
        <time>2022-10-06T16:44:09Z</time>
      </trkpt>
      <trkpt lat="10.3464096" lon="-85.8031927">
        <ele>33.1</ele>
        <time>2022-10-06T16:44:10Z</time>
      </trkpt>
      <trkpt lat="10.3464096" lon="-85.8031927">
        <ele>33.0</ele>
        <time>2022-10-06T16:44:11Z</time>
      </trkpt>
      <trkpt lat="10.3464096" lon="-85.8031927">
        <ele>33.1</ele>
        <time>2022-10-06T16:44:12Z</time>
      </trkpt>
      <trkpt lat="10.3464096" lon="-85.8031927">
        <ele>33.1</ele>
        <time>2022-10-06T16:44:13Z</time>
      </trkpt>
      <trkpt lat="10.3464096" lon="-85.8031927">
        <ele>33.1</ele>
        <time>2022-10-06T16:44:14Z</time>
      </trkpt>
      <trkpt lat="10.3464096" lon="-85.8031927">
        <ele>33.1</ele>
        <time>2022-10-06T16:44:15Z</time>
      </trkpt>
      <trkpt lat="10.3464096" lon="-85.8031927">
        <ele>33.1</ele>
        <time>2022-10-06T16:44:16Z</time>
      </trkpt>
      <trkpt lat="10.3464096" lon="-85.8031927">
        <ele>33.1</ele>
        <time>2022-10-06T16:44:17Z</time>
      </trkpt>
      <trkpt lat="10.3464096" lon="-85.8031927">
        <ele>33.1</ele>
        <time>2022-10-06T16:44:18Z</time>
      </trkpt>
      <trkpt lat="10.3464096" lon="-85.8031927">
        <ele>33.1</ele>
        <time>2022-10-06T16:44:19Z</time>
      </trkpt>
      <trkpt lat="10.3464096" lon="-85.8031927">
        <ele>33.1</ele>
        <time>2022-10-06T16:44:20Z</time>
      </trkpt>
      <trkpt lat="10.3464096" lon="-85.8031927">
        <ele>33.1</ele>
        <time>2022-10-06T16:44:21Z</time>
      </trkpt>
      <trkpt lat="10.3464096" lon="-85.8031927">
        <ele>33.0</ele>
        <time>2022-10-06T16:44:22Z</time>
      </trkpt>
      <trkpt lat="10.3464096" lon="-85.8031927">
        <ele>33.1</ele>
        <time>2022-10-06T16:44:23Z</time>
      </trkpt>
      <trkpt lat="10.3464096" lon="-85.8031927">
        <ele>33.1</ele>
        <time>2022-10-06T16:44:24Z</time>
      </trkpt>
      <trkpt lat="10.3464096" lon="-85.8031927">
        <ele>33.2</ele>
        <time>2022-10-06T16:44:25Z</time>
      </trkpt>
      <trkpt lat="10.3464096" lon="-85.8031927">
        <ele>33.3</ele>
        <time>2022-10-06T16:44:26Z</time>
      </trkpt>
      <trkpt lat="10.3464096" lon="-85.8031927">
        <ele>33.3</ele>
        <time>2022-10-06T16:44:27Z</time>
      </trkpt>
      <trkpt lat="10.3464096" lon="-85.8031927">
        <ele>33.4</ele>
        <time>2022-10-06T16:44:28Z</time>
      </trkpt>
      <trkpt lat="10.3464096" lon="-85.8031927">
        <ele>33.5</ele>
        <time>2022-10-06T16:44:29Z</time>
      </trkpt>
      <trkpt lat="10.3464096" lon="-85.8031927">
        <ele>33.5</ele>
        <time>2022-10-06T16:44:30Z</time>
      </trkpt>
      <trkpt lat="10.3464096" lon="-85.8031927">
        <ele>33.5</ele>
        <time>2022-10-06T16:44:31Z</time>
      </trkpt>
      <trkpt lat="10.3464096" lon="-85.8031927">
        <ele>33.5</ele>
        <time>2022-10-06T16:44:32Z</time>
      </trkpt>
      <trkpt lat="10.3464096" lon="-85.8031927">
        <ele>33.4</ele>
        <time>2022-10-06T16:44:33Z</time>
      </trkpt>
      <trkpt lat="10.3464096" lon="-85.8031927">
        <ele>33.4</ele>
        <time>2022-10-06T16:44:34Z</time>
      </trkpt>
      <trkpt lat="10.3464096" lon="-85.8031927">
        <ele>33.4</ele>
        <time>2022-10-06T16:44:35Z</time>
      </trkpt>
      <trkpt lat="10.3464096" lon="-85.8031927">
        <ele>33.3</ele>
        <time>2022-10-06T16:44:36Z</time>
      </trkpt>
      <trkpt lat="10.3464096" lon="-85.8031927">
        <ele>33.3</ele>
        <time>2022-10-06T16:44:37Z</time>
      </trkpt>
      <trkpt lat="10.3464202" lon="-85.8031886">
        <ele>33.3</ele>
        <time>2022-10-06T16:44:38Z</time>
      </trkpt>
      <trkpt lat="10.3464137" lon="-85.8031791">
        <ele>33.3</ele>
        <time>2022-10-06T16:44:39Z</time>
      </trkpt>
      <trkpt lat="10.3464020" lon="-85.8031638">
        <ele>33.4</ele>
        <time>2022-10-06T16:44:40Z</time>
      </trkpt>
      <trkpt lat="10.3463904" lon="-85.8031481">
        <ele>33.3</ele>
        <time>2022-10-06T16:44:41Z</time>
      </trkpt>
      <trkpt lat="10.3463780" lon="-85.8031318">
        <ele>33.3</ele>
        <time>2022-10-06T16:44:42Z</time>
      </trkpt>
      <trkpt lat="10.3463663" lon="-85.8031148">
        <ele>33.3</ele>
        <time>2022-10-06T16:44:43Z</time>
      </trkpt>
      <trkpt lat="10.3463542" lon="-85.8030979">
        <ele>33.2</ele>
        <time>2022-10-06T16:44:44Z</time>
      </trkpt>
      <trkpt lat="10.3463410" lon="-85.8030818">
        <ele>33.1</ele>
        <time>2022-10-06T16:44:45Z</time>
      </trkpt>
      <trkpt lat="10.3463278" lon="-85.8030652">
        <ele>33.0</ele>
        <time>2022-10-06T16:44:46Z</time>
      </trkpt>
      <trkpt lat="10.3463178" lon="-85.8030510">
        <ele>32.8</ele>
        <time>2022-10-06T16:44:47Z</time>
      </trkpt>
      <trkpt lat="10.3463094" lon="-85.8030379">
        <ele>32.8</ele>
        <time>2022-10-06T16:44:48Z</time>
      </trkpt>
      <trkpt lat="10.3463058" lon="-85.8030287">
        <ele>32.7</ele>
        <time>2022-10-06T16:44:49Z</time>
      </trkpt>
      <trkpt lat="10.3463037" lon="-85.8030222">
        <ele>32.7</ele>
        <time>2022-10-06T16:44:50Z</time>
      </trkpt>
      <trkpt lat="10.3463028" lon="-85.8030134">
        <ele>32.9</ele>
        <time>2022-10-06T16:44:51Z</time>
      </trkpt>
      <trkpt lat="10.3463045" lon="-85.8030025">
        <ele>33.1</ele>
        <time>2022-10-06T16:44:52Z</time>
      </trkpt>
      <trkpt lat="10.3463089" lon="-85.8029903">
        <ele>33.1</ele>
        <time>2022-10-06T16:44:53Z</time>
      </trkpt>
      <trkpt lat="10.3463152" lon="-85.8029801">
        <ele>33.2</ele>
        <time>2022-10-06T16:44:54Z</time>
      </trkpt>
      <trkpt lat="10.3463247" lon="-85.8029770">
        <ele>33.1</ele>
        <time>2022-10-06T16:44:55Z</time>
      </trkpt>
      <trkpt lat="10.3463247" lon="-85.8029770">
        <ele>33.2</ele>
        <time>2022-10-06T16:44:56Z</time>
      </trkpt>
      <trkpt lat="10.3463247" lon="-85.8029770">
        <ele>33.1</ele>
        <time>2022-10-06T16:44:57Z</time>
      </trkpt>
      <trkpt lat="10.3463241" lon="-85.8029812">
        <ele>33.1</ele>
        <time>2022-10-06T16:44:58Z</time>
      </trkpt>
      <trkpt lat="10.3463241" lon="-85.8029812">
        <ele>33.0</ele>
        <time>2022-10-06T16:44:59Z</time>
      </trkpt>
      <trkpt lat="10.3463241" lon="-85.8029812">
        <ele>32.9</ele>
        <time>2022-10-06T16:45:00Z</time>
      </trkpt>
      <trkpt lat="10.3463274" lon="-85.8029916">
        <ele>32.7</ele>
        <time>2022-10-06T16:45:01Z</time>
      </trkpt>
      <trkpt lat="10.3463274" lon="-85.8029916">
        <ele>32.7</ele>
        <time>2022-10-06T16:45:02Z</time>
      </trkpt>
      <trkpt lat="10.3463274" lon="-85.8029916">
        <ele>32.7</ele>
        <time>2022-10-06T16:45:03Z</time>
      </trkpt>
      <trkpt lat="10.3463274" lon="-85.8029916">
        <ele>32.8</ele>
        <time>2022-10-06T16:45:04Z</time>
      </trkpt>
      <trkpt lat="10.3463274" lon="-85.8029916">
        <ele>32.8</ele>
        <time>2022-10-06T16:45:05Z</time>
      </trkpt>
      <trkpt lat="10.3463274" lon="-85.8029916">
        <ele>32.8</ele>
        <time>2022-10-06T16:45:06Z</time>
      </trkpt>
      <trkpt lat="10.3463274" lon="-85.8029916">
        <ele>32.7</ele>
        <time>2022-10-06T16:45:07Z</time>
      </trkpt>
      <trkpt lat="10.3463274" lon="-85.8029916">
        <ele>32.8</ele>
        <time>2022-10-06T16:45:08Z</time>
      </trkpt>
      <trkpt lat="10.3463274" lon="-85.8029916">
        <ele>32.7</ele>
        <time>2022-10-06T16:45:09Z</time>
      </trkpt>
      <trkpt lat="10.3463274" lon="-85.8029916">
        <ele>32.8</ele>
        <time>2022-10-06T16:45:10Z</time>
      </trkpt>
      <trkpt lat="10.3463274" lon="-85.8029916">
        <ele>32.9</ele>
        <time>2022-10-06T16:45:11Z</time>
      </trkpt>
      <trkpt lat="10.3463274" lon="-85.8029916">
        <ele>33.0</ele>
        <time>2022-10-06T16:45:12Z</time>
      </trkpt>
      <trkpt lat="10.3463274" lon="-85.8029916">
        <ele>33.0</ele>
        <time>2022-10-06T16:45:13Z</time>
      </trkpt>
      <trkpt lat="10.3463274" lon="-85.8029916">
        <ele>33.1</ele>
        <time>2022-10-06T16:45:14Z</time>
      </trkpt>
      <trkpt lat="10.3463274" lon="-85.8029916">
        <ele>33.1</ele>
        <time>2022-10-06T16:45:15Z</time>
      </trkpt>
      <trkpt lat="10.3463274" lon="-85.8029916">
        <ele>33.1</ele>
        <time>2022-10-06T16:45:16Z</time>
      </trkpt>
      <trkpt lat="10.3463274" lon="-85.8029916">
        <ele>33.1</ele>
        <time>2022-10-06T16:45:17Z</time>
      </trkpt>
      <trkpt lat="10.3463274" lon="-85.8029916">
        <ele>33.1</ele>
        <time>2022-10-06T16:45:18Z</time>
      </trkpt>
      <trkpt lat="10.3463274" lon="-85.8029916">
        <ele>33.0</ele>
        <time>2022-10-06T16:45:19Z</time>
      </trkpt>
      <trkpt lat="10.3463274" lon="-85.8029916">
        <ele>33.1</ele>
        <time>2022-10-06T16:45:20Z</time>
      </trkpt>
      <trkpt lat="10.3463274" lon="-85.8029916">
        <ele>33.0</ele>
        <time>2022-10-06T16:45:21Z</time>
      </trkpt>
      <trkpt lat="10.3463274" lon="-85.8029916">
        <ele>33.0</ele>
        <time>2022-10-06T16:45:22Z</time>
      </trkpt>
      <trkpt lat="10.3463274" lon="-85.8029916">
        <ele>33.0</ele>
        <time>2022-10-06T16:45:23Z</time>
      </trkpt>
      <trkpt lat="10.3463274" lon="-85.8029916">
        <ele>33.0</ele>
        <time>2022-10-06T16:45:24Z</time>
      </trkpt>
      <trkpt lat="10.3463274" lon="-85.8029916">
        <ele>33.0</ele>
        <time>2022-10-06T16:45:25Z</time>
      </trkpt>
      <trkpt lat="10.3463274" lon="-85.8029916">
        <ele>33.0</ele>
        <time>2022-10-06T16:45:26Z</time>
      </trkpt>
      <trkpt lat="10.3463274" lon="-85.8029916">
        <ele>33.1</ele>
        <time>2022-10-06T16:45:27Z</time>
      </trkpt>
      <trkpt lat="10.3463274" lon="-85.8029916">
        <ele>33.1</ele>
        <time>2022-10-06T16:45:28Z</time>
      </trkpt>
      <trkpt lat="10.3463274" lon="-85.8029916">
        <ele>33.1</ele>
        <time>2022-10-06T16:45:29Z</time>
      </trkpt>
      <trkpt lat="10.3463274" lon="-85.8029916">
        <ele>33.2</ele>
        <time>2022-10-06T16:45:30Z</time>
      </trkpt>
      <trkpt lat="10.3463274" lon="-85.8029916">
        <ele>33.2</ele>
        <time>2022-10-06T16:45:31Z</time>
      </trkpt>
      <trkpt lat="10.3463274" lon="-85.8029916">
        <ele>33.2</ele>
        <time>2022-10-06T16:45:32Z</time>
      </trkpt>
      <trkpt lat="10.3463274" lon="-85.8029916">
        <ele>33.2</ele>
        <time>2022-10-06T16:45:33Z</time>
      </trkpt>
      <trkpt lat="10.3463274" lon="-85.8029916">
        <ele>33.2</ele>
        <time>2022-10-06T16:45:34Z</time>
      </trkpt>
      <trkpt lat="10.3463274" lon="-85.8029916">
        <ele>33.2</ele>
        <time>2022-10-06T16:45:35Z</time>
      </trkpt>
      <trkpt lat="10.3463274" lon="-85.8029916">
        <ele>33.3</ele>
        <time>2022-10-06T16:45:36Z</time>
      </trkpt>
      <trkpt lat="10.3463274" lon="-85.8029916">
        <ele>33.2</ele>
        <time>2022-10-06T16:45:37Z</time>
      </trkpt>
      <trkpt lat="10.3463274" lon="-85.8029916">
        <ele>33.2</ele>
        <time>2022-10-06T16:45:38Z</time>
      </trkpt>
      <trkpt lat="10.3463274" lon="-85.8029916">
        <ele>33.2</ele>
        <time>2022-10-06T16:45:39Z</time>
      </trkpt>
      <trkpt lat="10.3463274" lon="-85.8029916">
        <ele>33.2</ele>
        <time>2022-10-06T16:45:40Z</time>
      </trkpt>
      <trkpt lat="10.3463274" lon="-85.8029916">
        <ele>33.2</ele>
        <time>2022-10-06T16:45:41Z</time>
      </trkpt>
      <trkpt lat="10.3463274" lon="-85.8029916">
        <ele>33.2</ele>
        <time>2022-10-06T16:45:42Z</time>
      </trkpt>
      <trkpt lat="10.3463319" lon="-85.8030040">
        <ele>33.2</ele>
        <time>2022-10-06T16:45:43Z</time>
      </trkpt>
      <trkpt lat="10.3463375" lon="-85.8030069">
        <ele>33.1</ele>
        <time>2022-10-06T16:45:44Z</time>
      </trkpt>
      <trkpt lat="10.3463551" lon="-85.8030183">
        <ele>33.0</ele>
        <time>2022-10-06T16:45:45Z</time>
      </trkpt>
      <trkpt lat="10.3463701" lon="-85.8030290">
        <ele>32.8</ele>
        <time>2022-10-06T16:45:46Z</time>
      </trkpt>
      <trkpt lat="10.3463758" lon="-85.8030389">
        <ele>32.7</ele>
        <time>2022-10-06T16:45:47Z</time>
      </trkpt>
      <trkpt lat="10.3463786" lon="-85.8030467">
        <ele>32.6</ele>
        <time>2022-10-06T16:45:48Z</time>
      </trkpt>
      <trkpt lat="10.3463786" lon="-85.8030467">
        <ele>32.4</ele>
        <time>2022-10-06T16:45:49Z</time>
      </trkpt>
      <trkpt lat="10.3463786" lon="-85.8030467">
        <ele>32.4</ele>
        <time>2022-10-06T16:45:50Z</time>
      </trkpt>
      <trkpt lat="10.3463786" lon="-85.8030467">
        <ele>32.5</ele>
        <time>2022-10-06T16:45:51Z</time>
      </trkpt>
      <trkpt lat="10.3463786" lon="-85.8030467">
        <ele>32.3</ele>
        <time>2022-10-06T16:45:52Z</time>
      </trkpt>
      <trkpt lat="10.3463786" lon="-85.8030467">
        <ele>32.4</ele>
        <time>2022-10-06T16:45:53Z</time>
      </trkpt>
      <trkpt lat="10.3463786" lon="-85.8030467">
        <ele>32.3</ele>
        <time>2022-10-06T16:45:54Z</time>
      </trkpt>
      <trkpt lat="10.3463786" lon="-85.8030467">
        <ele>32.3</ele>
        <time>2022-10-06T16:45:55Z</time>
      </trkpt>
      <trkpt lat="10.3463786" lon="-85.8030467">
        <ele>32.3</ele>
        <time>2022-10-06T16:45:56Z</time>
      </trkpt>
      <trkpt lat="10.3463786" lon="-85.8030467">
        <ele>32.4</ele>
        <time>2022-10-06T16:45:57Z</time>
      </trkpt>
      <trkpt lat="10.3463786" lon="-85.8030467">
        <ele>32.3</ele>
        <time>2022-10-06T16:45:58Z</time>
      </trkpt>
      <trkpt lat="10.3463786" lon="-85.8030467">
        <ele>32.3</ele>
        <time>2022-10-06T16:45:59Z</time>
      </trkpt>
      <trkpt lat="10.3463786" lon="-85.8030467">
        <ele>32.3</ele>
        <time>2022-10-06T16:46:00Z</time>
      </trkpt>
      <trkpt lat="10.3463786" lon="-85.8030467">
        <ele>32.3</ele>
        <time>2022-10-06T16:46:01Z</time>
      </trkpt>
      <trkpt lat="10.3463786" lon="-85.8030467">
        <ele>32.4</ele>
        <time>2022-10-06T16:46:02Z</time>
      </trkpt>
      <trkpt lat="10.3463786" lon="-85.8030467">
        <ele>32.3</ele>
        <time>2022-10-06T16:46:03Z</time>
      </trkpt>
      <trkpt lat="10.3463786" lon="-85.8030467">
        <ele>32.4</ele>
        <time>2022-10-06T16:46:04Z</time>
      </trkpt>
      <trkpt lat="10.3463786" lon="-85.8030467">
        <ele>32.4</ele>
        <time>2022-10-06T16:46:05Z</time>
      </trkpt>
      <trkpt lat="10.3463786" lon="-85.8030467">
        <ele>32.4</ele>
        <time>2022-10-06T16:46:06Z</time>
      </trkpt>
      <trkpt lat="10.3463786" lon="-85.8030467">
        <ele>32.5</ele>
        <time>2022-10-06T16:46:07Z</time>
      </trkpt>
      <trkpt lat="10.3463786" lon="-85.8030467">
        <ele>32.5</ele>
        <time>2022-10-06T16:46:08Z</time>
      </trkpt>
      <trkpt lat="10.3463786" lon="-85.8030467">
        <ele>32.6</ele>
        <time>2022-10-06T16:46:09Z</time>
      </trkpt>
      <trkpt lat="10.3463786" lon="-85.8030467">
        <ele>32.6</ele>
        <time>2022-10-06T16:46:10Z</time>
      </trkpt>
      <trkpt lat="10.3463786" lon="-85.8030467">
        <ele>32.6</ele>
        <time>2022-10-06T16:46:11Z</time>
      </trkpt>
      <trkpt lat="10.3463786" lon="-85.8030467">
        <ele>32.5</ele>
        <time>2022-10-06T16:46:12Z</time>
      </trkpt>
      <trkpt lat="10.3463786" lon="-85.8030467">
        <ele>32.5</ele>
        <time>2022-10-06T16:46:13Z</time>
      </trkpt>
      <trkpt lat="10.3463786" lon="-85.8030467">
        <ele>32.6</ele>
        <time>2022-10-06T16:46:14Z</time>
      </trkpt>
      <trkpt lat="10.3463786" lon="-85.8030467">
        <ele>32.6</ele>
        <time>2022-10-06T16:46:15Z</time>
      </trkpt>
      <trkpt lat="10.3463786" lon="-85.8030467">
        <ele>32.6</ele>
        <time>2022-10-06T16:46:16Z</time>
      </trkpt>
      <trkpt lat="10.3463786" lon="-85.8030467">
        <ele>32.6</ele>
        <time>2022-10-06T16:46:17Z</time>
      </trkpt>
      <trkpt lat="10.3463786" lon="-85.8030467">
        <ele>32.6</ele>
        <time>2022-10-06T16:46:18Z</time>
      </trkpt>
      <trkpt lat="10.3463786" lon="-85.8030467">
        <ele>32.6</ele>
        <time>2022-10-06T16:46:19Z</time>
      </trkpt>
      <trkpt lat="10.3463786" lon="-85.8030467">
        <ele>32.6</ele>
        <time>2022-10-06T16:46:20Z</time>
      </trkpt>
      <trkpt lat="10.3463839" lon="-85.8030596">
        <ele>32.6</ele>
        <time>2022-10-06T16:46:21Z</time>
      </trkpt>
      <trkpt lat="10.3463848" lon="-85.8030632">
        <ele>32.8</ele>
        <time>2022-10-06T16:46:22Z</time>
      </trkpt>
      <trkpt lat="10.3463848" lon="-85.8030632">
        <ele>32.6</ele>
        <time>2022-10-06T16:46:23Z</time>
      </trkpt>
      <trkpt lat="10.3463848" lon="-85.8030632">
        <ele>32.5</ele>
        <time>2022-10-06T16:46:24Z</time>
      </trkpt>
      <trkpt lat="10.3463848" lon="-85.8030632">
        <ele>32.5</ele>
        <time>2022-10-06T16:46:25Z</time>
      </trkpt>
      <trkpt lat="10.3463848" lon="-85.8030632">
        <ele>32.4</ele>
        <time>2022-10-06T16:46:26Z</time>
      </trkpt>
      <trkpt lat="10.3463848" lon="-85.8030632">
        <ele>32.3</ele>
        <time>2022-10-06T16:46:27Z</time>
      </trkpt>
      <trkpt lat="10.3463848" lon="-85.8030632">
        <ele>32.3</ele>
        <time>2022-10-06T16:46:28Z</time>
      </trkpt>
      <trkpt lat="10.3463848" lon="-85.8030632">
        <ele>32.3</ele>
        <time>2022-10-06T16:46:29Z</time>
      </trkpt>
      <trkpt lat="10.3463848" lon="-85.8030632">
        <ele>32.3</ele>
        <time>2022-10-06T16:46:30Z</time>
      </trkpt>
      <trkpt lat="10.3463848" lon="-85.8030632">
        <ele>32.4</ele>
        <time>2022-10-06T16:46:31Z</time>
      </trkpt>
      <trkpt lat="10.3463848" lon="-85.8030632">
        <ele>32.4</ele>
        <time>2022-10-06T16:46:32Z</time>
      </trkpt>
      <trkpt lat="10.3463848" lon="-85.8030632">
        <ele>32.4</ele>
        <time>2022-10-06T16:46:33Z</time>
      </trkpt>
      <trkpt lat="10.3463848" lon="-85.8030632">
        <ele>32.4</ele>
        <time>2022-10-06T16:46:34Z</time>
      </trkpt>
      <trkpt lat="10.3463848" lon="-85.8030632">
        <ele>32.4</ele>
        <time>2022-10-06T16:46:35Z</time>
      </trkpt>
      <trkpt lat="10.3463848" lon="-85.8030632">
        <ele>32.5</ele>
        <time>2022-10-06T16:46:36Z</time>
      </trkpt>
      <trkpt lat="10.3463848" lon="-85.8030632">
        <ele>32.4</ele>
        <time>2022-10-06T16:46:37Z</time>
      </trkpt>
      <trkpt lat="10.3463848" lon="-85.8030632">
        <ele>32.5</ele>
        <time>2022-10-06T16:46:38Z</time>
      </trkpt>
      <trkpt lat="10.3463848" lon="-85.8030632">
        <ele>32.5</ele>
        <time>2022-10-06T16:46:39Z</time>
      </trkpt>
      <trkpt lat="10.3463848" lon="-85.8030632">
        <ele>32.5</ele>
        <time>2022-10-06T16:46:40Z</time>
      </trkpt>
      <trkpt lat="10.3463848" lon="-85.8030632">
        <ele>32.5</ele>
        <time>2022-10-06T16:46:41Z</time>
      </trkpt>
      <trkpt lat="10.3463848" lon="-85.8030632">
        <ele>32.5</ele>
        <time>2022-10-06T16:46:42Z</time>
      </trkpt>
      <trkpt lat="10.3463848" lon="-85.8030632">
        <ele>32.5</ele>
        <time>2022-10-06T16:46:43Z</time>
      </trkpt>
      <trkpt lat="10.3463848" lon="-85.8030632">
        <ele>32.5</ele>
        <time>2022-10-06T16:46:44Z</time>
      </trkpt>
      <trkpt lat="10.3463848" lon="-85.8030632">
        <ele>32.6</ele>
        <time>2022-10-06T16:46:45Z</time>
      </trkpt>
      <trkpt lat="10.3463848" lon="-85.8030632">
        <ele>32.6</ele>
        <time>2022-10-06T16:46:46Z</time>
      </trkpt>
      <trkpt lat="10.3463848" lon="-85.8030632">
        <ele>32.6</ele>
        <time>2022-10-06T16:46:47Z</time>
      </trkpt>
      <trkpt lat="10.3463848" lon="-85.8030632">
        <ele>32.6</ele>
        <time>2022-10-06T16:46:48Z</time>
      </trkpt>
      <trkpt lat="10.3463848" lon="-85.8030632">
        <ele>32.6</ele>
        <time>2022-10-06T16:46:49Z</time>
      </trkpt>
      <trkpt lat="10.3463848" lon="-85.8030632">
        <ele>32.7</ele>
        <time>2022-10-06T16:46:50Z</time>
      </trkpt>
      <trkpt lat="10.3463848" lon="-85.8030632">
        <ele>32.6</ele>
        <time>2022-10-06T16:46:51Z</time>
      </trkpt>
      <trkpt lat="10.3463848" lon="-85.8030632">
        <ele>32.6</ele>
        <time>2022-10-06T16:46:52Z</time>
      </trkpt>
      <trkpt lat="10.3463848" lon="-85.8030632">
        <ele>32.6</ele>
        <time>2022-10-06T16:46:53Z</time>
      </trkpt>
      <trkpt lat="10.3463848" lon="-85.8030632">
        <ele>32.7</ele>
        <time>2022-10-06T16:46:54Z</time>
      </trkpt>
      <trkpt lat="10.3463848" lon="-85.8030632">
        <ele>32.7</ele>
        <time>2022-10-06T16:46:55Z</time>
      </trkpt>
      <trkpt lat="10.3463848" lon="-85.8030632">
        <ele>32.7</ele>
        <time>2022-10-06T16:46:56Z</time>
      </trkpt>
      <trkpt lat="10.3463848" lon="-85.8030632">
        <ele>32.8</ele>
        <time>2022-10-06T16:46:57Z</time>
      </trkpt>
      <trkpt lat="10.3463848" lon="-85.8030632">
        <ele>32.9</ele>
        <time>2022-10-06T16:46:58Z</time>
      </trkpt>
      <trkpt lat="10.3463848" lon="-85.8030632">
        <ele>32.9</ele>
        <time>2022-10-06T16:46:59Z</time>
      </trkpt>
      <trkpt lat="10.3463848" lon="-85.8030632">
        <ele>33.0</ele>
        <time>2022-10-06T16:47:00Z</time>
      </trkpt>
      <trkpt lat="10.3463848" lon="-85.8030632">
        <ele>32.9</ele>
        <time>2022-10-06T16:47:01Z</time>
      </trkpt>
      <trkpt lat="10.3463848" lon="-85.8030632">
        <ele>33.0</ele>
        <time>2022-10-06T16:47:02Z</time>
      </trkpt>
      <trkpt lat="10.3463848" lon="-85.8030632">
        <ele>32.9</ele>
        <time>2022-10-06T16:47:03Z</time>
      </trkpt>
      <trkpt lat="10.3463848" lon="-85.8030632">
        <ele>33.0</ele>
        <time>2022-10-06T16:47:04Z</time>
      </trkpt>
      <trkpt lat="10.3463848" lon="-85.8030632">
        <ele>33.0</ele>
        <time>2022-10-06T16:47:05Z</time>
      </trkpt>
      <trkpt lat="10.3463848" lon="-85.8030632">
        <ele>33.0</ele>
        <time>2022-10-06T16:47:06Z</time>
      </trkpt>
      <trkpt lat="10.3463848" lon="-85.8030632">
        <ele>33.1</ele>
        <time>2022-10-06T16:47:07Z</time>
      </trkpt>
      <trkpt lat="10.3463848" lon="-85.8030632">
        <ele>33.1</ele>
        <time>2022-10-06T16:47:08Z</time>
      </trkpt>
      <trkpt lat="10.3463848" lon="-85.8030632">
        <ele>33.3</ele>
        <time>2022-10-06T16:47:09Z</time>
      </trkpt>
      <trkpt lat="10.3463848" lon="-85.8030632">
        <ele>33.3</ele>
        <time>2022-10-06T16:47:10Z</time>
      </trkpt>
      <trkpt lat="10.3463848" lon="-85.8030632">
        <ele>33.3</ele>
        <time>2022-10-06T16:47:11Z</time>
      </trkpt>
      <trkpt lat="10.3463848" lon="-85.8030632">
        <ele>33.3</ele>
        <time>2022-10-06T16:47:12Z</time>
      </trkpt>
      <trkpt lat="10.3463848" lon="-85.8030632">
        <ele>33.3</ele>
        <time>2022-10-06T16:47:13Z</time>
      </trkpt>
      <trkpt lat="10.3463848" lon="-85.8030632">
        <ele>33.4</ele>
        <time>2022-10-06T16:47:14Z</time>
      </trkpt>
      <trkpt lat="10.3463848" lon="-85.8030632">
        <ele>33.2</ele>
        <time>2022-10-06T16:47:15Z</time>
      </trkpt>
      <trkpt lat="10.3463848" lon="-85.8030632">
        <ele>33.3</ele>
        <time>2022-10-06T16:47:16Z</time>
      </trkpt>
      <trkpt lat="10.3463848" lon="-85.8030632">
        <ele>33.3</ele>
        <time>2022-10-06T16:47:17Z</time>
      </trkpt>
      <trkpt lat="10.3463848" lon="-85.8030632">
        <ele>33.4</ele>
        <time>2022-10-06T16:47:18Z</time>
      </trkpt>
      <trkpt lat="10.3463848" lon="-85.8030632">
        <ele>33.3</ele>
        <time>2022-10-06T16:47:19Z</time>
      </trkpt>
      <trkpt lat="10.3463848" lon="-85.8030632">
        <ele>33.3</ele>
        <time>2022-10-06T16:47:20Z</time>
      </trkpt>
      <trkpt lat="10.3463848" lon="-85.8030632">
        <ele>33.4</ele>
        <time>2022-10-06T16:47:21Z</time>
      </trkpt>
      <trkpt lat="10.3463848" lon="-85.8030632">
        <ele>33.4</ele>
        <time>2022-10-06T16:47:22Z</time>
      </trkpt>
      <trkpt lat="10.3463848" lon="-85.8030632">
        <ele>33.4</ele>
        <time>2022-10-06T16:47:23Z</time>
      </trkpt>
      <trkpt lat="10.3463848" lon="-85.8030632">
        <ele>33.3</ele>
        <time>2022-10-06T16:47:24Z</time>
      </trkpt>
      <trkpt lat="10.3463848" lon="-85.8030632">
        <ele>33.3</ele>
        <time>2022-10-06T16:47:25Z</time>
      </trkpt>
      <trkpt lat="10.3463848" lon="-85.8030632">
        <ele>33.3</ele>
        <time>2022-10-06T16:47:26Z</time>
      </trkpt>
      <trkpt lat="10.3463848" lon="-85.8030632">
        <ele>33.3</ele>
        <time>2022-10-06T16:47:27Z</time>
      </trkpt>
      <trkpt lat="10.3463848" lon="-85.8030632">
        <ele>33.3</ele>
        <time>2022-10-06T16:47:28Z</time>
      </trkpt>
      <trkpt lat="10.3463848" lon="-85.8030632">
        <ele>33.2</ele>
        <time>2022-10-06T16:47:29Z</time>
      </trkpt>
      <trkpt lat="10.3463848" lon="-85.8030632">
        <ele>33.3</ele>
        <time>2022-10-06T16:47:30Z</time>
      </trkpt>
      <trkpt lat="10.3463848" lon="-85.8030632">
        <ele>33.3</ele>
        <time>2022-10-06T16:47:31Z</time>
      </trkpt>
      <trkpt lat="10.3463848" lon="-85.8030632">
        <ele>33.4</ele>
        <time>2022-10-06T16:47:32Z</time>
      </trkpt>
      <trkpt lat="10.3463848" lon="-85.8030632">
        <ele>33.4</ele>
        <time>2022-10-06T16:47:33Z</time>
      </trkpt>
      <trkpt lat="10.3463848" lon="-85.8030632">
        <ele>33.4</ele>
        <time>2022-10-06T16:47:34Z</time>
      </trkpt>
      <trkpt lat="10.3463848" lon="-85.8030632">
        <ele>33.4</ele>
        <time>2022-10-06T16:47:35Z</time>
      </trkpt>
      <trkpt lat="10.3463848" lon="-85.8030632">
        <ele>33.4</ele>
        <time>2022-10-06T16:47:36Z</time>
      </trkpt>
      <trkpt lat="10.3463848" lon="-85.8030632">
        <ele>33.4</ele>
        <time>2022-10-06T16:47:37Z</time>
      </trkpt>
      <trkpt lat="10.3463848" lon="-85.8030632">
        <ele>33.4</ele>
        <time>2022-10-06T16:47:38Z</time>
      </trkpt>
      <trkpt lat="10.3463848" lon="-85.8030632">
        <ele>33.4</ele>
        <time>2022-10-06T16:47:39Z</time>
      </trkpt>
      <trkpt lat="10.3463848" lon="-85.8030632">
        <ele>33.4</ele>
        <time>2022-10-06T16:47:40Z</time>
      </trkpt>
      <trkpt lat="10.3463848" lon="-85.8030632">
        <ele>33.4</ele>
        <time>2022-10-06T16:47:41Z</time>
      </trkpt>
      <trkpt lat="10.3463848" lon="-85.8030632">
        <ele>33.4</ele>
        <time>2022-10-06T16:47:42Z</time>
      </trkpt>
      <trkpt lat="10.3463848" lon="-85.8030632">
        <ele>33.4</ele>
        <time>2022-10-06T16:47:43Z</time>
      </trkpt>
      <trkpt lat="10.3463848" lon="-85.8030632">
        <ele>33.4</ele>
        <time>2022-10-06T16:47:44Z</time>
      </trkpt>
      <trkpt lat="10.3463848" lon="-85.8030632">
        <ele>33.4</ele>
        <time>2022-10-06T16:47:45Z</time>
      </trkpt>
      <trkpt lat="10.3463848" lon="-85.8030632">
        <ele>33.4</ele>
        <time>2022-10-06T16:47:46Z</time>
      </trkpt>
      <trkpt lat="10.3463848" lon="-85.8030632">
        <ele>33.4</ele>
        <time>2022-10-06T16:47:47Z</time>
      </trkpt>
      <trkpt lat="10.3463848" lon="-85.8030632">
        <ele>33.5</ele>
        <time>2022-10-06T16:47:48Z</time>
      </trkpt>
      <trkpt lat="10.3463848" lon="-85.8030632">
        <ele>33.6</ele>
        <time>2022-10-06T16:47:49Z</time>
      </trkpt>
      <trkpt lat="10.3463848" lon="-85.8030632">
        <ele>33.6</ele>
        <time>2022-10-06T16:47:50Z</time>
      </trkpt>
      <trkpt lat="10.3463848" lon="-85.8030632">
        <ele>33.5</ele>
        <time>2022-10-06T16:47:51Z</time>
      </trkpt>
      <trkpt lat="10.3463848" lon="-85.8030632">
        <ele>33.6</ele>
        <time>2022-10-06T16:47:52Z</time>
      </trkpt>
      <trkpt lat="10.3463848" lon="-85.8030632">
        <ele>33.5</ele>
        <time>2022-10-06T16:47:53Z</time>
      </trkpt>
      <trkpt lat="10.3463848" lon="-85.8030632">
        <ele>33.5</ele>
        <time>2022-10-06T16:47:54Z</time>
      </trkpt>
      <trkpt lat="10.3463848" lon="-85.8030632">
        <ele>33.4</ele>
        <time>2022-10-06T16:47:55Z</time>
      </trkpt>
      <trkpt lat="10.3463848" lon="-85.8030632">
        <ele>33.3</ele>
        <time>2022-10-06T16:47:56Z</time>
      </trkpt>
      <trkpt lat="10.3463848" lon="-85.8030632">
        <ele>33.3</ele>
        <time>2022-10-06T16:47:57Z</time>
      </trkpt>
      <trkpt lat="10.3463848" lon="-85.8030632">
        <ele>33.3</ele>
        <time>2022-10-06T16:47:58Z</time>
      </trkpt>
      <trkpt lat="10.3463848" lon="-85.8030632">
        <ele>33.3</ele>
        <time>2022-10-06T16:47:59Z</time>
      </trkpt>
      <trkpt lat="10.3463848" lon="-85.8030632">
        <ele>33.3</ele>
        <time>2022-10-06T16:48:00Z</time>
      </trkpt>
      <trkpt lat="10.3463848" lon="-85.8030632">
        <ele>33.4</ele>
        <time>2022-10-06T16:48:01Z</time>
      </trkpt>
      <trkpt lat="10.3463848" lon="-85.8030632">
        <ele>33.4</ele>
        <time>2022-10-06T16:48:02Z</time>
      </trkpt>
      <trkpt lat="10.3463848" lon="-85.8030632">
        <ele>33.3</ele>
        <time>2022-10-06T16:48:03Z</time>
      </trkpt>
      <trkpt lat="10.3463848" lon="-85.8030632">
        <ele>33.3</ele>
        <time>2022-10-06T16:48:04Z</time>
      </trkpt>
      <trkpt lat="10.3463848" lon="-85.8030632">
        <ele>33.2</ele>
        <time>2022-10-06T16:48:05Z</time>
      </trkpt>
      <trkpt lat="10.3463848" lon="-85.8030632">
        <ele>33.3</ele>
        <time>2022-10-06T16:48:06Z</time>
      </trkpt>
      <trkpt lat="10.3463848" lon="-85.8030632">
        <ele>33.2</ele>
        <time>2022-10-06T16:48:07Z</time>
      </trkpt>
      <trkpt lat="10.3463848" lon="-85.8030632">
        <ele>33.2</ele>
        <time>2022-10-06T16:48:08Z</time>
      </trkpt>
      <trkpt lat="10.3463848" lon="-85.8030632">
        <ele>33.2</ele>
        <time>2022-10-06T16:48:09Z</time>
      </trkpt>
      <trkpt lat="10.3463848" lon="-85.8030632">
        <ele>33.2</ele>
        <time>2022-10-06T16:48:10Z</time>
      </trkpt>
      <trkpt lat="10.3463848" lon="-85.8030632">
        <ele>33.2</ele>
        <time>2022-10-06T16:48:11Z</time>
      </trkpt>
      <trkpt lat="10.3463848" lon="-85.8030632">
        <ele>33.1</ele>
        <time>2022-10-06T16:48:12Z</time>
      </trkpt>
      <trkpt lat="10.3463848" lon="-85.8030632">
        <ele>33.0</ele>
        <time>2022-10-06T16:48:13Z</time>
      </trkpt>
      <trkpt lat="10.3463848" lon="-85.8030632">
        <ele>32.9</ele>
        <time>2022-10-06T16:48:14Z</time>
      </trkpt>
      <trkpt lat="10.3463848" lon="-85.8030632">
        <ele>32.9</ele>
        <time>2022-10-06T16:48:15Z</time>
      </trkpt>
      <trkpt lat="10.3463848" lon="-85.8030632">
        <ele>32.9</ele>
        <time>2022-10-06T16:48:16Z</time>
      </trkpt>
      <trkpt lat="10.3463848" lon="-85.8030632">
        <ele>32.9</ele>
        <time>2022-10-06T16:48:17Z</time>
      </trkpt>
      <trkpt lat="10.3463848" lon="-85.8030632">
        <ele>32.9</ele>
        <time>2022-10-06T16:48:18Z</time>
      </trkpt>
      <trkpt lat="10.3463848" lon="-85.8030632">
        <ele>32.9</ele>
        <time>2022-10-06T16:48:19Z</time>
      </trkpt>
      <trkpt lat="10.3463848" lon="-85.8030632">
        <ele>32.9</ele>
        <time>2022-10-06T16:48:20Z</time>
      </trkpt>
      <trkpt lat="10.3463848" lon="-85.8030632">
        <ele>32.9</ele>
        <time>2022-10-06T16:48:21Z</time>
      </trkpt>
      <trkpt lat="10.3463848" lon="-85.8030632">
        <ele>32.9</ele>
        <time>2022-10-06T16:48:22Z</time>
      </trkpt>
      <trkpt lat="10.3463848" lon="-85.8030632">
        <ele>32.8</ele>
        <time>2022-10-06T16:48:23Z</time>
      </trkpt>
      <trkpt lat="10.3463848" lon="-85.8030632">
        <ele>32.8</ele>
        <time>2022-10-06T16:48:24Z</time>
      </trkpt>
      <trkpt lat="10.3463848" lon="-85.8030632">
        <ele>32.9</ele>
        <time>2022-10-06T16:48:25Z</time>
      </trkpt>
      <trkpt lat="10.3463848" lon="-85.8030632">
        <ele>32.9</ele>
        <time>2022-10-06T16:48:26Z</time>
      </trkpt>
      <trkpt lat="10.3463848" lon="-85.8030632">
        <ele>32.8</ele>
        <time>2022-10-06T16:48:27Z</time>
      </trkpt>
      <trkpt lat="10.3463848" lon="-85.8030632">
        <ele>32.8</ele>
        <time>2022-10-06T16:48:28Z</time>
      </trkpt>
      <trkpt lat="10.3463848" lon="-85.8030632">
        <ele>32.7</ele>
        <time>2022-10-06T16:48:29Z</time>
      </trkpt>
      <trkpt lat="10.3463848" lon="-85.8030632">
        <ele>32.7</ele>
        <time>2022-10-06T16:48:30Z</time>
      </trkpt>
      <trkpt lat="10.3463848" lon="-85.8030632">
        <ele>32.7</ele>
        <time>2022-10-06T16:48:31Z</time>
      </trkpt>
      <trkpt lat="10.3463848" lon="-85.8030632">
        <ele>32.8</ele>
        <time>2022-10-06T16:48:32Z</time>
      </trkpt>
      <trkpt lat="10.3463848" lon="-85.8030632">
        <ele>32.8</ele>
        <time>2022-10-06T16:48:33Z</time>
      </trkpt>
      <trkpt lat="10.3463848" lon="-85.8030632">
        <ele>32.8</ele>
        <time>2022-10-06T16:48:34Z</time>
      </trkpt>
      <trkpt lat="10.3463848" lon="-85.8030632">
        <ele>32.9</ele>
        <time>2022-10-06T16:48:35Z</time>
      </trkpt>
      <trkpt lat="10.3463848" lon="-85.8030632">
        <ele>32.9</ele>
        <time>2022-10-06T16:48:36Z</time>
      </trkpt>
      <trkpt lat="10.3463848" lon="-85.8030632">
        <ele>32.9</ele>
        <time>2022-10-06T16:48:37Z</time>
      </trkpt>
      <trkpt lat="10.3463848" lon="-85.8030632">
        <ele>32.9</ele>
        <time>2022-10-06T16:48:38Z</time>
      </trkpt>
      <trkpt lat="10.3463848" lon="-85.8030632">
        <ele>32.9</ele>
        <time>2022-10-06T16:48:39Z</time>
      </trkpt>
      <trkpt lat="10.3463848" lon="-85.8030632">
        <ele>32.9</ele>
        <time>2022-10-06T16:48:40Z</time>
      </trkpt>
      <trkpt lat="10.3463848" lon="-85.8030632">
        <ele>33.0</ele>
        <time>2022-10-06T16:48:41Z</time>
      </trkpt>
      <trkpt lat="10.3463848" lon="-85.8030632">
        <ele>33.0</ele>
        <time>2022-10-06T16:48:42Z</time>
      </trkpt>
      <trkpt lat="10.3463848" lon="-85.8030632">
        <ele>33.1</ele>
        <time>2022-10-06T16:48:43Z</time>
      </trkpt>
      <trkpt lat="10.3463848" lon="-85.8030632">
        <ele>33.2</ele>
        <time>2022-10-06T16:48:44Z</time>
      </trkpt>
      <trkpt lat="10.3463848" lon="-85.8030632">
        <ele>33.1</ele>
        <time>2022-10-06T16:48:45Z</time>
      </trkpt>
      <trkpt lat="10.3463848" lon="-85.8030632">
        <ele>33.0</ele>
        <time>2022-10-06T16:48:46Z</time>
      </trkpt>
      <trkpt lat="10.3463848" lon="-85.8030632">
        <ele>33.0</ele>
        <time>2022-10-06T16:48:47Z</time>
      </trkpt>
      <trkpt lat="10.3463848" lon="-85.8030632">
        <ele>32.9</ele>
        <time>2022-10-06T16:48:48Z</time>
      </trkpt>
      <trkpt lat="10.3463848" lon="-85.8030632">
        <ele>32.8</ele>
        <time>2022-10-06T16:48:49Z</time>
      </trkpt>
      <trkpt lat="10.3463848" lon="-85.8030632">
        <ele>32.8</ele>
        <time>2022-10-06T16:48:50Z</time>
      </trkpt>
      <trkpt lat="10.3463848" lon="-85.8030632">
        <ele>32.8</ele>
        <time>2022-10-06T16:48:51Z</time>
      </trkpt>
      <trkpt lat="10.3463848" lon="-85.8030632">
        <ele>32.7</ele>
        <time>2022-10-06T16:48:52Z</time>
      </trkpt>
      <trkpt lat="10.3463848" lon="-85.8030632">
        <ele>32.7</ele>
        <time>2022-10-06T16:48:53Z</time>
      </trkpt>
      <trkpt lat="10.3463848" lon="-85.8030632">
        <ele>32.7</ele>
        <time>2022-10-06T16:48:54Z</time>
      </trkpt>
      <trkpt lat="10.3463848" lon="-85.8030632">
        <ele>32.6</ele>
        <time>2022-10-06T16:48:55Z</time>
      </trkpt>
      <trkpt lat="10.3463848" lon="-85.8030632">
        <ele>32.7</ele>
        <time>2022-10-06T16:48:56Z</time>
      </trkpt>
      <trkpt lat="10.3463848" lon="-85.8030632">
        <ele>32.7</ele>
        <time>2022-10-06T16:48:57Z</time>
      </trkpt>
      <trkpt lat="10.3463848" lon="-85.8030632">
        <ele>32.7</ele>
        <time>2022-10-06T16:48:58Z</time>
      </trkpt>
      <trkpt lat="10.3463848" lon="-85.8030632">
        <ele>32.8</ele>
        <time>2022-10-06T16:48:59Z</time>
      </trkpt>
      <trkpt lat="10.3463848" lon="-85.8030632">
        <ele>32.7</ele>
        <time>2022-10-06T16:49:00Z</time>
      </trkpt>
      <trkpt lat="10.3463848" lon="-85.8030632">
        <ele>32.8</ele>
        <time>2022-10-06T16:49:01Z</time>
      </trkpt>
      <trkpt lat="10.3463848" lon="-85.8030632">
        <ele>32.8</ele>
        <time>2022-10-06T16:49:02Z</time>
      </trkpt>
      <trkpt lat="10.3463848" lon="-85.8030632">
        <ele>32.8</ele>
        <time>2022-10-06T16:49:03Z</time>
      </trkpt>
      <trkpt lat="10.3463848" lon="-85.8030632">
        <ele>32.9</ele>
        <time>2022-10-06T16:49:04Z</time>
      </trkpt>
      <trkpt lat="10.3463848" lon="-85.8030632">
        <ele>32.9</ele>
        <time>2022-10-06T16:49:05Z</time>
      </trkpt>
      <trkpt lat="10.3463848" lon="-85.8030632">
        <ele>32.9</ele>
        <time>2022-10-06T16:49:06Z</time>
      </trkpt>
      <trkpt lat="10.3463848" lon="-85.8030632">
        <ele>32.9</ele>
        <time>2022-10-06T16:49:07Z</time>
      </trkpt>
      <trkpt lat="10.3463848" lon="-85.8030632">
        <ele>32.8</ele>
        <time>2022-10-06T16:49:08Z</time>
      </trkpt>
      <trkpt lat="10.3463848" lon="-85.8030632">
        <ele>32.8</ele>
        <time>2022-10-06T16:49:09Z</time>
      </trkpt>
      <trkpt lat="10.3463848" lon="-85.8030632">
        <ele>32.9</ele>
        <time>2022-10-06T16:49:10Z</time>
      </trkpt>
      <trkpt lat="10.3463848" lon="-85.8030632">
        <ele>32.9</ele>
        <time>2022-10-06T16:49:11Z</time>
      </trkpt>
      <trkpt lat="10.3463848" lon="-85.8030632">
        <ele>32.8</ele>
        <time>2022-10-06T16:49:12Z</time>
      </trkpt>
      <trkpt lat="10.3463848" lon="-85.8030632">
        <ele>32.9</ele>
        <time>2022-10-06T16:49:13Z</time>
      </trkpt>
      <trkpt lat="10.3463848" lon="-85.8030632">
        <ele>32.8</ele>
        <time>2022-10-06T16:49:14Z</time>
      </trkpt>
      <trkpt lat="10.3463848" lon="-85.8030632">
        <ele>32.8</ele>
        <time>2022-10-06T16:49:15Z</time>
      </trkpt>
      <trkpt lat="10.3463848" lon="-85.8030632">
        <ele>32.9</ele>
        <time>2022-10-06T16:49:16Z</time>
      </trkpt>
      <trkpt lat="10.3463848" lon="-85.8030632">
        <ele>32.9</ele>
        <time>2022-10-06T16:49:17Z</time>
      </trkpt>
      <trkpt lat="10.3463848" lon="-85.8030632">
        <ele>32.9</ele>
        <time>2022-10-06T16:49:18Z</time>
      </trkpt>
      <trkpt lat="10.3463848" lon="-85.8030632">
        <ele>32.9</ele>
        <time>2022-10-06T16:49:19Z</time>
      </trkpt>
      <trkpt lat="10.3463848" lon="-85.8030632">
        <ele>33.0</ele>
        <time>2022-10-06T16:49:20Z</time>
      </trkpt>
      <trkpt lat="10.3463848" lon="-85.8030632">
        <ele>32.9</ele>
        <time>2022-10-06T16:49:21Z</time>
      </trkpt>
      <trkpt lat="10.3463848" lon="-85.8030632">
        <ele>33.0</ele>
        <time>2022-10-06T16:49:22Z</time>
      </trkpt>
      <trkpt lat="10.3463848" lon="-85.8030632">
        <ele>33.0</ele>
        <time>2022-10-06T16:49:23Z</time>
      </trkpt>
      <trkpt lat="10.3463848" lon="-85.8030632">
        <ele>33.0</ele>
        <time>2022-10-06T16:49:24Z</time>
      </trkpt>
      <trkpt lat="10.3463848" lon="-85.8030632">
        <ele>33.1</ele>
        <time>2022-10-06T16:49:25Z</time>
      </trkpt>
      <trkpt lat="10.3463848" lon="-85.8030632">
        <ele>33.0</ele>
        <time>2022-10-06T16:49:26Z</time>
      </trkpt>
      <trkpt lat="10.3463848" lon="-85.8030632">
        <ele>32.9</ele>
        <time>2022-10-06T16:49:27Z</time>
      </trkpt>
      <trkpt lat="10.3463848" lon="-85.8030632">
        <ele>32.9</ele>
        <time>2022-10-06T16:49:28Z</time>
      </trkpt>
      <trkpt lat="10.3463848" lon="-85.8030632">
        <ele>32.9</ele>
        <time>2022-10-06T16:49:29Z</time>
      </trkpt>
      <trkpt lat="10.3463848" lon="-85.8030632">
        <ele>32.9</ele>
        <time>2022-10-06T16:49:30Z</time>
      </trkpt>
      <trkpt lat="10.3463848" lon="-85.8030632">
        <ele>33.0</ele>
        <time>2022-10-06T16:49:31Z</time>
      </trkpt>
      <trkpt lat="10.3463848" lon="-85.8030632">
        <ele>33.0</ele>
        <time>2022-10-06T16:49:32Z</time>
      </trkpt>
      <trkpt lat="10.3463848" lon="-85.8030632">
        <ele>33.0</ele>
        <time>2022-10-06T16:49:33Z</time>
      </trkpt>
      <trkpt lat="10.3463848" lon="-85.8030632">
        <ele>33.0</ele>
        <time>2022-10-06T16:49:34Z</time>
      </trkpt>
      <trkpt lat="10.3463848" lon="-85.8030632">
        <ele>33.0</ele>
        <time>2022-10-06T16:49:35Z</time>
      </trkpt>
      <trkpt lat="10.3463848" lon="-85.8030632">
        <ele>33.1</ele>
        <time>2022-10-06T16:49:36Z</time>
      </trkpt>
      <trkpt lat="10.3463848" lon="-85.8030632">
        <ele>33.1</ele>
        <time>2022-10-06T16:49:37Z</time>
      </trkpt>
      <trkpt lat="10.3463848" lon="-85.8030632">
        <ele>33.1</ele>
        <time>2022-10-06T16:49:38Z</time>
      </trkpt>
      <trkpt lat="10.3463848" lon="-85.8030632">
        <ele>33.0</ele>
        <time>2022-10-06T16:49:39Z</time>
      </trkpt>
      <trkpt lat="10.3463848" lon="-85.8030632">
        <ele>33.0</ele>
        <time>2022-10-06T16:49:40Z</time>
      </trkpt>
      <trkpt lat="10.3463848" lon="-85.8030632">
        <ele>32.9</ele>
        <time>2022-10-06T16:49:41Z</time>
      </trkpt>
      <trkpt lat="10.3463848" lon="-85.8030632">
        <ele>33.0</ele>
        <time>2022-10-06T16:49:42Z</time>
      </trkpt>
      <trkpt lat="10.3463848" lon="-85.8030632">
        <ele>33.0</ele>
        <time>2022-10-06T16:49:43Z</time>
      </trkpt>
      <trkpt lat="10.3463848" lon="-85.8030632">
        <ele>33.1</ele>
        <time>2022-10-06T16:49:44Z</time>
      </trkpt>
      <trkpt lat="10.3463848" lon="-85.8030632">
        <ele>33.1</ele>
        <time>2022-10-06T16:49:45Z</time>
      </trkpt>
      <trkpt lat="10.3463848" lon="-85.8030632">
        <ele>33.1</ele>
        <time>2022-10-06T16:49:46Z</time>
      </trkpt>
      <trkpt lat="10.3463848" lon="-85.8030632">
        <ele>33.2</ele>
        <time>2022-10-06T16:49:47Z</time>
      </trkpt>
      <trkpt lat="10.3463848" lon="-85.8030632">
        <ele>33.2</ele>
        <time>2022-10-06T16:49:48Z</time>
      </trkpt>
      <trkpt lat="10.3463848" lon="-85.8030632">
        <ele>33.3</ele>
        <time>2022-10-06T16:49:49Z</time>
      </trkpt>
      <trkpt lat="10.3463848" lon="-85.8030632">
        <ele>33.3</ele>
        <time>2022-10-06T16:49:50Z</time>
      </trkpt>
      <trkpt lat="10.3463848" lon="-85.8030632">
        <ele>33.3</ele>
        <time>2022-10-06T16:49:51Z</time>
      </trkpt>
      <trkpt lat="10.3463848" lon="-85.8030632">
        <ele>33.3</ele>
        <time>2022-10-06T16:49:52Z</time>
      </trkpt>
      <trkpt lat="10.3463848" lon="-85.8030632">
        <ele>33.3</ele>
        <time>2022-10-06T16:49:53Z</time>
      </trkpt>
      <trkpt lat="10.3463848" lon="-85.8030632">
        <ele>33.4</ele>
        <time>2022-10-06T16:49:54Z</time>
      </trkpt>
      <trkpt lat="10.3463848" lon="-85.8030632">
        <ele>33.4</ele>
        <time>2022-10-06T16:49:55Z</time>
      </trkpt>
      <trkpt lat="10.3463848" lon="-85.8030632">
        <ele>33.4</ele>
        <time>2022-10-06T16:49:56Z</time>
      </trkpt>
      <trkpt lat="10.3463848" lon="-85.8030632">
        <ele>33.4</ele>
        <time>2022-10-06T16:49:57Z</time>
      </trkpt>
      <trkpt lat="10.3463848" lon="-85.8030632">
        <ele>33.5</ele>
        <time>2022-10-06T16:49:58Z</time>
      </trkpt>
      <trkpt lat="10.3463848" lon="-85.8030632">
        <ele>33.5</ele>
        <time>2022-10-06T16:49:59Z</time>
      </trkpt>
      <trkpt lat="10.3463848" lon="-85.8030632">
        <ele>33.5</ele>
        <time>2022-10-06T16:50:00Z</time>
      </trkpt>
      <trkpt lat="10.3463848" lon="-85.8030632">
        <ele>33.6</ele>
        <time>2022-10-06T16:50:01Z</time>
      </trkpt>
      <trkpt lat="10.3463848" lon="-85.8030632">
        <ele>33.6</ele>
        <time>2022-10-06T16:50:02Z</time>
      </trkpt>
      <trkpt lat="10.3463848" lon="-85.8030632">
        <ele>33.5</ele>
        <time>2022-10-06T16:50:03Z</time>
      </trkpt>
      <trkpt lat="10.3463848" lon="-85.8030632">
        <ele>33.5</ele>
        <time>2022-10-06T16:50:04Z</time>
      </trkpt>
      <trkpt lat="10.3463848" lon="-85.8030632">
        <ele>33.4</ele>
        <time>2022-10-06T16:50:05Z</time>
      </trkpt>
      <trkpt lat="10.3463848" lon="-85.8030632">
        <ele>33.4</ele>
        <time>2022-10-06T16:50:06Z</time>
      </trkpt>
      <trkpt lat="10.3463848" lon="-85.8030632">
        <ele>33.3</ele>
        <time>2022-10-06T16:50:07Z</time>
      </trkpt>
      <trkpt lat="10.3463848" lon="-85.8030632">
        <ele>33.2</ele>
        <time>2022-10-06T16:50:08Z</time>
      </trkpt>
      <trkpt lat="10.3463848" lon="-85.8030632">
        <ele>33.2</ele>
        <time>2022-10-06T16:50:09Z</time>
      </trkpt>
      <trkpt lat="10.3463848" lon="-85.8030632">
        <ele>33.2</ele>
        <time>2022-10-06T16:50:10Z</time>
      </trkpt>
      <trkpt lat="10.3463848" lon="-85.8030632">
        <ele>33.2</ele>
        <time>2022-10-06T16:50:11Z</time>
      </trkpt>
      <trkpt lat="10.3463848" lon="-85.8030632">
        <ele>33.1</ele>
        <time>2022-10-06T16:50:12Z</time>
      </trkpt>
      <trkpt lat="10.3463848" lon="-85.8030632">
        <ele>33.1</ele>
        <time>2022-10-06T16:50:13Z</time>
      </trkpt>
      <trkpt lat="10.3463848" lon="-85.8030632">
        <ele>33.1</ele>
        <time>2022-10-06T16:50:14Z</time>
      </trkpt>
      <trkpt lat="10.3463848" lon="-85.8030632">
        <ele>33.0</ele>
        <time>2022-10-06T16:50:15Z</time>
      </trkpt>
      <trkpt lat="10.3463848" lon="-85.8030632">
        <ele>33.0</ele>
        <time>2022-10-06T16:50:16Z</time>
      </trkpt>
      <trkpt lat="10.3463848" lon="-85.8030632">
        <ele>32.9</ele>
        <time>2022-10-06T16:50:17Z</time>
      </trkpt>
      <trkpt lat="10.3463848" lon="-85.8030632">
        <ele>32.9</ele>
        <time>2022-10-06T16:50:18Z</time>
      </trkpt>
      <trkpt lat="10.3463848" lon="-85.8030632">
        <ele>32.9</ele>
        <time>2022-10-06T16:50:19Z</time>
      </trkpt>
      <trkpt lat="10.3463848" lon="-85.8030632">
        <ele>32.9</ele>
        <time>2022-10-06T16:50:20Z</time>
      </trkpt>
      <trkpt lat="10.3463848" lon="-85.8030632">
        <ele>32.9</ele>
        <time>2022-10-06T16:50:21Z</time>
      </trkpt>
      <trkpt lat="10.3463848" lon="-85.8030632">
        <ele>32.9</ele>
        <time>2022-10-06T16:50:22Z</time>
      </trkpt>
      <trkpt lat="10.3463848" lon="-85.8030632">
        <ele>33.0</ele>
        <time>2022-10-06T16:50:23Z</time>
      </trkpt>
      <trkpt lat="10.3463848" lon="-85.8030632">
        <ele>32.9</ele>
        <time>2022-10-06T16:50:24Z</time>
      </trkpt>
      <trkpt lat="10.3463848" lon="-85.8030632">
        <ele>32.8</ele>
        <time>2022-10-06T16:50:25Z</time>
      </trkpt>
      <trkpt lat="10.3463848" lon="-85.8030632">
        <ele>32.8</ele>
        <time>2022-10-06T16:50:26Z</time>
      </trkpt>
      <trkpt lat="10.3463848" lon="-85.8030632">
        <ele>32.9</ele>
        <time>2022-10-06T16:50:27Z</time>
      </trkpt>
      <trkpt lat="10.3463848" lon="-85.8030632">
        <ele>32.9</ele>
        <time>2022-10-06T16:50:28Z</time>
      </trkpt>
      <trkpt lat="10.3463848" lon="-85.8030632">
        <ele>32.9</ele>
        <time>2022-10-06T16:50:29Z</time>
      </trkpt>
      <trkpt lat="10.3463848" lon="-85.8030632">
        <ele>32.9</ele>
        <time>2022-10-06T16:50:30Z</time>
      </trkpt>
      <trkpt lat="10.3463848" lon="-85.8030632">
        <ele>32.8</ele>
        <time>2022-10-06T16:50:31Z</time>
      </trkpt>
      <trkpt lat="10.3463848" lon="-85.8030632">
        <ele>32.8</ele>
        <time>2022-10-06T16:50:32Z</time>
      </trkpt>
      <trkpt lat="10.3463848" lon="-85.8030632">
        <ele>32.7</ele>
        <time>2022-10-06T16:50:33Z</time>
      </trkpt>
      <trkpt lat="10.3463848" lon="-85.8030632">
        <ele>32.7</ele>
        <time>2022-10-06T16:50:34Z</time>
      </trkpt>
      <trkpt lat="10.3463848" lon="-85.8030632">
        <ele>32.7</ele>
        <time>2022-10-06T16:50:35Z</time>
      </trkpt>
      <trkpt lat="10.3463848" lon="-85.8030632">
        <ele>32.6</ele>
        <time>2022-10-06T16:50:36Z</time>
      </trkpt>
      <trkpt lat="10.3463848" lon="-85.8030632">
        <ele>32.6</ele>
        <time>2022-10-06T16:50:37Z</time>
      </trkpt>
      <trkpt lat="10.3463848" lon="-85.8030632">
        <ele>32.5</ele>
        <time>2022-10-06T16:50:38Z</time>
      </trkpt>
      <trkpt lat="10.3463848" lon="-85.8030632">
        <ele>32.5</ele>
        <time>2022-10-06T16:50:39Z</time>
      </trkpt>
      <trkpt lat="10.3463848" lon="-85.8030632">
        <ele>32.4</ele>
        <time>2022-10-06T16:50:40Z</time>
      </trkpt>
      <trkpt lat="10.3463848" lon="-85.8030632">
        <ele>32.4</ele>
        <time>2022-10-06T16:50:41Z</time>
      </trkpt>
      <trkpt lat="10.3463848" lon="-85.8030632">
        <ele>32.3</ele>
        <time>2022-10-06T16:50:42Z</time>
      </trkpt>
      <trkpt lat="10.3463848" lon="-85.8030632">
        <ele>32.3</ele>
        <time>2022-10-06T16:50:43Z</time>
      </trkpt>
      <trkpt lat="10.3463848" lon="-85.8030632">
        <ele>32.3</ele>
        <time>2022-10-06T16:50:44Z</time>
      </trkpt>
      <trkpt lat="10.3463848" lon="-85.8030632">
        <ele>32.4</ele>
        <time>2022-10-06T16:50:45Z</time>
      </trkpt>
      <trkpt lat="10.3463848" lon="-85.8030632">
        <ele>32.4</ele>
        <time>2022-10-06T16:50:46Z</time>
      </trkpt>
      <trkpt lat="10.3463848" lon="-85.8030632">
        <ele>32.4</ele>
        <time>2022-10-06T16:50:47Z</time>
      </trkpt>
      <trkpt lat="10.3463848" lon="-85.8030632">
        <ele>32.4</ele>
        <time>2022-10-06T16:50:48Z</time>
      </trkpt>
      <trkpt lat="10.3463848" lon="-85.8030632">
        <ele>32.5</ele>
        <time>2022-10-06T16:50:49Z</time>
      </trkpt>
      <trkpt lat="10.3463848" lon="-85.8030632">
        <ele>32.5</ele>
        <time>2022-10-06T16:50:50Z</time>
      </trkpt>
      <trkpt lat="10.3463848" lon="-85.8030632">
        <ele>32.5</ele>
        <time>2022-10-06T16:50:51Z</time>
      </trkpt>
      <trkpt lat="10.3463848" lon="-85.8030632">
        <ele>32.6</ele>
        <time>2022-10-06T16:50:52Z</time>
      </trkpt>
      <trkpt lat="10.3463848" lon="-85.8030632">
        <ele>32.7</ele>
        <time>2022-10-06T16:50:53Z</time>
      </trkpt>
      <trkpt lat="10.3463848" lon="-85.8030632">
        <ele>32.6</ele>
        <time>2022-10-06T16:50:54Z</time>
      </trkpt>
      <trkpt lat="10.3463848" lon="-85.8030632">
        <ele>32.6</ele>
        <time>2022-10-06T16:50:55Z</time>
      </trkpt>
      <trkpt lat="10.3463848" lon="-85.8030632">
        <ele>32.6</ele>
        <time>2022-10-06T16:50:56Z</time>
      </trkpt>
      <trkpt lat="10.3463848" lon="-85.8030632">
        <ele>32.7</ele>
        <time>2022-10-06T16:50:57Z</time>
      </trkpt>
      <trkpt lat="10.3463848" lon="-85.8030632">
        <ele>32.7</ele>
        <time>2022-10-06T16:50:58Z</time>
      </trkpt>
      <trkpt lat="10.3463848" lon="-85.8030632">
        <ele>32.8</ele>
        <time>2022-10-06T16:50:59Z</time>
      </trkpt>
      <trkpt lat="10.3463848" lon="-85.8030632">
        <ele>32.8</ele>
        <time>2022-10-06T16:51:00Z</time>
      </trkpt>
      <trkpt lat="10.3463848" lon="-85.8030632">
        <ele>32.8</ele>
        <time>2022-10-06T16:51:01Z</time>
      </trkpt>
      <trkpt lat="10.3463848" lon="-85.8030632">
        <ele>32.8</ele>
        <time>2022-10-06T16:51:02Z</time>
      </trkpt>
      <trkpt lat="10.3463848" lon="-85.8030632">
        <ele>32.8</ele>
        <time>2022-10-06T16:51:03Z</time>
      </trkpt>
      <trkpt lat="10.3463848" lon="-85.8030632">
        <ele>32.8</ele>
        <time>2022-10-06T16:51:04Z</time>
      </trkpt>
      <trkpt lat="10.3463848" lon="-85.8030632">
        <ele>32.8</ele>
        <time>2022-10-06T16:51:05Z</time>
      </trkpt>
      <trkpt lat="10.3463848" lon="-85.8030632">
        <ele>32.9</ele>
        <time>2022-10-06T16:51:06Z</time>
      </trkpt>
      <trkpt lat="10.3463848" lon="-85.8030632">
        <ele>32.8</ele>
        <time>2022-10-06T16:51:07Z</time>
      </trkpt>
      <trkpt lat="10.3463848" lon="-85.8030632">
        <ele>32.8</ele>
        <time>2022-10-06T16:51:08Z</time>
      </trkpt>
      <trkpt lat="10.3463848" lon="-85.8030632">
        <ele>32.8</ele>
        <time>2022-10-06T16:51:09Z</time>
      </trkpt>
      <trkpt lat="10.3463848" lon="-85.8030632">
        <ele>32.8</ele>
        <time>2022-10-06T16:51:10Z</time>
      </trkpt>
      <trkpt lat="10.3463848" lon="-85.8030632">
        <ele>32.8</ele>
        <time>2022-10-06T16:51:11Z</time>
      </trkpt>
      <trkpt lat="10.3463848" lon="-85.8030632">
        <ele>32.7</ele>
        <time>2022-10-06T16:51:12Z</time>
      </trkpt>
      <trkpt lat="10.3463848" lon="-85.8030632">
        <ele>32.7</ele>
        <time>2022-10-06T16:51:13Z</time>
      </trkpt>
      <trkpt lat="10.3463848" lon="-85.8030632">
        <ele>32.6</ele>
        <time>2022-10-06T16:51:14Z</time>
      </trkpt>
      <trkpt lat="10.3463848" lon="-85.8030632">
        <ele>32.6</ele>
        <time>2022-10-06T16:51:15Z</time>
      </trkpt>
      <trkpt lat="10.3463848" lon="-85.8030632">
        <ele>32.7</ele>
        <time>2022-10-06T16:51:16Z</time>
      </trkpt>
      <trkpt lat="10.3463848" lon="-85.8030632">
        <ele>32.6</ele>
        <time>2022-10-06T16:51:17Z</time>
      </trkpt>
      <trkpt lat="10.3463848" lon="-85.8030632">
        <ele>32.6</ele>
        <time>2022-10-06T16:51:18Z</time>
      </trkpt>
      <trkpt lat="10.3463848" lon="-85.8030632">
        <ele>32.6</ele>
        <time>2022-10-06T16:51:19Z</time>
      </trkpt>
      <trkpt lat="10.3463848" lon="-85.8030632">
        <ele>32.6</ele>
        <time>2022-10-06T16:51:20Z</time>
      </trkpt>
      <trkpt lat="10.3463848" lon="-85.8030632">
        <ele>32.6</ele>
        <time>2022-10-06T16:51:21Z</time>
      </trkpt>
      <trkpt lat="10.3463848" lon="-85.8030632">
        <ele>32.6</ele>
        <time>2022-10-06T16:51:22Z</time>
      </trkpt>
      <trkpt lat="10.3463848" lon="-85.8030632">
        <ele>32.6</ele>
        <time>2022-10-06T16:51:23Z</time>
      </trkpt>
      <trkpt lat="10.3463848" lon="-85.8030632">
        <ele>32.5</ele>
        <time>2022-10-06T16:51:24Z</time>
      </trkpt>
      <trkpt lat="10.3463848" lon="-85.8030632">
        <ele>32.5</ele>
        <time>2022-10-06T16:51:25Z</time>
      </trkpt>
      <trkpt lat="10.3463848" lon="-85.8030632">
        <ele>32.5</ele>
        <time>2022-10-06T16:51:26Z</time>
      </trkpt>
      <trkpt lat="10.3463848" lon="-85.8030632">
        <ele>32.5</ele>
        <time>2022-10-06T16:51:27Z</time>
      </trkpt>
      <trkpt lat="10.3463848" lon="-85.8030632">
        <ele>32.4</ele>
        <time>2022-10-06T16:51:28Z</time>
      </trkpt>
      <trkpt lat="10.3463848" lon="-85.8030632">
        <ele>32.4</ele>
        <time>2022-10-06T16:51:29Z</time>
      </trkpt>
      <trkpt lat="10.3463848" lon="-85.8030632">
        <ele>32.4</ele>
        <time>2022-10-06T16:51:30Z</time>
      </trkpt>
      <trkpt lat="10.3463848" lon="-85.8030632">
        <ele>32.4</ele>
        <time>2022-10-06T16:51:31Z</time>
      </trkpt>
      <trkpt lat="10.3463848" lon="-85.8030632">
        <ele>32.3</ele>
        <time>2022-10-06T16:51:32Z</time>
      </trkpt>
      <trkpt lat="10.3463848" lon="-85.8030632">
        <ele>32.3</ele>
        <time>2022-10-06T16:51:33Z</time>
      </trkpt>
      <trkpt lat="10.3463848" lon="-85.8030632">
        <ele>32.3</ele>
        <time>2022-10-06T16:51:34Z</time>
      </trkpt>
      <trkpt lat="10.3463848" lon="-85.8030632">
        <ele>32.3</ele>
        <time>2022-10-06T16:51:35Z</time>
      </trkpt>
      <trkpt lat="10.3463848" lon="-85.8030632">
        <ele>32.3</ele>
        <time>2022-10-06T16:51:36Z</time>
      </trkpt>
      <trkpt lat="10.3463848" lon="-85.8030632">
        <ele>32.3</ele>
        <time>2022-10-06T16:51:37Z</time>
      </trkpt>
      <trkpt lat="10.3463848" lon="-85.8030632">
        <ele>32.3</ele>
        <time>2022-10-06T16:51:38Z</time>
      </trkpt>
      <trkpt lat="10.3463848" lon="-85.8030632">
        <ele>32.4</ele>
        <time>2022-10-06T16:51:39Z</time>
      </trkpt>
      <trkpt lat="10.3463848" lon="-85.8030632">
        <ele>32.4</ele>
        <time>2022-10-06T16:51:40Z</time>
      </trkpt>
      <trkpt lat="10.3463848" lon="-85.8030632">
        <ele>32.4</ele>
        <time>2022-10-06T16:51:41Z</time>
      </trkpt>
      <trkpt lat="10.3463848" lon="-85.8030632">
        <ele>32.4</ele>
        <time>2022-10-06T16:51:42Z</time>
      </trkpt>
      <trkpt lat="10.3463848" lon="-85.8030632">
        <ele>32.4</ele>
        <time>2022-10-06T16:51:43Z</time>
      </trkpt>
      <trkpt lat="10.3463848" lon="-85.8030632">
        <ele>32.4</ele>
        <time>2022-10-06T16:51:44Z</time>
      </trkpt>
      <trkpt lat="10.3463848" lon="-85.8030632">
        <ele>32.3</ele>
        <time>2022-10-06T16:51:45Z</time>
      </trkpt>
      <trkpt lat="10.3463848" lon="-85.8030632">
        <ele>32.4</ele>
        <time>2022-10-06T16:51:46Z</time>
      </trkpt>
      <trkpt lat="10.3463848" lon="-85.8030632">
        <ele>32.4</ele>
        <time>2022-10-06T16:51:47Z</time>
      </trkpt>
      <trkpt lat="10.3463848" lon="-85.8030632">
        <ele>32.5</ele>
        <time>2022-10-06T16:51:48Z</time>
      </trkpt>
      <trkpt lat="10.3463848" lon="-85.8030632">
        <ele>32.5</ele>
        <time>2022-10-06T16:51:49Z</time>
      </trkpt>
      <trkpt lat="10.3463848" lon="-85.8030632">
        <ele>32.5</ele>
        <time>2022-10-06T16:51:50Z</time>
      </trkpt>
      <trkpt lat="10.3463848" lon="-85.8030632">
        <ele>32.5</ele>
        <time>2022-10-06T16:51:51Z</time>
      </trkpt>
      <trkpt lat="10.3463848" lon="-85.8030632">
        <ele>32.5</ele>
        <time>2022-10-06T16:51:52Z</time>
      </trkpt>
      <trkpt lat="10.3463848" lon="-85.8030632">
        <ele>32.6</ele>
        <time>2022-10-06T16:51:53Z</time>
      </trkpt>
      <trkpt lat="10.3463848" lon="-85.8030632">
        <ele>32.7</ele>
        <time>2022-10-06T16:51:54Z</time>
      </trkpt>
      <trkpt lat="10.3463848" lon="-85.8030632">
        <ele>32.7</ele>
        <time>2022-10-06T16:51:55Z</time>
      </trkpt>
      <trkpt lat="10.3463848" lon="-85.8030632">
        <ele>32.7</ele>
        <time>2022-10-06T16:51:56Z</time>
      </trkpt>
      <trkpt lat="10.3463848" lon="-85.8030632">
        <ele>32.7</ele>
        <time>2022-10-06T16:51:57Z</time>
      </trkpt>
      <trkpt lat="10.3463848" lon="-85.8030632">
        <ele>32.7</ele>
        <time>2022-10-06T16:51:58Z</time>
      </trkpt>
      <trkpt lat="10.3463848" lon="-85.8030632">
        <ele>32.6</ele>
        <time>2022-10-06T16:51:59Z</time>
      </trkpt>
      <trkpt lat="10.3463848" lon="-85.8030632">
        <ele>32.7</ele>
        <time>2022-10-06T16:52:00Z</time>
      </trkpt>
      <trkpt lat="10.3463848" lon="-85.8030632">
        <ele>32.7</ele>
        <time>2022-10-06T16:52:01Z</time>
      </trkpt>
      <trkpt lat="10.3463848" lon="-85.8030632">
        <ele>32.7</ele>
        <time>2022-10-06T16:52:02Z</time>
      </trkpt>
      <trkpt lat="10.3463848" lon="-85.8030632">
        <ele>32.7</ele>
        <time>2022-10-06T16:52:03Z</time>
      </trkpt>
      <trkpt lat="10.3463848" lon="-85.8030632">
        <ele>32.7</ele>
        <time>2022-10-06T16:52:04Z</time>
      </trkpt>
      <trkpt lat="10.3463848" lon="-85.8030632">
        <ele>32.7</ele>
        <time>2022-10-06T16:52:05Z</time>
      </trkpt>
      <trkpt lat="10.3463848" lon="-85.8030632">
        <ele>32.6</ele>
        <time>2022-10-06T16:52:06Z</time>
      </trkpt>
      <trkpt lat="10.3463848" lon="-85.8030632">
        <ele>32.6</ele>
        <time>2022-10-06T16:52:07Z</time>
      </trkpt>
      <trkpt lat="10.3463848" lon="-85.8030632">
        <ele>32.5</ele>
        <time>2022-10-06T16:52:08Z</time>
      </trkpt>
      <trkpt lat="10.3463848" lon="-85.8030632">
        <ele>32.5</ele>
        <time>2022-10-06T16:52:09Z</time>
      </trkpt>
      <trkpt lat="10.3463848" lon="-85.8030632">
        <ele>32.5</ele>
        <time>2022-10-06T16:52:10Z</time>
      </trkpt>
      <trkpt lat="10.3463848" lon="-85.8030632">
        <ele>32.6</ele>
        <time>2022-10-06T16:52:11Z</time>
      </trkpt>
      <trkpt lat="10.3463848" lon="-85.8030632">
        <ele>32.6</ele>
        <time>2022-10-06T16:52:12Z</time>
      </trkpt>
      <trkpt lat="10.3463848" lon="-85.8030632">
        <ele>32.5</ele>
        <time>2022-10-06T16:52:13Z</time>
      </trkpt>
      <trkpt lat="10.3463848" lon="-85.8030632">
        <ele>32.5</ele>
        <time>2022-10-06T16:52:14Z</time>
      </trkpt>
      <trkpt lat="10.3463848" lon="-85.8030632">
        <ele>32.4</ele>
        <time>2022-10-06T16:52:15Z</time>
      </trkpt>
      <trkpt lat="10.3463848" lon="-85.8030632">
        <ele>32.6</ele>
        <time>2022-10-06T16:52:16Z</time>
      </trkpt>
      <trkpt lat="10.3463848" lon="-85.8030632">
        <ele>32.6</ele>
        <time>2022-10-06T16:52:17Z</time>
      </trkpt>
      <trkpt lat="10.3463848" lon="-85.8030632">
        <ele>32.6</ele>
        <time>2022-10-06T16:52:18Z</time>
      </trkpt>
      <trkpt lat="10.3463848" lon="-85.8030632">
        <ele>32.6</ele>
        <time>2022-10-06T16:52:19Z</time>
      </trkpt>
      <trkpt lat="10.3463848" lon="-85.8030632">
        <ele>32.6</ele>
        <time>2022-10-06T16:52:20Z</time>
      </trkpt>
      <trkpt lat="10.3463848" lon="-85.8030632">
        <ele>32.7</ele>
        <time>2022-10-06T16:52:21Z</time>
      </trkpt>
      <trkpt lat="10.3463848" lon="-85.8030632">
        <ele>32.7</ele>
        <time>2022-10-06T16:52:22Z</time>
      </trkpt>
      <trkpt lat="10.3463848" lon="-85.8030632">
        <ele>32.7</ele>
        <time>2022-10-06T16:52:23Z</time>
      </trkpt>
      <trkpt lat="10.3463848" lon="-85.8030632">
        <ele>32.7</ele>
        <time>2022-10-06T16:52:24Z</time>
      </trkpt>
      <trkpt lat="10.3463848" lon="-85.8030632">
        <ele>32.7</ele>
        <time>2022-10-06T16:52:25Z</time>
      </trkpt>
      <trkpt lat="10.3463848" lon="-85.8030632">
        <ele>32.7</ele>
        <time>2022-10-06T16:52:26Z</time>
      </trkpt>
      <trkpt lat="10.3463848" lon="-85.8030632">
        <ele>32.6</ele>
        <time>2022-10-06T16:52:27Z</time>
      </trkpt>
      <trkpt lat="10.3463848" lon="-85.8030632">
        <ele>32.6</ele>
        <time>2022-10-06T16:52:28Z</time>
      </trkpt>
      <trkpt lat="10.3463848" lon="-85.8030632">
        <ele>32.6</ele>
        <time>2022-10-06T16:52:29Z</time>
      </trkpt>
      <trkpt lat="10.3463848" lon="-85.8030632">
        <ele>32.7</ele>
        <time>2022-10-06T16:52:30Z</time>
      </trkpt>
      <trkpt lat="10.3463848" lon="-85.8030632">
        <ele>32.7</ele>
        <time>2022-10-06T16:52:31Z</time>
      </trkpt>
      <trkpt lat="10.3463848" lon="-85.8030632">
        <ele>32.7</ele>
        <time>2022-10-06T16:52:32Z</time>
      </trkpt>
      <trkpt lat="10.3463848" lon="-85.8030632">
        <ele>32.7</ele>
        <time>2022-10-06T16:52:33Z</time>
      </trkpt>
      <trkpt lat="10.3463848" lon="-85.8030632">
        <ele>32.6</ele>
        <time>2022-10-06T16:52:34Z</time>
      </trkpt>
      <trkpt lat="10.3463848" lon="-85.8030632">
        <ele>32.6</ele>
        <time>2022-10-06T16:52:35Z</time>
      </trkpt>
      <trkpt lat="10.3463848" lon="-85.8030632">
        <ele>32.6</ele>
        <time>2022-10-06T16:52:36Z</time>
      </trkpt>
      <trkpt lat="10.3463848" lon="-85.8030632">
        <ele>32.7</ele>
        <time>2022-10-06T16:52:37Z</time>
      </trkpt>
      <trkpt lat="10.3463848" lon="-85.8030632">
        <ele>32.7</ele>
        <time>2022-10-06T16:52:38Z</time>
      </trkpt>
      <trkpt lat="10.3463848" lon="-85.8030632">
        <ele>32.7</ele>
        <time>2022-10-06T16:52:39Z</time>
      </trkpt>
      <trkpt lat="10.3463848" lon="-85.8030632">
        <ele>32.6</ele>
        <time>2022-10-06T16:52:40Z</time>
      </trkpt>
      <trkpt lat="10.3463848" lon="-85.8030632">
        <ele>32.5</ele>
        <time>2022-10-06T16:52:41Z</time>
      </trkpt>
      <trkpt lat="10.3463848" lon="-85.8030632">
        <ele>32.4</ele>
        <time>2022-10-06T16:52:42Z</time>
      </trkpt>
      <trkpt lat="10.3463848" lon="-85.8030632">
        <ele>32.4</ele>
        <time>2022-10-06T16:52:43Z</time>
      </trkpt>
      <trkpt lat="10.3463848" lon="-85.8030632">
        <ele>32.4</ele>
        <time>2022-10-06T16:52:44Z</time>
      </trkpt>
      <trkpt lat="10.3463848" lon="-85.8030632">
        <ele>32.3</ele>
        <time>2022-10-06T16:52:45Z</time>
      </trkpt>
      <trkpt lat="10.3463848" lon="-85.8030632">
        <ele>32.2</ele>
        <time>2022-10-06T16:52:46Z</time>
      </trkpt>
      <trkpt lat="10.3463848" lon="-85.8030632">
        <ele>32.2</ele>
        <time>2022-10-06T16:52:47Z</time>
      </trkpt>
      <trkpt lat="10.3463848" lon="-85.8030632">
        <ele>32.1</ele>
        <time>2022-10-06T16:52:48Z</time>
      </trkpt>
      <trkpt lat="10.3463848" lon="-85.8030632">
        <ele>32.2</ele>
        <time>2022-10-06T16:52:49Z</time>
      </trkpt>
      <trkpt lat="10.3463848" lon="-85.8030632">
        <ele>32.2</ele>
        <time>2022-10-06T16:52:50Z</time>
      </trkpt>
      <trkpt lat="10.3463848" lon="-85.8030632">
        <ele>32.3</ele>
        <time>2022-10-06T16:52:51Z</time>
      </trkpt>
      <trkpt lat="10.3463848" lon="-85.8030632">
        <ele>32.2</ele>
        <time>2022-10-06T16:52:52Z</time>
      </trkpt>
      <trkpt lat="10.3463848" lon="-85.8030632">
        <ele>32.2</ele>
        <time>2022-10-06T16:52:53Z</time>
      </trkpt>
      <trkpt lat="10.3463848" lon="-85.8030632">
        <ele>32.3</ele>
        <time>2022-10-06T16:52:54Z</time>
      </trkpt>
      <trkpt lat="10.3463848" lon="-85.8030632">
        <ele>32.3</ele>
        <time>2022-10-06T16:52:55Z</time>
      </trkpt>
      <trkpt lat="10.3463848" lon="-85.8030632">
        <ele>32.4</ele>
        <time>2022-10-06T16:52:56Z</time>
      </trkpt>
      <trkpt lat="10.3463848" lon="-85.8030632">
        <ele>32.4</ele>
        <time>2022-10-06T16:52:57Z</time>
      </trkpt>
      <trkpt lat="10.3463848" lon="-85.8030632">
        <ele>32.5</ele>
        <time>2022-10-06T16:52:58Z</time>
      </trkpt>
      <trkpt lat="10.3463848" lon="-85.8030632">
        <ele>32.5</ele>
        <time>2022-10-06T16:52:59Z</time>
      </trkpt>
      <trkpt lat="10.3463848" lon="-85.8030632">
        <ele>32.5</ele>
        <time>2022-10-06T16:53:00Z</time>
      </trkpt>
      <trkpt lat="10.3463848" lon="-85.8030632">
        <ele>32.6</ele>
        <time>2022-10-06T16:53:01Z</time>
      </trkpt>
      <trkpt lat="10.3463848" lon="-85.8030632">
        <ele>32.7</ele>
        <time>2022-10-06T16:53:02Z</time>
      </trkpt>
      <trkpt lat="10.3463848" lon="-85.8030632">
        <ele>32.7</ele>
        <time>2022-10-06T16:53:03Z</time>
      </trkpt>
      <trkpt lat="10.3463848" lon="-85.8030632">
        <ele>32.7</ele>
        <time>2022-10-06T16:53:04Z</time>
      </trkpt>
      <trkpt lat="10.3463848" lon="-85.8030632">
        <ele>32.8</ele>
        <time>2022-10-06T16:53:05Z</time>
      </trkpt>
      <trkpt lat="10.3463848" lon="-85.8030632">
        <ele>32.8</ele>
        <time>2022-10-06T16:53:06Z</time>
      </trkpt>
      <trkpt lat="10.3463848" lon="-85.8030632">
        <ele>32.9</ele>
        <time>2022-10-06T16:53:07Z</time>
      </trkpt>
      <trkpt lat="10.3463848" lon="-85.8030632">
        <ele>33.0</ele>
        <time>2022-10-06T16:53:08Z</time>
      </trkpt>
      <trkpt lat="10.3463848" lon="-85.8030632">
        <ele>33.0</ele>
        <time>2022-10-06T16:53:09Z</time>
      </trkpt>
      <trkpt lat="10.3463848" lon="-85.8030632">
        <ele>33.0</ele>
        <time>2022-10-06T16:53:10Z</time>
      </trkpt>
      <trkpt lat="10.3463848" lon="-85.8030632">
        <ele>33.1</ele>
        <time>2022-10-06T16:53:11Z</time>
      </trkpt>
      <trkpt lat="10.3463848" lon="-85.8030632">
        <ele>33.1</ele>
        <time>2022-10-06T16:53:12Z</time>
      </trkpt>
      <trkpt lat="10.3463848" lon="-85.8030632">
        <ele>33.1</ele>
        <time>2022-10-06T16:53:13Z</time>
      </trkpt>
      <trkpt lat="10.3463848" lon="-85.8030632">
        <ele>33.1</ele>
        <time>2022-10-06T16:53:14Z</time>
      </trkpt>
      <trkpt lat="10.3463848" lon="-85.8030632">
        <ele>33.0</ele>
        <time>2022-10-06T16:53:15Z</time>
      </trkpt>
      <trkpt lat="10.3463848" lon="-85.8030632">
        <ele>33.1</ele>
        <time>2022-10-06T16:53:16Z</time>
      </trkpt>
      <trkpt lat="10.3463848" lon="-85.8030632">
        <ele>33.1</ele>
        <time>2022-10-06T16:53:17Z</time>
      </trkpt>
      <trkpt lat="10.3463848" lon="-85.8030632">
        <ele>33.1</ele>
        <time>2022-10-06T16:53:18Z</time>
      </trkpt>
      <trkpt lat="10.3463848" lon="-85.8030632">
        <ele>33.1</ele>
        <time>2022-10-06T16:53:19Z</time>
      </trkpt>
      <trkpt lat="10.3463848" lon="-85.8030632">
        <ele>33.1</ele>
        <time>2022-10-06T16:53:20Z</time>
      </trkpt>
      <trkpt lat="10.3463848" lon="-85.8030632">
        <ele>33.1</ele>
        <time>2022-10-06T16:53:21Z</time>
      </trkpt>
      <trkpt lat="10.3463848" lon="-85.8030632">
        <ele>33.1</ele>
        <time>2022-10-06T16:53:22Z</time>
      </trkpt>
      <trkpt lat="10.3463848" lon="-85.8030632">
        <ele>33.2</ele>
        <time>2022-10-06T16:53:23Z</time>
      </trkpt>
      <trkpt lat="10.3463848" lon="-85.8030632">
        <ele>33.3</ele>
        <time>2022-10-06T16:53:24Z</time>
      </trkpt>
      <trkpt lat="10.3463848" lon="-85.8030632">
        <ele>33.3</ele>
        <time>2022-10-06T16:53:25Z</time>
      </trkpt>
      <trkpt lat="10.3463848" lon="-85.8030632">
        <ele>33.3</ele>
        <time>2022-10-06T16:53:26Z</time>
      </trkpt>
      <trkpt lat="10.3463848" lon="-85.8030632">
        <ele>33.3</ele>
        <time>2022-10-06T16:53:27Z</time>
      </trkpt>
      <trkpt lat="10.3463848" lon="-85.8030632">
        <ele>33.3</ele>
        <time>2022-10-06T16:53:28Z</time>
      </trkpt>
      <trkpt lat="10.3463848" lon="-85.8030632">
        <ele>33.3</ele>
        <time>2022-10-06T16:53:29Z</time>
      </trkpt>
      <trkpt lat="10.3463848" lon="-85.8030632">
        <ele>33.3</ele>
        <time>2022-10-06T16:53:30Z</time>
      </trkpt>
      <trkpt lat="10.3463848" lon="-85.8030632">
        <ele>33.3</ele>
        <time>2022-10-06T16:53:31Z</time>
      </trkpt>
      <trkpt lat="10.3463848" lon="-85.8030632">
        <ele>33.3</ele>
        <time>2022-10-06T16:53:32Z</time>
      </trkpt>
      <trkpt lat="10.3463848" lon="-85.8030632">
        <ele>33.3</ele>
        <time>2022-10-06T16:53:33Z</time>
      </trkpt>
      <trkpt lat="10.3463848" lon="-85.8030632">
        <ele>33.4</ele>
        <time>2022-10-06T16:53:34Z</time>
      </trkpt>
      <trkpt lat="10.3463848" lon="-85.8030632">
        <ele>33.5</ele>
        <time>2022-10-06T16:53:35Z</time>
      </trkpt>
      <trkpt lat="10.3463848" lon="-85.8030632">
        <ele>33.5</ele>
        <time>2022-10-06T16:53:36Z</time>
      </trkpt>
      <trkpt lat="10.3463848" lon="-85.8030632">
        <ele>33.6</ele>
        <time>2022-10-06T16:53:37Z</time>
      </trkpt>
      <trkpt lat="10.3463848" lon="-85.8030632">
        <ele>33.6</ele>
        <time>2022-10-06T16:53:38Z</time>
      </trkpt>
      <trkpt lat="10.3463848" lon="-85.8030632">
        <ele>33.6</ele>
        <time>2022-10-06T16:53:39Z</time>
      </trkpt>
      <trkpt lat="10.3463848" lon="-85.8030632">
        <ele>33.7</ele>
        <time>2022-10-06T16:53:40Z</time>
      </trkpt>
      <trkpt lat="10.3463848" lon="-85.8030632">
        <ele>33.7</ele>
        <time>2022-10-06T16:53:41Z</time>
      </trkpt>
      <trkpt lat="10.3463848" lon="-85.8030632">
        <ele>33.8</ele>
        <time>2022-10-06T16:53:42Z</time>
      </trkpt>
      <trkpt lat="10.3463848" lon="-85.8030632">
        <ele>33.8</ele>
        <time>2022-10-06T16:53:43Z</time>
      </trkpt>
      <trkpt lat="10.3463848" lon="-85.8030632">
        <ele>33.9</ele>
        <time>2022-10-06T16:53:44Z</time>
      </trkpt>
      <trkpt lat="10.3463848" lon="-85.8030632">
        <ele>33.8</ele>
        <time>2022-10-06T16:53:45Z</time>
      </trkpt>
      <trkpt lat="10.3463848" lon="-85.8030632">
        <ele>33.8</ele>
        <time>2022-10-06T16:53:46Z</time>
      </trkpt>
      <trkpt lat="10.3463848" lon="-85.8030632">
        <ele>33.8</ele>
        <time>2022-10-06T16:53:47Z</time>
      </trkpt>
      <trkpt lat="10.3463848" lon="-85.8030632">
        <ele>33.8</ele>
        <time>2022-10-06T16:53:48Z</time>
      </trkpt>
      <trkpt lat="10.3463848" lon="-85.8030632">
        <ele>33.9</ele>
        <time>2022-10-06T16:53:49Z</time>
      </trkpt>
      <trkpt lat="10.3463848" lon="-85.8030632">
        <ele>33.9</ele>
        <time>2022-10-06T16:53:50Z</time>
      </trkpt>
      <trkpt lat="10.3463848" lon="-85.8030632">
        <ele>34.0</ele>
        <time>2022-10-06T16:53:51Z</time>
      </trkpt>
      <trkpt lat="10.3463848" lon="-85.8030632">
        <ele>34.0</ele>
        <time>2022-10-06T16:53:52Z</time>
      </trkpt>
      <trkpt lat="10.3463848" lon="-85.8030632">
        <ele>34.0</ele>
        <time>2022-10-06T16:53:53Z</time>
      </trkpt>
      <trkpt lat="10.3463848" lon="-85.8030632">
        <ele>34.0</ele>
        <time>2022-10-06T16:53:54Z</time>
      </trkpt>
      <trkpt lat="10.3463848" lon="-85.8030632">
        <ele>34.0</ele>
        <time>2022-10-06T16:53:55Z</time>
      </trkpt>
      <trkpt lat="10.3463848" lon="-85.8030632">
        <ele>34.0</ele>
        <time>2022-10-06T16:53:56Z</time>
      </trkpt>
      <trkpt lat="10.3463848" lon="-85.8030632">
        <ele>34.0</ele>
        <time>2022-10-06T16:53:57Z</time>
      </trkpt>
      <trkpt lat="10.3463848" lon="-85.8030632">
        <ele>34.0</ele>
        <time>2022-10-06T16:53:58Z</time>
      </trkpt>
      <trkpt lat="10.3463848" lon="-85.8030632">
        <ele>34.0</ele>
        <time>2022-10-06T16:53:59Z</time>
      </trkpt>
      <trkpt lat="10.3463848" lon="-85.8030632">
        <ele>34.0</ele>
        <time>2022-10-06T16:54:00Z</time>
      </trkpt>
      <trkpt lat="10.3463848" lon="-85.8030632">
        <ele>34.0</ele>
        <time>2022-10-06T16:54:01Z</time>
      </trkpt>
      <trkpt lat="10.3463848" lon="-85.8030632">
        <ele>33.9</ele>
        <time>2022-10-06T16:54:02Z</time>
      </trkpt>
      <trkpt lat="10.3463848" lon="-85.8030632">
        <ele>33.9</ele>
        <time>2022-10-06T16:54:03Z</time>
      </trkpt>
      <trkpt lat="10.3463848" lon="-85.8030632">
        <ele>33.8</ele>
        <time>2022-10-06T16:54:04Z</time>
      </trkpt>
      <trkpt lat="10.3463848" lon="-85.8030632">
        <ele>33.8</ele>
        <time>2022-10-06T16:54:05Z</time>
      </trkpt>
      <trkpt lat="10.3463848" lon="-85.8030632">
        <ele>33.7</ele>
        <time>2022-10-06T16:54:06Z</time>
      </trkpt>
      <trkpt lat="10.3463848" lon="-85.8030632">
        <ele>33.7</ele>
        <time>2022-10-06T16:54:07Z</time>
      </trkpt>
      <trkpt lat="10.3463848" lon="-85.8030632">
        <ele>33.7</ele>
        <time>2022-10-06T16:54:08Z</time>
      </trkpt>
      <trkpt lat="10.3463848" lon="-85.8030632">
        <ele>33.8</ele>
        <time>2022-10-06T16:54:09Z</time>
      </trkpt>
      <trkpt lat="10.3463848" lon="-85.8030632">
        <ele>33.8</ele>
        <time>2022-10-06T16:54:10Z</time>
      </trkpt>
      <trkpt lat="10.3463848" lon="-85.8030632">
        <ele>33.8</ele>
        <time>2022-10-06T16:54:11Z</time>
      </trkpt>
      <trkpt lat="10.3463848" lon="-85.8030632">
        <ele>33.7</ele>
        <time>2022-10-06T16:54:12Z</time>
      </trkpt>
      <trkpt lat="10.3463848" lon="-85.8030632">
        <ele>33.8</ele>
        <time>2022-10-06T16:54:13Z</time>
      </trkpt>
      <trkpt lat="10.3463848" lon="-85.8030632">
        <ele>33.9</ele>
        <time>2022-10-06T16:54:14Z</time>
      </trkpt>
      <trkpt lat="10.3463848" lon="-85.8030632">
        <ele>34.0</ele>
        <time>2022-10-06T16:54:15Z</time>
      </trkpt>
      <trkpt lat="10.3463848" lon="-85.8030632">
        <ele>34.0</ele>
        <time>2022-10-06T16:54:16Z</time>
      </trkpt>
      <trkpt lat="10.3463848" lon="-85.8030632">
        <ele>34.0</ele>
        <time>2022-10-06T16:54:17Z</time>
      </trkpt>
      <trkpt lat="10.3463848" lon="-85.8030632">
        <ele>34.0</ele>
        <time>2022-10-06T16:54:18Z</time>
      </trkpt>
      <trkpt lat="10.3463848" lon="-85.8030632">
        <ele>33.9</ele>
        <time>2022-10-06T16:54:19Z</time>
      </trkpt>
      <trkpt lat="10.3463848" lon="-85.8030632">
        <ele>33.9</ele>
        <time>2022-10-06T16:54:20Z</time>
      </trkpt>
      <trkpt lat="10.3463848" lon="-85.8030632">
        <ele>33.9</ele>
        <time>2022-10-06T16:54:21Z</time>
      </trkpt>
      <trkpt lat="10.3463787" lon="-85.8030704">
        <ele>33.9</ele>
        <time>2022-10-06T16:54:22Z</time>
      </trkpt>
      <trkpt lat="10.3463826" lon="-85.8030789">
        <ele>33.9</ele>
        <time>2022-10-06T16:54:23Z</time>
      </trkpt>
      <trkpt lat="10.3463877" lon="-85.8030896">
        <ele>33.9</ele>
        <time>2022-10-06T16:54:24Z</time>
      </trkpt>
      <trkpt lat="10.3463948" lon="-85.8031035">
        <ele>33.8</ele>
        <time>2022-10-06T16:54:25Z</time>
      </trkpt>
      <trkpt lat="10.3464030" lon="-85.8031177">
        <ele>33.8</ele>
        <time>2022-10-06T16:54:26Z</time>
      </trkpt>
      <trkpt lat="10.3464122" lon="-85.8031336">
        <ele>33.5</ele>
        <time>2022-10-06T16:54:27Z</time>
      </trkpt>
      <trkpt lat="10.3464235" lon="-85.8031501">
        <ele>33.3</ele>
        <time>2022-10-06T16:54:28Z</time>
      </trkpt>
      <trkpt lat="10.3464361" lon="-85.8031678">
        <ele>33.2</ele>
        <time>2022-10-06T16:54:29Z</time>
      </trkpt>
      <trkpt lat="10.3464479" lon="-85.8031828">
        <ele>33.1</ele>
        <time>2022-10-06T16:54:30Z</time>
      </trkpt>
      <trkpt lat="10.3464567" lon="-85.8031967">
        <ele>33.1</ele>
        <time>2022-10-06T16:54:31Z</time>
      </trkpt>
      <trkpt lat="10.3464624" lon="-85.8032063">
        <ele>33.1</ele>
        <time>2022-10-06T16:54:32Z</time>
      </trkpt>
      <trkpt lat="10.3464686" lon="-85.8032127">
        <ele>32.8</ele>
        <time>2022-10-06T16:54:33Z</time>
      </trkpt>
      <trkpt lat="10.3464738" lon="-85.8032168">
        <ele>32.5</ele>
        <time>2022-10-06T16:54:34Z</time>
      </trkpt>
      <trkpt lat="10.3464778" lon="-85.8032211">
        <ele>32.4</ele>
        <time>2022-10-06T16:54:35Z</time>
      </trkpt>
      <trkpt lat="10.3464823" lon="-85.8032268">
        <ele>32.2</ele>
        <time>2022-10-06T16:54:36Z</time>
      </trkpt>
      <trkpt lat="10.3464911" lon="-85.8032359">
        <ele>32.0</ele>
        <time>2022-10-06T16:54:37Z</time>
      </trkpt>
      <trkpt lat="10.3465024" lon="-85.8032474">
        <ele>31.8</ele>
        <time>2022-10-06T16:54:38Z</time>
      </trkpt>
      <trkpt lat="10.3465132" lon="-85.8032631">
        <ele>31.9</ele>
        <time>2022-10-06T16:54:39Z</time>
      </trkpt>
      <trkpt lat="10.3465275" lon="-85.8032832">
        <ele>31.9</ele>
        <time>2022-10-06T16:54:40Z</time>
      </trkpt>
      <trkpt lat="10.3465440" lon="-85.8033041">
        <ele>32.0</ele>
        <time>2022-10-06T16:54:41Z</time>
      </trkpt>
      <trkpt lat="10.3465604" lon="-85.8033247">
        <ele>32.6</ele>
        <time>2022-10-06T16:54:42Z</time>
      </trkpt>
      <trkpt lat="10.3465769" lon="-85.8033445">
        <ele>32.4</ele>
        <time>2022-10-06T16:54:43Z</time>
      </trkpt>
      <trkpt lat="10.3466033" lon="-85.8033672">
        <ele>32.5</ele>
        <time>2022-10-06T16:54:44Z</time>
      </trkpt>
      <trkpt lat="10.3466341" lon="-85.8033919">
        <ele>32.4</ele>
        <time>2022-10-06T16:54:45Z</time>
      </trkpt>
      <trkpt lat="10.3466660" lon="-85.8034164">
        <ele>32.7</ele>
        <time>2022-10-06T16:54:46Z</time>
      </trkpt>
      <trkpt lat="10.3467048" lon="-85.8034418">
        <ele>32.7</ele>
        <time>2022-10-06T16:54:47Z</time>
      </trkpt>
      <trkpt lat="10.3467454" lon="-85.8034692">
        <ele>32.7</ele>
        <time>2022-10-06T16:54:48Z</time>
      </trkpt>
      <trkpt lat="10.3467851" lon="-85.8034983">
        <ele>32.9</ele>
        <time>2022-10-06T16:54:49Z</time>
      </trkpt>
      <trkpt lat="10.3468252" lon="-85.8035281">
        <ele>33.1</ele>
        <time>2022-10-06T16:54:50Z</time>
      </trkpt>
      <trkpt lat="10.3468709" lon="-85.8035588">
        <ele>33.2</ele>
        <time>2022-10-06T16:54:51Z</time>
      </trkpt>
      <trkpt lat="10.3469180" lon="-85.8035903">
        <ele>33.3</ele>
        <time>2022-10-06T16:54:52Z</time>
      </trkpt>
      <trkpt lat="10.3469697" lon="-85.8036220">
        <ele>33.4</ele>
        <time>2022-10-06T16:54:53Z</time>
      </trkpt>
      <trkpt lat="10.3470236" lon="-85.8036562">
        <ele>33.5</ele>
        <time>2022-10-06T16:54:54Z</time>
      </trkpt>
      <trkpt lat="10.3470796" lon="-85.8036922">
        <ele>33.7</ele>
        <time>2022-10-06T16:54:55Z</time>
      </trkpt>
      <trkpt lat="10.3471384" lon="-85.8037282">
        <ele>33.8</ele>
        <time>2022-10-06T16:54:56Z</time>
      </trkpt>
      <trkpt lat="10.3472006" lon="-85.8037646">
        <ele>33.8</ele>
        <time>2022-10-06T16:54:57Z</time>
      </trkpt>
      <trkpt lat="10.3472654" lon="-85.8038030">
        <ele>33.8</ele>
        <time>2022-10-06T16:54:58Z</time>
      </trkpt>
      <trkpt lat="10.3473289" lon="-85.8038412">
        <ele>34.0</ele>
        <time>2022-10-06T16:54:59Z</time>
      </trkpt>
      <trkpt lat="10.3473967" lon="-85.8038811">
        <ele>34.1</ele>
        <time>2022-10-06T16:55:00Z</time>
      </trkpt>
      <trkpt lat="10.3474639" lon="-85.8039208">
        <ele>34.2</ele>
        <time>2022-10-06T16:55:01Z</time>
      </trkpt>
      <trkpt lat="10.3475344" lon="-85.8039649">
        <ele>34.3</ele>
        <time>2022-10-06T16:55:02Z</time>
      </trkpt>
      <trkpt lat="10.3476062" lon="-85.8040086">
        <ele>34.4</ele>
        <time>2022-10-06T16:55:03Z</time>
      </trkpt>
      <trkpt lat="10.3476770" lon="-85.8040510">
        <ele>34.5</ele>
        <time>2022-10-06T16:55:04Z</time>
      </trkpt>
      <trkpt lat="10.3477496" lon="-85.8040946">
        <ele>34.8</ele>
        <time>2022-10-06T16:55:05Z</time>
      </trkpt>
      <trkpt lat="10.3478193" lon="-85.8041357">
        <ele>35.1</ele>
        <time>2022-10-06T16:55:06Z</time>
      </trkpt>
      <trkpt lat="10.3478899" lon="-85.8041729">
        <ele>35.5</ele>
        <time>2022-10-06T16:55:07Z</time>
      </trkpt>
      <trkpt lat="10.3479609" lon="-85.8042032">
        <ele>35.8</ele>
        <time>2022-10-06T16:55:08Z</time>
      </trkpt>
      <trkpt lat="10.3480336" lon="-85.8042270">
        <ele>35.9</ele>
        <time>2022-10-06T16:55:09Z</time>
      </trkpt>
      <trkpt lat="10.3481095" lon="-85.8042463">
        <ele>35.9</ele>
        <time>2022-10-06T16:55:10Z</time>
      </trkpt>
      <trkpt lat="10.3481830" lon="-85.8042665">
        <ele>35.7</ele>
        <time>2022-10-06T16:55:11Z</time>
      </trkpt>
      <trkpt lat="10.3482600" lon="-85.8042818">
        <ele>35.4</ele>
        <time>2022-10-06T16:55:12Z</time>
      </trkpt>
      <trkpt lat="10.3483448" lon="-85.8043034">
        <ele>35.3</ele>
        <time>2022-10-06T16:55:13Z</time>
      </trkpt>
      <trkpt lat="10.3484477" lon="-85.8043162">
        <ele>35.3</ele>
        <time>2022-10-06T16:55:14Z</time>
      </trkpt>
      <trkpt lat="10.3485449" lon="-85.8043287">
        <ele>35.1</ele>
        <time>2022-10-06T16:55:15Z</time>
      </trkpt>
      <trkpt lat="10.3486439" lon="-85.8043410">
        <ele>34.9</ele>
        <time>2022-10-06T16:55:16Z</time>
      </trkpt>
      <trkpt lat="10.3487430" lon="-85.8043524">
        <ele>34.7</ele>
        <time>2022-10-06T16:55:17Z</time>
      </trkpt>
      <trkpt lat="10.3488431" lon="-85.8043575">
        <ele>34.7</ele>
        <time>2022-10-06T16:55:18Z</time>
      </trkpt>
      <trkpt lat="10.3489437" lon="-85.8043645">
        <ele>34.7</ele>
        <time>2022-10-06T16:55:19Z</time>
      </trkpt>
      <trkpt lat="10.3490439" lon="-85.8043720">
        <ele>34.7</ele>
        <time>2022-10-06T16:55:20Z</time>
      </trkpt>
      <trkpt lat="10.3491339" lon="-85.8043817">
        <ele>34.8</ele>
        <time>2022-10-06T16:55:21Z</time>
      </trkpt>
      <trkpt lat="10.3492159" lon="-85.8043909">
        <ele>34.8</ele>
        <time>2022-10-06T16:55:22Z</time>
      </trkpt>
      <trkpt lat="10.3492989" lon="-85.8043996">
        <ele>34.6</ele>
        <time>2022-10-06T16:55:23Z</time>
      </trkpt>
      <trkpt lat="10.3493815" lon="-85.8044079">
        <ele>34.4</ele>
        <time>2022-10-06T16:55:24Z</time>
      </trkpt>
      <trkpt lat="10.3494627" lon="-85.8044190">
        <ele>34.5</ele>
        <time>2022-10-06T16:55:25Z</time>
      </trkpt>
      <trkpt lat="10.3495410" lon="-85.8044385">
        <ele>34.5</ele>
        <time>2022-10-06T16:55:26Z</time>
      </trkpt>
      <trkpt lat="10.3496184" lon="-85.8044576">
        <ele>34.8</ele>
        <time>2022-10-06T16:55:27Z</time>
      </trkpt>
      <trkpt lat="10.3496934" lon="-85.8044909">
        <ele>34.7</ele>
        <time>2022-10-06T16:55:28Z</time>
      </trkpt>
      <trkpt lat="10.3497676" lon="-85.8045281">
        <ele>34.6</ele>
        <time>2022-10-06T16:55:29Z</time>
      </trkpt>
      <trkpt lat="10.3498423" lon="-85.8045680">
        <ele>34.4</ele>
        <time>2022-10-06T16:55:30Z</time>
      </trkpt>
      <trkpt lat="10.3499076" lon="-85.8046016">
        <ele>34.4</ele>
        <time>2022-10-06T16:55:31Z</time>
      </trkpt>
      <trkpt lat="10.3499601" lon="-85.8046277">
        <ele>34.3</ele>
        <time>2022-10-06T16:55:32Z</time>
      </trkpt>
      <trkpt lat="10.3500118" lon="-85.8046511">
        <ele>34.2</ele>
        <time>2022-10-06T16:55:33Z</time>
      </trkpt>
      <trkpt lat="10.3500618" lon="-85.8046768">
        <ele>34.2</ele>
        <time>2022-10-06T16:55:34Z</time>
      </trkpt>
      <trkpt lat="10.3501115" lon="-85.8047041">
        <ele>34.3</ele>
        <time>2022-10-06T16:55:35Z</time>
      </trkpt>
      <trkpt lat="10.3501619" lon="-85.8047318">
        <ele>34.4</ele>
        <time>2022-10-06T16:55:36Z</time>
      </trkpt>
      <trkpt lat="10.3502125" lon="-85.8047620">
        <ele>34.6</ele>
        <time>2022-10-06T16:55:37Z</time>
      </trkpt>
      <trkpt lat="10.3502631" lon="-85.8047927">
        <ele>34.4</ele>
        <time>2022-10-06T16:55:38Z</time>
      </trkpt>
      <trkpt lat="10.3503157" lon="-85.8048258">
        <ele>34.3</ele>
        <time>2022-10-06T16:55:39Z</time>
      </trkpt>
      <trkpt lat="10.3503687" lon="-85.8048592">
        <ele>34.2</ele>
        <time>2022-10-06T16:55:40Z</time>
      </trkpt>
      <trkpt lat="10.3504304" lon="-85.8048918">
        <ele>34.4</ele>
        <time>2022-10-06T16:55:41Z</time>
      </trkpt>
      <trkpt lat="10.3504984" lon="-85.8049259">
        <ele>34.3</ele>
        <time>2022-10-06T16:55:42Z</time>
      </trkpt>
      <trkpt lat="10.3505686" lon="-85.8049606">
        <ele>34.3</ele>
        <time>2022-10-06T16:55:43Z</time>
      </trkpt>
      <trkpt lat="10.3506392" lon="-85.8049960">
        <ele>34.2</ele>
        <time>2022-10-06T16:55:44Z</time>
      </trkpt>
      <trkpt lat="10.3507127" lon="-85.8050281">
        <ele>34.2</ele>
        <time>2022-10-06T16:55:45Z</time>
      </trkpt>
      <trkpt lat="10.3507875" lon="-85.8050619">
        <ele>34.2</ele>
        <time>2022-10-06T16:55:46Z</time>
      </trkpt>
      <trkpt lat="10.3508627" lon="-85.8050951">
        <ele>34.2</ele>
        <time>2022-10-06T16:55:47Z</time>
      </trkpt>
      <trkpt lat="10.3509408" lon="-85.8051288">
        <ele>34.3</ele>
        <time>2022-10-06T16:55:48Z</time>
      </trkpt>
      <trkpt lat="10.3510214" lon="-85.8051627">
        <ele>34.4</ele>
        <time>2022-10-06T16:55:49Z</time>
      </trkpt>
      <trkpt lat="10.3511021" lon="-85.8051981">
        <ele>34.4</ele>
        <time>2022-10-06T16:55:50Z</time>
      </trkpt>
      <trkpt lat="10.3511847" lon="-85.8052331">
        <ele>34.5</ele>
        <time>2022-10-06T16:55:51Z</time>
      </trkpt>
      <trkpt lat="10.3512679" lon="-85.8052689">
        <ele>34.6</ele>
        <time>2022-10-06T16:55:52Z</time>
      </trkpt>
      <trkpt lat="10.3513535" lon="-85.8053038">
        <ele>34.6</ele>
        <time>2022-10-06T16:55:53Z</time>
      </trkpt>
      <trkpt lat="10.3514390" lon="-85.8053372">
        <ele>34.6</ele>
        <time>2022-10-06T16:55:54Z</time>
      </trkpt>
      <trkpt lat="10.3515187" lon="-85.8053694">
        <ele>34.5</ele>
        <time>2022-10-06T16:55:55Z</time>
      </trkpt>
      <trkpt lat="10.3515905" lon="-85.8053984">
        <ele>34.6</ele>
        <time>2022-10-06T16:55:56Z</time>
      </trkpt>
      <trkpt lat="10.3516571" lon="-85.8054253">
        <ele>34.9</ele>
        <time>2022-10-06T16:55:57Z</time>
      </trkpt>
      <trkpt lat="10.3517214" lon="-85.8054548">
        <ele>35.1</ele>
        <time>2022-10-06T16:55:58Z</time>
      </trkpt>
      <trkpt lat="10.3517869" lon="-85.8054848">
        <ele>35.1</ele>
        <time>2022-10-06T16:55:59Z</time>
      </trkpt>
      <trkpt lat="10.3518532" lon="-85.8055149">
        <ele>35.1</ele>
        <time>2022-10-06T16:56:00Z</time>
      </trkpt>
      <trkpt lat="10.3519215" lon="-85.8055435">
        <ele>35.0</ele>
        <time>2022-10-06T16:56:01Z</time>
      </trkpt>
      <trkpt lat="10.3519904" lon="-85.8055738">
        <ele>35.1</ele>
        <time>2022-10-06T16:56:02Z</time>
      </trkpt>
      <trkpt lat="10.3520610" lon="-85.8056069">
        <ele>35.2</ele>
        <time>2022-10-06T16:56:03Z</time>
      </trkpt>
      <trkpt lat="10.3521305" lon="-85.8056389">
        <ele>35.5</ele>
        <time>2022-10-06T16:56:04Z</time>
      </trkpt>
      <trkpt lat="10.3521992" lon="-85.8056708">
        <ele>35.6</ele>
        <time>2022-10-06T16:56:05Z</time>
      </trkpt>
      <trkpt lat="10.3522650" lon="-85.8057023">
        <ele>35.7</ele>
        <time>2022-10-06T16:56:06Z</time>
      </trkpt>
      <trkpt lat="10.3523267" lon="-85.8057333">
        <ele>35.8</ele>
        <time>2022-10-06T16:56:07Z</time>
      </trkpt>
      <trkpt lat="10.3523868" lon="-85.8057618">
        <ele>35.7</ele>
        <time>2022-10-06T16:56:08Z</time>
      </trkpt>
      <trkpt lat="10.3524504" lon="-85.8057912">
        <ele>35.8</ele>
        <time>2022-10-06T16:56:09Z</time>
      </trkpt>
      <trkpt lat="10.3525121" lon="-85.8058193">
        <ele>35.8</ele>
        <time>2022-10-06T16:56:10Z</time>
      </trkpt>
      <trkpt lat="10.3525765" lon="-85.8058455">
        <ele>35.9</ele>
        <time>2022-10-06T16:56:11Z</time>
      </trkpt>
      <trkpt lat="10.3526435" lon="-85.8058697">
        <ele>36.0</ele>
        <time>2022-10-06T16:56:12Z</time>
      </trkpt>
      <trkpt lat="10.3527136" lon="-85.8058848">
        <ele>36.0</ele>
        <time>2022-10-06T16:56:13Z</time>
      </trkpt>
      <trkpt lat="10.3527844" lon="-85.8058912">
        <ele>36.3</ele>
        <time>2022-10-06T16:56:14Z</time>
      </trkpt>
      <trkpt lat="10.3528525" lon="-85.8058944">
        <ele>36.5</ele>
        <time>2022-10-06T16:56:15Z</time>
      </trkpt>
      <trkpt lat="10.3529181" lon="-85.8058948">
        <ele>36.6</ele>
        <time>2022-10-06T16:56:16Z</time>
      </trkpt>
      <trkpt lat="10.3529797" lon="-85.8058916">
        <ele>36.7</ele>
        <time>2022-10-06T16:56:17Z</time>
      </trkpt>
      <trkpt lat="10.3530392" lon="-85.8058837">
        <ele>37.0</ele>
        <time>2022-10-06T16:56:18Z</time>
      </trkpt>
      <trkpt lat="10.3530954" lon="-85.8058713">
        <ele>37.1</ele>
        <time>2022-10-06T16:56:19Z</time>
      </trkpt>
      <trkpt lat="10.3531543" lon="-85.8058575">
        <ele>37.1</ele>
        <time>2022-10-06T16:56:20Z</time>
      </trkpt>
      <trkpt lat="10.3532143" lon="-85.8058449">
        <ele>37.0</ele>
        <time>2022-10-06T16:56:21Z</time>
      </trkpt>
      <trkpt lat="10.3532765" lon="-85.8058331">
        <ele>36.8</ele>
        <time>2022-10-06T16:56:22Z</time>
      </trkpt>
      <trkpt lat="10.3533428" lon="-85.8058193">
        <ele>36.7</ele>
        <time>2022-10-06T16:56:23Z</time>
      </trkpt>
      <trkpt lat="10.3534137" lon="-85.8058067">
        <ele>36.5</ele>
        <time>2022-10-06T16:56:24Z</time>
      </trkpt>
      <trkpt lat="10.3534881" lon="-85.8057919">
        <ele>36.6</ele>
        <time>2022-10-06T16:56:25Z</time>
      </trkpt>
      <trkpt lat="10.3535675" lon="-85.8057786">
        <ele>36.3</ele>
        <time>2022-10-06T16:56:26Z</time>
      </trkpt>
      <trkpt lat="10.3536485" lon="-85.8057657">
        <ele>36.1</ele>
        <time>2022-10-06T16:56:27Z</time>
      </trkpt>
      <trkpt lat="10.3537311" lon="-85.8057521">
        <ele>35.9</ele>
        <time>2022-10-06T16:56:28Z</time>
      </trkpt>
      <trkpt lat="10.3538132" lon="-85.8057397">
        <ele>35.7</ele>
        <time>2022-10-06T16:56:29Z</time>
      </trkpt>
      <trkpt lat="10.3538965" lon="-85.8057267">
        <ele>35.5</ele>
        <time>2022-10-06T16:56:30Z</time>
      </trkpt>
      <trkpt lat="10.3539786" lon="-85.8057136">
        <ele>35.5</ele>
        <time>2022-10-06T16:56:31Z</time>
      </trkpt>
      <trkpt lat="10.3540506" lon="-85.8057022">
        <ele>35.3</ele>
        <time>2022-10-06T16:56:32Z</time>
      </trkpt>
      <trkpt lat="10.3541171" lon="-85.8056959">
        <ele>35.3</ele>
        <time>2022-10-06T16:56:33Z</time>
      </trkpt>
      <trkpt lat="10.3541787" lon="-85.8056950">
        <ele>35.2</ele>
        <time>2022-10-06T16:56:34Z</time>
      </trkpt>
      <trkpt lat="10.3542386" lon="-85.8056900">
        <ele>35.0</ele>
        <time>2022-10-06T16:56:35Z</time>
      </trkpt>
      <trkpt lat="10.3543015" lon="-85.8056834">
        <ele>34.9</ele>
        <time>2022-10-06T16:56:36Z</time>
      </trkpt>
      <trkpt lat="10.3543641" lon="-85.8056757">
        <ele>34.9</ele>
        <time>2022-10-06T16:56:37Z</time>
      </trkpt>
      <trkpt lat="10.3544207" lon="-85.8056708">
        <ele>34.9</ele>
        <time>2022-10-06T16:56:38Z</time>
      </trkpt>
      <trkpt lat="10.3544735" lon="-85.8056703">
        <ele>34.8</ele>
        <time>2022-10-06T16:56:39Z</time>
      </trkpt>
      <trkpt lat="10.3545263" lon="-85.8056729">
        <ele>34.7</ele>
        <time>2022-10-06T16:56:40Z</time>
      </trkpt>
      <trkpt lat="10.3545736" lon="-85.8056760">
        <ele>34.7</ele>
        <time>2022-10-06T16:56:41Z</time>
      </trkpt>
      <trkpt lat="10.3546095" lon="-85.8056770">
        <ele>34.6</ele>
        <time>2022-10-06T16:56:42Z</time>
      </trkpt>
      <trkpt lat="10.3546442" lon="-85.8056802">
        <ele>34.8</ele>
        <time>2022-10-06T16:56:43Z</time>
      </trkpt>
      <trkpt lat="10.3546816" lon="-85.8056845">
        <ele>34.7</ele>
        <time>2022-10-06T16:56:44Z</time>
      </trkpt>
      <trkpt lat="10.3547253" lon="-85.8056896">
        <ele>34.7</ele>
        <time>2022-10-06T16:56:45Z</time>
      </trkpt>
      <trkpt lat="10.3547672" lon="-85.8056984">
        <ele>34.8</ele>
        <time>2022-10-06T16:56:46Z</time>
      </trkpt>
      <trkpt lat="10.3548021" lon="-85.8057100">
        <ele>34.6</ele>
        <time>2022-10-06T16:56:47Z</time>
      </trkpt>
      <trkpt lat="10.3548361" lon="-85.8057242">
        <ele>34.7</ele>
        <time>2022-10-06T16:56:48Z</time>
      </trkpt>
      <trkpt lat="10.3548763" lon="-85.8057413">
        <ele>34.7</ele>
        <time>2022-10-06T16:56:49Z</time>
      </trkpt>
      <trkpt lat="10.3549157" lon="-85.8057559">
        <ele>34.5</ele>
        <time>2022-10-06T16:56:50Z</time>
      </trkpt>
      <trkpt lat="10.3549560" lon="-85.8057703">
        <ele>34.1</ele>
        <time>2022-10-06T16:56:51Z</time>
      </trkpt>
      <trkpt lat="10.3549976" lon="-85.8057885">
        <ele>34.0</ele>
        <time>2022-10-06T16:56:52Z</time>
      </trkpt>
      <trkpt lat="10.3550401" lon="-85.8058086">
        <ele>34.0</ele>
        <time>2022-10-06T16:56:53Z</time>
      </trkpt>
      <trkpt lat="10.3550834" lon="-85.8058320">
        <ele>34.0</ele>
        <time>2022-10-06T16:56:54Z</time>
      </trkpt>
      <trkpt lat="10.3551294" lon="-85.8058557">
        <ele>34.0</ele>
        <time>2022-10-06T16:56:55Z</time>
      </trkpt>
      <trkpt lat="10.3551763" lon="-85.8058796">
        <ele>34.2</ele>
        <time>2022-10-06T16:56:56Z</time>
      </trkpt>
      <trkpt lat="10.3552271" lon="-85.8059034">
        <ele>33.8</ele>
        <time>2022-10-06T16:56:57Z</time>
      </trkpt>
      <trkpt lat="10.3552783" lon="-85.8059278">
        <ele>33.8</ele>
        <time>2022-10-06T16:56:58Z</time>
      </trkpt>
      <trkpt lat="10.3553318" lon="-85.8059547">
        <ele>33.8</ele>
        <time>2022-10-06T16:56:59Z</time>
      </trkpt>
      <trkpt lat="10.3553820" lon="-85.8059828">
        <ele>33.7</ele>
        <time>2022-10-06T16:57:00Z</time>
      </trkpt>
      <trkpt lat="10.3554271" lon="-85.8060094">
        <ele>33.9</ele>
        <time>2022-10-06T16:57:01Z</time>
      </trkpt>
      <trkpt lat="10.3554728" lon="-85.8060330">
        <ele>33.8</ele>
        <time>2022-10-06T16:57:02Z</time>
      </trkpt>
      <trkpt lat="10.3555239" lon="-85.8060551">
        <ele>34.0</ele>
        <time>2022-10-06T16:57:03Z</time>
      </trkpt>
      <trkpt lat="10.3555782" lon="-85.8060763">
        <ele>34.0</ele>
        <time>2022-10-06T16:57:04Z</time>
      </trkpt>
      <trkpt lat="10.3556375" lon="-85.8061000">
        <ele>34.2</ele>
        <time>2022-10-06T16:57:05Z</time>
      </trkpt>
      <trkpt lat="10.3556964" lon="-85.8061284">
        <ele>34.3</ele>
        <time>2022-10-06T16:57:06Z</time>
      </trkpt>
      <trkpt lat="10.3557575" lon="-85.8061571">
        <ele>34.3</ele>
        <time>2022-10-06T16:57:07Z</time>
      </trkpt>
      <trkpt lat="10.3558183" lon="-85.8061837">
        <ele>34.2</ele>
        <time>2022-10-06T16:57:08Z</time>
      </trkpt>
      <trkpt lat="10.3558768" lon="-85.8062100">
        <ele>34.3</ele>
        <time>2022-10-06T16:57:09Z</time>
      </trkpt>
      <trkpt lat="10.3559354" lon="-85.8062414">
        <ele>33.7</ele>
        <time>2022-10-06T16:57:10Z</time>
      </trkpt>
      <trkpt lat="10.3559906" lon="-85.8062715">
        <ele>33.8</ele>
        <time>2022-10-06T16:57:11Z</time>
      </trkpt>
      <trkpt lat="10.3560420" lon="-85.8063006">
        <ele>34.0</ele>
        <time>2022-10-06T16:57:12Z</time>
      </trkpt>
      <trkpt lat="10.3560931" lon="-85.8063283">
        <ele>34.1</ele>
        <time>2022-10-06T16:57:13Z</time>
      </trkpt>
      <trkpt lat="10.3561424" lon="-85.8063524">
        <ele>34.0</ele>
        <time>2022-10-06T16:57:14Z</time>
      </trkpt>
      <trkpt lat="10.3561825" lon="-85.8063733">
        <ele>34.1</ele>
        <time>2022-10-06T16:57:15Z</time>
      </trkpt>
      <trkpt lat="10.3562219" lon="-85.8063954">
        <ele>34.1</ele>
        <time>2022-10-06T16:57:16Z</time>
      </trkpt>
      <trkpt lat="10.3562497" lon="-85.8064157">
        <ele>34.0</ele>
        <time>2022-10-06T16:57:17Z</time>
      </trkpt>
      <trkpt lat="10.3562690" lon="-85.8064311">
        <ele>34.0</ele>
        <time>2022-10-06T16:57:18Z</time>
      </trkpt>
      <trkpt lat="10.3562828" lon="-85.8064393">
        <ele>34.1</ele>
        <time>2022-10-06T16:57:19Z</time>
      </trkpt>
      <trkpt lat="10.3562904" lon="-85.8064454">
        <ele>34.1</ele>
        <time>2022-10-06T16:57:20Z</time>
      </trkpt>
      <trkpt lat="10.3562964" lon="-85.8064515">
        <ele>34.1</ele>
        <time>2022-10-06T16:57:21Z</time>
      </trkpt>
      <trkpt lat="10.3562989" lon="-85.8064551">
        <ele>34.1</ele>
        <time>2022-10-06T16:57:22Z</time>
      </trkpt>
      <trkpt lat="10.3563100" lon="-85.8064613">
        <ele>34.2</ele>
        <time>2022-10-06T16:57:23Z</time>
      </trkpt>
      <trkpt lat="10.3563261" lon="-85.8064709">
        <ele>34.2</ele>
        <time>2022-10-06T16:57:24Z</time>
      </trkpt>
      <trkpt lat="10.3563493" lon="-85.8064842">
        <ele>34.3</ele>
        <time>2022-10-06T16:57:25Z</time>
      </trkpt>
      <trkpt lat="10.3563774" lon="-85.8064986">
        <ele>34.3</ele>
        <time>2022-10-06T16:57:26Z</time>
      </trkpt>
      <trkpt lat="10.3564133" lon="-85.8065158">
        <ele>34.3</ele>
        <time>2022-10-06T16:57:27Z</time>
      </trkpt>
      <trkpt lat="10.3564547" lon="-85.8065361">
        <ele>34.3</ele>
        <time>2022-10-06T16:57:28Z</time>
      </trkpt>
      <trkpt lat="10.3564986" lon="-85.8065566">
        <ele>34.4</ele>
        <time>2022-10-06T16:57:29Z</time>
      </trkpt>
      <trkpt lat="10.3565422" lon="-85.8065753">
        <ele>34.5</ele>
        <time>2022-10-06T16:57:30Z</time>
      </trkpt>
      <trkpt lat="10.3565893" lon="-85.8065938">
        <ele>35.1</ele>
        <time>2022-10-06T16:57:31Z</time>
      </trkpt>
      <trkpt lat="10.3566346" lon="-85.8066119">
        <ele>35.2</ele>
        <time>2022-10-06T16:57:32Z</time>
      </trkpt>
      <trkpt lat="10.3566810" lon="-85.8066322">
        <ele>35.1</ele>
        <time>2022-10-06T16:57:33Z</time>
      </trkpt>
      <trkpt lat="10.3567279" lon="-85.8066530">
        <ele>35.0</ele>
        <time>2022-10-06T16:57:34Z</time>
      </trkpt>
      <trkpt lat="10.3567756" lon="-85.8066731">
        <ele>34.7</ele>
        <time>2022-10-06T16:57:35Z</time>
      </trkpt>
      <trkpt lat="10.3568238" lon="-85.8066913">
        <ele>35.0</ele>
        <time>2022-10-06T16:57:36Z</time>
      </trkpt>
      <trkpt lat="10.3568712" lon="-85.8067135">
        <ele>35.1</ele>
        <time>2022-10-06T16:57:37Z</time>
      </trkpt>
      <trkpt lat="10.3569178" lon="-85.8067406">
        <ele>35.7</ele>
        <time>2022-10-06T16:57:38Z</time>
      </trkpt>
      <trkpt lat="10.3569644" lon="-85.8067709">
        <ele>36.1</ele>
        <time>2022-10-06T16:57:39Z</time>
      </trkpt>
      <trkpt lat="10.3570115" lon="-85.8067996">
        <ele>35.7</ele>
        <time>2022-10-06T16:57:40Z</time>
      </trkpt>
      <trkpt lat="10.3570569" lon="-85.8068294">
        <ele>35.5</ele>
        <time>2022-10-06T16:57:41Z</time>
      </trkpt>
      <trkpt lat="10.3571033" lon="-85.8068581">
        <ele>35.7</ele>
        <time>2022-10-06T16:57:42Z</time>
      </trkpt>
      <trkpt lat="10.3571491" lon="-85.8068894">
        <ele>35.7</ele>
        <time>2022-10-06T16:57:43Z</time>
      </trkpt>
      <trkpt lat="10.3572035" lon="-85.8069276">
        <ele>35.2</ele>
        <time>2022-10-06T16:57:44Z</time>
      </trkpt>
      <trkpt lat="10.3572589" lon="-85.8069632">
        <ele>35.3</ele>
        <time>2022-10-06T16:57:45Z</time>
      </trkpt>
      <trkpt lat="10.3573145" lon="-85.8069976">
        <ele>35.3</ele>
        <time>2022-10-06T16:57:46Z</time>
      </trkpt>
      <trkpt lat="10.3573747" lon="-85.8070355">
        <ele>35.2</ele>
        <time>2022-10-06T16:57:47Z</time>
      </trkpt>
      <trkpt lat="10.3574356" lon="-85.8070728">
        <ele>35.3</ele>
        <time>2022-10-06T16:57:48Z</time>
      </trkpt>
      <trkpt lat="10.3574970" lon="-85.8071130">
        <ele>35.5</ele>
        <time>2022-10-06T16:57:49Z</time>
      </trkpt>
      <trkpt lat="10.3575572" lon="-85.8071509">
        <ele>35.7</ele>
        <time>2022-10-06T16:57:50Z</time>
      </trkpt>
      <trkpt lat="10.3576167" lon="-85.8071895">
        <ele>35.8</ele>
        <time>2022-10-06T16:57:51Z</time>
      </trkpt>
      <trkpt lat="10.3576753" lon="-85.8072287">
        <ele>35.9</ele>
        <time>2022-10-06T16:57:52Z</time>
      </trkpt>
      <trkpt lat="10.3577249" lon="-85.8072620">
        <ele>36.0</ele>
        <time>2022-10-06T16:57:53Z</time>
      </trkpt>
      <trkpt lat="10.3577724" lon="-85.8072953">
        <ele>35.9</ele>
        <time>2022-10-06T16:57:54Z</time>
      </trkpt>
      <trkpt lat="10.3578176" lon="-85.8073251">
        <ele>35.9</ele>
        <time>2022-10-06T16:57:55Z</time>
      </trkpt>
      <trkpt lat="10.3578624" lon="-85.8073539">
        <ele>35.9</ele>
        <time>2022-10-06T16:57:56Z</time>
      </trkpt>
      <trkpt lat="10.3579074" lon="-85.8073804">
        <ele>36.2</ele>
        <time>2022-10-06T16:57:57Z</time>
      </trkpt>
      <trkpt lat="10.3579546" lon="-85.8074041">
        <ele>36.3</ele>
        <time>2022-10-06T16:57:58Z</time>
      </trkpt>
      <trkpt lat="10.3580018" lon="-85.8074261">
        <ele>36.0</ele>
        <time>2022-10-06T16:57:59Z</time>
      </trkpt>
      <trkpt lat="10.3580407" lon="-85.8074414">
        <ele>36.2</ele>
        <time>2022-10-06T16:58:00Z</time>
      </trkpt>
      <trkpt lat="10.3580751" lon="-85.8074530">
        <ele>36.4</ele>
        <time>2022-10-06T16:58:01Z</time>
      </trkpt>
      <trkpt lat="10.3581080" lon="-85.8074657">
        <ele>36.7</ele>
        <time>2022-10-06T16:58:02Z</time>
      </trkpt>
      <trkpt lat="10.3581396" lon="-85.8074765">
        <ele>36.5</ele>
        <time>2022-10-06T16:58:03Z</time>
      </trkpt>
      <trkpt lat="10.3581737" lon="-85.8074906">
        <ele>36.0</ele>
        <time>2022-10-06T16:58:04Z</time>
      </trkpt>
      <trkpt lat="10.3582088" lon="-85.8075104">
        <ele>35.5</ele>
        <time>2022-10-06T16:58:05Z</time>
      </trkpt>
      <trkpt lat="10.3582442" lon="-85.8075331">
        <ele>35.1</ele>
        <time>2022-10-06T16:58:06Z</time>
      </trkpt>
      <trkpt lat="10.3582952" lon="-85.8075666">
        <ele>35.6</ele>
        <time>2022-10-06T16:58:07Z</time>
      </trkpt>
      <trkpt lat="10.3583319" lon="-85.8075916">
        <ele>35.6</ele>
        <time>2022-10-06T16:58:08Z</time>
      </trkpt>
      <trkpt lat="10.3583680" lon="-85.8076149">
        <ele>35.6</ele>
        <time>2022-10-06T16:58:09Z</time>
      </trkpt>
      <trkpt lat="10.3584037" lon="-85.8076355">
        <ele>35.8</ele>
        <time>2022-10-06T16:58:10Z</time>
      </trkpt>
      <trkpt lat="10.3584434" lon="-85.8076548">
        <ele>35.7</ele>
        <time>2022-10-06T16:58:11Z</time>
      </trkpt>
      <trkpt lat="10.3584811" lon="-85.8076709">
        <ele>35.9</ele>
        <time>2022-10-06T16:58:12Z</time>
      </trkpt>
      <trkpt lat="10.3585215" lon="-85.8076851">
        <ele>36.1</ele>
        <time>2022-10-06T16:58:13Z</time>
      </trkpt>
      <trkpt lat="10.3585658" lon="-85.8076915">
        <ele>37.1</ele>
        <time>2022-10-06T16:58:14Z</time>
      </trkpt>
      <trkpt lat="10.3586094" lon="-85.8076983">
        <ele>37.0</ele>
        <time>2022-10-06T16:58:15Z</time>
      </trkpt>
      <trkpt lat="10.3586658" lon="-85.8077086">
        <ele>37.1</ele>
        <time>2022-10-06T16:58:16Z</time>
      </trkpt>
      <trkpt lat="10.3587196" lon="-85.8077177">
        <ele>37.2</ele>
        <time>2022-10-06T16:58:17Z</time>
      </trkpt>
      <trkpt lat="10.3587728" lon="-85.8077237">
        <ele>37.4</ele>
        <time>2022-10-06T16:58:18Z</time>
      </trkpt>
      <trkpt lat="10.3588008" lon="-85.8077276">
        <ele>37.6</ele>
        <time>2022-10-06T16:58:19Z</time>
      </trkpt>
      <trkpt lat="10.3588275" lon="-85.8077259">
        <ele>37.7</ele>
        <time>2022-10-06T16:58:20Z</time>
      </trkpt>
      <trkpt lat="10.3588564" lon="-85.8077269">
        <ele>37.6</ele>
        <time>2022-10-06T16:58:21Z</time>
      </trkpt>
      <trkpt lat="10.3588894" lon="-85.8077272">
        <ele>37.6</ele>
        <time>2022-10-06T16:58:22Z</time>
      </trkpt>
      <trkpt lat="10.3589293" lon="-85.8077271">
        <ele>37.6</ele>
        <time>2022-10-06T16:58:23Z</time>
      </trkpt>
      <trkpt lat="10.3589684" lon="-85.8077270">
        <ele>37.7</ele>
        <time>2022-10-06T16:58:24Z</time>
      </trkpt>
      <trkpt lat="10.3590077" lon="-85.8077264">
        <ele>37.5</ele>
        <time>2022-10-06T16:58:25Z</time>
      </trkpt>
      <trkpt lat="10.3590582" lon="-85.8077291">
        <ele>37.4</ele>
        <time>2022-10-06T16:58:26Z</time>
      </trkpt>
      <trkpt lat="10.3591142" lon="-85.8077264">
        <ele>37.8</ele>
        <time>2022-10-06T16:58:27Z</time>
      </trkpt>
      <trkpt lat="10.3591754" lon="-85.8077176">
        <ele>37.8</ele>
        <time>2022-10-06T16:58:28Z</time>
      </trkpt>
      <trkpt lat="10.3592365" lon="-85.8077047">
        <ele>37.9</ele>
        <time>2022-10-06T16:58:29Z</time>
      </trkpt>
      <trkpt lat="10.3592992" lon="-85.8076887">
        <ele>38.1</ele>
        <time>2022-10-06T16:58:30Z</time>
      </trkpt>
      <trkpt lat="10.3593622" lon="-85.8076696">
        <ele>38.3</ele>
        <time>2022-10-06T16:58:31Z</time>
      </trkpt>
      <trkpt lat="10.3594215" lon="-85.8076517">
        <ele>38.4</ele>
        <time>2022-10-06T16:58:32Z</time>
      </trkpt>
      <trkpt lat="10.3594749" lon="-85.8076354">
        <ele>38.4</ele>
        <time>2022-10-06T16:58:33Z</time>
      </trkpt>
      <trkpt lat="10.3595238" lon="-85.8076189">
        <ele>38.5</ele>
        <time>2022-10-06T16:58:34Z</time>
      </trkpt>
      <trkpt lat="10.3595712" lon="-85.8076024">
        <ele>38.5</ele>
        <time>2022-10-06T16:58:35Z</time>
      </trkpt>
      <trkpt lat="10.3596218" lon="-85.8075863">
        <ele>38.4</ele>
        <time>2022-10-06T16:58:36Z</time>
      </trkpt>
      <trkpt lat="10.3596716" lon="-85.8075707">
        <ele>38.3</ele>
        <time>2022-10-06T16:58:37Z</time>
      </trkpt>
      <trkpt lat="10.3597206" lon="-85.8075549">
        <ele>38.1</ele>
        <time>2022-10-06T16:58:38Z</time>
      </trkpt>
      <trkpt lat="10.3597611" lon="-85.8075409">
        <ele>38.1</ele>
        <time>2022-10-06T16:58:39Z</time>
      </trkpt>
      <trkpt lat="10.3597966" lon="-85.8075189">
        <ele>38.1</ele>
        <time>2022-10-06T16:58:40Z</time>
      </trkpt>
      <trkpt lat="10.3598326" lon="-85.8075030">
        <ele>38.0</ele>
        <time>2022-10-06T16:58:41Z</time>
      </trkpt>
      <trkpt lat="10.3598709" lon="-85.8074885">
        <ele>38.0</ele>
        <time>2022-10-06T16:58:42Z</time>
      </trkpt>
      <trkpt lat="10.3599119" lon="-85.8074734">
        <ele>38.0</ele>
        <time>2022-10-06T16:58:43Z</time>
      </trkpt>
      <trkpt lat="10.3599416" lon="-85.8074648">
        <ele>38.1</ele>
        <time>2022-10-06T16:58:44Z</time>
      </trkpt>
      <trkpt lat="10.3599600" lon="-85.8074611">
        <ele>37.9</ele>
        <time>2022-10-06T16:58:45Z</time>
      </trkpt>
      <trkpt lat="10.3599795" lon="-85.8074600">
        <ele>37.9</ele>
        <time>2022-10-06T16:58:46Z</time>
      </trkpt>
      <trkpt lat="10.3600011" lon="-85.8074563">
        <ele>37.8</ele>
        <time>2022-10-06T16:58:47Z</time>
      </trkpt>
      <trkpt lat="10.3600223" lon="-85.8074533">
        <ele>37.7</ele>
        <time>2022-10-06T16:58:48Z</time>
      </trkpt>
      <trkpt lat="10.3600539" lon="-85.8074507">
        <ele>37.5</ele>
        <time>2022-10-06T16:58:49Z</time>
      </trkpt>
      <trkpt lat="10.3600914" lon="-85.8074533">
        <ele>37.5</ele>
        <time>2022-10-06T16:58:50Z</time>
      </trkpt>
      <trkpt lat="10.3601339" lon="-85.8074572">
        <ele>37.5</ele>
        <time>2022-10-06T16:58:51Z</time>
      </trkpt>
      <trkpt lat="10.3601734" lon="-85.8074671">
        <ele>37.5</ele>
        <time>2022-10-06T16:58:52Z</time>
      </trkpt>
      <trkpt lat="10.3602106" lon="-85.8074831">
        <ele>37.5</ele>
        <time>2022-10-06T16:58:53Z</time>
      </trkpt>
      <trkpt lat="10.3602446" lon="-85.8075017">
        <ele>37.5</ele>
        <time>2022-10-06T16:58:54Z</time>
      </trkpt>
      <trkpt lat="10.3602771" lon="-85.8075214">
        <ele>37.5</ele>
        <time>2022-10-06T16:58:55Z</time>
      </trkpt>
      <trkpt lat="10.3603115" lon="-85.8075450">
        <ele>37.6</ele>
        <time>2022-10-06T16:58:56Z</time>
      </trkpt>
      <trkpt lat="10.3603476" lon="-85.8075688">
        <ele>37.6</ele>
        <time>2022-10-06T16:58:57Z</time>
      </trkpt>
      <trkpt lat="10.3603896" lon="-85.8075911">
        <ele>37.7</ele>
        <time>2022-10-06T16:58:58Z</time>
      </trkpt>
      <trkpt lat="10.3604349" lon="-85.8076057">
        <ele>37.6</ele>
        <time>2022-10-06T16:58:59Z</time>
      </trkpt>
      <trkpt lat="10.3604856" lon="-85.8076150">
        <ele>37.6</ele>
        <time>2022-10-06T16:59:00Z</time>
      </trkpt>
      <trkpt lat="10.3605382" lon="-85.8076206">
        <ele>37.8</ele>
        <time>2022-10-06T16:59:01Z</time>
      </trkpt>
      <trkpt lat="10.3605984" lon="-85.8076267">
        <ele>37.9</ele>
        <time>2022-10-06T16:59:02Z</time>
      </trkpt>
      <trkpt lat="10.3606582" lon="-85.8076320">
        <ele>37.8</ele>
        <time>2022-10-06T16:59:03Z</time>
      </trkpt>
      <trkpt lat="10.3607213" lon="-85.8076363">
        <ele>37.9</ele>
        <time>2022-10-06T16:59:04Z</time>
      </trkpt>
      <trkpt lat="10.3607886" lon="-85.8076410">
        <ele>38.0</ele>
        <time>2022-10-06T16:59:05Z</time>
      </trkpt>
      <trkpt lat="10.3608582" lon="-85.8076467">
        <ele>38.2</ele>
        <time>2022-10-06T16:59:06Z</time>
      </trkpt>
      <trkpt lat="10.3609283" lon="-85.8076529">
        <ele>38.3</ele>
        <time>2022-10-06T16:59:07Z</time>
      </trkpt>
      <trkpt lat="10.3610019" lon="-85.8076548">
        <ele>38.3</ele>
        <time>2022-10-06T16:59:08Z</time>
      </trkpt>
      <trkpt lat="10.3610752" lon="-85.8076564">
        <ele>38.5</ele>
        <time>2022-10-06T16:59:09Z</time>
      </trkpt>
      <trkpt lat="10.3611457" lon="-85.8076573">
        <ele>38.9</ele>
        <time>2022-10-06T16:59:10Z</time>
      </trkpt>
      <trkpt lat="10.3612183" lon="-85.8076560">
        <ele>39.5</ele>
        <time>2022-10-06T16:59:11Z</time>
      </trkpt>
      <trkpt lat="10.3612867" lon="-85.8076541">
        <ele>39.6</ele>
        <time>2022-10-06T16:59:12Z</time>
      </trkpt>
      <trkpt lat="10.3613538" lon="-85.8076504">
        <ele>40.2</ele>
        <time>2022-10-06T16:59:13Z</time>
      </trkpt>
      <trkpt lat="10.3614193" lon="-85.8076479">
        <ele>40.7</ele>
        <time>2022-10-06T16:59:14Z</time>
      </trkpt>
      <trkpt lat="10.3614740" lon="-85.8076460">
        <ele>40.7</ele>
        <time>2022-10-06T16:59:15Z</time>
      </trkpt>
      <trkpt lat="10.3615299" lon="-85.8076432">
        <ele>40.8</ele>
        <time>2022-10-06T16:59:16Z</time>
      </trkpt>
      <trkpt lat="10.3615848" lon="-85.8076458">
        <ele>40.8</ele>
        <time>2022-10-06T16:59:17Z</time>
      </trkpt>
      <trkpt lat="10.3616317" lon="-85.8076520">
        <ele>40.9</ele>
        <time>2022-10-06T16:59:18Z</time>
      </trkpt>
      <trkpt lat="10.3616723" lon="-85.8076587">
        <ele>41.2</ele>
        <time>2022-10-06T16:59:19Z</time>
      </trkpt>
      <trkpt lat="10.3617046" lon="-85.8076666">
        <ele>41.1</ele>
        <time>2022-10-06T16:59:20Z</time>
      </trkpt>
      <trkpt lat="10.3617365" lon="-85.8076733">
        <ele>41.2</ele>
        <time>2022-10-06T16:59:21Z</time>
      </trkpt>
      <trkpt lat="10.3617685" lon="-85.8076798">
        <ele>41.2</ele>
        <time>2022-10-06T16:59:22Z</time>
      </trkpt>
      <trkpt lat="10.3618034" lon="-85.8076866">
        <ele>40.8</ele>
        <time>2022-10-06T16:59:23Z</time>
      </trkpt>
      <trkpt lat="10.3618344" lon="-85.8076942">
        <ele>41.1</ele>
        <time>2022-10-06T16:59:24Z</time>
      </trkpt>
      <trkpt lat="10.3618648" lon="-85.8077019">
        <ele>41.2</ele>
        <time>2022-10-06T16:59:25Z</time>
      </trkpt>
      <trkpt lat="10.3618952" lon="-85.8077101">
        <ele>41.3</ele>
        <time>2022-10-06T16:59:26Z</time>
      </trkpt>
      <trkpt lat="10.3619278" lon="-85.8077220">
        <ele>41.0</ele>
        <time>2022-10-06T16:59:27Z</time>
      </trkpt>
      <trkpt lat="10.3619621" lon="-85.8077330">
        <ele>41.1</ele>
        <time>2022-10-06T16:59:28Z</time>
      </trkpt>
      <trkpt lat="10.3620002" lon="-85.8077413">
        <ele>41.5</ele>
        <time>2022-10-06T16:59:29Z</time>
      </trkpt>
      <trkpt lat="10.3620425" lon="-85.8077471">
        <ele>41.3</ele>
        <time>2022-10-06T16:59:30Z</time>
      </trkpt>
      <trkpt lat="10.3620834" lon="-85.8077565">
        <ele>41.3</ele>
        <time>2022-10-06T16:59:31Z</time>
      </trkpt>
      <trkpt lat="10.3621205" lon="-85.8077642">
        <ele>41.5</ele>
        <time>2022-10-06T16:59:32Z</time>
      </trkpt>
      <trkpt lat="10.3621608" lon="-85.8077623">
        <ele>41.6</ele>
        <time>2022-10-06T16:59:33Z</time>
      </trkpt>
      <trkpt lat="10.3621875" lon="-85.8077498">
        <ele>41.4</ele>
        <time>2022-10-06T16:59:34Z</time>
      </trkpt>
      <trkpt lat="10.3622058" lon="-85.8077449">
        <ele>41.3</ele>
        <time>2022-10-06T16:59:35Z</time>
      </trkpt>
      <trkpt lat="10.3622157" lon="-85.8077425">
        <ele>41.3</ele>
        <time>2022-10-06T16:59:36Z</time>
      </trkpt>
      <trkpt lat="10.3622346" lon="-85.8077395">
        <ele>41.2</ele>
        <time>2022-10-06T16:59:37Z</time>
      </trkpt>
      <trkpt lat="10.3622576" lon="-85.8077375">
        <ele>41.2</ele>
        <time>2022-10-06T16:59:38Z</time>
      </trkpt>
      <trkpt lat="10.3622791" lon="-85.8077364">
        <ele>41.1</ele>
        <time>2022-10-06T16:59:39Z</time>
      </trkpt>
      <trkpt lat="10.3623036" lon="-85.8077348">
        <ele>41.1</ele>
        <time>2022-10-06T16:59:40Z</time>
      </trkpt>
      <trkpt lat="10.3623396" lon="-85.8077274">
        <ele>40.9</ele>
        <time>2022-10-06T16:59:41Z</time>
      </trkpt>
      <trkpt lat="10.3623777" lon="-85.8077200">
        <ele>40.8</ele>
        <time>2022-10-06T16:59:42Z</time>
      </trkpt>
      <trkpt lat="10.3624153" lon="-85.8077155">
        <ele>40.6</ele>
        <time>2022-10-06T16:59:43Z</time>
      </trkpt>
      <trkpt lat="10.3624457" lon="-85.8077135">
        <ele>40.4</ele>
        <time>2022-10-06T16:59:44Z</time>
      </trkpt>
      <trkpt lat="10.3624695" lon="-85.8077122">
        <ele>40.3</ele>
        <time>2022-10-06T16:59:45Z</time>
      </trkpt>
      <trkpt lat="10.3624911" lon="-85.8077124">
        <ele>40.4</ele>
        <time>2022-10-06T16:59:46Z</time>
      </trkpt>
      <trkpt lat="10.3625087" lon="-85.8077140">
        <ele>40.3</ele>
        <time>2022-10-06T16:59:47Z</time>
      </trkpt>
      <trkpt lat="10.3625275" lon="-85.8077215">
        <ele>40.1</ele>
        <time>2022-10-06T16:59:48Z</time>
      </trkpt>
      <trkpt lat="10.3625437" lon="-85.8077322">
        <ele>40.4</ele>
        <time>2022-10-06T16:59:49Z</time>
      </trkpt>
      <trkpt lat="10.3625540" lon="-85.8077470">
        <ele>40.3</ele>
        <time>2022-10-06T16:59:50Z</time>
      </trkpt>
      <trkpt lat="10.3625716" lon="-85.8077699">
        <ele>40.4</ele>
        <time>2022-10-06T16:59:51Z</time>
      </trkpt>
      <trkpt lat="10.3625801" lon="-85.8078043">
        <ele>40.5</ele>
        <time>2022-10-06T16:59:52Z</time>
      </trkpt>
      <trkpt lat="10.3625494" lon="-85.8078439">
        <ele>40.5</ele>
        <time>2022-10-06T16:59:53Z</time>
      </trkpt>
      <trkpt lat="10.3625284" lon="-85.8078740">
        <ele>40.4</ele>
        <time>2022-10-06T16:59:54Z</time>
      </trkpt>
      <trkpt lat="10.3625017" lon="-85.8079071">
        <ele>40.4</ele>
        <time>2022-10-06T16:59:55Z</time>
      </trkpt>
      <trkpt lat="10.3624670" lon="-85.8079526">
        <ele>40.4</ele>
        <time>2022-10-06T16:59:56Z</time>
      </trkpt>
      <trkpt lat="10.3624375" lon="-85.8079982">
        <ele>40.4</ele>
        <time>2022-10-06T16:59:57Z</time>
      </trkpt>
      <trkpt lat="10.3624103" lon="-85.8080445">
        <ele>40.3</ele>
        <time>2022-10-06T16:59:58Z</time>
      </trkpt>
      <trkpt lat="10.3623846" lon="-85.8080903">
        <ele>40.1</ele>
        <time>2022-10-06T16:59:59Z</time>
      </trkpt>
      <trkpt lat="10.3623546" lon="-85.8081401">
        <ele>40.1</ele>
        <time>2022-10-06T17:00:00Z</time>
      </trkpt>
      <trkpt lat="10.3623269" lon="-85.8081930">
        <ele>40.1</ele>
        <time>2022-10-06T17:00:01Z</time>
      </trkpt>
      <trkpt lat="10.3622978" lon="-85.8082524">
        <ele>39.9</ele>
        <time>2022-10-06T17:00:02Z</time>
      </trkpt>
      <trkpt lat="10.3622684" lon="-85.8083217">
        <ele>39.8</ele>
        <time>2022-10-06T17:00:03Z</time>
      </trkpt>
      <trkpt lat="10.3622433" lon="-85.8084022">
        <ele>39.8</ele>
        <time>2022-10-06T17:00:04Z</time>
      </trkpt>
      <trkpt lat="10.3622150" lon="-85.8084898">
        <ele>39.8</ele>
        <time>2022-10-06T17:00:05Z</time>
      </trkpt>
      <trkpt lat="10.3622040" lon="-85.8085808">
        <ele>39.7</ele>
        <time>2022-10-06T17:00:06Z</time>
      </trkpt>
      <trkpt lat="10.3621911" lon="-85.8086704">
        <ele>39.7</ele>
        <time>2022-10-06T17:00:07Z</time>
      </trkpt>
      <trkpt lat="10.3621790" lon="-85.8087624">
        <ele>39.6</ele>
        <time>2022-10-06T17:00:08Z</time>
      </trkpt>
      <trkpt lat="10.3621682" lon="-85.8088561">
        <ele>39.7</ele>
        <time>2022-10-06T17:00:09Z</time>
      </trkpt>
      <trkpt lat="10.3621566" lon="-85.8089503">
        <ele>39.9</ele>
        <time>2022-10-06T17:00:10Z</time>
      </trkpt>
      <trkpt lat="10.3621469" lon="-85.8090471">
        <ele>39.6</ele>
        <time>2022-10-06T17:00:11Z</time>
      </trkpt>
      <trkpt lat="10.3621381" lon="-85.8091443">
        <ele>39.1</ele>
        <time>2022-10-06T17:00:12Z</time>
      </trkpt>
      <trkpt lat="10.3621290" lon="-85.8092430">
        <ele>39.0</ele>
        <time>2022-10-06T17:00:13Z</time>
      </trkpt>
      <trkpt lat="10.3621215" lon="-85.8093466">
        <ele>39.4</ele>
        <time>2022-10-06T17:00:14Z</time>
      </trkpt>
      <trkpt lat="10.3621133" lon="-85.8094394">
        <ele>39.2</ele>
        <time>2022-10-06T17:00:15Z</time>
      </trkpt>
      <trkpt lat="10.3621062" lon="-85.8095357">
        <ele>39.2</ele>
        <time>2022-10-06T17:00:16Z</time>
      </trkpt>
      <trkpt lat="10.3621011" lon="-85.8096327">
        <ele>39.3</ele>
        <time>2022-10-06T17:00:17Z</time>
      </trkpt>
      <trkpt lat="10.3620967" lon="-85.8097325">
        <ele>39.5</ele>
        <time>2022-10-06T17:00:18Z</time>
      </trkpt>
      <trkpt lat="10.3620900" lon="-85.8098302">
        <ele>39.5</ele>
        <time>2022-10-06T17:00:19Z</time>
      </trkpt>
      <trkpt lat="10.3620838" lon="-85.8099278">
        <ele>39.4</ele>
        <time>2022-10-06T17:00:20Z</time>
      </trkpt>
      <trkpt lat="10.3620756" lon="-85.8100274">
        <ele>39.9</ele>
        <time>2022-10-06T17:00:21Z</time>
      </trkpt>
      <trkpt lat="10.3620686" lon="-85.8101257">
        <ele>40.0</ele>
        <time>2022-10-06T17:00:22Z</time>
      </trkpt>
      <trkpt lat="10.3620594" lon="-85.8102218">
        <ele>40.2</ele>
        <time>2022-10-06T17:00:23Z</time>
      </trkpt>
      <trkpt lat="10.3620517" lon="-85.8103202">
        <ele>40.1</ele>
        <time>2022-10-06T17:00:24Z</time>
      </trkpt>
      <trkpt lat="10.3620456" lon="-85.8104167">
        <ele>40.2</ele>
        <time>2022-10-06T17:00:25Z</time>
      </trkpt>
      <trkpt lat="10.3620378" lon="-85.8105106">
        <ele>40.2</ele>
        <time>2022-10-06T17:00:26Z</time>
      </trkpt>
      <trkpt lat="10.3620297" lon="-85.8106005">
        <ele>40.3</ele>
        <time>2022-10-06T17:00:27Z</time>
      </trkpt>
      <trkpt lat="10.3620207" lon="-85.8106832">
        <ele>40.4</ele>
        <time>2022-10-06T17:00:28Z</time>
      </trkpt>
      <trkpt lat="10.3620125" lon="-85.8107543">
        <ele>40.6</ele>
        <time>2022-10-06T17:00:29Z</time>
      </trkpt>
      <trkpt lat="10.3620093" lon="-85.8108053">
        <ele>40.4</ele>
        <time>2022-10-06T17:00:30Z</time>
      </trkpt>
      <trkpt lat="10.3620075" lon="-85.8108417">
        <ele>40.3</ele>
        <time>2022-10-06T17:00:31Z</time>
      </trkpt>
      <trkpt lat="10.3620151" lon="-85.8108665">
        <ele>40.3</ele>
        <time>2022-10-06T17:00:32Z</time>
      </trkpt>
      <trkpt lat="10.3620307" lon="-85.8108820">
        <ele>40.4</ele>
        <time>2022-10-06T17:00:33Z</time>
      </trkpt>
      <trkpt lat="10.3620387" lon="-85.8108919">
        <ele>40.4</ele>
        <time>2022-10-06T17:00:34Z</time>
      </trkpt>
      <trkpt lat="10.3620480" lon="-85.8108988">
        <ele>40.5</ele>
        <time>2022-10-06T17:00:35Z</time>
      </trkpt>
      <trkpt lat="10.3620537" lon="-85.8109031">
        <ele>40.6</ele>
        <time>2022-10-06T17:00:36Z</time>
      </trkpt>
      <trkpt lat="10.3620608" lon="-85.8109075">
        <ele>40.4</ele>
        <time>2022-10-06T17:00:37Z</time>
      </trkpt>
      <trkpt lat="10.3620689" lon="-85.8109114">
        <ele>40.4</ele>
        <time>2022-10-06T17:00:38Z</time>
      </trkpt>
      <trkpt lat="10.3620788" lon="-85.8109145">
        <ele>40.4</ele>
        <time>2022-10-06T17:00:39Z</time>
      </trkpt>
      <trkpt lat="10.3620931" lon="-85.8109219">
        <ele>40.3</ele>
        <time>2022-10-06T17:00:40Z</time>
      </trkpt>
      <trkpt lat="10.3621057" lon="-85.8109278">
        <ele>40.3</ele>
        <time>2022-10-06T17:00:41Z</time>
      </trkpt>
      <trkpt lat="10.3621215" lon="-85.8109333">
        <ele>40.3</ele>
        <time>2022-10-06T17:00:42Z</time>
      </trkpt>
      <trkpt lat="10.3621375" lon="-85.8109385">
        <ele>40.4</ele>
        <time>2022-10-06T17:00:43Z</time>
      </trkpt>
      <trkpt lat="10.3621584" lon="-85.8109426">
        <ele>40.5</ele>
        <time>2022-10-06T17:00:44Z</time>
      </trkpt>
      <trkpt lat="10.3621826" lon="-85.8109431">
        <ele>40.5</ele>
        <time>2022-10-06T17:00:45Z</time>
      </trkpt>
      <trkpt lat="10.3622111" lon="-85.8109447">
        <ele>40.5</ele>
        <time>2022-10-06T17:00:46Z</time>
      </trkpt>
      <trkpt lat="10.3622422" lon="-85.8109437">
        <ele>40.6</ele>
        <time>2022-10-06T17:00:47Z</time>
      </trkpt>
      <trkpt lat="10.3622755" lon="-85.8109421">
        <ele>40.6</ele>
        <time>2022-10-06T17:00:48Z</time>
      </trkpt>
      <trkpt lat="10.3623138" lon="-85.8109410">
        <ele>40.6</ele>
        <time>2022-10-06T17:00:49Z</time>
      </trkpt>
      <trkpt lat="10.3623520" lon="-85.8109405">
        <ele>40.7</ele>
        <time>2022-10-06T17:00:50Z</time>
      </trkpt>
      <trkpt lat="10.3623889" lon="-85.8109398">
        <ele>40.7</ele>
        <time>2022-10-06T17:00:51Z</time>
      </trkpt>
      <trkpt lat="10.3624257" lon="-85.8109416">
        <ele>40.6</ele>
        <time>2022-10-06T17:00:52Z</time>
      </trkpt>
      <trkpt lat="10.3624703" lon="-85.8109424">
        <ele>40.7</ele>
        <time>2022-10-06T17:00:53Z</time>
      </trkpt>
      <trkpt lat="10.3625151" lon="-85.8109492">
        <ele>40.8</ele>
        <time>2022-10-06T17:00:54Z</time>
      </trkpt>
      <trkpt lat="10.3625602" lon="-85.8109539">
        <ele>40.8</ele>
        <time>2022-10-06T17:00:55Z</time>
      </trkpt>
      <trkpt lat="10.3626071" lon="-85.8109555">
        <ele>40.8</ele>
        <time>2022-10-06T17:00:56Z</time>
      </trkpt>
      <trkpt lat="10.3626528" lon="-85.8109583">
        <ele>40.8</ele>
        <time>2022-10-06T17:00:57Z</time>
      </trkpt>
      <trkpt lat="10.3626980" lon="-85.8109594">
        <ele>40.8</ele>
        <time>2022-10-06T17:00:58Z</time>
      </trkpt>
      <trkpt lat="10.3627394" lon="-85.8109618">
        <ele>40.9</ele>
        <time>2022-10-06T17:00:59Z</time>
      </trkpt>
      <trkpt lat="10.3627789" lon="-85.8109642">
        <ele>40.9</ele>
        <time>2022-10-06T17:01:00Z</time>
      </trkpt>
      <trkpt lat="10.3628138" lon="-85.8109671">
        <ele>41.1</ele>
        <time>2022-10-06T17:01:01Z</time>
      </trkpt>
      <trkpt lat="10.3628370" lon="-85.8109702">
        <ele>41.0</ele>
        <time>2022-10-06T17:01:02Z</time>
      </trkpt>
      <trkpt lat="10.3628518" lon="-85.8109720">
        <ele>41.0</ele>
        <time>2022-10-06T17:01:03Z</time>
      </trkpt>
      <trkpt lat="10.3628684" lon="-85.8109751">
        <ele>41.0</ele>
        <time>2022-10-06T17:01:04Z</time>
      </trkpt>
      <trkpt lat="10.3628797" lon="-85.8109751">
        <ele>41.0</ele>
        <time>2022-10-06T17:01:05Z</time>
      </trkpt>
      <trkpt lat="10.3628918" lon="-85.8109763">
        <ele>41.1</ele>
        <time>2022-10-06T17:01:06Z</time>
      </trkpt>
      <trkpt lat="10.3629058" lon="-85.8109747">
        <ele>41.0</ele>
        <time>2022-10-06T17:01:07Z</time>
      </trkpt>
      <trkpt lat="10.3629163" lon="-85.8109707">
        <ele>40.9</ele>
        <time>2022-10-06T17:01:08Z</time>
      </trkpt>
      <trkpt lat="10.3629326" lon="-85.8109657">
        <ele>41.0</ele>
        <time>2022-10-06T17:01:09Z</time>
      </trkpt>
      <trkpt lat="10.3629481" lon="-85.8109630">
        <ele>41.0</ele>
        <time>2022-10-06T17:01:10Z</time>
      </trkpt>
      <trkpt lat="10.3629701" lon="-85.8109600">
        <ele>41.0</ele>
        <time>2022-10-06T17:01:11Z</time>
      </trkpt>
      <trkpt lat="10.3629924" lon="-85.8109568">
        <ele>41.1</ele>
        <time>2022-10-06T17:01:12Z</time>
      </trkpt>
      <trkpt lat="10.3630221" lon="-85.8109566">
        <ele>41.0</ele>
        <time>2022-10-06T17:01:13Z</time>
      </trkpt>
      <trkpt lat="10.3630539" lon="-85.8109565">
        <ele>40.9</ele>
        <time>2022-10-06T17:01:14Z</time>
      </trkpt>
      <trkpt lat="10.3630822" lon="-85.8109553">
        <ele>40.9</ele>
        <time>2022-10-06T17:01:15Z</time>
      </trkpt>
      <trkpt lat="10.3631101" lon="-85.8109550">
        <ele>41.0</ele>
        <time>2022-10-06T17:01:16Z</time>
      </trkpt>
      <trkpt lat="10.3631410" lon="-85.8109560">
        <ele>41.1</ele>
        <time>2022-10-06T17:01:17Z</time>
      </trkpt>
      <trkpt lat="10.3631772" lon="-85.8109586">
        <ele>41.1</ele>
        <time>2022-10-06T17:01:18Z</time>
      </trkpt>
      <trkpt lat="10.3632135" lon="-85.8109637">
        <ele>41.2</ele>
        <time>2022-10-06T17:01:19Z</time>
      </trkpt>
      <trkpt lat="10.3632553" lon="-85.8109680">
        <ele>41.3</ele>
        <time>2022-10-06T17:01:20Z</time>
      </trkpt>
      <trkpt lat="10.3632977" lon="-85.8109712">
        <ele>41.3</ele>
        <time>2022-10-06T17:01:21Z</time>
      </trkpt>
      <trkpt lat="10.3633426" lon="-85.8109755">
        <ele>41.4</ele>
        <time>2022-10-06T17:01:22Z</time>
      </trkpt>
      <trkpt lat="10.3633861" lon="-85.8109791">
        <ele>41.5</ele>
        <time>2022-10-06T17:01:23Z</time>
      </trkpt>
      <trkpt lat="10.3634271" lon="-85.8109840">
        <ele>41.5</ele>
        <time>2022-10-06T17:01:24Z</time>
      </trkpt>
      <trkpt lat="10.3634685" lon="-85.8109888">
        <ele>41.5</ele>
        <time>2022-10-06T17:01:25Z</time>
      </trkpt>
      <trkpt lat="10.3635079" lon="-85.8109925">
        <ele>41.4</ele>
        <time>2022-10-06T17:01:26Z</time>
      </trkpt>
      <trkpt lat="10.3635485" lon="-85.8109943">
        <ele>41.2</ele>
        <time>2022-10-06T17:01:27Z</time>
      </trkpt>
      <trkpt lat="10.3635908" lon="-85.8109961">
        <ele>41.4</ele>
        <time>2022-10-06T17:01:28Z</time>
      </trkpt>
      <trkpt lat="10.3636378" lon="-85.8109922">
        <ele>41.3</ele>
        <time>2022-10-06T17:01:29Z</time>
      </trkpt>
      <trkpt lat="10.3636878" lon="-85.8109884">
        <ele>41.2</ele>
        <time>2022-10-06T17:01:30Z</time>
      </trkpt>
      <trkpt lat="10.3637394" lon="-85.8109843">
        <ele>41.1</ele>
        <time>2022-10-06T17:01:31Z</time>
      </trkpt>
      <trkpt lat="10.3637990" lon="-85.8109779">
        <ele>41.2</ele>
        <time>2022-10-06T17:01:32Z</time>
      </trkpt>
      <trkpt lat="10.3638602" lon="-85.8109711">
        <ele>41.2</ele>
        <time>2022-10-06T17:01:33Z</time>
      </trkpt>
      <trkpt lat="10.3639195" lon="-85.8109669">
        <ele>41.2</ele>
        <time>2022-10-06T17:01:34Z</time>
      </trkpt>
      <trkpt lat="10.3639799" lon="-85.8109624">
        <ele>41.2</ele>
        <time>2022-10-06T17:01:35Z</time>
      </trkpt>
      <trkpt lat="10.3640363" lon="-85.8109604">
        <ele>41.2</ele>
        <time>2022-10-06T17:01:36Z</time>
      </trkpt>
      <trkpt lat="10.3640902" lon="-85.8109593">
        <ele>41.2</ele>
        <time>2022-10-06T17:01:37Z</time>
      </trkpt>
      <trkpt lat="10.3641374" lon="-85.8109741">
        <ele>41.2</ele>
        <time>2022-10-06T17:01:38Z</time>
      </trkpt>
      <trkpt lat="10.3641567" lon="-85.8110374">
        <ele>41.5</ele>
        <time>2022-10-06T17:01:39Z</time>
      </trkpt>
      <trkpt lat="10.3641762" lon="-85.8110804">
        <ele>41.5</ele>
        <time>2022-10-06T17:01:40Z</time>
      </trkpt>
      <trkpt lat="10.3641803" lon="-85.8111324">
        <ele>41.4</ele>
        <time>2022-10-06T17:01:41Z</time>
      </trkpt>
      <trkpt lat="10.3641834" lon="-85.8111825">
        <ele>41.5</ele>
        <time>2022-10-06T17:01:42Z</time>
      </trkpt>
      <trkpt lat="10.3641868" lon="-85.8112295">
        <ele>41.6</ele>
        <time>2022-10-06T17:01:43Z</time>
      </trkpt>
      <trkpt lat="10.3642026" lon="-85.8112625">
        <ele>41.6</ele>
        <time>2022-10-06T17:01:44Z</time>
      </trkpt>
      <trkpt lat="10.3642275" lon="-85.8112862">
        <ele>41.8</ele>
        <time>2022-10-06T17:01:45Z</time>
      </trkpt>
      <trkpt lat="10.3642559" lon="-85.8112996">
        <ele>41.8</ele>
        <time>2022-10-06T17:01:46Z</time>
      </trkpt>
      <trkpt lat="10.3642916" lon="-85.8113049">
        <ele>41.9</ele>
        <time>2022-10-06T17:01:47Z</time>
      </trkpt>
      <trkpt lat="10.3643320" lon="-85.8113049">
        <ele>41.8</ele>
        <time>2022-10-06T17:01:48Z</time>
      </trkpt>
      <trkpt lat="10.3643780" lon="-85.8113030">
        <ele>41.8</ele>
        <time>2022-10-06T17:01:49Z</time>
      </trkpt>
      <trkpt lat="10.3644289" lon="-85.8112972">
        <ele>41.7</ele>
        <time>2022-10-06T17:01:50Z</time>
      </trkpt>
      <trkpt lat="10.3644780" lon="-85.8112917">
        <ele>41.7</ele>
        <time>2022-10-06T17:01:51Z</time>
      </trkpt>
      <trkpt lat="10.3645283" lon="-85.8112850">
        <ele>41.6</ele>
        <time>2022-10-06T17:01:52Z</time>
      </trkpt>
      <trkpt lat="10.3645766" lon="-85.8112784">
        <ele>41.6</ele>
        <time>2022-10-06T17:01:53Z</time>
      </trkpt>
      <trkpt lat="10.3646238" lon="-85.8112713">
        <ele>41.6</ele>
        <time>2022-10-06T17:01:54Z</time>
      </trkpt>
      <trkpt lat="10.3646691" lon="-85.8112647">
        <ele>41.5</ele>
        <time>2022-10-06T17:01:55Z</time>
      </trkpt>
      <trkpt lat="10.3647122" lon="-85.8112606">
        <ele>41.4</ele>
        <time>2022-10-06T17:01:56Z</time>
      </trkpt>
      <trkpt lat="10.3647494" lon="-85.8112628">
        <ele>41.4</ele>
        <time>2022-10-06T17:01:57Z</time>
      </trkpt>
      <trkpt lat="10.3647785" lon="-85.8112661">
        <ele>41.4</ele>
        <time>2022-10-06T17:01:58Z</time>
      </trkpt>
      <trkpt lat="10.3647851" lon="-85.8112967">
        <ele>41.3</ele>
        <time>2022-10-06T17:01:59Z</time>
      </trkpt>
      <trkpt lat="10.3647740" lon="-85.8113339">
        <ele>41.3</ele>
        <time>2022-10-06T17:02:00Z</time>
      </trkpt>
      <trkpt lat="10.3647611" lon="-85.8113472">
        <ele>41.2</ele>
        <time>2022-10-06T17:02:01Z</time>
      </trkpt>
      <trkpt lat="10.3647543" lon="-85.8113498">
        <ele>41.2</ele>
        <time>2022-10-06T17:02:02Z</time>
      </trkpt>
      <trkpt lat="10.3647543" lon="-85.8113498">
        <ele>41.2</ele>
        <time>2022-10-06T17:02:03Z</time>
      </trkpt>
      <trkpt lat="10.3647492" lon="-85.8113521">
        <ele>41.1</ele>
        <time>2022-10-06T17:02:04Z</time>
      </trkpt>
      <trkpt lat="10.3647493" lon="-85.8113405">
        <ele>41.0</ele>
        <time>2022-10-06T17:02:05Z</time>
      </trkpt>
      <trkpt lat="10.3647493" lon="-85.8113405">
        <ele>41.0</ele>
        <time>2022-10-06T17:02:06Z</time>
      </trkpt>
      <trkpt lat="10.3647396" lon="-85.8113436">
        <ele>40.9</ele>
        <time>2022-10-06T17:02:07Z</time>
      </trkpt>
      <trkpt lat="10.3647162" lon="-85.8113391">
        <ele>41.1</ele>
        <time>2022-10-06T17:02:08Z</time>
      </trkpt>
      <trkpt lat="10.3646864" lon="-85.8113285">
        <ele>40.9</ele>
        <time>2022-10-06T17:02:09Z</time>
      </trkpt>
      <trkpt lat="10.3646467" lon="-85.8113199">
        <ele>41.0</ele>
        <time>2022-10-06T17:02:10Z</time>
      </trkpt>
      <trkpt lat="10.3645994" lon="-85.8113176">
        <ele>41.1</ele>
        <time>2022-10-06T17:02:11Z</time>
      </trkpt>
      <trkpt lat="10.3645331" lon="-85.8113112">
        <ele>41.0</ele>
        <time>2022-10-06T17:02:12Z</time>
      </trkpt>
      <trkpt lat="10.3644782" lon="-85.8113161">
        <ele>41.4</ele>
        <time>2022-10-06T17:02:13Z</time>
      </trkpt>
      <trkpt lat="10.3644191" lon="-85.8113205">
        <ele>41.5</ele>
        <time>2022-10-06T17:02:14Z</time>
      </trkpt>
      <trkpt lat="10.3643612" lon="-85.8113226">
        <ele>41.6</ele>
        <time>2022-10-06T17:02:15Z</time>
      </trkpt>
      <trkpt lat="10.3643082" lon="-85.8113290">
        <ele>41.7</ele>
        <time>2022-10-06T17:02:16Z</time>
      </trkpt>
      <trkpt lat="10.3642627" lon="-85.8113422">
        <ele>41.6</ele>
        <time>2022-10-06T17:02:17Z</time>
      </trkpt>
      <trkpt lat="10.3642278" lon="-85.8113646">
        <ele>41.5</ele>
        <time>2022-10-06T17:02:18Z</time>
      </trkpt>
      <trkpt lat="10.3641965" lon="-85.8113874">
        <ele>41.6</ele>
        <time>2022-10-06T17:02:19Z</time>
      </trkpt>
      <trkpt lat="10.3641915" lon="-85.8114355">
        <ele>41.6</ele>
        <time>2022-10-06T17:02:20Z</time>
      </trkpt>
      <trkpt lat="10.3641893" lon="-85.8114778">
        <ele>41.7</ele>
        <time>2022-10-06T17:02:21Z</time>
      </trkpt>
      <trkpt lat="10.3641904" lon="-85.8115295">
        <ele>41.8</ele>
        <time>2022-10-06T17:02:22Z</time>
      </trkpt>
      <trkpt lat="10.3641986" lon="-85.8115845">
        <ele>42.0</ele>
        <time>2022-10-06T17:02:23Z</time>
      </trkpt>
      <trkpt lat="10.3642049" lon="-85.8116436">
        <ele>42.2</ele>
        <time>2022-10-06T17:02:24Z</time>
      </trkpt>
      <trkpt lat="10.3642108" lon="-85.8117041">
        <ele>42.2</ele>
        <time>2022-10-06T17:02:25Z</time>
      </trkpt>
      <trkpt lat="10.3642152" lon="-85.8117646">
        <ele>42.5</ele>
        <time>2022-10-06T17:02:26Z</time>
      </trkpt>
      <trkpt lat="10.3642204" lon="-85.8118248">
        <ele>42.8</ele>
        <time>2022-10-06T17:02:27Z</time>
      </trkpt>
      <trkpt lat="10.3642257" lon="-85.8118854">
        <ele>42.9</ele>
        <time>2022-10-06T17:02:28Z</time>
      </trkpt>
      <trkpt lat="10.3642297" lon="-85.8119484">
        <ele>43.1</ele>
        <time>2022-10-06T17:02:29Z</time>
      </trkpt>
      <trkpt lat="10.3642337" lon="-85.8120107">
        <ele>43.3</ele>
        <time>2022-10-06T17:02:30Z</time>
      </trkpt>
      <trkpt lat="10.3642378" lon="-85.8120754">
        <ele>43.5</ele>
        <time>2022-10-06T17:02:31Z</time>
      </trkpt>
      <trkpt lat="10.3642418" lon="-85.8121423">
        <ele>43.6</ele>
        <time>2022-10-06T17:02:32Z</time>
      </trkpt>
      <trkpt lat="10.3642464" lon="-85.8122079">
        <ele>43.7</ele>
        <time>2022-10-06T17:02:33Z</time>
      </trkpt>
      <trkpt lat="10.3642505" lon="-85.8122722">
        <ele>43.9</ele>
        <time>2022-10-06T17:02:34Z</time>
      </trkpt>
      <trkpt lat="10.3642526" lon="-85.8123305">
        <ele>44.0</ele>
        <time>2022-10-06T17:02:35Z</time>
      </trkpt>
      <trkpt lat="10.3642549" lon="-85.8123777">
        <ele>44.0</ele>
        <time>2022-10-06T17:02:36Z</time>
      </trkpt>
      <trkpt lat="10.3642623" lon="-85.8124142">
        <ele>44.0</ele>
        <time>2022-10-06T17:02:37Z</time>
      </trkpt>
      <trkpt lat="10.3642684" lon="-85.8124358">
        <ele>44.0</ele>
        <time>2022-10-06T17:02:38Z</time>
      </trkpt>
      <trkpt lat="10.3642838" lon="-85.8124527">
        <ele>44.1</ele>
        <time>2022-10-06T17:02:39Z</time>
      </trkpt>
      <trkpt lat="10.3643026" lon="-85.8124601">
        <ele>44.0</ele>
        <time>2022-10-06T17:02:40Z</time>
      </trkpt>
      <trkpt lat="10.3643205" lon="-85.8124679">
        <ele>44.1</ele>
        <time>2022-10-06T17:02:41Z</time>
      </trkpt>
      <trkpt lat="10.3643412" lon="-85.8124737">
        <ele>44.1</ele>
        <time>2022-10-06T17:02:42Z</time>
      </trkpt>
      <trkpt lat="10.3643616" lon="-85.8124745">
        <ele>44.2</ele>
        <time>2022-10-06T17:02:43Z</time>
      </trkpt>
      <trkpt lat="10.3643844" lon="-85.8124721">
        <ele>44.2</ele>
        <time>2022-10-06T17:02:44Z</time>
      </trkpt>
      <trkpt lat="10.3644157" lon="-85.8124697">
        <ele>44.2</ele>
        <time>2022-10-06T17:02:45Z</time>
      </trkpt>
      <trkpt lat="10.3644490" lon="-85.8124676">
        <ele>44.3</ele>
        <time>2022-10-06T17:02:46Z</time>
      </trkpt>
      <trkpt lat="10.3644908" lon="-85.8124642">
        <ele>44.4</ele>
        <time>2022-10-06T17:02:47Z</time>
      </trkpt>
      <trkpt lat="10.3645401" lon="-85.8124573">
        <ele>44.5</ele>
        <time>2022-10-06T17:02:48Z</time>
      </trkpt>
      <trkpt lat="10.3645929" lon="-85.8124492">
        <ele>44.6</ele>
        <time>2022-10-06T17:02:49Z</time>
      </trkpt>
      <trkpt lat="10.3646477" lon="-85.8124392">
        <ele>44.7</ele>
        <time>2022-10-06T17:02:50Z</time>
      </trkpt>
      <trkpt lat="10.3647040" lon="-85.8124279">
        <ele>44.7</ele>
        <time>2022-10-06T17:02:51Z</time>
      </trkpt>
      <trkpt lat="10.3647613" lon="-85.8124153">
        <ele>44.7</ele>
        <time>2022-10-06T17:02:52Z</time>
      </trkpt>
      <trkpt lat="10.3648203" lon="-85.8124032">
        <ele>44.8</ele>
        <time>2022-10-06T17:02:53Z</time>
      </trkpt>
      <trkpt lat="10.3648761" lon="-85.8123896">
        <ele>44.9</ele>
        <time>2022-10-06T17:02:54Z</time>
      </trkpt>
      <trkpt lat="10.3649289" lon="-85.8123742">
        <ele>44.9</ele>
        <time>2022-10-06T17:02:55Z</time>
      </trkpt>
      <trkpt lat="10.3649820" lon="-85.8123551">
        <ele>45.0</ele>
        <time>2022-10-06T17:02:56Z</time>
      </trkpt>
      <trkpt lat="10.3650353" lon="-85.8123356">
        <ele>44.8</ele>
        <time>2022-10-06T17:02:57Z</time>
      </trkpt>
      <trkpt lat="10.3650954" lon="-85.8123210">
        <ele>44.9</ele>
        <time>2022-10-06T17:02:58Z</time>
      </trkpt>
      <trkpt lat="10.3651568" lon="-85.8123069">
        <ele>45.0</ele>
        <time>2022-10-06T17:02:59Z</time>
      </trkpt>
      <trkpt lat="10.3652192" lon="-85.8122942">
        <ele>45.0</ele>
        <time>2022-10-06T17:03:00Z</time>
      </trkpt>
      <trkpt lat="10.3652795" lon="-85.8122808">
        <ele>45.1</ele>
        <time>2022-10-06T17:03:01Z</time>
      </trkpt>
      <trkpt lat="10.3653474" lon="-85.8122694">
        <ele>45.2</ele>
        <time>2022-10-06T17:03:02Z</time>
      </trkpt>
      <trkpt lat="10.3654153" lon="-85.8122560">
        <ele>45.3</ele>
        <time>2022-10-06T17:03:03Z</time>
      </trkpt>
      <trkpt lat="10.3654830" lon="-85.8122411">
        <ele>45.3</ele>
        <time>2022-10-06T17:03:04Z</time>
      </trkpt>
      <trkpt lat="10.3655534" lon="-85.8122306">
        <ele>45.4</ele>
        <time>2022-10-06T17:03:05Z</time>
      </trkpt>
      <trkpt lat="10.3656191" lon="-85.8122212">
        <ele>45.5</ele>
        <time>2022-10-06T17:03:06Z</time>
      </trkpt>
      <trkpt lat="10.3656846" lon="-85.8122079">
        <ele>45.8</ele>
        <time>2022-10-06T17:03:07Z</time>
      </trkpt>
      <trkpt lat="10.3657481" lon="-85.8121938">
        <ele>46.0</ele>
        <time>2022-10-06T17:03:08Z</time>
      </trkpt>
      <trkpt lat="10.3658056" lon="-85.8121801">
        <ele>46.1</ele>
        <time>2022-10-06T17:03:09Z</time>
      </trkpt>
      <trkpt lat="10.3658601" lon="-85.8121645">
        <ele>46.2</ele>
        <time>2022-10-06T17:03:10Z</time>
      </trkpt>
      <trkpt lat="10.3659144" lon="-85.8121502">
        <ele>46.4</ele>
        <time>2022-10-06T17:03:11Z</time>
      </trkpt>
      <trkpt lat="10.3659706" lon="-85.8121349">
        <ele>46.4</ele>
        <time>2022-10-06T17:03:12Z</time>
      </trkpt>
      <trkpt lat="10.3660249" lon="-85.8121234">
        <ele>46.6</ele>
        <time>2022-10-06T17:03:13Z</time>
      </trkpt>
      <trkpt lat="10.3660801" lon="-85.8121126">
        <ele>46.7</ele>
        <time>2022-10-06T17:03:14Z</time>
      </trkpt>
      <trkpt lat="10.3661414" lon="-85.8121033">
        <ele>46.9</ele>
        <time>2022-10-06T17:03:15Z</time>
      </trkpt>
      <trkpt lat="10.3662064" lon="-85.8120927">
        <ele>47.1</ele>
        <time>2022-10-06T17:03:16Z</time>
      </trkpt>
      <trkpt lat="10.3662741" lon="-85.8120802">
        <ele>47.2</ele>
        <time>2022-10-06T17:03:17Z</time>
      </trkpt>
      <trkpt lat="10.3663446" lon="-85.8120648">
        <ele>47.4</ele>
        <time>2022-10-06T17:03:18Z</time>
      </trkpt>
      <trkpt lat="10.3664147" lon="-85.8120507">
        <ele>47.3</ele>
        <time>2022-10-06T17:03:19Z</time>
      </trkpt>
      <trkpt lat="10.3664816" lon="-85.8120344">
        <ele>47.2</ele>
        <time>2022-10-06T17:03:20Z</time>
      </trkpt>
      <trkpt lat="10.3665506" lon="-85.8120173">
        <ele>47.1</ele>
        <time>2022-10-06T17:03:21Z</time>
      </trkpt>
      <trkpt lat="10.3666175" lon="-85.8119976">
        <ele>47.1</ele>
        <time>2022-10-06T17:03:22Z</time>
      </trkpt>
      <trkpt lat="10.3666835" lon="-85.8119735">
        <ele>46.9</ele>
        <time>2022-10-06T17:03:23Z</time>
      </trkpt>
      <trkpt lat="10.3667460" lon="-85.8119413">
        <ele>47.0</ele>
        <time>2022-10-06T17:03:24Z</time>
      </trkpt>
      <trkpt lat="10.3668051" lon="-85.8119043">
        <ele>46.9</ele>
        <time>2022-10-06T17:03:25Z</time>
      </trkpt>
      <trkpt lat="10.3668632" lon="-85.8118628">
        <ele>46.8</ele>
        <time>2022-10-06T17:03:26Z</time>
      </trkpt>
      <trkpt lat="10.3669196" lon="-85.8118187">
        <ele>46.7</ele>
        <time>2022-10-06T17:03:27Z</time>
      </trkpt>
      <trkpt lat="10.3669762" lon="-85.8117742">
        <ele>46.6</ele>
        <time>2022-10-06T17:03:28Z</time>
      </trkpt>
      <trkpt lat="10.3670328" lon="-85.8117312">
        <ele>46.6</ele>
        <time>2022-10-06T17:03:29Z</time>
      </trkpt>
      <trkpt lat="10.3670890" lon="-85.8116906">
        <ele>46.5</ele>
        <time>2022-10-06T17:03:30Z</time>
      </trkpt>
      <trkpt lat="10.3671427" lon="-85.8116491">
        <ele>46.5</ele>
        <time>2022-10-06T17:03:31Z</time>
      </trkpt>
      <trkpt lat="10.3671982" lon="-85.8116055">
        <ele>46.5</ele>
        <time>2022-10-06T17:03:32Z</time>
      </trkpt>
      <trkpt lat="10.3672544" lon="-85.8115630">
        <ele>46.4</ele>
        <time>2022-10-06T17:03:33Z</time>
      </trkpt>
      <trkpt lat="10.3673107" lon="-85.8115192">
        <ele>46.3</ele>
        <time>2022-10-06T17:03:34Z</time>
      </trkpt>
      <trkpt lat="10.3673657" lon="-85.8114786">
        <ele>46.1</ele>
        <time>2022-10-06T17:03:35Z</time>
      </trkpt>
      <trkpt lat="10.3674166" lon="-85.8114409">
        <ele>46.0</ele>
        <time>2022-10-06T17:03:36Z</time>
      </trkpt>
      <trkpt lat="10.3674578" lon="-85.8114091">
        <ele>46.0</ele>
        <time>2022-10-06T17:03:37Z</time>
      </trkpt>
      <trkpt lat="10.3674903" lon="-85.8113826">
        <ele>46.0</ele>
        <time>2022-10-06T17:03:38Z</time>
      </trkpt>
      <trkpt lat="10.3675145" lon="-85.8113621">
        <ele>46.1</ele>
        <time>2022-10-06T17:03:39Z</time>
      </trkpt>
      <trkpt lat="10.3675306" lon="-85.8113483">
        <ele>46.1</ele>
        <time>2022-10-06T17:03:40Z</time>
      </trkpt>
      <trkpt lat="10.3675450" lon="-85.8113368">
        <ele>46.1</ele>
        <time>2022-10-06T17:03:41Z</time>
      </trkpt>
      <trkpt lat="10.3675567" lon="-85.8113268">
        <ele>46.1</ele>
        <time>2022-10-06T17:03:42Z</time>
      </trkpt>
      <trkpt lat="10.3675721" lon="-85.8113159">
        <ele>46.1</ele>
        <time>2022-10-06T17:03:43Z</time>
      </trkpt>
      <trkpt lat="10.3675915" lon="-85.8113037">
        <ele>46.0</ele>
        <time>2022-10-06T17:03:44Z</time>
      </trkpt>
      <trkpt lat="10.3676084" lon="-85.8112917">
        <ele>46.1</ele>
        <time>2022-10-06T17:03:45Z</time>
      </trkpt>
      <trkpt lat="10.3676320" lon="-85.8112798">
        <ele>46.1</ele>
        <time>2022-10-06T17:03:46Z</time>
      </trkpt>
      <trkpt lat="10.3676585" lon="-85.8112671">
        <ele>46.2</ele>
        <time>2022-10-06T17:03:47Z</time>
      </trkpt>
      <trkpt lat="10.3676893" lon="-85.8112522">
        <ele>46.3</ele>
        <time>2022-10-06T17:03:48Z</time>
      </trkpt>
      <trkpt lat="10.3677225" lon="-85.8112315">
        <ele>46.4</ele>
        <time>2022-10-06T17:03:49Z</time>
      </trkpt>
      <trkpt lat="10.3677520" lon="-85.8112109">
        <ele>46.5</ele>
        <time>2022-10-06T17:03:50Z</time>
      </trkpt>
      <trkpt lat="10.3677828" lon="-85.8111861">
        <ele>46.5</ele>
        <time>2022-10-06T17:03:51Z</time>
      </trkpt>
      <trkpt lat="10.3678134" lon="-85.8111583">
        <ele>46.5</ele>
        <time>2022-10-06T17:03:52Z</time>
      </trkpt>
      <trkpt lat="10.3678432" lon="-85.8111273">
        <ele>46.6</ele>
        <time>2022-10-06T17:03:53Z</time>
      </trkpt>
      <trkpt lat="10.3678726" lon="-85.8110954">
        <ele>46.5</ele>
        <time>2022-10-06T17:03:54Z</time>
      </trkpt>
      <trkpt lat="10.3678998" lon="-85.8110604">
        <ele>46.9</ele>
        <time>2022-10-06T17:03:55Z</time>
      </trkpt>
      <trkpt lat="10.3679292" lon="-85.8110255">
        <ele>47.0</ele>
        <time>2022-10-06T17:03:56Z</time>
      </trkpt>
      <trkpt lat="10.3679606" lon="-85.8109888">
        <ele>46.8</ele>
        <time>2022-10-06T17:03:57Z</time>
      </trkpt>
      <trkpt lat="10.3679933" lon="-85.8109488">
        <ele>46.7</ele>
        <time>2022-10-06T17:03:58Z</time>
      </trkpt>
      <trkpt lat="10.3680256" lon="-85.8109069">
        <ele>46.6</ele>
        <time>2022-10-06T17:03:59Z</time>
      </trkpt>
      <trkpt lat="10.3680559" lon="-85.8108654">
        <ele>46.3</ele>
        <time>2022-10-06T17:04:00Z</time>
      </trkpt>
      <trkpt lat="10.3680794" lon="-85.8108297">
        <ele>46.3</ele>
        <time>2022-10-06T17:04:01Z</time>
      </trkpt>
      <trkpt lat="10.3681010" lon="-85.8107989">
        <ele>46.6</ele>
        <time>2022-10-06T17:04:02Z</time>
      </trkpt>
      <trkpt lat="10.3681234" lon="-85.8107707">
        <ele>46.5</ele>
        <time>2022-10-06T17:04:03Z</time>
      </trkpt>
      <trkpt lat="10.3681614" lon="-85.8107463">
        <ele>46.5</ele>
        <time>2022-10-06T17:04:04Z</time>
      </trkpt>
      <trkpt lat="10.3681905" lon="-85.8107187">
        <ele>46.5</ele>
        <time>2022-10-06T17:04:05Z</time>
      </trkpt>
      <trkpt lat="10.3682132" lon="-85.8106976">
        <ele>46.5</ele>
        <time>2022-10-06T17:04:06Z</time>
      </trkpt>
      <trkpt lat="10.3682300" lon="-85.8106805">
        <ele>46.5</ele>
        <time>2022-10-06T17:04:07Z</time>
      </trkpt>
      <trkpt lat="10.3682467" lon="-85.8106606">
        <ele>46.6</ele>
        <time>2022-10-06T17:04:08Z</time>
      </trkpt>
      <trkpt lat="10.3682613" lon="-85.8106384">
        <ele>46.7</ele>
        <time>2022-10-06T17:04:09Z</time>
      </trkpt>
      <trkpt lat="10.3682770" lon="-85.8106111">
        <ele>46.9</ele>
        <time>2022-10-06T17:04:10Z</time>
      </trkpt>
      <trkpt lat="10.3682955" lon="-85.8105794">
        <ele>46.9</ele>
        <time>2022-10-06T17:04:11Z</time>
      </trkpt>
      <trkpt lat="10.3683192" lon="-85.8105437">
        <ele>47.3</ele>
        <time>2022-10-06T17:04:12Z</time>
      </trkpt>
      <trkpt lat="10.3683466" lon="-85.8105108">
        <ele>47.4</ele>
        <time>2022-10-06T17:04:13Z</time>
      </trkpt>
      <trkpt lat="10.3683779" lon="-85.8104748">
        <ele>47.5</ele>
        <time>2022-10-06T17:04:14Z</time>
      </trkpt>
      <trkpt lat="10.3684100" lon="-85.8104367">
        <ele>47.5</ele>
        <time>2022-10-06T17:04:15Z</time>
      </trkpt>
      <trkpt lat="10.3684404" lon="-85.8103949">
        <ele>47.6</ele>
        <time>2022-10-06T17:04:16Z</time>
      </trkpt>
      <trkpt lat="10.3684736" lon="-85.8103514">
        <ele>47.6</ele>
        <time>2022-10-06T17:04:17Z</time>
      </trkpt>
      <trkpt lat="10.3685101" lon="-85.8103117">
        <ele>47.7</ele>
        <time>2022-10-06T17:04:18Z</time>
      </trkpt>
      <trkpt lat="10.3685499" lon="-85.8102713">
        <ele>47.9</ele>
        <time>2022-10-06T17:04:19Z</time>
      </trkpt>
      <trkpt lat="10.3685987" lon="-85.8102313">
        <ele>48.0</ele>
        <time>2022-10-06T17:04:20Z</time>
      </trkpt>
      <trkpt lat="10.3686445" lon="-85.8101930">
        <ele>48.0</ele>
        <time>2022-10-06T17:04:21Z</time>
      </trkpt>
      <trkpt lat="10.3686925" lon="-85.8101522">
        <ele>48.1</ele>
        <time>2022-10-06T17:04:22Z</time>
      </trkpt>
      <trkpt lat="10.3687383" lon="-85.8101157">
        <ele>48.0</ele>
        <time>2022-10-06T17:04:23Z</time>
      </trkpt>
      <trkpt lat="10.3687796" lon="-85.8100734">
        <ele>48.1</ele>
        <time>2022-10-06T17:04:24Z</time>
      </trkpt>
      <trkpt lat="10.3688227" lon="-85.8100376">
        <ele>48.0</ele>
        <time>2022-10-06T17:04:25Z</time>
      </trkpt>
      <trkpt lat="10.3688716" lon="-85.8100088">
        <ele>48.1</ele>
        <time>2022-10-06T17:04:26Z</time>
      </trkpt>
      <trkpt lat="10.3689284" lon="-85.8099844">
        <ele>48.2</ele>
        <time>2022-10-06T17:04:27Z</time>
      </trkpt>
      <trkpt lat="10.3689885" lon="-85.8099657">
        <ele>48.3</ele>
        <time>2022-10-06T17:04:28Z</time>
      </trkpt>
      <trkpt lat="10.3690514" lon="-85.8099444">
        <ele>48.5</ele>
        <time>2022-10-06T17:04:29Z</time>
      </trkpt>
      <trkpt lat="10.3691153" lon="-85.8099230">
        <ele>48.7</ele>
        <time>2022-10-06T17:04:30Z</time>
      </trkpt>
      <trkpt lat="10.3691811" lon="-85.8099022">
        <ele>49.2</ele>
        <time>2022-10-06T17:04:31Z</time>
      </trkpt>
      <trkpt lat="10.3692465" lon="-85.8098810">
        <ele>49.6</ele>
        <time>2022-10-06T17:04:32Z</time>
      </trkpt>
      <trkpt lat="10.3693114" lon="-85.8098614">
        <ele>50.2</ele>
        <time>2022-10-06T17:04:33Z</time>
      </trkpt>
      <trkpt lat="10.3693759" lon="-85.8098401">
        <ele>50.5</ele>
        <time>2022-10-06T17:04:34Z</time>
      </trkpt>
      <trkpt lat="10.3694384" lon="-85.8098186">
        <ele>50.8</ele>
        <time>2022-10-06T17:04:35Z</time>
      </trkpt>
      <trkpt lat="10.3695003" lon="-85.8097988">
        <ele>51.1</ele>
        <time>2022-10-06T17:04:36Z</time>
      </trkpt>
      <trkpt lat="10.3695587" lon="-85.8097785">
        <ele>51.3</ele>
        <time>2022-10-06T17:04:37Z</time>
      </trkpt>
      <trkpt lat="10.3696122" lon="-85.8097591">
        <ele>51.5</ele>
        <time>2022-10-06T17:04:38Z</time>
      </trkpt>
      <trkpt lat="10.3696657" lon="-85.8097413">
        <ele>51.6</ele>
        <time>2022-10-06T17:04:39Z</time>
      </trkpt>
      <trkpt lat="10.3697181" lon="-85.8097232">
        <ele>51.7</ele>
        <time>2022-10-06T17:04:40Z</time>
      </trkpt>
      <trkpt lat="10.3697646" lon="-85.8097037">
        <ele>51.6</ele>
        <time>2022-10-06T17:04:41Z</time>
      </trkpt>
      <trkpt lat="10.3697985" lon="-85.8096847">
        <ele>51.4</ele>
        <time>2022-10-06T17:04:42Z</time>
      </trkpt>
      <trkpt lat="10.3698221" lon="-85.8096699">
        <ele>51.4</ele>
        <time>2022-10-06T17:04:43Z</time>
      </trkpt>
      <trkpt lat="10.3698344" lon="-85.8096603">
        <ele>51.3</ele>
        <time>2022-10-06T17:04:44Z</time>
      </trkpt>
      <trkpt lat="10.3698455" lon="-85.8096548">
        <ele>51.3</ele>
        <time>2022-10-06T17:04:45Z</time>
      </trkpt>
      <trkpt lat="10.3698574" lon="-85.8096472">
        <ele>51.3</ele>
        <time>2022-10-06T17:04:46Z</time>
      </trkpt>
      <trkpt lat="10.3698699" lon="-85.8096391">
        <ele>51.2</ele>
        <time>2022-10-06T17:04:47Z</time>
      </trkpt>
      <trkpt lat="10.3698845" lon="-85.8096304">
        <ele>51.3</ele>
        <time>2022-10-06T17:04:48Z</time>
      </trkpt>
      <trkpt lat="10.3699017" lon="-85.8096213">
        <ele>50.9</ele>
        <time>2022-10-06T17:04:49Z</time>
      </trkpt>
      <trkpt lat="10.3699243" lon="-85.8096122">
        <ele>50.7</ele>
        <time>2022-10-06T17:04:50Z</time>
      </trkpt>
      <trkpt lat="10.3699524" lon="-85.8095982">
        <ele>50.6</ele>
        <time>2022-10-06T17:04:51Z</time>
      </trkpt>
      <trkpt lat="10.3699836" lon="-85.8095798">
        <ele>50.4</ele>
        <time>2022-10-06T17:04:52Z</time>
      </trkpt>
      <trkpt lat="10.3700139" lon="-85.8095594">
        <ele>50.3</ele>
        <time>2022-10-06T17:04:53Z</time>
      </trkpt>
      <trkpt lat="10.3700481" lon="-85.8095374">
        <ele>50.1</ele>
        <time>2022-10-06T17:04:54Z</time>
      </trkpt>
      <trkpt lat="10.3700845" lon="-85.8095101">
        <ele>50.1</ele>
        <time>2022-10-06T17:04:55Z</time>
      </trkpt>
      <trkpt lat="10.3701242" lon="-85.8094805">
        <ele>49.9</ele>
        <time>2022-10-06T17:04:56Z</time>
      </trkpt>
      <trkpt lat="10.3701644" lon="-85.8094485">
        <ele>49.9</ele>
        <time>2022-10-06T17:04:57Z</time>
      </trkpt>
      <trkpt lat="10.3702065" lon="-85.8094171">
        <ele>49.8</ele>
        <time>2022-10-06T17:04:58Z</time>
      </trkpt>
      <trkpt lat="10.3702458" lon="-85.8093836">
        <ele>49.8</ele>
        <time>2022-10-06T17:04:59Z</time>
      </trkpt>
      <trkpt lat="10.3702783" lon="-85.8093544">
        <ele>50.0</ele>
        <time>2022-10-06T17:05:00Z</time>
      </trkpt>
      <trkpt lat="10.3703079" lon="-85.8093249">
        <ele>49.9</ele>
        <time>2022-10-06T17:05:01Z</time>
      </trkpt>
      <trkpt lat="10.3703338" lon="-85.8092934">
        <ele>50.0</ele>
        <time>2022-10-06T17:05:02Z</time>
      </trkpt>
      <trkpt lat="10.3703577" lon="-85.8092560">
        <ele>49.9</ele>
        <time>2022-10-06T17:05:03Z</time>
      </trkpt>
      <trkpt lat="10.3703831" lon="-85.8092161">
        <ele>49.7</ele>
        <time>2022-10-06T17:05:04Z</time>
      </trkpt>
      <trkpt lat="10.3704107" lon="-85.8091758">
        <ele>50.0</ele>
        <time>2022-10-06T17:05:05Z</time>
      </trkpt>
      <trkpt lat="10.3704391" lon="-85.8091327">
        <ele>49.7</ele>
        <time>2022-10-06T17:05:06Z</time>
      </trkpt>
      <trkpt lat="10.3704700" lon="-85.8090892">
        <ele>49.9</ele>
        <time>2022-10-06T17:05:07Z</time>
      </trkpt>
      <trkpt lat="10.3705009" lon="-85.8090444">
        <ele>50.0</ele>
        <time>2022-10-06T17:05:08Z</time>
      </trkpt>
      <trkpt lat="10.3705301" lon="-85.8090052">
        <ele>49.9</ele>
        <time>2022-10-06T17:05:09Z</time>
      </trkpt>
      <trkpt lat="10.3705607" lon="-85.8089659">
        <ele>49.5</ele>
        <time>2022-10-06T17:05:10Z</time>
      </trkpt>
      <trkpt lat="10.3705877" lon="-85.8089266">
        <ele>49.5</ele>
        <time>2022-10-06T17:05:11Z</time>
      </trkpt>
      <trkpt lat="10.3706153" lon="-85.8088802">
        <ele>49.4</ele>
        <time>2022-10-06T17:05:12Z</time>
      </trkpt>
      <trkpt lat="10.3706421" lon="-85.8088323">
        <ele>49.4</ele>
        <time>2022-10-06T17:05:13Z</time>
      </trkpt>
      <trkpt lat="10.3706722" lon="-85.8087868">
        <ele>49.3</ele>
        <time>2022-10-06T17:05:14Z</time>
      </trkpt>
      <trkpt lat="10.3707000" lon="-85.8087430">
        <ele>49.3</ele>
        <time>2022-10-06T17:05:15Z</time>
      </trkpt>
      <trkpt lat="10.3707314" lon="-85.8087059">
        <ele>49.0</ele>
        <time>2022-10-06T17:05:16Z</time>
      </trkpt>
      <trkpt lat="10.3707645" lon="-85.8086723">
        <ele>48.8</ele>
        <time>2022-10-06T17:05:17Z</time>
      </trkpt>
      <trkpt lat="10.3707982" lon="-85.8086427">
        <ele>49.0</ele>
        <time>2022-10-06T17:05:18Z</time>
      </trkpt>
      <trkpt lat="10.3708413" lon="-85.8086075">
        <ele>49.5</ele>
        <time>2022-10-06T17:05:19Z</time>
      </trkpt>
      <trkpt lat="10.3708645" lon="-85.8085863">
        <ele>49.4</ele>
        <time>2022-10-06T17:05:20Z</time>
      </trkpt>
      <trkpt lat="10.3708925" lon="-85.8085582">
        <ele>49.3</ele>
        <time>2022-10-06T17:05:21Z</time>
      </trkpt>
      <trkpt lat="10.3709126" lon="-85.8085386">
        <ele>49.2</ele>
        <time>2022-10-06T17:05:22Z</time>
      </trkpt>
      <trkpt lat="10.3709302" lon="-85.8085225">
        <ele>49.3</ele>
        <time>2022-10-06T17:05:23Z</time>
      </trkpt>
      <trkpt lat="10.3709428" lon="-85.8085104">
        <ele>49.3</ele>
        <time>2022-10-06T17:05:24Z</time>
      </trkpt>
      <trkpt lat="10.3709584" lon="-85.8084991">
        <ele>49.3</ele>
        <time>2022-10-06T17:05:25Z</time>
      </trkpt>
      <trkpt lat="10.3709789" lon="-85.8084862">
        <ele>49.4</ele>
        <time>2022-10-06T17:05:26Z</time>
      </trkpt>
      <trkpt lat="10.3709990" lon="-85.8084790">
        <ele>49.2</ele>
        <time>2022-10-06T17:05:27Z</time>
      </trkpt>
      <trkpt lat="10.3710234" lon="-85.8084618">
        <ele>49.3</ele>
        <time>2022-10-06T17:05:28Z</time>
      </trkpt>
      <trkpt lat="10.3710411" lon="-85.8084510">
        <ele>49.5</ele>
        <time>2022-10-06T17:05:29Z</time>
      </trkpt>
      <trkpt lat="10.3710624" lon="-85.8084431">
        <ele>49.3</ele>
        <time>2022-10-06T17:05:30Z</time>
      </trkpt>
      <trkpt lat="10.3710791" lon="-85.8084379">
        <ele>49.4</ele>
        <time>2022-10-06T17:05:31Z</time>
      </trkpt>
      <trkpt lat="10.3711003" lon="-85.8084294">
        <ele>49.3</ele>
        <time>2022-10-06T17:05:32Z</time>
      </trkpt>
      <trkpt lat="10.3711157" lon="-85.8084252">
        <ele>49.3</ele>
        <time>2022-10-06T17:05:33Z</time>
      </trkpt>
      <trkpt lat="10.3711329" lon="-85.8084199">
        <ele>49.1</ele>
        <time>2022-10-06T17:05:34Z</time>
      </trkpt>
      <trkpt lat="10.3711563" lon="-85.8084137">
        <ele>49.1</ele>
        <time>2022-10-06T17:05:35Z</time>
      </trkpt>
      <trkpt lat="10.3711856" lon="-85.8084064">
        <ele>49.2</ele>
        <time>2022-10-06T17:05:36Z</time>
      </trkpt>
      <trkpt lat="10.3712181" lon="-85.8083969">
        <ele>49.1</ele>
        <time>2022-10-06T17:05:37Z</time>
      </trkpt>
      <trkpt lat="10.3712482" lon="-85.8083895">
        <ele>49.3</ele>
        <time>2022-10-06T17:05:38Z</time>
      </trkpt>
      <trkpt lat="10.3712887" lon="-85.8083750">
        <ele>49.2</ele>
        <time>2022-10-06T17:05:39Z</time>
      </trkpt>
      <trkpt lat="10.3713327" lon="-85.8083588">
        <ele>49.5</ele>
        <time>2022-10-06T17:05:40Z</time>
      </trkpt>
      <trkpt lat="10.3713801" lon="-85.8083401">
        <ele>49.7</ele>
        <time>2022-10-06T17:05:41Z</time>
      </trkpt>
      <trkpt lat="10.3714294" lon="-85.8083227">
        <ele>50.1</ele>
        <time>2022-10-06T17:05:42Z</time>
      </trkpt>
      <trkpt lat="10.3714780" lon="-85.8083068">
        <ele>50.1</ele>
        <time>2022-10-06T17:05:43Z</time>
      </trkpt>
      <trkpt lat="10.3715258" lon="-85.8082944">
        <ele>50.5</ele>
        <time>2022-10-06T17:05:44Z</time>
      </trkpt>
      <trkpt lat="10.3715771" lon="-85.8082827">
        <ele>50.9</ele>
        <time>2022-10-06T17:05:45Z</time>
      </trkpt>
      <trkpt lat="10.3716300" lon="-85.8082727">
        <ele>51.3</ele>
        <time>2022-10-06T17:05:46Z</time>
      </trkpt>
      <trkpt lat="10.3716834" lon="-85.8082645">
        <ele>51.6</ele>
        <time>2022-10-06T17:05:47Z</time>
      </trkpt>
      <trkpt lat="10.3717377" lon="-85.8082559">
        <ele>51.6</ele>
        <time>2022-10-06T17:05:48Z</time>
      </trkpt>
      <trkpt lat="10.3717966" lon="-85.8082507">
        <ele>51.7</ele>
        <time>2022-10-06T17:05:49Z</time>
      </trkpt>
      <trkpt lat="10.3718431" lon="-85.8082473">
        <ele>52.0</ele>
        <time>2022-10-06T17:05:50Z</time>
      </trkpt>
      <trkpt lat="10.3718977" lon="-85.8082438">
        <ele>52.1</ele>
        <time>2022-10-06T17:05:51Z</time>
      </trkpt>
      <trkpt lat="10.3719521" lon="-85.8082417">
        <ele>52.0</ele>
        <time>2022-10-06T17:05:52Z</time>
      </trkpt>
      <trkpt lat="10.3720053" lon="-85.8082417">
        <ele>52.3</ele>
        <time>2022-10-06T17:05:53Z</time>
      </trkpt>
      <trkpt lat="10.3720580" lon="-85.8082421">
        <ele>52.5</ele>
        <time>2022-10-06T17:05:54Z</time>
      </trkpt>
      <trkpt lat="10.3721073" lon="-85.8082427">
        <ele>53.1</ele>
        <time>2022-10-06T17:05:55Z</time>
      </trkpt>
      <trkpt lat="10.3721562" lon="-85.8082442">
        <ele>53.6</ele>
        <time>2022-10-06T17:05:56Z</time>
      </trkpt>
      <trkpt lat="10.3722067" lon="-85.8082508">
        <ele>53.5</ele>
        <time>2022-10-06T17:05:57Z</time>
      </trkpt>
      <trkpt lat="10.3722533" lon="-85.8082574">
        <ele>53.6</ele>
        <time>2022-10-06T17:05:58Z</time>
      </trkpt>
      <trkpt lat="10.3723079" lon="-85.8082502">
        <ele>53.1</ele>
        <time>2022-10-06T17:05:59Z</time>
      </trkpt>
      <trkpt lat="10.3723657" lon="-85.8082505">
        <ele>53.3</ele>
        <time>2022-10-06T17:06:00Z</time>
      </trkpt>
      <trkpt lat="10.3724266" lon="-85.8082518">
        <ele>53.6</ele>
        <time>2022-10-06T17:06:01Z</time>
      </trkpt>
      <trkpt lat="10.3724879" lon="-85.8082546">
        <ele>53.7</ele>
        <time>2022-10-06T17:06:02Z</time>
      </trkpt>
      <trkpt lat="10.3725488" lon="-85.8082575">
        <ele>53.9</ele>
        <time>2022-10-06T17:06:03Z</time>
      </trkpt>
      <trkpt lat="10.3726081" lon="-85.8082587">
        <ele>53.9</ele>
        <time>2022-10-06T17:06:04Z</time>
      </trkpt>
      <trkpt lat="10.3726657" lon="-85.8082603">
        <ele>54.0</ele>
        <time>2022-10-06T17:06:05Z</time>
      </trkpt>
      <trkpt lat="10.3727214" lon="-85.8082648">
        <ele>54.1</ele>
        <time>2022-10-06T17:06:06Z</time>
      </trkpt>
      <trkpt lat="10.3727757" lon="-85.8082705">
        <ele>54.2</ele>
        <time>2022-10-06T17:06:07Z</time>
      </trkpt>
      <trkpt lat="10.3728261" lon="-85.8082751">
        <ele>54.4</ele>
        <time>2022-10-06T17:06:08Z</time>
      </trkpt>
      <trkpt lat="10.3728735" lon="-85.8082788">
        <ele>54.5</ele>
        <time>2022-10-06T17:06:09Z</time>
      </trkpt>
      <trkpt lat="10.3729123" lon="-85.8082837">
        <ele>54.6</ele>
        <time>2022-10-06T17:06:10Z</time>
      </trkpt>
      <trkpt lat="10.3729509" lon="-85.8082873">
        <ele>54.6</ele>
        <time>2022-10-06T17:06:11Z</time>
      </trkpt>
      <trkpt lat="10.3729890" lon="-85.8082899">
        <ele>55.3</ele>
        <time>2022-10-06T17:06:12Z</time>
      </trkpt>
      <trkpt lat="10.3730221" lon="-85.8082923">
        <ele>55.2</ele>
        <time>2022-10-06T17:06:13Z</time>
      </trkpt>
      <trkpt lat="10.3730525" lon="-85.8082916">
        <ele>55.0</ele>
        <time>2022-10-06T17:06:14Z</time>
      </trkpt>
      <trkpt lat="10.3730873" lon="-85.8082903">
        <ele>54.9</ele>
        <time>2022-10-06T17:06:15Z</time>
      </trkpt>
      <trkpt lat="10.3731182" lon="-85.8082904">
        <ele>55.0</ele>
        <time>2022-10-06T17:06:16Z</time>
      </trkpt>
      <trkpt lat="10.3731542" lon="-85.8082907">
        <ele>54.9</ele>
        <time>2022-10-06T17:06:17Z</time>
      </trkpt>
      <trkpt lat="10.3731852" lon="-85.8082920">
        <ele>54.9</ele>
        <time>2022-10-06T17:06:18Z</time>
      </trkpt>
      <trkpt lat="10.3732144" lon="-85.8082933">
        <ele>55.0</ele>
        <time>2022-10-06T17:06:19Z</time>
      </trkpt>
      <trkpt lat="10.3732482" lon="-85.8082925">
        <ele>55.0</ele>
        <time>2022-10-06T17:06:20Z</time>
      </trkpt>
      <trkpt lat="10.3732832" lon="-85.8082927">
        <ele>54.9</ele>
        <time>2022-10-06T17:06:21Z</time>
      </trkpt>
      <trkpt lat="10.3733191" lon="-85.8082938">
        <ele>54.9</ele>
        <time>2022-10-06T17:06:22Z</time>
      </trkpt>
      <trkpt lat="10.3733538" lon="-85.8082960">
        <ele>54.9</ele>
        <time>2022-10-06T17:06:23Z</time>
      </trkpt>
      <trkpt lat="10.3733860" lon="-85.8082940">
        <ele>55.0</ele>
        <time>2022-10-06T17:06:24Z</time>
      </trkpt>
      <trkpt lat="10.3734130" lon="-85.8082951">
        <ele>55.1</ele>
        <time>2022-10-06T17:06:25Z</time>
      </trkpt>
      <trkpt lat="10.3734434" lon="-85.8082967">
        <ele>55.1</ele>
        <time>2022-10-06T17:06:26Z</time>
      </trkpt>
      <trkpt lat="10.3734793" lon="-85.8083000">
        <ele>55.1</ele>
        <time>2022-10-06T17:06:27Z</time>
      </trkpt>
      <trkpt lat="10.3735193" lon="-85.8083017">
        <ele>55.0</ele>
        <time>2022-10-06T17:06:28Z</time>
      </trkpt>
      <trkpt lat="10.3735589" lon="-85.8083053">
        <ele>55.0</ele>
        <time>2022-10-06T17:06:29Z</time>
      </trkpt>
      <trkpt lat="10.3736039" lon="-85.8083081">
        <ele>55.0</ele>
        <time>2022-10-06T17:06:30Z</time>
      </trkpt>
      <trkpt lat="10.3736493" lon="-85.8083117">
        <ele>55.1</ele>
        <time>2022-10-06T17:06:31Z</time>
      </trkpt>
      <trkpt lat="10.3736978" lon="-85.8083155">
        <ele>55.0</ele>
        <time>2022-10-06T17:06:32Z</time>
      </trkpt>
      <trkpt lat="10.3737490" lon="-85.8083206">
        <ele>54.9</ele>
        <time>2022-10-06T17:06:33Z</time>
      </trkpt>
      <trkpt lat="10.3737964" lon="-85.8083284">
        <ele>54.9</ele>
        <time>2022-10-06T17:06:34Z</time>
      </trkpt>
      <trkpt lat="10.3738389" lon="-85.8083375">
        <ele>54.9</ele>
        <time>2022-10-06T17:06:35Z</time>
      </trkpt>
      <trkpt lat="10.3738787" lon="-85.8083484">
        <ele>54.9</ele>
        <time>2022-10-06T17:06:36Z</time>
      </trkpt>
      <trkpt lat="10.3739168" lon="-85.8083562">
        <ele>55.0</ele>
        <time>2022-10-06T17:06:37Z</time>
      </trkpt>
      <trkpt lat="10.3739546" lon="-85.8083645">
        <ele>55.0</ele>
        <time>2022-10-06T17:06:38Z</time>
      </trkpt>
      <trkpt lat="10.3739851" lon="-85.8083722">
        <ele>54.9</ele>
        <time>2022-10-06T17:06:39Z</time>
      </trkpt>
      <trkpt lat="10.3740135" lon="-85.8083800">
        <ele>54.9</ele>
        <time>2022-10-06T17:06:40Z</time>
      </trkpt>
      <trkpt lat="10.3740414" lon="-85.8083857">
        <ele>54.9</ele>
        <time>2022-10-06T17:06:41Z</time>
      </trkpt>
      <trkpt lat="10.3740668" lon="-85.8083917">
        <ele>54.9</ele>
        <time>2022-10-06T17:06:42Z</time>
      </trkpt>
      <trkpt lat="10.3740895" lon="-85.8083971">
        <ele>55.0</ele>
        <time>2022-10-06T17:06:43Z</time>
      </trkpt>
      <trkpt lat="10.3741115" lon="-85.8084035">
        <ele>54.9</ele>
        <time>2022-10-06T17:06:44Z</time>
      </trkpt>
      <trkpt lat="10.3741377" lon="-85.8084085">
        <ele>54.9</ele>
        <time>2022-10-06T17:06:45Z</time>
      </trkpt>
      <trkpt lat="10.3741724" lon="-85.8084146">
        <ele>54.8</ele>
        <time>2022-10-06T17:06:46Z</time>
      </trkpt>
      <trkpt lat="10.3742068" lon="-85.8084230">
        <ele>54.8</ele>
        <time>2022-10-06T17:06:47Z</time>
      </trkpt>
      <trkpt lat="10.3742401" lon="-85.8084344">
        <ele>54.8</ele>
        <time>2022-10-06T17:06:48Z</time>
      </trkpt>
      <trkpt lat="10.3742741" lon="-85.8084468">
        <ele>54.7</ele>
        <time>2022-10-06T17:06:49Z</time>
      </trkpt>
      <trkpt lat="10.3743103" lon="-85.8084617">
        <ele>54.7</ele>
        <time>2022-10-06T17:06:50Z</time>
      </trkpt>
      <trkpt lat="10.3743514" lon="-85.8084784">
        <ele>54.8</ele>
        <time>2022-10-06T17:06:51Z</time>
      </trkpt>
      <trkpt lat="10.3743963" lon="-85.8084972">
        <ele>54.6</ele>
        <time>2022-10-06T17:06:52Z</time>
      </trkpt>
      <trkpt lat="10.3744420" lon="-85.8085141">
        <ele>54.6</ele>
        <time>2022-10-06T17:06:53Z</time>
      </trkpt>
      <trkpt lat="10.3744897" lon="-85.8085313">
        <ele>54.5</ele>
        <time>2022-10-06T17:06:54Z</time>
      </trkpt>
      <trkpt lat="10.3745408" lon="-85.8085505">
        <ele>54.6</ele>
        <time>2022-10-06T17:06:55Z</time>
      </trkpt>
      <trkpt lat="10.3745907" lon="-85.8085705">
        <ele>54.7</ele>
        <time>2022-10-06T17:06:56Z</time>
      </trkpt>
      <trkpt lat="10.3746399" lon="-85.8085912">
        <ele>54.8</ele>
        <time>2022-10-06T17:06:57Z</time>
      </trkpt>
      <trkpt lat="10.3746887" lon="-85.8086117">
        <ele>54.5</ele>
        <time>2022-10-06T17:06:58Z</time>
      </trkpt>
      <trkpt lat="10.3747332" lon="-85.8086318">
        <ele>54.5</ele>
        <time>2022-10-06T17:06:59Z</time>
      </trkpt>
      <trkpt lat="10.3747719" lon="-85.8086601">
        <ele>54.0</ele>
        <time>2022-10-06T17:07:00Z</time>
      </trkpt>
      <trkpt lat="10.3748070" lon="-85.8086800">
        <ele>53.9</ele>
        <time>2022-10-06T17:07:01Z</time>
      </trkpt>
      <trkpt lat="10.3748397" lon="-85.8086984">
        <ele>54.0</ele>
        <time>2022-10-06T17:07:02Z</time>
      </trkpt>
      <trkpt lat="10.3748819" lon="-85.8087141">
        <ele>54.3</ele>
        <time>2022-10-06T17:07:03Z</time>
      </trkpt>
      <trkpt lat="10.3749187" lon="-85.8087268">
        <ele>54.4</ele>
        <time>2022-10-06T17:07:04Z</time>
      </trkpt>
      <trkpt lat="10.3749637" lon="-85.8087230">
        <ele>54.4</ele>
        <time>2022-10-06T17:07:05Z</time>
      </trkpt>
      <trkpt lat="10.3750000" lon="-85.8087239">
        <ele>54.4</ele>
        <time>2022-10-06T17:07:06Z</time>
      </trkpt>
      <trkpt lat="10.3750342" lon="-85.8087291">
        <ele>54.5</ele>
        <time>2022-10-06T17:07:07Z</time>
      </trkpt>
      <trkpt lat="10.3750559" lon="-85.8087417">
        <ele>54.5</ele>
        <time>2022-10-06T17:07:08Z</time>
      </trkpt>
      <trkpt lat="10.3750657" lon="-85.8087592">
        <ele>54.9</ele>
        <time>2022-10-06T17:07:09Z</time>
      </trkpt>
      <trkpt lat="10.3750795" lon="-85.8087763">
        <ele>55.0</ele>
        <time>2022-10-06T17:07:10Z</time>
      </trkpt>
      <trkpt lat="10.3750781" lon="-85.8087935">
        <ele>55.1</ele>
        <time>2022-10-06T17:07:11Z</time>
      </trkpt>
      <trkpt lat="10.3750784" lon="-85.8088001">
        <ele>55.1</ele>
        <time>2022-10-06T17:07:12Z</time>
      </trkpt>
      <trkpt lat="10.3750784" lon="-85.8088001">
        <ele>55.0</ele>
        <time>2022-10-06T17:07:13Z</time>
      </trkpt>
      <trkpt lat="10.3750745" lon="-85.8088007">
        <ele>54.8</ele>
        <time>2022-10-06T17:07:14Z</time>
      </trkpt>
      <trkpt lat="10.3750745" lon="-85.8088007">
        <ele>54.8</ele>
        <time>2022-10-06T17:07:15Z</time>
      </trkpt>
      <trkpt lat="10.3750693" lon="-85.8087962">
        <ele>54.7</ele>
        <time>2022-10-06T17:07:16Z</time>
      </trkpt>
      <trkpt lat="10.3750690" lon="-85.8087864">
        <ele>54.7</ele>
        <time>2022-10-06T17:07:17Z</time>
      </trkpt>
      <trkpt lat="10.3750694" lon="-85.8087788">
        <ele>54.5</ele>
        <time>2022-10-06T17:07:18Z</time>
      </trkpt>
      <trkpt lat="10.3750694" lon="-85.8087788">
        <ele>54.9</ele>
        <time>2022-10-06T17:07:19Z</time>
      </trkpt>
      <trkpt lat="10.3750694" lon="-85.8087788">
        <ele>54.9</ele>
        <time>2022-10-06T17:07:20Z</time>
      </trkpt>
      <trkpt lat="10.3750603" lon="-85.8087764">
        <ele>54.4</ele>
        <time>2022-10-06T17:07:21Z</time>
      </trkpt>
      <trkpt lat="10.3750396" lon="-85.8087753">
        <ele>54.5</ele>
        <time>2022-10-06T17:07:22Z</time>
      </trkpt>
      <trkpt lat="10.3750157" lon="-85.8087692">
        <ele>54.4</ele>
        <time>2022-10-06T17:07:23Z</time>
      </trkpt>
      <trkpt lat="10.3749942" lon="-85.8087626">
        <ele>54.3</ele>
        <time>2022-10-06T17:07:24Z</time>
      </trkpt>
      <trkpt lat="10.3749698" lon="-85.8087551">
        <ele>54.3</ele>
        <time>2022-10-06T17:07:25Z</time>
      </trkpt>
      <trkpt lat="10.3749387" lon="-85.8087455">
        <ele>54.1</ele>
        <time>2022-10-06T17:07:26Z</time>
      </trkpt>
      <trkpt lat="10.3749041" lon="-85.8087339">
        <ele>54.0</ele>
        <time>2022-10-06T17:07:27Z</time>
      </trkpt>
      <trkpt lat="10.3748702" lon="-85.8087214">
        <ele>54.0</ele>
        <time>2022-10-06T17:07:28Z</time>
      </trkpt>
      <trkpt lat="10.3748474" lon="-85.8087100">
        <ele>54.0</ele>
        <time>2022-10-06T17:07:29Z</time>
      </trkpt>
      <trkpt lat="10.3748256" lon="-85.8086969">
        <ele>54.0</ele>
        <time>2022-10-06T17:07:30Z</time>
      </trkpt>
      <trkpt lat="10.3747975" lon="-85.8086802">
        <ele>54.0</ele>
        <time>2022-10-06T17:07:31Z</time>
      </trkpt>
      <trkpt lat="10.3747655" lon="-85.8086635">
        <ele>54.0</ele>
        <time>2022-10-06T17:07:32Z</time>
      </trkpt>
      <trkpt lat="10.3747321" lon="-85.8086446">
        <ele>53.8</ele>
        <time>2022-10-06T17:07:33Z</time>
      </trkpt>
      <trkpt lat="10.3746907" lon="-85.8086252">
        <ele>53.9</ele>
        <time>2022-10-06T17:07:34Z</time>
      </trkpt>
      <trkpt lat="10.3746461" lon="-85.8086064">
        <ele>53.9</ele>
        <time>2022-10-06T17:07:35Z</time>
      </trkpt>
      <trkpt lat="10.3745973" lon="-85.8085865">
        <ele>54.0</ele>
        <time>2022-10-06T17:07:36Z</time>
      </trkpt>
      <trkpt lat="10.3745352" lon="-85.8085659">
        <ele>54.4</ele>
        <time>2022-10-06T17:07:37Z</time>
      </trkpt>
      <trkpt lat="10.3744718" lon="-85.8085437">
        <ele>54.5</ele>
        <time>2022-10-06T17:07:38Z</time>
      </trkpt>
      <trkpt lat="10.3744093" lon="-85.8085199">
        <ele>54.6</ele>
        <time>2022-10-06T17:07:39Z</time>
      </trkpt>
      <trkpt lat="10.3743456" lon="-85.8084913">
        <ele>54.8</ele>
        <time>2022-10-06T17:07:40Z</time>
      </trkpt>
      <trkpt lat="10.3742935" lon="-85.8084668">
        <ele>54.8</ele>
        <time>2022-10-06T17:07:41Z</time>
      </trkpt>
      <trkpt lat="10.3742434" lon="-85.8084404">
        <ele>54.8</ele>
        <time>2022-10-06T17:07:42Z</time>
      </trkpt>
      <trkpt lat="10.3741981" lon="-85.8084194">
        <ele>54.9</ele>
        <time>2022-10-06T17:07:43Z</time>
      </trkpt>
      <trkpt lat="10.3741547" lon="-85.8084093">
        <ele>54.8</ele>
        <time>2022-10-06T17:07:44Z</time>
      </trkpt>
      <trkpt lat="10.3741204" lon="-85.8084015">
        <ele>54.9</ele>
        <time>2022-10-06T17:07:45Z</time>
      </trkpt>
      <trkpt lat="10.3740873" lon="-85.8083996">
        <ele>54.9</ele>
        <time>2022-10-06T17:07:46Z</time>
      </trkpt>
      <trkpt lat="10.3740557" lon="-85.8084009">
        <ele>54.9</ele>
        <time>2022-10-06T17:07:47Z</time>
      </trkpt>
      <trkpt lat="10.3740263" lon="-85.8083981">
        <ele>54.9</ele>
        <time>2022-10-06T17:07:48Z</time>
      </trkpt>
      <trkpt lat="10.3739947" lon="-85.8083904">
        <ele>54.8</ele>
        <time>2022-10-06T17:07:49Z</time>
      </trkpt>
      <trkpt lat="10.3739637" lon="-85.8083821">
        <ele>54.6</ele>
        <time>2022-10-06T17:07:50Z</time>
      </trkpt>
      <trkpt lat="10.3739250" lon="-85.8083722">
        <ele>54.7</ele>
        <time>2022-10-06T17:07:51Z</time>
      </trkpt>
      <trkpt lat="10.3738851" lon="-85.8083645">
        <ele>54.7</ele>
        <time>2022-10-06T17:07:52Z</time>
      </trkpt>
      <trkpt lat="10.3738458" lon="-85.8083582">
        <ele>54.6</ele>
        <time>2022-10-06T17:07:53Z</time>
      </trkpt>
      <trkpt lat="10.3738101" lon="-85.8083505">
        <ele>54.6</ele>
        <time>2022-10-06T17:07:54Z</time>
      </trkpt>
      <trkpt lat="10.3737739" lon="-85.8083412">
        <ele>54.6</ele>
        <time>2022-10-06T17:07:55Z</time>
      </trkpt>
      <trkpt lat="10.3737334" lon="-85.8083307">
        <ele>54.5</ele>
        <time>2022-10-06T17:07:56Z</time>
      </trkpt>
      <trkpt lat="10.3736886" lon="-85.8083249">
        <ele>54.4</ele>
        <time>2022-10-06T17:07:57Z</time>
      </trkpt>
      <trkpt lat="10.3736420" lon="-85.8083223">
        <ele>54.5</ele>
        <time>2022-10-06T17:07:58Z</time>
      </trkpt>
      <trkpt lat="10.3735945" lon="-85.8083217">
        <ele>54.4</ele>
        <time>2022-10-06T17:07:59Z</time>
      </trkpt>
      <trkpt lat="10.3735470" lon="-85.8083277">
        <ele>54.4</ele>
        <time>2022-10-06T17:08:00Z</time>
      </trkpt>
      <trkpt lat="10.3735052" lon="-85.8083334">
        <ele>54.4</ele>
        <time>2022-10-06T17:08:01Z</time>
      </trkpt>
      <trkpt lat="10.3734646" lon="-85.8083347">
        <ele>54.5</ele>
        <time>2022-10-06T17:08:02Z</time>
      </trkpt>
      <trkpt lat="10.3734327" lon="-85.8083337">
        <ele>54.6</ele>
        <time>2022-10-06T17:08:03Z</time>
      </trkpt>
      <trkpt lat="10.3734104" lon="-85.8083318">
        <ele>54.6</ele>
        <time>2022-10-06T17:08:04Z</time>
      </trkpt>
      <trkpt lat="10.3733899" lon="-85.8083300">
        <ele>54.6</ele>
        <time>2022-10-06T17:08:05Z</time>
      </trkpt>
      <trkpt lat="10.3733681" lon="-85.8083274">
        <ele>54.7</ele>
        <time>2022-10-06T17:08:06Z</time>
      </trkpt>
      <trkpt lat="10.3733467" lon="-85.8083252">
        <ele>54.7</ele>
        <time>2022-10-06T17:08:07Z</time>
      </trkpt>
      <trkpt lat="10.3733279" lon="-85.8083234">
        <ele>54.8</ele>
        <time>2022-10-06T17:08:08Z</time>
      </trkpt>
      <trkpt lat="10.3733056" lon="-85.8083219">
        <ele>54.8</ele>
        <time>2022-10-06T17:08:09Z</time>
      </trkpt>
      <trkpt lat="10.3732818" lon="-85.8083193">
        <ele>54.8</ele>
        <time>2022-10-06T17:08:10Z</time>
      </trkpt>
      <trkpt lat="10.3732596" lon="-85.8083181">
        <ele>54.9</ele>
        <time>2022-10-06T17:08:11Z</time>
      </trkpt>
      <trkpt lat="10.3732304" lon="-85.8083155">
        <ele>55.3</ele>
        <time>2022-10-06T17:08:12Z</time>
      </trkpt>
      <trkpt lat="10.3731995" lon="-85.8083142">
        <ele>55.3</ele>
        <time>2022-10-06T17:08:13Z</time>
      </trkpt>
      <trkpt lat="10.3731685" lon="-85.8083137">
        <ele>55.2</ele>
        <time>2022-10-06T17:08:14Z</time>
      </trkpt>
      <trkpt lat="10.3731341" lon="-85.8083077">
        <ele>55.2</ele>
        <time>2022-10-06T17:08:15Z</time>
      </trkpt>
      <trkpt lat="10.3730989" lon="-85.8083007">
        <ele>55.2</ele>
        <time>2022-10-06T17:08:16Z</time>
      </trkpt>
      <trkpt lat="10.3730639" lon="-85.8082956">
        <ele>55.2</ele>
        <time>2022-10-06T17:08:17Z</time>
      </trkpt>
      <trkpt lat="10.3730260" lon="-85.8082935">
        <ele>55.0</ele>
        <time>2022-10-06T17:08:18Z</time>
      </trkpt>
      <trkpt lat="10.3729861" lon="-85.8082933">
        <ele>55.0</ele>
        <time>2022-10-06T17:08:19Z</time>
      </trkpt>
      <trkpt lat="10.3729432" lon="-85.8082910">
        <ele>54.9</ele>
        <time>2022-10-06T17:08:20Z</time>
      </trkpt>
      <trkpt lat="10.3728956" lon="-85.8082908">
        <ele>54.6</ele>
        <time>2022-10-06T17:08:21Z</time>
      </trkpt>
      <trkpt lat="10.3728421" lon="-85.8082895">
        <ele>54.6</ele>
        <time>2022-10-06T17:08:22Z</time>
      </trkpt>
      <trkpt lat="10.3727849" lon="-85.8082873">
        <ele>54.4</ele>
        <time>2022-10-06T17:08:23Z</time>
      </trkpt>
      <trkpt lat="10.3727221" lon="-85.8082846">
        <ele>54.5</ele>
        <time>2022-10-06T17:08:24Z</time>
      </trkpt>
      <trkpt lat="10.3726551" lon="-85.8082822">
        <ele>54.5</ele>
        <time>2022-10-06T17:08:25Z</time>
      </trkpt>
      <trkpt lat="10.3725845" lon="-85.8082801">
        <ele>54.4</ele>
        <time>2022-10-06T17:08:26Z</time>
      </trkpt>
      <trkpt lat="10.3725156" lon="-85.8082790">
        <ele>54.3</ele>
        <time>2022-10-06T17:08:27Z</time>
      </trkpt>
      <trkpt lat="10.3724462" lon="-85.8082759">
        <ele>54.1</ele>
        <time>2022-10-06T17:08:28Z</time>
      </trkpt>
      <trkpt lat="10.3723772" lon="-85.8082717">
        <ele>54.0</ele>
        <time>2022-10-06T17:08:29Z</time>
      </trkpt>
      <trkpt lat="10.3723154" lon="-85.8082698">
        <ele>54.0</ele>
        <time>2022-10-06T17:08:30Z</time>
      </trkpt>
      <trkpt lat="10.3722675" lon="-85.8082676">
        <ele>54.0</ele>
        <time>2022-10-06T17:08:31Z</time>
      </trkpt>
      <trkpt lat="10.3722173" lon="-85.8082662">
        <ele>53.7</ele>
        <time>2022-10-06T17:08:32Z</time>
      </trkpt>
      <trkpt lat="10.3721803" lon="-85.8082650">
        <ele>53.5</ele>
        <time>2022-10-06T17:08:33Z</time>
      </trkpt>
      <trkpt lat="10.3721534" lon="-85.8082642">
        <ele>53.5</ele>
        <time>2022-10-06T17:08:34Z</time>
      </trkpt>
      <trkpt lat="10.3721203" lon="-85.8082623">
        <ele>53.5</ele>
        <time>2022-10-06T17:08:35Z</time>
      </trkpt>
      <trkpt lat="10.3720785" lon="-85.8082598">
        <ele>53.3</ele>
        <time>2022-10-06T17:08:36Z</time>
      </trkpt>
      <trkpt lat="10.3720333" lon="-85.8082577">
        <ele>53.0</ele>
        <time>2022-10-06T17:08:37Z</time>
      </trkpt>
      <trkpt lat="10.3719893" lon="-85.8082582">
        <ele>52.7</ele>
        <time>2022-10-06T17:08:38Z</time>
      </trkpt>
      <trkpt lat="10.3719384" lon="-85.8082598">
        <ele>52.3</ele>
        <time>2022-10-06T17:08:39Z</time>
      </trkpt>
      <trkpt lat="10.3718894" lon="-85.8082606">
        <ele>52.0</ele>
        <time>2022-10-06T17:08:40Z</time>
      </trkpt>
      <trkpt lat="10.3718386" lon="-85.8082641">
        <ele>52.0</ele>
        <time>2022-10-06T17:08:41Z</time>
      </trkpt>
      <trkpt lat="10.3717876" lon="-85.8082682">
        <ele>51.7</ele>
        <time>2022-10-06T17:08:42Z</time>
      </trkpt>
      <trkpt lat="10.3717388" lon="-85.8082748">
        <ele>51.6</ele>
        <time>2022-10-06T17:08:43Z</time>
      </trkpt>
      <trkpt lat="10.3716954" lon="-85.8082809">
        <ele>51.6</ele>
        <time>2022-10-06T17:08:44Z</time>
      </trkpt>
      <trkpt lat="10.3715920" lon="-85.8083127">
        <ele>51.9</ele>
        <time>2022-10-06T17:08:45Z</time>
      </trkpt>
      <trkpt lat="10.3715545" lon="-85.8083211">
        <ele>51.6</ele>
        <time>2022-10-06T17:08:46Z</time>
      </trkpt>
      <trkpt lat="10.3715166" lon="-85.8083313">
        <ele>51.8</ele>
        <time>2022-10-06T17:08:47Z</time>
      </trkpt>
      <trkpt lat="10.3714348" lon="-85.8083590">
        <ele>50.7</ele>
        <time>2022-10-06T17:08:48Z</time>
      </trkpt>
      <trkpt lat="10.3713669" lon="-85.8083794">
        <ele>50.4</ele>
        <time>2022-10-06T17:08:49Z</time>
      </trkpt>
      <trkpt lat="10.3713475" lon="-85.8083826">
        <ele>50.2</ele>
        <time>2022-10-06T17:08:50Z</time>
      </trkpt>
      <trkpt lat="10.3713094" lon="-85.8083930">
        <ele>50.1</ele>
        <time>2022-10-06T17:08:51Z</time>
      </trkpt>
      <trkpt lat="10.3712882" lon="-85.8084013">
        <ele>49.9</ele>
        <time>2022-10-06T17:08:52Z</time>
      </trkpt>
      <trkpt lat="10.3712747" lon="-85.8084052">
        <ele>49.7</ele>
        <time>2022-10-06T17:08:53Z</time>
      </trkpt>
      <trkpt lat="10.3712571" lon="-85.8084111">
        <ele>49.7</ele>
        <time>2022-10-06T17:08:54Z</time>
      </trkpt>
      <trkpt lat="10.3712355" lon="-85.8084191">
        <ele>49.5</ele>
        <time>2022-10-06T17:08:55Z</time>
      </trkpt>
      <trkpt lat="10.3712089" lon="-85.8084290">
        <ele>48.9</ele>
        <time>2022-10-06T17:08:56Z</time>
      </trkpt>
      <trkpt lat="10.3711765" lon="-85.8084443">
        <ele>48.6</ele>
        <time>2022-10-06T17:08:57Z</time>
      </trkpt>
      <trkpt lat="10.3711329" lon="-85.8084723">
        <ele>48.3</ele>
        <time>2022-10-06T17:08:58Z</time>
      </trkpt>
      <trkpt lat="10.3710894" lon="-85.8085040">
        <ele>48.8</ele>
        <time>2022-10-06T17:08:59Z</time>
      </trkpt>
      <trkpt lat="10.3710602" lon="-85.8085201">
        <ele>48.3</ele>
        <time>2022-10-06T17:09:00Z</time>
      </trkpt>
      <trkpt lat="10.3710189" lon="-85.8085411">
        <ele>48.3</ele>
        <time>2022-10-06T17:09:01Z</time>
      </trkpt>
      <trkpt lat="10.3709751" lon="-85.8085623">
        <ele>48.4</ele>
        <time>2022-10-06T17:09:02Z</time>
      </trkpt>
      <trkpt lat="10.3709328" lon="-85.8085867">
        <ele>48.6</ele>
        <time>2022-10-06T17:09:03Z</time>
      </trkpt>
      <trkpt lat="10.3708990" lon="-85.8086107">
        <ele>47.9</ele>
        <time>2022-10-06T17:09:04Z</time>
      </trkpt>
      <trkpt lat="10.3708564" lon="-85.8086445">
        <ele>47.9</ele>
        <time>2022-10-06T17:09:05Z</time>
      </trkpt>
      <trkpt lat="10.3708173" lon="-85.8086811">
        <ele>48.0</ele>
        <time>2022-10-06T17:09:06Z</time>
      </trkpt>
      <trkpt lat="10.3707804" lon="-85.8087194">
        <ele>48.3</ele>
        <time>2022-10-06T17:09:07Z</time>
      </trkpt>
      <trkpt lat="10.3707445" lon="-85.8087600">
        <ele>48.5</ele>
        <time>2022-10-06T17:09:08Z</time>
      </trkpt>
      <trkpt lat="10.3707105" lon="-85.8087999">
        <ele>48.7</ele>
        <time>2022-10-06T17:09:09Z</time>
      </trkpt>
      <trkpt lat="10.3706759" lon="-85.8088444">
        <ele>48.5</ele>
        <time>2022-10-06T17:09:10Z</time>
      </trkpt>
      <trkpt lat="10.3706394" lon="-85.8088909">
        <ele>48.7</ele>
        <time>2022-10-06T17:09:11Z</time>
      </trkpt>
      <trkpt lat="10.3706040" lon="-85.8089405">
        <ele>48.9</ele>
        <time>2022-10-06T17:09:12Z</time>
      </trkpt>
      <trkpt lat="10.3705695" lon="-85.8089954">
        <ele>49.0</ele>
        <time>2022-10-06T17:09:13Z</time>
      </trkpt>
      <trkpt lat="10.3705327" lon="-85.8090470">
        <ele>49.2</ele>
        <time>2022-10-06T17:09:14Z</time>
      </trkpt>
      <trkpt lat="10.3704938" lon="-85.8090990">
        <ele>49.4</ele>
        <time>2022-10-06T17:09:15Z</time>
      </trkpt>
      <trkpt lat="10.3704556" lon="-85.8091553">
        <ele>49.7</ele>
        <time>2022-10-06T17:09:16Z</time>
      </trkpt>
      <trkpt lat="10.3704175" lon="-85.8092093">
        <ele>50.0</ele>
        <time>2022-10-06T17:09:17Z</time>
      </trkpt>
      <trkpt lat="10.3703847" lon="-85.8092574">
        <ele>50.0</ele>
        <time>2022-10-06T17:09:18Z</time>
      </trkpt>
      <trkpt lat="10.3703587" lon="-85.8092960">
        <ele>50.0</ele>
        <time>2022-10-06T17:09:19Z</time>
      </trkpt>
      <trkpt lat="10.3703344" lon="-85.8093294">
        <ele>49.9</ele>
        <time>2022-10-06T17:09:20Z</time>
      </trkpt>
      <trkpt lat="10.3703107" lon="-85.8093610">
        <ele>50.0</ele>
        <time>2022-10-06T17:09:21Z</time>
      </trkpt>
      <trkpt lat="10.3702880" lon="-85.8093887">
        <ele>49.9</ele>
        <time>2022-10-06T17:09:22Z</time>
      </trkpt>
      <trkpt lat="10.3702649" lon="-85.8094127">
        <ele>50.0</ele>
        <time>2022-10-06T17:09:23Z</time>
      </trkpt>
      <trkpt lat="10.3702371" lon="-85.8094351">
        <ele>49.7</ele>
        <time>2022-10-06T17:09:24Z</time>
      </trkpt>
      <trkpt lat="10.3702066" lon="-85.8094559">
        <ele>49.2</ele>
        <time>2022-10-06T17:09:25Z</time>
      </trkpt>
      <trkpt lat="10.3701754" lon="-85.8094734">
        <ele>49.4</ele>
        <time>2022-10-06T17:09:26Z</time>
      </trkpt>
      <trkpt lat="10.3701411" lon="-85.8094937">
        <ele>49.4</ele>
        <time>2022-10-06T17:09:27Z</time>
      </trkpt>
      <trkpt lat="10.3701036" lon="-85.8095182">
        <ele>49.6</ele>
        <time>2022-10-06T17:09:28Z</time>
      </trkpt>
      <trkpt lat="10.3700559" lon="-85.8095531">
        <ele>50.5</ele>
        <time>2022-10-06T17:09:29Z</time>
      </trkpt>
      <trkpt lat="10.3700087" lon="-85.8095849">
        <ele>50.6</ele>
        <time>2022-10-06T17:09:30Z</time>
      </trkpt>
      <trkpt lat="10.3699631" lon="-85.8096149">
        <ele>50.7</ele>
        <time>2022-10-06T17:09:31Z</time>
      </trkpt>
      <trkpt lat="10.3699224" lon="-85.8096404">
        <ele>50.8</ele>
        <time>2022-10-06T17:09:32Z</time>
      </trkpt>
      <trkpt lat="10.3698794" lon="-85.8096671">
        <ele>50.8</ele>
        <time>2022-10-06T17:09:33Z</time>
      </trkpt>
      <trkpt lat="10.3698258" lon="-85.8096964">
        <ele>51.5</ele>
        <time>2022-10-06T17:09:34Z</time>
      </trkpt>
      <trkpt lat="10.3697702" lon="-85.8097185">
        <ele>52.1</ele>
        <time>2022-10-06T17:09:35Z</time>
      </trkpt>
      <trkpt lat="10.3697143" lon="-85.8097397">
        <ele>52.2</ele>
        <time>2022-10-06T17:09:36Z</time>
      </trkpt>
      <trkpt lat="10.3696584" lon="-85.8097621">
        <ele>52.1</ele>
        <time>2022-10-06T17:09:37Z</time>
      </trkpt>
      <trkpt lat="10.3696011" lon="-85.8097846">
        <ele>52.0</ele>
        <time>2022-10-06T17:09:38Z</time>
      </trkpt>
      <trkpt lat="10.3695443" lon="-85.8098042">
        <ele>51.9</ele>
        <time>2022-10-06T17:09:39Z</time>
      </trkpt>
      <trkpt lat="10.3694810" lon="-85.8098259">
        <ele>51.8</ele>
        <time>2022-10-06T17:09:40Z</time>
      </trkpt>
      <trkpt lat="10.3694138" lon="-85.8098480">
        <ele>51.6</ele>
        <time>2022-10-06T17:09:41Z</time>
      </trkpt>
      <trkpt lat="10.3693372" lon="-85.8098728">
        <ele>51.2</ele>
        <time>2022-10-06T17:09:42Z</time>
      </trkpt>
      <trkpt lat="10.3692574" lon="-85.8098998">
        <ele>50.6</ele>
        <time>2022-10-06T17:09:43Z</time>
      </trkpt>
      <trkpt lat="10.3691754" lon="-85.8099267">
        <ele>50.1</ele>
        <time>2022-10-06T17:09:44Z</time>
      </trkpt>
      <trkpt lat="10.3690919" lon="-85.8099558">
        <ele>49.8</ele>
        <time>2022-10-06T17:09:45Z</time>
      </trkpt>
      <trkpt lat="10.3690108" lon="-85.8099849">
        <ele>49.6</ele>
        <time>2022-10-06T17:09:46Z</time>
      </trkpt>
      <trkpt lat="10.3689394" lon="-85.8100145">
        <ele>49.4</ele>
        <time>2022-10-06T17:09:47Z</time>
      </trkpt>
      <trkpt lat="10.3688857" lon="-85.8100417">
        <ele>49.2</ele>
        <time>2022-10-06T17:09:48Z</time>
      </trkpt>
      <trkpt lat="10.3688574" lon="-85.8100576">
        <ele>49.2</ele>
        <time>2022-10-06T17:09:49Z</time>
      </trkpt>
      <trkpt lat="10.3688348" lon="-85.8100727">
        <ele>49.1</ele>
        <time>2022-10-06T17:09:50Z</time>
      </trkpt>
      <trkpt lat="10.3688095" lon="-85.8100889">
        <ele>49.4</ele>
        <time>2022-10-06T17:09:51Z</time>
      </trkpt>
      <trkpt lat="10.3687737" lon="-85.8101100">
        <ele>49.7</ele>
        <time>2022-10-06T17:09:52Z</time>
      </trkpt>
      <trkpt lat="10.3687264" lon="-85.8101388">
        <ele>49.7</ele>
        <time>2022-10-06T17:09:53Z</time>
      </trkpt>
      <trkpt lat="10.3686834" lon="-85.8101730">
        <ele>49.1</ele>
        <time>2022-10-06T17:09:54Z</time>
      </trkpt>
      <trkpt lat="10.3686401" lon="-85.8102169">
        <ele>49.0</ele>
        <time>2022-10-06T17:09:55Z</time>
      </trkpt>
      <trkpt lat="10.3685966" lon="-85.8102587">
        <ele>48.9</ele>
        <time>2022-10-06T17:09:56Z</time>
      </trkpt>
      <trkpt lat="10.3685539" lon="-85.8102974">
        <ele>48.8</ele>
        <time>2022-10-06T17:09:57Z</time>
      </trkpt>
      <trkpt lat="10.3685121" lon="-85.8103304">
        <ele>48.7</ele>
        <time>2022-10-06T17:09:58Z</time>
      </trkpt>
      <trkpt lat="10.3684753" lon="-85.8103668">
        <ele>48.5</ele>
        <time>2022-10-06T17:09:59Z</time>
      </trkpt>
      <trkpt lat="10.3684278" lon="-85.8104185">
        <ele>48.4</ele>
        <time>2022-10-06T17:10:00Z</time>
      </trkpt>
      <trkpt lat="10.3683860" lon="-85.8104763">
        <ele>48.3</ele>
        <time>2022-10-06T17:10:01Z</time>
      </trkpt>
      <trkpt lat="10.3683524" lon="-85.8105138">
        <ele>48.4</ele>
        <time>2022-10-06T17:10:02Z</time>
      </trkpt>
      <trkpt lat="10.3683055" lon="-85.8105645">
        <ele>48.3</ele>
        <time>2022-10-06T17:10:03Z</time>
      </trkpt>
      <trkpt lat="10.3682790" lon="-85.8106044">
        <ele>48.3</ele>
        <time>2022-10-06T17:10:04Z</time>
      </trkpt>
      <trkpt lat="10.3682521" lon="-85.8106504">
        <ele>48.2</ele>
        <time>2022-10-06T17:10:05Z</time>
      </trkpt>
      <trkpt lat="10.3682374" lon="-85.8106740">
        <ele>48.1</ele>
        <time>2022-10-06T17:10:06Z</time>
      </trkpt>
      <trkpt lat="10.3682191" lon="-85.8106917">
        <ele>48.0</ele>
        <time>2022-10-06T17:10:07Z</time>
      </trkpt>
      <trkpt lat="10.3681987" lon="-85.8107072">
        <ele>47.9</ele>
        <time>2022-10-06T17:10:08Z</time>
      </trkpt>
      <trkpt lat="10.3681792" lon="-85.8107288">
        <ele>47.9</ele>
        <time>2022-10-06T17:10:09Z</time>
      </trkpt>
      <trkpt lat="10.3681468" lon="-85.8107652">
        <ele>47.9</ele>
        <time>2022-10-06T17:10:10Z</time>
      </trkpt>
      <trkpt lat="10.3681167" lon="-85.8107875">
        <ele>47.6</ele>
        <time>2022-10-06T17:10:11Z</time>
      </trkpt>
      <trkpt lat="10.3680776" lon="-85.8108205">
        <ele>47.8</ele>
        <time>2022-10-06T17:10:12Z</time>
      </trkpt>
      <trkpt lat="10.3680425" lon="-85.8108591">
        <ele>48.0</ele>
        <time>2022-10-06T17:10:13Z</time>
      </trkpt>
      <trkpt lat="10.3680162" lon="-85.8109005">
        <ele>47.8</ele>
        <time>2022-10-06T17:10:14Z</time>
      </trkpt>
      <trkpt lat="10.3679913" lon="-85.8109479">
        <ele>47.4</ele>
        <time>2022-10-06T17:10:15Z</time>
      </trkpt>
      <trkpt lat="10.3679617" lon="-85.8109960">
        <ele>47.4</ele>
        <time>2022-10-06T17:10:16Z</time>
      </trkpt>
      <trkpt lat="10.3679292" lon="-85.8110405">
        <ele>47.4</ele>
        <time>2022-10-06T17:10:17Z</time>
      </trkpt>
      <trkpt lat="10.3678901" lon="-85.8110858">
        <ele>47.6</ele>
        <time>2022-10-06T17:10:18Z</time>
      </trkpt>
      <trkpt lat="10.3678499" lon="-85.8111316">
        <ele>47.3</ele>
        <time>2022-10-06T17:10:19Z</time>
      </trkpt>
      <trkpt lat="10.3678090" lon="-85.8111732">
        <ele>47.2</ele>
        <time>2022-10-06T17:10:20Z</time>
      </trkpt>
      <trkpt lat="10.3677705" lon="-85.8112068">
        <ele>47.1</ele>
        <time>2022-10-06T17:10:21Z</time>
      </trkpt>
      <trkpt lat="10.3677434" lon="-85.8112302">
        <ele>47.1</ele>
        <time>2022-10-06T17:10:22Z</time>
      </trkpt>
      <trkpt lat="10.3677149" lon="-85.8112571">
        <ele>47.1</ele>
        <time>2022-10-06T17:10:23Z</time>
      </trkpt>
      <trkpt lat="10.3676887" lon="-85.8112866">
        <ele>47.1</ele>
        <time>2022-10-06T17:10:24Z</time>
      </trkpt>
      <trkpt lat="10.3676611" lon="-85.8113164">
        <ele>46.7</ele>
        <time>2022-10-06T17:10:25Z</time>
      </trkpt>
      <trkpt lat="10.3676316" lon="-85.8113430">
        <ele>46.8</ele>
        <time>2022-10-06T17:10:26Z</time>
      </trkpt>
      <trkpt lat="10.3676070" lon="-85.8113609">
        <ele>46.7</ele>
        <time>2022-10-06T17:10:27Z</time>
      </trkpt>
      <trkpt lat="10.3675829" lon="-85.8113697">
        <ele>47.1</ele>
        <time>2022-10-06T17:10:28Z</time>
      </trkpt>
      <trkpt lat="10.3675681" lon="-85.8113769">
        <ele>47.3</ele>
        <time>2022-10-06T17:10:29Z</time>
      </trkpt>
      <trkpt lat="10.3675512" lon="-85.8113845">
        <ele>47.4</ele>
        <time>2022-10-06T17:10:30Z</time>
      </trkpt>
      <trkpt lat="10.3675352" lon="-85.8113935">
        <ele>47.4</ele>
        <time>2022-10-06T17:10:31Z</time>
      </trkpt>
      <trkpt lat="10.3675182" lon="-85.8114041">
        <ele>47.4</ele>
        <time>2022-10-06T17:10:32Z</time>
      </trkpt>
      <trkpt lat="10.3674997" lon="-85.8114168">
        <ele>47.4</ele>
        <time>2022-10-06T17:10:33Z</time>
      </trkpt>
      <trkpt lat="10.3674750" lon="-85.8114336">
        <ele>47.4</ele>
        <time>2022-10-06T17:10:34Z</time>
      </trkpt>
      <trkpt lat="10.3674440" lon="-85.8114499">
        <ele>47.4</ele>
        <time>2022-10-06T17:10:35Z</time>
      </trkpt>
      <trkpt lat="10.3674090" lon="-85.8114680">
        <ele>47.4</ele>
        <time>2022-10-06T17:10:36Z</time>
      </trkpt>
      <trkpt lat="10.3673697" lon="-85.8114894">
        <ele>47.5</ele>
        <time>2022-10-06T17:10:37Z</time>
      </trkpt>
      <trkpt lat="10.3673299" lon="-85.8115164">
        <ele>47.6</ele>
        <time>2022-10-06T17:10:38Z</time>
      </trkpt>
      <trkpt lat="10.3672907" lon="-85.8115500">
        <ele>47.7</ele>
        <time>2022-10-06T17:10:39Z</time>
      </trkpt>
      <trkpt lat="10.3672481" lon="-85.8115880">
        <ele>47.8</ele>
        <time>2022-10-06T17:10:40Z</time>
      </trkpt>
      <trkpt lat="10.3672030" lon="-85.8116291">
        <ele>47.8</ele>
        <time>2022-10-06T17:10:41Z</time>
      </trkpt>
      <trkpt lat="10.3671520" lon="-85.8116721">
        <ele>47.9</ele>
        <time>2022-10-06T17:10:42Z</time>
      </trkpt>
      <trkpt lat="10.3670981" lon="-85.8117147">
        <ele>48.0</ele>
        <time>2022-10-06T17:10:43Z</time>
      </trkpt>
      <trkpt lat="10.3670444" lon="-85.8117585">
        <ele>47.9</ele>
        <time>2022-10-06T17:10:44Z</time>
      </trkpt>
      <trkpt lat="10.3669891" lon="-85.8118047">
        <ele>48.0</ele>
        <time>2022-10-06T17:10:45Z</time>
      </trkpt>
      <trkpt lat="10.3669323" lon="-85.8118506">
        <ele>48.1</ele>
        <time>2022-10-06T17:10:46Z</time>
      </trkpt>
      <trkpt lat="10.3668728" lon="-85.8118972">
        <ele>48.2</ele>
        <time>2022-10-06T17:10:47Z</time>
      </trkpt>
      <trkpt lat="10.3668154" lon="-85.8119426">
        <ele>48.3</ele>
        <time>2022-10-06T17:10:48Z</time>
      </trkpt>
      <trkpt lat="10.3667597" lon="-85.8119828">
        <ele>48.4</ele>
        <time>2022-10-06T17:10:49Z</time>
      </trkpt>
      <trkpt lat="10.3667016" lon="-85.8120127">
        <ele>48.5</ele>
        <time>2022-10-06T17:10:50Z</time>
      </trkpt>
      <trkpt lat="10.3666388" lon="-85.8120362">
        <ele>48.5</ele>
        <time>2022-10-06T17:10:51Z</time>
      </trkpt>
      <trkpt lat="10.3665718" lon="-85.8120601">
        <ele>48.6</ele>
        <time>2022-10-06T17:10:52Z</time>
      </trkpt>
      <trkpt lat="10.3665034" lon="-85.8120814">
        <ele>48.8</ele>
        <time>2022-10-06T17:10:53Z</time>
      </trkpt>
      <trkpt lat="10.3664381" lon="-85.8120993">
        <ele>48.8</ele>
        <time>2022-10-06T17:10:54Z</time>
      </trkpt>
      <trkpt lat="10.3663801" lon="-85.8121111">
        <ele>48.9</ele>
        <time>2022-10-06T17:10:55Z</time>
      </trkpt>
      <trkpt lat="10.3663249" lon="-85.8121207">
        <ele>48.8</ele>
        <time>2022-10-06T17:10:56Z</time>
      </trkpt>
      <trkpt lat="10.3662705" lon="-85.8121273">
        <ele>48.7</ele>
        <time>2022-10-06T17:10:57Z</time>
      </trkpt>
      <trkpt lat="10.3662124" lon="-85.8121352">
        <ele>48.7</ele>
        <time>2022-10-06T17:10:58Z</time>
      </trkpt>
      <trkpt lat="10.3661526" lon="-85.8121468">
        <ele>48.5</ele>
        <time>2022-10-06T17:10:59Z</time>
      </trkpt>
      <trkpt lat="10.3660991" lon="-85.8121566">
        <ele>48.3</ele>
        <time>2022-10-06T17:11:00Z</time>
      </trkpt>
      <trkpt lat="10.3660585" lon="-85.8121655">
        <ele>48.2</ele>
        <time>2022-10-06T17:11:01Z</time>
      </trkpt>
      <trkpt lat="10.3660205" lon="-85.8121754">
        <ele>48.1</ele>
        <time>2022-10-06T17:11:02Z</time>
      </trkpt>
      <trkpt lat="10.3659786" lon="-85.8121871">
        <ele>48.0</ele>
        <time>2022-10-06T17:11:03Z</time>
      </trkpt>
      <trkpt lat="10.3659350" lon="-85.8122003">
        <ele>48.0</ele>
        <time>2022-10-06T17:11:04Z</time>
      </trkpt>
      <trkpt lat="10.3658877" lon="-85.8122118">
        <ele>48.0</ele>
        <time>2022-10-06T17:11:05Z</time>
      </trkpt>
      <trkpt lat="10.3658354" lon="-85.8122196">
        <ele>47.7</ele>
        <time>2022-10-06T17:11:06Z</time>
      </trkpt>
      <trkpt lat="10.3657745" lon="-85.8122309">
        <ele>47.6</ele>
        <time>2022-10-06T17:11:07Z</time>
      </trkpt>
      <trkpt lat="10.3657105" lon="-85.8122426">
        <ele>47.3</ele>
        <time>2022-10-06T17:11:08Z</time>
      </trkpt>
      <trkpt lat="10.3656418" lon="-85.8122563">
        <ele>47.2</ele>
        <time>2022-10-06T17:11:09Z</time>
      </trkpt>
      <trkpt lat="10.3655711" lon="-85.8122705">
        <ele>47.0</ele>
        <time>2022-10-06T17:11:10Z</time>
      </trkpt>
      <trkpt lat="10.3654952" lon="-85.8122852">
        <ele>46.8</ele>
        <time>2022-10-06T17:11:11Z</time>
      </trkpt>
      <trkpt lat="10.3654254" lon="-85.8122992">
        <ele>46.9</ele>
        <time>2022-10-06T17:11:12Z</time>
      </trkpt>
      <trkpt lat="10.3653539" lon="-85.8123127">
        <ele>46.9</ele>
        <time>2022-10-06T17:11:13Z</time>
      </trkpt>
      <trkpt lat="10.3652771" lon="-85.8123260">
        <ele>46.8</ele>
        <time>2022-10-06T17:11:14Z</time>
      </trkpt>
      <trkpt lat="10.3652016" lon="-85.8123421">
        <ele>46.7</ele>
        <time>2022-10-06T17:11:15Z</time>
      </trkpt>
      <trkpt lat="10.3651326" lon="-85.8123609">
        <ele>46.5</ele>
        <time>2022-10-06T17:11:16Z</time>
      </trkpt>
      <trkpt lat="10.3650734" lon="-85.8123796">
        <ele>46.5</ele>
        <time>2022-10-06T17:11:17Z</time>
      </trkpt>
      <trkpt lat="10.3650206" lon="-85.8123954">
        <ele>46.6</ele>
        <time>2022-10-06T17:11:18Z</time>
      </trkpt>
      <trkpt lat="10.3649745" lon="-85.8124091">
        <ele>46.6</ele>
        <time>2022-10-06T17:11:19Z</time>
      </trkpt>
      <trkpt lat="10.3649229" lon="-85.8124173">
        <ele>46.5</ele>
        <time>2022-10-06T17:11:20Z</time>
      </trkpt>
      <trkpt lat="10.3648726" lon="-85.8124256">
        <ele>46.4</ele>
        <time>2022-10-06T17:11:21Z</time>
      </trkpt>
      <trkpt lat="10.3648168" lon="-85.8124374">
        <ele>46.3</ele>
        <time>2022-10-06T17:11:22Z</time>
      </trkpt>
      <trkpt lat="10.3647567" lon="-85.8124486">
        <ele>46.3</ele>
        <time>2022-10-06T17:11:23Z</time>
      </trkpt>
      <trkpt lat="10.3646914" lon="-85.8124600">
        <ele>46.3</ele>
        <time>2022-10-06T17:11:24Z</time>
      </trkpt>
      <trkpt lat="10.3646212" lon="-85.8124728">
        <ele>46.3</ele>
        <time>2022-10-06T17:11:25Z</time>
      </trkpt>
      <trkpt lat="10.3645523" lon="-85.8124876">
        <ele>46.3</ele>
        <time>2022-10-06T17:11:26Z</time>
      </trkpt>
      <trkpt lat="10.3644809" lon="-85.8125039">
        <ele>46.3</ele>
        <time>2022-10-06T17:11:27Z</time>
      </trkpt>
      <trkpt lat="10.3644158" lon="-85.8125189">
        <ele>46.2</ele>
        <time>2022-10-06T17:11:28Z</time>
      </trkpt>
      <trkpt lat="10.3643546" lon="-85.8125309">
        <ele>46.2</ele>
        <time>2022-10-06T17:11:29Z</time>
      </trkpt>
      <trkpt lat="10.3643012" lon="-85.8125388">
        <ele>46.1</ele>
        <time>2022-10-06T17:11:30Z</time>
      </trkpt>
      <trkpt lat="10.3642551" lon="-85.8125418">
        <ele>46.3</ele>
        <time>2022-10-06T17:11:31Z</time>
      </trkpt>
      <trkpt lat="10.3642082" lon="-85.8125447">
        <ele>46.3</ele>
        <time>2022-10-06T17:11:32Z</time>
      </trkpt>
      <trkpt lat="10.3641571" lon="-85.8125481">
        <ele>46.3</ele>
        <time>2022-10-06T17:11:33Z</time>
      </trkpt>
      <trkpt lat="10.3641033" lon="-85.8125428">
        <ele>46.2</ele>
        <time>2022-10-06T17:11:34Z</time>
      </trkpt>
      <trkpt lat="10.3640506" lon="-85.8125144">
        <ele>46.1</ele>
        <time>2022-10-06T17:11:35Z</time>
      </trkpt>
      <trkpt lat="10.3639951" lon="-85.8124852">
        <ele>46.0</ele>
        <time>2022-10-06T17:11:36Z</time>
      </trkpt>
      <trkpt lat="10.3639392" lon="-85.8124536">
        <ele>45.9</ele>
        <time>2022-10-06T17:11:37Z</time>
      </trkpt>
      <trkpt lat="10.3638859" lon="-85.8124179">
        <ele>45.8</ele>
        <time>2022-10-06T17:11:38Z</time>
      </trkpt>
      <trkpt lat="10.3638359" lon="-85.8123805">
        <ele>45.8</ele>
        <time>2022-10-06T17:11:39Z</time>
      </trkpt>
      <trkpt lat="10.3637884" lon="-85.8123461">
        <ele>45.7</ele>
        <time>2022-10-06T17:11:40Z</time>
      </trkpt>
      <trkpt lat="10.3637438" lon="-85.8123188">
        <ele>45.7</ele>
        <time>2022-10-06T17:11:41Z</time>
      </trkpt>
      <trkpt lat="10.3637040" lon="-85.8122906">
        <ele>45.6</ele>
        <time>2022-10-06T17:11:42Z</time>
      </trkpt>
      <trkpt lat="10.3636843" lon="-85.8122390">
        <ele>45.5</ele>
        <time>2022-10-06T17:11:43Z</time>
      </trkpt>
      <trkpt lat="10.3636644" lon="-85.8121917">
        <ele>45.4</ele>
        <time>2022-10-06T17:11:44Z</time>
      </trkpt>
      <trkpt lat="10.3636401" lon="-85.8121444">
        <ele>45.2</ele>
        <time>2022-10-06T17:11:45Z</time>
      </trkpt>
      <trkpt lat="10.3636056" lon="-85.8120994">
        <ele>45.1</ele>
        <time>2022-10-06T17:11:46Z</time>
      </trkpt>
      <trkpt lat="10.3635595" lon="-85.8120591">
        <ele>44.9</ele>
        <time>2022-10-06T17:11:47Z</time>
      </trkpt>
      <trkpt lat="10.3635066" lon="-85.8120214">
        <ele>44.9</ele>
        <time>2022-10-06T17:11:48Z</time>
      </trkpt>
      <trkpt lat="10.3634496" lon="-85.8119819">
        <ele>44.6</ele>
        <time>2022-10-06T17:11:49Z</time>
      </trkpt>
      <trkpt lat="10.3633857" lon="-85.8119425">
        <ele>44.6</ele>
        <time>2022-10-06T17:11:50Z</time>
      </trkpt>
      <trkpt lat="10.3633124" lon="-85.8118950">
        <ele>44.6</ele>
        <time>2022-10-06T17:11:51Z</time>
      </trkpt>
      <trkpt lat="10.3632399" lon="-85.8118499">
        <ele>44.4</ele>
        <time>2022-10-06T17:11:52Z</time>
      </trkpt>
      <trkpt lat="10.3631700" lon="-85.8118103">
        <ele>44.4</ele>
        <time>2022-10-06T17:11:53Z</time>
      </trkpt>
      <trkpt lat="10.3631062" lon="-85.8117733">
        <ele>44.4</ele>
        <time>2022-10-06T17:11:54Z</time>
      </trkpt>
      <trkpt lat="10.3630471" lon="-85.8117362">
        <ele>44.4</ele>
        <time>2022-10-06T17:11:55Z</time>
      </trkpt>
      <trkpt lat="10.3629939" lon="-85.8117046">
        <ele>44.3</ele>
        <time>2022-10-06T17:11:56Z</time>
      </trkpt>
      <trkpt lat="10.3629514" lon="-85.8116792">
        <ele>44.2</ele>
        <time>2022-10-06T17:11:57Z</time>
      </trkpt>
      <trkpt lat="10.3629260" lon="-85.8116596">
        <ele>44.2</ele>
        <time>2022-10-06T17:11:58Z</time>
      </trkpt>
      <trkpt lat="10.3629081" lon="-85.8116365">
        <ele>44.3</ele>
        <time>2022-10-06T17:11:59Z</time>
      </trkpt>
      <trkpt lat="10.3628936" lon="-85.8116039">
        <ele>44.2</ele>
        <time>2022-10-06T17:12:00Z</time>
      </trkpt>
      <trkpt lat="10.3628888" lon="-85.8115584">
        <ele>44.1</ele>
        <time>2022-10-06T17:12:01Z</time>
      </trkpt>
      <trkpt lat="10.3628909" lon="-85.8115041">
        <ele>44.0</ele>
        <time>2022-10-06T17:12:02Z</time>
      </trkpt>
      <trkpt lat="10.3628953" lon="-85.8114402">
        <ele>44.0</ele>
        <time>2022-10-06T17:12:03Z</time>
      </trkpt>
      <trkpt lat="10.3629003" lon="-85.8113724">
        <ele>43.9</ele>
        <time>2022-10-06T17:12:04Z</time>
      </trkpt>
      <trkpt lat="10.3629055" lon="-85.8113027">
        <ele>43.8</ele>
        <time>2022-10-06T17:12:05Z</time>
      </trkpt>
      <trkpt lat="10.3629105" lon="-85.8112298">
        <ele>43.7</ele>
        <time>2022-10-06T17:12:06Z</time>
      </trkpt>
      <trkpt lat="10.3629164" lon="-85.8111631">
        <ele>43.6</ele>
        <time>2022-10-06T17:12:07Z</time>
      </trkpt>
      <trkpt lat="10.3629203" lon="-85.8111096">
        <ele>43.6</ele>
        <time>2022-10-06T17:12:08Z</time>
      </trkpt>
      <trkpt lat="10.3629208" lon="-85.8110721">
        <ele>43.6</ele>
        <time>2022-10-06T17:12:09Z</time>
      </trkpt>
      <trkpt lat="10.3629179" lon="-85.8110478">
        <ele>43.5</ele>
        <time>2022-10-06T17:12:10Z</time>
      </trkpt>
      <trkpt lat="10.3629151" lon="-85.8110299">
        <ele>43.5</ele>
        <time>2022-10-06T17:12:11Z</time>
      </trkpt>
      <trkpt lat="10.3629099" lon="-85.8110088">
        <ele>43.9</ele>
        <time>2022-10-06T17:12:12Z</time>
      </trkpt>
      <trkpt lat="10.3629003" lon="-85.8109900">
        <ele>43.9</ele>
        <time>2022-10-06T17:12:13Z</time>
      </trkpt>
      <trkpt lat="10.3628876" lon="-85.8109801">
        <ele>43.9</ele>
        <time>2022-10-06T17:12:14Z</time>
      </trkpt>
      <trkpt lat="10.3628764" lon="-85.8109675">
        <ele>43.9</ele>
        <time>2022-10-06T17:12:15Z</time>
      </trkpt>
      <trkpt lat="10.3628572" lon="-85.8109560">
        <ele>44.1</ele>
        <time>2022-10-06T17:12:16Z</time>
      </trkpt>
      <trkpt lat="10.3628297" lon="-85.8109632">
        <ele>43.8</ele>
        <time>2022-10-06T17:12:17Z</time>
      </trkpt>
      <trkpt lat="10.3627944" lon="-85.8109625">
        <ele>43.8</ele>
        <time>2022-10-06T17:12:18Z</time>
      </trkpt>
      <trkpt lat="10.3627538" lon="-85.8109615">
        <ele>43.7</ele>
        <time>2022-10-06T17:12:19Z</time>
      </trkpt>
      <trkpt lat="10.3627061" lon="-85.8109593">
        <ele>43.6</ele>
        <time>2022-10-06T17:12:20Z</time>
      </trkpt>
      <trkpt lat="10.3626562" lon="-85.8109551">
        <ele>43.6</ele>
        <time>2022-10-06T17:12:21Z</time>
      </trkpt>
      <trkpt lat="10.3626030" lon="-85.8109497">
        <ele>43.4</ele>
        <time>2022-10-06T17:12:22Z</time>
      </trkpt>
      <trkpt lat="10.3625473" lon="-85.8109418">
        <ele>43.4</ele>
        <time>2022-10-06T17:12:23Z</time>
      </trkpt>
      <trkpt lat="10.3624931" lon="-85.8109339">
        <ele>43.3</ele>
        <time>2022-10-06T17:12:24Z</time>
      </trkpt>
      <trkpt lat="10.3624390" lon="-85.8109271">
        <ele>43.5</ele>
        <time>2022-10-06T17:12:25Z</time>
      </trkpt>
      <trkpt lat="10.3623853" lon="-85.8109262">
        <ele>43.3</ele>
        <time>2022-10-06T17:12:26Z</time>
      </trkpt>
      <trkpt lat="10.3623325" lon="-85.8109255">
        <ele>43.3</ele>
        <time>2022-10-06T17:12:27Z</time>
      </trkpt>
      <trkpt lat="10.3622746" lon="-85.8109307">
        <ele>43.2</ele>
        <time>2022-10-06T17:12:28Z</time>
      </trkpt>
      <trkpt lat="10.3622194" lon="-85.8109328">
        <ele>43.1</ele>
        <time>2022-10-06T17:12:29Z</time>
      </trkpt>
      <trkpt lat="10.3621711" lon="-85.8109322">
        <ele>43.0</ele>
        <time>2022-10-06T17:12:30Z</time>
      </trkpt>
      <trkpt lat="10.3621308" lon="-85.8109316">
        <ele>43.0</ele>
        <time>2022-10-06T17:12:31Z</time>
      </trkpt>
      <trkpt lat="10.3621113" lon="-85.8109307">
        <ele>43.0</ele>
        <time>2022-10-06T17:12:32Z</time>
      </trkpt>
      <trkpt lat="10.3620968" lon="-85.8109283">
        <ele>43.0</ele>
        <time>2022-10-06T17:12:33Z</time>
      </trkpt>
      <trkpt lat="10.3620822" lon="-85.8109262">
        <ele>42.9</ele>
        <time>2022-10-06T17:12:34Z</time>
      </trkpt>
      <trkpt lat="10.3620682" lon="-85.8109251">
        <ele>42.8</ele>
        <time>2022-10-06T17:12:35Z</time>
      </trkpt>
      <trkpt lat="10.3620529" lon="-85.8109228">
        <ele>42.8</ele>
        <time>2022-10-06T17:12:36Z</time>
      </trkpt>
      <trkpt lat="10.3620342" lon="-85.8109155">
        <ele>43.0</ele>
        <time>2022-10-06T17:12:37Z</time>
      </trkpt>
      <trkpt lat="10.3620127" lon="-85.8109062">
        <ele>43.1</ele>
        <time>2022-10-06T17:12:38Z</time>
      </trkpt>
      <trkpt lat="10.3619938" lon="-85.8108896">
        <ele>42.7</ele>
        <time>2022-10-06T17:12:39Z</time>
      </trkpt>
      <trkpt lat="10.3619949" lon="-85.8108489">
        <ele>42.7</ele>
        <time>2022-10-06T17:12:40Z</time>
      </trkpt>
      <trkpt lat="10.3619880" lon="-85.8108168">
        <ele>42.6</ele>
        <time>2022-10-06T17:12:41Z</time>
      </trkpt>
      <trkpt lat="10.3619889" lon="-85.8107810">
        <ele>42.7</ele>
        <time>2022-10-06T17:12:42Z</time>
      </trkpt>
      <trkpt lat="10.3619961" lon="-85.8107422">
        <ele>43.0</ele>
        <time>2022-10-06T17:12:43Z</time>
      </trkpt>
      <trkpt lat="10.3620024" lon="-85.8106981">
        <ele>42.9</ele>
        <time>2022-10-06T17:12:44Z</time>
      </trkpt>
      <trkpt lat="10.3620079" lon="-85.8106498">
        <ele>42.8</ele>
        <time>2022-10-06T17:12:45Z</time>
      </trkpt>
      <trkpt lat="10.3620122" lon="-85.8105990">
        <ele>42.7</ele>
        <time>2022-10-06T17:12:46Z</time>
      </trkpt>
      <trkpt lat="10.3620175" lon="-85.8105504">
        <ele>42.8</ele>
        <time>2022-10-06T17:12:47Z</time>
      </trkpt>
      <trkpt lat="10.3620200" lon="-85.8104994">
        <ele>42.8</ele>
        <time>2022-10-06T17:12:48Z</time>
      </trkpt>
      <trkpt lat="10.3620211" lon="-85.8104498">
        <ele>42.8</ele>
        <time>2022-10-06T17:12:49Z</time>
      </trkpt>
      <trkpt lat="10.3620196" lon="-85.8104021">
        <ele>42.7</ele>
        <time>2022-10-06T17:12:50Z</time>
      </trkpt>
      <trkpt lat="10.3620184" lon="-85.8103578">
        <ele>42.7</ele>
        <time>2022-10-06T17:12:51Z</time>
      </trkpt>
      <trkpt lat="10.3620182" lon="-85.8103193">
        <ele>42.7</ele>
        <time>2022-10-06T17:12:52Z</time>
      </trkpt>
      <trkpt lat="10.3620167" lon="-85.8102872">
        <ele>42.7</ele>
        <time>2022-10-06T17:12:53Z</time>
      </trkpt>
      <trkpt lat="10.3620162" lon="-85.8102642">
        <ele>42.7</ele>
        <time>2022-10-06T17:12:54Z</time>
      </trkpt>
      <trkpt lat="10.3620147" lon="-85.8102520">
        <ele>42.8</ele>
        <time>2022-10-06T17:12:55Z</time>
      </trkpt>
      <trkpt lat="10.3620152" lon="-85.8102415">
        <ele>42.8</ele>
        <time>2022-10-06T17:12:56Z</time>
      </trkpt>
      <trkpt lat="10.3620153" lon="-85.8102376">
        <ele>42.9</ele>
        <time>2022-10-06T17:12:57Z</time>
      </trkpt>
      <trkpt lat="10.3620143" lon="-85.8102350">
        <ele>42.9</ele>
        <time>2022-10-06T17:12:58Z</time>
      </trkpt>
      <trkpt lat="10.3620143" lon="-85.8102303">
        <ele>42.9</ele>
        <time>2022-10-06T17:12:59Z</time>
      </trkpt>
      <trkpt lat="10.3620148" lon="-85.8102253">
        <ele>42.8</ele>
        <time>2022-10-06T17:13:00Z</time>
      </trkpt>
      <trkpt lat="10.3620152" lon="-85.8102169">
        <ele>42.9</ele>
        <time>2022-10-06T17:13:01Z</time>
      </trkpt>
      <trkpt lat="10.3620158" lon="-85.8102063">
        <ele>42.9</ele>
        <time>2022-10-06T17:13:02Z</time>
      </trkpt>
      <trkpt lat="10.3620174" lon="-85.8101933">
        <ele>42.9</ele>
        <time>2022-10-06T17:13:03Z</time>
      </trkpt>
      <trkpt lat="10.3620195" lon="-85.8101791">
        <ele>42.8</ele>
        <time>2022-10-06T17:13:04Z</time>
      </trkpt>
      <trkpt lat="10.3620205" lon="-85.8101664">
        <ele>42.7</ele>
        <time>2022-10-06T17:13:05Z</time>
      </trkpt>
      <trkpt lat="10.3620209" lon="-85.8101511">
        <ele>42.7</ele>
        <time>2022-10-06T17:13:06Z</time>
      </trkpt>
      <trkpt lat="10.3620217" lon="-85.8101348">
        <ele>42.8</ele>
        <time>2022-10-06T17:13:07Z</time>
      </trkpt>
      <trkpt lat="10.3620243" lon="-85.8101149">
        <ele>42.8</ele>
        <time>2022-10-06T17:13:08Z</time>
      </trkpt>
      <trkpt lat="10.3620266" lon="-85.8100953">
        <ele>42.8</ele>
        <time>2022-10-06T17:13:09Z</time>
      </trkpt>
      <trkpt lat="10.3620301" lon="-85.8100755">
        <ele>42.8</ele>
        <time>2022-10-06T17:13:10Z</time>
      </trkpt>
      <trkpt lat="10.3620346" lon="-85.8100584">
        <ele>42.9</ele>
        <time>2022-10-06T17:13:11Z</time>
      </trkpt>
      <trkpt lat="10.3620357" lon="-85.8100508">
        <ele>42.8</ele>
        <time>2022-10-06T17:13:12Z</time>
      </trkpt>
      <trkpt lat="10.3620388" lon="-85.8100380">
        <ele>42.8</ele>
        <time>2022-10-06T17:13:13Z</time>
      </trkpt>
      <trkpt lat="10.3620402" lon="-85.8100271">
        <ele>42.8</ele>
        <time>2022-10-06T17:13:14Z</time>
      </trkpt>
      <trkpt lat="10.3620434" lon="-85.8100143">
        <ele>42.8</ele>
        <time>2022-10-06T17:13:15Z</time>
      </trkpt>
      <trkpt lat="10.3620455" lon="-85.8100060">
        <ele>42.9</ele>
        <time>2022-10-06T17:13:16Z</time>
      </trkpt>
      <trkpt lat="10.3620464" lon="-85.8099968">
        <ele>42.8</ele>
        <time>2022-10-06T17:13:17Z</time>
      </trkpt>
      <trkpt lat="10.3620505" lon="-85.8099869">
        <ele>42.8</ele>
        <time>2022-10-06T17:13:18Z</time>
      </trkpt>
      <trkpt lat="10.3620542" lon="-85.8099765">
        <ele>42.8</ele>
        <time>2022-10-06T17:13:19Z</time>
      </trkpt>
      <trkpt lat="10.3620577" lon="-85.8099606">
        <ele>42.7</ele>
        <time>2022-10-06T17:13:20Z</time>
      </trkpt>
      <trkpt lat="10.3620618" lon="-85.8099397">
        <ele>42.6</ele>
        <time>2022-10-06T17:13:21Z</time>
      </trkpt>
      <trkpt lat="10.3620651" lon="-85.8099108">
        <ele>42.5</ele>
        <time>2022-10-06T17:13:22Z</time>
      </trkpt>
      <trkpt lat="10.3620702" lon="-85.8098733">
        <ele>42.4</ele>
        <time>2022-10-06T17:13:23Z</time>
      </trkpt>
      <trkpt lat="10.3620752" lon="-85.8098269">
        <ele>42.2</ele>
        <time>2022-10-06T17:13:24Z</time>
      </trkpt>
      <trkpt lat="10.3620807" lon="-85.8097719">
        <ele>42.1</ele>
        <time>2022-10-06T17:13:25Z</time>
      </trkpt>
      <trkpt lat="10.3620865" lon="-85.8097071">
        <ele>41.9</ele>
        <time>2022-10-06T17:13:26Z</time>
      </trkpt>
      <trkpt lat="10.3620939" lon="-85.8096360">
        <ele>41.7</ele>
        <time>2022-10-06T17:13:27Z</time>
      </trkpt>
      <trkpt lat="10.3621018" lon="-85.8095571">
        <ele>41.4</ele>
        <time>2022-10-06T17:13:28Z</time>
      </trkpt>
      <trkpt lat="10.3621111" lon="-85.8094728">
        <ele>41.2</ele>
        <time>2022-10-06T17:13:29Z</time>
      </trkpt>
      <trkpt lat="10.3621184" lon="-85.8093830">
        <ele>41.1</ele>
        <time>2022-10-06T17:13:30Z</time>
      </trkpt>
      <trkpt lat="10.3621251" lon="-85.8092906">
        <ele>41.1</ele>
        <time>2022-10-06T17:13:31Z</time>
      </trkpt>
      <trkpt lat="10.3621333" lon="-85.8091919">
        <ele>40.8</ele>
        <time>2022-10-06T17:13:32Z</time>
      </trkpt>
      <trkpt lat="10.3621412" lon="-85.8090917">
        <ele>40.8</ele>
        <time>2022-10-06T17:13:33Z</time>
      </trkpt>
      <trkpt lat="10.3621485" lon="-85.8089871">
        <ele>41.1</ele>
        <time>2022-10-06T17:13:34Z</time>
      </trkpt>
      <trkpt lat="10.3621559" lon="-85.8088763">
        <ele>41.1</ele>
        <time>2022-10-06T17:13:35Z</time>
      </trkpt>
      <trkpt lat="10.3621655" lon="-85.8087659">
        <ele>41.3</ele>
        <time>2022-10-06T17:13:36Z</time>
      </trkpt>
      <trkpt lat="10.3621767" lon="-85.8086609">
        <ele>41.4</ele>
        <time>2022-10-06T17:13:37Z</time>
      </trkpt>
      <trkpt lat="10.3621871" lon="-85.8085631">
        <ele>41.6</ele>
        <time>2022-10-06T17:13:38Z</time>
      </trkpt>
      <trkpt lat="10.3622033" lon="-85.8084767">
        <ele>41.8</ele>
        <time>2022-10-06T17:13:39Z</time>
      </trkpt>
      <trkpt lat="10.3622211" lon="-85.8084035">
        <ele>41.9</ele>
        <time>2022-10-06T17:13:40Z</time>
      </trkpt>
      <trkpt lat="10.3622375" lon="-85.8083510">
        <ele>41.9</ele>
        <time>2022-10-06T17:13:41Z</time>
      </trkpt>
      <trkpt lat="10.3622502" lon="-85.8083199">
        <ele>41.9</ele>
        <time>2022-10-06T17:13:42Z</time>
      </trkpt>
      <trkpt lat="10.3622570" lon="-85.8083049">
        <ele>41.9</ele>
        <time>2022-10-06T17:13:43Z</time>
      </trkpt>
      <trkpt lat="10.3622586" lon="-85.8083013">
        <ele>41.9</ele>
        <time>2022-10-06T17:13:44Z</time>
      </trkpt>
      <trkpt lat="10.3622586" lon="-85.8083013">
        <ele>41.8</ele>
        <time>2022-10-06T17:13:45Z</time>
      </trkpt>
      <trkpt lat="10.3622586" lon="-85.8083013">
        <ele>41.8</ele>
        <time>2022-10-06T17:13:46Z</time>
      </trkpt>
      <trkpt lat="10.3622586" lon="-85.8083013">
        <ele>41.9</ele>
        <time>2022-10-06T17:13:47Z</time>
      </trkpt>
      <trkpt lat="10.3622586" lon="-85.8083013">
        <ele>41.9</ele>
        <time>2022-10-06T17:13:48Z</time>
      </trkpt>
      <trkpt lat="10.3622586" lon="-85.8083013">
        <ele>41.8</ele>
        <time>2022-10-06T17:13:49Z</time>
      </trkpt>
      <trkpt lat="10.3622586" lon="-85.8083013">
        <ele>41.7</ele>
        <time>2022-10-06T17:13:50Z</time>
      </trkpt>
      <trkpt lat="10.3622707" lon="-85.8082861">
        <ele>41.7</ele>
        <time>2022-10-06T17:13:51Z</time>
      </trkpt>
      <trkpt lat="10.3622828" lon="-85.8082699">
        <ele>41.8</ele>
        <time>2022-10-06T17:13:52Z</time>
      </trkpt>
      <trkpt lat="10.3623027" lon="-85.8082475">
        <ele>41.8</ele>
        <time>2022-10-06T17:13:53Z</time>
      </trkpt>
      <trkpt lat="10.3623246" lon="-85.8082126">
        <ele>41.8</ele>
        <time>2022-10-06T17:13:54Z</time>
      </trkpt>
      <trkpt lat="10.3623453" lon="-85.8081642">
        <ele>41.7</ele>
        <time>2022-10-06T17:13:55Z</time>
      </trkpt>
      <trkpt lat="10.3623668" lon="-85.8081063">
        <ele>41.7</ele>
        <time>2022-10-06T17:13:56Z</time>
      </trkpt>
      <trkpt lat="10.3623919" lon="-85.8080432">
        <ele>41.9</ele>
        <time>2022-10-06T17:13:57Z</time>
      </trkpt>
      <trkpt lat="10.3624223" lon="-85.8079806">
        <ele>42.0</ele>
        <time>2022-10-06T17:13:58Z</time>
      </trkpt>
      <trkpt lat="10.3624556" lon="-85.8079252">
        <ele>42.1</ele>
        <time>2022-10-06T17:13:59Z</time>
      </trkpt>
      <trkpt lat="10.3624857" lon="-85.8078762">
        <ele>42.2</ele>
        <time>2022-10-06T17:14:00Z</time>
      </trkpt>
      <trkpt lat="10.3625068" lon="-85.8078359">
        <ele>42.4</ele>
        <time>2022-10-06T17:14:01Z</time>
      </trkpt>
      <trkpt lat="10.3625134" lon="-85.8078021">
        <ele>42.5</ele>
        <time>2022-10-06T17:14:02Z</time>
      </trkpt>
      <trkpt lat="10.3625116" lon="-85.8077734">
        <ele>42.5</ele>
        <time>2022-10-06T17:14:03Z</time>
      </trkpt>
      <trkpt lat="10.3625073" lon="-85.8077544">
        <ele>42.5</ele>
        <time>2022-10-06T17:14:04Z</time>
      </trkpt>
      <trkpt lat="10.3624948" lon="-85.8077362">
        <ele>42.6</ele>
        <time>2022-10-06T17:14:05Z</time>
      </trkpt>
      <trkpt lat="10.3624799" lon="-85.8077243">
        <ele>42.7</ele>
        <time>2022-10-06T17:14:06Z</time>
      </trkpt>
      <trkpt lat="10.3624634" lon="-85.8077168">
        <ele>42.7</ele>
        <time>2022-10-06T17:14:07Z</time>
      </trkpt>
      <trkpt lat="10.3624480" lon="-85.8077129">
        <ele>42.7</ele>
        <time>2022-10-06T17:14:08Z</time>
      </trkpt>
      <trkpt lat="10.3624318" lon="-85.8077085">
        <ele>42.7</ele>
        <time>2022-10-06T17:14:09Z</time>
      </trkpt>
      <trkpt lat="10.3624131" lon="-85.8077109">
        <ele>42.8</ele>
        <time>2022-10-06T17:14:10Z</time>
      </trkpt>
      <trkpt lat="10.3623874" lon="-85.8077133">
        <ele>42.8</ele>
        <time>2022-10-06T17:14:11Z</time>
      </trkpt>
      <trkpt lat="10.3623560" lon="-85.8077216">
        <ele>42.9</ele>
        <time>2022-10-06T17:14:12Z</time>
      </trkpt>
      <trkpt lat="10.3623183" lon="-85.8077361">
        <ele>43.2</ele>
        <time>2022-10-06T17:14:13Z</time>
      </trkpt>
      <trkpt lat="10.3622728" lon="-85.8077491">
        <ele>43.4</ele>
        <time>2022-10-06T17:14:14Z</time>
      </trkpt>
      <trkpt lat="10.3622186" lon="-85.8077619">
        <ele>43.6</ele>
        <time>2022-10-06T17:14:15Z</time>
      </trkpt>
      <trkpt lat="10.3621670" lon="-85.8077742">
        <ele>43.6</ele>
        <time>2022-10-06T17:14:16Z</time>
      </trkpt>
      <trkpt lat="10.3621137" lon="-85.8077710">
        <ele>43.4</ele>
        <time>2022-10-06T17:14:17Z</time>
      </trkpt>
      <trkpt lat="10.3620594" lon="-85.8077571">
        <ele>43.3</ele>
        <time>2022-10-06T17:14:18Z</time>
      </trkpt>
      <trkpt lat="10.3620053" lon="-85.8077492">
        <ele>43.3</ele>
        <time>2022-10-06T17:14:19Z</time>
      </trkpt>
      <trkpt lat="10.3619511" lon="-85.8077405">
        <ele>43.3</ele>
        <time>2022-10-06T17:14:20Z</time>
      </trkpt>
      <trkpt lat="10.3618991" lon="-85.8077307">
        <ele>43.2</ele>
        <time>2022-10-06T17:14:21Z</time>
      </trkpt>
      <trkpt lat="10.3618457" lon="-85.8077232">
        <ele>43.2</ele>
        <time>2022-10-06T17:14:22Z</time>
      </trkpt>
      <trkpt lat="10.3617928" lon="-85.8077149">
        <ele>43.3</ele>
        <time>2022-10-06T17:14:23Z</time>
      </trkpt>
      <trkpt lat="10.3617407" lon="-85.8077036">
        <ele>43.2</ele>
        <time>2022-10-06T17:14:24Z</time>
      </trkpt>
      <trkpt lat="10.3616883" lon="-85.8076899">
        <ele>43.2</ele>
        <time>2022-10-06T17:14:25Z</time>
      </trkpt>
      <trkpt lat="10.3616341" lon="-85.8076781">
        <ele>43.2</ele>
        <time>2022-10-06T17:14:26Z</time>
      </trkpt>
      <trkpt lat="10.3615828" lon="-85.8076720">
        <ele>43.0</ele>
        <time>2022-10-06T17:14:27Z</time>
      </trkpt>
      <trkpt lat="10.3615369" lon="-85.8076677">
        <ele>42.9</ele>
        <time>2022-10-06T17:14:28Z</time>
      </trkpt>
      <trkpt lat="10.3614877" lon="-85.8076638">
        <ele>42.7</ele>
        <time>2022-10-06T17:14:29Z</time>
      </trkpt>
      <trkpt lat="10.3614378" lon="-85.8076615">
        <ele>42.4</ele>
        <time>2022-10-06T17:14:30Z</time>
      </trkpt>
      <trkpt lat="10.3613913" lon="-85.8076621">
        <ele>42.5</ele>
        <time>2022-10-06T17:14:31Z</time>
      </trkpt>
      <trkpt lat="10.3613416" lon="-85.8076645">
        <ele>42.4</ele>
        <time>2022-10-06T17:14:32Z</time>
      </trkpt>
      <trkpt lat="10.3612880" lon="-85.8076680">
        <ele>42.5</ele>
        <time>2022-10-06T17:14:33Z</time>
      </trkpt>
      <trkpt lat="10.3612272" lon="-85.8076708">
        <ele>42.3</ele>
        <time>2022-10-06T17:14:34Z</time>
      </trkpt>
      <trkpt lat="10.3611676" lon="-85.8076723">
        <ele>41.9</ele>
        <time>2022-10-06T17:14:35Z</time>
      </trkpt>
      <trkpt lat="10.3611106" lon="-85.8076719">
        <ele>41.8</ele>
        <time>2022-10-06T17:14:36Z</time>
      </trkpt>
      <trkpt lat="10.3610571" lon="-85.8076741">
        <ele>41.8</ele>
        <time>2022-10-06T17:14:37Z</time>
      </trkpt>
      <trkpt lat="10.3610081" lon="-85.8076688">
        <ele>41.6</ele>
        <time>2022-10-06T17:14:38Z</time>
      </trkpt>
      <trkpt lat="10.3609613" lon="-85.8076650">
        <ele>41.5</ele>
        <time>2022-10-06T17:14:39Z</time>
      </trkpt>
      <trkpt lat="10.3609150" lon="-85.8076600">
        <ele>41.3</ele>
        <time>2022-10-06T17:14:40Z</time>
      </trkpt>
      <trkpt lat="10.3608715" lon="-85.8076589">
        <ele>41.3</ele>
        <time>2022-10-06T17:14:41Z</time>
      </trkpt>
      <trkpt lat="10.3608273" lon="-85.8076571">
        <ele>41.3</ele>
        <time>2022-10-06T17:14:42Z</time>
      </trkpt>
      <trkpt lat="10.3607815" lon="-85.8076558">
        <ele>41.9</ele>
        <time>2022-10-06T17:14:43Z</time>
      </trkpt>
      <trkpt lat="10.3607350" lon="-85.8076517">
        <ele>41.8</ele>
        <time>2022-10-06T17:14:44Z</time>
      </trkpt>
      <trkpt lat="10.3606849" lon="-85.8076500">
        <ele>41.5</ele>
        <time>2022-10-06T17:14:45Z</time>
      </trkpt>
      <trkpt lat="10.3606397" lon="-85.8076468">
        <ele>41.2</ele>
        <time>2022-10-06T17:14:46Z</time>
      </trkpt>
      <trkpt lat="10.3605869" lon="-85.8076399">
        <ele>40.9</ele>
        <time>2022-10-06T17:14:47Z</time>
      </trkpt>
      <trkpt lat="10.3605387" lon="-85.8076317">
        <ele>40.7</ele>
        <time>2022-10-06T17:14:48Z</time>
      </trkpt>
      <trkpt lat="10.3604929" lon="-85.8076278">
        <ele>40.7</ele>
        <time>2022-10-06T17:14:49Z</time>
      </trkpt>
      <trkpt lat="10.3604558" lon="-85.8076247">
        <ele>40.5</ele>
        <time>2022-10-06T17:14:50Z</time>
      </trkpt>
      <trkpt lat="10.3604199" lon="-85.8076216">
        <ele>40.4</ele>
        <time>2022-10-06T17:14:51Z</time>
      </trkpt>
      <trkpt lat="10.3603923" lon="-85.8076193">
        <ele>40.3</ele>
        <time>2022-10-06T17:14:52Z</time>
      </trkpt>
      <trkpt lat="10.3603690" lon="-85.8076161">
        <ele>40.2</ele>
        <time>2022-10-06T17:14:53Z</time>
      </trkpt>
      <trkpt lat="10.3603524" lon="-85.8076113">
        <ele>40.1</ele>
        <time>2022-10-06T17:14:54Z</time>
      </trkpt>
      <trkpt lat="10.3603366" lon="-85.8076020">
        <ele>40.1</ele>
        <time>2022-10-06T17:14:55Z</time>
      </trkpt>
      <trkpt lat="10.3603270" lon="-85.8075932">
        <ele>39.8</ele>
        <time>2022-10-06T17:14:56Z</time>
      </trkpt>
      <trkpt lat="10.3603204" lon="-85.8075900">
        <ele>39.7</ele>
        <time>2022-10-06T17:14:57Z</time>
      </trkpt>
      <trkpt lat="10.3603204" lon="-85.8075900">
        <ele>39.8</ele>
        <time>2022-10-06T17:14:58Z</time>
      </trkpt>
      <trkpt lat="10.3603204" lon="-85.8075900">
        <ele>39.8</ele>
        <time>2022-10-06T17:14:59Z</time>
      </trkpt>
      <trkpt lat="10.3603256" lon="-85.8075908">
        <ele>39.3</ele>
        <time>2022-10-06T17:15:00Z</time>
      </trkpt>
      <trkpt lat="10.3603314" lon="-85.8075934">
        <ele>39.3</ele>
        <time>2022-10-06T17:15:01Z</time>
      </trkpt>
      <trkpt lat="10.3603360" lon="-85.8075962">
        <ele>39.4</ele>
        <time>2022-10-06T17:15:02Z</time>
      </trkpt>
      <trkpt lat="10.3603419" lon="-85.8075986">
        <ele>39.4</ele>
        <time>2022-10-06T17:15:03Z</time>
      </trkpt>
      <trkpt lat="10.3603481" lon="-85.8076020">
        <ele>39.5</ele>
        <time>2022-10-06T17:15:04Z</time>
      </trkpt>
      <trkpt lat="10.3603528" lon="-85.8076062">
        <ele>39.5</ele>
        <time>2022-10-06T17:15:05Z</time>
      </trkpt>
      <trkpt lat="10.3603528" lon="-85.8076062">
        <ele>39.5</ele>
        <time>2022-10-06T17:15:06Z</time>
      </trkpt>
      <trkpt lat="10.3603528" lon="-85.8076062">
        <ele>39.5</ele>
        <time>2022-10-06T17:15:07Z</time>
      </trkpt>
      <trkpt lat="10.3603577" lon="-85.8075988">
        <ele>39.5</ele>
        <time>2022-10-06T17:15:08Z</time>
      </trkpt>
      <trkpt lat="10.3603611" lon="-85.8075839">
        <ele>39.5</ele>
        <time>2022-10-06T17:15:09Z</time>
      </trkpt>
      <trkpt lat="10.3603724" lon="-85.8075704">
        <ele>39.5</ele>
        <time>2022-10-06T17:15:10Z</time>
      </trkpt>
      <trkpt lat="10.3603883" lon="-85.8075615">
        <ele>39.4</ele>
        <time>2022-10-06T17:15:11Z</time>
      </trkpt>
      <trkpt lat="10.3604036" lon="-85.8075494">
        <ele>39.4</ele>
        <time>2022-10-06T17:15:12Z</time>
      </trkpt>
      <trkpt lat="10.3604190" lon="-85.8075573">
        <ele>39.8</ele>
        <time>2022-10-06T17:15:13Z</time>
      </trkpt>
      <trkpt lat="10.3604276" lon="-85.8075604">
        <ele>39.8</ele>
        <time>2022-10-06T17:15:14Z</time>
      </trkpt>
      <trkpt lat="10.3604354" lon="-85.8075657">
        <ele>40.0</ele>
        <time>2022-10-06T17:15:15Z</time>
      </trkpt>
      <trkpt lat="10.3604378" lon="-85.8075683">
        <ele>40.0</ele>
        <time>2022-10-06T17:15:16Z</time>
      </trkpt>
      <trkpt lat="10.3604378" lon="-85.8075683">
        <ele>40.0</ele>
        <time>2022-10-06T17:15:17Z</time>
      </trkpt>
      <trkpt lat="10.3604378" lon="-85.8075683">
        <ele>39.8</ele>
        <time>2022-10-06T17:15:18Z</time>
      </trkpt>
      <trkpt lat="10.3604378" lon="-85.8075683">
        <ele>40.1</ele>
        <time>2022-10-06T17:15:19Z</time>
      </trkpt>
      <trkpt lat="10.3604378" lon="-85.8075683">
        <ele>40.1</ele>
        <time>2022-10-06T17:15:20Z</time>
      </trkpt>
      <trkpt lat="10.3604258" lon="-85.8075672">
        <ele>39.7</ele>
        <time>2022-10-06T17:15:21Z</time>
      </trkpt>
      <trkpt lat="10.3604220" lon="-85.8075647">
        <ele>39.9</ele>
        <time>2022-10-06T17:15:22Z</time>
      </trkpt>
      <trkpt lat="10.3604196" lon="-85.8075642">
        <ele>40.0</ele>
        <time>2022-10-06T17:15:23Z</time>
      </trkpt>
      <trkpt lat="10.3604196" lon="-85.8075642">
        <ele>40.0</ele>
        <time>2022-10-06T17:15:24Z</time>
      </trkpt>
      <trkpt lat="10.3604196" lon="-85.8075642">
        <ele>40.0</ele>
        <time>2022-10-06T17:15:25Z</time>
      </trkpt>
      <trkpt lat="10.3604196" lon="-85.8075642">
        <ele>40.0</ele>
        <time>2022-10-06T17:15:26Z</time>
      </trkpt>
      <trkpt lat="10.3604196" lon="-85.8075642">
        <ele>40.1</ele>
        <time>2022-10-06T17:15:27Z</time>
      </trkpt>
      <trkpt lat="10.3604196" lon="-85.8075642">
        <ele>40.1</ele>
        <time>2022-10-06T17:15:28Z</time>
      </trkpt>
      <trkpt lat="10.3604196" lon="-85.8075642">
        <ele>40.1</ele>
        <time>2022-10-06T17:15:29Z</time>
      </trkpt>
      <trkpt lat="10.3604196" lon="-85.8075642">
        <ele>40.1</ele>
        <time>2022-10-06T17:15:30Z</time>
      </trkpt>
      <trkpt lat="10.3604196" lon="-85.8075642">
        <ele>40.0</ele>
        <time>2022-10-06T17:15:31Z</time>
      </trkpt>
      <trkpt lat="10.3604196" lon="-85.8075642">
        <ele>40.0</ele>
        <time>2022-10-06T17:15:32Z</time>
      </trkpt>
      <trkpt lat="10.3604196" lon="-85.8075642">
        <ele>40.0</ele>
        <time>2022-10-06T17:15:33Z</time>
      </trkpt>
      <trkpt lat="10.3604196" lon="-85.8075642">
        <ele>39.9</ele>
        <time>2022-10-06T17:15:34Z</time>
      </trkpt>
      <trkpt lat="10.3604196" lon="-85.8075642">
        <ele>39.8</ele>
        <time>2022-10-06T17:15:35Z</time>
      </trkpt>
      <trkpt lat="10.3604196" lon="-85.8075642">
        <ele>39.8</ele>
        <time>2022-10-06T17:15:36Z</time>
      </trkpt>
      <trkpt lat="10.3604196" lon="-85.8075642">
        <ele>39.8</ele>
        <time>2022-10-06T17:15:37Z</time>
      </trkpt>
      <trkpt lat="10.3604196" lon="-85.8075642">
        <ele>39.8</ele>
        <time>2022-10-06T17:15:38Z</time>
      </trkpt>
      <trkpt lat="10.3604196" lon="-85.8075642">
        <ele>39.8</ele>
        <time>2022-10-06T17:15:39Z</time>
      </trkpt>
      <trkpt lat="10.3604196" lon="-85.8075642">
        <ele>39.8</ele>
        <time>2022-10-06T17:15:40Z</time>
      </trkpt>
      <trkpt lat="10.3604196" lon="-85.8075642">
        <ele>39.7</ele>
        <time>2022-10-06T17:15:41Z</time>
      </trkpt>
      <trkpt lat="10.3604196" lon="-85.8075642">
        <ele>39.6</ele>
        <time>2022-10-06T17:15:42Z</time>
      </trkpt>
      <trkpt lat="10.3604196" lon="-85.8075642">
        <ele>39.6</ele>
        <time>2022-10-06T17:15:43Z</time>
      </trkpt>
      <trkpt lat="10.3604196" lon="-85.8075642">
        <ele>39.6</ele>
        <time>2022-10-06T17:15:44Z</time>
      </trkpt>
      <trkpt lat="10.3604196" lon="-85.8075642">
        <ele>39.6</ele>
        <time>2022-10-06T17:15:45Z</time>
      </trkpt>
      <trkpt lat="10.3604196" lon="-85.8075642">
        <ele>39.5</ele>
        <time>2022-10-06T17:15:46Z</time>
      </trkpt>
      <trkpt lat="10.3604196" lon="-85.8075642">
        <ele>39.5</ele>
        <time>2022-10-06T17:15:47Z</time>
      </trkpt>
      <trkpt lat="10.3604196" lon="-85.8075642">
        <ele>39.4</ele>
        <time>2022-10-06T17:15:48Z</time>
      </trkpt>
      <trkpt lat="10.3604196" lon="-85.8075642">
        <ele>39.4</ele>
        <time>2022-10-06T17:15:49Z</time>
      </trkpt>
      <trkpt lat="10.3604196" lon="-85.8075642">
        <ele>39.4</ele>
        <time>2022-10-06T17:15:50Z</time>
      </trkpt>
      <trkpt lat="10.3604196" lon="-85.8075642">
        <ele>39.4</ele>
        <time>2022-10-06T17:15:51Z</time>
      </trkpt>
      <trkpt lat="10.3604196" lon="-85.8075642">
        <ele>39.3</ele>
        <time>2022-10-06T17:15:52Z</time>
      </trkpt>
      <trkpt lat="10.3604196" lon="-85.8075642">
        <ele>39.3</ele>
        <time>2022-10-06T17:15:53Z</time>
      </trkpt>
      <trkpt lat="10.3604196" lon="-85.8075642">
        <ele>39.3</ele>
        <time>2022-10-06T17:15:54Z</time>
      </trkpt>
      <trkpt lat="10.3604196" lon="-85.8075642">
        <ele>39.3</ele>
        <time>2022-10-06T17:15:55Z</time>
      </trkpt>
      <trkpt lat="10.3604196" lon="-85.8075642">
        <ele>39.3</ele>
        <time>2022-10-06T17:15:56Z</time>
      </trkpt>
      <trkpt lat="10.3604196" lon="-85.8075642">
        <ele>39.3</ele>
        <time>2022-10-06T17:15:57Z</time>
      </trkpt>
      <trkpt lat="10.3604196" lon="-85.8075642">
        <ele>39.3</ele>
        <time>2022-10-06T17:15:58Z</time>
      </trkpt>
      <trkpt lat="10.3604196" lon="-85.8075642">
        <ele>39.4</ele>
        <time>2022-10-06T17:15:59Z</time>
      </trkpt>
      <trkpt lat="10.3604196" lon="-85.8075642">
        <ele>39.4</ele>
        <time>2022-10-06T17:16:00Z</time>
      </trkpt>
      <trkpt lat="10.3604196" lon="-85.8075642">
        <ele>39.4</ele>
        <time>2022-10-06T17:16:01Z</time>
      </trkpt>
      <trkpt lat="10.3604196" lon="-85.8075642">
        <ele>39.4</ele>
        <time>2022-10-06T17:16:02Z</time>
      </trkpt>
      <trkpt lat="10.3604196" lon="-85.8075642">
        <ele>39.4</ele>
        <time>2022-10-06T17:16:03Z</time>
      </trkpt>
      <trkpt lat="10.3604196" lon="-85.8075642">
        <ele>39.3</ele>
        <time>2022-10-06T17:16:04Z</time>
      </trkpt>
      <trkpt lat="10.3604196" lon="-85.8075642">
        <ele>39.3</ele>
        <time>2022-10-06T17:16:05Z</time>
      </trkpt>
      <trkpt lat="10.3604196" lon="-85.8075642">
        <ele>39.3</ele>
        <time>2022-10-06T17:16:06Z</time>
      </trkpt>
      <trkpt lat="10.3604196" lon="-85.8075642">
        <ele>39.1</ele>
        <time>2022-10-06T17:16:07Z</time>
      </trkpt>
      <trkpt lat="10.3604196" lon="-85.8075642">
        <ele>39.1</ele>
        <time>2022-10-06T17:16:08Z</time>
      </trkpt>
      <trkpt lat="10.3604196" lon="-85.8075642">
        <ele>39.1</ele>
        <time>2022-10-06T17:16:09Z</time>
      </trkpt>
      <trkpt lat="10.3604196" lon="-85.8075642">
        <ele>39.1</ele>
        <time>2022-10-06T17:16:10Z</time>
      </trkpt>
      <trkpt lat="10.3604196" lon="-85.8075642">
        <ele>39.0</ele>
        <time>2022-10-06T17:16:11Z</time>
      </trkpt>
      <trkpt lat="10.3604196" lon="-85.8075642">
        <ele>39.0</ele>
        <time>2022-10-06T17:16:12Z</time>
      </trkpt>
      <trkpt lat="10.3604196" lon="-85.8075642">
        <ele>39.0</ele>
        <time>2022-10-06T17:16:13Z</time>
      </trkpt>
      <trkpt lat="10.3604196" lon="-85.8075642">
        <ele>39.0</ele>
        <time>2022-10-06T17:16:14Z</time>
      </trkpt>
      <trkpt lat="10.3604196" lon="-85.8075642">
        <ele>39.0</ele>
        <time>2022-10-06T17:16:15Z</time>
      </trkpt>
      <trkpt lat="10.3604196" lon="-85.8075642">
        <ele>39.0</ele>
        <time>2022-10-06T17:16:16Z</time>
      </trkpt>
      <trkpt lat="10.3604196" lon="-85.8075642">
        <ele>39.0</ele>
        <time>2022-10-06T17:16:17Z</time>
      </trkpt>
      <trkpt lat="10.3604196" lon="-85.8075642">
        <ele>39.0</ele>
        <time>2022-10-06T17:16:18Z</time>
      </trkpt>
      <trkpt lat="10.3604196" lon="-85.8075642">
        <ele>39.0</ele>
        <time>2022-10-06T17:16:19Z</time>
      </trkpt>
      <trkpt lat="10.3604196" lon="-85.8075642">
        <ele>39.0</ele>
        <time>2022-10-06T17:16:20Z</time>
      </trkpt>
      <trkpt lat="10.3604196" lon="-85.8075642">
        <ele>38.9</ele>
        <time>2022-10-06T17:16:21Z</time>
      </trkpt>
      <trkpt lat="10.3604196" lon="-85.8075642">
        <ele>38.9</ele>
        <time>2022-10-06T17:16:22Z</time>
      </trkpt>
      <trkpt lat="10.3604196" lon="-85.8075642">
        <ele>38.8</ele>
        <time>2022-10-06T17:16:23Z</time>
      </trkpt>
      <trkpt lat="10.3604196" lon="-85.8075642">
        <ele>38.9</ele>
        <time>2022-10-06T17:16:24Z</time>
      </trkpt>
      <trkpt lat="10.3604196" lon="-85.8075642">
        <ele>38.9</ele>
        <time>2022-10-06T17:16:25Z</time>
      </trkpt>
      <trkpt lat="10.3604196" lon="-85.8075642">
        <ele>38.9</ele>
        <time>2022-10-06T17:16:26Z</time>
      </trkpt>
      <trkpt lat="10.3604196" lon="-85.8075642">
        <ele>38.9</ele>
        <time>2022-10-06T17:16:27Z</time>
      </trkpt>
      <trkpt lat="10.3604196" lon="-85.8075642">
        <ele>38.9</ele>
        <time>2022-10-06T17:16:28Z</time>
      </trkpt>
      <trkpt lat="10.3604196" lon="-85.8075642">
        <ele>38.9</ele>
        <time>2022-10-06T17:16:29Z</time>
      </trkpt>
      <trkpt lat="10.3604196" lon="-85.8075642">
        <ele>38.9</ele>
        <time>2022-10-06T17:16:30Z</time>
      </trkpt>
      <trkpt lat="10.3604196" lon="-85.8075642">
        <ele>38.8</ele>
        <time>2022-10-06T17:16:31Z</time>
      </trkpt>
      <trkpt lat="10.3604196" lon="-85.8075642">
        <ele>38.9</ele>
        <time>2022-10-06T17:16:32Z</time>
      </trkpt>
      <trkpt lat="10.3604196" lon="-85.8075642">
        <ele>38.9</ele>
        <time>2022-10-06T17:16:33Z</time>
      </trkpt>
      <trkpt lat="10.3604196" lon="-85.8075642">
        <ele>38.9</ele>
        <time>2022-10-06T17:16:34Z</time>
      </trkpt>
      <trkpt lat="10.3604196" lon="-85.8075642">
        <ele>38.8</ele>
        <time>2022-10-06T17:16:35Z</time>
      </trkpt>
      <trkpt lat="10.3604196" lon="-85.8075642">
        <ele>38.8</ele>
        <time>2022-10-06T17:16:36Z</time>
      </trkpt>
      <trkpt lat="10.3604196" lon="-85.8075642">
        <ele>38.8</ele>
        <time>2022-10-06T17:16:37Z</time>
      </trkpt>
      <trkpt lat="10.3604196" lon="-85.8075642">
        <ele>38.8</ele>
        <time>2022-10-06T17:16:38Z</time>
      </trkpt>
      <trkpt lat="10.3604196" lon="-85.8075642">
        <ele>38.6</ele>
        <time>2022-10-06T17:16:39Z</time>
      </trkpt>
      <trkpt lat="10.3604196" lon="-85.8075642">
        <ele>38.6</ele>
        <time>2022-10-06T17:16:40Z</time>
      </trkpt>
      <trkpt lat="10.3604196" lon="-85.8075642">
        <ele>38.7</ele>
        <time>2022-10-06T17:16:41Z</time>
      </trkpt>
      <trkpt lat="10.3604196" lon="-85.8075642">
        <ele>38.7</ele>
        <time>2022-10-06T17:16:42Z</time>
      </trkpt>
      <trkpt lat="10.3604196" lon="-85.8075642">
        <ele>38.7</ele>
        <time>2022-10-06T17:16:43Z</time>
      </trkpt>
      <trkpt lat="10.3604196" lon="-85.8075642">
        <ele>38.7</ele>
        <time>2022-10-06T17:16:44Z</time>
      </trkpt>
      <trkpt lat="10.3604196" lon="-85.8075642">
        <ele>38.7</ele>
        <time>2022-10-06T17:16:45Z</time>
      </trkpt>
      <trkpt lat="10.3604196" lon="-85.8075642">
        <ele>38.8</ele>
        <time>2022-10-06T17:16:46Z</time>
      </trkpt>
      <trkpt lat="10.3604196" lon="-85.8075642">
        <ele>38.6</ele>
        <time>2022-10-06T17:16:47Z</time>
      </trkpt>
      <trkpt lat="10.3604196" lon="-85.8075642">
        <ele>38.7</ele>
        <time>2022-10-06T17:16:48Z</time>
      </trkpt>
      <trkpt lat="10.3604196" lon="-85.8075642">
        <ele>38.6</ele>
        <time>2022-10-06T17:16:49Z</time>
      </trkpt>
      <trkpt lat="10.3604196" lon="-85.8075642">
        <ele>38.6</ele>
        <time>2022-10-06T17:16:50Z</time>
      </trkpt>
      <trkpt lat="10.3604196" lon="-85.8075642">
        <ele>38.6</ele>
        <time>2022-10-06T17:16:51Z</time>
      </trkpt>
      <trkpt lat="10.3604196" lon="-85.8075642">
        <ele>38.6</ele>
        <time>2022-10-06T17:16:52Z</time>
      </trkpt>
      <trkpt lat="10.3604196" lon="-85.8075642">
        <ele>38.6</ele>
        <time>2022-10-06T17:16:53Z</time>
      </trkpt>
      <trkpt lat="10.3604196" lon="-85.8075642">
        <ele>38.6</ele>
        <time>2022-10-06T17:16:54Z</time>
      </trkpt>
      <trkpt lat="10.3604196" lon="-85.8075642">
        <ele>38.7</ele>
        <time>2022-10-06T17:16:55Z</time>
      </trkpt>
      <trkpt lat="10.3604196" lon="-85.8075642">
        <ele>38.6</ele>
        <time>2022-10-06T17:16:56Z</time>
      </trkpt>
      <trkpt lat="10.3604196" lon="-85.8075642">
        <ele>38.6</ele>
        <time>2022-10-06T17:16:57Z</time>
      </trkpt>
      <trkpt lat="10.3604196" lon="-85.8075642">
        <ele>38.6</ele>
        <time>2022-10-06T17:16:58Z</time>
      </trkpt>
      <trkpt lat="10.3604196" lon="-85.8075642">
        <ele>38.6</ele>
        <time>2022-10-06T17:16:59Z</time>
      </trkpt>
      <trkpt lat="10.3604196" lon="-85.8075642">
        <ele>38.6</ele>
        <time>2022-10-06T17:17:00Z</time>
      </trkpt>
      <trkpt lat="10.3604196" lon="-85.8075642">
        <ele>38.6</ele>
        <time>2022-10-06T17:17:01Z</time>
      </trkpt>
      <trkpt lat="10.3604196" lon="-85.8075642">
        <ele>38.6</ele>
        <time>2022-10-06T17:17:02Z</time>
      </trkpt>
      <trkpt lat="10.3604196" lon="-85.8075642">
        <ele>38.5</ele>
        <time>2022-10-06T17:17:03Z</time>
      </trkpt>
      <trkpt lat="10.3604196" lon="-85.8075642">
        <ele>38.5</ele>
        <time>2022-10-06T17:17:04Z</time>
      </trkpt>
      <trkpt lat="10.3604196" lon="-85.8075642">
        <ele>38.5</ele>
        <time>2022-10-06T17:17:05Z</time>
      </trkpt>
      <trkpt lat="10.3604196" lon="-85.8075642">
        <ele>38.5</ele>
        <time>2022-10-06T17:17:06Z</time>
      </trkpt>
      <trkpt lat="10.3604196" lon="-85.8075642">
        <ele>38.4</ele>
        <time>2022-10-06T17:17:07Z</time>
      </trkpt>
      <trkpt lat="10.3604196" lon="-85.8075642">
        <ele>38.4</ele>
        <time>2022-10-06T17:17:08Z</time>
      </trkpt>
      <trkpt lat="10.3604196" lon="-85.8075642">
        <ele>38.4</ele>
        <time>2022-10-06T17:17:09Z</time>
      </trkpt>
      <trkpt lat="10.3604196" lon="-85.8075642">
        <ele>38.4</ele>
        <time>2022-10-06T17:17:10Z</time>
      </trkpt>
      <trkpt lat="10.3604196" lon="-85.8075642">
        <ele>38.4</ele>
        <time>2022-10-06T17:17:11Z</time>
      </trkpt>
      <trkpt lat="10.3604196" lon="-85.8075642">
        <ele>38.4</ele>
        <time>2022-10-06T17:17:12Z</time>
      </trkpt>
      <trkpt lat="10.3604196" lon="-85.8075642">
        <ele>38.5</ele>
        <time>2022-10-06T17:17:13Z</time>
      </trkpt>
      <trkpt lat="10.3604196" lon="-85.8075642">
        <ele>38.5</ele>
        <time>2022-10-06T17:17:14Z</time>
      </trkpt>
      <trkpt lat="10.3604196" lon="-85.8075642">
        <ele>38.6</ele>
        <time>2022-10-06T17:17:15Z</time>
      </trkpt>
      <trkpt lat="10.3604196" lon="-85.8075642">
        <ele>38.6</ele>
        <time>2022-10-06T17:17:16Z</time>
      </trkpt>
      <trkpt lat="10.3604196" lon="-85.8075642">
        <ele>38.6</ele>
        <time>2022-10-06T17:17:17Z</time>
      </trkpt>
      <trkpt lat="10.3604196" lon="-85.8075642">
        <ele>38.6</ele>
        <time>2022-10-06T17:17:18Z</time>
      </trkpt>
      <trkpt lat="10.3604196" lon="-85.8075642">
        <ele>38.6</ele>
        <time>2022-10-06T17:17:19Z</time>
      </trkpt>
      <trkpt lat="10.3604196" lon="-85.8075642">
        <ele>38.6</ele>
        <time>2022-10-06T17:17:20Z</time>
      </trkpt>
      <trkpt lat="10.3604196" lon="-85.8075642">
        <ele>38.6</ele>
        <time>2022-10-06T17:17:21Z</time>
      </trkpt>
      <trkpt lat="10.3604196" lon="-85.8075642">
        <ele>38.6</ele>
        <time>2022-10-06T17:17:22Z</time>
      </trkpt>
      <trkpt lat="10.3604196" lon="-85.8075642">
        <ele>38.6</ele>
        <time>2022-10-06T17:17:23Z</time>
      </trkpt>
      <trkpt lat="10.3604196" lon="-85.8075642">
        <ele>38.6</ele>
        <time>2022-10-06T17:17:24Z</time>
      </trkpt>
      <trkpt lat="10.3604196" lon="-85.8075642">
        <ele>38.5</ele>
        <time>2022-10-06T17:17:25Z</time>
      </trkpt>
      <trkpt lat="10.3604196" lon="-85.8075642">
        <ele>38.6</ele>
        <time>2022-10-06T17:17:26Z</time>
      </trkpt>
      <trkpt lat="10.3604196" lon="-85.8075642">
        <ele>38.5</ele>
        <time>2022-10-06T17:17:27Z</time>
      </trkpt>
      <trkpt lat="10.3604196" lon="-85.8075642">
        <ele>38.6</ele>
        <time>2022-10-06T17:17:28Z</time>
      </trkpt>
      <trkpt lat="10.3604196" lon="-85.8075642">
        <ele>38.6</ele>
        <time>2022-10-06T17:17:29Z</time>
      </trkpt>
      <trkpt lat="10.3604196" lon="-85.8075642">
        <ele>38.6</ele>
        <time>2022-10-06T17:17:30Z</time>
      </trkpt>
      <trkpt lat="10.3604196" lon="-85.8075642">
        <ele>38.6</ele>
        <time>2022-10-06T17:17:31Z</time>
      </trkpt>
      <trkpt lat="10.3604196" lon="-85.8075642">
        <ele>38.6</ele>
        <time>2022-10-06T17:17:32Z</time>
      </trkpt>
      <trkpt lat="10.3604196" lon="-85.8075642">
        <ele>38.6</ele>
        <time>2022-10-06T17:17:33Z</time>
      </trkpt>
      <trkpt lat="10.3604196" lon="-85.8075642">
        <ele>38.7</ele>
        <time>2022-10-06T17:17:34Z</time>
      </trkpt>
      <trkpt lat="10.3604196" lon="-85.8075642">
        <ele>38.7</ele>
        <time>2022-10-06T17:17:35Z</time>
      </trkpt>
      <trkpt lat="10.3604196" lon="-85.8075642">
        <ele>38.7</ele>
        <time>2022-10-06T17:17:36Z</time>
      </trkpt>
      <trkpt lat="10.3604196" lon="-85.8075642">
        <ele>38.7</ele>
        <time>2022-10-06T17:17:37Z</time>
      </trkpt>
      <trkpt lat="10.3604196" lon="-85.8075642">
        <ele>38.7</ele>
        <time>2022-10-06T17:17:38Z</time>
      </trkpt>
      <trkpt lat="10.3604196" lon="-85.8075642">
        <ele>38.7</ele>
        <time>2022-10-06T17:17:39Z</time>
      </trkpt>
      <trkpt lat="10.3604196" lon="-85.8075642">
        <ele>38.8</ele>
        <time>2022-10-06T17:17:40Z</time>
      </trkpt>
      <trkpt lat="10.3604196" lon="-85.8075642">
        <ele>38.8</ele>
        <time>2022-10-06T17:17:41Z</time>
      </trkpt>
      <trkpt lat="10.3604196" lon="-85.8075642">
        <ele>38.8</ele>
        <time>2022-10-06T17:17:42Z</time>
      </trkpt>
      <trkpt lat="10.3604196" lon="-85.8075642">
        <ele>38.8</ele>
        <time>2022-10-06T17:17:43Z</time>
      </trkpt>
      <trkpt lat="10.3604196" lon="-85.8075642">
        <ele>38.8</ele>
        <time>2022-10-06T17:17:44Z</time>
      </trkpt>
      <trkpt lat="10.3604196" lon="-85.8075642">
        <ele>38.8</ele>
        <time>2022-10-06T17:17:45Z</time>
      </trkpt>
      <trkpt lat="10.3604196" lon="-85.8075642">
        <ele>38.9</ele>
        <time>2022-10-06T17:17:46Z</time>
      </trkpt>
      <trkpt lat="10.3604196" lon="-85.8075642">
        <ele>38.9</ele>
        <time>2022-10-06T17:17:47Z</time>
      </trkpt>
      <trkpt lat="10.3604196" lon="-85.8075642">
        <ele>38.8</ele>
        <time>2022-10-06T17:17:48Z</time>
      </trkpt>
      <trkpt lat="10.3604196" lon="-85.8075642">
        <ele>38.9</ele>
        <time>2022-10-06T17:17:49Z</time>
      </trkpt>
      <trkpt lat="10.3604196" lon="-85.8075642">
        <ele>38.8</ele>
        <time>2022-10-06T17:17:50Z</time>
      </trkpt>
      <trkpt lat="10.3604196" lon="-85.8075642">
        <ele>38.9</ele>
        <time>2022-10-06T17:17:51Z</time>
      </trkpt>
      <trkpt lat="10.3604196" lon="-85.8075642">
        <ele>38.9</ele>
        <time>2022-10-06T17:17:52Z</time>
      </trkpt>
      <trkpt lat="10.3604196" lon="-85.8075642">
        <ele>38.9</ele>
        <time>2022-10-06T17:17:53Z</time>
      </trkpt>
      <trkpt lat="10.3604196" lon="-85.8075642">
        <ele>38.9</ele>
        <time>2022-10-06T17:17:54Z</time>
      </trkpt>
      <trkpt lat="10.3604196" lon="-85.8075642">
        <ele>39.0</ele>
        <time>2022-10-06T17:17:55Z</time>
      </trkpt>
      <trkpt lat="10.3604196" lon="-85.8075642">
        <ele>39.0</ele>
        <time>2022-10-06T17:17:56Z</time>
      </trkpt>
      <trkpt lat="10.3604196" lon="-85.8075642">
        <ele>39.0</ele>
        <time>2022-10-06T17:17:57Z</time>
      </trkpt>
      <trkpt lat="10.3604196" lon="-85.8075642">
        <ele>38.9</ele>
        <time>2022-10-06T17:17:58Z</time>
      </trkpt>
      <trkpt lat="10.3604196" lon="-85.8075642">
        <ele>38.9</ele>
        <time>2022-10-06T17:17:59Z</time>
      </trkpt>
      <trkpt lat="10.3604196" lon="-85.8075642">
        <ele>38.9</ele>
        <time>2022-10-06T17:18:00Z</time>
      </trkpt>
      <trkpt lat="10.3604196" lon="-85.8075642">
        <ele>38.9</ele>
        <time>2022-10-06T17:18:01Z</time>
      </trkpt>
      <trkpt lat="10.3604196" lon="-85.8075642">
        <ele>38.8</ele>
        <time>2022-10-06T17:18:02Z</time>
      </trkpt>
      <trkpt lat="10.3604196" lon="-85.8075642">
        <ele>38.9</ele>
        <time>2022-10-06T17:18:03Z</time>
      </trkpt>
      <trkpt lat="10.3604196" lon="-85.8075642">
        <ele>38.8</ele>
        <time>2022-10-06T17:18:04Z</time>
      </trkpt>
      <trkpt lat="10.3604196" lon="-85.8075642">
        <ele>38.8</ele>
        <time>2022-10-06T17:18:05Z</time>
      </trkpt>
      <trkpt lat="10.3604196" lon="-85.8075642">
        <ele>38.8</ele>
        <time>2022-10-06T17:18:06Z</time>
      </trkpt>
      <trkpt lat="10.3604196" lon="-85.8075642">
        <ele>38.8</ele>
        <time>2022-10-06T17:18:07Z</time>
      </trkpt>
      <trkpt lat="10.3604196" lon="-85.8075642">
        <ele>38.8</ele>
        <time>2022-10-06T17:18:08Z</time>
      </trkpt>
      <trkpt lat="10.3604196" lon="-85.8075642">
        <ele>38.9</ele>
        <time>2022-10-06T17:18:09Z</time>
      </trkpt>
      <trkpt lat="10.3604196" lon="-85.8075642">
        <ele>38.8</ele>
        <time>2022-10-06T17:18:10Z</time>
      </trkpt>
      <trkpt lat="10.3604196" lon="-85.8075642">
        <ele>38.8</ele>
        <time>2022-10-06T17:18:11Z</time>
      </trkpt>
      <trkpt lat="10.3604196" lon="-85.8075642">
        <ele>38.8</ele>
        <time>2022-10-06T17:18:12Z</time>
      </trkpt>
      <trkpt lat="10.3604196" lon="-85.8075642">
        <ele>39.0</ele>
        <time>2022-10-06T17:18:13Z</time>
      </trkpt>
      <trkpt lat="10.3604196" lon="-85.8075642">
        <ele>39.0</ele>
        <time>2022-10-06T17:18:14Z</time>
      </trkpt>
      <trkpt lat="10.3604196" lon="-85.8075642">
        <ele>39.1</ele>
        <time>2022-10-06T17:18:15Z</time>
      </trkpt>
      <trkpt lat="10.3604196" lon="-85.8075642">
        <ele>39.1</ele>
        <time>2022-10-06T17:18:16Z</time>
      </trkpt>
      <trkpt lat="10.3604196" lon="-85.8075642">
        <ele>39.2</ele>
        <time>2022-10-06T17:18:17Z</time>
      </trkpt>
      <trkpt lat="10.3604196" lon="-85.8075642">
        <ele>39.2</ele>
        <time>2022-10-06T17:18:18Z</time>
      </trkpt>
      <trkpt lat="10.3604196" lon="-85.8075642">
        <ele>39.4</ele>
        <time>2022-10-06T17:18:19Z</time>
      </trkpt>
      <trkpt lat="10.3604196" lon="-85.8075642">
        <ele>39.5</ele>
        <time>2022-10-06T17:18:20Z</time>
      </trkpt>
      <trkpt lat="10.3604196" lon="-85.8075642">
        <ele>39.4</ele>
        <time>2022-10-06T17:18:21Z</time>
      </trkpt>
      <trkpt lat="10.3604196" lon="-85.8075642">
        <ele>39.4</ele>
        <time>2022-10-06T17:18:22Z</time>
      </trkpt>
      <trkpt lat="10.3604196" lon="-85.8075642">
        <ele>39.3</ele>
        <time>2022-10-06T17:18:23Z</time>
      </trkpt>
      <trkpt lat="10.3604196" lon="-85.8075642">
        <ele>39.3</ele>
        <time>2022-10-06T17:18:24Z</time>
      </trkpt>
      <trkpt lat="10.3604196" lon="-85.8075642">
        <ele>39.3</ele>
        <time>2022-10-06T17:18:25Z</time>
      </trkpt>
      <trkpt lat="10.3604196" lon="-85.8075642">
        <ele>39.3</ele>
        <time>2022-10-06T17:18:26Z</time>
      </trkpt>
      <trkpt lat="10.3604196" lon="-85.8075642">
        <ele>39.3</ele>
        <time>2022-10-06T17:18:27Z</time>
      </trkpt>
      <trkpt lat="10.3604196" lon="-85.8075642">
        <ele>39.3</ele>
        <time>2022-10-06T17:18:28Z</time>
      </trkpt>
      <trkpt lat="10.3604196" lon="-85.8075642">
        <ele>39.2</ele>
        <time>2022-10-06T17:18:29Z</time>
      </trkpt>
      <trkpt lat="10.3604196" lon="-85.8075642">
        <ele>39.2</ele>
        <time>2022-10-06T17:18:30Z</time>
      </trkpt>
      <trkpt lat="10.3604196" lon="-85.8075642">
        <ele>39.2</ele>
        <time>2022-10-06T17:18:31Z</time>
      </trkpt>
      <trkpt lat="10.3604196" lon="-85.8075642">
        <ele>39.2</ele>
        <time>2022-10-06T17:18:32Z</time>
      </trkpt>
      <trkpt lat="10.3604196" lon="-85.8075642">
        <ele>39.2</ele>
        <time>2022-10-06T17:18:33Z</time>
      </trkpt>
      <trkpt lat="10.3604196" lon="-85.8075642">
        <ele>39.2</ele>
        <time>2022-10-06T17:18:34Z</time>
      </trkpt>
      <trkpt lat="10.3604196" lon="-85.8075642">
        <ele>39.2</ele>
        <time>2022-10-06T17:18:35Z</time>
      </trkpt>
      <trkpt lat="10.3604196" lon="-85.8075642">
        <ele>39.2</ele>
        <time>2022-10-06T17:18:36Z</time>
      </trkpt>
      <trkpt lat="10.3604196" lon="-85.8075642">
        <ele>39.2</ele>
        <time>2022-10-06T17:18:37Z</time>
      </trkpt>
      <trkpt lat="10.3604196" lon="-85.8075642">
        <ele>39.1</ele>
        <time>2022-10-06T17:18:38Z</time>
      </trkpt>
      <trkpt lat="10.3604196" lon="-85.8075642">
        <ele>39.1</ele>
        <time>2022-10-06T17:18:39Z</time>
      </trkpt>
      <trkpt lat="10.3604196" lon="-85.8075642">
        <ele>39.1</ele>
        <time>2022-10-06T17:18:40Z</time>
      </trkpt>
      <trkpt lat="10.3604196" lon="-85.8075642">
        <ele>39.1</ele>
        <time>2022-10-06T17:18:41Z</time>
      </trkpt>
      <trkpt lat="10.3604196" lon="-85.8075642">
        <ele>39.0</ele>
        <time>2022-10-06T17:18:42Z</time>
      </trkpt>
      <trkpt lat="10.3604196" lon="-85.8075642">
        <ele>39.0</ele>
        <time>2022-10-06T17:18:43Z</time>
      </trkpt>
      <trkpt lat="10.3604196" lon="-85.8075642">
        <ele>39.0</ele>
        <time>2022-10-06T17:18:44Z</time>
      </trkpt>
      <trkpt lat="10.3604196" lon="-85.8075642">
        <ele>39.0</ele>
        <time>2022-10-06T17:18:45Z</time>
      </trkpt>
      <trkpt lat="10.3604196" lon="-85.8075642">
        <ele>39.0</ele>
        <time>2022-10-06T17:18:46Z</time>
      </trkpt>
      <trkpt lat="10.3604196" lon="-85.8075642">
        <ele>38.9</ele>
        <time>2022-10-06T17:18:47Z</time>
      </trkpt>
      <trkpt lat="10.3604196" lon="-85.8075642">
        <ele>38.9</ele>
        <time>2022-10-06T17:18:48Z</time>
      </trkpt>
      <trkpt lat="10.3604196" lon="-85.8075642">
        <ele>38.9</ele>
        <time>2022-10-06T17:18:49Z</time>
      </trkpt>
      <trkpt lat="10.3604196" lon="-85.8075642">
        <ele>38.9</ele>
        <time>2022-10-06T17:18:50Z</time>
      </trkpt>
      <trkpt lat="10.3604196" lon="-85.8075642">
        <ele>38.9</ele>
        <time>2022-10-06T17:18:51Z</time>
      </trkpt>
      <trkpt lat="10.3604196" lon="-85.8075642">
        <ele>38.8</ele>
        <time>2022-10-06T17:18:52Z</time>
      </trkpt>
      <trkpt lat="10.3604196" lon="-85.8075642">
        <ele>38.8</ele>
        <time>2022-10-06T17:18:53Z</time>
      </trkpt>
      <trkpt lat="10.3604196" lon="-85.8075642">
        <ele>38.8</ele>
        <time>2022-10-06T17:18:54Z</time>
      </trkpt>
      <trkpt lat="10.3604196" lon="-85.8075642">
        <ele>38.8</ele>
        <time>2022-10-06T17:18:55Z</time>
      </trkpt>
      <trkpt lat="10.3604196" lon="-85.8075642">
        <ele>38.8</ele>
        <time>2022-10-06T17:18:56Z</time>
      </trkpt>
      <trkpt lat="10.3604196" lon="-85.8075642">
        <ele>38.8</ele>
        <time>2022-10-06T17:18:57Z</time>
      </trkpt>
      <trkpt lat="10.3604196" lon="-85.8075642">
        <ele>38.8</ele>
        <time>2022-10-06T17:18:58Z</time>
      </trkpt>
      <trkpt lat="10.3604196" lon="-85.8075642">
        <ele>38.8</ele>
        <time>2022-10-06T17:18:59Z</time>
      </trkpt>
      <trkpt lat="10.3604196" lon="-85.8075642">
        <ele>38.7</ele>
        <time>2022-10-06T17:19:00Z</time>
      </trkpt>
      <trkpt lat="10.3604196" lon="-85.8075642">
        <ele>38.7</ele>
        <time>2022-10-06T17:19:01Z</time>
      </trkpt>
      <trkpt lat="10.3604196" lon="-85.8075642">
        <ele>38.7</ele>
        <time>2022-10-06T17:19:02Z</time>
      </trkpt>
      <trkpt lat="10.3604196" lon="-85.8075642">
        <ele>38.7</ele>
        <time>2022-10-06T17:19:03Z</time>
      </trkpt>
      <trkpt lat="10.3604196" lon="-85.8075642">
        <ele>38.7</ele>
        <time>2022-10-06T17:19:04Z</time>
      </trkpt>
      <trkpt lat="10.3604196" lon="-85.8075642">
        <ele>38.7</ele>
        <time>2022-10-06T17:19:05Z</time>
      </trkpt>
      <trkpt lat="10.3604196" lon="-85.8075642">
        <ele>38.7</ele>
        <time>2022-10-06T17:19:06Z</time>
      </trkpt>
      <trkpt lat="10.3604196" lon="-85.8075642">
        <ele>38.7</ele>
        <time>2022-10-06T17:19:07Z</time>
      </trkpt>
      <trkpt lat="10.3604196" lon="-85.8075642">
        <ele>38.7</ele>
        <time>2022-10-06T17:19:08Z</time>
      </trkpt>
      <trkpt lat="10.3604196" lon="-85.8075642">
        <ele>38.7</ele>
        <time>2022-10-06T17:19:09Z</time>
      </trkpt>
      <trkpt lat="10.3604196" lon="-85.8075642">
        <ele>38.8</ele>
        <time>2022-10-06T17:19:10Z</time>
      </trkpt>
      <trkpt lat="10.3604196" lon="-85.8075642">
        <ele>38.8</ele>
        <time>2022-10-06T17:19:11Z</time>
      </trkpt>
      <trkpt lat="10.3604196" lon="-85.8075642">
        <ele>38.8</ele>
        <time>2022-10-06T17:19:12Z</time>
      </trkpt>
      <trkpt lat="10.3604196" lon="-85.8075642">
        <ele>38.9</ele>
        <time>2022-10-06T17:19:13Z</time>
      </trkpt>
      <trkpt lat="10.3604196" lon="-85.8075642">
        <ele>38.9</ele>
        <time>2022-10-06T17:19:14Z</time>
      </trkpt>
      <trkpt lat="10.3604196" lon="-85.8075642">
        <ele>38.9</ele>
        <time>2022-10-06T17:19:15Z</time>
      </trkpt>
      <trkpt lat="10.3604196" lon="-85.8075642">
        <ele>38.9</ele>
        <time>2022-10-06T17:19:16Z</time>
      </trkpt>
      <trkpt lat="10.3604196" lon="-85.8075642">
        <ele>38.9</ele>
        <time>2022-10-06T17:19:17Z</time>
      </trkpt>
      <trkpt lat="10.3604196" lon="-85.8075642">
        <ele>38.9</ele>
        <time>2022-10-06T17:19:18Z</time>
      </trkpt>
      <trkpt lat="10.3604196" lon="-85.8075642">
        <ele>39.0</ele>
        <time>2022-10-06T17:19:19Z</time>
      </trkpt>
      <trkpt lat="10.3604196" lon="-85.8075642">
        <ele>38.9</ele>
        <time>2022-10-06T17:19:20Z</time>
      </trkpt>
      <trkpt lat="10.3604196" lon="-85.8075642">
        <ele>38.8</ele>
        <time>2022-10-06T17:19:21Z</time>
      </trkpt>
      <trkpt lat="10.3604196" lon="-85.8075642">
        <ele>38.8</ele>
        <time>2022-10-06T17:19:22Z</time>
      </trkpt>
      <trkpt lat="10.3604196" lon="-85.8075642">
        <ele>38.9</ele>
        <time>2022-10-06T17:19:23Z</time>
      </trkpt>
      <trkpt lat="10.3604196" lon="-85.8075642">
        <ele>38.8</ele>
        <time>2022-10-06T17:19:24Z</time>
      </trkpt>
      <trkpt lat="10.3604196" lon="-85.8075642">
        <ele>38.8</ele>
        <time>2022-10-06T17:19:25Z</time>
      </trkpt>
      <trkpt lat="10.3604196" lon="-85.8075642">
        <ele>38.9</ele>
        <time>2022-10-06T17:19:26Z</time>
      </trkpt>
      <trkpt lat="10.3604196" lon="-85.8075642">
        <ele>38.8</ele>
        <time>2022-10-06T17:19:27Z</time>
      </trkpt>
      <trkpt lat="10.3604196" lon="-85.8075642">
        <ele>38.8</ele>
        <time>2022-10-06T17:19:28Z</time>
      </trkpt>
      <trkpt lat="10.3604196" lon="-85.8075642">
        <ele>38.8</ele>
        <time>2022-10-06T17:19:29Z</time>
      </trkpt>
      <trkpt lat="10.3604196" lon="-85.8075642">
        <ele>38.8</ele>
        <time>2022-10-06T17:19:30Z</time>
      </trkpt>
      <trkpt lat="10.3604196" lon="-85.8075642">
        <ele>38.8</ele>
        <time>2022-10-06T17:19:31Z</time>
      </trkpt>
      <trkpt lat="10.3604196" lon="-85.8075642">
        <ele>38.8</ele>
        <time>2022-10-06T17:19:32Z</time>
      </trkpt>
      <trkpt lat="10.3604196" lon="-85.8075642">
        <ele>38.8</ele>
        <time>2022-10-06T17:19:33Z</time>
      </trkpt>
      <trkpt lat="10.3604196" lon="-85.8075642">
        <ele>38.7</ele>
        <time>2022-10-06T17:19:34Z</time>
      </trkpt>
      <trkpt lat="10.3604196" lon="-85.8075642">
        <ele>38.7</ele>
        <time>2022-10-06T17:19:35Z</time>
      </trkpt>
      <trkpt lat="10.3604196" lon="-85.8075642">
        <ele>38.6</ele>
        <time>2022-10-06T17:19:36Z</time>
      </trkpt>
      <trkpt lat="10.3604196" lon="-85.8075642">
        <ele>38.5</ele>
        <time>2022-10-06T17:19:37Z</time>
      </trkpt>
      <trkpt lat="10.3604196" lon="-85.8075642">
        <ele>38.6</ele>
        <time>2022-10-06T17:19:38Z</time>
      </trkpt>
      <trkpt lat="10.3604196" lon="-85.8075642">
        <ele>38.5</ele>
        <time>2022-10-06T17:19:39Z</time>
      </trkpt>
      <trkpt lat="10.3604196" lon="-85.8075642">
        <ele>38.6</ele>
        <time>2022-10-06T17:19:40Z</time>
      </trkpt>
      <trkpt lat="10.3604196" lon="-85.8075642">
        <ele>38.6</ele>
        <time>2022-10-06T17:19:41Z</time>
      </trkpt>
      <trkpt lat="10.3604196" lon="-85.8075642">
        <ele>38.6</ele>
        <time>2022-10-06T17:19:42Z</time>
      </trkpt>
      <trkpt lat="10.3604196" lon="-85.8075642">
        <ele>38.6</ele>
        <time>2022-10-06T17:19:43Z</time>
      </trkpt>
      <trkpt lat="10.3604196" lon="-85.8075642">
        <ele>38.6</ele>
        <time>2022-10-06T17:19:44Z</time>
      </trkpt>
      <trkpt lat="10.3604196" lon="-85.8075642">
        <ele>38.7</ele>
        <time>2022-10-06T17:19:45Z</time>
      </trkpt>
      <trkpt lat="10.3604196" lon="-85.8075642">
        <ele>38.7</ele>
        <time>2022-10-06T17:19:46Z</time>
      </trkpt>
      <trkpt lat="10.3604196" lon="-85.8075642">
        <ele>38.7</ele>
        <time>2022-10-06T17:19:47Z</time>
      </trkpt>
      <trkpt lat="10.3604196" lon="-85.8075642">
        <ele>38.7</ele>
        <time>2022-10-06T17:19:48Z</time>
      </trkpt>
      <trkpt lat="10.3604196" lon="-85.8075642">
        <ele>38.7</ele>
        <time>2022-10-06T17:19:49Z</time>
      </trkpt>
      <trkpt lat="10.3604196" lon="-85.8075642">
        <ele>38.7</ele>
        <time>2022-10-06T17:19:50Z</time>
      </trkpt>
      <trkpt lat="10.3604196" lon="-85.8075642">
        <ele>38.7</ele>
        <time>2022-10-06T17:19:51Z</time>
      </trkpt>
      <trkpt lat="10.3604196" lon="-85.8075642">
        <ele>38.7</ele>
        <time>2022-10-06T17:19:52Z</time>
      </trkpt>
      <trkpt lat="10.3604196" lon="-85.8075642">
        <ele>38.7</ele>
        <time>2022-10-06T17:19:53Z</time>
      </trkpt>
      <trkpt lat="10.3604196" lon="-85.8075642">
        <ele>38.7</ele>
        <time>2022-10-06T17:19:54Z</time>
      </trkpt>
      <trkpt lat="10.3604196" lon="-85.8075642">
        <ele>38.8</ele>
        <time>2022-10-06T17:19:55Z</time>
      </trkpt>
      <trkpt lat="10.3604196" lon="-85.8075642">
        <ele>38.8</ele>
        <time>2022-10-06T17:19:56Z</time>
      </trkpt>
      <trkpt lat="10.3604196" lon="-85.8075642">
        <ele>38.8</ele>
        <time>2022-10-06T17:19:57Z</time>
      </trkpt>
      <trkpt lat="10.3604196" lon="-85.8075642">
        <ele>38.8</ele>
        <time>2022-10-06T17:19:58Z</time>
      </trkpt>
      <trkpt lat="10.3604196" lon="-85.8075642">
        <ele>38.8</ele>
        <time>2022-10-06T17:19:59Z</time>
      </trkpt>
      <trkpt lat="10.3604196" lon="-85.8075642">
        <ele>38.8</ele>
        <time>2022-10-06T17:20:00Z</time>
      </trkpt>
      <trkpt lat="10.3604196" lon="-85.8075642">
        <ele>38.8</ele>
        <time>2022-10-06T17:20:01Z</time>
      </trkpt>
      <trkpt lat="10.3604196" lon="-85.8075642">
        <ele>38.8</ele>
        <time>2022-10-06T17:20:02Z</time>
      </trkpt>
      <trkpt lat="10.3604196" lon="-85.8075642">
        <ele>38.9</ele>
        <time>2022-10-06T17:20:03Z</time>
      </trkpt>
      <trkpt lat="10.3604196" lon="-85.8075642">
        <ele>38.8</ele>
        <time>2022-10-06T17:20:04Z</time>
      </trkpt>
      <trkpt lat="10.3604196" lon="-85.8075642">
        <ele>38.8</ele>
        <time>2022-10-06T17:20:05Z</time>
      </trkpt>
      <trkpt lat="10.3604196" lon="-85.8075642">
        <ele>38.8</ele>
        <time>2022-10-06T17:20:06Z</time>
      </trkpt>
      <trkpt lat="10.3604196" lon="-85.8075642">
        <ele>38.6</ele>
        <time>2022-10-06T17:20:07Z</time>
      </trkpt>
      <trkpt lat="10.3604196" lon="-85.8075642">
        <ele>38.6</ele>
        <time>2022-10-06T17:20:08Z</time>
      </trkpt>
      <trkpt lat="10.3604196" lon="-85.8075642">
        <ele>38.6</ele>
        <time>2022-10-06T17:20:09Z</time>
      </trkpt>
      <trkpt lat="10.3604196" lon="-85.8075642">
        <ele>38.6</ele>
        <time>2022-10-06T17:20:10Z</time>
      </trkpt>
      <trkpt lat="10.3604196" lon="-85.8075642">
        <ele>38.6</ele>
        <time>2022-10-06T17:20:11Z</time>
      </trkpt>
      <trkpt lat="10.3604196" lon="-85.8075642">
        <ele>38.6</ele>
        <time>2022-10-06T17:20:12Z</time>
      </trkpt>
      <trkpt lat="10.3604196" lon="-85.8075642">
        <ele>38.6</ele>
        <time>2022-10-06T17:20:13Z</time>
      </trkpt>
      <trkpt lat="10.3604196" lon="-85.8075642">
        <ele>38.7</ele>
        <time>2022-10-06T17:20:14Z</time>
      </trkpt>
      <trkpt lat="10.3604196" lon="-85.8075642">
        <ele>38.7</ele>
        <time>2022-10-06T17:20:15Z</time>
      </trkpt>
      <trkpt lat="10.3604196" lon="-85.8075642">
        <ele>38.7</ele>
        <time>2022-10-06T17:20:16Z</time>
      </trkpt>
      <trkpt lat="10.3604196" lon="-85.8075642">
        <ele>38.7</ele>
        <time>2022-10-06T17:20:17Z</time>
      </trkpt>
      <trkpt lat="10.3604196" lon="-85.8075642">
        <ele>38.7</ele>
        <time>2022-10-06T17:20:18Z</time>
      </trkpt>
      <trkpt lat="10.3604196" lon="-85.8075642">
        <ele>38.7</ele>
        <time>2022-10-06T17:20:19Z</time>
      </trkpt>
      <trkpt lat="10.3604196" lon="-85.8075642">
        <ele>38.7</ele>
        <time>2022-10-06T17:20:20Z</time>
      </trkpt>
      <trkpt lat="10.3604196" lon="-85.8075642">
        <ele>38.7</ele>
        <time>2022-10-06T17:20:21Z</time>
      </trkpt>
      <trkpt lat="10.3604196" lon="-85.8075642">
        <ele>38.7</ele>
        <time>2022-10-06T17:20:22Z</time>
      </trkpt>
      <trkpt lat="10.3604196" lon="-85.8075642">
        <ele>38.7</ele>
        <time>2022-10-06T17:20:23Z</time>
      </trkpt>
      <trkpt lat="10.3604196" lon="-85.8075642">
        <ele>38.7</ele>
        <time>2022-10-06T17:20:24Z</time>
      </trkpt>
      <trkpt lat="10.3604196" lon="-85.8075642">
        <ele>38.7</ele>
        <time>2022-10-06T17:20:25Z</time>
      </trkpt>
      <trkpt lat="10.3604196" lon="-85.8075642">
        <ele>38.8</ele>
        <time>2022-10-06T17:20:26Z</time>
      </trkpt>
      <trkpt lat="10.3604196" lon="-85.8075642">
        <ele>38.7</ele>
        <time>2022-10-06T17:20:27Z</time>
      </trkpt>
      <trkpt lat="10.3604196" lon="-85.8075642">
        <ele>38.8</ele>
        <time>2022-10-06T17:20:28Z</time>
      </trkpt>
      <trkpt lat="10.3604196" lon="-85.8075642">
        <ele>38.8</ele>
        <time>2022-10-06T17:20:29Z</time>
      </trkpt>
      <trkpt lat="10.3604196" lon="-85.8075642">
        <ele>38.8</ele>
        <time>2022-10-06T17:20:30Z</time>
      </trkpt>
      <trkpt lat="10.3604196" lon="-85.8075642">
        <ele>38.9</ele>
        <time>2022-10-06T17:20:31Z</time>
      </trkpt>
      <trkpt lat="10.3604196" lon="-85.8075642">
        <ele>38.9</ele>
        <time>2022-10-06T17:20:32Z</time>
      </trkpt>
      <trkpt lat="10.3604196" lon="-85.8075642">
        <ele>39.0</ele>
        <time>2022-10-06T17:20:33Z</time>
      </trkpt>
      <trkpt lat="10.3604196" lon="-85.8075642">
        <ele>39.0</ele>
        <time>2022-10-06T17:20:34Z</time>
      </trkpt>
      <trkpt lat="10.3604196" lon="-85.8075642">
        <ele>39.1</ele>
        <time>2022-10-06T17:20:35Z</time>
      </trkpt>
      <trkpt lat="10.3604196" lon="-85.8075642">
        <ele>39.1</ele>
        <time>2022-10-06T17:20:36Z</time>
      </trkpt>
      <trkpt lat="10.3604196" lon="-85.8075642">
        <ele>39.0</ele>
        <time>2022-10-06T17:20:37Z</time>
      </trkpt>
      <trkpt lat="10.3604196" lon="-85.8075642">
        <ele>39.1</ele>
        <time>2022-10-06T17:20:38Z</time>
      </trkpt>
      <trkpt lat="10.3604196" lon="-85.8075642">
        <ele>39.1</ele>
        <time>2022-10-06T17:20:39Z</time>
      </trkpt>
      <trkpt lat="10.3604196" lon="-85.8075642">
        <ele>39.1</ele>
        <time>2022-10-06T17:20:40Z</time>
      </trkpt>
      <trkpt lat="10.3604196" lon="-85.8075642">
        <ele>39.2</ele>
        <time>2022-10-06T17:20:41Z</time>
      </trkpt>
      <trkpt lat="10.3604196" lon="-85.8075642">
        <ele>39.2</ele>
        <time>2022-10-06T17:20:42Z</time>
      </trkpt>
      <trkpt lat="10.3604196" lon="-85.8075642">
        <ele>39.2</ele>
        <time>2022-10-06T17:20:43Z</time>
      </trkpt>
      <trkpt lat="10.3604196" lon="-85.8075642">
        <ele>39.2</ele>
        <time>2022-10-06T17:20:44Z</time>
      </trkpt>
      <trkpt lat="10.3604196" lon="-85.8075642">
        <ele>39.3</ele>
        <time>2022-10-06T17:20:45Z</time>
      </trkpt>
      <trkpt lat="10.3604196" lon="-85.8075642">
        <ele>39.3</ele>
        <time>2022-10-06T17:20:46Z</time>
      </trkpt>
      <trkpt lat="10.3604196" lon="-85.8075642">
        <ele>39.3</ele>
        <time>2022-10-06T17:20:47Z</time>
      </trkpt>
      <trkpt lat="10.3603832" lon="-85.8075370">
        <ele>39.3</ele>
        <time>2022-10-06T17:20:48Z</time>
      </trkpt>
      <trkpt lat="10.3603832" lon="-85.8075370">
        <ele>39.3</ele>
        <time>2022-10-06T17:20:49Z</time>
      </trkpt>
      <trkpt lat="10.3603832" lon="-85.8075370">
        <ele>39.3</ele>
        <time>2022-10-06T17:20:50Z</time>
      </trkpt>
      <trkpt lat="10.3603832" lon="-85.8075370">
        <ele>39.4</ele>
        <time>2022-10-06T17:20:51Z</time>
      </trkpt>
      <trkpt lat="10.3603832" lon="-85.8075370">
        <ele>39.4</ele>
        <time>2022-10-06T17:20:52Z</time>
      </trkpt>
      <trkpt lat="10.3603832" lon="-85.8075370">
        <ele>39.4</ele>
        <time>2022-10-06T17:20:53Z</time>
      </trkpt>
      <trkpt lat="10.3603832" lon="-85.8075370">
        <ele>39.4</ele>
        <time>2022-10-06T17:20:54Z</time>
      </trkpt>
      <trkpt lat="10.3603832" lon="-85.8075370">
        <ele>39.5</ele>
        <time>2022-10-06T17:20:55Z</time>
      </trkpt>
      <trkpt lat="10.3603832" lon="-85.8075370">
        <ele>39.5</ele>
        <time>2022-10-06T17:20:56Z</time>
      </trkpt>
      <trkpt lat="10.3603832" lon="-85.8075370">
        <ele>39.5</ele>
        <time>2022-10-06T17:20:57Z</time>
      </trkpt>
      <trkpt lat="10.3603832" lon="-85.8075370">
        <ele>39.5</ele>
        <time>2022-10-06T17:20:58Z</time>
      </trkpt>
      <trkpt lat="10.3603832" lon="-85.8075370">
        <ele>39.5</ele>
        <time>2022-10-06T17:20:59Z</time>
      </trkpt>
      <trkpt lat="10.3603832" lon="-85.8075370">
        <ele>39.6</ele>
        <time>2022-10-06T17:21:00Z</time>
      </trkpt>
      <trkpt lat="10.3603832" lon="-85.8075370">
        <ele>39.6</ele>
        <time>2022-10-06T17:21:01Z</time>
      </trkpt>
      <trkpt lat="10.3603832" lon="-85.8075370">
        <ele>39.6</ele>
        <time>2022-10-06T17:21:02Z</time>
      </trkpt>
      <trkpt lat="10.3603832" lon="-85.8075370">
        <ele>39.6</ele>
        <time>2022-10-06T17:21:03Z</time>
      </trkpt>
      <trkpt lat="10.3603832" lon="-85.8075370">
        <ele>39.7</ele>
        <time>2022-10-06T17:21:04Z</time>
      </trkpt>
      <trkpt lat="10.3603832" lon="-85.8075370">
        <ele>39.6</ele>
        <time>2022-10-06T17:21:05Z</time>
      </trkpt>
      <trkpt lat="10.3603832" lon="-85.8075370">
        <ele>39.6</ele>
        <time>2022-10-06T17:21:06Z</time>
      </trkpt>
      <trkpt lat="10.3603832" lon="-85.8075370">
        <ele>39.6</ele>
        <time>2022-10-06T17:21:07Z</time>
      </trkpt>
      <trkpt lat="10.3603832" lon="-85.8075370">
        <ele>39.6</ele>
        <time>2022-10-06T17:21:08Z</time>
      </trkpt>
      <trkpt lat="10.3603832" lon="-85.8075370">
        <ele>39.6</ele>
        <time>2022-10-06T17:21:09Z</time>
      </trkpt>
      <trkpt lat="10.3603832" lon="-85.8075370">
        <ele>39.6</ele>
        <time>2022-10-06T17:21:10Z</time>
      </trkpt>
      <trkpt lat="10.3603832" lon="-85.8075370">
        <ele>39.6</ele>
        <time>2022-10-06T17:21:11Z</time>
      </trkpt>
      <trkpt lat="10.3603832" lon="-85.8075370">
        <ele>39.6</ele>
        <time>2022-10-06T17:21:12Z</time>
      </trkpt>
      <trkpt lat="10.3603832" lon="-85.8075370">
        <ele>39.7</ele>
        <time>2022-10-06T17:21:13Z</time>
      </trkpt>
      <trkpt lat="10.3603832" lon="-85.8075370">
        <ele>39.7</ele>
        <time>2022-10-06T17:21:14Z</time>
      </trkpt>
      <trkpt lat="10.3603832" lon="-85.8075370">
        <ele>39.7</ele>
        <time>2022-10-06T17:21:15Z</time>
      </trkpt>
      <trkpt lat="10.3603832" lon="-85.8075370">
        <ele>39.7</ele>
        <time>2022-10-06T17:21:16Z</time>
      </trkpt>
      <trkpt lat="10.3603832" lon="-85.8075370">
        <ele>39.7</ele>
        <time>2022-10-06T17:21:17Z</time>
      </trkpt>
      <trkpt lat="10.3603832" lon="-85.8075370">
        <ele>39.7</ele>
        <time>2022-10-06T17:21:18Z</time>
      </trkpt>
      <trkpt lat="10.3603832" lon="-85.8075370">
        <ele>39.7</ele>
        <time>2022-10-06T17:21:19Z</time>
      </trkpt>
      <trkpt lat="10.3603832" lon="-85.8075370">
        <ele>39.7</ele>
        <time>2022-10-06T17:21:20Z</time>
      </trkpt>
      <trkpt lat="10.3603832" lon="-85.8075370">
        <ele>39.7</ele>
        <time>2022-10-06T17:21:21Z</time>
      </trkpt>
      <trkpt lat="10.3603832" lon="-85.8075370">
        <ele>39.7</ele>
        <time>2022-10-06T17:21:22Z</time>
      </trkpt>
      <trkpt lat="10.3603832" lon="-85.8075370">
        <ele>39.6</ele>
        <time>2022-10-06T17:21:23Z</time>
      </trkpt>
      <trkpt lat="10.3603832" lon="-85.8075370">
        <ele>39.7</ele>
        <time>2022-10-06T17:21:24Z</time>
      </trkpt>
      <trkpt lat="10.3603832" lon="-85.8075370">
        <ele>39.6</ele>
        <time>2022-10-06T17:21:25Z</time>
      </trkpt>
      <trkpt lat="10.3603832" lon="-85.8075370">
        <ele>39.6</ele>
        <time>2022-10-06T17:21:26Z</time>
      </trkpt>
      <trkpt lat="10.3603832" lon="-85.8075370">
        <ele>39.6</ele>
        <time>2022-10-06T17:21:27Z</time>
      </trkpt>
      <trkpt lat="10.3603832" lon="-85.8075370">
        <ele>39.6</ele>
        <time>2022-10-06T17:21:28Z</time>
      </trkpt>
      <trkpt lat="10.3603832" lon="-85.8075370">
        <ele>39.6</ele>
        <time>2022-10-06T17:21:29Z</time>
      </trkpt>
      <trkpt lat="10.3603832" lon="-85.8075370">
        <ele>39.5</ele>
        <time>2022-10-06T17:21:30Z</time>
      </trkpt>
      <trkpt lat="10.3603832" lon="-85.8075370">
        <ele>39.4</ele>
        <time>2022-10-06T17:21:31Z</time>
      </trkpt>
      <trkpt lat="10.3603832" lon="-85.8075370">
        <ele>39.4</ele>
        <time>2022-10-06T17:21:32Z</time>
      </trkpt>
      <trkpt lat="10.3603832" lon="-85.8075370">
        <ele>39.3</ele>
        <time>2022-10-06T17:21:33Z</time>
      </trkpt>
      <trkpt lat="10.3603832" lon="-85.8075370">
        <ele>39.3</ele>
        <time>2022-10-06T17:21:34Z</time>
      </trkpt>
      <trkpt lat="10.3603832" lon="-85.8075370">
        <ele>39.3</ele>
        <time>2022-10-06T17:21:35Z</time>
      </trkpt>
      <trkpt lat="10.3603832" lon="-85.8075370">
        <ele>39.3</ele>
        <time>2022-10-06T17:21:36Z</time>
      </trkpt>
      <trkpt lat="10.3603832" lon="-85.8075370">
        <ele>39.2</ele>
        <time>2022-10-06T17:21:37Z</time>
      </trkpt>
      <trkpt lat="10.3603832" lon="-85.8075370">
        <ele>39.2</ele>
        <time>2022-10-06T17:21:38Z</time>
      </trkpt>
      <trkpt lat="10.3603832" lon="-85.8075370">
        <ele>39.2</ele>
        <time>2022-10-06T17:21:39Z</time>
      </trkpt>
      <trkpt lat="10.3603832" lon="-85.8075370">
        <ele>39.2</ele>
        <time>2022-10-06T17:21:40Z</time>
      </trkpt>
      <trkpt lat="10.3603832" lon="-85.8075370">
        <ele>39.3</ele>
        <time>2022-10-06T17:21:41Z</time>
      </trkpt>
      <trkpt lat="10.3603832" lon="-85.8075370">
        <ele>39.2</ele>
        <time>2022-10-06T17:21:42Z</time>
      </trkpt>
      <trkpt lat="10.3603832" lon="-85.8075370">
        <ele>39.1</ele>
        <time>2022-10-06T17:21:43Z</time>
      </trkpt>
      <trkpt lat="10.3603832" lon="-85.8075370">
        <ele>39.1</ele>
        <time>2022-10-06T17:21:44Z</time>
      </trkpt>
      <trkpt lat="10.3603832" lon="-85.8075370">
        <ele>39.1</ele>
        <time>2022-10-06T17:21:45Z</time>
      </trkpt>
      <trkpt lat="10.3603832" lon="-85.8075370">
        <ele>39.1</ele>
        <time>2022-10-06T17:21:46Z</time>
      </trkpt>
      <trkpt lat="10.3603832" lon="-85.8075370">
        <ele>39.2</ele>
        <time>2022-10-06T17:21:47Z</time>
      </trkpt>
      <trkpt lat="10.3603832" lon="-85.8075370">
        <ele>39.1</ele>
        <time>2022-10-06T17:21:48Z</time>
      </trkpt>
      <trkpt lat="10.3603832" lon="-85.8075370">
        <ele>39.1</ele>
        <time>2022-10-06T17:21:49Z</time>
      </trkpt>
      <trkpt lat="10.3603832" lon="-85.8075370">
        <ele>39.1</ele>
        <time>2022-10-06T17:21:50Z</time>
      </trkpt>
      <trkpt lat="10.3603832" lon="-85.8075370">
        <ele>39.1</ele>
        <time>2022-10-06T17:21:51Z</time>
      </trkpt>
      <trkpt lat="10.3603832" lon="-85.8075370">
        <ele>39.1</ele>
        <time>2022-10-06T17:21:52Z</time>
      </trkpt>
      <trkpt lat="10.3603832" lon="-85.8075370">
        <ele>39.0</ele>
        <time>2022-10-06T17:21:53Z</time>
      </trkpt>
      <trkpt lat="10.3603832" lon="-85.8075370">
        <ele>39.0</ele>
        <time>2022-10-06T17:21:54Z</time>
      </trkpt>
      <trkpt lat="10.3603832" lon="-85.8075370">
        <ele>39.0</ele>
        <time>2022-10-06T17:21:55Z</time>
      </trkpt>
      <trkpt lat="10.3603832" lon="-85.8075370">
        <ele>39.0</ele>
        <time>2022-10-06T17:21:56Z</time>
      </trkpt>
      <trkpt lat="10.3603832" lon="-85.8075370">
        <ele>39.0</ele>
        <time>2022-10-06T17:21:57Z</time>
      </trkpt>
      <trkpt lat="10.3603832" lon="-85.8075370">
        <ele>39.0</ele>
        <time>2022-10-06T17:21:58Z</time>
      </trkpt>
      <trkpt lat="10.3603832" lon="-85.8075370">
        <ele>39.0</ele>
        <time>2022-10-06T17:21:59Z</time>
      </trkpt>
      <trkpt lat="10.3603832" lon="-85.8075370">
        <ele>39.0</ele>
        <time>2022-10-06T17:22:00Z</time>
      </trkpt>
      <trkpt lat="10.3603832" lon="-85.8075370">
        <ele>39.0</ele>
        <time>2022-10-06T17:22:01Z</time>
      </trkpt>
      <trkpt lat="10.3603832" lon="-85.8075370">
        <ele>39.0</ele>
        <time>2022-10-06T17:22:02Z</time>
      </trkpt>
      <trkpt lat="10.3603832" lon="-85.8075370">
        <ele>39.1</ele>
        <time>2022-10-06T17:22:03Z</time>
      </trkpt>
      <trkpt lat="10.3603832" lon="-85.8075370">
        <ele>39.1</ele>
        <time>2022-10-06T17:22:04Z</time>
      </trkpt>
      <trkpt lat="10.3603832" lon="-85.8075370">
        <ele>39.1</ele>
        <time>2022-10-06T17:22:05Z</time>
      </trkpt>
      <trkpt lat="10.3603832" lon="-85.8075370">
        <ele>39.1</ele>
        <time>2022-10-06T17:22:06Z</time>
      </trkpt>
      <trkpt lat="10.3603832" lon="-85.8075370">
        <ele>39.1</ele>
        <time>2022-10-06T17:22:07Z</time>
      </trkpt>
      <trkpt lat="10.3603832" lon="-85.8075370">
        <ele>39.1</ele>
        <time>2022-10-06T17:22:08Z</time>
      </trkpt>
      <trkpt lat="10.3603832" lon="-85.8075370">
        <ele>39.1</ele>
        <time>2022-10-06T17:22:09Z</time>
      </trkpt>
      <trkpt lat="10.3603832" lon="-85.8075370">
        <ele>39.0</ele>
        <time>2022-10-06T17:22:10Z</time>
      </trkpt>
      <trkpt lat="10.3603832" lon="-85.8075370">
        <ele>39.0</ele>
        <time>2022-10-06T17:22:11Z</time>
      </trkpt>
      <trkpt lat="10.3603832" lon="-85.8075370">
        <ele>39.1</ele>
        <time>2022-10-06T17:22:12Z</time>
      </trkpt>
      <trkpt lat="10.3603832" lon="-85.8075370">
        <ele>39.1</ele>
        <time>2022-10-06T17:22:13Z</time>
      </trkpt>
      <trkpt lat="10.3603832" lon="-85.8075370">
        <ele>39.1</ele>
        <time>2022-10-06T17:22:14Z</time>
      </trkpt>
      <trkpt lat="10.3603832" lon="-85.8075370">
        <ele>39.1</ele>
        <time>2022-10-06T17:22:15Z</time>
      </trkpt>
      <trkpt lat="10.3603832" lon="-85.8075370">
        <ele>39.1</ele>
        <time>2022-10-06T17:22:16Z</time>
      </trkpt>
      <trkpt lat="10.3603832" lon="-85.8075370">
        <ele>39.1</ele>
        <time>2022-10-06T17:22:17Z</time>
      </trkpt>
      <trkpt lat="10.3603832" lon="-85.8075370">
        <ele>39.1</ele>
        <time>2022-10-06T17:22:18Z</time>
      </trkpt>
      <trkpt lat="10.3603832" lon="-85.8075370">
        <ele>39.1</ele>
        <time>2022-10-06T17:22:19Z</time>
      </trkpt>
      <trkpt lat="10.3603832" lon="-85.8075370">
        <ele>39.1</ele>
        <time>2022-10-06T17:22:20Z</time>
      </trkpt>
      <trkpt lat="10.3603832" lon="-85.8075370">
        <ele>39.1</ele>
        <time>2022-10-06T17:22:21Z</time>
      </trkpt>
      <trkpt lat="10.3603832" lon="-85.8075370">
        <ele>39.1</ele>
        <time>2022-10-06T17:22:22Z</time>
      </trkpt>
      <trkpt lat="10.3603832" lon="-85.8075370">
        <ele>39.1</ele>
        <time>2022-10-06T17:22:23Z</time>
      </trkpt>
      <trkpt lat="10.3603832" lon="-85.8075370">
        <ele>39.1</ele>
        <time>2022-10-06T17:22:24Z</time>
      </trkpt>
      <trkpt lat="10.3603832" lon="-85.8075370">
        <ele>39.0</ele>
        <time>2022-10-06T17:22:25Z</time>
      </trkpt>
      <trkpt lat="10.3603832" lon="-85.8075370">
        <ele>39.0</ele>
        <time>2022-10-06T17:22:26Z</time>
      </trkpt>
      <trkpt lat="10.3603832" lon="-85.8075370">
        <ele>39.0</ele>
        <time>2022-10-06T17:22:27Z</time>
      </trkpt>
      <trkpt lat="10.3603832" lon="-85.8075370">
        <ele>39.0</ele>
        <time>2022-10-06T17:22:28Z</time>
      </trkpt>
      <trkpt lat="10.3603832" lon="-85.8075370">
        <ele>39.1</ele>
        <time>2022-10-06T17:22:29Z</time>
      </trkpt>
      <trkpt lat="10.3603832" lon="-85.8075370">
        <ele>39.1</ele>
        <time>2022-10-06T17:22:30Z</time>
      </trkpt>
      <trkpt lat="10.3603832" lon="-85.8075370">
        <ele>39.1</ele>
        <time>2022-10-06T17:22:31Z</time>
      </trkpt>
      <trkpt lat="10.3603832" lon="-85.8075370">
        <ele>39.1</ele>
        <time>2022-10-06T17:22:32Z</time>
      </trkpt>
      <trkpt lat="10.3603832" lon="-85.8075370">
        <ele>39.1</ele>
        <time>2022-10-06T17:22:33Z</time>
      </trkpt>
      <trkpt lat="10.3603832" lon="-85.8075370">
        <ele>39.1</ele>
        <time>2022-10-06T17:22:34Z</time>
      </trkpt>
      <trkpt lat="10.3603832" lon="-85.8075370">
        <ele>39.1</ele>
        <time>2022-10-06T17:22:35Z</time>
      </trkpt>
      <trkpt lat="10.3603832" lon="-85.8075370">
        <ele>39.0</ele>
        <time>2022-10-06T17:22:36Z</time>
      </trkpt>
      <trkpt lat="10.3603832" lon="-85.8075370">
        <ele>39.0</ele>
        <time>2022-10-06T17:22:37Z</time>
      </trkpt>
      <trkpt lat="10.3603832" lon="-85.8075370">
        <ele>39.0</ele>
        <time>2022-10-06T17:22:38Z</time>
      </trkpt>
      <trkpt lat="10.3603832" lon="-85.8075370">
        <ele>38.9</ele>
        <time>2022-10-06T17:22:39Z</time>
      </trkpt>
      <trkpt lat="10.3603832" lon="-85.8075370">
        <ele>38.9</ele>
        <time>2022-10-06T17:22:40Z</time>
      </trkpt>
      <trkpt lat="10.3603832" lon="-85.8075370">
        <ele>38.9</ele>
        <time>2022-10-06T17:22:41Z</time>
      </trkpt>
      <trkpt lat="10.3603832" lon="-85.8075370">
        <ele>38.9</ele>
        <time>2022-10-06T17:22:42Z</time>
      </trkpt>
      <trkpt lat="10.3603832" lon="-85.8075370">
        <ele>38.9</ele>
        <time>2022-10-06T17:22:43Z</time>
      </trkpt>
      <trkpt lat="10.3603832" lon="-85.8075370">
        <ele>38.9</ele>
        <time>2022-10-06T17:22:44Z</time>
      </trkpt>
      <trkpt lat="10.3603832" lon="-85.8075370">
        <ele>38.9</ele>
        <time>2022-10-06T17:22:45Z</time>
      </trkpt>
      <trkpt lat="10.3603832" lon="-85.8075370">
        <ele>38.9</ele>
        <time>2022-10-06T17:22:46Z</time>
      </trkpt>
      <trkpt lat="10.3603832" lon="-85.8075370">
        <ele>38.9</ele>
        <time>2022-10-06T17:22:47Z</time>
      </trkpt>
      <trkpt lat="10.3603832" lon="-85.8075370">
        <ele>38.8</ele>
        <time>2022-10-06T17:22:48Z</time>
      </trkpt>
      <trkpt lat="10.3603832" lon="-85.8075370">
        <ele>38.8</ele>
        <time>2022-10-06T17:22:49Z</time>
      </trkpt>
      <trkpt lat="10.3603832" lon="-85.8075370">
        <ele>38.8</ele>
        <time>2022-10-06T17:22:50Z</time>
      </trkpt>
      <trkpt lat="10.3603832" lon="-85.8075370">
        <ele>38.8</ele>
        <time>2022-10-06T17:22:51Z</time>
      </trkpt>
      <trkpt lat="10.3603832" lon="-85.8075370">
        <ele>38.8</ele>
        <time>2022-10-06T17:22:52Z</time>
      </trkpt>
      <trkpt lat="10.3603832" lon="-85.8075370">
        <ele>38.7</ele>
        <time>2022-10-06T17:22:53Z</time>
      </trkpt>
      <trkpt lat="10.3603832" lon="-85.8075370">
        <ele>38.7</ele>
        <time>2022-10-06T17:22:54Z</time>
      </trkpt>
      <trkpt lat="10.3603832" lon="-85.8075370">
        <ele>38.7</ele>
        <time>2022-10-06T17:22:55Z</time>
      </trkpt>
      <trkpt lat="10.3603832" lon="-85.8075370">
        <ele>38.7</ele>
        <time>2022-10-06T17:22:56Z</time>
      </trkpt>
      <trkpt lat="10.3603832" lon="-85.8075370">
        <ele>38.7</ele>
        <time>2022-10-06T17:22:57Z</time>
      </trkpt>
      <trkpt lat="10.3603832" lon="-85.8075370">
        <ele>38.7</ele>
        <time>2022-10-06T17:22:58Z</time>
      </trkpt>
      <trkpt lat="10.3603832" lon="-85.8075370">
        <ele>38.8</ele>
        <time>2022-10-06T17:22:59Z</time>
      </trkpt>
      <trkpt lat="10.3603832" lon="-85.8075370">
        <ele>38.8</ele>
        <time>2022-10-06T17:23:00Z</time>
      </trkpt>
      <trkpt lat="10.3603832" lon="-85.8075370">
        <ele>38.8</ele>
        <time>2022-10-06T17:23:01Z</time>
      </trkpt>
      <trkpt lat="10.3603832" lon="-85.8075370">
        <ele>38.8</ele>
        <time>2022-10-06T17:23:02Z</time>
      </trkpt>
      <trkpt lat="10.3603832" lon="-85.8075370">
        <ele>38.8</ele>
        <time>2022-10-06T17:23:03Z</time>
      </trkpt>
      <trkpt lat="10.3603832" lon="-85.8075370">
        <ele>38.8</ele>
        <time>2022-10-06T17:23:04Z</time>
      </trkpt>
      <trkpt lat="10.3603832" lon="-85.8075370">
        <ele>38.8</ele>
        <time>2022-10-06T17:23:05Z</time>
      </trkpt>
      <trkpt lat="10.3603832" lon="-85.8075370">
        <ele>38.8</ele>
        <time>2022-10-06T17:23:06Z</time>
      </trkpt>
      <trkpt lat="10.3603832" lon="-85.8075370">
        <ele>38.8</ele>
        <time>2022-10-06T17:23:07Z</time>
      </trkpt>
      <trkpt lat="10.3603832" lon="-85.8075370">
        <ele>38.8</ele>
        <time>2022-10-06T17:23:08Z</time>
      </trkpt>
      <trkpt lat="10.3603832" lon="-85.8075370">
        <ele>38.8</ele>
        <time>2022-10-06T17:23:09Z</time>
      </trkpt>
      <trkpt lat="10.3603832" lon="-85.8075370">
        <ele>38.8</ele>
        <time>2022-10-06T17:23:10Z</time>
      </trkpt>
      <trkpt lat="10.3603832" lon="-85.8075370">
        <ele>38.7</ele>
        <time>2022-10-06T17:23:11Z</time>
      </trkpt>
      <trkpt lat="10.3603832" lon="-85.8075370">
        <ele>38.8</ele>
        <time>2022-10-06T17:23:12Z</time>
      </trkpt>
      <trkpt lat="10.3603832" lon="-85.8075370">
        <ele>38.7</ele>
        <time>2022-10-06T17:23:13Z</time>
      </trkpt>
      <trkpt lat="10.3603832" lon="-85.8075370">
        <ele>38.7</ele>
        <time>2022-10-06T17:23:14Z</time>
      </trkpt>
      <trkpt lat="10.3603832" lon="-85.8075370">
        <ele>38.7</ele>
        <time>2022-10-06T17:23:15Z</time>
      </trkpt>
      <trkpt lat="10.3603832" lon="-85.8075370">
        <ele>38.7</ele>
        <time>2022-10-06T17:23:16Z</time>
      </trkpt>
      <trkpt lat="10.3603832" lon="-85.8075370">
        <ele>38.7</ele>
        <time>2022-10-06T17:23:17Z</time>
      </trkpt>
      <trkpt lat="10.3603832" lon="-85.8075370">
        <ele>38.7</ele>
        <time>2022-10-06T17:23:18Z</time>
      </trkpt>
      <trkpt lat="10.3603832" lon="-85.8075370">
        <ele>38.7</ele>
        <time>2022-10-06T17:23:19Z</time>
      </trkpt>
      <trkpt lat="10.3603832" lon="-85.8075370">
        <ele>38.8</ele>
        <time>2022-10-06T17:23:20Z</time>
      </trkpt>
      <trkpt lat="10.3603832" lon="-85.8075370">
        <ele>38.8</ele>
        <time>2022-10-06T17:23:21Z</time>
      </trkpt>
      <trkpt lat="10.3603832" lon="-85.8075370">
        <ele>38.8</ele>
        <time>2022-10-06T17:23:22Z</time>
      </trkpt>
      <trkpt lat="10.3603832" lon="-85.8075370">
        <ele>38.8</ele>
        <time>2022-10-06T17:23:23Z</time>
      </trkpt>
      <trkpt lat="10.3603832" lon="-85.8075370">
        <ele>38.8</ele>
        <time>2022-10-06T17:23:24Z</time>
      </trkpt>
      <trkpt lat="10.3603832" lon="-85.8075370">
        <ele>38.8</ele>
        <time>2022-10-06T17:23:25Z</time>
      </trkpt>
      <trkpt lat="10.3603832" lon="-85.8075370">
        <ele>38.8</ele>
        <time>2022-10-06T17:23:26Z</time>
      </trkpt>
      <trkpt lat="10.3603832" lon="-85.8075370">
        <ele>38.8</ele>
        <time>2022-10-06T17:23:27Z</time>
      </trkpt>
      <trkpt lat="10.3603832" lon="-85.8075370">
        <ele>38.8</ele>
        <time>2022-10-06T17:23:28Z</time>
      </trkpt>
      <trkpt lat="10.3603832" lon="-85.8075370">
        <ele>38.8</ele>
        <time>2022-10-06T17:23:29Z</time>
      </trkpt>
      <trkpt lat="10.3603832" lon="-85.8075370">
        <ele>38.8</ele>
        <time>2022-10-06T17:23:30Z</time>
      </trkpt>
      <trkpt lat="10.3603832" lon="-85.8075370">
        <ele>38.7</ele>
        <time>2022-10-06T17:23:31Z</time>
      </trkpt>
      <trkpt lat="10.3603832" lon="-85.8075370">
        <ele>38.8</ele>
        <time>2022-10-06T17:23:32Z</time>
      </trkpt>
      <trkpt lat="10.3603832" lon="-85.8075370">
        <ele>38.8</ele>
        <time>2022-10-06T17:23:33Z</time>
      </trkpt>
      <trkpt lat="10.3603832" lon="-85.8075370">
        <ele>38.8</ele>
        <time>2022-10-06T17:23:34Z</time>
      </trkpt>
      <trkpt lat="10.3603832" lon="-85.8075370">
        <ele>38.8</ele>
        <time>2022-10-06T17:23:35Z</time>
      </trkpt>
      <trkpt lat="10.3603832" lon="-85.8075370">
        <ele>38.8</ele>
        <time>2022-10-06T17:23:36Z</time>
      </trkpt>
      <trkpt lat="10.3603832" lon="-85.8075370">
        <ele>38.8</ele>
        <time>2022-10-06T17:23:37Z</time>
      </trkpt>
      <trkpt lat="10.3603832" lon="-85.8075370">
        <ele>38.8</ele>
        <time>2022-10-06T17:23:38Z</time>
      </trkpt>
      <trkpt lat="10.3603832" lon="-85.8075370">
        <ele>38.8</ele>
        <time>2022-10-06T17:23:39Z</time>
      </trkpt>
      <trkpt lat="10.3603832" lon="-85.8075370">
        <ele>38.8</ele>
        <time>2022-10-06T17:23:40Z</time>
      </trkpt>
      <trkpt lat="10.3603832" lon="-85.8075370">
        <ele>38.8</ele>
        <time>2022-10-06T17:23:41Z</time>
      </trkpt>
      <trkpt lat="10.3603832" lon="-85.8075370">
        <ele>38.8</ele>
        <time>2022-10-06T17:23:42Z</time>
      </trkpt>
      <trkpt lat="10.3603832" lon="-85.8075370">
        <ele>38.8</ele>
        <time>2022-10-06T17:23:43Z</time>
      </trkpt>
      <trkpt lat="10.3603832" lon="-85.8075370">
        <ele>38.8</ele>
        <time>2022-10-06T17:23:44Z</time>
      </trkpt>
      <trkpt lat="10.3603832" lon="-85.8075370">
        <ele>38.8</ele>
        <time>2022-10-06T17:23:45Z</time>
      </trkpt>
      <trkpt lat="10.3603832" lon="-85.8075370">
        <ele>38.8</ele>
        <time>2022-10-06T17:23:46Z</time>
      </trkpt>
      <trkpt lat="10.3603832" lon="-85.8075370">
        <ele>38.8</ele>
        <time>2022-10-06T17:23:47Z</time>
      </trkpt>
      <trkpt lat="10.3603832" lon="-85.8075370">
        <ele>38.8</ele>
        <time>2022-10-06T17:23:48Z</time>
      </trkpt>
      <trkpt lat="10.3603832" lon="-85.8075370">
        <ele>38.7</ele>
        <time>2022-10-06T17:23:49Z</time>
      </trkpt>
      <trkpt lat="10.3603832" lon="-85.8075370">
        <ele>38.7</ele>
        <time>2022-10-06T17:23:50Z</time>
      </trkpt>
      <trkpt lat="10.3603832" lon="-85.8075370">
        <ele>38.7</ele>
        <time>2022-10-06T17:23:51Z</time>
      </trkpt>
      <trkpt lat="10.3603832" lon="-85.8075370">
        <ele>38.7</ele>
        <time>2022-10-06T17:23:52Z</time>
      </trkpt>
      <trkpt lat="10.3603832" lon="-85.8075370">
        <ele>38.7</ele>
        <time>2022-10-06T17:23:53Z</time>
      </trkpt>
      <trkpt lat="10.3603832" lon="-85.8075370">
        <ele>38.7</ele>
        <time>2022-10-06T17:23:54Z</time>
      </trkpt>
      <trkpt lat="10.3603832" lon="-85.8075370">
        <ele>38.7</ele>
        <time>2022-10-06T17:23:55Z</time>
      </trkpt>
      <trkpt lat="10.3603832" lon="-85.8075370">
        <ele>38.7</ele>
        <time>2022-10-06T17:23:56Z</time>
      </trkpt>
      <trkpt lat="10.3603832" lon="-85.8075370">
        <ele>38.7</ele>
        <time>2022-10-06T17:23:57Z</time>
      </trkpt>
      <trkpt lat="10.3603832" lon="-85.8075370">
        <ele>38.7</ele>
        <time>2022-10-06T17:23:58Z</time>
      </trkpt>
      <trkpt lat="10.3603832" lon="-85.8075370">
        <ele>38.7</ele>
        <time>2022-10-06T17:23:59Z</time>
      </trkpt>
      <trkpt lat="10.3603832" lon="-85.8075370">
        <ele>38.6</ele>
        <time>2022-10-06T17:24:00Z</time>
      </trkpt>
      <trkpt lat="10.3603832" lon="-85.8075370">
        <ele>38.6</ele>
        <time>2022-10-06T17:24:01Z</time>
      </trkpt>
      <trkpt lat="10.3603832" lon="-85.8075370">
        <ele>38.6</ele>
        <time>2022-10-06T17:24:02Z</time>
      </trkpt>
      <trkpt lat="10.3603832" lon="-85.8075370">
        <ele>38.6</ele>
        <time>2022-10-06T17:24:03Z</time>
      </trkpt>
      <trkpt lat="10.3603832" lon="-85.8075370">
        <ele>38.6</ele>
        <time>2022-10-06T17:24:04Z</time>
      </trkpt>
      <trkpt lat="10.3603832" lon="-85.8075370">
        <ele>38.6</ele>
        <time>2022-10-06T17:24:05Z</time>
      </trkpt>
      <trkpt lat="10.3603832" lon="-85.8075370">
        <ele>38.6</ele>
        <time>2022-10-06T17:24:06Z</time>
      </trkpt>
      <trkpt lat="10.3603832" lon="-85.8075370">
        <ele>38.6</ele>
        <time>2022-10-06T17:24:07Z</time>
      </trkpt>
      <trkpt lat="10.3603832" lon="-85.8075370">
        <ele>38.5</ele>
        <time>2022-10-06T17:24:08Z</time>
      </trkpt>
      <trkpt lat="10.3603832" lon="-85.8075370">
        <ele>38.5</ele>
        <time>2022-10-06T17:24:09Z</time>
      </trkpt>
      <trkpt lat="10.3603832" lon="-85.8075370">
        <ele>38.5</ele>
        <time>2022-10-06T17:24:10Z</time>
      </trkpt>
      <trkpt lat="10.3603832" lon="-85.8075370">
        <ele>38.5</ele>
        <time>2022-10-06T17:24:11Z</time>
      </trkpt>
      <trkpt lat="10.3603832" lon="-85.8075370">
        <ele>38.6</ele>
        <time>2022-10-06T17:24:12Z</time>
      </trkpt>
      <trkpt lat="10.3603832" lon="-85.8075370">
        <ele>38.6</ele>
        <time>2022-10-06T17:24:13Z</time>
      </trkpt>
      <trkpt lat="10.3603832" lon="-85.8075370">
        <ele>38.7</ele>
        <time>2022-10-06T17:24:14Z</time>
      </trkpt>
      <trkpt lat="10.3603832" lon="-85.8075370">
        <ele>38.7</ele>
        <time>2022-10-06T17:24:15Z</time>
      </trkpt>
      <trkpt lat="10.3603832" lon="-85.8075370">
        <ele>38.7</ele>
        <time>2022-10-06T17:24:16Z</time>
      </trkpt>
      <trkpt lat="10.3603832" lon="-85.8075370">
        <ele>38.7</ele>
        <time>2022-10-06T17:24:17Z</time>
      </trkpt>
      <trkpt lat="10.3603832" lon="-85.8075370">
        <ele>38.7</ele>
        <time>2022-10-06T17:24:18Z</time>
      </trkpt>
      <trkpt lat="10.3603832" lon="-85.8075370">
        <ele>38.9</ele>
        <time>2022-10-06T17:24:19Z</time>
      </trkpt>
      <trkpt lat="10.3603832" lon="-85.8075370">
        <ele>38.9</ele>
        <time>2022-10-06T17:24:20Z</time>
      </trkpt>
      <trkpt lat="10.3603832" lon="-85.8075370">
        <ele>38.9</ele>
        <time>2022-10-06T17:24:21Z</time>
      </trkpt>
      <trkpt lat="10.3603832" lon="-85.8075370">
        <ele>39.0</ele>
        <time>2022-10-06T17:24:22Z</time>
      </trkpt>
      <trkpt lat="10.3603832" lon="-85.8075370">
        <ele>39.0</ele>
        <time>2022-10-06T17:24:23Z</time>
      </trkpt>
      <trkpt lat="10.3603832" lon="-85.8075370">
        <ele>39.0</ele>
        <time>2022-10-06T17:24:24Z</time>
      </trkpt>
      <trkpt lat="10.3603832" lon="-85.8075370">
        <ele>39.0</ele>
        <time>2022-10-06T17:24:25Z</time>
      </trkpt>
      <trkpt lat="10.3603832" lon="-85.8075370">
        <ele>39.1</ele>
        <time>2022-10-06T17:24:26Z</time>
      </trkpt>
      <trkpt lat="10.3603832" lon="-85.8075370">
        <ele>39.1</ele>
        <time>2022-10-06T17:24:27Z</time>
      </trkpt>
      <trkpt lat="10.3603832" lon="-85.8075370">
        <ele>39.1</ele>
        <time>2022-10-06T17:24:28Z</time>
      </trkpt>
      <trkpt lat="10.3603832" lon="-85.8075370">
        <ele>39.2</ele>
        <time>2022-10-06T17:24:29Z</time>
      </trkpt>
      <trkpt lat="10.3603832" lon="-85.8075370">
        <ele>39.2</ele>
        <time>2022-10-06T17:24:30Z</time>
      </trkpt>
      <trkpt lat="10.3603832" lon="-85.8075370">
        <ele>39.2</ele>
        <time>2022-10-06T17:24:31Z</time>
      </trkpt>
      <trkpt lat="10.3603832" lon="-85.8075370">
        <ele>39.2</ele>
        <time>2022-10-06T17:24:32Z</time>
      </trkpt>
      <trkpt lat="10.3603832" lon="-85.8075370">
        <ele>39.2</ele>
        <time>2022-10-06T17:24:33Z</time>
      </trkpt>
      <trkpt lat="10.3603832" lon="-85.8075370">
        <ele>39.3</ele>
        <time>2022-10-06T17:24:34Z</time>
      </trkpt>
      <trkpt lat="10.3603832" lon="-85.8075370">
        <ele>39.3</ele>
        <time>2022-10-06T17:24:35Z</time>
      </trkpt>
      <trkpt lat="10.3603832" lon="-85.8075370">
        <ele>39.3</ele>
        <time>2022-10-06T17:24:36Z</time>
      </trkpt>
      <trkpt lat="10.3603832" lon="-85.8075370">
        <ele>39.3</ele>
        <time>2022-10-06T17:24:37Z</time>
      </trkpt>
      <trkpt lat="10.3603832" lon="-85.8075370">
        <ele>39.3</ele>
        <time>2022-10-06T17:24:38Z</time>
      </trkpt>
      <trkpt lat="10.3603832" lon="-85.8075370">
        <ele>39.4</ele>
        <time>2022-10-06T17:24:39Z</time>
      </trkpt>
      <trkpt lat="10.3603832" lon="-85.8075370">
        <ele>39.4</ele>
        <time>2022-10-06T17:24:40Z</time>
      </trkpt>
      <trkpt lat="10.3603832" lon="-85.8075370">
        <ele>39.4</ele>
        <time>2022-10-06T17:24:41Z</time>
      </trkpt>
      <trkpt lat="10.3603832" lon="-85.8075370">
        <ele>39.4</ele>
        <time>2022-10-06T17:24:42Z</time>
      </trkpt>
      <trkpt lat="10.3603832" lon="-85.8075370">
        <ele>39.4</ele>
        <time>2022-10-06T17:24:43Z</time>
      </trkpt>
      <trkpt lat="10.3603832" lon="-85.8075370">
        <ele>39.4</ele>
        <time>2022-10-06T17:24:44Z</time>
      </trkpt>
      <trkpt lat="10.3603832" lon="-85.8075370">
        <ele>39.4</ele>
        <time>2022-10-06T17:24:45Z</time>
      </trkpt>
      <trkpt lat="10.3603832" lon="-85.8075370">
        <ele>39.4</ele>
        <time>2022-10-06T17:24:46Z</time>
      </trkpt>
      <trkpt lat="10.3603832" lon="-85.8075370">
        <ele>39.4</ele>
        <time>2022-10-06T17:24:47Z</time>
      </trkpt>
      <trkpt lat="10.3603832" lon="-85.8075370">
        <ele>39.4</ele>
        <time>2022-10-06T17:24:48Z</time>
      </trkpt>
      <trkpt lat="10.3603832" lon="-85.8075370">
        <ele>39.4</ele>
        <time>2022-10-06T17:24:49Z</time>
      </trkpt>
      <trkpt lat="10.3603832" lon="-85.8075370">
        <ele>39.4</ele>
        <time>2022-10-06T17:24:50Z</time>
      </trkpt>
      <trkpt lat="10.3603832" lon="-85.8075370">
        <ele>39.4</ele>
        <time>2022-10-06T17:24:51Z</time>
      </trkpt>
      <trkpt lat="10.3603832" lon="-85.8075370">
        <ele>39.4</ele>
        <time>2022-10-06T17:24:52Z</time>
      </trkpt>
      <trkpt lat="10.3603832" lon="-85.8075370">
        <ele>39.4</ele>
        <time>2022-10-06T17:24:53Z</time>
      </trkpt>
      <trkpt lat="10.3603832" lon="-85.8075370">
        <ele>39.4</ele>
        <time>2022-10-06T17:24:54Z</time>
      </trkpt>
      <trkpt lat="10.3603832" lon="-85.8075370">
        <ele>39.4</ele>
        <time>2022-10-06T17:24:55Z</time>
      </trkpt>
      <trkpt lat="10.3603832" lon="-85.8075370">
        <ele>39.4</ele>
        <time>2022-10-06T17:24:56Z</time>
      </trkpt>
      <trkpt lat="10.3603832" lon="-85.8075370">
        <ele>39.5</ele>
        <time>2022-10-06T17:24:57Z</time>
      </trkpt>
      <trkpt lat="10.3603832" lon="-85.8075370">
        <ele>39.5</ele>
        <time>2022-10-06T17:24:58Z</time>
      </trkpt>
      <trkpt lat="10.3603832" lon="-85.8075370">
        <ele>39.5</ele>
        <time>2022-10-06T17:24:59Z</time>
      </trkpt>
      <trkpt lat="10.3603832" lon="-85.8075370">
        <ele>39.5</ele>
        <time>2022-10-06T17:25:00Z</time>
      </trkpt>
      <trkpt lat="10.3603832" lon="-85.8075370">
        <ele>39.5</ele>
        <time>2022-10-06T17:25:01Z</time>
      </trkpt>
      <trkpt lat="10.3603832" lon="-85.8075370">
        <ele>39.5</ele>
        <time>2022-10-06T17:25:02Z</time>
      </trkpt>
      <trkpt lat="10.3603832" lon="-85.8075370">
        <ele>39.6</ele>
        <time>2022-10-06T17:25:03Z</time>
      </trkpt>
      <trkpt lat="10.3603832" lon="-85.8075370">
        <ele>39.6</ele>
        <time>2022-10-06T17:25:04Z</time>
      </trkpt>
      <trkpt lat="10.3603832" lon="-85.8075370">
        <ele>39.6</ele>
        <time>2022-10-06T17:25:05Z</time>
      </trkpt>
      <trkpt lat="10.3603832" lon="-85.8075370">
        <ele>39.6</ele>
        <time>2022-10-06T17:25:06Z</time>
      </trkpt>
      <trkpt lat="10.3603832" lon="-85.8075370">
        <ele>39.5</ele>
        <time>2022-10-06T17:25:07Z</time>
      </trkpt>
      <trkpt lat="10.3603832" lon="-85.8075370">
        <ele>39.5</ele>
        <time>2022-10-06T17:25:08Z</time>
      </trkpt>
      <trkpt lat="10.3603832" lon="-85.8075370">
        <ele>39.5</ele>
        <time>2022-10-06T17:25:09Z</time>
      </trkpt>
      <trkpt lat="10.3603832" lon="-85.8075370">
        <ele>39.5</ele>
        <time>2022-10-06T17:25:10Z</time>
      </trkpt>
      <trkpt lat="10.3603832" lon="-85.8075370">
        <ele>39.6</ele>
        <time>2022-10-06T17:25:11Z</time>
      </trkpt>
      <trkpt lat="10.3603832" lon="-85.8075370">
        <ele>39.6</ele>
        <time>2022-10-06T17:25:12Z</time>
      </trkpt>
      <trkpt lat="10.3603832" lon="-85.8075370">
        <ele>39.7</ele>
        <time>2022-10-06T17:25:13Z</time>
      </trkpt>
      <trkpt lat="10.3603832" lon="-85.8075370">
        <ele>39.7</ele>
        <time>2022-10-06T17:25:14Z</time>
      </trkpt>
      <trkpt lat="10.3603832" lon="-85.8075370">
        <ele>39.7</ele>
        <time>2022-10-06T17:25:15Z</time>
      </trkpt>
      <trkpt lat="10.3603832" lon="-85.8075370">
        <ele>39.7</ele>
        <time>2022-10-06T17:25:16Z</time>
      </trkpt>
      <trkpt lat="10.3603832" lon="-85.8075370">
        <ele>39.7</ele>
        <time>2022-10-06T17:25:17Z</time>
      </trkpt>
      <trkpt lat="10.3603832" lon="-85.8075370">
        <ele>39.8</ele>
        <time>2022-10-06T17:25:18Z</time>
      </trkpt>
      <trkpt lat="10.3603832" lon="-85.8075370">
        <ele>39.8</ele>
        <time>2022-10-06T17:25:19Z</time>
      </trkpt>
      <trkpt lat="10.3603832" lon="-85.8075370">
        <ele>39.7</ele>
        <time>2022-10-06T17:25:20Z</time>
      </trkpt>
      <trkpt lat="10.3603832" lon="-85.8075370">
        <ele>39.6</ele>
        <time>2022-10-06T17:25:21Z</time>
      </trkpt>
      <trkpt lat="10.3603832" lon="-85.8075370">
        <ele>39.6</ele>
        <time>2022-10-06T17:25:22Z</time>
      </trkpt>
      <trkpt lat="10.3603832" lon="-85.8075370">
        <ele>39.6</ele>
        <time>2022-10-06T17:25:23Z</time>
      </trkpt>
      <trkpt lat="10.3603832" lon="-85.8075370">
        <ele>39.6</ele>
        <time>2022-10-06T17:25:24Z</time>
      </trkpt>
      <trkpt lat="10.3603832" lon="-85.8075370">
        <ele>39.5</ele>
        <time>2022-10-06T17:25:25Z</time>
      </trkpt>
      <trkpt lat="10.3603832" lon="-85.8075370">
        <ele>39.5</ele>
        <time>2022-10-06T17:25:26Z</time>
      </trkpt>
      <trkpt lat="10.3603832" lon="-85.8075370">
        <ele>39.5</ele>
        <time>2022-10-06T17:25:27Z</time>
      </trkpt>
      <trkpt lat="10.3603832" lon="-85.8075370">
        <ele>39.5</ele>
        <time>2022-10-06T17:25:28Z</time>
      </trkpt>
      <trkpt lat="10.3603832" lon="-85.8075370">
        <ele>39.5</ele>
        <time>2022-10-06T17:25:29Z</time>
      </trkpt>
      <trkpt lat="10.3603832" lon="-85.8075370">
        <ele>39.4</ele>
        <time>2022-10-06T17:25:30Z</time>
      </trkpt>
      <trkpt lat="10.3603832" lon="-85.8075370">
        <ele>39.4</ele>
        <time>2022-10-06T17:25:31Z</time>
      </trkpt>
      <trkpt lat="10.3603832" lon="-85.8075370">
        <ele>39.4</ele>
        <time>2022-10-06T17:25:32Z</time>
      </trkpt>
      <trkpt lat="10.3603832" lon="-85.8075370">
        <ele>39.3</ele>
        <time>2022-10-06T17:25:33Z</time>
      </trkpt>
      <trkpt lat="10.3603832" lon="-85.8075370">
        <ele>39.3</ele>
        <time>2022-10-06T17:25:34Z</time>
      </trkpt>
      <trkpt lat="10.3603832" lon="-85.8075370">
        <ele>39.3</ele>
        <time>2022-10-06T17:25:35Z</time>
      </trkpt>
      <trkpt lat="10.3603832" lon="-85.8075370">
        <ele>39.3</ele>
        <time>2022-10-06T17:25:36Z</time>
      </trkpt>
      <trkpt lat="10.3603832" lon="-85.8075370">
        <ele>39.3</ele>
        <time>2022-10-06T17:25:37Z</time>
      </trkpt>
      <trkpt lat="10.3603832" lon="-85.8075370">
        <ele>39.3</ele>
        <time>2022-10-06T17:25:38Z</time>
      </trkpt>
      <trkpt lat="10.3603832" lon="-85.8075370">
        <ele>39.3</ele>
        <time>2022-10-06T17:25:39Z</time>
      </trkpt>
      <trkpt lat="10.3603832" lon="-85.8075370">
        <ele>39.2</ele>
        <time>2022-10-06T17:25:40Z</time>
      </trkpt>
      <trkpt lat="10.3603832" lon="-85.8075370">
        <ele>39.2</ele>
        <time>2022-10-06T17:25:41Z</time>
      </trkpt>
      <trkpt lat="10.3603832" lon="-85.8075370">
        <ele>39.2</ele>
        <time>2022-10-06T17:25:42Z</time>
      </trkpt>
      <trkpt lat="10.3603832" lon="-85.8075370">
        <ele>39.2</ele>
        <time>2022-10-06T17:25:43Z</time>
      </trkpt>
      <trkpt lat="10.3603832" lon="-85.8075370">
        <ele>39.2</ele>
        <time>2022-10-06T17:25:44Z</time>
      </trkpt>
      <trkpt lat="10.3603832" lon="-85.8075370">
        <ele>39.2</ele>
        <time>2022-10-06T17:25:45Z</time>
      </trkpt>
      <trkpt lat="10.3603832" lon="-85.8075370">
        <ele>39.2</ele>
        <time>2022-10-06T17:25:46Z</time>
      </trkpt>
      <trkpt lat="10.3603832" lon="-85.8075370">
        <ele>39.2</ele>
        <time>2022-10-06T17:25:47Z</time>
      </trkpt>
      <trkpt lat="10.3603832" lon="-85.8075370">
        <ele>39.3</ele>
        <time>2022-10-06T17:25:48Z</time>
      </trkpt>
      <trkpt lat="10.3603832" lon="-85.8075370">
        <ele>39.3</ele>
        <time>2022-10-06T17:25:49Z</time>
      </trkpt>
      <trkpt lat="10.3603832" lon="-85.8075370">
        <ele>39.3</ele>
        <time>2022-10-06T17:25:50Z</time>
      </trkpt>
      <trkpt lat="10.3603832" lon="-85.8075370">
        <ele>39.3</ele>
        <time>2022-10-06T17:25:51Z</time>
      </trkpt>
      <trkpt lat="10.3603832" lon="-85.8075370">
        <ele>39.3</ele>
        <time>2022-10-06T17:25:52Z</time>
      </trkpt>
      <trkpt lat="10.3603832" lon="-85.8075370">
        <ele>39.4</ele>
        <time>2022-10-06T17:25:53Z</time>
      </trkpt>
      <trkpt lat="10.3603832" lon="-85.8075370">
        <ele>39.3</ele>
        <time>2022-10-06T17:25:54Z</time>
      </trkpt>
      <trkpt lat="10.3603832" lon="-85.8075370">
        <ele>39.3</ele>
        <time>2022-10-06T17:25:55Z</time>
      </trkpt>
      <trkpt lat="10.3603832" lon="-85.8075370">
        <ele>39.3</ele>
        <time>2022-10-06T17:25:56Z</time>
      </trkpt>
      <trkpt lat="10.3603832" lon="-85.8075370">
        <ele>39.3</ele>
        <time>2022-10-06T17:25:57Z</time>
      </trkpt>
      <trkpt lat="10.3603832" lon="-85.8075370">
        <ele>39.4</ele>
        <time>2022-10-06T17:25:58Z</time>
      </trkpt>
      <trkpt lat="10.3603832" lon="-85.8075370">
        <ele>39.4</ele>
        <time>2022-10-06T17:25:59Z</time>
      </trkpt>
      <trkpt lat="10.3603832" lon="-85.8075370">
        <ele>39.3</ele>
        <time>2022-10-06T17:26:00Z</time>
      </trkpt>
      <trkpt lat="10.3603832" lon="-85.8075370">
        <ele>39.4</ele>
        <time>2022-10-06T17:26:01Z</time>
      </trkpt>
      <trkpt lat="10.3603832" lon="-85.8075370">
        <ele>39.3</ele>
        <time>2022-10-06T17:26:02Z</time>
      </trkpt>
      <trkpt lat="10.3603832" lon="-85.8075370">
        <ele>39.4</ele>
        <time>2022-10-06T17:26:03Z</time>
      </trkpt>
      <trkpt lat="10.3603832" lon="-85.8075370">
        <ele>39.4</ele>
        <time>2022-10-06T17:26:04Z</time>
      </trkpt>
      <trkpt lat="10.3603832" lon="-85.8075370">
        <ele>39.4</ele>
        <time>2022-10-06T17:26:05Z</time>
      </trkpt>
      <trkpt lat="10.3603832" lon="-85.8075370">
        <ele>39.3</ele>
        <time>2022-10-06T17:26:06Z</time>
      </trkpt>
      <trkpt lat="10.3603832" lon="-85.8075370">
        <ele>39.4</ele>
        <time>2022-10-06T17:26:07Z</time>
      </trkpt>
      <trkpt lat="10.3603832" lon="-85.8075370">
        <ele>39.4</ele>
        <time>2022-10-06T17:26:08Z</time>
      </trkpt>
      <trkpt lat="10.3603832" lon="-85.8075370">
        <ele>39.4</ele>
        <time>2022-10-06T17:26:09Z</time>
      </trkpt>
      <trkpt lat="10.3603832" lon="-85.8075370">
        <ele>39.4</ele>
        <time>2022-10-06T17:26:10Z</time>
      </trkpt>
      <trkpt lat="10.3603832" lon="-85.8075370">
        <ele>39.4</ele>
        <time>2022-10-06T17:26:11Z</time>
      </trkpt>
      <trkpt lat="10.3603832" lon="-85.8075370">
        <ele>39.4</ele>
        <time>2022-10-06T17:26:12Z</time>
      </trkpt>
      <trkpt lat="10.3603832" lon="-85.8075370">
        <ele>39.5</ele>
        <time>2022-10-06T17:26:13Z</time>
      </trkpt>
      <trkpt lat="10.3603832" lon="-85.8075370">
        <ele>39.5</ele>
        <time>2022-10-06T17:26:14Z</time>
      </trkpt>
      <trkpt lat="10.3603832" lon="-85.8075370">
        <ele>39.5</ele>
        <time>2022-10-06T17:26:15Z</time>
      </trkpt>
      <trkpt lat="10.3603832" lon="-85.8075370">
        <ele>39.5</ele>
        <time>2022-10-06T17:26:16Z</time>
      </trkpt>
      <trkpt lat="10.3603832" lon="-85.8075370">
        <ele>39.6</ele>
        <time>2022-10-06T17:26:17Z</time>
      </trkpt>
      <trkpt lat="10.3603832" lon="-85.8075370">
        <ele>39.6</ele>
        <time>2022-10-06T17:26:18Z</time>
      </trkpt>
      <trkpt lat="10.3603832" lon="-85.8075370">
        <ele>39.6</ele>
        <time>2022-10-06T17:26:19Z</time>
      </trkpt>
      <trkpt lat="10.3603832" lon="-85.8075370">
        <ele>39.6</ele>
        <time>2022-10-06T17:26:20Z</time>
      </trkpt>
      <trkpt lat="10.3603832" lon="-85.8075370">
        <ele>39.6</ele>
        <time>2022-10-06T17:26:21Z</time>
      </trkpt>
      <trkpt lat="10.3603832" lon="-85.8075370">
        <ele>39.5</ele>
        <time>2022-10-06T17:26:22Z</time>
      </trkpt>
      <trkpt lat="10.3603832" lon="-85.8075370">
        <ele>39.6</ele>
        <time>2022-10-06T17:26:23Z</time>
      </trkpt>
      <trkpt lat="10.3604172" lon="-85.8075693">
        <ele>39.6</ele>
        <time>2022-10-06T17:26:24Z</time>
      </trkpt>
      <trkpt lat="10.3604172" lon="-85.8075693">
        <ele>39.6</ele>
        <time>2022-10-06T17:26:25Z</time>
      </trkpt>
      <trkpt lat="10.3604172" lon="-85.8075693">
        <ele>39.6</ele>
        <time>2022-10-06T17:26:26Z</time>
      </trkpt>
      <trkpt lat="10.3604172" lon="-85.8075693">
        <ele>39.6</ele>
        <time>2022-10-06T17:26:27Z</time>
      </trkpt>
      <trkpt lat="10.3604172" lon="-85.8075693">
        <ele>39.6</ele>
        <time>2022-10-06T17:26:28Z</time>
      </trkpt>
      <trkpt lat="10.3604172" lon="-85.8075693">
        <ele>39.6</ele>
        <time>2022-10-06T17:26:29Z</time>
      </trkpt>
      <trkpt lat="10.3604172" lon="-85.8075693">
        <ele>39.5</ele>
        <time>2022-10-06T17:26:30Z</time>
      </trkpt>
      <trkpt lat="10.3604172" lon="-85.8075693">
        <ele>39.5</ele>
        <time>2022-10-06T17:26:31Z</time>
      </trkpt>
      <trkpt lat="10.3604172" lon="-85.8075693">
        <ele>39.5</ele>
        <time>2022-10-06T17:26:32Z</time>
      </trkpt>
      <trkpt lat="10.3604172" lon="-85.8075693">
        <ele>39.5</ele>
        <time>2022-10-06T17:26:33Z</time>
      </trkpt>
      <trkpt lat="10.3604172" lon="-85.8075693">
        <ele>39.5</ele>
        <time>2022-10-06T17:26:34Z</time>
      </trkpt>
      <trkpt lat="10.3604172" lon="-85.8075693">
        <ele>39.5</ele>
        <time>2022-10-06T17:26:35Z</time>
      </trkpt>
      <trkpt lat="10.3604172" lon="-85.8075693">
        <ele>39.5</ele>
        <time>2022-10-06T17:26:36Z</time>
      </trkpt>
      <trkpt lat="10.3604172" lon="-85.8075693">
        <ele>39.5</ele>
        <time>2022-10-06T17:26:37Z</time>
      </trkpt>
      <trkpt lat="10.3604172" lon="-85.8075693">
        <ele>39.5</ele>
        <time>2022-10-06T17:26:38Z</time>
      </trkpt>
      <trkpt lat="10.3604172" lon="-85.8075693">
        <ele>39.5</ele>
        <time>2022-10-06T17:26:39Z</time>
      </trkpt>
      <trkpt lat="10.3604172" lon="-85.8075693">
        <ele>39.5</ele>
        <time>2022-10-06T17:26:40Z</time>
      </trkpt>
      <trkpt lat="10.3604172" lon="-85.8075693">
        <ele>39.5</ele>
        <time>2022-10-06T17:26:41Z</time>
      </trkpt>
      <trkpt lat="10.3604172" lon="-85.8075693">
        <ele>39.5</ele>
        <time>2022-10-06T17:26:42Z</time>
      </trkpt>
      <trkpt lat="10.3604172" lon="-85.8075693">
        <ele>39.4</ele>
        <time>2022-10-06T17:26:43Z</time>
      </trkpt>
      <trkpt lat="10.3604172" lon="-85.8075693">
        <ele>39.4</ele>
        <time>2022-10-06T17:26:44Z</time>
      </trkpt>
      <trkpt lat="10.3604172" lon="-85.8075693">
        <ele>39.4</ele>
        <time>2022-10-06T17:26:45Z</time>
      </trkpt>
      <trkpt lat="10.3604172" lon="-85.8075693">
        <ele>39.4</ele>
        <time>2022-10-06T17:26:46Z</time>
      </trkpt>
      <trkpt lat="10.3604172" lon="-85.8075693">
        <ele>39.4</ele>
        <time>2022-10-06T17:26:47Z</time>
      </trkpt>
      <trkpt lat="10.3604172" lon="-85.8075693">
        <ele>39.3</ele>
        <time>2022-10-06T17:26:48Z</time>
      </trkpt>
      <trkpt lat="10.3604172" lon="-85.8075693">
        <ele>39.4</ele>
        <time>2022-10-06T17:26:49Z</time>
      </trkpt>
      <trkpt lat="10.3604172" lon="-85.8075693">
        <ele>39.4</ele>
        <time>2022-10-06T17:26:50Z</time>
      </trkpt>
      <trkpt lat="10.3604172" lon="-85.8075693">
        <ele>39.3</ele>
        <time>2022-10-06T17:26:51Z</time>
      </trkpt>
      <trkpt lat="10.3604172" lon="-85.8075693">
        <ele>39.3</ele>
        <time>2022-10-06T17:26:52Z</time>
      </trkpt>
      <trkpt lat="10.3604172" lon="-85.8075693">
        <ele>39.3</ele>
        <time>2022-10-06T17:26:53Z</time>
      </trkpt>
      <trkpt lat="10.3604172" lon="-85.8075693">
        <ele>39.2</ele>
        <time>2022-10-06T17:26:54Z</time>
      </trkpt>
      <trkpt lat="10.3604172" lon="-85.8075693">
        <ele>39.2</ele>
        <time>2022-10-06T17:26:55Z</time>
      </trkpt>
      <trkpt lat="10.3604172" lon="-85.8075693">
        <ele>39.2</ele>
        <time>2022-10-06T17:26:56Z</time>
      </trkpt>
      <trkpt lat="10.3604172" lon="-85.8075693">
        <ele>39.2</ele>
        <time>2022-10-06T17:26:57Z</time>
      </trkpt>
      <trkpt lat="10.3604172" lon="-85.8075693">
        <ele>39.2</ele>
        <time>2022-10-06T17:26:58Z</time>
      </trkpt>
      <trkpt lat="10.3604172" lon="-85.8075693">
        <ele>39.1</ele>
        <time>2022-10-06T17:26:59Z</time>
      </trkpt>
      <trkpt lat="10.3604172" lon="-85.8075693">
        <ele>39.1</ele>
        <time>2022-10-06T17:27:00Z</time>
      </trkpt>
      <trkpt lat="10.3604172" lon="-85.8075693">
        <ele>39.1</ele>
        <time>2022-10-06T17:27:01Z</time>
      </trkpt>
      <trkpt lat="10.3604172" lon="-85.8075693">
        <ele>39.0</ele>
        <time>2022-10-06T17:27:02Z</time>
      </trkpt>
      <trkpt lat="10.3604172" lon="-85.8075693">
        <ele>39.0</ele>
        <time>2022-10-06T17:27:03Z</time>
      </trkpt>
      <trkpt lat="10.3604172" lon="-85.8075693">
        <ele>39.0</ele>
        <time>2022-10-06T17:27:04Z</time>
      </trkpt>
      <trkpt lat="10.3604172" lon="-85.8075693">
        <ele>38.9</ele>
        <time>2022-10-06T17:27:05Z</time>
      </trkpt>
      <trkpt lat="10.3604172" lon="-85.8075693">
        <ele>38.9</ele>
        <time>2022-10-06T17:27:06Z</time>
      </trkpt>
      <trkpt lat="10.3604172" lon="-85.8075693">
        <ele>38.9</ele>
        <time>2022-10-06T17:27:07Z</time>
      </trkpt>
      <trkpt lat="10.3604172" lon="-85.8075693">
        <ele>38.8</ele>
        <time>2022-10-06T17:27:08Z</time>
      </trkpt>
      <trkpt lat="10.3604172" lon="-85.8075693">
        <ele>38.8</ele>
        <time>2022-10-06T17:27:09Z</time>
      </trkpt>
      <trkpt lat="10.3604172" lon="-85.8075693">
        <ele>38.8</ele>
        <time>2022-10-06T17:27:10Z</time>
      </trkpt>
      <trkpt lat="10.3604172" lon="-85.8075693">
        <ele>38.8</ele>
        <time>2022-10-06T17:27:11Z</time>
      </trkpt>
      <trkpt lat="10.3604172" lon="-85.8075693">
        <ele>38.8</ele>
        <time>2022-10-06T17:27:12Z</time>
      </trkpt>
      <trkpt lat="10.3604172" lon="-85.8075693">
        <ele>38.8</ele>
        <time>2022-10-06T17:27:13Z</time>
      </trkpt>
      <trkpt lat="10.3604172" lon="-85.8075693">
        <ele>38.8</ele>
        <time>2022-10-06T17:27:14Z</time>
      </trkpt>
      <trkpt lat="10.3604172" lon="-85.8075693">
        <ele>38.8</ele>
        <time>2022-10-06T17:27:15Z</time>
      </trkpt>
      <trkpt lat="10.3604172" lon="-85.8075693">
        <ele>38.8</ele>
        <time>2022-10-06T17:27:16Z</time>
      </trkpt>
      <trkpt lat="10.3604172" lon="-85.8075693">
        <ele>38.8</ele>
        <time>2022-10-06T17:27:17Z</time>
      </trkpt>
      <trkpt lat="10.3604172" lon="-85.8075693">
        <ele>38.8</ele>
        <time>2022-10-06T17:27:18Z</time>
      </trkpt>
      <trkpt lat="10.3604172" lon="-85.8075693">
        <ele>38.8</ele>
        <time>2022-10-06T17:27:19Z</time>
      </trkpt>
      <trkpt lat="10.3604172" lon="-85.8075693">
        <ele>38.8</ele>
        <time>2022-10-06T17:27:20Z</time>
      </trkpt>
      <trkpt lat="10.3604172" lon="-85.8075693">
        <ele>38.9</ele>
        <time>2022-10-06T17:27:21Z</time>
      </trkpt>
      <trkpt lat="10.3604172" lon="-85.8075693">
        <ele>38.9</ele>
        <time>2022-10-06T17:27:22Z</time>
      </trkpt>
      <trkpt lat="10.3604172" lon="-85.8075693">
        <ele>38.8</ele>
        <time>2022-10-06T17:27:23Z</time>
      </trkpt>
      <trkpt lat="10.3604172" lon="-85.8075693">
        <ele>38.8</ele>
        <time>2022-10-06T17:27:24Z</time>
      </trkpt>
      <trkpt lat="10.3604172" lon="-85.8075693">
        <ele>38.8</ele>
        <time>2022-10-06T17:27:25Z</time>
      </trkpt>
      <trkpt lat="10.3604172" lon="-85.8075693">
        <ele>38.8</ele>
        <time>2022-10-06T17:27:26Z</time>
      </trkpt>
      <trkpt lat="10.3604172" lon="-85.8075693">
        <ele>38.8</ele>
        <time>2022-10-06T17:27:27Z</time>
      </trkpt>
      <trkpt lat="10.3604172" lon="-85.8075693">
        <ele>38.9</ele>
        <time>2022-10-06T17:27:28Z</time>
      </trkpt>
      <trkpt lat="10.3604172" lon="-85.8075693">
        <ele>38.9</ele>
        <time>2022-10-06T17:27:29Z</time>
      </trkpt>
      <trkpt lat="10.3604172" lon="-85.8075693">
        <ele>38.8</ele>
        <time>2022-10-06T17:27:30Z</time>
      </trkpt>
      <trkpt lat="10.3604172" lon="-85.8075693">
        <ele>38.7</ele>
        <time>2022-10-06T17:27:31Z</time>
      </trkpt>
      <trkpt lat="10.3604172" lon="-85.8075693">
        <ele>38.7</ele>
        <time>2022-10-06T17:27:32Z</time>
      </trkpt>
      <trkpt lat="10.3604172" lon="-85.8075693">
        <ele>38.7</ele>
        <time>2022-10-06T17:27:33Z</time>
      </trkpt>
      <trkpt lat="10.3604172" lon="-85.8075693">
        <ele>38.7</ele>
        <time>2022-10-06T17:27:34Z</time>
      </trkpt>
      <trkpt lat="10.3604172" lon="-85.8075693">
        <ele>38.7</ele>
        <time>2022-10-06T17:27:35Z</time>
      </trkpt>
      <trkpt lat="10.3604172" lon="-85.8075693">
        <ele>38.7</ele>
        <time>2022-10-06T17:27:36Z</time>
      </trkpt>
      <trkpt lat="10.3604172" lon="-85.8075693">
        <ele>38.7</ele>
        <time>2022-10-06T17:27:37Z</time>
      </trkpt>
      <trkpt lat="10.3604172" lon="-85.8075693">
        <ele>38.7</ele>
        <time>2022-10-06T17:27:38Z</time>
      </trkpt>
      <trkpt lat="10.3604172" lon="-85.8075693">
        <ele>38.7</ele>
        <time>2022-10-06T17:27:39Z</time>
      </trkpt>
      <trkpt lat="10.3604172" lon="-85.8075693">
        <ele>38.7</ele>
        <time>2022-10-06T17:27:40Z</time>
      </trkpt>
      <trkpt lat="10.3604172" lon="-85.8075693">
        <ele>38.7</ele>
        <time>2022-10-06T17:27:41Z</time>
      </trkpt>
      <trkpt lat="10.3604172" lon="-85.8075693">
        <ele>38.6</ele>
        <time>2022-10-06T17:27:42Z</time>
      </trkpt>
      <trkpt lat="10.3604172" lon="-85.8075693">
        <ele>38.7</ele>
        <time>2022-10-06T17:27:43Z</time>
      </trkpt>
      <trkpt lat="10.3604172" lon="-85.8075693">
        <ele>38.7</ele>
        <time>2022-10-06T17:27:44Z</time>
      </trkpt>
      <trkpt lat="10.3604172" lon="-85.8075693">
        <ele>38.7</ele>
        <time>2022-10-06T17:27:45Z</time>
      </trkpt>
      <trkpt lat="10.3604172" lon="-85.8075693">
        <ele>38.7</ele>
        <time>2022-10-06T17:27:46Z</time>
      </trkpt>
      <trkpt lat="10.3604172" lon="-85.8075693">
        <ele>38.6</ele>
        <time>2022-10-06T17:27:47Z</time>
      </trkpt>
      <trkpt lat="10.3604172" lon="-85.8075693">
        <ele>38.6</ele>
        <time>2022-10-06T17:27:48Z</time>
      </trkpt>
      <trkpt lat="10.3604172" lon="-85.8075693">
        <ele>38.7</ele>
        <time>2022-10-06T17:27:49Z</time>
      </trkpt>
      <trkpt lat="10.3604172" lon="-85.8075693">
        <ele>38.6</ele>
        <time>2022-10-06T17:27:50Z</time>
      </trkpt>
      <trkpt lat="10.3604172" lon="-85.8075693">
        <ele>38.6</ele>
        <time>2022-10-06T17:27:51Z</time>
      </trkpt>
      <trkpt lat="10.3604172" lon="-85.8075693">
        <ele>38.6</ele>
        <time>2022-10-06T17:27:52Z</time>
      </trkpt>
      <trkpt lat="10.3604172" lon="-85.8075693">
        <ele>38.6</ele>
        <time>2022-10-06T17:27:53Z</time>
      </trkpt>
      <trkpt lat="10.3604172" lon="-85.8075693">
        <ele>38.6</ele>
        <time>2022-10-06T17:27:54Z</time>
      </trkpt>
      <trkpt lat="10.3604172" lon="-85.8075693">
        <ele>38.6</ele>
        <time>2022-10-06T17:27:55Z</time>
      </trkpt>
      <trkpt lat="10.3604172" lon="-85.8075693">
        <ele>38.6</ele>
        <time>2022-10-06T17:27:56Z</time>
      </trkpt>
      <trkpt lat="10.3604172" lon="-85.8075693">
        <ele>38.6</ele>
        <time>2022-10-06T17:27:57Z</time>
      </trkpt>
      <trkpt lat="10.3604172" lon="-85.8075693">
        <ele>38.6</ele>
        <time>2022-10-06T17:27:58Z</time>
      </trkpt>
      <trkpt lat="10.3604172" lon="-85.8075693">
        <ele>38.6</ele>
        <time>2022-10-06T17:27:59Z</time>
      </trkpt>
      <trkpt lat="10.3604172" lon="-85.8075693">
        <ele>38.6</ele>
        <time>2022-10-06T17:28:00Z</time>
      </trkpt>
      <trkpt lat="10.3604172" lon="-85.8075693">
        <ele>38.6</ele>
        <time>2022-10-06T17:28:01Z</time>
      </trkpt>
      <trkpt lat="10.3604172" lon="-85.8075693">
        <ele>38.5</ele>
        <time>2022-10-06T17:28:02Z</time>
      </trkpt>
      <trkpt lat="10.3604172" lon="-85.8075693">
        <ele>38.6</ele>
        <time>2022-10-06T17:28:03Z</time>
      </trkpt>
      <trkpt lat="10.3604172" lon="-85.8075693">
        <ele>38.5</ele>
        <time>2022-10-06T17:28:04Z</time>
      </trkpt>
      <trkpt lat="10.3604172" lon="-85.8075693">
        <ele>38.5</ele>
        <time>2022-10-06T17:28:05Z</time>
      </trkpt>
      <trkpt lat="10.3604172" lon="-85.8075693">
        <ele>38.5</ele>
        <time>2022-10-06T17:28:06Z</time>
      </trkpt>
      <trkpt lat="10.3604172" lon="-85.8075693">
        <ele>38.4</ele>
        <time>2022-10-06T17:28:07Z</time>
      </trkpt>
      <trkpt lat="10.3604172" lon="-85.8075693">
        <ele>38.4</ele>
        <time>2022-10-06T17:28:08Z</time>
      </trkpt>
      <trkpt lat="10.3604172" lon="-85.8075693">
        <ele>38.4</ele>
        <time>2022-10-06T17:28:09Z</time>
      </trkpt>
      <trkpt lat="10.3604172" lon="-85.8075693">
        <ele>38.3</ele>
        <time>2022-10-06T17:28:10Z</time>
      </trkpt>
      <trkpt lat="10.3604172" lon="-85.8075693">
        <ele>38.3</ele>
        <time>2022-10-06T17:28:11Z</time>
      </trkpt>
      <trkpt lat="10.3604172" lon="-85.8075693">
        <ele>38.3</ele>
        <time>2022-10-06T17:28:12Z</time>
      </trkpt>
      <trkpt lat="10.3604172" lon="-85.8075693">
        <ele>38.4</ele>
        <time>2022-10-06T17:28:13Z</time>
      </trkpt>
      <trkpt lat="10.3604172" lon="-85.8075693">
        <ele>38.4</ele>
        <time>2022-10-06T17:28:14Z</time>
      </trkpt>
      <trkpt lat="10.3604172" lon="-85.8075693">
        <ele>38.3</ele>
        <time>2022-10-06T17:28:15Z</time>
      </trkpt>
      <trkpt lat="10.3604172" lon="-85.8075693">
        <ele>38.3</ele>
        <time>2022-10-06T17:28:16Z</time>
      </trkpt>
      <trkpt lat="10.3604172" lon="-85.8075693">
        <ele>38.3</ele>
        <time>2022-10-06T17:28:17Z</time>
      </trkpt>
      <trkpt lat="10.3604172" lon="-85.8075693">
        <ele>38.3</ele>
        <time>2022-10-06T17:28:18Z</time>
      </trkpt>
      <trkpt lat="10.3604172" lon="-85.8075693">
        <ele>38.3</ele>
        <time>2022-10-06T17:28:19Z</time>
      </trkpt>
      <trkpt lat="10.3604172" lon="-85.8075693">
        <ele>38.3</ele>
        <time>2022-10-06T17:28:20Z</time>
      </trkpt>
      <trkpt lat="10.3604172" lon="-85.8075693">
        <ele>38.3</ele>
        <time>2022-10-06T17:28:21Z</time>
      </trkpt>
      <trkpt lat="10.3604172" lon="-85.8075693">
        <ele>38.3</ele>
        <time>2022-10-06T17:28:22Z</time>
      </trkpt>
      <trkpt lat="10.3604172" lon="-85.8075693">
        <ele>38.3</ele>
        <time>2022-10-06T17:28:23Z</time>
      </trkpt>
      <trkpt lat="10.3604172" lon="-85.8075693">
        <ele>38.3</ele>
        <time>2022-10-06T17:28:24Z</time>
      </trkpt>
      <trkpt lat="10.3604172" lon="-85.8075693">
        <ele>38.4</ele>
        <time>2022-10-06T17:28:25Z</time>
      </trkpt>
      <trkpt lat="10.3604172" lon="-85.8075693">
        <ele>38.4</ele>
        <time>2022-10-06T17:28:26Z</time>
      </trkpt>
      <trkpt lat="10.3604172" lon="-85.8075693">
        <ele>38.4</ele>
        <time>2022-10-06T17:28:27Z</time>
      </trkpt>
      <trkpt lat="10.3604172" lon="-85.8075693">
        <ele>38.4</ele>
        <time>2022-10-06T17:28:28Z</time>
      </trkpt>
      <trkpt lat="10.3604172" lon="-85.8075693">
        <ele>38.4</ele>
        <time>2022-10-06T17:28:29Z</time>
      </trkpt>
      <trkpt lat="10.3604172" lon="-85.8075693">
        <ele>38.5</ele>
        <time>2022-10-06T17:28:30Z</time>
      </trkpt>
      <trkpt lat="10.3604172" lon="-85.8075693">
        <ele>38.5</ele>
        <time>2022-10-06T17:28:31Z</time>
      </trkpt>
      <trkpt lat="10.3604172" lon="-85.8075693">
        <ele>38.5</ele>
        <time>2022-10-06T17:28:32Z</time>
      </trkpt>
      <trkpt lat="10.3604172" lon="-85.8075693">
        <ele>38.5</ele>
        <time>2022-10-06T17:28:33Z</time>
      </trkpt>
      <trkpt lat="10.3604172" lon="-85.8075693">
        <ele>38.5</ele>
        <time>2022-10-06T17:28:34Z</time>
      </trkpt>
      <trkpt lat="10.3604172" lon="-85.8075693">
        <ele>38.5</ele>
        <time>2022-10-06T17:28:35Z</time>
      </trkpt>
      <trkpt lat="10.3604172" lon="-85.8075693">
        <ele>38.5</ele>
        <time>2022-10-06T17:28:36Z</time>
      </trkpt>
      <trkpt lat="10.3604172" lon="-85.8075693">
        <ele>38.5</ele>
        <time>2022-10-06T17:28:37Z</time>
      </trkpt>
      <trkpt lat="10.3604172" lon="-85.8075693">
        <ele>38.5</ele>
        <time>2022-10-06T17:28:38Z</time>
      </trkpt>
      <trkpt lat="10.3604172" lon="-85.8075693">
        <ele>38.5</ele>
        <time>2022-10-06T17:28:39Z</time>
      </trkpt>
      <trkpt lat="10.3604172" lon="-85.8075693">
        <ele>38.5</ele>
        <time>2022-10-06T17:28:40Z</time>
      </trkpt>
      <trkpt lat="10.3604172" lon="-85.8075693">
        <ele>38.5</ele>
        <time>2022-10-06T17:28:41Z</time>
      </trkpt>
      <trkpt lat="10.3604172" lon="-85.8075693">
        <ele>38.5</ele>
        <time>2022-10-06T17:28:42Z</time>
      </trkpt>
      <trkpt lat="10.3604172" lon="-85.8075693">
        <ele>38.5</ele>
        <time>2022-10-06T17:28:43Z</time>
      </trkpt>
      <trkpt lat="10.3604172" lon="-85.8075693">
        <ele>38.5</ele>
        <time>2022-10-06T17:28:44Z</time>
      </trkpt>
      <trkpt lat="10.3604172" lon="-85.8075693">
        <ele>38.5</ele>
        <time>2022-10-06T17:28:45Z</time>
      </trkpt>
      <trkpt lat="10.3604172" lon="-85.8075693">
        <ele>38.4</ele>
        <time>2022-10-06T17:28:46Z</time>
      </trkpt>
      <trkpt lat="10.3604172" lon="-85.8075693">
        <ele>38.4</ele>
        <time>2022-10-06T17:28:47Z</time>
      </trkpt>
      <trkpt lat="10.3604172" lon="-85.8075693">
        <ele>38.4</ele>
        <time>2022-10-06T17:28:48Z</time>
      </trkpt>
      <trkpt lat="10.3604172" lon="-85.8075693">
        <ele>38.4</ele>
        <time>2022-10-06T17:28:49Z</time>
      </trkpt>
      <trkpt lat="10.3604172" lon="-85.8075693">
        <ele>38.4</ele>
        <time>2022-10-06T17:28:50Z</time>
      </trkpt>
      <trkpt lat="10.3604172" lon="-85.8075693">
        <ele>38.4</ele>
        <time>2022-10-06T17:28:51Z</time>
      </trkpt>
      <trkpt lat="10.3604172" lon="-85.8075693">
        <ele>38.4</ele>
        <time>2022-10-06T17:28:52Z</time>
      </trkpt>
      <trkpt lat="10.3604172" lon="-85.8075693">
        <ele>38.4</ele>
        <time>2022-10-06T17:28:53Z</time>
      </trkpt>
      <trkpt lat="10.3604172" lon="-85.8075693">
        <ele>38.4</ele>
        <time>2022-10-06T17:28:54Z</time>
      </trkpt>
      <trkpt lat="10.3604172" lon="-85.8075693">
        <ele>38.4</ele>
        <time>2022-10-06T17:28:55Z</time>
      </trkpt>
      <trkpt lat="10.3604172" lon="-85.8075693">
        <ele>38.4</ele>
        <time>2022-10-06T17:28:56Z</time>
      </trkpt>
      <trkpt lat="10.3604172" lon="-85.8075693">
        <ele>38.4</ele>
        <time>2022-10-06T17:28:57Z</time>
      </trkpt>
      <trkpt lat="10.3604172" lon="-85.8075693">
        <ele>38.4</ele>
        <time>2022-10-06T17:28:58Z</time>
      </trkpt>
      <trkpt lat="10.3604172" lon="-85.8075693">
        <ele>38.4</ele>
        <time>2022-10-06T17:28:59Z</time>
      </trkpt>
      <trkpt lat="10.3604172" lon="-85.8075693">
        <ele>38.4</ele>
        <time>2022-10-06T17:29:00Z</time>
      </trkpt>
      <trkpt lat="10.3604172" lon="-85.8075693">
        <ele>38.4</ele>
        <time>2022-10-06T17:29:01Z</time>
      </trkpt>
      <trkpt lat="10.3604172" lon="-85.8075693">
        <ele>38.4</ele>
        <time>2022-10-06T17:29:02Z</time>
      </trkpt>
      <trkpt lat="10.3604172" lon="-85.8075693">
        <ele>38.4</ele>
        <time>2022-10-06T17:29:03Z</time>
      </trkpt>
      <trkpt lat="10.3604172" lon="-85.8075693">
        <ele>38.4</ele>
        <time>2022-10-06T17:29:04Z</time>
      </trkpt>
      <trkpt lat="10.3604172" lon="-85.8075693">
        <ele>38.3</ele>
        <time>2022-10-06T17:29:05Z</time>
      </trkpt>
      <trkpt lat="10.3604172" lon="-85.8075693">
        <ele>38.3</ele>
        <time>2022-10-06T17:29:06Z</time>
      </trkpt>
      <trkpt lat="10.3604172" lon="-85.8075693">
        <ele>38.3</ele>
        <time>2022-10-06T17:29:07Z</time>
      </trkpt>
      <trkpt lat="10.3604172" lon="-85.8075693">
        <ele>38.3</ele>
        <time>2022-10-06T17:29:08Z</time>
      </trkpt>
      <trkpt lat="10.3604172" lon="-85.8075693">
        <ele>38.3</ele>
        <time>2022-10-06T17:29:09Z</time>
      </trkpt>
      <trkpt lat="10.3604172" lon="-85.8075693">
        <ele>38.3</ele>
        <time>2022-10-06T17:29:10Z</time>
      </trkpt>
      <trkpt lat="10.3604172" lon="-85.8075693">
        <ele>38.3</ele>
        <time>2022-10-06T17:29:11Z</time>
      </trkpt>
      <trkpt lat="10.3604172" lon="-85.8075693">
        <ele>38.4</ele>
        <time>2022-10-06T17:29:12Z</time>
      </trkpt>
      <trkpt lat="10.3604172" lon="-85.8075693">
        <ele>38.4</ele>
        <time>2022-10-06T17:29:13Z</time>
      </trkpt>
      <trkpt lat="10.3604172" lon="-85.8075693">
        <ele>38.4</ele>
        <time>2022-10-06T17:29:14Z</time>
      </trkpt>
      <trkpt lat="10.3604172" lon="-85.8075693">
        <ele>38.4</ele>
        <time>2022-10-06T17:29:15Z</time>
      </trkpt>
      <trkpt lat="10.3604172" lon="-85.8075693">
        <ele>38.4</ele>
        <time>2022-10-06T17:29:16Z</time>
      </trkpt>
      <trkpt lat="10.3604172" lon="-85.8075693">
        <ele>38.5</ele>
        <time>2022-10-06T17:29:17Z</time>
      </trkpt>
      <trkpt lat="10.3604172" lon="-85.8075693">
        <ele>38.5</ele>
        <time>2022-10-06T17:29:18Z</time>
      </trkpt>
      <trkpt lat="10.3604172" lon="-85.8075693">
        <ele>38.5</ele>
        <time>2022-10-06T17:29:19Z</time>
      </trkpt>
      <trkpt lat="10.3604172" lon="-85.8075693">
        <ele>38.4</ele>
        <time>2022-10-06T17:29:20Z</time>
      </trkpt>
      <trkpt lat="10.3604172" lon="-85.8075693">
        <ele>38.5</ele>
        <time>2022-10-06T17:29:21Z</time>
      </trkpt>
      <trkpt lat="10.3604172" lon="-85.8075693">
        <ele>38.5</ele>
        <time>2022-10-06T17:29:22Z</time>
      </trkpt>
      <trkpt lat="10.3604172" lon="-85.8075693">
        <ele>38.5</ele>
        <time>2022-10-06T17:29:23Z</time>
      </trkpt>
      <trkpt lat="10.3604172" lon="-85.8075693">
        <ele>38.5</ele>
        <time>2022-10-06T17:29:24Z</time>
      </trkpt>
      <trkpt lat="10.3604172" lon="-85.8075693">
        <ele>38.6</ele>
        <time>2022-10-06T17:29:25Z</time>
      </trkpt>
      <trkpt lat="10.3604172" lon="-85.8075693">
        <ele>38.5</ele>
        <time>2022-10-06T17:29:26Z</time>
      </trkpt>
      <trkpt lat="10.3604172" lon="-85.8075693">
        <ele>38.6</ele>
        <time>2022-10-06T17:29:27Z</time>
      </trkpt>
      <trkpt lat="10.3604172" lon="-85.8075693">
        <ele>38.6</ele>
        <time>2022-10-06T17:29:28Z</time>
      </trkpt>
      <trkpt lat="10.3604172" lon="-85.8075693">
        <ele>38.5</ele>
        <time>2022-10-06T17:29:29Z</time>
      </trkpt>
      <trkpt lat="10.3604172" lon="-85.8075693">
        <ele>38.5</ele>
        <time>2022-10-06T17:29:30Z</time>
      </trkpt>
      <trkpt lat="10.3604172" lon="-85.8075693">
        <ele>38.5</ele>
        <time>2022-10-06T17:29:31Z</time>
      </trkpt>
      <trkpt lat="10.3604172" lon="-85.8075693">
        <ele>38.5</ele>
        <time>2022-10-06T17:29:32Z</time>
      </trkpt>
      <trkpt lat="10.3604172" lon="-85.8075693">
        <ele>38.6</ele>
        <time>2022-10-06T17:29:33Z</time>
      </trkpt>
      <trkpt lat="10.3604172" lon="-85.8075693">
        <ele>38.6</ele>
        <time>2022-10-06T17:29:34Z</time>
      </trkpt>
      <trkpt lat="10.3604172" lon="-85.8075693">
        <ele>38.6</ele>
        <time>2022-10-06T17:29:35Z</time>
      </trkpt>
      <trkpt lat="10.3604172" lon="-85.8075693">
        <ele>38.5</ele>
        <time>2022-10-06T17:29:36Z</time>
      </trkpt>
      <trkpt lat="10.3604172" lon="-85.8075693">
        <ele>38.5</ele>
        <time>2022-10-06T17:29:37Z</time>
      </trkpt>
      <trkpt lat="10.3604172" lon="-85.8075693">
        <ele>38.5</ele>
        <time>2022-10-06T17:29:38Z</time>
      </trkpt>
      <trkpt lat="10.3604172" lon="-85.8075693">
        <ele>38.6</ele>
        <time>2022-10-06T17:29:39Z</time>
      </trkpt>
      <trkpt lat="10.3604172" lon="-85.8075693">
        <ele>38.6</ele>
        <time>2022-10-06T17:29:40Z</time>
      </trkpt>
      <trkpt lat="10.3604172" lon="-85.8075693">
        <ele>38.6</ele>
        <time>2022-10-06T17:29:41Z</time>
      </trkpt>
      <trkpt lat="10.3604172" lon="-85.8075693">
        <ele>38.6</ele>
        <time>2022-10-06T17:29:42Z</time>
      </trkpt>
      <trkpt lat="10.3604172" lon="-85.8075693">
        <ele>38.5</ele>
        <time>2022-10-06T17:29:43Z</time>
      </trkpt>
      <trkpt lat="10.3604172" lon="-85.8075693">
        <ele>38.5</ele>
        <time>2022-10-06T17:29:44Z</time>
      </trkpt>
      <trkpt lat="10.3604172" lon="-85.8075693">
        <ele>38.4</ele>
        <time>2022-10-06T17:29:45Z</time>
      </trkpt>
      <trkpt lat="10.3604172" lon="-85.8075693">
        <ele>38.4</ele>
        <time>2022-10-06T17:29:46Z</time>
      </trkpt>
      <trkpt lat="10.3604172" lon="-85.8075693">
        <ele>38.4</ele>
        <time>2022-10-06T17:29:47Z</time>
      </trkpt>
      <trkpt lat="10.3604172" lon="-85.8075693">
        <ele>38.4</ele>
        <time>2022-10-06T17:29:48Z</time>
      </trkpt>
      <trkpt lat="10.3604172" lon="-85.8075693">
        <ele>38.4</ele>
        <time>2022-10-06T17:29:49Z</time>
      </trkpt>
      <trkpt lat="10.3604172" lon="-85.8075693">
        <ele>38.4</ele>
        <time>2022-10-06T17:29:50Z</time>
      </trkpt>
      <trkpt lat="10.3604172" lon="-85.8075693">
        <ele>38.5</ele>
        <time>2022-10-06T17:29:51Z</time>
      </trkpt>
      <trkpt lat="10.3604172" lon="-85.8075693">
        <ele>38.5</ele>
        <time>2022-10-06T17:29:52Z</time>
      </trkpt>
      <trkpt lat="10.3604172" lon="-85.8075693">
        <ele>38.5</ele>
        <time>2022-10-06T17:29:53Z</time>
      </trkpt>
      <trkpt lat="10.3604172" lon="-85.8075693">
        <ele>38.5</ele>
        <time>2022-10-06T17:29:54Z</time>
      </trkpt>
      <trkpt lat="10.3604172" lon="-85.8075693">
        <ele>38.5</ele>
        <time>2022-10-06T17:29:55Z</time>
      </trkpt>
      <trkpt lat="10.3604172" lon="-85.8075693">
        <ele>38.5</ele>
        <time>2022-10-06T17:29:56Z</time>
      </trkpt>
      <trkpt lat="10.3604172" lon="-85.8075693">
        <ele>38.6</ele>
        <time>2022-10-06T17:29:57Z</time>
      </trkpt>
      <trkpt lat="10.3604172" lon="-85.8075693">
        <ele>38.3</ele>
        <time>2022-10-06T17:29:58Z</time>
      </trkpt>
      <trkpt lat="10.3604172" lon="-85.8075693">
        <ele>38.2</ele>
        <time>2022-10-06T17:29:59Z</time>
      </trkpt>
      <trkpt lat="10.3604172" lon="-85.8075693">
        <ele>38.2</ele>
        <time>2022-10-06T17:30:00Z</time>
      </trkpt>
      <trkpt lat="10.3604172" lon="-85.8075693">
        <ele>38.3</ele>
        <time>2022-10-06T17:30:01Z</time>
      </trkpt>
      <trkpt lat="10.3604172" lon="-85.8075693">
        <ele>38.3</ele>
        <time>2022-10-06T17:30:02Z</time>
      </trkpt>
      <trkpt lat="10.3604172" lon="-85.8075693">
        <ele>38.3</ele>
        <time>2022-10-06T17:30:03Z</time>
      </trkpt>
      <trkpt lat="10.3604172" lon="-85.8075693">
        <ele>38.3</ele>
        <time>2022-10-06T17:30:04Z</time>
      </trkpt>
      <trkpt lat="10.3604172" lon="-85.8075693">
        <ele>38.3</ele>
        <time>2022-10-06T17:30:05Z</time>
      </trkpt>
      <trkpt lat="10.3604172" lon="-85.8075693">
        <ele>38.3</ele>
        <time>2022-10-06T17:30:06Z</time>
      </trkpt>
      <trkpt lat="10.3604172" lon="-85.8075693">
        <ele>38.3</ele>
        <time>2022-10-06T17:30:07Z</time>
      </trkpt>
      <trkpt lat="10.3604172" lon="-85.8075693">
        <ele>38.3</ele>
        <time>2022-10-06T17:30:08Z</time>
      </trkpt>
      <trkpt lat="10.3604172" lon="-85.8075693">
        <ele>38.3</ele>
        <time>2022-10-06T17:30:09Z</time>
      </trkpt>
      <trkpt lat="10.3604172" lon="-85.8075693">
        <ele>38.3</ele>
        <time>2022-10-06T17:30:10Z</time>
      </trkpt>
      <trkpt lat="10.3604172" lon="-85.8075693">
        <ele>38.3</ele>
        <time>2022-10-06T17:30:11Z</time>
      </trkpt>
      <trkpt lat="10.3604172" lon="-85.8075693">
        <ele>38.4</ele>
        <time>2022-10-06T17:30:12Z</time>
      </trkpt>
      <trkpt lat="10.3604172" lon="-85.8075693">
        <ele>38.4</ele>
        <time>2022-10-06T17:30:13Z</time>
      </trkpt>
      <trkpt lat="10.3604172" lon="-85.8075693">
        <ele>38.5</ele>
        <time>2022-10-06T17:30:14Z</time>
      </trkpt>
      <trkpt lat="10.3604172" lon="-85.8075693">
        <ele>38.5</ele>
        <time>2022-10-06T17:30:15Z</time>
      </trkpt>
      <trkpt lat="10.3604172" lon="-85.8075693">
        <ele>38.5</ele>
        <time>2022-10-06T17:30:16Z</time>
      </trkpt>
      <trkpt lat="10.3604172" lon="-85.8075693">
        <ele>38.5</ele>
        <time>2022-10-06T17:30:17Z</time>
      </trkpt>
      <trkpt lat="10.3604172" lon="-85.8075693">
        <ele>38.5</ele>
        <time>2022-10-06T17:30:18Z</time>
      </trkpt>
      <trkpt lat="10.3604172" lon="-85.8075693">
        <ele>38.5</ele>
        <time>2022-10-06T17:30:19Z</time>
      </trkpt>
      <trkpt lat="10.3604172" lon="-85.8075693">
        <ele>38.5</ele>
        <time>2022-10-06T17:30:20Z</time>
      </trkpt>
      <trkpt lat="10.3604172" lon="-85.8075693">
        <ele>38.5</ele>
        <time>2022-10-06T17:30:21Z</time>
      </trkpt>
      <trkpt lat="10.3604172" lon="-85.8075693">
        <ele>38.6</ele>
        <time>2022-10-06T17:30:22Z</time>
      </trkpt>
      <trkpt lat="10.3604172" lon="-85.8075693">
        <ele>38.6</ele>
        <time>2022-10-06T17:30:23Z</time>
      </trkpt>
      <trkpt lat="10.3604172" lon="-85.8075693">
        <ele>38.6</ele>
        <time>2022-10-06T17:30:24Z</time>
      </trkpt>
      <trkpt lat="10.3604172" lon="-85.8075693">
        <ele>38.6</ele>
        <time>2022-10-06T17:30:25Z</time>
      </trkpt>
      <trkpt lat="10.3604172" lon="-85.8075693">
        <ele>38.6</ele>
        <time>2022-10-06T17:30:26Z</time>
      </trkpt>
      <trkpt lat="10.3604172" lon="-85.8075693">
        <ele>38.6</ele>
        <time>2022-10-06T17:30:27Z</time>
      </trkpt>
      <trkpt lat="10.3604172" lon="-85.8075693">
        <ele>38.6</ele>
        <time>2022-10-06T17:30:28Z</time>
      </trkpt>
      <trkpt lat="10.3604172" lon="-85.8075693">
        <ele>38.6</ele>
        <time>2022-10-06T17:30:29Z</time>
      </trkpt>
      <trkpt lat="10.3604172" lon="-85.8075693">
        <ele>38.6</ele>
        <time>2022-10-06T17:30:30Z</time>
      </trkpt>
      <trkpt lat="10.3604172" lon="-85.8075693">
        <ele>38.6</ele>
        <time>2022-10-06T17:30:31Z</time>
      </trkpt>
      <trkpt lat="10.3604172" lon="-85.8075693">
        <ele>38.5</ele>
        <time>2022-10-06T17:30:32Z</time>
      </trkpt>
      <trkpt lat="10.3604172" lon="-85.8075693">
        <ele>38.5</ele>
        <time>2022-10-06T17:30:33Z</time>
      </trkpt>
      <trkpt lat="10.3604172" lon="-85.8075693">
        <ele>38.5</ele>
        <time>2022-10-06T17:30:34Z</time>
      </trkpt>
      <trkpt lat="10.3604172" lon="-85.8075693">
        <ele>38.5</ele>
        <time>2022-10-06T17:30:35Z</time>
      </trkpt>
      <trkpt lat="10.3604172" lon="-85.8075693">
        <ele>38.4</ele>
        <time>2022-10-06T17:30:36Z</time>
      </trkpt>
      <trkpt lat="10.3604172" lon="-85.8075693">
        <ele>38.5</ele>
        <time>2022-10-06T17:30:37Z</time>
      </trkpt>
      <trkpt lat="10.3604172" lon="-85.8075693">
        <ele>38.5</ele>
        <time>2022-10-06T17:30:38Z</time>
      </trkpt>
      <trkpt lat="10.3604172" lon="-85.8075693">
        <ele>38.4</ele>
        <time>2022-10-06T17:30:39Z</time>
      </trkpt>
      <trkpt lat="10.3604172" lon="-85.8075693">
        <ele>38.4</ele>
        <time>2022-10-06T17:30:40Z</time>
      </trkpt>
      <trkpt lat="10.3604172" lon="-85.8075693">
        <ele>38.5</ele>
        <time>2022-10-06T17:30:41Z</time>
      </trkpt>
      <trkpt lat="10.3604172" lon="-85.8075693">
        <ele>38.4</ele>
        <time>2022-10-06T17:30:42Z</time>
      </trkpt>
      <trkpt lat="10.3604172" lon="-85.8075693">
        <ele>38.4</ele>
        <time>2022-10-06T17:30:43Z</time>
      </trkpt>
      <trkpt lat="10.3604172" lon="-85.8075693">
        <ele>38.5</ele>
        <time>2022-10-06T17:30:44Z</time>
      </trkpt>
      <trkpt lat="10.3604172" lon="-85.8075693">
        <ele>38.5</ele>
        <time>2022-10-06T17:30:45Z</time>
      </trkpt>
      <trkpt lat="10.3604172" lon="-85.8075693">
        <ele>38.4</ele>
        <time>2022-10-06T17:30:46Z</time>
      </trkpt>
      <trkpt lat="10.3604172" lon="-85.8075693">
        <ele>38.4</ele>
        <time>2022-10-06T17:30:47Z</time>
      </trkpt>
      <trkpt lat="10.3604172" lon="-85.8075693">
        <ele>38.4</ele>
        <time>2022-10-06T17:30:48Z</time>
      </trkpt>
      <trkpt lat="10.3604172" lon="-85.8075693">
        <ele>38.4</ele>
        <time>2022-10-06T17:30:49Z</time>
      </trkpt>
      <trkpt lat="10.3604172" lon="-85.8075693">
        <ele>38.4</ele>
        <time>2022-10-06T17:30:50Z</time>
      </trkpt>
      <trkpt lat="10.3604172" lon="-85.8075693">
        <ele>38.4</ele>
        <time>2022-10-06T17:30:51Z</time>
      </trkpt>
      <trkpt lat="10.3604172" lon="-85.8075693">
        <ele>38.3</ele>
        <time>2022-10-06T17:30:52Z</time>
      </trkpt>
      <trkpt lat="10.3604172" lon="-85.8075693">
        <ele>38.3</ele>
        <time>2022-10-06T17:30:53Z</time>
      </trkpt>
      <trkpt lat="10.3604172" lon="-85.8075693">
        <ele>38.4</ele>
        <time>2022-10-06T17:30:54Z</time>
      </trkpt>
      <trkpt lat="10.3604172" lon="-85.8075693">
        <ele>38.3</ele>
        <time>2022-10-06T17:30:55Z</time>
      </trkpt>
      <trkpt lat="10.3604172" lon="-85.8075693">
        <ele>38.3</ele>
        <time>2022-10-06T17:30:56Z</time>
      </trkpt>
      <trkpt lat="10.3604172" lon="-85.8075693">
        <ele>38.3</ele>
        <time>2022-10-06T17:30:57Z</time>
      </trkpt>
      <trkpt lat="10.3604172" lon="-85.8075693">
        <ele>38.3</ele>
        <time>2022-10-06T17:30:58Z</time>
      </trkpt>
      <trkpt lat="10.3604172" lon="-85.8075693">
        <ele>38.3</ele>
        <time>2022-10-06T17:30:59Z</time>
      </trkpt>
      <trkpt lat="10.3604172" lon="-85.8075693">
        <ele>38.4</ele>
        <time>2022-10-06T17:31:00Z</time>
      </trkpt>
      <trkpt lat="10.3604172" lon="-85.8075693">
        <ele>38.4</ele>
        <time>2022-10-06T17:31:01Z</time>
      </trkpt>
      <trkpt lat="10.3604172" lon="-85.8075693">
        <ele>38.4</ele>
        <time>2022-10-06T17:31:02Z</time>
      </trkpt>
      <trkpt lat="10.3604172" lon="-85.8075693">
        <ele>38.4</ele>
        <time>2022-10-06T17:31:03Z</time>
      </trkpt>
      <trkpt lat="10.3604172" lon="-85.8075693">
        <ele>38.4</ele>
        <time>2022-10-06T17:31:04Z</time>
      </trkpt>
      <trkpt lat="10.3604172" lon="-85.8075693">
        <ele>38.4</ele>
        <time>2022-10-06T17:31:05Z</time>
      </trkpt>
      <trkpt lat="10.3604172" lon="-85.8075693">
        <ele>38.4</ele>
        <time>2022-10-06T17:31:06Z</time>
      </trkpt>
      <trkpt lat="10.3604172" lon="-85.8075693">
        <ele>38.4</ele>
        <time>2022-10-06T17:31:07Z</time>
      </trkpt>
      <trkpt lat="10.3604172" lon="-85.8075693">
        <ele>38.4</ele>
        <time>2022-10-06T17:31:08Z</time>
      </trkpt>
      <trkpt lat="10.3604172" lon="-85.8075693">
        <ele>38.4</ele>
        <time>2022-10-06T17:31:09Z</time>
      </trkpt>
      <trkpt lat="10.3604172" lon="-85.8075693">
        <ele>38.4</ele>
        <time>2022-10-06T17:31:10Z</time>
      </trkpt>
      <trkpt lat="10.3604172" lon="-85.8075693">
        <ele>38.4</ele>
        <time>2022-10-06T17:31:11Z</time>
      </trkpt>
      <trkpt lat="10.3604172" lon="-85.8075693">
        <ele>38.4</ele>
        <time>2022-10-06T17:31:12Z</time>
      </trkpt>
      <trkpt lat="10.3604172" lon="-85.8075693">
        <ele>38.5</ele>
        <time>2022-10-06T17:31:13Z</time>
      </trkpt>
      <trkpt lat="10.3604172" lon="-85.8075693">
        <ele>38.5</ele>
        <time>2022-10-06T17:31:14Z</time>
      </trkpt>
      <trkpt lat="10.3604172" lon="-85.8075693">
        <ele>38.5</ele>
        <time>2022-10-06T17:31:15Z</time>
      </trkpt>
      <trkpt lat="10.3604172" lon="-85.8075693">
        <ele>38.6</ele>
        <time>2022-10-06T17:31:16Z</time>
      </trkpt>
      <trkpt lat="10.3604172" lon="-85.8075693">
        <ele>38.6</ele>
        <time>2022-10-06T17:31:17Z</time>
      </trkpt>
      <trkpt lat="10.3604172" lon="-85.8075693">
        <ele>38.7</ele>
        <time>2022-10-06T17:31:18Z</time>
      </trkpt>
      <trkpt lat="10.3604172" lon="-85.8075693">
        <ele>38.7</ele>
        <time>2022-10-06T17:31:19Z</time>
      </trkpt>
      <trkpt lat="10.3604172" lon="-85.8075693">
        <ele>38.7</ele>
        <time>2022-10-06T17:31:20Z</time>
      </trkpt>
      <trkpt lat="10.3604172" lon="-85.8075693">
        <ele>38.7</ele>
        <time>2022-10-06T17:31:21Z</time>
      </trkpt>
      <trkpt lat="10.3604172" lon="-85.8075693">
        <ele>38.7</ele>
        <time>2022-10-06T17:31:22Z</time>
      </trkpt>
      <trkpt lat="10.3604172" lon="-85.8075693">
        <ele>38.8</ele>
        <time>2022-10-06T17:31:23Z</time>
      </trkpt>
      <trkpt lat="10.3604172" lon="-85.8075693">
        <ele>38.8</ele>
        <time>2022-10-06T17:31:24Z</time>
      </trkpt>
      <trkpt lat="10.3604172" lon="-85.8075693">
        <ele>38.8</ele>
        <time>2022-10-06T17:31:25Z</time>
      </trkpt>
      <trkpt lat="10.3604172" lon="-85.8075693">
        <ele>38.8</ele>
        <time>2022-10-06T17:31:26Z</time>
      </trkpt>
      <trkpt lat="10.3604172" lon="-85.8075693">
        <ele>38.8</ele>
        <time>2022-10-06T17:31:27Z</time>
      </trkpt>
      <trkpt lat="10.3604172" lon="-85.8075693">
        <ele>38.8</ele>
        <time>2022-10-06T17:31:28Z</time>
      </trkpt>
      <trkpt lat="10.3604172" lon="-85.8075693">
        <ele>38.8</ele>
        <time>2022-10-06T17:31:29Z</time>
      </trkpt>
      <trkpt lat="10.3604172" lon="-85.8075693">
        <ele>38.8</ele>
        <time>2022-10-06T17:31:30Z</time>
      </trkpt>
      <trkpt lat="10.3604172" lon="-85.8075693">
        <ele>38.8</ele>
        <time>2022-10-06T17:31:31Z</time>
      </trkpt>
      <trkpt lat="10.3604172" lon="-85.8075693">
        <ele>38.8</ele>
        <time>2022-10-06T17:31:32Z</time>
      </trkpt>
      <trkpt lat="10.3604172" lon="-85.8075693">
        <ele>38.8</ele>
        <time>2022-10-06T17:31:33Z</time>
      </trkpt>
      <trkpt lat="10.3604172" lon="-85.8075693">
        <ele>38.8</ele>
        <time>2022-10-06T17:31:34Z</time>
      </trkpt>
      <trkpt lat="10.3604172" lon="-85.8075693">
        <ele>38.8</ele>
        <time>2022-10-06T17:31:35Z</time>
      </trkpt>
      <trkpt lat="10.3604172" lon="-85.8075693">
        <ele>38.8</ele>
        <time>2022-10-06T17:31:36Z</time>
      </trkpt>
      <trkpt lat="10.3604172" lon="-85.8075693">
        <ele>38.7</ele>
        <time>2022-10-06T17:31:37Z</time>
      </trkpt>
      <trkpt lat="10.3604172" lon="-85.8075693">
        <ele>38.7</ele>
        <time>2022-10-06T17:31:38Z</time>
      </trkpt>
      <trkpt lat="10.3604172" lon="-85.8075693">
        <ele>38.8</ele>
        <time>2022-10-06T17:31:39Z</time>
      </trkpt>
      <trkpt lat="10.3604172" lon="-85.8075693">
        <ele>38.8</ele>
        <time>2022-10-06T17:31:40Z</time>
      </trkpt>
      <trkpt lat="10.3604172" lon="-85.8075693">
        <ele>38.8</ele>
        <time>2022-10-06T17:31:41Z</time>
      </trkpt>
      <trkpt lat="10.3604172" lon="-85.8075693">
        <ele>38.7</ele>
        <time>2022-10-06T17:31:42Z</time>
      </trkpt>
      <trkpt lat="10.3604172" lon="-85.8075693">
        <ele>38.7</ele>
        <time>2022-10-06T17:31:43Z</time>
      </trkpt>
      <trkpt lat="10.3604172" lon="-85.8075693">
        <ele>38.7</ele>
        <time>2022-10-06T17:31:44Z</time>
      </trkpt>
      <trkpt lat="10.3604172" lon="-85.8075693">
        <ele>38.8</ele>
        <time>2022-10-06T17:31:45Z</time>
      </trkpt>
      <trkpt lat="10.3604172" lon="-85.8075693">
        <ele>38.8</ele>
        <time>2022-10-06T17:31:46Z</time>
      </trkpt>
      <trkpt lat="10.3604172" lon="-85.8075693">
        <ele>38.8</ele>
        <time>2022-10-06T17:31:47Z</time>
      </trkpt>
      <trkpt lat="10.3604172" lon="-85.8075693">
        <ele>38.8</ele>
        <time>2022-10-06T17:31:48Z</time>
      </trkpt>
      <trkpt lat="10.3604172" lon="-85.8075693">
        <ele>38.8</ele>
        <time>2022-10-06T17:31:49Z</time>
      </trkpt>
      <trkpt lat="10.3604172" lon="-85.8075693">
        <ele>38.8</ele>
        <time>2022-10-06T17:31:50Z</time>
      </trkpt>
      <trkpt lat="10.3604172" lon="-85.8075693">
        <ele>38.8</ele>
        <time>2022-10-06T17:31:51Z</time>
      </trkpt>
      <trkpt lat="10.3604172" lon="-85.8075693">
        <ele>38.8</ele>
        <time>2022-10-06T17:31:52Z</time>
      </trkpt>
      <trkpt lat="10.3604172" lon="-85.8075693">
        <ele>38.9</ele>
        <time>2022-10-06T17:31:53Z</time>
      </trkpt>
      <trkpt lat="10.3604172" lon="-85.8075693">
        <ele>38.9</ele>
        <time>2022-10-06T17:31:54Z</time>
      </trkpt>
      <trkpt lat="10.3604172" lon="-85.8075693">
        <ele>38.9</ele>
        <time>2022-10-06T17:31:55Z</time>
      </trkpt>
      <trkpt lat="10.3604172" lon="-85.8075693">
        <ele>38.9</ele>
        <time>2022-10-06T17:31:56Z</time>
      </trkpt>
      <trkpt lat="10.3604172" lon="-85.8075693">
        <ele>38.9</ele>
        <time>2022-10-06T17:31:57Z</time>
      </trkpt>
      <trkpt lat="10.3604172" lon="-85.8075693">
        <ele>38.9</ele>
        <time>2022-10-06T17:31:58Z</time>
      </trkpt>
      <trkpt lat="10.3604172" lon="-85.8075693">
        <ele>38.8</ele>
        <time>2022-10-06T17:31:59Z</time>
      </trkpt>
      <trkpt lat="10.3604172" lon="-85.8075693">
        <ele>38.8</ele>
        <time>2022-10-06T17:32:00Z</time>
      </trkpt>
      <trkpt lat="10.3604172" lon="-85.8075693">
        <ele>38.8</ele>
        <time>2022-10-06T17:32:01Z</time>
      </trkpt>
      <trkpt lat="10.3604172" lon="-85.8075693">
        <ele>38.8</ele>
        <time>2022-10-06T17:32:02Z</time>
      </trkpt>
      <trkpt lat="10.3604172" lon="-85.8075693">
        <ele>38.8</ele>
        <time>2022-10-06T17:32:03Z</time>
      </trkpt>
      <trkpt lat="10.3604172" lon="-85.8075693">
        <ele>38.8</ele>
        <time>2022-10-06T17:32:04Z</time>
      </trkpt>
      <trkpt lat="10.3604172" lon="-85.8075693">
        <ele>38.8</ele>
        <time>2022-10-06T17:32:05Z</time>
      </trkpt>
      <trkpt lat="10.3604172" lon="-85.8075693">
        <ele>38.8</ele>
        <time>2022-10-06T17:32:06Z</time>
      </trkpt>
      <trkpt lat="10.3604172" lon="-85.8075693">
        <ele>38.8</ele>
        <time>2022-10-06T17:32:07Z</time>
      </trkpt>
      <trkpt lat="10.3604172" lon="-85.8075693">
        <ele>38.8</ele>
        <time>2022-10-06T17:32:08Z</time>
      </trkpt>
      <trkpt lat="10.3604172" lon="-85.8075693">
        <ele>38.8</ele>
        <time>2022-10-06T17:32:09Z</time>
      </trkpt>
      <trkpt lat="10.3604172" lon="-85.8075693">
        <ele>38.8</ele>
        <time>2022-10-06T17:32:10Z</time>
      </trkpt>
      <trkpt lat="10.3604172" lon="-85.8075693">
        <ele>38.8</ele>
        <time>2022-10-06T17:32:11Z</time>
      </trkpt>
      <trkpt lat="10.3604172" lon="-85.8075693">
        <ele>38.8</ele>
        <time>2022-10-06T17:32:12Z</time>
      </trkpt>
      <trkpt lat="10.3604172" lon="-85.8075693">
        <ele>38.9</ele>
        <time>2022-10-06T17:32:13Z</time>
      </trkpt>
      <trkpt lat="10.3604172" lon="-85.8075693">
        <ele>38.9</ele>
        <time>2022-10-06T17:32:14Z</time>
      </trkpt>
      <trkpt lat="10.3604172" lon="-85.8075693">
        <ele>39.0</ele>
        <time>2022-10-06T17:32:15Z</time>
      </trkpt>
      <trkpt lat="10.3604172" lon="-85.8075693">
        <ele>39.0</ele>
        <time>2022-10-06T17:32:16Z</time>
      </trkpt>
      <trkpt lat="10.3604172" lon="-85.8075693">
        <ele>39.0</ele>
        <time>2022-10-06T17:32:17Z</time>
      </trkpt>
      <trkpt lat="10.3604172" lon="-85.8075693">
        <ele>39.0</ele>
        <time>2022-10-06T17:32:18Z</time>
      </trkpt>
      <trkpt lat="10.3604172" lon="-85.8075693">
        <ele>39.0</ele>
        <time>2022-10-06T17:32:19Z</time>
      </trkpt>
      <trkpt lat="10.3604172" lon="-85.8075693">
        <ele>39.0</ele>
        <time>2022-10-06T17:32:20Z</time>
      </trkpt>
      <trkpt lat="10.3604172" lon="-85.8075693">
        <ele>39.0</ele>
        <time>2022-10-06T17:32:21Z</time>
      </trkpt>
      <trkpt lat="10.3604172" lon="-85.8075693">
        <ele>39.0</ele>
        <time>2022-10-06T17:32:22Z</time>
      </trkpt>
      <trkpt lat="10.3604172" lon="-85.8075693">
        <ele>39.0</ele>
        <time>2022-10-06T17:32:23Z</time>
      </trkpt>
      <trkpt lat="10.3604172" lon="-85.8075693">
        <ele>38.9</ele>
        <time>2022-10-06T17:32:24Z</time>
      </trkpt>
      <trkpt lat="10.3604172" lon="-85.8075693">
        <ele>39.0</ele>
        <time>2022-10-06T17:32:25Z</time>
      </trkpt>
      <trkpt lat="10.3604172" lon="-85.8075693">
        <ele>39.0</ele>
        <time>2022-10-06T17:32:26Z</time>
      </trkpt>
      <trkpt lat="10.3604172" lon="-85.8075693">
        <ele>39.0</ele>
        <time>2022-10-06T17:32:27Z</time>
      </trkpt>
      <trkpt lat="10.3604172" lon="-85.8075693">
        <ele>39.0</ele>
        <time>2022-10-06T17:32:28Z</time>
      </trkpt>
      <trkpt lat="10.3604172" lon="-85.8075693">
        <ele>39.0</ele>
        <time>2022-10-06T17:32:29Z</time>
      </trkpt>
      <trkpt lat="10.3604172" lon="-85.8075693">
        <ele>39.0</ele>
        <time>2022-10-06T17:32:30Z</time>
      </trkpt>
      <trkpt lat="10.3604172" lon="-85.8075693">
        <ele>39.0</ele>
        <time>2022-10-06T17:32:31Z</time>
      </trkpt>
      <trkpt lat="10.3604172" lon="-85.8075693">
        <ele>39.0</ele>
        <time>2022-10-06T17:32:32Z</time>
      </trkpt>
      <trkpt lat="10.3604172" lon="-85.8075693">
        <ele>39.1</ele>
        <time>2022-10-06T17:32:33Z</time>
      </trkpt>
      <trkpt lat="10.3604172" lon="-85.8075693">
        <ele>39.1</ele>
        <time>2022-10-06T17:32:34Z</time>
      </trkpt>
      <trkpt lat="10.3604172" lon="-85.8075693">
        <ele>39.1</ele>
        <time>2022-10-06T17:32:35Z</time>
      </trkpt>
      <trkpt lat="10.3604172" lon="-85.8075693">
        <ele>39.1</ele>
        <time>2022-10-06T17:32:36Z</time>
      </trkpt>
      <trkpt lat="10.3604172" lon="-85.8075693">
        <ele>39.1</ele>
        <time>2022-10-06T17:32:37Z</time>
      </trkpt>
      <trkpt lat="10.3604172" lon="-85.8075693">
        <ele>39.1</ele>
        <time>2022-10-06T17:32:38Z</time>
      </trkpt>
      <trkpt lat="10.3604172" lon="-85.8075693">
        <ele>39.2</ele>
        <time>2022-10-06T17:32:39Z</time>
      </trkpt>
      <trkpt lat="10.3604172" lon="-85.8075693">
        <ele>39.2</ele>
        <time>2022-10-06T17:32:40Z</time>
      </trkpt>
      <trkpt lat="10.3604172" lon="-85.8075693">
        <ele>39.2</ele>
        <time>2022-10-06T17:32:41Z</time>
      </trkpt>
      <trkpt lat="10.3604172" lon="-85.8075693">
        <ele>39.3</ele>
        <time>2022-10-06T17:32:42Z</time>
      </trkpt>
      <trkpt lat="10.3604172" lon="-85.8075693">
        <ele>39.3</ele>
        <time>2022-10-06T17:32:43Z</time>
      </trkpt>
      <trkpt lat="10.3604172" lon="-85.8075693">
        <ele>39.3</ele>
        <time>2022-10-06T17:32:44Z</time>
      </trkpt>
      <trkpt lat="10.3604172" lon="-85.8075693">
        <ele>39.3</ele>
        <time>2022-10-06T17:32:45Z</time>
      </trkpt>
      <trkpt lat="10.3604172" lon="-85.8075693">
        <ele>39.3</ele>
        <time>2022-10-06T17:32:46Z</time>
      </trkpt>
      <trkpt lat="10.3604172" lon="-85.8075693">
        <ele>39.3</ele>
        <time>2022-10-06T17:32:47Z</time>
      </trkpt>
      <trkpt lat="10.3604172" lon="-85.8075693">
        <ele>39.2</ele>
        <time>2022-10-06T17:32:48Z</time>
      </trkpt>
      <trkpt lat="10.3604172" lon="-85.8075693">
        <ele>39.2</ele>
        <time>2022-10-06T17:32:49Z</time>
      </trkpt>
      <trkpt lat="10.3604172" lon="-85.8075693">
        <ele>39.2</ele>
        <time>2022-10-06T17:32:50Z</time>
      </trkpt>
      <trkpt lat="10.3604172" lon="-85.8075693">
        <ele>39.2</ele>
        <time>2022-10-06T17:32:51Z</time>
      </trkpt>
      <trkpt lat="10.3604172" lon="-85.8075693">
        <ele>39.2</ele>
        <time>2022-10-06T17:32:52Z</time>
      </trkpt>
      <trkpt lat="10.3604172" lon="-85.8075693">
        <ele>39.2</ele>
        <time>2022-10-06T17:32:53Z</time>
      </trkpt>
      <trkpt lat="10.3604172" lon="-85.8075693">
        <ele>39.1</ele>
        <time>2022-10-06T17:32:54Z</time>
      </trkpt>
      <trkpt lat="10.3604172" lon="-85.8075693">
        <ele>39.1</ele>
        <time>2022-10-06T17:32:55Z</time>
      </trkpt>
      <trkpt lat="10.3604172" lon="-85.8075693">
        <ele>39.1</ele>
        <time>2022-10-06T17:32:56Z</time>
      </trkpt>
      <trkpt lat="10.3604172" lon="-85.8075693">
        <ele>39.2</ele>
        <time>2022-10-06T17:32:57Z</time>
      </trkpt>
      <trkpt lat="10.3604172" lon="-85.8075693">
        <ele>39.2</ele>
        <time>2022-10-06T17:32:58Z</time>
      </trkpt>
      <trkpt lat="10.3604172" lon="-85.8075693">
        <ele>39.2</ele>
        <time>2022-10-06T17:32:59Z</time>
      </trkpt>
      <trkpt lat="10.3604172" lon="-85.8075693">
        <ele>39.2</ele>
        <time>2022-10-06T17:33:00Z</time>
      </trkpt>
      <trkpt lat="10.3604172" lon="-85.8075693">
        <ele>39.1</ele>
        <time>2022-10-06T17:33:01Z</time>
      </trkpt>
      <trkpt lat="10.3604172" lon="-85.8075693">
        <ele>39.1</ele>
        <time>2022-10-06T17:33:02Z</time>
      </trkpt>
      <trkpt lat="10.3604172" lon="-85.8075693">
        <ele>39.1</ele>
        <time>2022-10-06T17:33:03Z</time>
      </trkpt>
      <trkpt lat="10.3604172" lon="-85.8075693">
        <ele>39.1</ele>
        <time>2022-10-06T17:33:04Z</time>
      </trkpt>
      <trkpt lat="10.3604172" lon="-85.8075693">
        <ele>39.1</ele>
        <time>2022-10-06T17:33:05Z</time>
      </trkpt>
      <trkpt lat="10.3604172" lon="-85.8075693">
        <ele>39.1</ele>
        <time>2022-10-06T17:33:06Z</time>
      </trkpt>
      <trkpt lat="10.3604172" lon="-85.8075693">
        <ele>39.0</ele>
        <time>2022-10-06T17:33:07Z</time>
      </trkpt>
      <trkpt lat="10.3604172" lon="-85.8075693">
        <ele>39.0</ele>
        <time>2022-10-06T17:33:08Z</time>
      </trkpt>
      <trkpt lat="10.3604172" lon="-85.8075693">
        <ele>39.0</ele>
        <time>2022-10-06T17:33:09Z</time>
      </trkpt>
      <trkpt lat="10.3604172" lon="-85.8075693">
        <ele>39.0</ele>
        <time>2022-10-06T17:33:10Z</time>
      </trkpt>
      <trkpt lat="10.3604172" lon="-85.8075693">
        <ele>39.0</ele>
        <time>2022-10-06T17:33:11Z</time>
      </trkpt>
      <trkpt lat="10.3603941" lon="-85.8075676">
        <ele>39.1</ele>
        <time>2022-10-06T17:33:12Z</time>
      </trkpt>
      <trkpt lat="10.3604132" lon="-85.8075771">
        <ele>39.1</ele>
        <time>2022-10-06T17:33:13Z</time>
      </trkpt>
      <trkpt lat="10.3604328" lon="-85.8075864">
        <ele>39.2</ele>
        <time>2022-10-06T17:33:14Z</time>
      </trkpt>
      <trkpt lat="10.3604575" lon="-85.8075973">
        <ele>39.0</ele>
        <time>2022-10-06T17:33:15Z</time>
      </trkpt>
      <trkpt lat="10.3604830" lon="-85.8076069">
        <ele>39.1</ele>
        <time>2022-10-06T17:33:16Z</time>
      </trkpt>
      <trkpt lat="10.3605121" lon="-85.8076148">
        <ele>39.3</ele>
        <time>2022-10-06T17:33:17Z</time>
      </trkpt>
      <trkpt lat="10.3605466" lon="-85.8076198">
        <ele>39.4</ele>
        <time>2022-10-06T17:33:18Z</time>
      </trkpt>
      <trkpt lat="10.3605834" lon="-85.8076257">
        <ele>39.5</ele>
        <time>2022-10-06T17:33:19Z</time>
      </trkpt>
      <trkpt lat="10.3606226" lon="-85.8076291">
        <ele>39.7</ele>
        <time>2022-10-06T17:33:20Z</time>
      </trkpt>
      <trkpt lat="10.3606641" lon="-85.8076325">
        <ele>39.8</ele>
        <time>2022-10-06T17:33:21Z</time>
      </trkpt>
      <trkpt lat="10.3607093" lon="-85.8076363">
        <ele>40.0</ele>
        <time>2022-10-06T17:33:22Z</time>
      </trkpt>
      <trkpt lat="10.3607581" lon="-85.8076395">
        <ele>40.2</ele>
        <time>2022-10-06T17:33:23Z</time>
      </trkpt>
      <trkpt lat="10.3608083" lon="-85.8076414">
        <ele>40.2</ele>
        <time>2022-10-06T17:33:24Z</time>
      </trkpt>
      <trkpt lat="10.3608649" lon="-85.8076491">
        <ele>40.3</ele>
        <time>2022-10-06T17:33:25Z</time>
      </trkpt>
      <trkpt lat="10.3609230" lon="-85.8076549">
        <ele>40.5</ele>
        <time>2022-10-06T17:33:26Z</time>
      </trkpt>
      <trkpt lat="10.3609871" lon="-85.8076620">
        <ele>40.3</ele>
        <time>2022-10-06T17:33:27Z</time>
      </trkpt>
      <trkpt lat="10.3610550" lon="-85.8076657">
        <ele>40.6</ele>
        <time>2022-10-06T17:33:28Z</time>
      </trkpt>
      <trkpt lat="10.3611245" lon="-85.8076652">
        <ele>40.8</ele>
        <time>2022-10-06T17:33:29Z</time>
      </trkpt>
      <trkpt lat="10.3611942" lon="-85.8076635">
        <ele>41.2</ele>
        <time>2022-10-06T17:33:30Z</time>
      </trkpt>
      <trkpt lat="10.3612618" lon="-85.8076641">
        <ele>41.3</ele>
        <time>2022-10-06T17:33:31Z</time>
      </trkpt>
      <trkpt lat="10.3613335" lon="-85.8076588">
        <ele>41.8</ele>
        <time>2022-10-06T17:33:32Z</time>
      </trkpt>
      <trkpt lat="10.3614040" lon="-85.8076550">
        <ele>42.3</ele>
        <time>2022-10-06T17:33:33Z</time>
      </trkpt>
      <trkpt lat="10.3614719" lon="-85.8076551">
        <ele>42.4</ele>
        <time>2022-10-06T17:33:34Z</time>
      </trkpt>
      <trkpt lat="10.3615437" lon="-85.8076620">
        <ele>42.8</ele>
        <time>2022-10-06T17:33:35Z</time>
      </trkpt>
      <trkpt lat="10.3616103" lon="-85.8076725">
        <ele>42.9</ele>
        <time>2022-10-06T17:33:36Z</time>
      </trkpt>
      <trkpt lat="10.3616789" lon="-85.8076845">
        <ele>43.1</ele>
        <time>2022-10-06T17:33:37Z</time>
      </trkpt>
      <trkpt lat="10.3617522" lon="-85.8076992">
        <ele>43.1</ele>
        <time>2022-10-06T17:33:38Z</time>
      </trkpt>
      <trkpt lat="10.3618248" lon="-85.8077138">
        <ele>43.5</ele>
        <time>2022-10-06T17:33:39Z</time>
      </trkpt>
      <trkpt lat="10.3618978" lon="-85.8077284">
        <ele>43.6</ele>
        <time>2022-10-06T17:33:40Z</time>
      </trkpt>
      <trkpt lat="10.3619688" lon="-85.8077442">
        <ele>43.7</ele>
        <time>2022-10-06T17:33:41Z</time>
      </trkpt>
      <trkpt lat="10.3620448" lon="-85.8077558">
        <ele>43.8</ele>
        <time>2022-10-06T17:33:42Z</time>
      </trkpt>
      <trkpt lat="10.3621116" lon="-85.8077674">
        <ele>43.8</ele>
        <time>2022-10-06T17:33:43Z</time>
      </trkpt>
      <trkpt lat="10.3621784" lon="-85.8077677">
        <ele>43.8</ele>
        <time>2022-10-06T17:33:44Z</time>
      </trkpt>
      <trkpt lat="10.3622397" lon="-85.8077668">
        <ele>44.0</ele>
        <time>2022-10-06T17:33:45Z</time>
      </trkpt>
      <trkpt lat="10.3622935" lon="-85.8077563">
        <ele>44.1</ele>
        <time>2022-10-06T17:33:46Z</time>
      </trkpt>
      <trkpt lat="10.3623443" lon="-85.8077423">
        <ele>44.2</ele>
        <time>2022-10-06T17:33:47Z</time>
      </trkpt>
      <trkpt lat="10.3623894" lon="-85.8077340">
        <ele>44.3</ele>
        <time>2022-10-06T17:33:48Z</time>
      </trkpt>
      <trkpt lat="10.3624282" lon="-85.8077322">
        <ele>44.3</ele>
        <time>2022-10-06T17:33:49Z</time>
      </trkpt>
      <trkpt lat="10.3624642" lon="-85.8077422">
        <ele>44.0</ele>
        <time>2022-10-06T17:33:50Z</time>
      </trkpt>
      <trkpt lat="10.3624940" lon="-85.8077485">
        <ele>43.9</ele>
        <time>2022-10-06T17:33:51Z</time>
      </trkpt>
      <trkpt lat="10.3625201" lon="-85.8077518">
        <ele>43.8</ele>
        <time>2022-10-06T17:33:52Z</time>
      </trkpt>
      <trkpt lat="10.3625486" lon="-85.8077496">
        <ele>43.8</ele>
        <time>2022-10-06T17:33:53Z</time>
      </trkpt>
      <trkpt lat="10.3625824" lon="-85.8077452">
        <ele>43.8</ele>
        <time>2022-10-06T17:33:54Z</time>
      </trkpt>
      <trkpt lat="10.3626187" lon="-85.8077252">
        <ele>43.7</ele>
        <time>2022-10-06T17:33:55Z</time>
      </trkpt>
      <trkpt lat="10.3626544" lon="-85.8076905">
        <ele>44.1</ele>
        <time>2022-10-06T17:33:56Z</time>
      </trkpt>
      <trkpt lat="10.3626901" lon="-85.8076383">
        <ele>44.0</ele>
        <time>2022-10-06T17:33:57Z</time>
      </trkpt>
      <trkpt lat="10.3627272" lon="-85.8075812">
        <ele>44.3</ele>
        <time>2022-10-06T17:33:58Z</time>
      </trkpt>
      <trkpt lat="10.3627710" lon="-85.8075207">
        <ele>44.2</ele>
        <time>2022-10-06T17:33:59Z</time>
      </trkpt>
      <trkpt lat="10.3628207" lon="-85.8074500">
        <ele>44.3</ele>
        <time>2022-10-06T17:34:00Z</time>
      </trkpt>
      <trkpt lat="10.3628749" lon="-85.8073748">
        <ele>44.6</ele>
        <time>2022-10-06T17:34:01Z</time>
      </trkpt>
      <trkpt lat="10.3629298" lon="-85.8072947">
        <ele>44.0</ele>
        <time>2022-10-06T17:34:02Z</time>
      </trkpt>
      <trkpt lat="10.3629892" lon="-85.8072071">
        <ele>44.8</ele>
        <time>2022-10-06T17:34:03Z</time>
      </trkpt>
      <trkpt lat="10.3630499" lon="-85.8071180">
        <ele>45.1</ele>
        <time>2022-10-06T17:34:04Z</time>
      </trkpt>
      <trkpt lat="10.3631130" lon="-85.8070269">
        <ele>45.5</ele>
        <time>2022-10-06T17:34:05Z</time>
      </trkpt>
      <trkpt lat="10.3631802" lon="-85.8069296">
        <ele>45.9</ele>
        <time>2022-10-06T17:34:06Z</time>
      </trkpt>
      <trkpt lat="10.3632494" lon="-85.8068292">
        <ele>46.3</ele>
        <time>2022-10-06T17:34:07Z</time>
      </trkpt>
      <trkpt lat="10.3633194" lon="-85.8067301">
        <ele>46.4</ele>
        <time>2022-10-06T17:34:08Z</time>
      </trkpt>
      <trkpt lat="10.3633910" lon="-85.8066273">
        <ele>46.7</ele>
        <time>2022-10-06T17:34:09Z</time>
      </trkpt>
      <trkpt lat="10.3634652" lon="-85.8065211">
        <ele>47.1</ele>
        <time>2022-10-06T17:34:10Z</time>
      </trkpt>
      <trkpt lat="10.3635408" lon="-85.8064138">
        <ele>47.8</ele>
        <time>2022-10-06T17:34:11Z</time>
      </trkpt>
      <trkpt lat="10.3636173" lon="-85.8063039">
        <ele>48.0</ele>
        <time>2022-10-06T17:34:12Z</time>
      </trkpt>
      <trkpt lat="10.3636956" lon="-85.8061934">
        <ele>49.2</ele>
        <time>2022-10-06T17:34:13Z</time>
      </trkpt>
      <trkpt lat="10.3637737" lon="-85.8060804">
        <ele>49.4</ele>
        <time>2022-10-06T17:34:14Z</time>
      </trkpt>
      <trkpt lat="10.3638525" lon="-85.8059702">
        <ele>49.6</ele>
        <time>2022-10-06T17:34:15Z</time>
      </trkpt>
      <trkpt lat="10.3639291" lon="-85.8058586">
        <ele>49.8</ele>
        <time>2022-10-06T17:34:16Z</time>
      </trkpt>
      <trkpt lat="10.3640044" lon="-85.8057471">
        <ele>50.2</ele>
        <time>2022-10-06T17:34:17Z</time>
      </trkpt>
      <trkpt lat="10.3640759" lon="-85.8056346">
        <ele>50.4</ele>
        <time>2022-10-06T17:34:18Z</time>
      </trkpt>
      <trkpt lat="10.3641531" lon="-85.8055239">
        <ele>50.8</ele>
        <time>2022-10-06T17:34:19Z</time>
      </trkpt>
      <trkpt lat="10.3642325" lon="-85.8054131">
        <ele>51.1</ele>
        <time>2022-10-06T17:34:20Z</time>
      </trkpt>
      <trkpt lat="10.3643136" lon="-85.8053013">
        <ele>51.7</ele>
        <time>2022-10-06T17:34:21Z</time>
      </trkpt>
      <trkpt lat="10.3643952" lon="-85.8051878">
        <ele>52.3</ele>
        <time>2022-10-06T17:34:22Z</time>
      </trkpt>
      <trkpt lat="10.3644773" lon="-85.8050730">
        <ele>52.6</ele>
        <time>2022-10-06T17:34:23Z</time>
      </trkpt>
      <trkpt lat="10.3645608" lon="-85.8049534">
        <ele>53.0</ele>
        <time>2022-10-06T17:34:24Z</time>
      </trkpt>
      <trkpt lat="10.3646414" lon="-85.8048336">
        <ele>53.3</ele>
        <time>2022-10-06T17:34:25Z</time>
      </trkpt>
      <trkpt lat="10.3647221" lon="-85.8047125">
        <ele>53.6</ele>
        <time>2022-10-06T17:34:26Z</time>
      </trkpt>
      <trkpt lat="10.3648026" lon="-85.8045889">
        <ele>53.8</ele>
        <time>2022-10-06T17:34:27Z</time>
      </trkpt>
      <trkpt lat="10.3648785" lon="-85.8044602">
        <ele>54.2</ele>
        <time>2022-10-06T17:34:28Z</time>
      </trkpt>
      <trkpt lat="10.3649511" lon="-85.8043273">
        <ele>54.6</ele>
        <time>2022-10-06T17:34:29Z</time>
      </trkpt>
      <trkpt lat="10.3650145" lon="-85.8041910">
        <ele>54.9</ele>
        <time>2022-10-06T17:34:30Z</time>
      </trkpt>
      <trkpt lat="10.3650690" lon="-85.8040499">
        <ele>55.4</ele>
        <time>2022-10-06T17:34:31Z</time>
      </trkpt>
      <trkpt lat="10.3651116" lon="-85.8039066">
        <ele>55.8</ele>
        <time>2022-10-06T17:34:32Z</time>
      </trkpt>
      <trkpt lat="10.3651503" lon="-85.8037603">
        <ele>56.3</ele>
        <time>2022-10-06T17:34:33Z</time>
      </trkpt>
      <trkpt lat="10.3651873" lon="-85.8036098">
        <ele>56.8</ele>
        <time>2022-10-06T17:34:34Z</time>
      </trkpt>
      <trkpt lat="10.3652234" lon="-85.8034568">
        <ele>57.1</ele>
        <time>2022-10-06T17:34:35Z</time>
      </trkpt>
      <trkpt lat="10.3652575" lon="-85.8033042">
        <ele>57.5</ele>
        <time>2022-10-06T17:34:36Z</time>
      </trkpt>
      <trkpt lat="10.3652899" lon="-85.8031522">
        <ele>57.7</ele>
        <time>2022-10-06T17:34:37Z</time>
      </trkpt>
      <trkpt lat="10.3653200" lon="-85.8030019">
        <ele>58.1</ele>
        <time>2022-10-06T17:34:38Z</time>
      </trkpt>
      <trkpt lat="10.3653507" lon="-85.8028518">
        <ele>58.5</ele>
        <time>2022-10-06T17:34:39Z</time>
      </trkpt>
      <trkpt lat="10.3653833" lon="-85.8027018">
        <ele>58.8</ele>
        <time>2022-10-06T17:34:40Z</time>
      </trkpt>
      <trkpt lat="10.3654141" lon="-85.8025513">
        <ele>59.1</ele>
        <time>2022-10-06T17:34:41Z</time>
      </trkpt>
      <trkpt lat="10.3654477" lon="-85.8024016">
        <ele>59.3</ele>
        <time>2022-10-06T17:34:42Z</time>
      </trkpt>
      <trkpt lat="10.3654808" lon="-85.8022511">
        <ele>59.6</ele>
        <time>2022-10-06T17:34:43Z</time>
      </trkpt>
      <trkpt lat="10.3655114" lon="-85.8021014">
        <ele>60.0</ele>
        <time>2022-10-06T17:34:44Z</time>
      </trkpt>
      <trkpt lat="10.3655423" lon="-85.8019488">
        <ele>60.3</ele>
        <time>2022-10-06T17:34:45Z</time>
      </trkpt>
      <trkpt lat="10.3655770" lon="-85.8017968">
        <ele>60.7</ele>
        <time>2022-10-06T17:34:46Z</time>
      </trkpt>
      <trkpt lat="10.3656122" lon="-85.8016438">
        <ele>61.0</ele>
        <time>2022-10-06T17:34:47Z</time>
      </trkpt>
      <trkpt lat="10.3656476" lon="-85.8014900">
        <ele>61.4</ele>
        <time>2022-10-06T17:34:48Z</time>
      </trkpt>
      <trkpt lat="10.3656821" lon="-85.8013401">
        <ele>61.8</ele>
        <time>2022-10-06T17:34:49Z</time>
      </trkpt>
      <trkpt lat="10.3657165" lon="-85.8011905">
        <ele>62.4</ele>
        <time>2022-10-06T17:34:50Z</time>
      </trkpt>
      <trkpt lat="10.3657513" lon="-85.8010429">
        <ele>63.1</ele>
        <time>2022-10-06T17:34:51Z</time>
      </trkpt>
      <trkpt lat="10.3657833" lon="-85.8008962">
        <ele>63.8</ele>
        <time>2022-10-06T17:34:52Z</time>
      </trkpt>
      <trkpt lat="10.3658134" lon="-85.8007504">
        <ele>64.5</ele>
        <time>2022-10-06T17:34:53Z</time>
      </trkpt>
      <trkpt lat="10.3658425" lon="-85.8006030">
        <ele>65.1</ele>
        <time>2022-10-06T17:34:54Z</time>
      </trkpt>
      <trkpt lat="10.3658726" lon="-85.8004576">
        <ele>65.9</ele>
        <time>2022-10-06T17:34:55Z</time>
      </trkpt>
      <trkpt lat="10.3659021" lon="-85.8003122">
        <ele>66.6</ele>
        <time>2022-10-06T17:34:56Z</time>
      </trkpt>
      <trkpt lat="10.3659304" lon="-85.8001679">
        <ele>67.2</ele>
        <time>2022-10-06T17:34:57Z</time>
      </trkpt>
      <trkpt lat="10.3659557" lon="-85.8000243">
        <ele>67.9</ele>
        <time>2022-10-06T17:34:58Z</time>
      </trkpt>
      <trkpt lat="10.3659822" lon="-85.7998797">
        <ele>67.7</ele>
        <time>2022-10-06T17:34:59Z</time>
      </trkpt>
      <trkpt lat="10.3660042" lon="-85.7997349">
        <ele>67.8</ele>
        <time>2022-10-06T17:35:00Z</time>
      </trkpt>
      <trkpt lat="10.3660187" lon="-85.7995912">
        <ele>67.7</ele>
        <time>2022-10-06T17:35:01Z</time>
      </trkpt>
      <trkpt lat="10.3660277" lon="-85.7994464">
        <ele>68.0</ele>
        <time>2022-10-06T17:35:02Z</time>
      </trkpt>
      <trkpt lat="10.3660338" lon="-85.7993001">
        <ele>68.2</ele>
        <time>2022-10-06T17:35:03Z</time>
      </trkpt>
      <trkpt lat="10.3660333" lon="-85.7991534">
        <ele>68.3</ele>
        <time>2022-10-06T17:35:04Z</time>
      </trkpt>
      <trkpt lat="10.3660267" lon="-85.7990071">
        <ele>68.8</ele>
        <time>2022-10-06T17:35:05Z</time>
      </trkpt>
      <trkpt lat="10.3660156" lon="-85.7988594">
        <ele>69.3</ele>
        <time>2022-10-06T17:35:06Z</time>
      </trkpt>
      <trkpt lat="10.3659959" lon="-85.7987120">
        <ele>69.1</ele>
        <time>2022-10-06T17:35:07Z</time>
      </trkpt>
      <trkpt lat="10.3659672" lon="-85.7985630">
        <ele>68.7</ele>
        <time>2022-10-06T17:35:08Z</time>
      </trkpt>
      <trkpt lat="10.3659340" lon="-85.7984122">
        <ele>68.5</ele>
        <time>2022-10-06T17:35:09Z</time>
      </trkpt>
      <trkpt lat="10.3658934" lon="-85.7982608">
        <ele>68.3</ele>
        <time>2022-10-06T17:35:10Z</time>
      </trkpt>
      <trkpt lat="10.3658522" lon="-85.7981121">
        <ele>67.8</ele>
        <time>2022-10-06T17:35:11Z</time>
      </trkpt>
      <trkpt lat="10.3658100" lon="-85.7979605">
        <ele>67.8</ele>
        <time>2022-10-06T17:35:12Z</time>
      </trkpt>
      <trkpt lat="10.3657655" lon="-85.7978075">
        <ele>67.9</ele>
        <time>2022-10-06T17:35:13Z</time>
      </trkpt>
      <trkpt lat="10.3657189" lon="-85.7976527">
        <ele>67.0</ele>
        <time>2022-10-06T17:35:14Z</time>
      </trkpt>
      <trkpt lat="10.3656745" lon="-85.7974982">
        <ele>66.9</ele>
        <time>2022-10-06T17:35:15Z</time>
      </trkpt>
      <trkpt lat="10.3656376" lon="-85.7973385">
        <ele>66.0</ele>
        <time>2022-10-06T17:35:16Z</time>
      </trkpt>
      <trkpt lat="10.3656096" lon="-85.7971762">
        <ele>64.9</ele>
        <time>2022-10-06T17:35:17Z</time>
      </trkpt>
      <trkpt lat="10.3655904" lon="-85.7970116">
        <ele>63.8</ele>
        <time>2022-10-06T17:35:18Z</time>
      </trkpt>
      <trkpt lat="10.3655749" lon="-85.7968462">
        <ele>62.6</ele>
        <time>2022-10-06T17:35:19Z</time>
      </trkpt>
      <trkpt lat="10.3655631" lon="-85.7966772">
        <ele>61.6</ele>
        <time>2022-10-06T17:35:20Z</time>
      </trkpt>
      <trkpt lat="10.3655584" lon="-85.7965098">
        <ele>60.7</ele>
        <time>2022-10-06T17:35:21Z</time>
      </trkpt>
      <trkpt lat="10.3655581" lon="-85.7963434">
        <ele>59.7</ele>
        <time>2022-10-06T17:35:22Z</time>
      </trkpt>
      <trkpt lat="10.3655626" lon="-85.7961727">
        <ele>58.8</ele>
        <time>2022-10-06T17:35:23Z</time>
      </trkpt>
      <trkpt lat="10.3655704" lon="-85.7959999">
        <ele>58.1</ele>
        <time>2022-10-06T17:35:24Z</time>
      </trkpt>
      <trkpt lat="10.3655803" lon="-85.7958279">
        <ele>57.5</ele>
        <time>2022-10-06T17:35:25Z</time>
      </trkpt>
      <trkpt lat="10.3655923" lon="-85.7956573">
        <ele>57.6</ele>
        <time>2022-10-06T17:35:26Z</time>
      </trkpt>
      <trkpt lat="10.3656030" lon="-85.7954855">
        <ele>57.6</ele>
        <time>2022-10-06T17:35:27Z</time>
      </trkpt>
      <trkpt lat="10.3656113" lon="-85.7953137">
        <ele>57.1</ele>
        <time>2022-10-06T17:35:28Z</time>
      </trkpt>
      <trkpt lat="10.3656202" lon="-85.7951426">
        <ele>56.7</ele>
        <time>2022-10-06T17:35:29Z</time>
      </trkpt>
      <trkpt lat="10.3656312" lon="-85.7949726">
        <ele>56.3</ele>
        <time>2022-10-06T17:35:30Z</time>
      </trkpt>
      <trkpt lat="10.3656417" lon="-85.7948044">
        <ele>56.1</ele>
        <time>2022-10-06T17:35:31Z</time>
      </trkpt>
      <trkpt lat="10.3656510" lon="-85.7946373">
        <ele>55.7</ele>
        <time>2022-10-06T17:35:32Z</time>
      </trkpt>
      <trkpt lat="10.3656600" lon="-85.7944726">
        <ele>55.4</ele>
        <time>2022-10-06T17:35:33Z</time>
      </trkpt>
      <trkpt lat="10.3656691" lon="-85.7943084">
        <ele>55.1</ele>
        <time>2022-10-06T17:35:34Z</time>
      </trkpt>
      <trkpt lat="10.3656789" lon="-85.7941466">
        <ele>54.8</ele>
        <time>2022-10-06T17:35:35Z</time>
      </trkpt>
      <trkpt lat="10.3656894" lon="-85.7939834">
        <ele>54.7</ele>
        <time>2022-10-06T17:35:36Z</time>
      </trkpt>
      <trkpt lat="10.3656982" lon="-85.7938190">
        <ele>54.4</ele>
        <time>2022-10-06T17:35:37Z</time>
      </trkpt>
      <trkpt lat="10.3657068" lon="-85.7936548">
        <ele>54.1</ele>
        <time>2022-10-06T17:35:38Z</time>
      </trkpt>
      <trkpt lat="10.3657158" lon="-85.7934904">
        <ele>53.7</ele>
        <time>2022-10-06T17:35:39Z</time>
      </trkpt>
      <trkpt lat="10.3657292" lon="-85.7933244">
        <ele>53.4</ele>
        <time>2022-10-06T17:35:40Z</time>
      </trkpt>
      <trkpt lat="10.3657514" lon="-85.7931612">
        <ele>52.8</ele>
        <time>2022-10-06T17:35:41Z</time>
      </trkpt>
      <trkpt lat="10.3657850" lon="-85.7929974">
        <ele>52.2</ele>
        <time>2022-10-06T17:35:42Z</time>
      </trkpt>
      <trkpt lat="10.3658277" lon="-85.7928373">
        <ele>51.5</ele>
        <time>2022-10-06T17:35:43Z</time>
      </trkpt>
      <trkpt lat="10.3658737" lon="-85.7926755">
        <ele>50.6</ele>
        <time>2022-10-06T17:35:44Z</time>
      </trkpt>
      <trkpt lat="10.3659223" lon="-85.7925150">
        <ele>50.7</ele>
        <time>2022-10-06T17:35:45Z</time>
      </trkpt>
      <trkpt lat="10.3659687" lon="-85.7923541">
        <ele>50.7</ele>
        <time>2022-10-06T17:35:46Z</time>
      </trkpt>
      <trkpt lat="10.3660136" lon="-85.7921860">
        <ele>49.7</ele>
        <time>2022-10-06T17:35:47Z</time>
      </trkpt>
      <trkpt lat="10.3660601" lon="-85.7920176">
        <ele>49.1</ele>
        <time>2022-10-06T17:35:48Z</time>
      </trkpt>
      <trkpt lat="10.3661058" lon="-85.7918513">
        <ele>49.1</ele>
        <time>2022-10-06T17:35:49Z</time>
      </trkpt>
      <trkpt lat="10.3661494" lon="-85.7916826">
        <ele>49.2</ele>
        <time>2022-10-06T17:35:50Z</time>
      </trkpt>
      <trkpt lat="10.3661924" lon="-85.7915167">
        <ele>49.0</ele>
        <time>2022-10-06T17:35:51Z</time>
      </trkpt>
      <trkpt lat="10.3662354" lon="-85.7913443">
        <ele>49.3</ele>
        <time>2022-10-06T17:35:52Z</time>
      </trkpt>
      <trkpt lat="10.3662782" lon="-85.7911729">
        <ele>49.4</ele>
        <time>2022-10-06T17:35:53Z</time>
      </trkpt>
      <trkpt lat="10.3663234" lon="-85.7910019">
        <ele>49.5</ele>
        <time>2022-10-06T17:35:54Z</time>
      </trkpt>
      <trkpt lat="10.3663697" lon="-85.7908321">
        <ele>49.3</ele>
        <time>2022-10-06T17:35:55Z</time>
      </trkpt>
      <trkpt lat="10.3664172" lon="-85.7906609">
        <ele>49.3</ele>
        <time>2022-10-06T17:35:56Z</time>
      </trkpt>
      <trkpt lat="10.3664632" lon="-85.7904920">
        <ele>49.1</ele>
        <time>2022-10-06T17:35:57Z</time>
      </trkpt>
      <trkpt lat="10.3665086" lon="-85.7903263">
        <ele>49.2</ele>
        <time>2022-10-06T17:35:58Z</time>
      </trkpt>
      <trkpt lat="10.3665533" lon="-85.7901630">
        <ele>49.1</ele>
        <time>2022-10-06T17:35:59Z</time>
      </trkpt>
      <trkpt lat="10.3665974" lon="-85.7900021">
        <ele>49.0</ele>
        <time>2022-10-06T17:36:00Z</time>
      </trkpt>
      <trkpt lat="10.3666436" lon="-85.7898392">
        <ele>49.0</ele>
        <time>2022-10-06T17:36:01Z</time>
      </trkpt>
      <trkpt lat="10.3666864" lon="-85.7896813">
        <ele>49.0</ele>
        <time>2022-10-06T17:36:02Z</time>
      </trkpt>
      <trkpt lat="10.3667305" lon="-85.7895236">
        <ele>49.0</ele>
        <time>2022-10-06T17:36:03Z</time>
      </trkpt>
      <trkpt lat="10.3667737" lon="-85.7893659">
        <ele>49.1</ele>
        <time>2022-10-06T17:36:04Z</time>
      </trkpt>
      <trkpt lat="10.3668176" lon="-85.7892112">
        <ele>49.1</ele>
        <time>2022-10-06T17:36:05Z</time>
      </trkpt>
      <trkpt lat="10.3668613" lon="-85.7890562">
        <ele>49.1</ele>
        <time>2022-10-06T17:36:06Z</time>
      </trkpt>
      <trkpt lat="10.3669060" lon="-85.7889040">
        <ele>49.1</ele>
        <time>2022-10-06T17:36:07Z</time>
      </trkpt>
      <trkpt lat="10.3669500" lon="-85.7887545">
        <ele>49.2</ele>
        <time>2022-10-06T17:36:08Z</time>
      </trkpt>
      <trkpt lat="10.3669905" lon="-85.7886034">
        <ele>49.3</ele>
        <time>2022-10-06T17:36:09Z</time>
      </trkpt>
      <trkpt lat="10.3670341" lon="-85.7884527">
        <ele>49.2</ele>
        <time>2022-10-06T17:36:10Z</time>
      </trkpt>
      <trkpt lat="10.3670746" lon="-85.7883065">
        <ele>49.3</ele>
        <time>2022-10-06T17:36:11Z</time>
      </trkpt>
      <trkpt lat="10.3671159" lon="-85.7881603">
        <ele>49.3</ele>
        <time>2022-10-06T17:36:12Z</time>
      </trkpt>
      <trkpt lat="10.3671585" lon="-85.7880134">
        <ele>49.4</ele>
        <time>2022-10-06T17:36:13Z</time>
      </trkpt>
      <trkpt lat="10.3671999" lon="-85.7878684">
        <ele>49.4</ele>
        <time>2022-10-06T17:36:14Z</time>
      </trkpt>
      <trkpt lat="10.3672427" lon="-85.7877250">
        <ele>49.4</ele>
        <time>2022-10-06T17:36:15Z</time>
      </trkpt>
      <trkpt lat="10.3672868" lon="-85.7875817">
        <ele>49.6</ele>
        <time>2022-10-06T17:36:16Z</time>
      </trkpt>
      <trkpt lat="10.3673296" lon="-85.7874372">
        <ele>49.8</ele>
        <time>2022-10-06T17:36:17Z</time>
      </trkpt>
      <trkpt lat="10.3673750" lon="-85.7872914">
        <ele>50.0</ele>
        <time>2022-10-06T17:36:18Z</time>
      </trkpt>
      <trkpt lat="10.3674194" lon="-85.7871426">
        <ele>50.2</ele>
        <time>2022-10-06T17:36:19Z</time>
      </trkpt>
      <trkpt lat="10.3674642" lon="-85.7869924">
        <ele>50.2</ele>
        <time>2022-10-06T17:36:20Z</time>
      </trkpt>
      <trkpt lat="10.3675097" lon="-85.7868399">
        <ele>50.4</ele>
        <time>2022-10-06T17:36:21Z</time>
      </trkpt>
      <trkpt lat="10.3675539" lon="-85.7866873">
        <ele>50.6</ele>
        <time>2022-10-06T17:36:22Z</time>
      </trkpt>
      <trkpt lat="10.3675971" lon="-85.7865345">
        <ele>50.7</ele>
        <time>2022-10-06T17:36:23Z</time>
      </trkpt>
      <trkpt lat="10.3676420" lon="-85.7863834">
        <ele>50.8</ele>
        <time>2022-10-06T17:36:24Z</time>
      </trkpt>
      <trkpt lat="10.3676885" lon="-85.7862283">
        <ele>51.0</ele>
        <time>2022-10-06T17:36:25Z</time>
      </trkpt>
      <trkpt lat="10.3677363" lon="-85.7860742">
        <ele>51.1</ele>
        <time>2022-10-06T17:36:26Z</time>
      </trkpt>
      <trkpt lat="10.3677831" lon="-85.7859195">
        <ele>51.3</ele>
        <time>2022-10-06T17:36:27Z</time>
      </trkpt>
      <trkpt lat="10.3678287" lon="-85.7857664">
        <ele>51.5</ele>
        <time>2022-10-06T17:36:28Z</time>
      </trkpt>
      <trkpt lat="10.3678755" lon="-85.7856145">
        <ele>51.7</ele>
        <time>2022-10-06T17:36:29Z</time>
      </trkpt>
      <trkpt lat="10.3679219" lon="-85.7854622">
        <ele>51.8</ele>
        <time>2022-10-06T17:36:30Z</time>
      </trkpt>
      <trkpt lat="10.3679672" lon="-85.7853139">
        <ele>52.0</ele>
        <time>2022-10-06T17:36:31Z</time>
      </trkpt>
      <trkpt lat="10.3680099" lon="-85.7851672">
        <ele>52.1</ele>
        <time>2022-10-06T17:36:32Z</time>
      </trkpt>
      <trkpt lat="10.3680524" lon="-85.7850214">
        <ele>52.2</ele>
        <time>2022-10-06T17:36:33Z</time>
      </trkpt>
      <trkpt lat="10.3680951" lon="-85.7848767">
        <ele>52.2</ele>
        <time>2022-10-06T17:36:34Z</time>
      </trkpt>
      <trkpt lat="10.3681376" lon="-85.7847351">
        <ele>52.3</ele>
        <time>2022-10-06T17:36:35Z</time>
      </trkpt>
      <trkpt lat="10.3681792" lon="-85.7845950">
        <ele>52.4</ele>
        <time>2022-10-06T17:36:36Z</time>
      </trkpt>
      <trkpt lat="10.3682222" lon="-85.7844542">
        <ele>52.6</ele>
        <time>2022-10-06T17:36:37Z</time>
      </trkpt>
      <trkpt lat="10.3682721" lon="-85.7843158">
        <ele>52.7</ele>
        <time>2022-10-06T17:36:38Z</time>
      </trkpt>
      <trkpt lat="10.3683265" lon="-85.7841785">
        <ele>52.8</ele>
        <time>2022-10-06T17:36:39Z</time>
      </trkpt>
      <trkpt lat="10.3683820" lon="-85.7840441">
        <ele>52.9</ele>
        <time>2022-10-06T17:36:40Z</time>
      </trkpt>
      <trkpt lat="10.3684383" lon="-85.7839092">
        <ele>53.0</ele>
        <time>2022-10-06T17:36:41Z</time>
      </trkpt>
      <trkpt lat="10.3684949" lon="-85.7837726">
        <ele>53.0</ele>
        <time>2022-10-06T17:36:42Z</time>
      </trkpt>
      <trkpt lat="10.3685540" lon="-85.7836346">
        <ele>53.2</ele>
        <time>2022-10-06T17:36:43Z</time>
      </trkpt>
      <trkpt lat="10.3686142" lon="-85.7835005">
        <ele>53.3</ele>
        <time>2022-10-06T17:36:44Z</time>
      </trkpt>
      <trkpt lat="10.3686740" lon="-85.7833703">
        <ele>53.4</ele>
        <time>2022-10-06T17:36:45Z</time>
      </trkpt>
      <trkpt lat="10.3687326" lon="-85.7832398">
        <ele>53.5</ele>
        <time>2022-10-06T17:36:46Z</time>
      </trkpt>
      <trkpt lat="10.3687936" lon="-85.7831084">
        <ele>53.6</ele>
        <time>2022-10-06T17:36:47Z</time>
      </trkpt>
      <trkpt lat="10.3688564" lon="-85.7829796">
        <ele>53.6</ele>
        <time>2022-10-06T17:36:48Z</time>
      </trkpt>
      <trkpt lat="10.3689237" lon="-85.7828497">
        <ele>53.7</ele>
        <time>2022-10-06T17:36:49Z</time>
      </trkpt>
      <trkpt lat="10.3689918" lon="-85.7827188">
        <ele>53.8</ele>
        <time>2022-10-06T17:36:50Z</time>
      </trkpt>
      <trkpt lat="10.3690620" lon="-85.7825842">
        <ele>54.0</ele>
        <time>2022-10-06T17:36:51Z</time>
      </trkpt>
      <trkpt lat="10.3691322" lon="-85.7824490">
        <ele>54.2</ele>
        <time>2022-10-06T17:36:52Z</time>
      </trkpt>
      <trkpt lat="10.3692042" lon="-85.7823140">
        <ele>54.5</ele>
        <time>2022-10-06T17:36:53Z</time>
      </trkpt>
      <trkpt lat="10.3692762" lon="-85.7821794">
        <ele>54.7</ele>
        <time>2022-10-06T17:36:54Z</time>
      </trkpt>
      <trkpt lat="10.3693484" lon="-85.7820461">
        <ele>54.9</ele>
        <time>2022-10-06T17:36:55Z</time>
      </trkpt>
      <trkpt lat="10.3694179" lon="-85.7819154">
        <ele>55.2</ele>
        <time>2022-10-06T17:36:56Z</time>
      </trkpt>
      <trkpt lat="10.3694855" lon="-85.7817870">
        <ele>55.4</ele>
        <time>2022-10-06T17:36:57Z</time>
      </trkpt>
      <trkpt lat="10.3695523" lon="-85.7816593">
        <ele>55.6</ele>
        <time>2022-10-06T17:36:58Z</time>
      </trkpt>
      <trkpt lat="10.3696208" lon="-85.7815291">
        <ele>55.8</ele>
        <time>2022-10-06T17:36:59Z</time>
      </trkpt>
      <trkpt lat="10.3696912" lon="-85.7813974">
        <ele>55.9</ele>
        <time>2022-10-06T17:37:00Z</time>
      </trkpt>
      <trkpt lat="10.3697608" lon="-85.7812663">
        <ele>56.2</ele>
        <time>2022-10-06T17:37:01Z</time>
      </trkpt>
      <trkpt lat="10.3698296" lon="-85.7811424">
        <ele>56.4</ele>
        <time>2022-10-06T17:37:02Z</time>
      </trkpt>
      <trkpt lat="10.3698952" lon="-85.7810232">
        <ele>56.6</ele>
        <time>2022-10-06T17:37:03Z</time>
      </trkpt>
      <trkpt lat="10.3699530" lon="-85.7809130">
        <ele>56.9</ele>
        <time>2022-10-06T17:37:04Z</time>
      </trkpt>
      <trkpt lat="10.3700037" lon="-85.7808085">
        <ele>57.0</ele>
        <time>2022-10-06T17:37:05Z</time>
      </trkpt>
      <trkpt lat="10.3700516" lon="-85.7807063">
        <ele>57.1</ele>
        <time>2022-10-06T17:37:06Z</time>
      </trkpt>
      <trkpt lat="10.3700963" lon="-85.7806045">
        <ele>57.1</ele>
        <time>2022-10-06T17:37:07Z</time>
      </trkpt>
      <trkpt lat="10.3701393" lon="-85.7805026">
        <ele>57.2</ele>
        <time>2022-10-06T17:37:08Z</time>
      </trkpt>
      <trkpt lat="10.3701804" lon="-85.7803994">
        <ele>57.2</ele>
        <time>2022-10-06T17:37:09Z</time>
      </trkpt>
      <trkpt lat="10.3702198" lon="-85.7802964">
        <ele>57.3</ele>
        <time>2022-10-06T17:37:10Z</time>
      </trkpt>
      <trkpt lat="10.3702578" lon="-85.7801920">
        <ele>57.4</ele>
        <time>2022-10-06T17:37:11Z</time>
      </trkpt>
      <trkpt lat="10.3702949" lon="-85.7800822">
        <ele>57.4</ele>
        <time>2022-10-06T17:37:12Z</time>
      </trkpt>
      <trkpt lat="10.3703234" lon="-85.7799671">
        <ele>57.5</ele>
        <time>2022-10-06T17:37:13Z</time>
      </trkpt>
      <trkpt lat="10.3703463" lon="-85.7798543">
        <ele>57.6</ele>
        <time>2022-10-06T17:37:14Z</time>
      </trkpt>
      <trkpt lat="10.3703643" lon="-85.7797419">
        <ele>57.8</ele>
        <time>2022-10-06T17:37:15Z</time>
      </trkpt>
      <trkpt lat="10.3703765" lon="-85.7796291">
        <ele>57.9</ele>
        <time>2022-10-06T17:37:16Z</time>
      </trkpt>
      <trkpt lat="10.3703828" lon="-85.7795195">
        <ele>58.0</ele>
        <time>2022-10-06T17:37:17Z</time>
      </trkpt>
      <trkpt lat="10.3703841" lon="-85.7794107">
        <ele>58.0</ele>
        <time>2022-10-06T17:37:18Z</time>
      </trkpt>
      <trkpt lat="10.3703805" lon="-85.7792974">
        <ele>58.1</ele>
        <time>2022-10-06T17:37:19Z</time>
      </trkpt>
      <trkpt lat="10.3703702" lon="-85.7791834">
        <ele>58.2</ele>
        <time>2022-10-06T17:37:20Z</time>
      </trkpt>
      <trkpt lat="10.3703524" lon="-85.7790659">
        <ele>58.3</ele>
        <time>2022-10-06T17:37:21Z</time>
      </trkpt>
      <trkpt lat="10.3703307" lon="-85.7789497">
        <ele>58.3</ele>
        <time>2022-10-06T17:37:22Z</time>
      </trkpt>
      <trkpt lat="10.3702999" lon="-85.7788398">
        <ele>58.3</ele>
        <time>2022-10-06T17:37:23Z</time>
      </trkpt>
      <trkpt lat="10.3702627" lon="-85.7787352">
        <ele>58.3</ele>
        <time>2022-10-06T17:37:24Z</time>
      </trkpt>
      <trkpt lat="10.3702212" lon="-85.7786316">
        <ele>58.5</ele>
        <time>2022-10-06T17:37:25Z</time>
      </trkpt>
      <trkpt lat="10.3701753" lon="-85.7785286">
        <ele>58.5</ele>
        <time>2022-10-06T17:37:26Z</time>
      </trkpt>
      <trkpt lat="10.3701262" lon="-85.7784266">
        <ele>58.6</ele>
        <time>2022-10-06T17:37:27Z</time>
      </trkpt>
      <trkpt lat="10.3700777" lon="-85.7783277">
        <ele>58.7</ele>
        <time>2022-10-06T17:37:28Z</time>
      </trkpt>
      <trkpt lat="10.3700323" lon="-85.7782327">
        <ele>58.7</ele>
        <time>2022-10-06T17:37:29Z</time>
      </trkpt>
      <trkpt lat="10.3699869" lon="-85.7781372">
        <ele>58.8</ele>
        <time>2022-10-06T17:37:30Z</time>
      </trkpt>
      <trkpt lat="10.3699397" lon="-85.7780425">
        <ele>58.8</ele>
        <time>2022-10-06T17:37:31Z</time>
      </trkpt>
      <trkpt lat="10.3698902" lon="-85.7779444">
        <ele>58.8</ele>
        <time>2022-10-06T17:37:32Z</time>
      </trkpt>
      <trkpt lat="10.3698403" lon="-85.7778449">
        <ele>58.9</ele>
        <time>2022-10-06T17:37:33Z</time>
      </trkpt>
      <trkpt lat="10.3697888" lon="-85.7777451">
        <ele>59.0</ele>
        <time>2022-10-06T17:37:34Z</time>
      </trkpt>
      <trkpt lat="10.3697381" lon="-85.7776420">
        <ele>59.0</ele>
        <time>2022-10-06T17:37:35Z</time>
      </trkpt>
      <trkpt lat="10.3696886" lon="-85.7775400">
        <ele>59.1</ele>
        <time>2022-10-06T17:37:36Z</time>
      </trkpt>
      <trkpt lat="10.3696386" lon="-85.7774375">
        <ele>59.2</ele>
        <time>2022-10-06T17:37:37Z</time>
      </trkpt>
      <trkpt lat="10.3695872" lon="-85.7773329">
        <ele>59.3</ele>
        <time>2022-10-06T17:37:38Z</time>
      </trkpt>
      <trkpt lat="10.3695337" lon="-85.7772237">
        <ele>59.5</ele>
        <time>2022-10-06T17:37:39Z</time>
      </trkpt>
      <trkpt lat="10.3694787" lon="-85.7771156">
        <ele>59.5</ele>
        <time>2022-10-06T17:37:40Z</time>
      </trkpt>
      <trkpt lat="10.3694216" lon="-85.7770022">
        <ele>59.6</ele>
        <time>2022-10-06T17:37:41Z</time>
      </trkpt>
      <trkpt lat="10.3693645" lon="-85.7768901">
        <ele>59.7</ele>
        <time>2022-10-06T17:37:42Z</time>
      </trkpt>
      <trkpt lat="10.3693083" lon="-85.7767773">
        <ele>59.8</ele>
        <time>2022-10-06T17:37:43Z</time>
      </trkpt>
      <trkpt lat="10.3692516" lon="-85.7766627">
        <ele>60.0</ele>
        <time>2022-10-06T17:37:44Z</time>
      </trkpt>
      <trkpt lat="10.3691947" lon="-85.7765473">
        <ele>60.1</ele>
        <time>2022-10-06T17:37:45Z</time>
      </trkpt>
      <trkpt lat="10.3691366" lon="-85.7764281">
        <ele>60.2</ele>
        <time>2022-10-06T17:37:46Z</time>
      </trkpt>
      <trkpt lat="10.3690791" lon="-85.7763108">
        <ele>60.3</ele>
        <time>2022-10-06T17:37:47Z</time>
      </trkpt>
      <trkpt lat="10.3690199" lon="-85.7761913">
        <ele>60.4</ele>
        <time>2022-10-06T17:37:48Z</time>
      </trkpt>
      <trkpt lat="10.3689594" lon="-85.7760704">
        <ele>60.5</ele>
        <time>2022-10-06T17:37:49Z</time>
      </trkpt>
      <trkpt lat="10.3689002" lon="-85.7759515">
        <ele>60.6</ele>
        <time>2022-10-06T17:37:50Z</time>
      </trkpt>
      <trkpt lat="10.3688409" lon="-85.7758334">
        <ele>60.7</ele>
        <time>2022-10-06T17:37:51Z</time>
      </trkpt>
      <trkpt lat="10.3687832" lon="-85.7757158">
        <ele>60.8</ele>
        <time>2022-10-06T17:37:52Z</time>
      </trkpt>
      <trkpt lat="10.3687303" lon="-85.7756019">
        <ele>60.8</ele>
        <time>2022-10-06T17:37:53Z</time>
      </trkpt>
      <trkpt lat="10.3686820" lon="-85.7754881">
        <ele>60.9</ele>
        <time>2022-10-06T17:37:54Z</time>
      </trkpt>
      <trkpt lat="10.3686399" lon="-85.7753760">
        <ele>61.1</ele>
        <time>2022-10-06T17:37:55Z</time>
      </trkpt>
      <trkpt lat="10.3686045" lon="-85.7752688">
        <ele>61.1</ele>
        <time>2022-10-06T17:37:56Z</time>
      </trkpt>
      <trkpt lat="10.3685754" lon="-85.7751699">
        <ele>61.2</ele>
        <time>2022-10-06T17:37:57Z</time>
      </trkpt>
      <trkpt lat="10.3685524" lon="-85.7750779">
        <ele>61.3</ele>
        <time>2022-10-06T17:37:58Z</time>
      </trkpt>
      <trkpt lat="10.3685326" lon="-85.7749920">
        <ele>61.4</ele>
        <time>2022-10-06T17:37:59Z</time>
      </trkpt>
      <trkpt lat="10.3685163" lon="-85.7749154">
        <ele>61.4</ele>
        <time>2022-10-06T17:38:00Z</time>
      </trkpt>
      <trkpt lat="10.3685025" lon="-85.7748496">
        <ele>61.4</ele>
        <time>2022-10-06T17:38:01Z</time>
      </trkpt>
      <trkpt lat="10.3684890" lon="-85.7747938">
        <ele>61.3</ele>
        <time>2022-10-06T17:38:02Z</time>
      </trkpt>
      <trkpt lat="10.3684650" lon="-85.7747528">
        <ele>61.5</ele>
        <time>2022-10-06T17:38:03Z</time>
      </trkpt>
      <trkpt lat="10.3684292" lon="-85.7747241">
        <ele>61.4</ele>
        <time>2022-10-06T17:38:04Z</time>
      </trkpt>
      <trkpt lat="10.3683881" lon="-85.7747135">
        <ele>61.4</ele>
        <time>2022-10-06T17:38:05Z</time>
      </trkpt>
      <trkpt lat="10.3683458" lon="-85.7747174">
        <ele>61.5</ele>
        <time>2022-10-06T17:38:06Z</time>
      </trkpt>
      <trkpt lat="10.3683007" lon="-85.7747358">
        <ele>61.8</ele>
        <time>2022-10-06T17:38:07Z</time>
      </trkpt>
      <trkpt lat="10.3682580" lon="-85.7747705">
        <ele>61.8</ele>
        <time>2022-10-06T17:38:08Z</time>
      </trkpt>
      <trkpt lat="10.3682163" lon="-85.7748155">
        <ele>61.7</ele>
        <time>2022-10-06T17:38:09Z</time>
      </trkpt>
      <trkpt lat="10.3681721" lon="-85.7748646">
        <ele>61.7</ele>
        <time>2022-10-06T17:38:10Z</time>
      </trkpt>
      <trkpt lat="10.3681270" lon="-85.7749173">
        <ele>61.6</ele>
        <time>2022-10-06T17:38:11Z</time>
      </trkpt>
      <trkpt lat="10.3680819" lon="-85.7749694">
        <ele>62.4</ele>
        <time>2022-10-06T17:38:12Z</time>
      </trkpt>
      <trkpt lat="10.3680333" lon="-85.7750241">
        <ele>62.3</ele>
        <time>2022-10-06T17:38:13Z</time>
      </trkpt>
      <trkpt lat="10.3679840" lon="-85.7750792">
        <ele>62.2</ele>
        <time>2022-10-06T17:38:14Z</time>
      </trkpt>
      <trkpt lat="10.3679340" lon="-85.7751367">
        <ele>62.2</ele>
        <time>2022-10-06T17:38:15Z</time>
      </trkpt>
      <trkpt lat="10.3678803" lon="-85.7751973">
        <ele>62.1</ele>
        <time>2022-10-06T17:38:16Z</time>
      </trkpt>
      <trkpt lat="10.3678242" lon="-85.7752603">
        <ele>62.0</ele>
        <time>2022-10-06T17:38:17Z</time>
      </trkpt>
      <trkpt lat="10.3677672" lon="-85.7753264">
        <ele>61.9</ele>
        <time>2022-10-06T17:38:18Z</time>
      </trkpt>
      <trkpt lat="10.3677102" lon="-85.7753961">
        <ele>61.9</ele>
        <time>2022-10-06T17:38:19Z</time>
      </trkpt>
      <trkpt lat="10.3676536" lon="-85.7754627">
        <ele>61.9</ele>
        <time>2022-10-06T17:38:20Z</time>
      </trkpt>
      <trkpt lat="10.3675945" lon="-85.7755303">
        <ele>61.7</ele>
        <time>2022-10-06T17:38:21Z</time>
      </trkpt>
      <trkpt lat="10.3675395" lon="-85.7755920">
        <ele>61.6</ele>
        <time>2022-10-06T17:38:22Z</time>
      </trkpt>
      <trkpt lat="10.3674923" lon="-85.7756461">
        <ele>61.5</ele>
        <time>2022-10-06T17:38:23Z</time>
      </trkpt>
      <trkpt lat="10.3674525" lon="-85.7756919">
        <ele>61.4</ele>
        <time>2022-10-06T17:38:24Z</time>
      </trkpt>
      <trkpt lat="10.3674267" lon="-85.7757236">
        <ele>61.4</ele>
        <time>2022-10-06T17:38:25Z</time>
      </trkpt>
      <trkpt lat="10.3673998" lon="-85.7757563">
        <ele>61.3</ele>
        <time>2022-10-06T17:38:26Z</time>
      </trkpt>
      <trkpt lat="10.3673718" lon="-85.7757881">
        <ele>61.2</ele>
        <time>2022-10-06T17:38:27Z</time>
      </trkpt>
      <trkpt lat="10.3673399" lon="-85.7758246">
        <ele>61.1</ele>
        <time>2022-10-06T17:38:28Z</time>
      </trkpt>
      <trkpt lat="10.3673040" lon="-85.7758657">
        <ele>60.9</ele>
        <time>2022-10-06T17:38:29Z</time>
      </trkpt>
      <trkpt lat="10.3672644" lon="-85.7759106">
        <ele>60.9</ele>
        <time>2022-10-06T17:38:30Z</time>
      </trkpt>
      <trkpt lat="10.3672255" lon="-85.7759577">
        <ele>60.7</ele>
        <time>2022-10-06T17:38:31Z</time>
      </trkpt>
      <trkpt lat="10.3671863" lon="-85.7760064">
        <ele>60.6</ele>
        <time>2022-10-06T17:38:32Z</time>
      </trkpt>
      <trkpt lat="10.3671481" lon="-85.7760525">
        <ele>60.5</ele>
        <time>2022-10-06T17:38:33Z</time>
      </trkpt>
      <trkpt lat="10.3671125" lon="-85.7760960">
        <ele>60.4</ele>
        <time>2022-10-06T17:38:34Z</time>
      </trkpt>
      <trkpt lat="10.3670781" lon="-85.7761365">
        <ele>60.3</ele>
        <time>2022-10-06T17:38:35Z</time>
      </trkpt>
      <trkpt lat="10.3670450" lon="-85.7761739">
        <ele>60.3</ele>
        <time>2022-10-06T17:38:36Z</time>
      </trkpt>
      <trkpt lat="10.3670112" lon="-85.7762116">
        <ele>60.2</ele>
        <time>2022-10-06T17:38:37Z</time>
      </trkpt>
      <trkpt lat="10.3669756" lon="-85.7762505">
        <ele>60.1</ele>
        <time>2022-10-06T17:38:38Z</time>
      </trkpt>
      <trkpt lat="10.3669422" lon="-85.7762893">
        <ele>60.0</ele>
        <time>2022-10-06T17:38:39Z</time>
      </trkpt>
      <trkpt lat="10.3669073" lon="-85.7763285">
        <ele>59.9</ele>
        <time>2022-10-06T17:38:40Z</time>
      </trkpt>
      <trkpt lat="10.3668722" lon="-85.7763674">
        <ele>59.8</ele>
        <time>2022-10-06T17:38:41Z</time>
      </trkpt>
      <trkpt lat="10.3668356" lon="-85.7764070">
        <ele>59.7</ele>
        <time>2022-10-06T17:38:42Z</time>
      </trkpt>
      <trkpt lat="10.3667952" lon="-85.7764524">
        <ele>59.6</ele>
        <time>2022-10-06T17:38:43Z</time>
      </trkpt>
      <trkpt lat="10.3667511" lon="-85.7765018">
        <ele>59.5</ele>
        <time>2022-10-06T17:38:44Z</time>
      </trkpt>
      <trkpt lat="10.3667028" lon="-85.7765577">
        <ele>59.3</ele>
        <time>2022-10-06T17:38:45Z</time>
      </trkpt>
      <trkpt lat="10.3666493" lon="-85.7766191">
        <ele>59.2</ele>
        <time>2022-10-06T17:38:46Z</time>
      </trkpt>
      <trkpt lat="10.3665890" lon="-85.7766861">
        <ele>59.1</ele>
        <time>2022-10-06T17:38:47Z</time>
      </trkpt>
      <trkpt lat="10.3665239" lon="-85.7767596">
        <ele>59.0</ele>
        <time>2022-10-06T17:38:48Z</time>
      </trkpt>
      <trkpt lat="10.3664554" lon="-85.7768403">
        <ele>58.8</ele>
        <time>2022-10-06T17:38:49Z</time>
      </trkpt>
      <trkpt lat="10.3663843" lon="-85.7769243">
        <ele>58.8</ele>
        <time>2022-10-06T17:38:50Z</time>
      </trkpt>
      <trkpt lat="10.3663086" lon="-85.7770145">
        <ele>58.6</ele>
        <time>2022-10-06T17:38:51Z</time>
      </trkpt>
      <trkpt lat="10.3662288" lon="-85.7771081">
        <ele>58.5</ele>
        <time>2022-10-06T17:38:52Z</time>
      </trkpt>
      <trkpt lat="10.3661462" lon="-85.7772036">
        <ele>58.5</ele>
        <time>2022-10-06T17:38:53Z</time>
      </trkpt>
      <trkpt lat="10.3660592" lon="-85.7773001">
        <ele>58.4</ele>
        <time>2022-10-06T17:38:54Z</time>
      </trkpt>
      <trkpt lat="10.3659704" lon="-85.7774010">
        <ele>58.3</ele>
        <time>2022-10-06T17:38:55Z</time>
      </trkpt>
      <trkpt lat="10.3658807" lon="-85.7775066">
        <ele>58.3</ele>
        <time>2022-10-06T17:38:56Z</time>
      </trkpt>
      <trkpt lat="10.3657900" lon="-85.7776123">
        <ele>58.3</ele>
        <time>2022-10-06T17:38:57Z</time>
      </trkpt>
      <trkpt lat="10.3656960" lon="-85.7777192">
        <ele>58.2</ele>
        <time>2022-10-06T17:38:58Z</time>
      </trkpt>
      <trkpt lat="10.3655973" lon="-85.7778251">
        <ele>58.1</ele>
        <time>2022-10-06T17:38:59Z</time>
      </trkpt>
      <trkpt lat="10.3654919" lon="-85.7779313">
        <ele>58.0</ele>
        <time>2022-10-06T17:39:00Z</time>
      </trkpt>
      <trkpt lat="10.3653807" lon="-85.7780322">
        <ele>57.8</ele>
        <time>2022-10-06T17:39:01Z</time>
      </trkpt>
      <trkpt lat="10.3652630" lon="-85.7781246">
        <ele>57.5</ele>
        <time>2022-10-06T17:39:02Z</time>
      </trkpt>
      <trkpt lat="10.3651353" lon="-85.7782123">
        <ele>57.2</ele>
        <time>2022-10-06T17:39:03Z</time>
      </trkpt>
      <trkpt lat="10.3650038" lon="-85.7782926">
        <ele>57.0</ele>
        <time>2022-10-06T17:39:04Z</time>
      </trkpt>
      <trkpt lat="10.3648644" lon="-85.7783685">
        <ele>56.7</ele>
        <time>2022-10-06T17:39:05Z</time>
      </trkpt>
      <trkpt lat="10.3647211" lon="-85.7784373">
        <ele>56.4</ele>
        <time>2022-10-06T17:39:06Z</time>
      </trkpt>
      <trkpt lat="10.3645703" lon="-85.7784966">
        <ele>56.2</ele>
        <time>2022-10-06T17:39:07Z</time>
      </trkpt>
      <trkpt lat="10.3644123" lon="-85.7785470">
        <ele>55.9</ele>
        <time>2022-10-06T17:39:08Z</time>
      </trkpt>
      <trkpt lat="10.3642497" lon="-85.7785859">
        <ele>55.8</ele>
        <time>2022-10-06T17:39:09Z</time>
      </trkpt>
      <trkpt lat="10.3640834" lon="-85.7786188">
        <ele>55.8</ele>
        <time>2022-10-06T17:39:10Z</time>
      </trkpt>
      <trkpt lat="10.3639157" lon="-85.7786457">
        <ele>55.6</ele>
        <time>2022-10-06T17:39:11Z</time>
      </trkpt>
      <trkpt lat="10.3637497" lon="-85.7786677">
        <ele>55.7</ele>
        <time>2022-10-06T17:39:12Z</time>
      </trkpt>
      <trkpt lat="10.3635805" lon="-85.7786862">
        <ele>55.6</ele>
        <time>2022-10-06T17:39:13Z</time>
      </trkpt>
      <trkpt lat="10.3634119" lon="-85.7787038">
        <ele>55.6</ele>
        <time>2022-10-06T17:39:14Z</time>
      </trkpt>
      <trkpt lat="10.3632446" lon="-85.7787224">
        <ele>55.5</ele>
        <time>2022-10-06T17:39:15Z</time>
      </trkpt>
      <trkpt lat="10.3630759" lon="-85.7787389">
        <ele>55.5</ele>
        <time>2022-10-06T17:39:16Z</time>
      </trkpt>
      <trkpt lat="10.3629048" lon="-85.7787538">
        <ele>55.4</ele>
        <time>2022-10-06T17:39:17Z</time>
      </trkpt>
      <trkpt lat="10.3627333" lon="-85.7787712">
        <ele>55.4</ele>
        <time>2022-10-06T17:39:18Z</time>
      </trkpt>
      <trkpt lat="10.3625631" lon="-85.7787898">
        <ele>55.5</ele>
        <time>2022-10-06T17:39:19Z</time>
      </trkpt>
      <trkpt lat="10.3623955" lon="-85.7788092">
        <ele>55.4</ele>
        <time>2022-10-06T17:39:20Z</time>
      </trkpt>
      <trkpt lat="10.3622259" lon="-85.7788275">
        <ele>55.5</ele>
        <time>2022-10-06T17:39:21Z</time>
      </trkpt>
      <trkpt lat="10.3620547" lon="-85.7788460">
        <ele>55.6</ele>
        <time>2022-10-06T17:39:22Z</time>
      </trkpt>
      <trkpt lat="10.3618830" lon="-85.7788642">
        <ele>55.6</ele>
        <time>2022-10-06T17:39:23Z</time>
      </trkpt>
      <trkpt lat="10.3617134" lon="-85.7788815">
        <ele>55.6</ele>
        <time>2022-10-06T17:39:24Z</time>
      </trkpt>
      <trkpt lat="10.3615436" lon="-85.7789008">
        <ele>55.7</ele>
        <time>2022-10-06T17:39:25Z</time>
      </trkpt>
      <trkpt lat="10.3613732" lon="-85.7789197">
        <ele>55.7</ele>
        <time>2022-10-06T17:39:26Z</time>
      </trkpt>
      <trkpt lat="10.3612038" lon="-85.7789380">
        <ele>55.7</ele>
        <time>2022-10-06T17:39:27Z</time>
      </trkpt>
      <trkpt lat="10.3610342" lon="-85.7789544">
        <ele>55.8</ele>
        <time>2022-10-06T17:39:28Z</time>
      </trkpt>
      <trkpt lat="10.3608684" lon="-85.7789705">
        <ele>55.9</ele>
        <time>2022-10-06T17:39:29Z</time>
      </trkpt>
      <trkpt lat="10.3607019" lon="-85.7789873">
        <ele>56.1</ele>
        <time>2022-10-06T17:39:30Z</time>
      </trkpt>
      <trkpt lat="10.3605369" lon="-85.7790069">
        <ele>56.2</ele>
        <time>2022-10-06T17:39:31Z</time>
      </trkpt>
      <trkpt lat="10.3603724" lon="-85.7790264">
        <ele>56.3</ele>
        <time>2022-10-06T17:39:32Z</time>
      </trkpt>
      <trkpt lat="10.3602088" lon="-85.7790448">
        <ele>56.5</ele>
        <time>2022-10-06T17:39:33Z</time>
      </trkpt>
      <trkpt lat="10.3600445" lon="-85.7790632">
        <ele>56.6</ele>
        <time>2022-10-06T17:39:34Z</time>
      </trkpt>
      <trkpt lat="10.3598790" lon="-85.7790813">
        <ele>56.8</ele>
        <time>2022-10-06T17:39:35Z</time>
      </trkpt>
      <trkpt lat="10.3597143" lon="-85.7790977">
        <ele>57.0</ele>
        <time>2022-10-06T17:39:36Z</time>
      </trkpt>
      <trkpt lat="10.3595469" lon="-85.7791142">
        <ele>57.1</ele>
        <time>2022-10-06T17:39:37Z</time>
      </trkpt>
      <trkpt lat="10.3593786" lon="-85.7791311">
        <ele>57.2</ele>
        <time>2022-10-06T17:39:38Z</time>
      </trkpt>
      <trkpt lat="10.3592110" lon="-85.7791485">
        <ele>57.6</ele>
        <time>2022-10-06T17:39:39Z</time>
      </trkpt>
      <trkpt lat="10.3590438" lon="-85.7791654">
        <ele>57.9</ele>
        <time>2022-10-06T17:39:40Z</time>
      </trkpt>
      <trkpt lat="10.3588757" lon="-85.7791827">
        <ele>58.3</ele>
        <time>2022-10-06T17:39:41Z</time>
      </trkpt>
      <trkpt lat="10.3587051" lon="-85.7791999">
        <ele>58.8</ele>
        <time>2022-10-06T17:39:42Z</time>
      </trkpt>
      <trkpt lat="10.3585352" lon="-85.7792163">
        <ele>59.5</ele>
        <time>2022-10-06T17:39:43Z</time>
      </trkpt>
      <trkpt lat="10.3583673" lon="-85.7792331">
        <ele>60.0</ele>
        <time>2022-10-06T17:39:44Z</time>
      </trkpt>
      <trkpt lat="10.3581987" lon="-85.7792529">
        <ele>60.7</ele>
        <time>2022-10-06T17:39:45Z</time>
      </trkpt>
      <trkpt lat="10.3580347" lon="-85.7792781">
        <ele>61.0</ele>
        <time>2022-10-06T17:39:46Z</time>
      </trkpt>
      <trkpt lat="10.3578743" lon="-85.7793095">
        <ele>61.2</ele>
        <time>2022-10-06T17:39:47Z</time>
      </trkpt>
      <trkpt lat="10.3577148" lon="-85.7793478">
        <ele>61.2</ele>
        <time>2022-10-06T17:39:48Z</time>
      </trkpt>
      <trkpt lat="10.3575581" lon="-85.7793928">
        <ele>60.8</ele>
        <time>2022-10-06T17:39:49Z</time>
      </trkpt>
      <trkpt lat="10.3574030" lon="-85.7794445">
        <ele>60.5</ele>
        <time>2022-10-06T17:39:50Z</time>
      </trkpt>
      <trkpt lat="10.3572491" lon="-85.7795010">
        <ele>60.1</ele>
        <time>2022-10-06T17:39:51Z</time>
      </trkpt>
      <trkpt lat="10.3570948" lon="-85.7795631">
        <ele>60.2</ele>
        <time>2022-10-06T17:39:52Z</time>
      </trkpt>
      <trkpt lat="10.3569427" lon="-85.7796320">
        <ele>59.9</ele>
        <time>2022-10-06T17:39:53Z</time>
      </trkpt>
      <trkpt lat="10.3567919" lon="-85.7797050">
        <ele>59.8</ele>
        <time>2022-10-06T17:39:54Z</time>
      </trkpt>
      <trkpt lat="10.3566411" lon="-85.7797840">
        <ele>59.9</ele>
        <time>2022-10-06T17:39:55Z</time>
      </trkpt>
      <trkpt lat="10.3564917" lon="-85.7798650">
        <ele>60.0</ele>
        <time>2022-10-06T17:39:56Z</time>
      </trkpt>
      <trkpt lat="10.3563410" lon="-85.7799469">
        <ele>60.2</ele>
        <time>2022-10-06T17:39:57Z</time>
      </trkpt>
      <trkpt lat="10.3561916" lon="-85.7800301">
        <ele>60.4</ele>
        <time>2022-10-06T17:39:58Z</time>
      </trkpt>
      <trkpt lat="10.3560425" lon="-85.7801101">
        <ele>60.5</ele>
        <time>2022-10-06T17:39:59Z</time>
      </trkpt>
      <trkpt lat="10.3558920" lon="-85.7801906">
        <ele>60.6</ele>
        <time>2022-10-06T17:40:00Z</time>
      </trkpt>
      <trkpt lat="10.3557441" lon="-85.7802703">
        <ele>60.7</ele>
        <time>2022-10-06T17:40:01Z</time>
      </trkpt>
      <trkpt lat="10.3555965" lon="-85.7803520">
        <ele>60.9</ele>
        <time>2022-10-06T17:40:02Z</time>
      </trkpt>
      <trkpt lat="10.3554482" lon="-85.7804321">
        <ele>61.2</ele>
        <time>2022-10-06T17:40:03Z</time>
      </trkpt>
      <trkpt lat="10.3552961" lon="-85.7805131">
        <ele>61.5</ele>
        <time>2022-10-06T17:40:04Z</time>
      </trkpt>
      <trkpt lat="10.3551453" lon="-85.7805941">
        <ele>61.9</ele>
        <time>2022-10-06T17:40:05Z</time>
      </trkpt>
      <trkpt lat="10.3549952" lon="-85.7806743">
        <ele>62.4</ele>
        <time>2022-10-06T17:40:06Z</time>
      </trkpt>
      <trkpt lat="10.3548453" lon="-85.7807546">
        <ele>62.8</ele>
        <time>2022-10-06T17:40:07Z</time>
      </trkpt>
      <trkpt lat="10.3546941" lon="-85.7808375">
        <ele>63.2</ele>
        <time>2022-10-06T17:40:08Z</time>
      </trkpt>
      <trkpt lat="10.3545470" lon="-85.7809175">
        <ele>63.1</ele>
        <time>2022-10-06T17:40:09Z</time>
      </trkpt>
      <trkpt lat="10.3544003" lon="-85.7810000">
        <ele>63.0</ele>
        <time>2022-10-06T17:40:10Z</time>
      </trkpt>
      <trkpt lat="10.3542534" lon="-85.7810817">
        <ele>62.7</ele>
        <time>2022-10-06T17:40:11Z</time>
      </trkpt>
      <trkpt lat="10.3541039" lon="-85.7811611">
        <ele>62.7</ele>
        <time>2022-10-06T17:40:12Z</time>
      </trkpt>
      <trkpt lat="10.3539553" lon="-85.7812411">
        <ele>62.2</ele>
        <time>2022-10-06T17:40:13Z</time>
      </trkpt>
      <trkpt lat="10.3537994" lon="-85.7813271">
        <ele>61.7</ele>
        <time>2022-10-06T17:40:14Z</time>
      </trkpt>
      <trkpt lat="10.3536434" lon="-85.7814123">
        <ele>61.1</ele>
        <time>2022-10-06T17:40:15Z</time>
      </trkpt>
      <trkpt lat="10.3534875" lon="-85.7814976">
        <ele>60.6</ele>
        <time>2022-10-06T17:40:16Z</time>
      </trkpt>
      <trkpt lat="10.3533311" lon="-85.7815839">
        <ele>60.0</ele>
        <time>2022-10-06T17:40:17Z</time>
      </trkpt>
      <trkpt lat="10.3531726" lon="-85.7816701">
        <ele>59.4</ele>
        <time>2022-10-06T17:40:18Z</time>
      </trkpt>
      <trkpt lat="10.3530138" lon="-85.7817569">
        <ele>58.7</ele>
        <time>2022-10-06T17:40:19Z</time>
      </trkpt>
      <trkpt lat="10.3528555" lon="-85.7818425">
        <ele>57.9</ele>
        <time>2022-10-06T17:40:20Z</time>
      </trkpt>
      <trkpt lat="10.3526950" lon="-85.7819283">
        <ele>57.2</ele>
        <time>2022-10-06T17:40:21Z</time>
      </trkpt>
      <trkpt lat="10.3525359" lon="-85.7820133">
        <ele>56.6</ele>
        <time>2022-10-06T17:40:22Z</time>
      </trkpt>
      <trkpt lat="10.3523772" lon="-85.7820981">
        <ele>55.8</ele>
        <time>2022-10-06T17:40:23Z</time>
      </trkpt>
      <trkpt lat="10.3522194" lon="-85.7821808">
        <ele>55.1</ele>
        <time>2022-10-06T17:40:24Z</time>
      </trkpt>
      <trkpt lat="10.3520619" lon="-85.7822669">
        <ele>54.3</ele>
        <time>2022-10-06T17:40:25Z</time>
      </trkpt>
      <trkpt lat="10.3519023" lon="-85.7823534">
        <ele>53.5</ele>
        <time>2022-10-06T17:40:26Z</time>
      </trkpt>
      <trkpt lat="10.3517428" lon="-85.7824412">
        <ele>52.8</ele>
        <time>2022-10-06T17:40:27Z</time>
      </trkpt>
      <trkpt lat="10.3515810" lon="-85.7825302">
        <ele>52.3</ele>
        <time>2022-10-06T17:40:28Z</time>
      </trkpt>
      <trkpt lat="10.3514184" lon="-85.7826209">
        <ele>51.9</ele>
        <time>2022-10-06T17:40:29Z</time>
      </trkpt>
      <trkpt lat="10.3512570" lon="-85.7827095">
        <ele>51.6</ele>
        <time>2022-10-06T17:40:30Z</time>
      </trkpt>
      <trkpt lat="10.3510941" lon="-85.7827977">
        <ele>51.5</ele>
        <time>2022-10-06T17:40:31Z</time>
      </trkpt>
      <trkpt lat="10.3509333" lon="-85.7828847">
        <ele>51.5</ele>
        <time>2022-10-06T17:40:32Z</time>
      </trkpt>
      <trkpt lat="10.3507714" lon="-85.7829684">
        <ele>51.5</ele>
        <time>2022-10-06T17:40:33Z</time>
      </trkpt>
      <trkpt lat="10.3506123" lon="-85.7830529">
        <ele>51.5</ele>
        <time>2022-10-06T17:40:34Z</time>
      </trkpt>
      <trkpt lat="10.3504549" lon="-85.7831364">
        <ele>51.6</ele>
        <time>2022-10-06T17:40:35Z</time>
      </trkpt>
      <trkpt lat="10.3502994" lon="-85.7832201">
        <ele>51.6</ele>
        <time>2022-10-06T17:40:36Z</time>
      </trkpt>
      <trkpt lat="10.3501446" lon="-85.7833046">
        <ele>51.7</ele>
        <time>2022-10-06T17:40:37Z</time>
      </trkpt>
      <trkpt lat="10.3499902" lon="-85.7833892">
        <ele>51.9</ele>
        <time>2022-10-06T17:40:38Z</time>
      </trkpt>
      <trkpt lat="10.3498382" lon="-85.7834721">
        <ele>52.0</ele>
        <time>2022-10-06T17:40:39Z</time>
      </trkpt>
      <trkpt lat="10.3496883" lon="-85.7835529">
        <ele>52.0</ele>
        <time>2022-10-06T17:40:40Z</time>
      </trkpt>
      <trkpt lat="10.3495367" lon="-85.7836338">
        <ele>52.1</ele>
        <time>2022-10-06T17:40:41Z</time>
      </trkpt>
      <trkpt lat="10.3493900" lon="-85.7837139">
        <ele>52.0</ele>
        <time>2022-10-06T17:40:42Z</time>
      </trkpt>
      <trkpt lat="10.3492442" lon="-85.7837927">
        <ele>52.1</ele>
        <time>2022-10-06T17:40:43Z</time>
      </trkpt>
      <trkpt lat="10.3490999" lon="-85.7838731">
        <ele>52.1</ele>
        <time>2022-10-06T17:40:44Z</time>
      </trkpt>
      <trkpt lat="10.3489550" lon="-85.7839532">
        <ele>52.1</ele>
        <time>2022-10-06T17:40:45Z</time>
      </trkpt>
      <trkpt lat="10.3488099" lon="-85.7840319">
        <ele>52.0</ele>
        <time>2022-10-06T17:40:46Z</time>
      </trkpt>
      <trkpt lat="10.3486654" lon="-85.7841081">
        <ele>52.1</ele>
        <time>2022-10-06T17:40:47Z</time>
      </trkpt>
      <trkpt lat="10.3485217" lon="-85.7841850">
        <ele>52.2</ele>
        <time>2022-10-06T17:40:48Z</time>
      </trkpt>
      <trkpt lat="10.3483805" lon="-85.7842623">
        <ele>52.1</ele>
        <time>2022-10-06T17:40:49Z</time>
      </trkpt>
      <trkpt lat="10.3482389" lon="-85.7843393">
        <ele>52.0</ele>
        <time>2022-10-06T17:40:50Z</time>
      </trkpt>
      <trkpt lat="10.3480962" lon="-85.7844163">
        <ele>51.7</ele>
        <time>2022-10-06T17:40:51Z</time>
      </trkpt>
      <trkpt lat="10.3479562" lon="-85.7844920">
        <ele>51.4</ele>
        <time>2022-10-06T17:40:52Z</time>
      </trkpt>
      <trkpt lat="10.3478183" lon="-85.7845652">
        <ele>51.2</ele>
        <time>2022-10-06T17:40:53Z</time>
      </trkpt>
      <trkpt lat="10.3476858" lon="-85.7846370">
        <ele>50.9</ele>
        <time>2022-10-06T17:40:54Z</time>
      </trkpt>
      <trkpt lat="10.3475619" lon="-85.7847049">
        <ele>50.7</ele>
        <time>2022-10-06T17:40:55Z</time>
      </trkpt>
      <trkpt lat="10.3474449" lon="-85.7847708">
        <ele>50.4</ele>
        <time>2022-10-06T17:40:56Z</time>
      </trkpt>
      <trkpt lat="10.3473297" lon="-85.7848360">
        <ele>50.1</ele>
        <time>2022-10-06T17:40:57Z</time>
      </trkpt>
      <trkpt lat="10.3472089" lon="-85.7849022">
        <ele>50.0</ele>
        <time>2022-10-06T17:40:58Z</time>
      </trkpt>
      <trkpt lat="10.3470876" lon="-85.7849682">
        <ele>49.7</ele>
        <time>2022-10-06T17:40:59Z</time>
      </trkpt>
      <trkpt lat="10.3469660" lon="-85.7850343">
        <ele>49.5</ele>
        <time>2022-10-06T17:41:00Z</time>
      </trkpt>
      <trkpt lat="10.3468409" lon="-85.7851018">
        <ele>49.3</ele>
        <time>2022-10-06T17:41:01Z</time>
      </trkpt>
      <trkpt lat="10.3467141" lon="-85.7851712">
        <ele>49.4</ele>
        <time>2022-10-06T17:41:02Z</time>
      </trkpt>
      <trkpt lat="10.3465885" lon="-85.7852392">
        <ele>49.4</ele>
        <time>2022-10-06T17:41:03Z</time>
      </trkpt>
      <trkpt lat="10.3464619" lon="-85.7853068">
        <ele>49.4</ele>
        <time>2022-10-06T17:41:04Z</time>
      </trkpt>
      <trkpt lat="10.3463308" lon="-85.7853744">
        <ele>49.5</ele>
        <time>2022-10-06T17:41:05Z</time>
      </trkpt>
      <trkpt lat="10.3462003" lon="-85.7854429">
        <ele>49.6</ele>
        <time>2022-10-06T17:41:06Z</time>
      </trkpt>
      <trkpt lat="10.3460720" lon="-85.7855105">
        <ele>49.7</ele>
        <time>2022-10-06T17:41:07Z</time>
      </trkpt>
      <trkpt lat="10.3459466" lon="-85.7855780">
        <ele>49.7</ele>
        <time>2022-10-06T17:41:08Z</time>
      </trkpt>
      <trkpt lat="10.3458212" lon="-85.7856451">
        <ele>49.8</ele>
        <time>2022-10-06T17:41:09Z</time>
      </trkpt>
      <trkpt lat="10.3456949" lon="-85.7857127">
        <ele>49.8</ele>
        <time>2022-10-06T17:41:10Z</time>
      </trkpt>
      <trkpt lat="10.3455690" lon="-85.7857801">
        <ele>49.8</ele>
        <time>2022-10-06T17:41:11Z</time>
      </trkpt>
      <trkpt lat="10.3454457" lon="-85.7858483">
        <ele>49.9</ele>
        <time>2022-10-06T17:41:12Z</time>
      </trkpt>
      <trkpt lat="10.3453241" lon="-85.7859150">
        <ele>50.0</ele>
        <time>2022-10-06T17:41:13Z</time>
      </trkpt>
      <trkpt lat="10.3451991" lon="-85.7859839">
        <ele>50.1</ele>
        <time>2022-10-06T17:41:14Z</time>
      </trkpt>
      <trkpt lat="10.3450733" lon="-85.7860512">
        <ele>50.2</ele>
        <time>2022-10-06T17:41:15Z</time>
      </trkpt>
      <trkpt lat="10.3449478" lon="-85.7861199">
        <ele>50.2</ele>
        <time>2022-10-06T17:41:16Z</time>
      </trkpt>
      <trkpt lat="10.3448209" lon="-85.7861889">
        <ele>50.4</ele>
        <time>2022-10-06T17:41:17Z</time>
      </trkpt>
      <trkpt lat="10.3446939" lon="-85.7862558">
        <ele>50.6</ele>
        <time>2022-10-06T17:41:18Z</time>
      </trkpt>
      <trkpt lat="10.3445687" lon="-85.7863231">
        <ele>50.8</ele>
        <time>2022-10-06T17:41:19Z</time>
      </trkpt>
      <trkpt lat="10.3444417" lon="-85.7863894">
        <ele>50.9</ele>
        <time>2022-10-06T17:41:20Z</time>
      </trkpt>
      <trkpt lat="10.3443139" lon="-85.7864594">
        <ele>51.1</ele>
        <time>2022-10-06T17:41:21Z</time>
      </trkpt>
      <trkpt lat="10.3441857" lon="-85.7865307">
        <ele>51.3</ele>
        <time>2022-10-06T17:41:22Z</time>
      </trkpt>
      <trkpt lat="10.3440517" lon="-85.7866029">
        <ele>51.3</ele>
        <time>2022-10-06T17:41:23Z</time>
      </trkpt>
      <trkpt lat="10.3439155" lon="-85.7866764">
        <ele>51.4</ele>
        <time>2022-10-06T17:41:24Z</time>
      </trkpt>
      <trkpt lat="10.3437794" lon="-85.7867490">
        <ele>51.4</ele>
        <time>2022-10-06T17:41:25Z</time>
      </trkpt>
      <trkpt lat="10.3436392" lon="-85.7868232">
        <ele>51.4</ele>
        <time>2022-10-06T17:41:26Z</time>
      </trkpt>
      <trkpt lat="10.3434968" lon="-85.7868979">
        <ele>51.2</ele>
        <time>2022-10-06T17:41:27Z</time>
      </trkpt>
      <trkpt lat="10.3433555" lon="-85.7869708">
        <ele>51.1</ele>
        <time>2022-10-06T17:41:28Z</time>
      </trkpt>
      <trkpt lat="10.3432149" lon="-85.7870443">
        <ele>50.9</ele>
        <time>2022-10-06T17:41:29Z</time>
      </trkpt>
      <trkpt lat="10.3430773" lon="-85.7871192">
        <ele>50.7</ele>
        <time>2022-10-06T17:41:30Z</time>
      </trkpt>
      <trkpt lat="10.3429451" lon="-85.7871929">
        <ele>50.6</ele>
        <time>2022-10-06T17:41:31Z</time>
      </trkpt>
      <trkpt lat="10.3428174" lon="-85.7872651">
        <ele>50.4</ele>
        <time>2022-10-06T17:41:32Z</time>
      </trkpt>
      <trkpt lat="10.3426917" lon="-85.7873342">
        <ele>50.2</ele>
        <time>2022-10-06T17:41:33Z</time>
      </trkpt>
      <trkpt lat="10.3425646" lon="-85.7874020">
        <ele>50.1</ele>
        <time>2022-10-06T17:41:34Z</time>
      </trkpt>
      <trkpt lat="10.3424439" lon="-85.7874668">
        <ele>50.1</ele>
        <time>2022-10-06T17:41:35Z</time>
      </trkpt>
      <trkpt lat="10.3423231" lon="-85.7875333">
        <ele>50.0</ele>
        <time>2022-10-06T17:41:36Z</time>
      </trkpt>
      <trkpt lat="10.3422019" lon="-85.7875999">
        <ele>49.9</ele>
        <time>2022-10-06T17:41:37Z</time>
      </trkpt>
      <trkpt lat="10.3420781" lon="-85.7876672">
        <ele>49.8</ele>
        <time>2022-10-06T17:41:38Z</time>
      </trkpt>
      <trkpt lat="10.3419583" lon="-85.7877326">
        <ele>49.6</ele>
        <time>2022-10-06T17:41:39Z</time>
      </trkpt>
      <trkpt lat="10.3418354" lon="-85.7877989">
        <ele>49.5</ele>
        <time>2022-10-06T17:41:40Z</time>
      </trkpt>
      <trkpt lat="10.3417145" lon="-85.7878635">
        <ele>49.6</ele>
        <time>2022-10-06T17:41:41Z</time>
      </trkpt>
      <trkpt lat="10.3415944" lon="-85.7879253">
        <ele>49.6</ele>
        <time>2022-10-06T17:41:42Z</time>
      </trkpt>
      <trkpt lat="10.3414747" lon="-85.7879883">
        <ele>49.9</ele>
        <time>2022-10-06T17:41:43Z</time>
      </trkpt>
      <trkpt lat="10.3413557" lon="-85.7880529">
        <ele>49.9</ele>
        <time>2022-10-06T17:41:44Z</time>
      </trkpt>
      <trkpt lat="10.3412322" lon="-85.7881183">
        <ele>50.0</ele>
        <time>2022-10-06T17:41:45Z</time>
      </trkpt>
      <trkpt lat="10.3411106" lon="-85.7881821">
        <ele>50.2</ele>
        <time>2022-10-06T17:41:46Z</time>
      </trkpt>
      <trkpt lat="10.3409896" lon="-85.7882462">
        <ele>50.3</ele>
        <time>2022-10-06T17:41:47Z</time>
      </trkpt>
      <trkpt lat="10.3408715" lon="-85.7883108">
        <ele>50.4</ele>
        <time>2022-10-06T17:41:48Z</time>
      </trkpt>
      <trkpt lat="10.3407536" lon="-85.7883741">
        <ele>50.5</ele>
        <time>2022-10-06T17:41:49Z</time>
      </trkpt>
      <trkpt lat="10.3406383" lon="-85.7884377">
        <ele>50.7</ele>
        <time>2022-10-06T17:41:50Z</time>
      </trkpt>
      <trkpt lat="10.3405251" lon="-85.7885005">
        <ele>50.9</ele>
        <time>2022-10-06T17:41:51Z</time>
      </trkpt>
      <trkpt lat="10.3404132" lon="-85.7885617">
        <ele>51.1</ele>
        <time>2022-10-06T17:41:52Z</time>
      </trkpt>
      <trkpt lat="10.3403039" lon="-85.7886233">
        <ele>51.1</ele>
        <time>2022-10-06T17:41:53Z</time>
      </trkpt>
      <trkpt lat="10.3401933" lon="-85.7886825">
        <ele>51.3</ele>
        <time>2022-10-06T17:41:54Z</time>
      </trkpt>
      <trkpt lat="10.3400797" lon="-85.7887417">
        <ele>51.5</ele>
        <time>2022-10-06T17:41:55Z</time>
      </trkpt>
      <trkpt lat="10.3399682" lon="-85.7888034">
        <ele>51.6</ele>
        <time>2022-10-06T17:41:56Z</time>
      </trkpt>
      <trkpt lat="10.3398563" lon="-85.7888668">
        <ele>51.7</ele>
        <time>2022-10-06T17:41:57Z</time>
      </trkpt>
      <trkpt lat="10.3397410" lon="-85.7889318">
        <ele>51.7</ele>
        <time>2022-10-06T17:41:58Z</time>
      </trkpt>
      <trkpt lat="10.3396221" lon="-85.7889961">
        <ele>51.8</ele>
        <time>2022-10-06T17:41:59Z</time>
      </trkpt>
      <trkpt lat="10.3395036" lon="-85.7890593">
        <ele>51.9</ele>
        <time>2022-10-06T17:42:00Z</time>
      </trkpt>
      <trkpt lat="10.3393840" lon="-85.7891217">
        <ele>52.0</ele>
        <time>2022-10-06T17:42:01Z</time>
      </trkpt>
      <trkpt lat="10.3392618" lon="-85.7891856">
        <ele>52.0</ele>
        <time>2022-10-06T17:42:02Z</time>
      </trkpt>
      <trkpt lat="10.3391390" lon="-85.7892492">
        <ele>52.1</ele>
        <time>2022-10-06T17:42:03Z</time>
      </trkpt>
      <trkpt lat="10.3390146" lon="-85.7893152">
        <ele>52.3</ele>
        <time>2022-10-06T17:42:04Z</time>
      </trkpt>
      <trkpt lat="10.3388898" lon="-85.7893819">
        <ele>52.3</ele>
        <time>2022-10-06T17:42:05Z</time>
      </trkpt>
      <trkpt lat="10.3387656" lon="-85.7894484">
        <ele>52.4</ele>
        <time>2022-10-06T17:42:06Z</time>
      </trkpt>
      <trkpt lat="10.3386400" lon="-85.7895157">
        <ele>52.5</ele>
        <time>2022-10-06T17:42:07Z</time>
      </trkpt>
      <trkpt lat="10.3385140" lon="-85.7895840">
        <ele>52.6</ele>
        <time>2022-10-06T17:42:08Z</time>
      </trkpt>
      <trkpt lat="10.3383862" lon="-85.7896546">
        <ele>52.7</ele>
        <time>2022-10-06T17:42:09Z</time>
      </trkpt>
      <trkpt lat="10.3382578" lon="-85.7897243">
        <ele>52.9</ele>
        <time>2022-10-06T17:42:10Z</time>
      </trkpt>
      <trkpt lat="10.3381296" lon="-85.7897941">
        <ele>53.0</ele>
        <time>2022-10-06T17:42:11Z</time>
      </trkpt>
      <trkpt lat="10.3380012" lon="-85.7898626">
        <ele>53.1</ele>
        <time>2022-10-06T17:42:12Z</time>
      </trkpt>
      <trkpt lat="10.3378730" lon="-85.7899303">
        <ele>53.1</ele>
        <time>2022-10-06T17:42:13Z</time>
      </trkpt>
      <trkpt lat="10.3377452" lon="-85.7899972">
        <ele>53.1</ele>
        <time>2022-10-06T17:42:14Z</time>
      </trkpt>
      <trkpt lat="10.3376136" lon="-85.7900660">
        <ele>53.2</ele>
        <time>2022-10-06T17:42:15Z</time>
      </trkpt>
      <trkpt lat="10.3374861" lon="-85.7901342">
        <ele>53.2</ele>
        <time>2022-10-06T17:42:16Z</time>
      </trkpt>
      <trkpt lat="10.3373594" lon="-85.7902021">
        <ele>53.2</ele>
        <time>2022-10-06T17:42:17Z</time>
      </trkpt>
      <trkpt lat="10.3372382" lon="-85.7902678">
        <ele>53.3</ele>
        <time>2022-10-06T17:42:18Z</time>
      </trkpt>
      <trkpt lat="10.3371270" lon="-85.7903283">
        <ele>53.4</ele>
        <time>2022-10-06T17:42:19Z</time>
      </trkpt>
      <trkpt lat="10.3370255" lon="-85.7903850">
        <ele>53.4</ele>
        <time>2022-10-06T17:42:20Z</time>
      </trkpt>
      <trkpt lat="10.3369322" lon="-85.7904347">
        <ele>53.3</ele>
        <time>2022-10-06T17:42:21Z</time>
      </trkpt>
      <trkpt lat="10.3368504" lon="-85.7904794">
        <ele>53.3</ele>
        <time>2022-10-06T17:42:22Z</time>
      </trkpt>
      <trkpt lat="10.3367725" lon="-85.7905213">
        <ele>53.1</ele>
        <time>2022-10-06T17:42:23Z</time>
      </trkpt>
      <trkpt lat="10.3366931" lon="-85.7905637">
        <ele>52.9</ele>
        <time>2022-10-06T17:42:24Z</time>
      </trkpt>
      <trkpt lat="10.3366161" lon="-85.7906052">
        <ele>52.7</ele>
        <time>2022-10-06T17:42:25Z</time>
      </trkpt>
      <trkpt lat="10.3365441" lon="-85.7906433">
        <ele>52.5</ele>
        <time>2022-10-06T17:42:26Z</time>
      </trkpt>
      <trkpt lat="10.3364782" lon="-85.7906795">
        <ele>52.4</ele>
        <time>2022-10-06T17:42:27Z</time>
      </trkpt>
      <trkpt lat="10.3364208" lon="-85.7907104">
        <ele>52.2</ele>
        <time>2022-10-06T17:42:28Z</time>
      </trkpt>
      <trkpt lat="10.3363736" lon="-85.7907372">
        <ele>52.1</ele>
        <time>2022-10-06T17:42:29Z</time>
      </trkpt>
      <trkpt lat="10.3363344" lon="-85.7907586">
        <ele>52.0</ele>
        <time>2022-10-06T17:42:30Z</time>
      </trkpt>
      <trkpt lat="10.3363031" lon="-85.7907744">
        <ele>51.9</ele>
        <time>2022-10-06T17:42:31Z</time>
      </trkpt>
      <trkpt lat="10.3362728" lon="-85.7907891">
        <ele>51.8</ele>
        <time>2022-10-06T17:42:32Z</time>
      </trkpt>
      <trkpt lat="10.3362493" lon="-85.7908007">
        <ele>51.7</ele>
        <time>2022-10-06T17:42:33Z</time>
      </trkpt>
      <trkpt lat="10.3362343" lon="-85.7908076">
        <ele>51.8</ele>
        <time>2022-10-06T17:42:34Z</time>
      </trkpt>
      <trkpt lat="10.3362171" lon="-85.7908173">
        <ele>51.6</ele>
        <time>2022-10-06T17:42:35Z</time>
      </trkpt>
      <trkpt lat="10.3361977" lon="-85.7908272">
        <ele>51.5</ele>
        <time>2022-10-06T17:42:36Z</time>
      </trkpt>
      <trkpt lat="10.3361733" lon="-85.7908388">
        <ele>51.5</ele>
        <time>2022-10-06T17:42:37Z</time>
      </trkpt>
      <trkpt lat="10.3361507" lon="-85.7908497">
        <ele>51.3</ele>
        <time>2022-10-06T17:42:38Z</time>
      </trkpt>
      <trkpt lat="10.3361251" lon="-85.7908639">
        <ele>51.2</ele>
        <time>2022-10-06T17:42:39Z</time>
      </trkpt>
      <trkpt lat="10.3360997" lon="-85.7908781">
        <ele>51.1</ele>
        <time>2022-10-06T17:42:40Z</time>
      </trkpt>
      <trkpt lat="10.3360800" lon="-85.7908890">
        <ele>51.1</ele>
        <time>2022-10-06T17:42:41Z</time>
      </trkpt>
      <trkpt lat="10.3360601" lon="-85.7908991">
        <ele>51.0</ele>
        <time>2022-10-06T17:42:42Z</time>
      </trkpt>
      <trkpt lat="10.3360390" lon="-85.7909106">
        <ele>50.9</ele>
        <time>2022-10-06T17:42:43Z</time>
      </trkpt>
      <trkpt lat="10.3360063" lon="-85.7909282">
        <ele>50.8</ele>
        <time>2022-10-06T17:42:44Z</time>
      </trkpt>
      <trkpt lat="10.3359596" lon="-85.7909529">
        <ele>50.7</ele>
        <time>2022-10-06T17:42:45Z</time>
      </trkpt>
      <trkpt lat="10.3359041" lon="-85.7909834">
        <ele>50.6</ele>
        <time>2022-10-06T17:42:46Z</time>
      </trkpt>
      <trkpt lat="10.3358411" lon="-85.7910176">
        <ele>50.5</ele>
        <time>2022-10-06T17:42:47Z</time>
      </trkpt>
      <trkpt lat="10.3357752" lon="-85.7910580">
        <ele>50.4</ele>
        <time>2022-10-06T17:42:48Z</time>
      </trkpt>
      <trkpt lat="10.3357026" lon="-85.7911028">
        <ele>50.4</ele>
        <time>2022-10-06T17:42:49Z</time>
      </trkpt>
      <trkpt lat="10.3356252" lon="-85.7911514">
        <ele>50.2</ele>
        <time>2022-10-06T17:42:50Z</time>
      </trkpt>
      <trkpt lat="10.3355471" lon="-85.7912012">
        <ele>50.1</ele>
        <time>2022-10-06T17:42:51Z</time>
      </trkpt>
      <trkpt lat="10.3354664" lon="-85.7912533">
        <ele>50.0</ele>
        <time>2022-10-06T17:42:52Z</time>
      </trkpt>
      <trkpt lat="10.3353850" lon="-85.7913088">
        <ele>49.8</ele>
        <time>2022-10-06T17:42:53Z</time>
      </trkpt>
      <trkpt lat="10.3353008" lon="-85.7913669">
        <ele>49.7</ele>
        <time>2022-10-06T17:42:54Z</time>
      </trkpt>
      <trkpt lat="10.3352204" lon="-85.7914245">
        <ele>49.5</ele>
        <time>2022-10-06T17:42:55Z</time>
      </trkpt>
      <trkpt lat="10.3351453" lon="-85.7914800">
        <ele>49.4</ele>
        <time>2022-10-06T17:42:56Z</time>
      </trkpt>
      <trkpt lat="10.3350801" lon="-85.7915316">
        <ele>49.5</ele>
        <time>2022-10-06T17:42:57Z</time>
      </trkpt>
      <trkpt lat="10.3350167" lon="-85.7915835">
        <ele>49.4</ele>
        <time>2022-10-06T17:42:58Z</time>
      </trkpt>
      <trkpt lat="10.3349578" lon="-85.7916358">
        <ele>49.2</ele>
        <time>2022-10-06T17:42:59Z</time>
      </trkpt>
      <trkpt lat="10.3349019" lon="-85.7916873">
        <ele>49.2</ele>
        <time>2022-10-06T17:43:00Z</time>
      </trkpt>
      <trkpt lat="10.3348480" lon="-85.7917372">
        <ele>49.2</ele>
        <time>2022-10-06T17:43:01Z</time>
      </trkpt>
      <trkpt lat="10.3347986" lon="-85.7917847">
        <ele>49.1</ele>
        <time>2022-10-06T17:43:02Z</time>
      </trkpt>
      <trkpt lat="10.3347522" lon="-85.7918302">
        <ele>49.0</ele>
        <time>2022-10-06T17:43:03Z</time>
      </trkpt>
      <trkpt lat="10.3347069" lon="-85.7918746">
        <ele>49.1</ele>
        <time>2022-10-06T17:43:04Z</time>
      </trkpt>
      <trkpt lat="10.3346674" lon="-85.7919121">
        <ele>49.0</ele>
        <time>2022-10-06T17:43:05Z</time>
      </trkpt>
      <trkpt lat="10.3346354" lon="-85.7919447">
        <ele>49.0</ele>
        <time>2022-10-06T17:43:06Z</time>
      </trkpt>
      <trkpt lat="10.3346126" lon="-85.7919682">
        <ele>49.0</ele>
        <time>2022-10-06T17:43:07Z</time>
      </trkpt>
      <trkpt lat="10.3345979" lon="-85.7919827">
        <ele>49.0</ele>
        <time>2022-10-06T17:43:08Z</time>
      </trkpt>
      <trkpt lat="10.3345858" lon="-85.7919965">
        <ele>48.7</ele>
        <time>2022-10-06T17:43:09Z</time>
      </trkpt>
      <trkpt lat="10.3345753" lon="-85.7920068">
        <ele>48.6</ele>
        <time>2022-10-06T17:43:10Z</time>
      </trkpt>
      <trkpt lat="10.3345616" lon="-85.7920193">
        <ele>48.6</ele>
        <time>2022-10-06T17:43:11Z</time>
      </trkpt>
      <trkpt lat="10.3345486" lon="-85.7920347">
        <ele>48.9</ele>
        <time>2022-10-06T17:43:12Z</time>
      </trkpt>
      <trkpt lat="10.3345340" lon="-85.7920500">
        <ele>48.9</ele>
        <time>2022-10-06T17:43:13Z</time>
      </trkpt>
      <trkpt lat="10.3345196" lon="-85.7920661">
        <ele>48.9</ele>
        <time>2022-10-06T17:43:14Z</time>
      </trkpt>
      <trkpt lat="10.3345040" lon="-85.7920813">
        <ele>48.9</ele>
        <time>2022-10-06T17:43:15Z</time>
      </trkpt>
      <trkpt lat="10.3344905" lon="-85.7920970">
        <ele>48.9</ele>
        <time>2022-10-06T17:43:16Z</time>
      </trkpt>
      <trkpt lat="10.3344758" lon="-85.7921128">
        <ele>48.8</ele>
        <time>2022-10-06T17:43:17Z</time>
      </trkpt>
      <trkpt lat="10.3344596" lon="-85.7921314">
        <ele>48.7</ele>
        <time>2022-10-06T17:43:18Z</time>
      </trkpt>
      <trkpt lat="10.3344457" lon="-85.7921473">
        <ele>48.7</ele>
        <time>2022-10-06T17:43:19Z</time>
      </trkpt>
      <trkpt lat="10.3344289" lon="-85.7921654">
        <ele>48.6</ele>
        <time>2022-10-06T17:43:20Z</time>
      </trkpt>
      <trkpt lat="10.3344038" lon="-85.7921941">
        <ele>48.5</ele>
        <time>2022-10-06T17:43:21Z</time>
      </trkpt>
      <trkpt lat="10.3343735" lon="-85.7922304">
        <ele>48.5</ele>
        <time>2022-10-06T17:43:22Z</time>
      </trkpt>
      <trkpt lat="10.3343369" lon="-85.7922746">
        <ele>48.4</ele>
        <time>2022-10-06T17:43:23Z</time>
      </trkpt>
      <trkpt lat="10.3342934" lon="-85.7923265">
        <ele>48.4</ele>
        <time>2022-10-06T17:43:24Z</time>
      </trkpt>
      <trkpt lat="10.3342450" lon="-85.7923842">
        <ele>48.2</ele>
        <time>2022-10-06T17:43:25Z</time>
      </trkpt>
      <trkpt lat="10.3341925" lon="-85.7924517">
        <ele>48.1</ele>
        <time>2022-10-06T17:43:26Z</time>
      </trkpt>
      <trkpt lat="10.3341355" lon="-85.7925289">
        <ele>48.0</ele>
        <time>2022-10-06T17:43:27Z</time>
      </trkpt>
      <trkpt lat="10.3340757" lon="-85.7926131">
        <ele>48.1</ele>
        <time>2022-10-06T17:43:28Z</time>
      </trkpt>
      <trkpt lat="10.3340114" lon="-85.7927075">
        <ele>47.9</ele>
        <time>2022-10-06T17:43:29Z</time>
      </trkpt>
      <trkpt lat="10.3339451" lon="-85.7928085">
        <ele>47.8</ele>
        <time>2022-10-06T17:43:30Z</time>
      </trkpt>
      <trkpt lat="10.3338800" lon="-85.7929133">
        <ele>47.6</ele>
        <time>2022-10-06T17:43:31Z</time>
      </trkpt>
      <trkpt lat="10.3338172" lon="-85.7930202">
        <ele>47.4</ele>
        <time>2022-10-06T17:43:32Z</time>
      </trkpt>
      <trkpt lat="10.3337576" lon="-85.7931295">
        <ele>47.2</ele>
        <time>2022-10-06T17:43:33Z</time>
      </trkpt>
      <trkpt lat="10.3336976" lon="-85.7932396">
        <ele>47.1</ele>
        <time>2022-10-06T17:43:34Z</time>
      </trkpt>
      <trkpt lat="10.3336394" lon="-85.7933525">
        <ele>47.1</ele>
        <time>2022-10-06T17:43:35Z</time>
      </trkpt>
      <trkpt lat="10.3335843" lon="-85.7934638">
        <ele>46.9</ele>
        <time>2022-10-06T17:43:36Z</time>
      </trkpt>
      <trkpt lat="10.3335296" lon="-85.7935781">
        <ele>46.8</ele>
        <time>2022-10-06T17:43:37Z</time>
      </trkpt>
      <trkpt lat="10.3334739" lon="-85.7936969">
        <ele>46.6</ele>
        <time>2022-10-06T17:43:38Z</time>
      </trkpt>
      <trkpt lat="10.3334173" lon="-85.7938196">
        <ele>46.5</ele>
        <time>2022-10-06T17:43:39Z</time>
      </trkpt>
      <trkpt lat="10.3333573" lon="-85.7939471">
        <ele>46.5</ele>
        <time>2022-10-06T17:43:40Z</time>
      </trkpt>
      <trkpt lat="10.3332952" lon="-85.7940768">
        <ele>46.4</ele>
        <time>2022-10-06T17:43:41Z</time>
      </trkpt>
      <trkpt lat="10.3332323" lon="-85.7942087">
        <ele>46.3</ele>
        <time>2022-10-06T17:43:42Z</time>
      </trkpt>
      <trkpt lat="10.3331698" lon="-85.7943418">
        <ele>46.1</ele>
        <time>2022-10-06T17:43:43Z</time>
      </trkpt>
      <trkpt lat="10.3331074" lon="-85.7944741">
        <ele>46.0</ele>
        <time>2022-10-06T17:43:44Z</time>
      </trkpt>
      <trkpt lat="10.3330465" lon="-85.7946066">
        <ele>45.8</ele>
        <time>2022-10-06T17:43:45Z</time>
      </trkpt>
      <trkpt lat="10.3329860" lon="-85.7947360">
        <ele>45.6</ele>
        <time>2022-10-06T17:43:46Z</time>
      </trkpt>
      <trkpt lat="10.3329278" lon="-85.7948598">
        <ele>45.5</ele>
        <time>2022-10-06T17:43:47Z</time>
      </trkpt>
      <trkpt lat="10.3328726" lon="-85.7949786">
        <ele>45.3</ele>
        <time>2022-10-06T17:43:48Z</time>
      </trkpt>
      <trkpt lat="10.3328182" lon="-85.7950934">
        <ele>45.1</ele>
        <time>2022-10-06T17:43:49Z</time>
      </trkpt>
      <trkpt lat="10.3327648" lon="-85.7952078">
        <ele>45.0</ele>
        <time>2022-10-06T17:43:50Z</time>
      </trkpt>
      <trkpt lat="10.3327122" lon="-85.7953224">
        <ele>44.9</ele>
        <time>2022-10-06T17:43:51Z</time>
      </trkpt>
      <trkpt lat="10.3326595" lon="-85.7954362">
        <ele>44.6</ele>
        <time>2022-10-06T17:43:52Z</time>
      </trkpt>
      <trkpt lat="10.3326079" lon="-85.7955485">
        <ele>44.5</ele>
        <time>2022-10-06T17:43:53Z</time>
      </trkpt>
      <trkpt lat="10.3325552" lon="-85.7956637">
        <ele>44.3</ele>
        <time>2022-10-06T17:43:54Z</time>
      </trkpt>
      <trkpt lat="10.3325032" lon="-85.7957789">
        <ele>44.3</ele>
        <time>2022-10-06T17:43:55Z</time>
      </trkpt>
      <trkpt lat="10.3324500" lon="-85.7958953">
        <ele>44.0</ele>
        <time>2022-10-06T17:43:56Z</time>
      </trkpt>
      <trkpt lat="10.3323969" lon="-85.7960100">
        <ele>43.8</ele>
        <time>2022-10-06T17:43:57Z</time>
      </trkpt>
      <trkpt lat="10.3323445" lon="-85.7961255">
        <ele>43.5</ele>
        <time>2022-10-06T17:43:58Z</time>
      </trkpt>
      <trkpt lat="10.3322906" lon="-85.7962447">
        <ele>43.3</ele>
        <time>2022-10-06T17:43:59Z</time>
      </trkpt>
      <trkpt lat="10.3322368" lon="-85.7963626">
        <ele>43.2</ele>
        <time>2022-10-06T17:44:00Z</time>
      </trkpt>
      <trkpt lat="10.3321818" lon="-85.7964793">
        <ele>43.0</ele>
        <time>2022-10-06T17:44:01Z</time>
      </trkpt>
      <trkpt lat="10.3321261" lon="-85.7965961">
        <ele>42.8</ele>
        <time>2022-10-06T17:44:02Z</time>
      </trkpt>
      <trkpt lat="10.3320720" lon="-85.7967168">
        <ele>42.7</ele>
        <time>2022-10-06T17:44:03Z</time>
      </trkpt>
      <trkpt lat="10.3320170" lon="-85.7968346">
        <ele>42.6</ele>
        <time>2022-10-06T17:44:04Z</time>
      </trkpt>
      <trkpt lat="10.3319614" lon="-85.7969511">
        <ele>42.5</ele>
        <time>2022-10-06T17:44:05Z</time>
      </trkpt>
      <trkpt lat="10.3319043" lon="-85.7970671">
        <ele>42.3</ele>
        <time>2022-10-06T17:44:06Z</time>
      </trkpt>
      <trkpt lat="10.3318473" lon="-85.7971815">
        <ele>42.3</ele>
        <time>2022-10-06T17:44:07Z</time>
      </trkpt>
      <trkpt lat="10.3317887" lon="-85.7972961">
        <ele>42.3</ele>
        <time>2022-10-06T17:44:08Z</time>
      </trkpt>
      <trkpt lat="10.3317251" lon="-85.7974102">
        <ele>42.2</ele>
        <time>2022-10-06T17:44:09Z</time>
      </trkpt>
      <trkpt lat="10.3316569" lon="-85.7975223">
        <ele>42.2</ele>
        <time>2022-10-06T17:44:10Z</time>
      </trkpt>
      <trkpt lat="10.3315868" lon="-85.7976314">
        <ele>42.2</ele>
        <time>2022-10-06T17:44:11Z</time>
      </trkpt>
      <trkpt lat="10.3315143" lon="-85.7977382">
        <ele>43.0</ele>
        <time>2022-10-06T17:44:12Z</time>
      </trkpt>
      <trkpt lat="10.3314374" lon="-85.7978432">
        <ele>43.0</ele>
        <time>2022-10-06T17:44:13Z</time>
      </trkpt>
      <trkpt lat="10.3313592" lon="-85.7979442">
        <ele>42.9</ele>
        <time>2022-10-06T17:44:14Z</time>
      </trkpt>
      <trkpt lat="10.3312771" lon="-85.7980434">
        <ele>42.7</ele>
        <time>2022-10-06T17:44:15Z</time>
      </trkpt>
      <trkpt lat="10.3311899" lon="-85.7981366">
        <ele>42.7</ele>
        <time>2022-10-06T17:44:16Z</time>
      </trkpt>
      <trkpt lat="10.3311014" lon="-85.7982255">
        <ele>42.6</ele>
        <time>2022-10-06T17:44:17Z</time>
      </trkpt>
      <trkpt lat="10.3310113" lon="-85.7983108">
        <ele>42.5</ele>
        <time>2022-10-06T17:44:18Z</time>
      </trkpt>
      <trkpt lat="10.3309169" lon="-85.7983945">
        <ele>42.3</ele>
        <time>2022-10-06T17:44:19Z</time>
      </trkpt>
      <trkpt lat="10.3308177" lon="-85.7984772">
        <ele>42.0</ele>
        <time>2022-10-06T17:44:20Z</time>
      </trkpt>
      <trkpt lat="10.3307147" lon="-85.7985579">
        <ele>42.0</ele>
        <time>2022-10-06T17:44:21Z</time>
      </trkpt>
      <trkpt lat="10.3306072" lon="-85.7986367">
        <ele>41.6</ele>
        <time>2022-10-06T17:44:22Z</time>
      </trkpt>
      <trkpt lat="10.3304936" lon="-85.7987142">
        <ele>41.3</ele>
        <time>2022-10-06T17:44:23Z</time>
      </trkpt>
      <trkpt lat="10.3303807" lon="-85.7987873">
        <ele>41.0</ele>
        <time>2022-10-06T17:44:24Z</time>
      </trkpt>
      <trkpt lat="10.3302648" lon="-85.7988555">
        <ele>40.7</ele>
        <time>2022-10-06T17:44:25Z</time>
      </trkpt>
      <trkpt lat="10.3301463" lon="-85.7989171">
        <ele>40.5</ele>
        <time>2022-10-06T17:44:26Z</time>
      </trkpt>
      <trkpt lat="10.3300269" lon="-85.7989735">
        <ele>40.2</ele>
        <time>2022-10-06T17:44:27Z</time>
      </trkpt>
      <trkpt lat="10.3299036" lon="-85.7990268">
        <ele>40.0</ele>
        <time>2022-10-06T17:44:28Z</time>
      </trkpt>
      <trkpt lat="10.3297765" lon="-85.7990756">
        <ele>39.9</ele>
        <time>2022-10-06T17:44:29Z</time>
      </trkpt>
      <trkpt lat="10.3296480" lon="-85.7991180">
        <ele>39.8</ele>
        <time>2022-10-06T17:44:30Z</time>
      </trkpt>
      <trkpt lat="10.3295199" lon="-85.7991553">
        <ele>39.7</ele>
        <time>2022-10-06T17:44:31Z</time>
      </trkpt>
      <trkpt lat="10.3293921" lon="-85.7991897">
        <ele>39.6</ele>
        <time>2022-10-06T17:44:32Z</time>
      </trkpt>
      <trkpt lat="10.3292648" lon="-85.7992253">
        <ele>39.6</ele>
        <time>2022-10-06T17:44:33Z</time>
      </trkpt>
      <trkpt lat="10.3291373" lon="-85.7992624">
        <ele>39.7</ele>
        <time>2022-10-06T17:44:34Z</time>
      </trkpt>
      <trkpt lat="10.3290083" lon="-85.7992982">
        <ele>39.9</ele>
        <time>2022-10-06T17:44:35Z</time>
      </trkpt>
      <trkpt lat="10.3288799" lon="-85.7993311">
        <ele>39.8</ele>
        <time>2022-10-06T17:44:36Z</time>
      </trkpt>
      <trkpt lat="10.3287493" lon="-85.7993642">
        <ele>39.8</ele>
        <time>2022-10-06T17:44:37Z</time>
      </trkpt>
      <trkpt lat="10.3286184" lon="-85.7993963">
        <ele>40.0</ele>
        <time>2022-10-06T17:44:38Z</time>
      </trkpt>
      <trkpt lat="10.3284863" lon="-85.7994258">
        <ele>40.0</ele>
        <time>2022-10-06T17:44:39Z</time>
      </trkpt>
      <trkpt lat="10.3283464" lon="-85.7994537">
        <ele>39.9</ele>
        <time>2022-10-06T17:44:40Z</time>
      </trkpt>
      <trkpt lat="10.3282034" lon="-85.7994768">
        <ele>39.8</ele>
        <time>2022-10-06T17:44:41Z</time>
      </trkpt>
      <trkpt lat="10.3280579" lon="-85.7994935">
        <ele>39.8</ele>
        <time>2022-10-06T17:44:42Z</time>
      </trkpt>
      <trkpt lat="10.3279124" lon="-85.7995054">
        <ele>39.7</ele>
        <time>2022-10-06T17:44:43Z</time>
      </trkpt>
      <trkpt lat="10.3277697" lon="-85.7995147">
        <ele>39.7</ele>
        <time>2022-10-06T17:44:44Z</time>
      </trkpt>
      <trkpt lat="10.3276292" lon="-85.7995194">
        <ele>39.6</ele>
        <time>2022-10-06T17:44:45Z</time>
      </trkpt>
      <trkpt lat="10.3274898" lon="-85.7995209">
        <ele>39.5</ele>
        <time>2022-10-06T17:44:46Z</time>
      </trkpt>
      <trkpt lat="10.3273523" lon="-85.7995178">
        <ele>39.4</ele>
        <time>2022-10-06T17:44:47Z</time>
      </trkpt>
      <trkpt lat="10.3272159" lon="-85.7995098">
        <ele>39.1</ele>
        <time>2022-10-06T17:44:48Z</time>
      </trkpt>
      <trkpt lat="10.3270835" lon="-85.7995018">
        <ele>39.0</ele>
        <time>2022-10-06T17:44:49Z</time>
      </trkpt>
      <trkpt lat="10.3269501" lon="-85.7994911">
        <ele>38.9</ele>
        <time>2022-10-06T17:44:50Z</time>
      </trkpt>
      <trkpt lat="10.3268172" lon="-85.7994801">
        <ele>38.7</ele>
        <time>2022-10-06T17:44:51Z</time>
      </trkpt>
      <trkpt lat="10.3266794" lon="-85.7994735">
        <ele>38.6</ele>
        <time>2022-10-06T17:44:52Z</time>
      </trkpt>
      <trkpt lat="10.3265379" lon="-85.7994715">
        <ele>38.4</ele>
        <time>2022-10-06T17:44:53Z</time>
      </trkpt>
      <trkpt lat="10.3263976" lon="-85.7994780">
        <ele>38.2</ele>
        <time>2022-10-06T17:44:54Z</time>
      </trkpt>
      <trkpt lat="10.3262652" lon="-85.7994871">
        <ele>38.1</ele>
        <time>2022-10-06T17:44:55Z</time>
      </trkpt>
      <trkpt lat="10.3261389" lon="-85.7995007">
        <ele>38.1</ele>
        <time>2022-10-06T17:44:56Z</time>
      </trkpt>
      <trkpt lat="10.3260145" lon="-85.7995159">
        <ele>38.1</ele>
        <time>2022-10-06T17:44:57Z</time>
      </trkpt>
      <trkpt lat="10.3258917" lon="-85.7995335">
        <ele>38.0</ele>
        <time>2022-10-06T17:44:58Z</time>
      </trkpt>
      <trkpt lat="10.3257693" lon="-85.7995553">
        <ele>38.1</ele>
        <time>2022-10-06T17:44:59Z</time>
      </trkpt>
      <trkpt lat="10.3256405" lon="-85.7995828">
        <ele>38.2</ele>
        <time>2022-10-06T17:45:00Z</time>
      </trkpt>
      <trkpt lat="10.3255087" lon="-85.7996168">
        <ele>38.4</ele>
        <time>2022-10-06T17:45:01Z</time>
      </trkpt>
      <trkpt lat="10.3253756" lon="-85.7996572">
        <ele>38.6</ele>
        <time>2022-10-06T17:45:02Z</time>
      </trkpt>
      <trkpt lat="10.3252416" lon="-85.7997026">
        <ele>38.7</ele>
        <time>2022-10-06T17:45:03Z</time>
      </trkpt>
      <trkpt lat="10.3251061" lon="-85.7997538">
        <ele>39.0</ele>
        <time>2022-10-06T17:45:04Z</time>
      </trkpt>
      <trkpt lat="10.3249754" lon="-85.7998092">
        <ele>39.1</ele>
        <time>2022-10-06T17:45:05Z</time>
      </trkpt>
      <trkpt lat="10.3248496" lon="-85.7998691">
        <ele>39.2</ele>
        <time>2022-10-06T17:45:06Z</time>
      </trkpt>
      <trkpt lat="10.3247248" lon="-85.7999314">
        <ele>39.2</ele>
        <time>2022-10-06T17:45:07Z</time>
      </trkpt>
      <trkpt lat="10.3246040" lon="-85.7999944">
        <ele>39.3</ele>
        <time>2022-10-06T17:45:08Z</time>
      </trkpt>
      <trkpt lat="10.3244841" lon="-85.8000574">
        <ele>39.3</ele>
        <time>2022-10-06T17:45:09Z</time>
      </trkpt>
      <trkpt lat="10.3243636" lon="-85.8001214">
        <ele>39.2</ele>
        <time>2022-10-06T17:45:10Z</time>
      </trkpt>
      <trkpt lat="10.3242438" lon="-85.8001863">
        <ele>39.2</ele>
        <time>2022-10-06T17:45:11Z</time>
      </trkpt>
      <trkpt lat="10.3241200" lon="-85.8002522">
        <ele>39.2</ele>
        <time>2022-10-06T17:45:12Z</time>
      </trkpt>
      <trkpt lat="10.3239966" lon="-85.8003185">
        <ele>39.1</ele>
        <time>2022-10-06T17:45:13Z</time>
      </trkpt>
      <trkpt lat="10.3238743" lon="-85.8003856">
        <ele>39.0</ele>
        <time>2022-10-06T17:45:14Z</time>
      </trkpt>
      <trkpt lat="10.3237504" lon="-85.8004531">
        <ele>39.0</ele>
        <time>2022-10-06T17:45:15Z</time>
      </trkpt>
      <trkpt lat="10.3236245" lon="-85.8005182">
        <ele>39.0</ele>
        <time>2022-10-06T17:45:16Z</time>
      </trkpt>
      <trkpt lat="10.3234964" lon="-85.8005808">
        <ele>39.1</ele>
        <time>2022-10-06T17:45:17Z</time>
      </trkpt>
      <trkpt lat="10.3233696" lon="-85.8006378">
        <ele>39.0</ele>
        <time>2022-10-06T17:45:18Z</time>
      </trkpt>
      <trkpt lat="10.3232416" lon="-85.8006891">
        <ele>39.0</ele>
        <time>2022-10-06T17:45:19Z</time>
      </trkpt>
      <trkpt lat="10.3231078" lon="-85.8007368">
        <ele>39.0</ele>
        <time>2022-10-06T17:45:20Z</time>
      </trkpt>
      <trkpt lat="10.3229744" lon="-85.8007830">
        <ele>39.1</ele>
        <time>2022-10-06T17:45:21Z</time>
      </trkpt>
      <trkpt lat="10.3228375" lon="-85.8008206">
        <ele>38.9</ele>
        <time>2022-10-06T17:45:22Z</time>
      </trkpt>
      <trkpt lat="10.3226995" lon="-85.8008559">
        <ele>38.9</ele>
        <time>2022-10-06T17:45:23Z</time>
      </trkpt>
      <trkpt lat="10.3225631" lon="-85.8008922">
        <ele>38.8</ele>
        <time>2022-10-06T17:45:24Z</time>
      </trkpt>
      <trkpt lat="10.3224307" lon="-85.8009267">
        <ele>38.8</ele>
        <time>2022-10-06T17:45:25Z</time>
      </trkpt>
      <trkpt lat="10.3222994" lon="-85.8009605">
        <ele>38.7</ele>
        <time>2022-10-06T17:45:26Z</time>
      </trkpt>
      <trkpt lat="10.3221687" lon="-85.8009962">
        <ele>38.6</ele>
        <time>2022-10-06T17:45:27Z</time>
      </trkpt>
      <trkpt lat="10.3220387" lon="-85.8010315">
        <ele>38.6</ele>
        <time>2022-10-06T17:45:28Z</time>
      </trkpt>
      <trkpt lat="10.3219029" lon="-85.8010659">
        <ele>38.6</ele>
        <time>2022-10-06T17:45:29Z</time>
      </trkpt>
      <trkpt lat="10.3217654" lon="-85.8011007">
        <ele>38.6</ele>
        <time>2022-10-06T17:45:30Z</time>
      </trkpt>
      <trkpt lat="10.3216277" lon="-85.8011370">
        <ele>38.5</ele>
        <time>2022-10-06T17:45:31Z</time>
      </trkpt>
      <trkpt lat="10.3214905" lon="-85.8011734">
        <ele>38.5</ele>
        <time>2022-10-06T17:45:32Z</time>
      </trkpt>
      <trkpt lat="10.3213572" lon="-85.8012110">
        <ele>38.5</ele>
        <time>2022-10-06T17:45:33Z</time>
      </trkpt>
      <trkpt lat="10.3212252" lon="-85.8012491">
        <ele>38.5</ele>
        <time>2022-10-06T17:45:34Z</time>
      </trkpt>
      <trkpt lat="10.3210938" lon="-85.8012890">
        <ele>38.5</ele>
        <time>2022-10-06T17:45:35Z</time>
      </trkpt>
      <trkpt lat="10.3209571" lon="-85.8013299">
        <ele>38.5</ele>
        <time>2022-10-06T17:45:36Z</time>
      </trkpt>
      <trkpt lat="10.3208214" lon="-85.8013713">
        <ele>38.5</ele>
        <time>2022-10-06T17:45:37Z</time>
      </trkpt>
      <trkpt lat="10.3206866" lon="-85.8014135">
        <ele>38.5</ele>
        <time>2022-10-06T17:45:38Z</time>
      </trkpt>
      <trkpt lat="10.3205539" lon="-85.8014548">
        <ele>38.6</ele>
        <time>2022-10-06T17:45:39Z</time>
      </trkpt>
      <trkpt lat="10.3204207" lon="-85.8014967">
        <ele>38.5</ele>
        <time>2022-10-06T17:45:40Z</time>
      </trkpt>
      <trkpt lat="10.3202895" lon="-85.8015397">
        <ele>38.6</ele>
        <time>2022-10-06T17:45:41Z</time>
      </trkpt>
      <trkpt lat="10.3201615" lon="-85.8015826">
        <ele>38.5</ele>
        <time>2022-10-06T17:45:42Z</time>
      </trkpt>
      <trkpt lat="10.3200365" lon="-85.8016232">
        <ele>38.6</ele>
        <time>2022-10-06T17:45:43Z</time>
      </trkpt>
      <trkpt lat="10.3199164" lon="-85.8016646">
        <ele>38.5</ele>
        <time>2022-10-06T17:45:44Z</time>
      </trkpt>
      <trkpt lat="10.3198021" lon="-85.8017042">
        <ele>38.6</ele>
        <time>2022-10-06T17:45:45Z</time>
      </trkpt>
      <trkpt lat="10.3196900" lon="-85.8017422">
        <ele>38.6</ele>
        <time>2022-10-06T17:45:46Z</time>
      </trkpt>
      <trkpt lat="10.3195766" lon="-85.8017785">
        <ele>38.8</ele>
        <time>2022-10-06T17:45:47Z</time>
      </trkpt>
      <trkpt lat="10.3194645" lon="-85.8018167">
        <ele>38.9</ele>
        <time>2022-10-06T17:45:48Z</time>
      </trkpt>
      <trkpt lat="10.3193517" lon="-85.8018522">
        <ele>39.1</ele>
        <time>2022-10-06T17:45:49Z</time>
      </trkpt>
      <trkpt lat="10.3192397" lon="-85.8018836">
        <ele>39.3</ele>
        <time>2022-10-06T17:45:50Z</time>
      </trkpt>
      <trkpt lat="10.3191272" lon="-85.8019156">
        <ele>39.6</ele>
        <time>2022-10-06T17:45:51Z</time>
      </trkpt>
      <trkpt lat="10.3190159" lon="-85.8019461">
        <ele>39.7</ele>
        <time>2022-10-06T17:45:52Z</time>
      </trkpt>
      <trkpt lat="10.3189052" lon="-85.8019754">
        <ele>40.0</ele>
        <time>2022-10-06T17:45:53Z</time>
      </trkpt>
      <trkpt lat="10.3187977" lon="-85.8020049">
        <ele>40.2</ele>
        <time>2022-10-06T17:45:54Z</time>
      </trkpt>
      <trkpt lat="10.3186921" lon="-85.8020338">
        <ele>40.4</ele>
        <time>2022-10-06T17:45:55Z</time>
      </trkpt>
      <trkpt lat="10.3185925" lon="-85.8020613">
        <ele>40.5</ele>
        <time>2022-10-06T17:45:56Z</time>
      </trkpt>
      <trkpt lat="10.3184963" lon="-85.8020877">
        <ele>40.7</ele>
        <time>2022-10-06T17:45:57Z</time>
      </trkpt>
      <trkpt lat="10.3184020" lon="-85.8021152">
        <ele>40.7</ele>
        <time>2022-10-06T17:45:58Z</time>
      </trkpt>
      <trkpt lat="10.3183116" lon="-85.8021415">
        <ele>40.7</ele>
        <time>2022-10-06T17:45:59Z</time>
      </trkpt>
      <trkpt lat="10.3182218" lon="-85.8021684">
        <ele>40.5</ele>
        <time>2022-10-06T17:46:00Z</time>
      </trkpt>
      <trkpt lat="10.3181304" lon="-85.8021961">
        <ele>40.7</ele>
        <time>2022-10-06T17:46:01Z</time>
      </trkpt>
      <trkpt lat="10.3180382" lon="-85.8022268">
        <ele>40.5</ele>
        <time>2022-10-06T17:46:02Z</time>
      </trkpt>
      <trkpt lat="10.3179531" lon="-85.8022568">
        <ele>40.2</ele>
        <time>2022-10-06T17:46:03Z</time>
      </trkpt>
      <trkpt lat="10.3178775" lon="-85.8022840">
        <ele>40.2</ele>
        <time>2022-10-06T17:46:04Z</time>
      </trkpt>
      <trkpt lat="10.3178126" lon="-85.8023075">
        <ele>40.0</ele>
        <time>2022-10-06T17:46:05Z</time>
      </trkpt>
      <trkpt lat="10.3177572" lon="-85.8023281">
        <ele>39.8</ele>
        <time>2022-10-06T17:46:06Z</time>
      </trkpt>
      <trkpt lat="10.3177077" lon="-85.8023465">
        <ele>39.6</ele>
        <time>2022-10-06T17:46:07Z</time>
      </trkpt>
      <trkpt lat="10.3176627" lon="-85.8023639">
        <ele>39.5</ele>
        <time>2022-10-06T17:46:08Z</time>
      </trkpt>
      <trkpt lat="10.3176157" lon="-85.8023832">
        <ele>39.3</ele>
        <time>2022-10-06T17:46:09Z</time>
      </trkpt>
      <trkpt lat="10.3175667" lon="-85.8024054">
        <ele>39.3</ele>
        <time>2022-10-06T17:46:10Z</time>
      </trkpt>
      <trkpt lat="10.3175111" lon="-85.8024320">
        <ele>39.2</ele>
        <time>2022-10-06T17:46:11Z</time>
      </trkpt>
      <trkpt lat="10.3174462" lon="-85.8024635">
        <ele>39.2</ele>
        <time>2022-10-06T17:46:12Z</time>
      </trkpt>
      <trkpt lat="10.3173778" lon="-85.8025002">
        <ele>39.1</ele>
        <time>2022-10-06T17:46:13Z</time>
      </trkpt>
      <trkpt lat="10.3173060" lon="-85.8025386">
        <ele>39.1</ele>
        <time>2022-10-06T17:46:14Z</time>
      </trkpt>
      <trkpt lat="10.3172306" lon="-85.8025826">
        <ele>38.9</ele>
        <time>2022-10-06T17:46:15Z</time>
      </trkpt>
      <trkpt lat="10.3171501" lon="-85.8026304">
        <ele>38.9</ele>
        <time>2022-10-06T17:46:16Z</time>
      </trkpt>
      <trkpt lat="10.3170634" lon="-85.8026842">
        <ele>38.9</ele>
        <time>2022-10-06T17:46:17Z</time>
      </trkpt>
      <trkpt lat="10.3169715" lon="-85.8027436">
        <ele>38.8</ele>
        <time>2022-10-06T17:46:18Z</time>
      </trkpt>
      <trkpt lat="10.3168790" lon="-85.8028042">
        <ele>38.8</ele>
        <time>2022-10-06T17:46:19Z</time>
      </trkpt>
      <trkpt lat="10.3167821" lon="-85.8028720">
        <ele>38.9</ele>
        <time>2022-10-06T17:46:20Z</time>
      </trkpt>
      <trkpt lat="10.3166827" lon="-85.8029438">
        <ele>39.0</ele>
        <time>2022-10-06T17:46:21Z</time>
      </trkpt>
      <trkpt lat="10.3165835" lon="-85.8030198">
        <ele>39.1</ele>
        <time>2022-10-06T17:46:22Z</time>
      </trkpt>
      <trkpt lat="10.3164835" lon="-85.8031003">
        <ele>39.0</ele>
        <time>2022-10-06T17:46:23Z</time>
      </trkpt>
      <trkpt lat="10.3163896" lon="-85.8031843">
        <ele>39.1</ele>
        <time>2022-10-06T17:46:24Z</time>
      </trkpt>
      <trkpt lat="10.3162968" lon="-85.8032704">
        <ele>39.2</ele>
        <time>2022-10-06T17:46:25Z</time>
      </trkpt>
      <trkpt lat="10.3162095" lon="-85.8033570">
        <ele>39.2</ele>
        <time>2022-10-06T17:46:26Z</time>
      </trkpt>
      <trkpt lat="10.3161252" lon="-85.8034431">
        <ele>39.3</ele>
        <time>2022-10-06T17:46:27Z</time>
      </trkpt>
      <trkpt lat="10.3160441" lon="-85.8035299">
        <ele>39.4</ele>
        <time>2022-10-06T17:46:28Z</time>
      </trkpt>
      <trkpt lat="10.3159606" lon="-85.8036209">
        <ele>39.4</ele>
        <time>2022-10-06T17:46:29Z</time>
      </trkpt>
      <trkpt lat="10.3158785" lon="-85.8037116">
        <ele>39.5</ele>
        <time>2022-10-06T17:46:30Z</time>
      </trkpt>
      <trkpt lat="10.3157990" lon="-85.8037988">
        <ele>39.5</ele>
        <time>2022-10-06T17:46:31Z</time>
      </trkpt>
      <trkpt lat="10.3157220" lon="-85.8038847">
        <ele>39.7</ele>
        <time>2022-10-06T17:46:32Z</time>
      </trkpt>
      <trkpt lat="10.3156502" lon="-85.8039645">
        <ele>39.9</ele>
        <time>2022-10-06T17:46:33Z</time>
      </trkpt>
      <trkpt lat="10.3155822" lon="-85.8040389">
        <ele>40.2</ele>
        <time>2022-10-06T17:46:34Z</time>
      </trkpt>
      <trkpt lat="10.3155236" lon="-85.8041048">
        <ele>40.4</ele>
        <time>2022-10-06T17:46:35Z</time>
      </trkpt>
      <trkpt lat="10.3154683" lon="-85.8041658">
        <ele>40.6</ele>
        <time>2022-10-06T17:46:36Z</time>
      </trkpt>
      <trkpt lat="10.3154129" lon="-85.8042285">
        <ele>41.0</ele>
        <time>2022-10-06T17:46:37Z</time>
      </trkpt>
      <trkpt lat="10.3153548" lon="-85.8042932">
        <ele>41.2</ele>
        <time>2022-10-06T17:46:38Z</time>
      </trkpt>
      <trkpt lat="10.3152950" lon="-85.8043586">
        <ele>41.3</ele>
        <time>2022-10-06T17:46:39Z</time>
      </trkpt>
      <trkpt lat="10.3152336" lon="-85.8044255">
        <ele>41.5</ele>
        <time>2022-10-06T17:46:40Z</time>
      </trkpt>
      <trkpt lat="10.3151732" lon="-85.8044907">
        <ele>41.6</ele>
        <time>2022-10-06T17:46:41Z</time>
      </trkpt>
      <trkpt lat="10.3151170" lon="-85.8045524">
        <ele>41.6</ele>
        <time>2022-10-06T17:46:42Z</time>
      </trkpt>
      <trkpt lat="10.3150618" lon="-85.8046130">
        <ele>41.6</ele>
        <time>2022-10-06T17:46:43Z</time>
      </trkpt>
      <trkpt lat="10.3150067" lon="-85.8046731">
        <ele>41.7</ele>
        <time>2022-10-06T17:46:44Z</time>
      </trkpt>
      <trkpt lat="10.3149592" lon="-85.8047255">
        <ele>41.6</ele>
        <time>2022-10-06T17:46:45Z</time>
      </trkpt>
      <trkpt lat="10.3149151" lon="-85.8047738">
        <ele>41.6</ele>
        <time>2022-10-06T17:46:46Z</time>
      </trkpt>
      <trkpt lat="10.3148706" lon="-85.8048212">
        <ele>41.6</ele>
        <time>2022-10-06T17:46:47Z</time>
      </trkpt>
      <trkpt lat="10.3148259" lon="-85.8048698">
        <ele>41.5</ele>
        <time>2022-10-06T17:46:48Z</time>
      </trkpt>
      <trkpt lat="10.3147785" lon="-85.8049193">
        <ele>41.6</ele>
        <time>2022-10-06T17:46:49Z</time>
      </trkpt>
      <trkpt lat="10.3147326" lon="-85.8049695">
        <ele>41.6</ele>
        <time>2022-10-06T17:46:50Z</time>
      </trkpt>
      <trkpt lat="10.3146834" lon="-85.8050227">
        <ele>41.6</ele>
        <time>2022-10-06T17:46:51Z</time>
      </trkpt>
      <trkpt lat="10.3146266" lon="-85.8050840">
        <ele>41.6</ele>
        <time>2022-10-06T17:46:52Z</time>
      </trkpt>
      <trkpt lat="10.3145650" lon="-85.8051512">
        <ele>41.6</ele>
        <time>2022-10-06T17:46:53Z</time>
      </trkpt>
      <trkpt lat="10.3144998" lon="-85.8052212">
        <ele>41.5</ele>
        <time>2022-10-06T17:46:54Z</time>
      </trkpt>
      <trkpt lat="10.3144281" lon="-85.8052963">
        <ele>41.6</ele>
        <time>2022-10-06T17:46:55Z</time>
      </trkpt>
      <trkpt lat="10.3143531" lon="-85.8053732">
        <ele>41.5</ele>
        <time>2022-10-06T17:46:56Z</time>
      </trkpt>
      <trkpt lat="10.3142744" lon="-85.8054562">
        <ele>41.3</ele>
        <time>2022-10-06T17:46:57Z</time>
      </trkpt>
      <trkpt lat="10.3141949" lon="-85.8055427">
        <ele>41.1</ele>
        <time>2022-10-06T17:46:58Z</time>
      </trkpt>
      <trkpt lat="10.3141137" lon="-85.8056306">
        <ele>41.1</ele>
        <time>2022-10-06T17:46:59Z</time>
      </trkpt>
      <trkpt lat="10.3140312" lon="-85.8057209">
        <ele>40.9</ele>
        <time>2022-10-06T17:47:00Z</time>
      </trkpt>
      <trkpt lat="10.3139507" lon="-85.8058102">
        <ele>40.9</ele>
        <time>2022-10-06T17:47:01Z</time>
      </trkpt>
      <trkpt lat="10.3138691" lon="-85.8059006">
        <ele>40.8</ele>
        <time>2022-10-06T17:47:02Z</time>
      </trkpt>
      <trkpt lat="10.3137852" lon="-85.8059948">
        <ele>40.7</ele>
        <time>2022-10-06T17:47:03Z</time>
      </trkpt>
      <trkpt lat="10.3137018" lon="-85.8060904">
        <ele>40.7</ele>
        <time>2022-10-06T17:47:04Z</time>
      </trkpt>
      <trkpt lat="10.3136184" lon="-85.8061842">
        <ele>40.8</ele>
        <time>2022-10-06T17:47:05Z</time>
      </trkpt>
      <trkpt lat="10.3135340" lon="-85.8062760">
        <ele>40.8</ele>
        <time>2022-10-06T17:47:06Z</time>
      </trkpt>
      <trkpt lat="10.3134454" lon="-85.8063620">
        <ele>40.9</ele>
        <time>2022-10-06T17:47:07Z</time>
      </trkpt>
      <trkpt lat="10.3133608" lon="-85.8064407">
        <ele>40.9</ele>
        <time>2022-10-06T17:47:08Z</time>
      </trkpt>
      <trkpt lat="10.3132794" lon="-85.8065110">
        <ele>40.8</ele>
        <time>2022-10-06T17:47:09Z</time>
      </trkpt>
      <trkpt lat="10.3131991" lon="-85.8065741">
        <ele>40.7</ele>
        <time>2022-10-06T17:47:10Z</time>
      </trkpt>
      <trkpt lat="10.3131172" lon="-85.8066316">
        <ele>40.7</ele>
        <time>2022-10-06T17:47:11Z</time>
      </trkpt>
      <trkpt lat="10.3130307" lon="-85.8066864">
        <ele>40.7</ele>
        <time>2022-10-06T17:47:12Z</time>
      </trkpt>
      <trkpt lat="10.3129351" lon="-85.8067348">
        <ele>40.3</ele>
        <time>2022-10-06T17:47:13Z</time>
      </trkpt>
      <trkpt lat="10.3128409" lon="-85.8067819">
        <ele>40.3</ele>
        <time>2022-10-06T17:47:14Z</time>
      </trkpt>
      <trkpt lat="10.3127404" lon="-85.8068254">
        <ele>40.4</ele>
        <time>2022-10-06T17:47:15Z</time>
      </trkpt>
      <trkpt lat="10.3126406" lon="-85.8068637">
        <ele>40.4</ele>
        <time>2022-10-06T17:47:16Z</time>
      </trkpt>
      <trkpt lat="10.3125420" lon="-85.8068970">
        <ele>40.6</ele>
        <time>2022-10-06T17:47:17Z</time>
      </trkpt>
      <trkpt lat="10.3124398" lon="-85.8069246">
        <ele>40.7</ele>
        <time>2022-10-06T17:47:18Z</time>
      </trkpt>
      <trkpt lat="10.3123371" lon="-85.8069441">
        <ele>41.0</ele>
        <time>2022-10-06T17:47:19Z</time>
      </trkpt>
      <trkpt lat="10.3122332" lon="-85.8069580">
        <ele>41.2</ele>
        <time>2022-10-06T17:47:20Z</time>
      </trkpt>
      <trkpt lat="10.3121256" lon="-85.8069691">
        <ele>41.4</ele>
        <time>2022-10-06T17:47:21Z</time>
      </trkpt>
      <trkpt lat="10.3120141" lon="-85.8069765">
        <ele>41.7</ele>
        <time>2022-10-06T17:47:22Z</time>
      </trkpt>
      <trkpt lat="10.3119036" lon="-85.8069805">
        <ele>41.9</ele>
        <time>2022-10-06T17:47:23Z</time>
      </trkpt>
      <trkpt lat="10.3117976" lon="-85.8069816">
        <ele>42.1</ele>
        <time>2022-10-06T17:47:24Z</time>
      </trkpt>
      <trkpt lat="10.3116890" lon="-85.8069827">
        <ele>42.2</ele>
        <time>2022-10-06T17:47:25Z</time>
      </trkpt>
      <trkpt lat="10.3115815" lon="-85.8069812">
        <ele>42.3</ele>
        <time>2022-10-06T17:47:26Z</time>
      </trkpt>
      <trkpt lat="10.3114752" lon="-85.8069803">
        <ele>42.4</ele>
        <time>2022-10-06T17:47:27Z</time>
      </trkpt>
      <trkpt lat="10.3113678" lon="-85.8069800">
        <ele>42.4</ele>
        <time>2022-10-06T17:47:28Z</time>
      </trkpt>
      <trkpt lat="10.3112599" lon="-85.8069789">
        <ele>42.4</ele>
        <time>2022-10-06T17:47:29Z</time>
      </trkpt>
      <trkpt lat="10.3111516" lon="-85.8069770">
        <ele>42.4</ele>
        <time>2022-10-06T17:47:30Z</time>
      </trkpt>
      <trkpt lat="10.3110402" lon="-85.8069736">
        <ele>42.5</ele>
        <time>2022-10-06T17:47:31Z</time>
      </trkpt>
      <trkpt lat="10.3109254" lon="-85.8069703">
        <ele>42.4</ele>
        <time>2022-10-06T17:47:32Z</time>
      </trkpt>
      <trkpt lat="10.3108097" lon="-85.8069652">
        <ele>42.4</ele>
        <time>2022-10-06T17:47:33Z</time>
      </trkpt>
      <trkpt lat="10.3106896" lon="-85.8069613">
        <ele>42.6</ele>
        <time>2022-10-06T17:47:34Z</time>
      </trkpt>
      <trkpt lat="10.3105722" lon="-85.8069584">
        <ele>42.7</ele>
        <time>2022-10-06T17:47:35Z</time>
      </trkpt>
      <trkpt lat="10.3104536" lon="-85.8069552">
        <ele>43.1</ele>
        <time>2022-10-06T17:47:36Z</time>
      </trkpt>
      <trkpt lat="10.3103404" lon="-85.8069520">
        <ele>43.6</ele>
        <time>2022-10-06T17:47:37Z</time>
      </trkpt>
      <trkpt lat="10.3102309" lon="-85.8069493">
        <ele>44.0</ele>
        <time>2022-10-06T17:47:38Z</time>
      </trkpt>
      <trkpt lat="10.3101179" lon="-85.8069466">
        <ele>44.1</ele>
        <time>2022-10-06T17:47:39Z</time>
      </trkpt>
      <trkpt lat="10.3100062" lon="-85.8069440">
        <ele>44.9</ele>
        <time>2022-10-06T17:47:40Z</time>
      </trkpt>
      <trkpt lat="10.3099043" lon="-85.8069444">
        <ele>45.5</ele>
        <time>2022-10-06T17:47:41Z</time>
      </trkpt>
      <trkpt lat="10.3098017" lon="-85.8069446">
        <ele>45.6</ele>
        <time>2022-10-06T17:47:42Z</time>
      </trkpt>
      <trkpt lat="10.3096979" lon="-85.8069451">
        <ele>45.7</ele>
        <time>2022-10-06T17:47:43Z</time>
      </trkpt>
      <trkpt lat="10.3095934" lon="-85.8069430">
        <ele>46.4</ele>
        <time>2022-10-06T17:47:44Z</time>
      </trkpt>
      <trkpt lat="10.3094873" lon="-85.8069410">
        <ele>46.9</ele>
        <time>2022-10-06T17:47:45Z</time>
      </trkpt>
      <trkpt lat="10.3093821" lon="-85.8069369">
        <ele>47.4</ele>
        <time>2022-10-06T17:47:46Z</time>
      </trkpt>
      <trkpt lat="10.3092809" lon="-85.8069310">
        <ele>47.8</ele>
        <time>2022-10-06T17:47:47Z</time>
      </trkpt>
      <trkpt lat="10.3091801" lon="-85.8069232">
        <ele>48.1</ele>
        <time>2022-10-06T17:47:48Z</time>
      </trkpt>
      <trkpt lat="10.3090812" lon="-85.8069109">
        <ele>48.3</ele>
        <time>2022-10-06T17:47:49Z</time>
      </trkpt>
      <trkpt lat="10.3089794" lon="-85.8068960">
        <ele>48.4</ele>
        <time>2022-10-06T17:47:50Z</time>
      </trkpt>
      <trkpt lat="10.3088738" lon="-85.8068739">
        <ele>48.4</ele>
        <time>2022-10-06T17:47:51Z</time>
      </trkpt>
      <trkpt lat="10.3087684" lon="-85.8068482">
        <ele>48.3</ele>
        <time>2022-10-06T17:47:52Z</time>
      </trkpt>
      <trkpt lat="10.3086647" lon="-85.8068198">
        <ele>48.4</ele>
        <time>2022-10-06T17:47:53Z</time>
      </trkpt>
      <trkpt lat="10.3085603" lon="-85.8067836">
        <ele>48.2</ele>
        <time>2022-10-06T17:47:54Z</time>
      </trkpt>
      <trkpt lat="10.3084538" lon="-85.8067457">
        <ele>48.5</ele>
        <time>2022-10-06T17:47:55Z</time>
      </trkpt>
      <trkpt lat="10.3083566" lon="-85.8067066">
        <ele>48.3</ele>
        <time>2022-10-06T17:47:56Z</time>
      </trkpt>
      <trkpt lat="10.3082701" lon="-85.8066713">
        <ele>48.3</ele>
        <time>2022-10-06T17:47:57Z</time>
      </trkpt>
      <trkpt lat="10.3081906" lon="-85.8066318">
        <ele>48.1</ele>
        <time>2022-10-06T17:47:58Z</time>
      </trkpt>
      <trkpt lat="10.3081180" lon="-85.8065885">
        <ele>48.0</ele>
        <time>2022-10-06T17:47:59Z</time>
      </trkpt>
      <trkpt lat="10.3080466" lon="-85.8065473">
        <ele>48.0</ele>
        <time>2022-10-06T17:48:00Z</time>
      </trkpt>
      <trkpt lat="10.3079754" lon="-85.8065016">
        <ele>47.8</ele>
        <time>2022-10-06T17:48:01Z</time>
      </trkpt>
      <trkpt lat="10.3079042" lon="-85.8064540">
        <ele>47.7</ele>
        <time>2022-10-06T17:48:02Z</time>
      </trkpt>
      <trkpt lat="10.3078336" lon="-85.8064069">
        <ele>47.7</ele>
        <time>2022-10-06T17:48:03Z</time>
      </trkpt>
      <trkpt lat="10.3077649" lon="-85.8063598">
        <ele>47.6</ele>
        <time>2022-10-06T17:48:04Z</time>
      </trkpt>
      <trkpt lat="10.3077004" lon="-85.8063147">
        <ele>47.7</ele>
        <time>2022-10-06T17:48:05Z</time>
      </trkpt>
      <trkpt lat="10.3076362" lon="-85.8062713">
        <ele>47.6</ele>
        <time>2022-10-06T17:48:06Z</time>
      </trkpt>
      <trkpt lat="10.3075761" lon="-85.8062284">
        <ele>47.6</ele>
        <time>2022-10-06T17:48:07Z</time>
      </trkpt>
      <trkpt lat="10.3075157" lon="-85.8061820">
        <ele>47.6</ele>
        <time>2022-10-06T17:48:08Z</time>
      </trkpt>
      <trkpt lat="10.3074622" lon="-85.8061418">
        <ele>47.6</ele>
        <time>2022-10-06T17:48:09Z</time>
      </trkpt>
      <trkpt lat="10.3074150" lon="-85.8061054">
        <ele>47.6</ele>
        <time>2022-10-06T17:48:10Z</time>
      </trkpt>
      <trkpt lat="10.3073761" lon="-85.8060768">
        <ele>47.5</ele>
        <time>2022-10-06T17:48:11Z</time>
      </trkpt>
      <trkpt lat="10.3073458" lon="-85.8060556">
        <ele>47.6</ele>
        <time>2022-10-06T17:48:12Z</time>
      </trkpt>
      <trkpt lat="10.3073169" lon="-85.8060334">
        <ele>47.6</ele>
        <time>2022-10-06T17:48:13Z</time>
      </trkpt>
      <trkpt lat="10.3072898" lon="-85.8060161">
        <ele>47.5</ele>
        <time>2022-10-06T17:48:14Z</time>
      </trkpt>
      <trkpt lat="10.3072635" lon="-85.8059997">
        <ele>47.5</ele>
        <time>2022-10-06T17:48:15Z</time>
      </trkpt>
      <trkpt lat="10.3072395" lon="-85.8059842">
        <ele>47.4</ele>
        <time>2022-10-06T17:48:16Z</time>
      </trkpt>
      <trkpt lat="10.3072206" lon="-85.8059730">
        <ele>47.4</ele>
        <time>2022-10-06T17:48:17Z</time>
      </trkpt>
      <trkpt lat="10.3072026" lon="-85.8059630">
        <ele>47.4</ele>
        <time>2022-10-06T17:48:18Z</time>
      </trkpt>
      <trkpt lat="10.3071855" lon="-85.8059541">
        <ele>47.5</ele>
        <time>2022-10-06T17:48:19Z</time>
      </trkpt>
      <trkpt lat="10.3071679" lon="-85.8059438">
        <ele>47.4</ele>
        <time>2022-10-06T17:48:20Z</time>
      </trkpt>
      <trkpt lat="10.3071493" lon="-85.8059324">
        <ele>47.4</ele>
        <time>2022-10-06T17:48:21Z</time>
      </trkpt>
      <trkpt lat="10.3071338" lon="-85.8059241">
        <ele>47.4</ele>
        <time>2022-10-06T17:48:22Z</time>
      </trkpt>
      <trkpt lat="10.3071214" lon="-85.8059139">
        <ele>47.5</ele>
        <time>2022-10-06T17:48:23Z</time>
      </trkpt>
      <trkpt lat="10.3070995" lon="-85.8058986">
        <ele>47.4</ele>
        <time>2022-10-06T17:48:24Z</time>
      </trkpt>
      <trkpt lat="10.3070714" lon="-85.8058802">
        <ele>47.4</ele>
        <time>2022-10-06T17:48:25Z</time>
      </trkpt>
      <trkpt lat="10.3070505" lon="-85.8058680">
        <ele>47.5</ele>
        <time>2022-10-06T17:48:26Z</time>
      </trkpt>
      <trkpt lat="10.3070282" lon="-85.8058556">
        <ele>47.5</ele>
        <time>2022-10-06T17:48:27Z</time>
      </trkpt>
      <trkpt lat="10.3069955" lon="-85.8058363">
        <ele>47.5</ele>
        <time>2022-10-06T17:48:28Z</time>
      </trkpt>
      <trkpt lat="10.3069454" lon="-85.8058124">
        <ele>47.7</ele>
        <time>2022-10-06T17:48:29Z</time>
      </trkpt>
      <trkpt lat="10.3068835" lon="-85.8057816">
        <ele>48.1</ele>
        <time>2022-10-06T17:48:30Z</time>
      </trkpt>
      <trkpt lat="10.3068117" lon="-85.8057439">
        <ele>48.5</ele>
        <time>2022-10-06T17:48:31Z</time>
      </trkpt>
      <trkpt lat="10.3067331" lon="-85.8056984">
        <ele>48.9</ele>
        <time>2022-10-06T17:48:32Z</time>
      </trkpt>
      <trkpt lat="10.3066572" lon="-85.8056527">
        <ele>48.9</ele>
        <time>2022-10-06T17:48:33Z</time>
      </trkpt>
      <trkpt lat="10.3065777" lon="-85.8056054">
        <ele>49.4</ele>
        <time>2022-10-06T17:48:34Z</time>
      </trkpt>
      <trkpt lat="10.3064995" lon="-85.8055589">
        <ele>49.8</ele>
        <time>2022-10-06T17:48:35Z</time>
      </trkpt>
      <trkpt lat="10.3064230" lon="-85.8055135">
        <ele>50.1</ele>
        <time>2022-10-06T17:48:36Z</time>
      </trkpt>
      <trkpt lat="10.3063481" lon="-85.8054704">
        <ele>50.3</ele>
        <time>2022-10-06T17:48:37Z</time>
      </trkpt>
      <trkpt lat="10.3062847" lon="-85.8054351">
        <ele>50.4</ele>
        <time>2022-10-06T17:48:38Z</time>
      </trkpt>
      <trkpt lat="10.3062283" lon="-85.8054027">
        <ele>50.6</ele>
        <time>2022-10-06T17:48:39Z</time>
      </trkpt>
      <trkpt lat="10.3061787" lon="-85.8053745">
        <ele>50.6</ele>
        <time>2022-10-06T17:48:40Z</time>
      </trkpt>
      <trkpt lat="10.3061401" lon="-85.8053526">
        <ele>50.5</ele>
        <time>2022-10-06T17:48:41Z</time>
      </trkpt>
      <trkpt lat="10.3061085" lon="-85.8053353">
        <ele>50.6</ele>
        <time>2022-10-06T17:48:42Z</time>
      </trkpt>
      <trkpt lat="10.3060807" lon="-85.8053223">
        <ele>50.7</ele>
        <time>2022-10-06T17:48:43Z</time>
      </trkpt>
      <trkpt lat="10.3060552" lon="-85.8053073">
        <ele>50.7</ele>
        <time>2022-10-06T17:48:44Z</time>
      </trkpt>
      <trkpt lat="10.3060284" lon="-85.8052934">
        <ele>50.6</ele>
        <time>2022-10-06T17:48:45Z</time>
      </trkpt>
      <trkpt lat="10.3060000" lon="-85.8052784">
        <ele>50.5</ele>
        <time>2022-10-06T17:48:46Z</time>
      </trkpt>
      <trkpt lat="10.3059713" lon="-85.8052630">
        <ele>50.6</ele>
        <time>2022-10-06T17:48:47Z</time>
      </trkpt>
      <trkpt lat="10.3059382" lon="-85.8052477">
        <ele>50.5</ele>
        <time>2022-10-06T17:48:48Z</time>
      </trkpt>
      <trkpt lat="10.3059128" lon="-85.8052356">
        <ele>50.5</ele>
        <time>2022-10-06T17:48:49Z</time>
      </trkpt>
      <trkpt lat="10.3058885" lon="-85.8052243">
        <ele>50.4</ele>
        <time>2022-10-06T17:48:50Z</time>
      </trkpt>
      <trkpt lat="10.3058651" lon="-85.8052133">
        <ele>50.3</ele>
        <time>2022-10-06T17:48:51Z</time>
      </trkpt>
      <trkpt lat="10.3058446" lon="-85.8052036">
        <ele>50.4</ele>
        <time>2022-10-06T17:48:52Z</time>
      </trkpt>
      <trkpt lat="10.3058216" lon="-85.8051929">
        <ele>50.3</ele>
        <time>2022-10-06T17:48:53Z</time>
      </trkpt>
      <trkpt lat="10.3057951" lon="-85.8051803">
        <ele>50.3</ele>
        <time>2022-10-06T17:48:54Z</time>
      </trkpt>
      <trkpt lat="10.3057708" lon="-85.8051683">
        <ele>50.2</ele>
        <time>2022-10-06T17:48:55Z</time>
      </trkpt>
      <trkpt lat="10.3057441" lon="-85.8051536">
        <ele>50.2</ele>
        <time>2022-10-06T17:48:56Z</time>
      </trkpt>
      <trkpt lat="10.3057136" lon="-85.8051352">
        <ele>50.1</ele>
        <time>2022-10-06T17:48:57Z</time>
      </trkpt>
      <trkpt lat="10.3056755" lon="-85.8051143">
        <ele>50.0</ele>
        <time>2022-10-06T17:48:58Z</time>
      </trkpt>
      <trkpt lat="10.3056308" lon="-85.8050881">
        <ele>49.9</ele>
        <time>2022-10-06T17:48:59Z</time>
      </trkpt>
      <trkpt lat="10.3055801" lon="-85.8050563">
        <ele>49.8</ele>
        <time>2022-10-06T17:49:00Z</time>
      </trkpt>
      <trkpt lat="10.3055198" lon="-85.8050209">
        <ele>49.8</ele>
        <time>2022-10-06T17:49:01Z</time>
      </trkpt>
      <trkpt lat="10.3054487" lon="-85.8049839">
        <ele>49.8</ele>
        <time>2022-10-06T17:49:02Z</time>
      </trkpt>
      <trkpt lat="10.3053737" lon="-85.8049461">
        <ele>49.6</ele>
        <time>2022-10-06T17:49:03Z</time>
      </trkpt>
      <trkpt lat="10.3052990" lon="-85.8049078">
        <ele>49.6</ele>
        <time>2022-10-06T17:49:04Z</time>
      </trkpt>
      <trkpt lat="10.3052253" lon="-85.8048703">
        <ele>49.5</ele>
        <time>2022-10-06T17:49:05Z</time>
      </trkpt>
      <trkpt lat="10.3051497" lon="-85.8048360">
        <ele>49.6</ele>
        <time>2022-10-06T17:49:06Z</time>
      </trkpt>
      <trkpt lat="10.3050744" lon="-85.8048000">
        <ele>49.5</ele>
        <time>2022-10-06T17:49:07Z</time>
      </trkpt>
      <trkpt lat="10.3050009" lon="-85.8047644">
        <ele>49.4</ele>
        <time>2022-10-06T17:49:08Z</time>
      </trkpt>
      <trkpt lat="10.3049237" lon="-85.8047260">
        <ele>49.3</ele>
        <time>2022-10-06T17:49:09Z</time>
      </trkpt>
      <trkpt lat="10.3048490" lon="-85.8046841">
        <ele>49.1</ele>
        <time>2022-10-06T17:49:10Z</time>
      </trkpt>
      <trkpt lat="10.3047737" lon="-85.8046359">
        <ele>49.1</ele>
        <time>2022-10-06T17:49:11Z</time>
      </trkpt>
      <trkpt lat="10.3047032" lon="-85.8045874">
        <ele>49.0</ele>
        <time>2022-10-06T17:49:12Z</time>
      </trkpt>
      <trkpt lat="10.3046420" lon="-85.8045251">
        <ele>49.1</ele>
        <time>2022-10-06T17:49:13Z</time>
      </trkpt>
      <trkpt lat="10.3045892" lon="-85.8044672">
        <ele>49.2</ele>
        <time>2022-10-06T17:49:14Z</time>
      </trkpt>
      <trkpt lat="10.3045461" lon="-85.8044030">
        <ele>48.9</ele>
        <time>2022-10-06T17:49:15Z</time>
      </trkpt>
      <trkpt lat="10.3045118" lon="-85.8043463">
        <ele>48.9</ele>
        <time>2022-10-06T17:49:16Z</time>
      </trkpt>
      <trkpt lat="10.3044830" lon="-85.8042962">
        <ele>48.8</ele>
        <time>2022-10-06T17:49:17Z</time>
      </trkpt>
      <trkpt lat="10.3044587" lon="-85.8042548">
        <ele>48.8</ele>
        <time>2022-10-06T17:49:18Z</time>
      </trkpt>
      <trkpt lat="10.3044383" lon="-85.8042205">
        <ele>48.6</ele>
        <time>2022-10-06T17:49:19Z</time>
      </trkpt>
      <trkpt lat="10.3044224" lon="-85.8041910">
        <ele>48.6</ele>
        <time>2022-10-06T17:49:20Z</time>
      </trkpt>
      <trkpt lat="10.3044116" lon="-85.8041671">
        <ele>48.7</ele>
        <time>2022-10-06T17:49:21Z</time>
      </trkpt>
      <trkpt lat="10.3044011" lon="-85.8041439">
        <ele>48.7</ele>
        <time>2022-10-06T17:49:22Z</time>
      </trkpt>
      <trkpt lat="10.3043859" lon="-85.8041103">
        <ele>48.7</ele>
        <time>2022-10-06T17:49:23Z</time>
      </trkpt>
      <trkpt lat="10.3043608" lon="-85.8040683">
        <ele>48.7</ele>
        <time>2022-10-06T17:49:24Z</time>
      </trkpt>
      <trkpt lat="10.3043315" lon="-85.8040137">
        <ele>48.8</ele>
        <time>2022-10-06T17:49:25Z</time>
      </trkpt>
      <trkpt lat="10.3043004" lon="-85.8039540">
        <ele>48.8</ele>
        <time>2022-10-06T17:49:26Z</time>
      </trkpt>
      <trkpt lat="10.3042701" lon="-85.8038969">
        <ele>48.8</ele>
        <time>2022-10-06T17:49:27Z</time>
      </trkpt>
      <trkpt lat="10.3042462" lon="-85.8038497">
        <ele>48.8</ele>
        <time>2022-10-06T17:49:28Z</time>
      </trkpt>
      <trkpt lat="10.3042266" lon="-85.8038118">
        <ele>48.8</ele>
        <time>2022-10-06T17:49:29Z</time>
      </trkpt>
      <trkpt lat="10.3042119" lon="-85.8037806">
        <ele>48.8</ele>
        <time>2022-10-06T17:49:30Z</time>
      </trkpt>
      <trkpt lat="10.3041966" lon="-85.8037502">
        <ele>48.7</ele>
        <time>2022-10-06T17:49:31Z</time>
      </trkpt>
      <trkpt lat="10.3041785" lon="-85.8037101">
        <ele>48.7</ele>
        <time>2022-10-06T17:49:32Z</time>
      </trkpt>
      <trkpt lat="10.3041514" lon="-85.8036583">
        <ele>48.6</ele>
        <time>2022-10-06T17:49:33Z</time>
      </trkpt>
      <trkpt lat="10.3041217" lon="-85.8036019">
        <ele>48.7</ele>
        <time>2022-10-06T17:49:34Z</time>
      </trkpt>
      <trkpt lat="10.3040901" lon="-85.8035462">
        <ele>48.7</ele>
        <time>2022-10-06T17:49:35Z</time>
      </trkpt>
      <trkpt lat="10.3040574" lon="-85.8034902">
        <ele>48.8</ele>
        <time>2022-10-06T17:49:36Z</time>
      </trkpt>
      <trkpt lat="10.3040237" lon="-85.8034379">
        <ele>48.7</ele>
        <time>2022-10-06T17:49:37Z</time>
      </trkpt>
      <trkpt lat="10.3039941" lon="-85.8033914">
        <ele>48.7</ele>
        <time>2022-10-06T17:49:38Z</time>
      </trkpt>
      <trkpt lat="10.3039593" lon="-85.8033450">
        <ele>48.9</ele>
        <time>2022-10-06T17:49:39Z</time>
      </trkpt>
      <trkpt lat="10.3039251" lon="-85.8033023">
        <ele>48.9</ele>
        <time>2022-10-06T17:49:40Z</time>
      </trkpt>
      <trkpt lat="10.3038915" lon="-85.8032614">
        <ele>49.0</ele>
        <time>2022-10-06T17:49:41Z</time>
      </trkpt>
      <trkpt lat="10.3038532" lon="-85.8032180">
        <ele>49.0</ele>
        <time>2022-10-06T17:49:42Z</time>
      </trkpt>
      <trkpt lat="10.3038065" lon="-85.8031733">
        <ele>49.1</ele>
        <time>2022-10-06T17:49:43Z</time>
      </trkpt>
      <trkpt lat="10.3037497" lon="-85.8031251">
        <ele>49.1</ele>
        <time>2022-10-06T17:49:44Z</time>
      </trkpt>
      <trkpt lat="10.3036829" lon="-85.8030755">
        <ele>49.0</ele>
        <time>2022-10-06T17:49:45Z</time>
      </trkpt>
      <trkpt lat="10.3036068" lon="-85.8030220">
        <ele>49.0</ele>
        <time>2022-10-06T17:49:46Z</time>
      </trkpt>
      <trkpt lat="10.3035257" lon="-85.8029637">
        <ele>49.1</ele>
        <time>2022-10-06T17:49:47Z</time>
      </trkpt>
      <trkpt lat="10.3034414" lon="-85.8029046">
        <ele>49.1</ele>
        <time>2022-10-06T17:49:48Z</time>
      </trkpt>
      <trkpt lat="10.3033550" lon="-85.8028437">
        <ele>49.2</ele>
        <time>2022-10-06T17:49:49Z</time>
      </trkpt>
      <trkpt lat="10.3032678" lon="-85.8027826">
        <ele>49.1</ele>
        <time>2022-10-06T17:49:50Z</time>
      </trkpt>
      <trkpt lat="10.3031796" lon="-85.8027210">
        <ele>49.1</ele>
        <time>2022-10-06T17:49:51Z</time>
      </trkpt>
      <trkpt lat="10.3030946" lon="-85.8026619">
        <ele>49.0</ele>
        <time>2022-10-06T17:49:52Z</time>
      </trkpt>
      <trkpt lat="10.3030142" lon="-85.8026029">
        <ele>49.1</ele>
        <time>2022-10-06T17:49:53Z</time>
      </trkpt>
      <trkpt lat="10.3029373" lon="-85.8025439">
        <ele>49.1</ele>
        <time>2022-10-06T17:49:54Z</time>
      </trkpt>
      <trkpt lat="10.3028590" lon="-85.8024829">
        <ele>49.2</ele>
        <time>2022-10-06T17:49:55Z</time>
      </trkpt>
      <trkpt lat="10.3027808" lon="-85.8024239">
        <ele>49.2</ele>
        <time>2022-10-06T17:49:56Z</time>
      </trkpt>
      <trkpt lat="10.3027026" lon="-85.8023643">
        <ele>49.2</ele>
        <time>2022-10-06T17:49:57Z</time>
      </trkpt>
      <trkpt lat="10.3026236" lon="-85.8023056">
        <ele>49.2</ele>
        <time>2022-10-06T17:49:58Z</time>
      </trkpt>
      <trkpt lat="10.3025403" lon="-85.8022439">
        <ele>49.4</ele>
        <time>2022-10-06T17:49:59Z</time>
      </trkpt>
      <trkpt lat="10.3024558" lon="-85.8021830">
        <ele>49.4</ele>
        <time>2022-10-06T17:50:00Z</time>
      </trkpt>
      <trkpt lat="10.3023676" lon="-85.8021183">
        <ele>49.4</ele>
        <time>2022-10-06T17:50:01Z</time>
      </trkpt>
      <trkpt lat="10.3022774" lon="-85.8020499">
        <ele>49.3</ele>
        <time>2022-10-06T17:50:02Z</time>
      </trkpt>
      <trkpt lat="10.3021787" lon="-85.8019752">
        <ele>49.3</ele>
        <time>2022-10-06T17:50:03Z</time>
      </trkpt>
      <trkpt lat="10.3020745" lon="-85.8018966">
        <ele>49.4</ele>
        <time>2022-10-06T17:50:04Z</time>
      </trkpt>
      <trkpt lat="10.3019683" lon="-85.8018158">
        <ele>49.7</ele>
        <time>2022-10-06T17:50:05Z</time>
      </trkpt>
      <trkpt lat="10.3018600" lon="-85.8017336">
        <ele>50.0</ele>
        <time>2022-10-06T17:50:06Z</time>
      </trkpt>
      <trkpt lat="10.3017524" lon="-85.8016528">
        <ele>50.3</ele>
        <time>2022-10-06T17:50:07Z</time>
      </trkpt>
      <trkpt lat="10.3016450" lon="-85.8015739">
        <ele>50.6</ele>
        <time>2022-10-06T17:50:08Z</time>
      </trkpt>
      <trkpt lat="10.3015394" lon="-85.8014975">
        <ele>51.0</ele>
        <time>2022-10-06T17:50:09Z</time>
      </trkpt>
      <trkpt lat="10.3014306" lon="-85.8014252">
        <ele>51.4</ele>
        <time>2022-10-06T17:50:10Z</time>
      </trkpt>
      <trkpt lat="10.3013239" lon="-85.8013602">
        <ele>51.7</ele>
        <time>2022-10-06T17:50:11Z</time>
      </trkpt>
      <trkpt lat="10.3012113" lon="-85.8012973">
        <ele>52.7</ele>
        <time>2022-10-06T17:50:12Z</time>
      </trkpt>
      <trkpt lat="10.3010923" lon="-85.8012409">
        <ele>52.9</ele>
        <time>2022-10-06T17:50:13Z</time>
      </trkpt>
      <trkpt lat="10.3009704" lon="-85.8011837">
        <ele>53.2</ele>
        <time>2022-10-06T17:50:14Z</time>
      </trkpt>
      <trkpt lat="10.3008516" lon="-85.8011324">
        <ele>53.4</ele>
        <time>2022-10-06T17:50:15Z</time>
      </trkpt>
      <trkpt lat="10.3007298" lon="-85.8010852">
        <ele>53.7</ele>
        <time>2022-10-06T17:50:16Z</time>
      </trkpt>
      <trkpt lat="10.3006069" lon="-85.8010435">
        <ele>54.0</ele>
        <time>2022-10-06T17:50:17Z</time>
      </trkpt>
      <trkpt lat="10.3004842" lon="-85.8010051">
        <ele>54.2</ele>
        <time>2022-10-06T17:50:18Z</time>
      </trkpt>
      <trkpt lat="10.3003608" lon="-85.8009716">
        <ele>54.4</ele>
        <time>2022-10-06T17:50:19Z</time>
      </trkpt>
      <trkpt lat="10.3002397" lon="-85.8009420">
        <ele>54.6</ele>
        <time>2022-10-06T17:50:20Z</time>
      </trkpt>
      <trkpt lat="10.3001184" lon="-85.8009121">
        <ele>54.7</ele>
        <time>2022-10-06T17:50:21Z</time>
      </trkpt>
      <trkpt lat="10.2999965" lon="-85.8008828">
        <ele>54.9</ele>
        <time>2022-10-06T17:50:22Z</time>
      </trkpt>
      <trkpt lat="10.2998722" lon="-85.8008514">
        <ele>55.0</ele>
        <time>2022-10-06T17:50:23Z</time>
      </trkpt>
      <trkpt lat="10.2997487" lon="-85.8008201">
        <ele>55.0</ele>
        <time>2022-10-06T17:50:24Z</time>
      </trkpt>
      <trkpt lat="10.2996262" lon="-85.8007899">
        <ele>55.1</ele>
        <time>2022-10-06T17:50:25Z</time>
      </trkpt>
      <trkpt lat="10.2995027" lon="-85.8007599">
        <ele>55.1</ele>
        <time>2022-10-06T17:50:26Z</time>
      </trkpt>
      <trkpt lat="10.2993767" lon="-85.8007285">
        <ele>55.2</ele>
        <time>2022-10-06T17:50:27Z</time>
      </trkpt>
      <trkpt lat="10.2992441" lon="-85.8006939">
        <ele>55.3</ele>
        <time>2022-10-06T17:50:28Z</time>
      </trkpt>
      <trkpt lat="10.2991085" lon="-85.8006601">
        <ele>55.4</ele>
        <time>2022-10-06T17:50:29Z</time>
      </trkpt>
      <trkpt lat="10.2989699" lon="-85.8006264">
        <ele>55.3</ele>
        <time>2022-10-06T17:50:30Z</time>
      </trkpt>
      <trkpt lat="10.2988296" lon="-85.8005916">
        <ele>55.3</ele>
        <time>2022-10-06T17:50:31Z</time>
      </trkpt>
      <trkpt lat="10.2986878" lon="-85.8005558">
        <ele>55.3</ele>
        <time>2022-10-06T17:50:32Z</time>
      </trkpt>
      <trkpt lat="10.2985444" lon="-85.8005167">
        <ele>55.5</ele>
        <time>2022-10-06T17:50:33Z</time>
      </trkpt>
      <trkpt lat="10.2984009" lon="-85.8004779">
        <ele>55.5</ele>
        <time>2022-10-06T17:50:34Z</time>
      </trkpt>
      <trkpt lat="10.2982548" lon="-85.8004388">
        <ele>55.6</ele>
        <time>2022-10-06T17:50:35Z</time>
      </trkpt>
      <trkpt lat="10.2981053" lon="-85.8003990">
        <ele>55.6</ele>
        <time>2022-10-06T17:50:36Z</time>
      </trkpt>
      <trkpt lat="10.2979549" lon="-85.8003585">
        <ele>55.8</ele>
        <time>2022-10-06T17:50:37Z</time>
      </trkpt>
      <trkpt lat="10.2978047" lon="-85.8003172">
        <ele>55.9</ele>
        <time>2022-10-06T17:50:38Z</time>
      </trkpt>
      <trkpt lat="10.2976509" lon="-85.8002753">
        <ele>56.0</ele>
        <time>2022-10-06T17:50:39Z</time>
      </trkpt>
      <trkpt lat="10.2974967" lon="-85.8002323">
        <ele>56.2</ele>
        <time>2022-10-06T17:50:40Z</time>
      </trkpt>
      <trkpt lat="10.2973379" lon="-85.8001888">
        <ele>56.4</ele>
        <time>2022-10-06T17:50:41Z</time>
      </trkpt>
      <trkpt lat="10.2971797" lon="-85.8001466">
        <ele>56.6</ele>
        <time>2022-10-06T17:50:42Z</time>
      </trkpt>
      <trkpt lat="10.2970178" lon="-85.8001040">
        <ele>56.8</ele>
        <time>2022-10-06T17:50:43Z</time>
      </trkpt>
      <trkpt lat="10.2968563" lon="-85.8000617">
        <ele>57.0</ele>
        <time>2022-10-06T17:50:44Z</time>
      </trkpt>
      <trkpt lat="10.2966939" lon="-85.8000163">
        <ele>57.1</ele>
        <time>2022-10-06T17:50:45Z</time>
      </trkpt>
      <trkpt lat="10.2965347" lon="-85.7999730">
        <ele>57.4</ele>
        <time>2022-10-06T17:50:46Z</time>
      </trkpt>
      <trkpt lat="10.2963750" lon="-85.7999298">
        <ele>57.7</ele>
        <time>2022-10-06T17:50:47Z</time>
      </trkpt>
      <trkpt lat="10.2962184" lon="-85.7998880">
        <ele>58.0</ele>
        <time>2022-10-06T17:50:48Z</time>
      </trkpt>
      <trkpt lat="10.2960634" lon="-85.7998458">
        <ele>58.3</ele>
        <time>2022-10-06T17:50:49Z</time>
      </trkpt>
      <trkpt lat="10.2959083" lon="-85.7998028">
        <ele>58.7</ele>
        <time>2022-10-06T17:50:50Z</time>
      </trkpt>
      <trkpt lat="10.2957538" lon="-85.7997614">
        <ele>59.0</ele>
        <time>2022-10-06T17:50:51Z</time>
      </trkpt>
      <trkpt lat="10.2956017" lon="-85.7997209">
        <ele>59.5</ele>
        <time>2022-10-06T17:50:52Z</time>
      </trkpt>
      <trkpt lat="10.2954512" lon="-85.7996802">
        <ele>59.9</ele>
        <time>2022-10-06T17:50:53Z</time>
      </trkpt>
      <trkpt lat="10.2953058" lon="-85.7996419">
        <ele>60.3</ele>
        <time>2022-10-06T17:50:54Z</time>
      </trkpt>
      <trkpt lat="10.2951619" lon="-85.7996056">
        <ele>60.6</ele>
        <time>2022-10-06T17:50:55Z</time>
      </trkpt>
      <trkpt lat="10.2950180" lon="-85.7995671">
        <ele>60.8</ele>
        <time>2022-10-06T17:50:56Z</time>
      </trkpt>
      <trkpt lat="10.2948758" lon="-85.7995220">
        <ele>60.9</ele>
        <time>2022-10-06T17:50:57Z</time>
      </trkpt>
      <trkpt lat="10.2947386" lon="-85.7994726">
        <ele>60.8</ele>
        <time>2022-10-06T17:50:58Z</time>
      </trkpt>
      <trkpt lat="10.2946019" lon="-85.7994146">
        <ele>60.4</ele>
        <time>2022-10-06T17:50:59Z</time>
      </trkpt>
      <trkpt lat="10.2944658" lon="-85.7993491">
        <ele>60.1</ele>
        <time>2022-10-06T17:51:00Z</time>
      </trkpt>
      <trkpt lat="10.2943354" lon="-85.7992766">
        <ele>59.8</ele>
        <time>2022-10-06T17:51:01Z</time>
      </trkpt>
      <trkpt lat="10.2942139" lon="-85.7992009">
        <ele>59.4</ele>
        <time>2022-10-06T17:51:02Z</time>
      </trkpt>
      <trkpt lat="10.2940997" lon="-85.7991210">
        <ele>59.1</ele>
        <time>2022-10-06T17:51:03Z</time>
      </trkpt>
      <trkpt lat="10.2939875" lon="-85.7990348">
        <ele>58.8</ele>
        <time>2022-10-06T17:51:04Z</time>
      </trkpt>
      <trkpt lat="10.2938796" lon="-85.7989430">
        <ele>58.5</ele>
        <time>2022-10-06T17:51:05Z</time>
      </trkpt>
      <trkpt lat="10.2937768" lon="-85.7988457">
        <ele>58.1</ele>
        <time>2022-10-06T17:51:06Z</time>
      </trkpt>
      <trkpt lat="10.2936794" lon="-85.7987466">
        <ele>57.6</ele>
        <time>2022-10-06T17:51:07Z</time>
      </trkpt>
      <trkpt lat="10.2935887" lon="-85.7986518">
        <ele>57.1</ele>
        <time>2022-10-06T17:51:08Z</time>
      </trkpt>
      <trkpt lat="10.2934977" lon="-85.7985590">
        <ele>56.6</ele>
        <time>2022-10-06T17:51:09Z</time>
      </trkpt>
      <trkpt lat="10.2934087" lon="-85.7984666">
        <ele>56.0</ele>
        <time>2022-10-06T17:51:10Z</time>
      </trkpt>
      <trkpt lat="10.2933222" lon="-85.7983756">
        <ele>55.5</ele>
        <time>2022-10-06T17:51:11Z</time>
      </trkpt>
      <trkpt lat="10.2932376" lon="-85.7982852">
        <ele>55.6</ele>
        <time>2022-10-06T17:51:12Z</time>
      </trkpt>
      <trkpt lat="10.2931570" lon="-85.7981945">
        <ele>55.1</ele>
        <time>2022-10-06T17:51:13Z</time>
      </trkpt>
      <trkpt lat="10.2930799" lon="-85.7981077">
        <ele>54.6</ele>
        <time>2022-10-06T17:51:14Z</time>
      </trkpt>
      <trkpt lat="10.2930046" lon="-85.7980235">
        <ele>54.2</ele>
        <time>2022-10-06T17:51:15Z</time>
      </trkpt>
      <trkpt lat="10.2929313" lon="-85.7979412">
        <ele>53.8</ele>
        <time>2022-10-06T17:51:16Z</time>
      </trkpt>
      <trkpt lat="10.2928562" lon="-85.7978584">
        <ele>53.3</ele>
        <time>2022-10-06T17:51:17Z</time>
      </trkpt>
      <trkpt lat="10.2927811" lon="-85.7977750">
        <ele>52.9</ele>
        <time>2022-10-06T17:51:18Z</time>
      </trkpt>
      <trkpt lat="10.2927019" lon="-85.7976921">
        <ele>52.6</ele>
        <time>2022-10-06T17:51:19Z</time>
      </trkpt>
      <trkpt lat="10.2926213" lon="-85.7976111">
        <ele>52.3</ele>
        <time>2022-10-06T17:51:20Z</time>
      </trkpt>
      <trkpt lat="10.2925370" lon="-85.7975298">
        <ele>52.1</ele>
        <time>2022-10-06T17:51:21Z</time>
      </trkpt>
      <trkpt lat="10.2924476" lon="-85.7974537">
        <ele>51.8</ele>
        <time>2022-10-06T17:51:22Z</time>
      </trkpt>
      <trkpt lat="10.2923507" lon="-85.7973813">
        <ele>51.7</ele>
        <time>2022-10-06T17:51:23Z</time>
      </trkpt>
      <trkpt lat="10.2922542" lon="-85.7973196">
        <ele>51.7</ele>
        <time>2022-10-06T17:51:24Z</time>
      </trkpt>
      <trkpt lat="10.2921582" lon="-85.7972655">
        <ele>52.0</ele>
        <time>2022-10-06T17:51:25Z</time>
      </trkpt>
      <trkpt lat="10.2920579" lon="-85.7972139">
        <ele>52.1</ele>
        <time>2022-10-06T17:51:26Z</time>
      </trkpt>
      <trkpt lat="10.2919549" lon="-85.7971646">
        <ele>52.3</ele>
        <time>2022-10-06T17:51:27Z</time>
      </trkpt>
      <trkpt lat="10.2918531" lon="-85.7971154">
        <ele>52.6</ele>
        <time>2022-10-06T17:51:28Z</time>
      </trkpt>
      <trkpt lat="10.2917512" lon="-85.7970646">
        <ele>52.9</ele>
        <time>2022-10-06T17:51:29Z</time>
      </trkpt>
      <trkpt lat="10.2916484" lon="-85.7970143">
        <ele>53.3</ele>
        <time>2022-10-06T17:51:30Z</time>
      </trkpt>
      <trkpt lat="10.2915448" lon="-85.7969641">
        <ele>53.6</ele>
        <time>2022-10-06T17:51:31Z</time>
      </trkpt>
      <trkpt lat="10.2914389" lon="-85.7969139">
        <ele>53.9</ele>
        <time>2022-10-06T17:51:32Z</time>
      </trkpt>
      <trkpt lat="10.2913361" lon="-85.7968650">
        <ele>54.0</ele>
        <time>2022-10-06T17:51:33Z</time>
      </trkpt>
      <trkpt lat="10.2912336" lon="-85.7968164">
        <ele>54.2</ele>
        <time>2022-10-06T17:51:34Z</time>
      </trkpt>
      <trkpt lat="10.2911313" lon="-85.7967674">
        <ele>54.5</ele>
        <time>2022-10-06T17:51:35Z</time>
      </trkpt>
      <trkpt lat="10.2910283" lon="-85.7967171">
        <ele>54.8</ele>
        <time>2022-10-06T17:51:36Z</time>
      </trkpt>
      <trkpt lat="10.2909251" lon="-85.7966682">
        <ele>55.0</ele>
        <time>2022-10-06T17:51:37Z</time>
      </trkpt>
      <trkpt lat="10.2908206" lon="-85.7966191">
        <ele>55.2</ele>
        <time>2022-10-06T17:51:38Z</time>
      </trkpt>
      <trkpt lat="10.2907144" lon="-85.7965683">
        <ele>55.4</ele>
        <time>2022-10-06T17:51:39Z</time>
      </trkpt>
      <trkpt lat="10.2906053" lon="-85.7965161">
        <ele>55.7</ele>
        <time>2022-10-06T17:51:40Z</time>
      </trkpt>
      <trkpt lat="10.2904971" lon="-85.7964657">
        <ele>55.9</ele>
        <time>2022-10-06T17:51:41Z</time>
      </trkpt>
      <trkpt lat="10.2903914" lon="-85.7964155">
        <ele>56.1</ele>
        <time>2022-10-06T17:51:42Z</time>
      </trkpt>
      <trkpt lat="10.2902902" lon="-85.7963663">
        <ele>56.3</ele>
        <time>2022-10-06T17:51:43Z</time>
      </trkpt>
      <trkpt lat="10.2901931" lon="-85.7963201">
        <ele>56.4</ele>
        <time>2022-10-06T17:51:44Z</time>
      </trkpt>
      <trkpt lat="10.2901000" lon="-85.7962758">
        <ele>56.3</ele>
        <time>2022-10-06T17:51:45Z</time>
      </trkpt>
      <trkpt lat="10.2900081" lon="-85.7962343">
        <ele>55.9</ele>
        <time>2022-10-06T17:51:46Z</time>
      </trkpt>
      <trkpt lat="10.2899125" lon="-85.7961917">
        <ele>55.6</ele>
        <time>2022-10-06T17:51:47Z</time>
      </trkpt>
      <trkpt lat="10.2898156" lon="-85.7961472">
        <ele>55.0</ele>
        <time>2022-10-06T17:51:48Z</time>
      </trkpt>
      <trkpt lat="10.2897164" lon="-85.7961016">
        <ele>54.4</ele>
        <time>2022-10-06T17:51:49Z</time>
      </trkpt>
      <trkpt lat="10.2896130" lon="-85.7960533">
        <ele>53.7</ele>
        <time>2022-10-06T17:51:50Z</time>
      </trkpt>
      <trkpt lat="10.2895044" lon="-85.7960024">
        <ele>53.1</ele>
        <time>2022-10-06T17:51:51Z</time>
      </trkpt>
      <trkpt lat="10.2893905" lon="-85.7959481">
        <ele>52.4</ele>
        <time>2022-10-06T17:51:52Z</time>
      </trkpt>
      <trkpt lat="10.2892724" lon="-85.7958920">
        <ele>51.7</ele>
        <time>2022-10-06T17:51:53Z</time>
      </trkpt>
      <trkpt lat="10.2891515" lon="-85.7958355">
        <ele>51.1</ele>
        <time>2022-10-06T17:51:54Z</time>
      </trkpt>
      <trkpt lat="10.2890264" lon="-85.7957762">
        <ele>50.5</ele>
        <time>2022-10-06T17:51:55Z</time>
      </trkpt>
      <trkpt lat="10.2888965" lon="-85.7957167">
        <ele>49.9</ele>
        <time>2022-10-06T17:51:56Z</time>
      </trkpt>
      <trkpt lat="10.2887613" lon="-85.7956532">
        <ele>49.5</ele>
        <time>2022-10-06T17:51:57Z</time>
      </trkpt>
      <trkpt lat="10.2886231" lon="-85.7955867">
        <ele>49.2</ele>
        <time>2022-10-06T17:51:58Z</time>
      </trkpt>
      <trkpt lat="10.2884821" lon="-85.7955211">
        <ele>48.9</ele>
        <time>2022-10-06T17:51:59Z</time>
      </trkpt>
      <trkpt lat="10.2883396" lon="-85.7954551">
        <ele>48.5</ele>
        <time>2022-10-06T17:52:00Z</time>
      </trkpt>
      <trkpt lat="10.2881974" lon="-85.7953892">
        <ele>48.2</ele>
        <time>2022-10-06T17:52:01Z</time>
      </trkpt>
      <trkpt lat="10.2880497" lon="-85.7953211">
        <ele>48.2</ele>
        <time>2022-10-06T17:52:02Z</time>
      </trkpt>
      <trkpt lat="10.2879039" lon="-85.7952526">
        <ele>48.1</ele>
        <time>2022-10-06T17:52:03Z</time>
      </trkpt>
      <trkpt lat="10.2877598" lon="-85.7951865">
        <ele>48.0</ele>
        <time>2022-10-06T17:52:04Z</time>
      </trkpt>
      <trkpt lat="10.2876151" lon="-85.7951192">
        <ele>48.0</ele>
        <time>2022-10-06T17:52:05Z</time>
      </trkpt>
      <trkpt lat="10.2874725" lon="-85.7950535">
        <ele>48.1</ele>
        <time>2022-10-06T17:52:06Z</time>
      </trkpt>
      <trkpt lat="10.2873287" lon="-85.7949871">
        <ele>48.1</ele>
        <time>2022-10-06T17:52:07Z</time>
      </trkpt>
      <trkpt lat="10.2871843" lon="-85.7949211">
        <ele>48.2</ele>
        <time>2022-10-06T17:52:08Z</time>
      </trkpt>
      <trkpt lat="10.2870373" lon="-85.7948544">
        <ele>48.2</ele>
        <time>2022-10-06T17:52:09Z</time>
      </trkpt>
      <trkpt lat="10.2868909" lon="-85.7947875">
        <ele>48.2</ele>
        <time>2022-10-06T17:52:10Z</time>
      </trkpt>
      <trkpt lat="10.2867427" lon="-85.7947187">
        <ele>48.1</ele>
        <time>2022-10-06T17:52:11Z</time>
      </trkpt>
      <trkpt lat="10.2865967" lon="-85.7946518">
        <ele>48.0</ele>
        <time>2022-10-06T17:52:12Z</time>
      </trkpt>
      <trkpt lat="10.2864501" lon="-85.7945846">
        <ele>48.1</ele>
        <time>2022-10-06T17:52:13Z</time>
      </trkpt>
      <trkpt lat="10.2863014" lon="-85.7945152">
        <ele>48.0</ele>
        <time>2022-10-06T17:52:14Z</time>
      </trkpt>
      <trkpt lat="10.2861524" lon="-85.7944455">
        <ele>47.9</ele>
        <time>2022-10-06T17:52:15Z</time>
      </trkpt>
      <trkpt lat="10.2860025" lon="-85.7943757">
        <ele>47.7</ele>
        <time>2022-10-06T17:52:16Z</time>
      </trkpt>
      <trkpt lat="10.2858544" lon="-85.7943069">
        <ele>47.6</ele>
        <time>2022-10-06T17:52:17Z</time>
      </trkpt>
      <trkpt lat="10.2857086" lon="-85.7942389">
        <ele>47.4</ele>
        <time>2022-10-06T17:52:18Z</time>
      </trkpt>
      <trkpt lat="10.2855672" lon="-85.7941719">
        <ele>47.2</ele>
        <time>2022-10-06T17:52:19Z</time>
      </trkpt>
      <trkpt lat="10.2854259" lon="-85.7941050">
        <ele>46.9</ele>
        <time>2022-10-06T17:52:20Z</time>
      </trkpt>
      <trkpt lat="10.2852890" lon="-85.7940407">
        <ele>46.6</ele>
        <time>2022-10-06T17:52:21Z</time>
      </trkpt>
      <trkpt lat="10.2851513" lon="-85.7939780">
        <ele>46.4</ele>
        <time>2022-10-06T17:52:22Z</time>
      </trkpt>
      <trkpt lat="10.2850154" lon="-85.7939170">
        <ele>46.2</ele>
        <time>2022-10-06T17:52:23Z</time>
      </trkpt>
      <trkpt lat="10.2848852" lon="-85.7938553">
        <ele>46.0</ele>
        <time>2022-10-06T17:52:24Z</time>
      </trkpt>
      <trkpt lat="10.2847617" lon="-85.7937901">
        <ele>45.9</ele>
        <time>2022-10-06T17:52:25Z</time>
      </trkpt>
      <trkpt lat="10.2846377" lon="-85.7937264">
        <ele>45.6</ele>
        <time>2022-10-06T17:52:26Z</time>
      </trkpt>
      <trkpt lat="10.2845120" lon="-85.7936627">
        <ele>45.3</ele>
        <time>2022-10-06T17:52:27Z</time>
      </trkpt>
      <trkpt lat="10.2843847" lon="-85.7935979">
        <ele>45.0</ele>
        <time>2022-10-06T17:52:28Z</time>
      </trkpt>
      <trkpt lat="10.2842557" lon="-85.7935323">
        <ele>44.8</ele>
        <time>2022-10-06T17:52:29Z</time>
      </trkpt>
      <trkpt lat="10.2841261" lon="-85.7934655">
        <ele>44.6</ele>
        <time>2022-10-06T17:52:30Z</time>
      </trkpt>
      <trkpt lat="10.2840006" lon="-85.7933992">
        <ele>44.4</ele>
        <time>2022-10-06T17:52:31Z</time>
      </trkpt>
      <trkpt lat="10.2838788" lon="-85.7933342">
        <ele>44.3</ele>
        <time>2022-10-06T17:52:32Z</time>
      </trkpt>
      <trkpt lat="10.2837580" lon="-85.7932704">
        <ele>44.1</ele>
        <time>2022-10-06T17:52:33Z</time>
      </trkpt>
      <trkpt lat="10.2836446" lon="-85.7932103">
        <ele>44.0</ele>
        <time>2022-10-06T17:52:34Z</time>
      </trkpt>
      <trkpt lat="10.2835397" lon="-85.7931539">
        <ele>43.8</ele>
        <time>2022-10-06T17:52:35Z</time>
      </trkpt>
      <trkpt lat="10.2834417" lon="-85.7931018">
        <ele>43.6</ele>
        <time>2022-10-06T17:52:36Z</time>
      </trkpt>
      <trkpt lat="10.2833450" lon="-85.7930480">
        <ele>43.5</ele>
        <time>2022-10-06T17:52:37Z</time>
      </trkpt>
      <trkpt lat="10.2832445" lon="-85.7929914">
        <ele>43.4</ele>
        <time>2022-10-06T17:52:38Z</time>
      </trkpt>
      <trkpt lat="10.2831376" lon="-85.7929322">
        <ele>43.4</ele>
        <time>2022-10-06T17:52:39Z</time>
      </trkpt>
      <trkpt lat="10.2830281" lon="-85.7928731">
        <ele>43.3</ele>
        <time>2022-10-06T17:52:40Z</time>
      </trkpt>
      <trkpt lat="10.2829153" lon="-85.7928161">
        <ele>43.3</ele>
        <time>2022-10-06T17:52:41Z</time>
      </trkpt>
      <trkpt lat="10.2827996" lon="-85.7927620">
        <ele>43.4</ele>
        <time>2022-10-06T17:52:42Z</time>
      </trkpt>
      <trkpt lat="10.2826873" lon="-85.7927143">
        <ele>43.4</ele>
        <time>2022-10-06T17:52:43Z</time>
      </trkpt>
      <trkpt lat="10.2825857" lon="-85.7926740">
        <ele>43.5</ele>
        <time>2022-10-06T17:52:44Z</time>
      </trkpt>
      <trkpt lat="10.2824950" lon="-85.7926391">
        <ele>43.6</ele>
        <time>2022-10-06T17:52:45Z</time>
      </trkpt>
      <trkpt lat="10.2824093" lon="-85.7926092">
        <ele>43.7</ele>
        <time>2022-10-06T17:52:46Z</time>
      </trkpt>
      <trkpt lat="10.2823191" lon="-85.7925786">
        <ele>43.8</ele>
        <time>2022-10-06T17:52:47Z</time>
      </trkpt>
      <trkpt lat="10.2822244" lon="-85.7925478">
        <ele>43.9</ele>
        <time>2022-10-06T17:52:48Z</time>
      </trkpt>
      <trkpt lat="10.2821259" lon="-85.7925139">
        <ele>44.0</ele>
        <time>2022-10-06T17:52:49Z</time>
      </trkpt>
      <trkpt lat="10.2820228" lon="-85.7924800">
        <ele>44.1</ele>
        <time>2022-10-06T17:52:50Z</time>
      </trkpt>
      <trkpt lat="10.2819172" lon="-85.7924443">
        <ele>44.2</ele>
        <time>2022-10-06T17:52:51Z</time>
      </trkpt>
      <trkpt lat="10.2818135" lon="-85.7924110">
        <ele>44.2</ele>
        <time>2022-10-06T17:52:52Z</time>
      </trkpt>
      <trkpt lat="10.2817045" lon="-85.7923761">
        <ele>44.4</ele>
        <time>2022-10-06T17:52:53Z</time>
      </trkpt>
      <trkpt lat="10.2815916" lon="-85.7923396">
        <ele>44.4</ele>
        <time>2022-10-06T17:52:54Z</time>
      </trkpt>
      <trkpt lat="10.2814714" lon="-85.7922999">
        <ele>44.4</ele>
        <time>2022-10-06T17:52:55Z</time>
      </trkpt>
      <trkpt lat="10.2813492" lon="-85.7922591">
        <ele>44.6</ele>
        <time>2022-10-06T17:52:56Z</time>
      </trkpt>
      <trkpt lat="10.2812231" lon="-85.7922176">
        <ele>44.8</ele>
        <time>2022-10-06T17:52:57Z</time>
      </trkpt>
      <trkpt lat="10.2810936" lon="-85.7921748">
        <ele>45.0</ele>
        <time>2022-10-06T17:52:58Z</time>
      </trkpt>
      <trkpt lat="10.2809583" lon="-85.7921305">
        <ele>45.1</ele>
        <time>2022-10-06T17:52:59Z</time>
      </trkpt>
      <trkpt lat="10.2808191" lon="-85.7920844">
        <ele>45.3</ele>
        <time>2022-10-06T17:53:00Z</time>
      </trkpt>
      <trkpt lat="10.2806770" lon="-85.7920379">
        <ele>45.5</ele>
        <time>2022-10-06T17:53:01Z</time>
      </trkpt>
      <trkpt lat="10.2805374" lon="-85.7919931">
        <ele>45.8</ele>
        <time>2022-10-06T17:53:02Z</time>
      </trkpt>
      <trkpt lat="10.2803976" lon="-85.7919482">
        <ele>46.1</ele>
        <time>2022-10-06T17:53:03Z</time>
      </trkpt>
      <trkpt lat="10.2802591" lon="-85.7919027">
        <ele>46.3</ele>
        <time>2022-10-06T17:53:04Z</time>
      </trkpt>
      <trkpt lat="10.2801200" lon="-85.7918583">
        <ele>46.5</ele>
        <time>2022-10-06T17:53:05Z</time>
      </trkpt>
      <trkpt lat="10.2799853" lon="-85.7918156">
        <ele>46.8</ele>
        <time>2022-10-06T17:53:06Z</time>
      </trkpt>
      <trkpt lat="10.2798510" lon="-85.7917741">
        <ele>47.0</ele>
        <time>2022-10-06T17:53:07Z</time>
      </trkpt>
      <trkpt lat="10.2797251" lon="-85.7917367">
        <ele>47.2</ele>
        <time>2022-10-06T17:53:08Z</time>
      </trkpt>
      <trkpt lat="10.2796232" lon="-85.7917063">
        <ele>47.4</ele>
        <time>2022-10-06T17:53:09Z</time>
      </trkpt>
      <trkpt lat="10.2795428" lon="-85.7916814">
        <ele>47.6</ele>
        <time>2022-10-06T17:53:10Z</time>
      </trkpt>
      <trkpt lat="10.2794787" lon="-85.7916628">
        <ele>47.7</ele>
        <time>2022-10-06T17:53:11Z</time>
      </trkpt>
      <trkpt lat="10.2794352" lon="-85.7916503">
        <ele>47.7</ele>
        <time>2022-10-06T17:53:12Z</time>
      </trkpt>
      <trkpt lat="10.2793978" lon="-85.7916392">
        <ele>47.9</ele>
        <time>2022-10-06T17:53:13Z</time>
      </trkpt>
      <trkpt lat="10.2793658" lon="-85.7916291">
        <ele>48.0</ele>
        <time>2022-10-06T17:53:14Z</time>
      </trkpt>
      <trkpt lat="10.2793382" lon="-85.7916213">
        <ele>48.0</ele>
        <time>2022-10-06T17:53:15Z</time>
      </trkpt>
      <trkpt lat="10.2793119" lon="-85.7916141">
        <ele>48.1</ele>
        <time>2022-10-06T17:53:16Z</time>
      </trkpt>
      <trkpt lat="10.2792829" lon="-85.7916050">
        <ele>48.2</ele>
        <time>2022-10-06T17:53:17Z</time>
      </trkpt>
      <trkpt lat="10.2792421" lon="-85.7915934">
        <ele>48.3</ele>
        <time>2022-10-06T17:53:18Z</time>
      </trkpt>
      <trkpt lat="10.2791907" lon="-85.7915785">
        <ele>48.4</ele>
        <time>2022-10-06T17:53:19Z</time>
      </trkpt>
      <trkpt lat="10.2791308" lon="-85.7915597">
        <ele>48.5</ele>
        <time>2022-10-06T17:53:20Z</time>
      </trkpt>
      <trkpt lat="10.2790688" lon="-85.7915390">
        <ele>48.6</ele>
        <time>2022-10-06T17:53:21Z</time>
      </trkpt>
      <trkpt lat="10.2789967" lon="-85.7915147">
        <ele>48.7</ele>
        <time>2022-10-06T17:53:22Z</time>
      </trkpt>
      <trkpt lat="10.2789184" lon="-85.7914820">
        <ele>49.0</ele>
        <time>2022-10-06T17:53:23Z</time>
      </trkpt>
      <trkpt lat="10.2788401" lon="-85.7914371">
        <ele>49.2</ele>
        <time>2022-10-06T17:53:24Z</time>
      </trkpt>
      <trkpt lat="10.2787656" lon="-85.7913775">
        <ele>49.3</ele>
        <time>2022-10-06T17:53:25Z</time>
      </trkpt>
      <trkpt lat="10.2786993" lon="-85.7913077">
        <ele>49.6</ele>
        <time>2022-10-06T17:53:26Z</time>
      </trkpt>
      <trkpt lat="10.2786415" lon="-85.7912289">
        <ele>49.7</ele>
        <time>2022-10-06T17:53:27Z</time>
      </trkpt>
      <trkpt lat="10.2785882" lon="-85.7911434">
        <ele>50.0</ele>
        <time>2022-10-06T17:53:28Z</time>
      </trkpt>
      <trkpt lat="10.2785414" lon="-85.7910500">
        <ele>50.1</ele>
        <time>2022-10-06T17:53:29Z</time>
      </trkpt>
      <trkpt lat="10.2785086" lon="-85.7909510">
        <ele>50.2</ele>
        <time>2022-10-06T17:53:30Z</time>
      </trkpt>
      <trkpt lat="10.2784853" lon="-85.7908466">
        <ele>50.2</ele>
        <time>2022-10-06T17:53:31Z</time>
      </trkpt>
      <trkpt lat="10.2784697" lon="-85.7907365">
        <ele>50.2</ele>
        <time>2022-10-06T17:53:32Z</time>
      </trkpt>
      <trkpt lat="10.2784626" lon="-85.7906251">
        <ele>50.0</ele>
        <time>2022-10-06T17:53:33Z</time>
      </trkpt>
      <trkpt lat="10.2784588" lon="-85.7905122">
        <ele>50.0</ele>
        <time>2022-10-06T17:53:34Z</time>
      </trkpt>
      <trkpt lat="10.2784569" lon="-85.7904064">
        <ele>49.8</ele>
        <time>2022-10-06T17:53:35Z</time>
      </trkpt>
      <trkpt lat="10.2784559" lon="-85.7903042">
        <ele>49.7</ele>
        <time>2022-10-06T17:53:36Z</time>
      </trkpt>
      <trkpt lat="10.2784564" lon="-85.7902113">
        <ele>49.7</ele>
        <time>2022-10-06T17:53:37Z</time>
      </trkpt>
      <trkpt lat="10.2784569" lon="-85.7901298">
        <ele>49.6</ele>
        <time>2022-10-06T17:53:38Z</time>
      </trkpt>
      <trkpt lat="10.2784559" lon="-85.7900632">
        <ele>49.6</ele>
        <time>2022-10-06T17:53:39Z</time>
      </trkpt>
      <trkpt lat="10.2784562" lon="-85.7900150">
        <ele>49.6</ele>
        <time>2022-10-06T17:53:40Z</time>
      </trkpt>
      <trkpt lat="10.2784565" lon="-85.7899761">
        <ele>49.7</ele>
        <time>2022-10-06T17:53:41Z</time>
      </trkpt>
      <trkpt lat="10.2784579" lon="-85.7899374">
        <ele>49.7</ele>
        <time>2022-10-06T17:53:42Z</time>
      </trkpt>
      <trkpt lat="10.2784597" lon="-85.7898938">
        <ele>49.7</ele>
        <time>2022-10-06T17:53:43Z</time>
      </trkpt>
      <trkpt lat="10.2784611" lon="-85.7898366">
        <ele>49.7</ele>
        <time>2022-10-06T17:53:44Z</time>
      </trkpt>
      <trkpt lat="10.2784628" lon="-85.7897662">
        <ele>49.6</ele>
        <time>2022-10-06T17:53:45Z</time>
      </trkpt>
      <trkpt lat="10.2784650" lon="-85.7896851">
        <ele>49.5</ele>
        <time>2022-10-06T17:53:46Z</time>
      </trkpt>
      <trkpt lat="10.2784673" lon="-85.7895905">
        <ele>49.4</ele>
        <time>2022-10-06T17:53:47Z</time>
      </trkpt>
      <trkpt lat="10.2784708" lon="-85.7894880">
        <ele>49.4</ele>
        <time>2022-10-06T17:53:48Z</time>
      </trkpt>
      <trkpt lat="10.2784744" lon="-85.7893834">
        <ele>49.4</ele>
        <time>2022-10-06T17:53:49Z</time>
      </trkpt>
      <trkpt lat="10.2784761" lon="-85.7892804">
        <ele>49.4</ele>
        <time>2022-10-06T17:53:50Z</time>
      </trkpt>
      <trkpt lat="10.2784757" lon="-85.7891740">
        <ele>49.5</ele>
        <time>2022-10-06T17:53:51Z</time>
      </trkpt>
      <trkpt lat="10.2784754" lon="-85.7890607">
        <ele>49.5</ele>
        <time>2022-10-06T17:53:52Z</time>
      </trkpt>
      <trkpt lat="10.2784742" lon="-85.7889417">
        <ele>49.6</ele>
        <time>2022-10-06T17:53:53Z</time>
      </trkpt>
      <trkpt lat="10.2784707" lon="-85.7888160">
        <ele>49.8</ele>
        <time>2022-10-06T17:53:54Z</time>
      </trkpt>
      <trkpt lat="10.2784659" lon="-85.7886889">
        <ele>49.9</ele>
        <time>2022-10-06T17:53:55Z</time>
      </trkpt>
      <trkpt lat="10.2784551" lon="-85.7885583">
        <ele>50.4</ele>
        <time>2022-10-06T17:53:56Z</time>
      </trkpt>
      <trkpt lat="10.2784428" lon="-85.7884249">
        <ele>50.5</ele>
        <time>2022-10-06T17:53:57Z</time>
      </trkpt>
      <trkpt lat="10.2784239" lon="-85.7882842">
        <ele>50.8</ele>
        <time>2022-10-06T17:53:58Z</time>
      </trkpt>
      <trkpt lat="10.2784045" lon="-85.7881418">
        <ele>51.4</ele>
        <time>2022-10-06T17:53:59Z</time>
      </trkpt>
      <trkpt lat="10.2783835" lon="-85.7879967">
        <ele>51.8</ele>
        <time>2022-10-06T17:54:00Z</time>
      </trkpt>
      <trkpt lat="10.2783616" lon="-85.7878492">
        <ele>52.2</ele>
        <time>2022-10-06T17:54:01Z</time>
      </trkpt>
      <trkpt lat="10.2783402" lon="-85.7877023">
        <ele>52.5</ele>
        <time>2022-10-06T17:54:02Z</time>
      </trkpt>
      <trkpt lat="10.2783184" lon="-85.7875575">
        <ele>53.0</ele>
        <time>2022-10-06T17:54:03Z</time>
      </trkpt>
      <trkpt lat="10.2782972" lon="-85.7874164">
        <ele>53.2</ele>
        <time>2022-10-06T17:54:04Z</time>
      </trkpt>
      <trkpt lat="10.2782769" lon="-85.7872808">
        <ele>53.5</ele>
        <time>2022-10-06T17:54:05Z</time>
      </trkpt>
      <trkpt lat="10.2782568" lon="-85.7871438">
        <ele>53.7</ele>
        <time>2022-10-06T17:54:06Z</time>
      </trkpt>
      <trkpt lat="10.2782389" lon="-85.7870078">
        <ele>53.9</ele>
        <time>2022-10-06T17:54:07Z</time>
      </trkpt>
      <trkpt lat="10.2782228" lon="-85.7868686">
        <ele>54.1</ele>
        <time>2022-10-06T17:54:08Z</time>
      </trkpt>
      <trkpt lat="10.2782142" lon="-85.7867310">
        <ele>54.4</ele>
        <time>2022-10-06T17:54:09Z</time>
      </trkpt>
      <trkpt lat="10.2782153" lon="-85.7865915">
        <ele>54.5</ele>
        <time>2022-10-06T17:54:10Z</time>
      </trkpt>
      <trkpt lat="10.2782220" lon="-85.7864552">
        <ele>54.5</ele>
        <time>2022-10-06T17:54:11Z</time>
      </trkpt>
      <trkpt lat="10.2782396" lon="-85.7863192">
        <ele>54.6</ele>
        <time>2022-10-06T17:54:12Z</time>
      </trkpt>
      <trkpt lat="10.2782779" lon="-85.7861827">
        <ele>55.0</ele>
        <time>2022-10-06T17:54:13Z</time>
      </trkpt>
      <trkpt lat="10.2783173" lon="-85.7860405">
        <ele>55.3</ele>
        <time>2022-10-06T17:54:14Z</time>
      </trkpt>
      <trkpt lat="10.2783636" lon="-85.7858955">
        <ele>55.7</ele>
        <time>2022-10-06T17:54:15Z</time>
      </trkpt>
      <trkpt lat="10.2784139" lon="-85.7857513">
        <ele>56.3</ele>
        <time>2022-10-06T17:54:16Z</time>
      </trkpt>
      <trkpt lat="10.2784645" lon="-85.7856072">
        <ele>56.7</ele>
        <time>2022-10-06T17:54:17Z</time>
      </trkpt>
      <trkpt lat="10.2785143" lon="-85.7854635">
        <ele>57.3</ele>
        <time>2022-10-06T17:54:18Z</time>
      </trkpt>
      <trkpt lat="10.2785641" lon="-85.7853163">
        <ele>58.0</ele>
        <time>2022-10-06T17:54:19Z</time>
      </trkpt>
      <trkpt lat="10.2786151" lon="-85.7851704">
        <ele>59.0</ele>
        <time>2022-10-06T17:54:20Z</time>
      </trkpt>
      <trkpt lat="10.2786672" lon="-85.7850242">
        <ele>60.0</ele>
        <time>2022-10-06T17:54:21Z</time>
      </trkpt>
      <trkpt lat="10.2787182" lon="-85.7848799">
        <ele>61.0</ele>
        <time>2022-10-06T17:54:22Z</time>
      </trkpt>
      <trkpt lat="10.2787684" lon="-85.7847346">
        <ele>62.1</ele>
        <time>2022-10-06T17:54:23Z</time>
      </trkpt>
      <trkpt lat="10.2788211" lon="-85.7845871">
        <ele>63.2</ele>
        <time>2022-10-06T17:54:24Z</time>
      </trkpt>
      <trkpt lat="10.2788745" lon="-85.7844374">
        <ele>64.3</ele>
        <time>2022-10-06T17:54:25Z</time>
      </trkpt>
      <trkpt lat="10.2789257" lon="-85.7842864">
        <ele>65.4</ele>
        <time>2022-10-06T17:54:26Z</time>
      </trkpt>
      <trkpt lat="10.2789776" lon="-85.7841330">
        <ele>66.4</ele>
        <time>2022-10-06T17:54:27Z</time>
      </trkpt>
      <trkpt lat="10.2790300" lon="-85.7839841">
        <ele>67.5</ele>
        <time>2022-10-06T17:54:28Z</time>
      </trkpt>
      <trkpt lat="10.2790805" lon="-85.7838346">
        <ele>68.4</ele>
        <time>2022-10-06T17:54:29Z</time>
      </trkpt>
      <trkpt lat="10.2791289" lon="-85.7836916">
        <ele>68.8</ele>
        <time>2022-10-06T17:54:30Z</time>
      </trkpt>
      <trkpt lat="10.2791757" lon="-85.7835492">
        <ele>69.2</ele>
        <time>2022-10-06T17:54:31Z</time>
      </trkpt>
      <trkpt lat="10.2792218" lon="-85.7834114">
        <ele>69.7</ele>
        <time>2022-10-06T17:54:32Z</time>
      </trkpt>
      <trkpt lat="10.2792687" lon="-85.7832743">
        <ele>69.9</ele>
        <time>2022-10-06T17:54:33Z</time>
      </trkpt>
      <trkpt lat="10.2793143" lon="-85.7831405">
        <ele>70.1</ele>
        <time>2022-10-06T17:54:34Z</time>
      </trkpt>
      <trkpt lat="10.2793606" lon="-85.7830052">
        <ele>70.3</ele>
        <time>2022-10-06T17:54:35Z</time>
      </trkpt>
      <trkpt lat="10.2794078" lon="-85.7828685">
        <ele>70.5</ele>
        <time>2022-10-06T17:54:36Z</time>
      </trkpt>
      <trkpt lat="10.2794541" lon="-85.7827308">
        <ele>70.7</ele>
        <time>2022-10-06T17:54:37Z</time>
      </trkpt>
      <trkpt lat="10.2795020" lon="-85.7825938">
        <ele>70.8</ele>
        <time>2022-10-06T17:54:38Z</time>
      </trkpt>
      <trkpt lat="10.2795525" lon="-85.7824561">
        <ele>70.8</ele>
        <time>2022-10-06T17:54:39Z</time>
      </trkpt>
      <trkpt lat="10.2796019" lon="-85.7823196">
        <ele>70.8</ele>
        <time>2022-10-06T17:54:40Z</time>
      </trkpt>
      <trkpt lat="10.2796501" lon="-85.7821860">
        <ele>70.8</ele>
        <time>2022-10-06T17:54:41Z</time>
      </trkpt>
      <trkpt lat="10.2796944" lon="-85.7820568">
        <ele>70.7</ele>
        <time>2022-10-06T17:54:42Z</time>
      </trkpt>
      <trkpt lat="10.2797366" lon="-85.7819313">
        <ele>70.5</ele>
        <time>2022-10-06T17:54:43Z</time>
      </trkpt>
      <trkpt lat="10.2797757" lon="-85.7818040">
        <ele>70.4</ele>
        <time>2022-10-06T17:54:44Z</time>
      </trkpt>
      <trkpt lat="10.2798112" lon="-85.7816762">
        <ele>70.3</ele>
        <time>2022-10-06T17:54:45Z</time>
      </trkpt>
      <trkpt lat="10.2798368" lon="-85.7815415">
        <ele>70.3</ele>
        <time>2022-10-06T17:54:46Z</time>
      </trkpt>
      <trkpt lat="10.2798478" lon="-85.7814005">
        <ele>70.5</ele>
        <time>2022-10-06T17:54:47Z</time>
      </trkpt>
      <trkpt lat="10.2798421" lon="-85.7812557">
        <ele>70.9</ele>
        <time>2022-10-06T17:54:48Z</time>
      </trkpt>
      <trkpt lat="10.2798199" lon="-85.7811109">
        <ele>71.4</ele>
        <time>2022-10-06T17:54:49Z</time>
      </trkpt>
      <trkpt lat="10.2797852" lon="-85.7809694">
        <ele>72.0</ele>
        <time>2022-10-06T17:54:50Z</time>
      </trkpt>
      <trkpt lat="10.2797387" lon="-85.7808293">
        <ele>72.5</ele>
        <time>2022-10-06T17:54:51Z</time>
      </trkpt>
      <trkpt lat="10.2796890" lon="-85.7806939">
        <ele>73.0</ele>
        <time>2022-10-06T17:54:52Z</time>
      </trkpt>
      <trkpt lat="10.2796373" lon="-85.7805566">
        <ele>73.5</ele>
        <time>2022-10-06T17:54:53Z</time>
      </trkpt>
      <trkpt lat="10.2795836" lon="-85.7804196">
        <ele>73.8</ele>
        <time>2022-10-06T17:54:54Z</time>
      </trkpt>
      <trkpt lat="10.2795288" lon="-85.7802790">
        <ele>73.9</ele>
        <time>2022-10-06T17:54:55Z</time>
      </trkpt>
      <trkpt lat="10.2794729" lon="-85.7801369">
        <ele>73.8</ele>
        <time>2022-10-06T17:54:56Z</time>
      </trkpt>
      <trkpt lat="10.2794168" lon="-85.7799933">
        <ele>73.6</ele>
        <time>2022-10-06T17:54:57Z</time>
      </trkpt>
      <trkpt lat="10.2793608" lon="-85.7798508">
        <ele>73.1</ele>
        <time>2022-10-06T17:54:58Z</time>
      </trkpt>
      <trkpt lat="10.2793069" lon="-85.7797070">
        <ele>72.7</ele>
        <time>2022-10-06T17:54:59Z</time>
      </trkpt>
      <trkpt lat="10.2792528" lon="-85.7795614">
        <ele>72.3</ele>
        <time>2022-10-06T17:55:00Z</time>
      </trkpt>
      <trkpt lat="10.2791970" lon="-85.7794124">
        <ele>71.9</ele>
        <time>2022-10-06T17:55:01Z</time>
      </trkpt>
      <trkpt lat="10.2791411" lon="-85.7792651">
        <ele>71.4</ele>
        <time>2022-10-06T17:55:02Z</time>
      </trkpt>
      <trkpt lat="10.2790837" lon="-85.7791152">
        <ele>71.0</ele>
        <time>2022-10-06T17:55:03Z</time>
      </trkpt>
      <trkpt lat="10.2790267" lon="-85.7789651">
        <ele>70.5</ele>
        <time>2022-10-06T17:55:04Z</time>
      </trkpt>
      <trkpt lat="10.2789680" lon="-85.7788148">
        <ele>70.2</ele>
        <time>2022-10-06T17:55:05Z</time>
      </trkpt>
      <trkpt lat="10.2789077" lon="-85.7786663">
        <ele>70.1</ele>
        <time>2022-10-06T17:55:06Z</time>
      </trkpt>
      <trkpt lat="10.2788414" lon="-85.7785216">
        <ele>70.2</ele>
        <time>2022-10-06T17:55:07Z</time>
      </trkpt>
      <trkpt lat="10.2787673" lon="-85.7783778">
        <ele>70.4</ele>
        <time>2022-10-06T17:55:08Z</time>
      </trkpt>
      <trkpt lat="10.2786869" lon="-85.7782364">
        <ele>70.8</ele>
        <time>2022-10-06T17:55:09Z</time>
      </trkpt>
      <trkpt lat="10.2786025" lon="-85.7780970">
        <ele>71.3</ele>
        <time>2022-10-06T17:55:10Z</time>
      </trkpt>
      <trkpt lat="10.2785176" lon="-85.7779617">
        <ele>71.6</ele>
        <time>2022-10-06T17:55:11Z</time>
      </trkpt>
      <trkpt lat="10.2784348" lon="-85.7778314">
        <ele>71.7</ele>
        <time>2022-10-06T17:55:12Z</time>
      </trkpt>
      <trkpt lat="10.2783525" lon="-85.7777043">
        <ele>72.1</ele>
        <time>2022-10-06T17:55:13Z</time>
      </trkpt>
      <trkpt lat="10.2782685" lon="-85.7775781">
        <ele>72.3</ele>
        <time>2022-10-06T17:55:14Z</time>
      </trkpt>
      <trkpt lat="10.2781837" lon="-85.7774567">
        <ele>72.6</ele>
        <time>2022-10-06T17:55:15Z</time>
      </trkpt>
      <trkpt lat="10.2780917" lon="-85.7773375">
        <ele>72.7</ele>
        <time>2022-10-06T17:55:16Z</time>
      </trkpt>
      <trkpt lat="10.2779935" lon="-85.7772201">
        <ele>72.7</ele>
        <time>2022-10-06T17:55:17Z</time>
      </trkpt>
      <trkpt lat="10.2778917" lon="-85.7771085">
        <ele>72.7</ele>
        <time>2022-10-06T17:55:18Z</time>
      </trkpt>
      <trkpt lat="10.2777843" lon="-85.7769995">
        <ele>72.6</ele>
        <time>2022-10-06T17:55:19Z</time>
      </trkpt>
      <trkpt lat="10.2776729" lon="-85.7768968">
        <ele>72.5</ele>
        <time>2022-10-06T17:55:20Z</time>
      </trkpt>
      <trkpt lat="10.2775573" lon="-85.7767994">
        <ele>72.3</ele>
        <time>2022-10-06T17:55:21Z</time>
      </trkpt>
      <trkpt lat="10.2774370" lon="-85.7767056">
        <ele>72.2</ele>
        <time>2022-10-06T17:55:22Z</time>
      </trkpt>
      <trkpt lat="10.2773191" lon="-85.7766110">
        <ele>72.2</ele>
        <time>2022-10-06T17:55:23Z</time>
      </trkpt>
      <trkpt lat="10.2772021" lon="-85.7765147">
        <ele>72.2</ele>
        <time>2022-10-06T17:55:24Z</time>
      </trkpt>
      <trkpt lat="10.2770856" lon="-85.7764214">
        <ele>72.3</ele>
        <time>2022-10-06T17:55:25Z</time>
      </trkpt>
      <trkpt lat="10.2769674" lon="-85.7763280">
        <ele>72.3</ele>
        <time>2022-10-06T17:55:26Z</time>
      </trkpt>
      <trkpt lat="10.2768463" lon="-85.7762326">
        <ele>72.3</ele>
        <time>2022-10-06T17:55:27Z</time>
      </trkpt>
      <trkpt lat="10.2767252" lon="-85.7761360">
        <ele>72.4</ele>
        <time>2022-10-06T17:55:28Z</time>
      </trkpt>
      <trkpt lat="10.2766012" lon="-85.7760386">
        <ele>72.4</ele>
        <time>2022-10-06T17:55:29Z</time>
      </trkpt>
      <trkpt lat="10.2764727" lon="-85.7759366">
        <ele>72.5</ele>
        <time>2022-10-06T17:55:30Z</time>
      </trkpt>
      <trkpt lat="10.2763407" lon="-85.7758305">
        <ele>72.5</ele>
        <time>2022-10-06T17:55:31Z</time>
      </trkpt>
      <trkpt lat="10.2762092" lon="-85.7757239">
        <ele>72.6</ele>
        <time>2022-10-06T17:55:32Z</time>
      </trkpt>
      <trkpt lat="10.2760781" lon="-85.7756161">
        <ele>72.6</ele>
        <time>2022-10-06T17:55:33Z</time>
      </trkpt>
      <trkpt lat="10.2759449" lon="-85.7755086">
        <ele>72.6</ele>
        <time>2022-10-06T17:55:34Z</time>
      </trkpt>
      <trkpt lat="10.2758119" lon="-85.7754030">
        <ele>72.6</ele>
        <time>2022-10-06T17:55:35Z</time>
      </trkpt>
      <trkpt lat="10.2756775" lon="-85.7752963">
        <ele>72.6</ele>
        <time>2022-10-06T17:55:36Z</time>
      </trkpt>
      <trkpt lat="10.2755424" lon="-85.7751897">
        <ele>72.6</ele>
        <time>2022-10-06T17:55:37Z</time>
      </trkpt>
      <trkpt lat="10.2754078" lon="-85.7750822">
        <ele>72.5</ele>
        <time>2022-10-06T17:55:38Z</time>
      </trkpt>
      <trkpt lat="10.2752739" lon="-85.7749751">
        <ele>72.4</ele>
        <time>2022-10-06T17:55:39Z</time>
      </trkpt>
      <trkpt lat="10.2751380" lon="-85.7748665">
        <ele>72.3</ele>
        <time>2022-10-06T17:55:40Z</time>
      </trkpt>
      <trkpt lat="10.2750015" lon="-85.7747564">
        <ele>72.1</ele>
        <time>2022-10-06T17:55:41Z</time>
      </trkpt>
      <trkpt lat="10.2748631" lon="-85.7746462">
        <ele>72.0</ele>
        <time>2022-10-06T17:55:42Z</time>
      </trkpt>
      <trkpt lat="10.2747282" lon="-85.7745411">
        <ele>71.9</ele>
        <time>2022-10-06T17:55:43Z</time>
      </trkpt>
      <trkpt lat="10.2746027" lon="-85.7744419">
        <ele>71.9</ele>
        <time>2022-10-06T17:55:44Z</time>
      </trkpt>
      <trkpt lat="10.2744926" lon="-85.7743555">
        <ele>71.8</ele>
        <time>2022-10-06T17:55:45Z</time>
      </trkpt>
      <trkpt lat="10.2743930" lon="-85.7742773">
        <ele>71.9</ele>
        <time>2022-10-06T17:55:46Z</time>
      </trkpt>
      <trkpt lat="10.2743054" lon="-85.7742079">
        <ele>71.8</ele>
        <time>2022-10-06T17:55:47Z</time>
      </trkpt>
      <trkpt lat="10.2742284" lon="-85.7741466">
        <ele>71.8</ele>
        <time>2022-10-06T17:55:48Z</time>
      </trkpt>
      <trkpt lat="10.2741637" lon="-85.7740945">
        <ele>71.8</ele>
        <time>2022-10-06T17:55:49Z</time>
      </trkpt>
      <trkpt lat="10.2741073" lon="-85.7740457">
        <ele>71.8</ele>
        <time>2022-10-06T17:55:50Z</time>
      </trkpt>
      <trkpt lat="10.2740519" lon="-85.7739948">
        <ele>71.8</ele>
        <time>2022-10-06T17:55:51Z</time>
      </trkpt>
      <trkpt lat="10.2739928" lon="-85.7739354">
        <ele>71.7</ele>
        <time>2022-10-06T17:55:52Z</time>
      </trkpt>
      <trkpt lat="10.2739321" lon="-85.7738665">
        <ele>72.0</ele>
        <time>2022-10-06T17:55:53Z</time>
      </trkpt>
      <trkpt lat="10.2738703" lon="-85.7737927">
        <ele>71.9</ele>
        <time>2022-10-06T17:55:54Z</time>
      </trkpt>
      <trkpt lat="10.2738094" lon="-85.7737049">
        <ele>71.8</ele>
        <time>2022-10-06T17:55:55Z</time>
      </trkpt>
      <trkpt lat="10.2737518" lon="-85.7736032">
        <ele>71.6</ele>
        <time>2022-10-06T17:55:56Z</time>
      </trkpt>
      <trkpt lat="10.2737042" lon="-85.7734896">
        <ele>71.4</ele>
        <time>2022-10-06T17:55:57Z</time>
      </trkpt>
      <trkpt lat="10.2736657" lon="-85.7733636">
        <ele>71.1</ele>
        <time>2022-10-06T17:55:58Z</time>
      </trkpt>
      <trkpt lat="10.2736325" lon="-85.7732254">
        <ele>70.8</ele>
        <time>2022-10-06T17:55:59Z</time>
      </trkpt>
      <trkpt lat="10.2736028" lon="-85.7730821">
        <ele>70.3</ele>
        <time>2022-10-06T17:56:00Z</time>
      </trkpt>
      <trkpt lat="10.2735723" lon="-85.7729304">
        <ele>69.8</ele>
        <time>2022-10-06T17:56:01Z</time>
      </trkpt>
      <trkpt lat="10.2735399" lon="-85.7727710">
        <ele>69.4</ele>
        <time>2022-10-06T17:56:02Z</time>
      </trkpt>
      <trkpt lat="10.2735082" lon="-85.7726044">
        <ele>69.5</ele>
        <time>2022-10-06T17:56:03Z</time>
      </trkpt>
      <trkpt lat="10.2734742" lon="-85.7724351">
        <ele>69.3</ele>
        <time>2022-10-06T17:56:04Z</time>
      </trkpt>
      <trkpt lat="10.2734409" lon="-85.7722602">
        <ele>69.0</ele>
        <time>2022-10-06T17:56:05Z</time>
      </trkpt>
      <trkpt lat="10.2734071" lon="-85.7720805">
        <ele>68.8</ele>
        <time>2022-10-06T17:56:06Z</time>
      </trkpt>
      <trkpt lat="10.2733709" lon="-85.7718962">
        <ele>68.7</ele>
        <time>2022-10-06T17:56:07Z</time>
      </trkpt>
      <trkpt lat="10.2733330" lon="-85.7717070">
        <ele>68.6</ele>
        <time>2022-10-06T17:56:08Z</time>
      </trkpt>
      <trkpt lat="10.2732939" lon="-85.7715162">
        <ele>68.5</ele>
        <time>2022-10-06T17:56:09Z</time>
      </trkpt>
      <trkpt lat="10.2732556" lon="-85.7713233">
        <ele>68.5</ele>
        <time>2022-10-06T17:56:10Z</time>
      </trkpt>
      <trkpt lat="10.2732183" lon="-85.7711299">
        <ele>68.6</ele>
        <time>2022-10-06T17:56:11Z</time>
      </trkpt>
      <trkpt lat="10.2731829" lon="-85.7709332">
        <ele>68.7</ele>
        <time>2022-10-06T17:56:12Z</time>
      </trkpt>
      <trkpt lat="10.2731442" lon="-85.7707351">
        <ele>68.6</ele>
        <time>2022-10-06T17:56:13Z</time>
      </trkpt>
      <trkpt lat="10.2731049" lon="-85.7705368">
        <ele>68.6</ele>
        <time>2022-10-06T17:56:14Z</time>
      </trkpt>
      <trkpt lat="10.2730690" lon="-85.7703415">
        <ele>68.7</ele>
        <time>2022-10-06T17:56:15Z</time>
      </trkpt>
      <trkpt lat="10.2730339" lon="-85.7701480">
        <ele>68.8</ele>
        <time>2022-10-06T17:56:16Z</time>
      </trkpt>
      <trkpt lat="10.2729987" lon="-85.7699587">
        <ele>68.9</ele>
        <time>2022-10-06T17:56:17Z</time>
      </trkpt>
      <trkpt lat="10.2729605" lon="-85.7697737">
        <ele>69.0</ele>
        <time>2022-10-06T17:56:18Z</time>
      </trkpt>
      <trkpt lat="10.2729158" lon="-85.7695929">
        <ele>69.1</ele>
        <time>2022-10-06T17:56:19Z</time>
      </trkpt>
      <trkpt lat="10.2728626" lon="-85.7694136">
        <ele>69.3</ele>
        <time>2022-10-06T17:56:20Z</time>
      </trkpt>
      <trkpt lat="10.2727974" lon="-85.7692388">
        <ele>69.6</ele>
        <time>2022-10-06T17:56:21Z</time>
      </trkpt>
      <trkpt lat="10.2727286" lon="-85.7690677">
        <ele>70.0</ele>
        <time>2022-10-06T17:56:22Z</time>
      </trkpt>
      <trkpt lat="10.2726578" lon="-85.7689014">
        <ele>70.3</ele>
        <time>2022-10-06T17:56:23Z</time>
      </trkpt>
      <trkpt lat="10.2725842" lon="-85.7687367">
        <ele>70.7</ele>
        <time>2022-10-06T17:56:24Z</time>
      </trkpt>
      <trkpt lat="10.2725139" lon="-85.7685773">
        <ele>71.1</ele>
        <time>2022-10-06T17:56:25Z</time>
      </trkpt>
      <trkpt lat="10.2724431" lon="-85.7684226">
        <ele>71.5</ele>
        <time>2022-10-06T17:56:26Z</time>
      </trkpt>
      <trkpt lat="10.2723712" lon="-85.7682690">
        <ele>72.1</ele>
        <time>2022-10-06T17:56:27Z</time>
      </trkpt>
      <trkpt lat="10.2722928" lon="-85.7681222">
        <ele>72.7</ele>
        <time>2022-10-06T17:56:28Z</time>
      </trkpt>
      <trkpt lat="10.2722044" lon="-85.7679843">
        <ele>73.2</ele>
        <time>2022-10-06T17:56:29Z</time>
      </trkpt>
      <trkpt lat="10.2721056" lon="-85.7678554">
        <ele>73.8</ele>
        <time>2022-10-06T17:56:30Z</time>
      </trkpt>
      <trkpt lat="10.2719980" lon="-85.7677375">
        <ele>74.4</ele>
        <time>2022-10-06T17:56:31Z</time>
      </trkpt>
      <trkpt lat="10.2718830" lon="-85.7676304">
        <ele>75.0</ele>
        <time>2022-10-06T17:56:32Z</time>
      </trkpt>
      <trkpt lat="10.2717610" lon="-85.7675393">
        <ele>75.4</ele>
        <time>2022-10-06T17:56:33Z</time>
      </trkpt>
      <trkpt lat="10.2716321" lon="-85.7674650">
        <ele>75.9</ele>
        <time>2022-10-06T17:56:34Z</time>
      </trkpt>
      <trkpt lat="10.2714950" lon="-85.7674115">
        <ele>76.5</ele>
        <time>2022-10-06T17:56:35Z</time>
      </trkpt>
      <trkpt lat="10.2713552" lon="-85.7673842">
        <ele>77.1</ele>
        <time>2022-10-06T17:56:36Z</time>
      </trkpt>
      <trkpt lat="10.2712148" lon="-85.7673791">
        <ele>77.7</ele>
        <time>2022-10-06T17:56:37Z</time>
      </trkpt>
      <trkpt lat="10.2710757" lon="-85.7673938">
        <ele>78.1</ele>
        <time>2022-10-06T17:56:38Z</time>
      </trkpt>
      <trkpt lat="10.2709388" lon="-85.7674200">
        <ele>78.8</ele>
        <time>2022-10-06T17:56:39Z</time>
      </trkpt>
      <trkpt lat="10.2708045" lon="-85.7674500">
        <ele>79.3</ele>
        <time>2022-10-06T17:56:40Z</time>
      </trkpt>
      <trkpt lat="10.2706663" lon="-85.7674806">
        <ele>79.7</ele>
        <time>2022-10-06T17:56:41Z</time>
      </trkpt>
      <trkpt lat="10.2705252" lon="-85.7675112">
        <ele>79.9</ele>
        <time>2022-10-06T17:56:42Z</time>
      </trkpt>
      <trkpt lat="10.2703828" lon="-85.7675388">
        <ele>79.9</ele>
        <time>2022-10-06T17:56:43Z</time>
      </trkpt>
      <trkpt lat="10.2702388" lon="-85.7675598">
        <ele>79.6</ele>
        <time>2022-10-06T17:56:44Z</time>
      </trkpt>
      <trkpt lat="10.2700947" lon="-85.7675706">
        <ele>79.1</ele>
        <time>2022-10-06T17:56:45Z</time>
      </trkpt>
      <trkpt lat="10.2699473" lon="-85.7675657">
        <ele>78.7</ele>
        <time>2022-10-06T17:56:46Z</time>
      </trkpt>
      <trkpt lat="10.2697977" lon="-85.7675396">
        <ele>78.1</ele>
        <time>2022-10-06T17:56:47Z</time>
      </trkpt>
      <trkpt lat="10.2696436" lon="-85.7674975">
        <ele>77.3</ele>
        <time>2022-10-06T17:56:48Z</time>
      </trkpt>
      <trkpt lat="10.2694909" lon="-85.7674430">
        <ele>76.4</ele>
        <time>2022-10-06T17:56:49Z</time>
      </trkpt>
      <trkpt lat="10.2693395" lon="-85.7673845">
        <ele>75.5</ele>
        <time>2022-10-06T17:56:50Z</time>
      </trkpt>
      <trkpt lat="10.2691917" lon="-85.7673274">
        <ele>74.5</ele>
        <time>2022-10-06T17:56:51Z</time>
      </trkpt>
      <trkpt lat="10.2690514" lon="-85.7672757">
        <ele>73.6</ele>
        <time>2022-10-06T17:56:52Z</time>
      </trkpt>
      <trkpt lat="10.2689144" lon="-85.7672334">
        <ele>72.9</ele>
        <time>2022-10-06T17:56:53Z</time>
      </trkpt>
      <trkpt lat="10.2687760" lon="-85.7671996">
        <ele>72.3</ele>
        <time>2022-10-06T17:56:54Z</time>
      </trkpt>
      <trkpt lat="10.2686341" lon="-85.7671754">
        <ele>71.6</ele>
        <time>2022-10-06T17:56:55Z</time>
      </trkpt>
      <trkpt lat="10.2684955" lon="-85.7671504">
        <ele>71.3</ele>
        <time>2022-10-06T17:56:56Z</time>
      </trkpt>
      <trkpt lat="10.2683575" lon="-85.7671311">
        <ele>71.2</ele>
        <time>2022-10-06T17:56:57Z</time>
      </trkpt>
      <trkpt lat="10.2682196" lon="-85.7671144">
        <ele>71.2</ele>
        <time>2022-10-06T17:56:58Z</time>
      </trkpt>
      <trkpt lat="10.2680764" lon="-85.7670989">
        <ele>71.2</ele>
        <time>2022-10-06T17:56:59Z</time>
      </trkpt>
      <trkpt lat="10.2679340" lon="-85.7670847">
        <ele>71.1</ele>
        <time>2022-10-06T17:57:00Z</time>
      </trkpt>
      <trkpt lat="10.2677931" lon="-85.7670696">
        <ele>71.1</ele>
        <time>2022-10-06T17:57:01Z</time>
      </trkpt>
      <trkpt lat="10.2676522" lon="-85.7670547">
        <ele>71.0</ele>
        <time>2022-10-06T17:57:02Z</time>
      </trkpt>
      <trkpt lat="10.2675054" lon="-85.7670370">
        <ele>70.9</ele>
        <time>2022-10-06T17:57:03Z</time>
      </trkpt>
      <trkpt lat="10.2673557" lon="-85.7670183">
        <ele>70.8</ele>
        <time>2022-10-06T17:57:04Z</time>
      </trkpt>
      <trkpt lat="10.2672029" lon="-85.7669962">
        <ele>70.7</ele>
        <time>2022-10-06T17:57:05Z</time>
      </trkpt>
      <trkpt lat="10.2670486" lon="-85.7669720">
        <ele>70.7</ele>
        <time>2022-10-06T17:57:06Z</time>
      </trkpt>
      <trkpt lat="10.2668924" lon="-85.7669403">
        <ele>70.9</ele>
        <time>2022-10-06T17:57:07Z</time>
      </trkpt>
      <trkpt lat="10.2667389" lon="-85.7668991">
        <ele>70.9</ele>
        <time>2022-10-06T17:57:08Z</time>
      </trkpt>
      <trkpt lat="10.2665880" lon="-85.7668516">
        <ele>70.9</ele>
        <time>2022-10-06T17:57:09Z</time>
      </trkpt>
      <trkpt lat="10.2664379" lon="-85.7667934">
        <ele>71.0</ele>
        <time>2022-10-06T17:57:10Z</time>
      </trkpt>
      <trkpt lat="10.2662938" lon="-85.7667183">
        <ele>71.1</ele>
        <time>2022-10-06T17:57:11Z</time>
      </trkpt>
      <trkpt lat="10.2661621" lon="-85.7666316">
        <ele>71.1</ele>
        <time>2022-10-06T17:57:12Z</time>
      </trkpt>
      <trkpt lat="10.2660404" lon="-85.7665319">
        <ele>71.2</ele>
        <time>2022-10-06T17:57:13Z</time>
      </trkpt>
      <trkpt lat="10.2659310" lon="-85.7664260">
        <ele>71.3</ele>
        <time>2022-10-06T17:57:14Z</time>
      </trkpt>
      <trkpt lat="10.2658319" lon="-85.7663165">
        <ele>71.6</ele>
        <time>2022-10-06T17:57:15Z</time>
      </trkpt>
      <trkpt lat="10.2657457" lon="-85.7662038">
        <ele>71.7</ele>
        <time>2022-10-06T17:57:16Z</time>
      </trkpt>
      <trkpt lat="10.2656763" lon="-85.7660883">
        <ele>71.8</ele>
        <time>2022-10-06T17:57:17Z</time>
      </trkpt>
      <trkpt lat="10.2656210" lon="-85.7659708">
        <ele>71.8</ele>
        <time>2022-10-06T17:57:18Z</time>
      </trkpt>
      <trkpt lat="10.2655768" lon="-85.7658538">
        <ele>71.8</ele>
        <time>2022-10-06T17:57:19Z</time>
      </trkpt>
      <trkpt lat="10.2655430" lon="-85.7657339">
        <ele>71.8</ele>
        <time>2022-10-06T17:57:20Z</time>
      </trkpt>
      <trkpt lat="10.2655169" lon="-85.7656107">
        <ele>71.7</ele>
        <time>2022-10-06T17:57:21Z</time>
      </trkpt>
      <trkpt lat="10.2655007" lon="-85.7654880">
        <ele>71.6</ele>
        <time>2022-10-06T17:57:22Z</time>
      </trkpt>
      <trkpt lat="10.2654942" lon="-85.7653612">
        <ele>71.6</ele>
        <time>2022-10-06T17:57:23Z</time>
      </trkpt>
      <trkpt lat="10.2654963" lon="-85.7652300">
        <ele>71.4</ele>
        <time>2022-10-06T17:57:24Z</time>
      </trkpt>
      <trkpt lat="10.2655044" lon="-85.7650947">
        <ele>71.3</ele>
        <time>2022-10-06T17:57:25Z</time>
      </trkpt>
      <trkpt lat="10.2655167" lon="-85.7649582">
        <ele>71.2</ele>
        <time>2022-10-06T17:57:26Z</time>
      </trkpt>
      <trkpt lat="10.2655298" lon="-85.7648187">
        <ele>71.2</ele>
        <time>2022-10-06T17:57:27Z</time>
      </trkpt>
      <trkpt lat="10.2655415" lon="-85.7646760">
        <ele>71.0</ele>
        <time>2022-10-06T17:57:28Z</time>
      </trkpt>
      <trkpt lat="10.2655534" lon="-85.7645300">
        <ele>70.9</ele>
        <time>2022-10-06T17:57:29Z</time>
      </trkpt>
      <trkpt lat="10.2655648" lon="-85.7643777">
        <ele>70.8</ele>
        <time>2022-10-06T17:57:30Z</time>
      </trkpt>
      <trkpt lat="10.2655786" lon="-85.7642241">
        <ele>70.9</ele>
        <time>2022-10-06T17:57:31Z</time>
      </trkpt>
      <trkpt lat="10.2655918" lon="-85.7640648">
        <ele>70.8</ele>
        <time>2022-10-06T17:57:32Z</time>
      </trkpt>
      <trkpt lat="10.2656054" lon="-85.7639013">
        <ele>70.8</ele>
        <time>2022-10-06T17:57:33Z</time>
      </trkpt>
      <trkpt lat="10.2656186" lon="-85.7637320">
        <ele>70.8</ele>
        <time>2022-10-06T17:57:34Z</time>
      </trkpt>
      <trkpt lat="10.2656332" lon="-85.7635568">
        <ele>70.7</ele>
        <time>2022-10-06T17:57:35Z</time>
      </trkpt>
      <trkpt lat="10.2656473" lon="-85.7633781">
        <ele>70.7</ele>
        <time>2022-10-06T17:57:36Z</time>
      </trkpt>
      <trkpt lat="10.2656619" lon="-85.7631951">
        <ele>70.4</ele>
        <time>2022-10-06T17:57:37Z</time>
      </trkpt>
      <trkpt lat="10.2656772" lon="-85.7630116">
        <ele>70.4</ele>
        <time>2022-10-06T17:57:38Z</time>
      </trkpt>
      <trkpt lat="10.2656930" lon="-85.7628256">
        <ele>70.3</ele>
        <time>2022-10-06T17:57:39Z</time>
      </trkpt>
      <trkpt lat="10.2657075" lon="-85.7626351">
        <ele>70.3</ele>
        <time>2022-10-06T17:57:40Z</time>
      </trkpt>
      <trkpt lat="10.2657206" lon="-85.7624409">
        <ele>70.1</ele>
        <time>2022-10-06T17:57:41Z</time>
      </trkpt>
      <trkpt lat="10.2657353" lon="-85.7622441">
        <ele>70.0</ele>
        <time>2022-10-06T17:57:42Z</time>
      </trkpt>
      <trkpt lat="10.2657512" lon="-85.7620452">
        <ele>69.7</ele>
        <time>2022-10-06T17:57:43Z</time>
      </trkpt>
      <trkpt lat="10.2657677" lon="-85.7618442">
        <ele>69.6</ele>
        <time>2022-10-06T17:57:44Z</time>
      </trkpt>
      <trkpt lat="10.2657847" lon="-85.7616413">
        <ele>69.5</ele>
        <time>2022-10-06T17:57:45Z</time>
      </trkpt>
      <trkpt lat="10.2658022" lon="-85.7614395">
        <ele>69.3</ele>
        <time>2022-10-06T17:57:46Z</time>
      </trkpt>
      <trkpt lat="10.2658181" lon="-85.7612361">
        <ele>69.2</ele>
        <time>2022-10-06T17:57:47Z</time>
      </trkpt>
      <trkpt lat="10.2658347" lon="-85.7610332">
        <ele>69.3</ele>
        <time>2022-10-06T17:57:48Z</time>
      </trkpt>
      <trkpt lat="10.2658503" lon="-85.7608298">
        <ele>69.1</ele>
        <time>2022-10-06T17:57:49Z</time>
      </trkpt>
      <trkpt lat="10.2658658" lon="-85.7606279">
        <ele>69.0</ele>
        <time>2022-10-06T17:57:50Z</time>
      </trkpt>
      <trkpt lat="10.2658821" lon="-85.7604272">
        <ele>69.0</ele>
        <time>2022-10-06T17:57:51Z</time>
      </trkpt>
      <trkpt lat="10.2658988" lon="-85.7602247">
        <ele>69.0</ele>
        <time>2022-10-06T17:57:52Z</time>
      </trkpt>
      <trkpt lat="10.2659159" lon="-85.7600222">
        <ele>69.0</ele>
        <time>2022-10-06T17:57:53Z</time>
      </trkpt>
      <trkpt lat="10.2659355" lon="-85.7598198">
        <ele>69.1</ele>
        <time>2022-10-06T17:57:54Z</time>
      </trkpt>
      <trkpt lat="10.2659546" lon="-85.7596184">
        <ele>69.1</ele>
        <time>2022-10-06T17:57:55Z</time>
      </trkpt>
      <trkpt lat="10.2659725" lon="-85.7594163">
        <ele>69.2</ele>
        <time>2022-10-06T17:57:56Z</time>
      </trkpt>
      <trkpt lat="10.2659896" lon="-85.7592120">
        <ele>69.3</ele>
        <time>2022-10-06T17:57:57Z</time>
      </trkpt>
      <trkpt lat="10.2660064" lon="-85.7590072">
        <ele>69.3</ele>
        <time>2022-10-06T17:57:58Z</time>
      </trkpt>
      <trkpt lat="10.2660244" lon="-85.7588046">
        <ele>69.3</ele>
        <time>2022-10-06T17:57:59Z</time>
      </trkpt>
      <trkpt lat="10.2660438" lon="-85.7586041">
        <ele>69.4</ele>
        <time>2022-10-06T17:58:00Z</time>
      </trkpt>
      <trkpt lat="10.2660622" lon="-85.7584055">
        <ele>69.4</ele>
        <time>2022-10-06T17:58:01Z</time>
      </trkpt>
      <trkpt lat="10.2660764" lon="-85.7582078">
        <ele>69.4</ele>
        <time>2022-10-06T17:58:02Z</time>
      </trkpt>
      <trkpt lat="10.2660920" lon="-85.7580089">
        <ele>69.4</ele>
        <time>2022-10-06T17:58:03Z</time>
      </trkpt>
      <trkpt lat="10.2661014" lon="-85.7578103">
        <ele>69.3</ele>
        <time>2022-10-06T17:58:04Z</time>
      </trkpt>
      <trkpt lat="10.2661032" lon="-85.7576135">
        <ele>69.3</ele>
        <time>2022-10-06T17:58:05Z</time>
      </trkpt>
      <trkpt lat="10.2660987" lon="-85.7574190">
        <ele>69.3</ele>
        <time>2022-10-06T17:58:06Z</time>
      </trkpt>
      <trkpt lat="10.2660902" lon="-85.7572232">
        <ele>69.4</ele>
        <time>2022-10-06T17:58:07Z</time>
      </trkpt>
      <trkpt lat="10.2660749" lon="-85.7570303">
        <ele>69.6</ele>
        <time>2022-10-06T17:58:08Z</time>
      </trkpt>
      <trkpt lat="10.2660562" lon="-85.7568419">
        <ele>69.6</ele>
        <time>2022-10-06T17:58:09Z</time>
      </trkpt>
      <trkpt lat="10.2660379" lon="-85.7566523">
        <ele>69.9</ele>
        <time>2022-10-06T17:58:10Z</time>
      </trkpt>
      <trkpt lat="10.2660180" lon="-85.7564669">
        <ele>70.2</ele>
        <time>2022-10-06T17:58:11Z</time>
      </trkpt>
      <trkpt lat="10.2659982" lon="-85.7562809">
        <ele>70.2</ele>
        <time>2022-10-06T17:58:12Z</time>
      </trkpt>
      <trkpt lat="10.2659781" lon="-85.7560967">
        <ele>70.3</ele>
        <time>2022-10-06T17:58:13Z</time>
      </trkpt>
      <trkpt lat="10.2659579" lon="-85.7559104">
        <ele>70.5</ele>
        <time>2022-10-06T17:58:14Z</time>
      </trkpt>
      <trkpt lat="10.2659385" lon="-85.7557264">
        <ele>70.7</ele>
        <time>2022-10-06T17:58:15Z</time>
      </trkpt>
      <trkpt lat="10.2659179" lon="-85.7555440">
        <ele>70.8</ele>
        <time>2022-10-06T17:58:16Z</time>
      </trkpt>
      <trkpt lat="10.2658970" lon="-85.7553613">
        <ele>70.9</ele>
        <time>2022-10-06T17:58:17Z</time>
      </trkpt>
      <trkpt lat="10.2658763" lon="-85.7551772">
        <ele>70.9</ele>
        <time>2022-10-06T17:58:18Z</time>
      </trkpt>
      <trkpt lat="10.2658544" lon="-85.7549956">
        <ele>70.9</ele>
        <time>2022-10-06T17:58:19Z</time>
      </trkpt>
      <trkpt lat="10.2658340" lon="-85.7548186">
        <ele>71.0</ele>
        <time>2022-10-06T17:58:20Z</time>
      </trkpt>
      <trkpt lat="10.2658117" lon="-85.7546411">
        <ele>71.0</ele>
        <time>2022-10-06T17:58:21Z</time>
      </trkpt>
      <trkpt lat="10.2657914" lon="-85.7544603">
        <ele>70.8</ele>
        <time>2022-10-06T17:58:22Z</time>
      </trkpt>
      <trkpt lat="10.2657698" lon="-85.7542767">
        <ele>70.7</ele>
        <time>2022-10-06T17:58:23Z</time>
      </trkpt>
      <trkpt lat="10.2657449" lon="-85.7540944">
        <ele>70.4</ele>
        <time>2022-10-06T17:58:24Z</time>
      </trkpt>
      <trkpt lat="10.2657195" lon="-85.7539116">
        <ele>70.1</ele>
        <time>2022-10-06T17:58:25Z</time>
      </trkpt>
      <trkpt lat="10.2656952" lon="-85.7537280">
        <ele>69.8</ele>
        <time>2022-10-06T17:58:26Z</time>
      </trkpt>
      <trkpt lat="10.2656740" lon="-85.7535418">
        <ele>69.4</ele>
        <time>2022-10-06T17:58:27Z</time>
      </trkpt>
      <trkpt lat="10.2656514" lon="-85.7533515">
        <ele>69.0</ele>
        <time>2022-10-06T17:58:28Z</time>
      </trkpt>
      <trkpt lat="10.2656277" lon="-85.7531619">
        <ele>68.6</ele>
        <time>2022-10-06T17:58:29Z</time>
      </trkpt>
      <trkpt lat="10.2656057" lon="-85.7529712">
        <ele>68.3</ele>
        <time>2022-10-06T17:58:30Z</time>
      </trkpt>
      <trkpt lat="10.2655834" lon="-85.7527799">
        <ele>68.0</ele>
        <time>2022-10-06T17:58:31Z</time>
      </trkpt>
      <trkpt lat="10.2655610" lon="-85.7525897">
        <ele>67.9</ele>
        <time>2022-10-06T17:58:32Z</time>
      </trkpt>
      <trkpt lat="10.2655384" lon="-85.7523991">
        <ele>67.9</ele>
        <time>2022-10-06T17:58:33Z</time>
      </trkpt>
      <trkpt lat="10.2655160" lon="-85.7522060">
        <ele>67.9</ele>
        <time>2022-10-06T17:58:34Z</time>
      </trkpt>
      <trkpt lat="10.2654937" lon="-85.7520123">
        <ele>68.1</ele>
        <time>2022-10-06T17:58:35Z</time>
      </trkpt>
      <trkpt lat="10.2654707" lon="-85.7518211">
        <ele>68.3</ele>
        <time>2022-10-06T17:58:36Z</time>
      </trkpt>
      <trkpt lat="10.2654473" lon="-85.7516341">
        <ele>68.4</ele>
        <time>2022-10-06T17:58:37Z</time>
      </trkpt>
      <trkpt lat="10.2654236" lon="-85.7514517">
        <ele>68.6</ele>
        <time>2022-10-06T17:58:38Z</time>
      </trkpt>
      <trkpt lat="10.2653999" lon="-85.7512704">
        <ele>68.6</ele>
        <time>2022-10-06T17:58:39Z</time>
      </trkpt>
      <trkpt lat="10.2653793" lon="-85.7510881">
        <ele>68.8</ele>
        <time>2022-10-06T17:58:40Z</time>
      </trkpt>
      <trkpt lat="10.2653577" lon="-85.7509044">
        <ele>69.1</ele>
        <time>2022-10-06T17:58:41Z</time>
      </trkpt>
      <trkpt lat="10.2653374" lon="-85.7507228">
        <ele>69.2</ele>
        <time>2022-10-06T17:58:42Z</time>
      </trkpt>
      <trkpt lat="10.2653194" lon="-85.7505430">
        <ele>69.2</ele>
        <time>2022-10-06T17:58:43Z</time>
      </trkpt>
      <trkpt lat="10.2653025" lon="-85.7503651">
        <ele>69.2</ele>
        <time>2022-10-06T17:58:44Z</time>
      </trkpt>
      <trkpt lat="10.2652860" lon="-85.7501886">
        <ele>69.1</ele>
        <time>2022-10-06T17:58:45Z</time>
      </trkpt>
      <trkpt lat="10.2652673" lon="-85.7500144">
        <ele>69.1</ele>
        <time>2022-10-06T17:58:46Z</time>
      </trkpt>
      <trkpt lat="10.2652469" lon="-85.7498460">
        <ele>68.9</ele>
        <time>2022-10-06T17:58:47Z</time>
      </trkpt>
      <trkpt lat="10.2652264" lon="-85.7496783">
        <ele>68.8</ele>
        <time>2022-10-06T17:58:48Z</time>
      </trkpt>
      <trkpt lat="10.2652062" lon="-85.7495176">
        <ele>68.7</ele>
        <time>2022-10-06T17:58:49Z</time>
      </trkpt>
      <trkpt lat="10.2651870" lon="-85.7493602">
        <ele>68.6</ele>
        <time>2022-10-06T17:58:50Z</time>
      </trkpt>
      <trkpt lat="10.2651686" lon="-85.7492081">
        <ele>68.5</ele>
        <time>2022-10-06T17:58:51Z</time>
      </trkpt>
      <trkpt lat="10.2651517" lon="-85.7490559">
        <ele>68.4</ele>
        <time>2022-10-06T17:58:52Z</time>
      </trkpt>
      <trkpt lat="10.2651361" lon="-85.7489053">
        <ele>68.3</ele>
        <time>2022-10-06T17:58:53Z</time>
      </trkpt>
      <trkpt lat="10.2651253" lon="-85.7487526">
        <ele>68.3</ele>
        <time>2022-10-06T17:58:54Z</time>
      </trkpt>
      <trkpt lat="10.2651211" lon="-85.7485936">
        <ele>68.3</ele>
        <time>2022-10-06T17:58:55Z</time>
      </trkpt>
      <trkpt lat="10.2651298" lon="-85.7484348">
        <ele>68.0</ele>
        <time>2022-10-06T17:58:56Z</time>
      </trkpt>
      <trkpt lat="10.2651518" lon="-85.7482762">
        <ele>67.9</ele>
        <time>2022-10-06T17:58:57Z</time>
      </trkpt>
      <trkpt lat="10.2651831" lon="-85.7481135">
        <ele>67.6</ele>
        <time>2022-10-06T17:58:58Z</time>
      </trkpt>
      <trkpt lat="10.2652241" lon="-85.7479492">
        <ele>67.4</ele>
        <time>2022-10-06T17:58:59Z</time>
      </trkpt>
      <trkpt lat="10.2652759" lon="-85.7477858">
        <ele>67.4</ele>
        <time>2022-10-06T17:59:00Z</time>
      </trkpt>
      <trkpt lat="10.2653333" lon="-85.7476247">
        <ele>67.4</ele>
        <time>2022-10-06T17:59:01Z</time>
      </trkpt>
      <trkpt lat="10.2654085" lon="-85.7474681">
        <ele>67.7</ele>
        <time>2022-10-06T17:59:02Z</time>
      </trkpt>
      <trkpt lat="10.2654915" lon="-85.7473144">
        <ele>67.7</ele>
        <time>2022-10-06T17:59:03Z</time>
      </trkpt>
      <trkpt lat="10.2655806" lon="-85.7471630">
        <ele>67.8</ele>
        <time>2022-10-06T17:59:04Z</time>
      </trkpt>
      <trkpt lat="10.2656763" lon="-85.7470134">
        <ele>67.7</ele>
        <time>2022-10-06T17:59:05Z</time>
      </trkpt>
      <trkpt lat="10.2657757" lon="-85.7468622">
        <ele>67.7</ele>
        <time>2022-10-06T17:59:06Z</time>
      </trkpt>
      <trkpt lat="10.2658790" lon="-85.7467104">
        <ele>67.8</ele>
        <time>2022-10-06T17:59:07Z</time>
      </trkpt>
      <trkpt lat="10.2659834" lon="-85.7465598">
        <ele>67.8</ele>
        <time>2022-10-06T17:59:08Z</time>
      </trkpt>
      <trkpt lat="10.2660880" lon="-85.7464058">
        <ele>67.8</ele>
        <time>2022-10-06T17:59:09Z</time>
      </trkpt>
      <trkpt lat="10.2661940" lon="-85.7462516">
        <ele>67.8</ele>
        <time>2022-10-06T17:59:10Z</time>
      </trkpt>
      <trkpt lat="10.2663020" lon="-85.7460970">
        <ele>67.6</ele>
        <time>2022-10-06T17:59:11Z</time>
      </trkpt>
      <trkpt lat="10.2664077" lon="-85.7459437">
        <ele>67.7</ele>
        <time>2022-10-06T17:59:12Z</time>
      </trkpt>
      <trkpt lat="10.2665140" lon="-85.7457897">
        <ele>67.5</ele>
        <time>2022-10-06T17:59:13Z</time>
      </trkpt>
      <trkpt lat="10.2666198" lon="-85.7456346">
        <ele>67.4</ele>
        <time>2022-10-06T17:59:14Z</time>
      </trkpt>
      <trkpt lat="10.2667229" lon="-85.7454781">
        <ele>67.1</ele>
        <time>2022-10-06T17:59:15Z</time>
      </trkpt>
      <trkpt lat="10.2668283" lon="-85.7453216">
        <ele>66.8</ele>
        <time>2022-10-06T17:59:16Z</time>
      </trkpt>
      <trkpt lat="10.2669347" lon="-85.7451669">
        <ele>66.5</ele>
        <time>2022-10-06T17:59:17Z</time>
      </trkpt>
      <trkpt lat="10.2670401" lon="-85.7450136">
        <ele>66.2</ele>
        <time>2022-10-06T17:59:18Z</time>
      </trkpt>
      <trkpt lat="10.2671407" lon="-85.7448652">
        <ele>65.9</ele>
        <time>2022-10-06T17:59:19Z</time>
      </trkpt>
      <trkpt lat="10.2672391" lon="-85.7447200">
        <ele>65.6</ele>
        <time>2022-10-06T17:59:20Z</time>
      </trkpt>
      <trkpt lat="10.2673352" lon="-85.7445762">
        <ele>65.3</ele>
        <time>2022-10-06T17:59:21Z</time>
      </trkpt>
      <trkpt lat="10.2674285" lon="-85.7444370">
        <ele>65.0</ele>
        <time>2022-10-06T17:59:22Z</time>
      </trkpt>
      <trkpt lat="10.2675209" lon="-85.7442982">
        <ele>64.7</ele>
        <time>2022-10-06T17:59:23Z</time>
      </trkpt>
      <trkpt lat="10.2676128" lon="-85.7441628">
        <ele>64.4</ele>
        <time>2022-10-06T17:59:24Z</time>
      </trkpt>
      <trkpt lat="10.2677012" lon="-85.7440255">
        <ele>64.2</ele>
        <time>2022-10-06T17:59:25Z</time>
      </trkpt>
      <trkpt lat="10.2677907" lon="-85.7438815">
        <ele>63.9</ele>
        <time>2022-10-06T17:59:26Z</time>
      </trkpt>
      <trkpt lat="10.2678767" lon="-85.7437329">
        <ele>64.0</ele>
        <time>2022-10-06T17:59:27Z</time>
      </trkpt>
      <trkpt lat="10.2679554" lon="-85.7435750">
        <ele>63.8</ele>
        <time>2022-10-06T17:59:28Z</time>
      </trkpt>
      <trkpt lat="10.2680250" lon="-85.7434133">
        <ele>63.7</ele>
        <time>2022-10-06T17:59:29Z</time>
      </trkpt>
      <trkpt lat="10.2680863" lon="-85.7432505">
        <ele>63.6</ele>
        <time>2022-10-06T17:59:30Z</time>
      </trkpt>
      <trkpt lat="10.2681391" lon="-85.7430869">
        <ele>63.4</ele>
        <time>2022-10-06T17:59:31Z</time>
      </trkpt>
      <trkpt lat="10.2681798" lon="-85.7429248">
        <ele>63.1</ele>
        <time>2022-10-06T17:59:32Z</time>
      </trkpt>
      <trkpt lat="10.2682083" lon="-85.7427616">
        <ele>63.0</ele>
        <time>2022-10-06T17:59:33Z</time>
      </trkpt>
      <trkpt lat="10.2682286" lon="-85.7425991">
        <ele>62.9</ele>
        <time>2022-10-06T17:59:34Z</time>
      </trkpt>
      <trkpt lat="10.2682381" lon="-85.7424394">
        <ele>62.7</ele>
        <time>2022-10-06T17:59:35Z</time>
      </trkpt>
      <trkpt lat="10.2682352" lon="-85.7422809">
        <ele>62.7</ele>
        <time>2022-10-06T17:59:36Z</time>
      </trkpt>
      <trkpt lat="10.2682257" lon="-85.7421166">
        <ele>62.6</ele>
        <time>2022-10-06T17:59:37Z</time>
      </trkpt>
      <trkpt lat="10.2682083" lon="-85.7419514">
        <ele>62.7</ele>
        <time>2022-10-06T17:59:38Z</time>
      </trkpt>
      <trkpt lat="10.2681871" lon="-85.7417820">
        <ele>62.7</ele>
        <time>2022-10-06T17:59:39Z</time>
      </trkpt>
      <trkpt lat="10.2681613" lon="-85.7416126">
        <ele>62.5</ele>
        <time>2022-10-06T17:59:40Z</time>
      </trkpt>
      <trkpt lat="10.2681331" lon="-85.7414376">
        <ele>62.3</ele>
        <time>2022-10-06T17:59:41Z</time>
      </trkpt>
      <trkpt lat="10.2681036" lon="-85.7412579">
        <ele>62.1</ele>
        <time>2022-10-06T17:59:42Z</time>
      </trkpt>
      <trkpt lat="10.2680747" lon="-85.7410732">
        <ele>62.0</ele>
        <time>2022-10-06T17:59:43Z</time>
      </trkpt>
      <trkpt lat="10.2680436" lon="-85.7408879">
        <ele>61.8</ele>
        <time>2022-10-06T17:59:44Z</time>
      </trkpt>
      <trkpt lat="10.2680112" lon="-85.7407000">
        <ele>61.6</ele>
        <time>2022-10-06T17:59:45Z</time>
      </trkpt>
      <trkpt lat="10.2679800" lon="-85.7405115">
        <ele>61.4</ele>
        <time>2022-10-06T17:59:46Z</time>
      </trkpt>
      <trkpt lat="10.2679484" lon="-85.7403174">
        <ele>61.2</ele>
        <time>2022-10-06T17:59:47Z</time>
      </trkpt>
      <trkpt lat="10.2679170" lon="-85.7401234">
        <ele>60.9</ele>
        <time>2022-10-06T17:59:48Z</time>
      </trkpt>
      <trkpt lat="10.2678865" lon="-85.7399275">
        <ele>60.7</ele>
        <time>2022-10-06T17:59:49Z</time>
      </trkpt>
      <trkpt lat="10.2678547" lon="-85.7397344">
        <ele>60.4</ele>
        <time>2022-10-06T17:59:50Z</time>
      </trkpt>
      <trkpt lat="10.2678222" lon="-85.7395434">
        <ele>60.2</ele>
        <time>2022-10-06T17:59:51Z</time>
      </trkpt>
      <trkpt lat="10.2677898" lon="-85.7393493">
        <ele>60.1</ele>
        <time>2022-10-06T17:59:52Z</time>
      </trkpt>
      <trkpt lat="10.2677578" lon="-85.7391570">
        <ele>60.0</ele>
        <time>2022-10-06T17:59:53Z</time>
      </trkpt>
      <trkpt lat="10.2677248" lon="-85.7389628">
        <ele>59.9</ele>
        <time>2022-10-06T17:59:54Z</time>
      </trkpt>
      <trkpt lat="10.2676936" lon="-85.7387725">
        <ele>59.8</ele>
        <time>2022-10-06T17:59:55Z</time>
      </trkpt>
      <trkpt lat="10.2676629" lon="-85.7385861">
        <ele>59.9</ele>
        <time>2022-10-06T17:59:56Z</time>
      </trkpt>
      <trkpt lat="10.2676329" lon="-85.7384005">
        <ele>60.0</ele>
        <time>2022-10-06T17:59:57Z</time>
      </trkpt>
      <trkpt lat="10.2676026" lon="-85.7382162">
        <ele>60.1</ele>
        <time>2022-10-06T17:59:58Z</time>
      </trkpt>
      <trkpt lat="10.2675713" lon="-85.7380310">
        <ele>60.2</ele>
        <time>2022-10-06T17:59:59Z</time>
      </trkpt>
      <trkpt lat="10.2675400" lon="-85.7378436">
        <ele>60.3</ele>
        <time>2022-10-06T18:00:00Z</time>
      </trkpt>
      <trkpt lat="10.2675095" lon="-85.7376526">
        <ele>60.5</ele>
        <time>2022-10-06T18:00:01Z</time>
      </trkpt>
      <trkpt lat="10.2674780" lon="-85.7374620">
        <ele>60.8</ele>
        <time>2022-10-06T18:00:02Z</time>
      </trkpt>
      <trkpt lat="10.2674476" lon="-85.7372726">
        <ele>61.2</ele>
        <time>2022-10-06T18:00:03Z</time>
      </trkpt>
      <trkpt lat="10.2674170" lon="-85.7370860">
        <ele>61.6</ele>
        <time>2022-10-06T18:00:04Z</time>
      </trkpt>
      <trkpt lat="10.2673863" lon="-85.7368992">
        <ele>61.8</ele>
        <time>2022-10-06T18:00:05Z</time>
      </trkpt>
      <trkpt lat="10.2673561" lon="-85.7367117">
        <ele>62.0</ele>
        <time>2022-10-06T18:00:06Z</time>
      </trkpt>
      <trkpt lat="10.2673256" lon="-85.7365209">
        <ele>62.2</ele>
        <time>2022-10-06T18:00:07Z</time>
      </trkpt>
      <trkpt lat="10.2672963" lon="-85.7363317">
        <ele>62.3</ele>
        <time>2022-10-06T18:00:08Z</time>
      </trkpt>
      <trkpt lat="10.2672664" lon="-85.7361416">
        <ele>62.4</ele>
        <time>2022-10-06T18:00:09Z</time>
      </trkpt>
      <trkpt lat="10.2672359" lon="-85.7359524">
        <ele>62.4</ele>
        <time>2022-10-06T18:00:10Z</time>
      </trkpt>
      <trkpt lat="10.2672067" lon="-85.7357652">
        <ele>62.4</ele>
        <time>2022-10-06T18:00:11Z</time>
      </trkpt>
      <trkpt lat="10.2671783" lon="-85.7355772">
        <ele>62.4</ele>
        <time>2022-10-06T18:00:12Z</time>
      </trkpt>
      <trkpt lat="10.2671492" lon="-85.7353926">
        <ele>62.4</ele>
        <time>2022-10-06T18:00:13Z</time>
      </trkpt>
      <trkpt lat="10.2671203" lon="-85.7352113">
        <ele>62.4</ele>
        <time>2022-10-06T18:00:14Z</time>
      </trkpt>
      <trkpt lat="10.2670934" lon="-85.7350322">
        <ele>62.6</ele>
        <time>2022-10-06T18:00:15Z</time>
      </trkpt>
      <trkpt lat="10.2670656" lon="-85.7348562">
        <ele>62.8</ele>
        <time>2022-10-06T18:00:16Z</time>
      </trkpt>
      <trkpt lat="10.2670374" lon="-85.7346831">
        <ele>63.0</ele>
        <time>2022-10-06T18:00:17Z</time>
      </trkpt>
      <trkpt lat="10.2670099" lon="-85.7345098">
        <ele>63.2</ele>
        <time>2022-10-06T18:00:18Z</time>
      </trkpt>
      <trkpt lat="10.2669819" lon="-85.7343391">
        <ele>63.4</ele>
        <time>2022-10-06T18:00:19Z</time>
      </trkpt>
      <trkpt lat="10.2669543" lon="-85.7341687">
        <ele>63.7</ele>
        <time>2022-10-06T18:00:20Z</time>
      </trkpt>
      <trkpt lat="10.2669289" lon="-85.7340017">
        <ele>63.9</ele>
        <time>2022-10-06T18:00:21Z</time>
      </trkpt>
      <trkpt lat="10.2669041" lon="-85.7338405">
        <ele>64.2</ele>
        <time>2022-10-06T18:00:22Z</time>
      </trkpt>
      <trkpt lat="10.2668795" lon="-85.7336798">
        <ele>64.3</ele>
        <time>2022-10-06T18:00:23Z</time>
      </trkpt>
      <trkpt lat="10.2668530" lon="-85.7335170">
        <ele>64.6</ele>
        <time>2022-10-06T18:00:24Z</time>
      </trkpt>
      <trkpt lat="10.2668298" lon="-85.7333529">
        <ele>64.7</ele>
        <time>2022-10-06T18:00:25Z</time>
      </trkpt>
      <trkpt lat="10.2668107" lon="-85.7331844">
        <ele>64.9</ele>
        <time>2022-10-06T18:00:26Z</time>
      </trkpt>
      <trkpt lat="10.2667939" lon="-85.7330170">
        <ele>65.0</ele>
        <time>2022-10-06T18:00:27Z</time>
      </trkpt>
      <trkpt lat="10.2667797" lon="-85.7328427">
        <ele>64.9</ele>
        <time>2022-10-06T18:00:28Z</time>
      </trkpt>
      <trkpt lat="10.2667715" lon="-85.7326641">
        <ele>64.9</ele>
        <time>2022-10-06T18:00:29Z</time>
      </trkpt>
      <trkpt lat="10.2667650" lon="-85.7324792">
        <ele>64.8</ele>
        <time>2022-10-06T18:00:30Z</time>
      </trkpt>
      <trkpt lat="10.2667644" lon="-85.7322939">
        <ele>64.9</ele>
        <time>2022-10-06T18:00:31Z</time>
      </trkpt>
      <trkpt lat="10.2667616" lon="-85.7321040">
        <ele>64.8</ele>
        <time>2022-10-06T18:00:32Z</time>
      </trkpt>
      <trkpt lat="10.2667588" lon="-85.7319109">
        <ele>64.7</ele>
        <time>2022-10-06T18:00:33Z</time>
      </trkpt>
      <trkpt lat="10.2667555" lon="-85.7317158">
        <ele>64.7</ele>
        <time>2022-10-06T18:00:34Z</time>
      </trkpt>
      <trkpt lat="10.2667515" lon="-85.7315191">
        <ele>64.6</ele>
        <time>2022-10-06T18:00:35Z</time>
      </trkpt>
      <trkpt lat="10.2667462" lon="-85.7313224">
        <ele>64.6</ele>
        <time>2022-10-06T18:00:36Z</time>
      </trkpt>
      <trkpt lat="10.2667438" lon="-85.7311279">
        <ele>64.4</ele>
        <time>2022-10-06T18:00:37Z</time>
      </trkpt>
      <trkpt lat="10.2667415" lon="-85.7309367">
        <ele>64.2</ele>
        <time>2022-10-06T18:00:38Z</time>
      </trkpt>
      <trkpt lat="10.2667398" lon="-85.7307478">
        <ele>64.1</ele>
        <time>2022-10-06T18:00:39Z</time>
      </trkpt>
      <trkpt lat="10.2667380" lon="-85.7305653">
        <ele>63.9</ele>
        <time>2022-10-06T18:00:40Z</time>
      </trkpt>
      <trkpt lat="10.2667356" lon="-85.7303842">
        <ele>63.9</ele>
        <time>2022-10-06T18:00:41Z</time>
      </trkpt>
      <trkpt lat="10.2667334" lon="-85.7302008">
        <ele>64.0</ele>
        <time>2022-10-06T18:00:42Z</time>
      </trkpt>
      <trkpt lat="10.2667323" lon="-85.7300180">
        <ele>64.2</ele>
        <time>2022-10-06T18:00:43Z</time>
      </trkpt>
      <trkpt lat="10.2667315" lon="-85.7298377">
        <ele>64.5</ele>
        <time>2022-10-06T18:00:44Z</time>
      </trkpt>
      <trkpt lat="10.2667319" lon="-85.7296594">
        <ele>64.6</ele>
        <time>2022-10-06T18:00:45Z</time>
      </trkpt>
      <trkpt lat="10.2667318" lon="-85.7294793">
        <ele>64.5</ele>
        <time>2022-10-06T18:00:46Z</time>
      </trkpt>
      <trkpt lat="10.2667311" lon="-85.7292947">
        <ele>64.1</ele>
        <time>2022-10-06T18:00:47Z</time>
      </trkpt>
      <trkpt lat="10.2667316" lon="-85.7291116">
        <ele>63.7</ele>
        <time>2022-10-06T18:00:48Z</time>
      </trkpt>
      <trkpt lat="10.2667301" lon="-85.7289276">
        <ele>63.1</ele>
        <time>2022-10-06T18:00:49Z</time>
      </trkpt>
      <trkpt lat="10.2667302" lon="-85.7287450">
        <ele>62.4</ele>
        <time>2022-10-06T18:00:50Z</time>
      </trkpt>
      <trkpt lat="10.2667312" lon="-85.7285645">
        <ele>61.9</ele>
        <time>2022-10-06T18:00:51Z</time>
      </trkpt>
      <trkpt lat="10.2667312" lon="-85.7283895">
        <ele>61.5</ele>
        <time>2022-10-06T18:00:52Z</time>
      </trkpt>
      <trkpt lat="10.2667309" lon="-85.7282190">
        <ele>61.1</ele>
        <time>2022-10-06T18:00:53Z</time>
      </trkpt>
      <trkpt lat="10.2667289" lon="-85.7280525">
        <ele>60.7</ele>
        <time>2022-10-06T18:00:54Z</time>
      </trkpt>
      <trkpt lat="10.2667269" lon="-85.7278900">
        <ele>60.4</ele>
        <time>2022-10-06T18:00:55Z</time>
      </trkpt>
      <trkpt lat="10.2667245" lon="-85.7277300">
        <ele>60.1</ele>
        <time>2022-10-06T18:00:56Z</time>
      </trkpt>
      <trkpt lat="10.2667213" lon="-85.7275689">
        <ele>60.0</ele>
        <time>2022-10-06T18:00:57Z</time>
      </trkpt>
      <trkpt lat="10.2667169" lon="-85.7274078">
        <ele>59.8</ele>
        <time>2022-10-06T18:00:58Z</time>
      </trkpt>
      <trkpt lat="10.2667109" lon="-85.7272464">
        <ele>59.8</ele>
        <time>2022-10-06T18:00:59Z</time>
      </trkpt>
      <trkpt lat="10.2666993" lon="-85.7270859">
        <ele>60.0</ele>
        <time>2022-10-06T18:01:00Z</time>
      </trkpt>
      <trkpt lat="10.2666820" lon="-85.7269302">
        <ele>60.2</ele>
        <time>2022-10-06T18:01:01Z</time>
      </trkpt>
      <trkpt lat="10.2666565" lon="-85.7267797">
        <ele>60.4</ele>
        <time>2022-10-06T18:01:02Z</time>
      </trkpt>
      <trkpt lat="10.2666253" lon="-85.7266339">
        <ele>60.7</ele>
        <time>2022-10-06T18:01:03Z</time>
      </trkpt>
      <trkpt lat="10.2665848" lon="-85.7264918">
        <ele>60.6</ele>
        <time>2022-10-06T18:01:04Z</time>
      </trkpt>
      <trkpt lat="10.2665354" lon="-85.7263535">
        <ele>60.4</ele>
        <time>2022-10-06T18:01:05Z</time>
      </trkpt>
      <trkpt lat="10.2664776" lon="-85.7262135">
        <ele>60.0</ele>
        <time>2022-10-06T18:01:06Z</time>
      </trkpt>
      <trkpt lat="10.2664155" lon="-85.7260710">
        <ele>60.1</ele>
        <time>2022-10-06T18:01:07Z</time>
      </trkpt>
      <trkpt lat="10.2663496" lon="-85.7259273">
        <ele>59.5</ele>
        <time>2022-10-06T18:01:08Z</time>
      </trkpt>
      <trkpt lat="10.2662840" lon="-85.7257845">
        <ele>59.1</ele>
        <time>2022-10-06T18:01:09Z</time>
      </trkpt>
      <trkpt lat="10.2662167" lon="-85.7256408">
        <ele>58.7</ele>
        <time>2022-10-06T18:01:10Z</time>
      </trkpt>
      <trkpt lat="10.2661479" lon="-85.7254933">
        <ele>58.5</ele>
        <time>2022-10-06T18:01:11Z</time>
      </trkpt>
      <trkpt lat="10.2660773" lon="-85.7253420">
        <ele>58.7</ele>
        <time>2022-10-06T18:01:12Z</time>
      </trkpt>
      <trkpt lat="10.2660060" lon="-85.7251907">
        <ele>58.9</ele>
        <time>2022-10-06T18:01:13Z</time>
      </trkpt>
      <trkpt lat="10.2659349" lon="-85.7250395">
        <ele>59.3</ele>
        <time>2022-10-06T18:01:14Z</time>
      </trkpt>
      <trkpt lat="10.2658629" lon="-85.7248887">
        <ele>59.4</ele>
        <time>2022-10-06T18:01:15Z</time>
      </trkpt>
      <trkpt lat="10.2657895" lon="-85.7247376">
        <ele>59.4</ele>
        <time>2022-10-06T18:01:16Z</time>
      </trkpt>
      <trkpt lat="10.2657126" lon="-85.7245840">
        <ele>59.1</ele>
        <time>2022-10-06T18:01:17Z</time>
      </trkpt>
      <trkpt lat="10.2656360" lon="-85.7244316">
        <ele>58.8</ele>
        <time>2022-10-06T18:01:18Z</time>
      </trkpt>
      <trkpt lat="10.2655591" lon="-85.7242791">
        <ele>58.3</ele>
        <time>2022-10-06T18:01:19Z</time>
      </trkpt>
      <trkpt lat="10.2654849" lon="-85.7241269">
        <ele>58.1</ele>
        <time>2022-10-06T18:01:20Z</time>
      </trkpt>
      <trkpt lat="10.2654127" lon="-85.7239777">
        <ele>58.0</ele>
        <time>2022-10-06T18:01:21Z</time>
      </trkpt>
      <trkpt lat="10.2653444" lon="-85.7238361">
        <ele>57.8</ele>
        <time>2022-10-06T18:01:22Z</time>
      </trkpt>
      <trkpt lat="10.2652771" lon="-85.7237009">
        <ele>57.9</ele>
        <time>2022-10-06T18:01:23Z</time>
      </trkpt>
      <trkpt lat="10.2652075" lon="-85.7235668">
        <ele>57.9</ele>
        <time>2022-10-06T18:01:24Z</time>
      </trkpt>
      <trkpt lat="10.2651283" lon="-85.7234336">
        <ele>57.7</ele>
        <time>2022-10-06T18:01:25Z</time>
      </trkpt>
      <trkpt lat="10.2650365" lon="-85.7233010">
        <ele>57.8</ele>
        <time>2022-10-06T18:01:26Z</time>
      </trkpt>
      <trkpt lat="10.2649306" lon="-85.7231739">
        <ele>57.8</ele>
        <time>2022-10-06T18:01:27Z</time>
      </trkpt>
      <trkpt lat="10.2648160" lon="-85.7230519">
        <ele>57.6</ele>
        <time>2022-10-06T18:01:28Z</time>
      </trkpt>
      <trkpt lat="10.2646932" lon="-85.7229293">
        <ele>57.5</ele>
        <time>2022-10-06T18:01:29Z</time>
      </trkpt>
      <trkpt lat="10.2645679" lon="-85.7228078">
        <ele>57.5</ele>
        <time>2022-10-06T18:01:30Z</time>
      </trkpt>
      <trkpt lat="10.2644413" lon="-85.7226855">
        <ele>57.5</ele>
        <time>2022-10-06T18:01:31Z</time>
      </trkpt>
      <trkpt lat="10.2643158" lon="-85.7225649">
        <ele>57.7</ele>
        <time>2022-10-06T18:01:32Z</time>
      </trkpt>
      <trkpt lat="10.2641900" lon="-85.7224457">
        <ele>58.0</ele>
        <time>2022-10-06T18:01:33Z</time>
      </trkpt>
      <trkpt lat="10.2640648" lon="-85.7223280">
        <ele>58.2</ele>
        <time>2022-10-06T18:01:34Z</time>
      </trkpt>
      <trkpt lat="10.2639443" lon="-85.7222159">
        <ele>58.6</ele>
        <time>2022-10-06T18:01:35Z</time>
      </trkpt>
      <trkpt lat="10.2638283" lon="-85.7221059">
        <ele>58.9</ele>
        <time>2022-10-06T18:01:36Z</time>
      </trkpt>
      <trkpt lat="10.2637154" lon="-85.7219995">
        <ele>59.2</ele>
        <time>2022-10-06T18:01:37Z</time>
      </trkpt>
      <trkpt lat="10.2636040" lon="-85.7218937">
        <ele>59.6</ele>
        <time>2022-10-06T18:01:38Z</time>
      </trkpt>
      <trkpt lat="10.2634917" lon="-85.7217863">
        <ele>60.2</ele>
        <time>2022-10-06T18:01:39Z</time>
      </trkpt>
      <trkpt lat="10.2633783" lon="-85.7216762">
        <ele>60.6</ele>
        <time>2022-10-06T18:01:40Z</time>
      </trkpt>
      <trkpt lat="10.2632641" lon="-85.7215669">
        <ele>61.0</ele>
        <time>2022-10-06T18:01:41Z</time>
      </trkpt>
      <trkpt lat="10.2631510" lon="-85.7214589">
        <ele>61.2</ele>
        <time>2022-10-06T18:01:42Z</time>
      </trkpt>
      <trkpt lat="10.2630383" lon="-85.7213519">
        <ele>61.2</ele>
        <time>2022-10-06T18:01:43Z</time>
      </trkpt>
      <trkpt lat="10.2629245" lon="-85.7212458">
        <ele>61.0</ele>
        <time>2022-10-06T18:01:44Z</time>
      </trkpt>
      <trkpt lat="10.2628092" lon="-85.7211383">
        <ele>60.8</ele>
        <time>2022-10-06T18:01:45Z</time>
      </trkpt>
      <trkpt lat="10.2626960" lon="-85.7210320">
        <ele>60.7</ele>
        <time>2022-10-06T18:01:46Z</time>
      </trkpt>
      <trkpt lat="10.2625834" lon="-85.7209270">
        <ele>60.5</ele>
        <time>2022-10-06T18:01:47Z</time>
      </trkpt>
      <trkpt lat="10.2624695" lon="-85.7208294">
        <ele>60.4</ele>
        <time>2022-10-06T18:01:48Z</time>
      </trkpt>
      <trkpt lat="10.2623488" lon="-85.7207415">
        <ele>60.2</ele>
        <time>2022-10-06T18:01:49Z</time>
      </trkpt>
      <trkpt lat="10.2622178" lon="-85.7206611">
        <ele>60.1</ele>
        <time>2022-10-06T18:01:50Z</time>
      </trkpt>
      <trkpt lat="10.2620780" lon="-85.7205937">
        <ele>59.9</ele>
        <time>2022-10-06T18:01:51Z</time>
      </trkpt>
      <trkpt lat="10.2619279" lon="-85.7205411">
        <ele>59.7</ele>
        <time>2022-10-06T18:01:52Z</time>
      </trkpt>
      <trkpt lat="10.2617749" lon="-85.7204954">
        <ele>59.6</ele>
        <time>2022-10-06T18:01:53Z</time>
      </trkpt>
      <trkpt lat="10.2616115" lon="-85.7204693">
        <ele>59.8</ele>
        <time>2022-10-06T18:01:54Z</time>
      </trkpt>
      <trkpt lat="10.2614436" lon="-85.7204543">
        <ele>59.5</ele>
        <time>2022-10-06T18:01:55Z</time>
      </trkpt>
      <trkpt lat="10.2612797" lon="-85.7204427">
        <ele>59.5</ele>
        <time>2022-10-06T18:01:56Z</time>
      </trkpt>
      <trkpt lat="10.2611133" lon="-85.7204322">
        <ele>59.5</ele>
        <time>2022-10-06T18:01:57Z</time>
      </trkpt>
      <trkpt lat="10.2609445" lon="-85.7204229">
        <ele>59.5</ele>
        <time>2022-10-06T18:01:58Z</time>
      </trkpt>
      <trkpt lat="10.2607724" lon="-85.7204139">
        <ele>59.4</ele>
        <time>2022-10-06T18:01:59Z</time>
      </trkpt>
      <trkpt lat="10.2605993" lon="-85.7204040">
        <ele>59.4</ele>
        <time>2022-10-06T18:02:00Z</time>
      </trkpt>
      <trkpt lat="10.2604261" lon="-85.7203938">
        <ele>59.4</ele>
        <time>2022-10-06T18:02:01Z</time>
      </trkpt>
      <trkpt lat="10.2602525" lon="-85.7203835">
        <ele>59.4</ele>
        <time>2022-10-06T18:02:02Z</time>
      </trkpt>
      <trkpt lat="10.2600766" lon="-85.7203742">
        <ele>59.3</ele>
        <time>2022-10-06T18:02:03Z</time>
      </trkpt>
      <trkpt lat="10.2598961" lon="-85.7203643">
        <ele>59.3</ele>
        <time>2022-10-06T18:02:04Z</time>
      </trkpt>
      <trkpt lat="10.2597111" lon="-85.7203540">
        <ele>59.2</ele>
        <time>2022-10-06T18:02:05Z</time>
      </trkpt>
      <trkpt lat="10.2595257" lon="-85.7203437">
        <ele>59.2</ele>
        <time>2022-10-06T18:02:06Z</time>
      </trkpt>
      <trkpt lat="10.2593389" lon="-85.7203335">
        <ele>59.2</ele>
        <time>2022-10-06T18:02:07Z</time>
      </trkpt>
      <trkpt lat="10.2591476" lon="-85.7203229">
        <ele>59.3</ele>
        <time>2022-10-06T18:02:08Z</time>
      </trkpt>
      <trkpt lat="10.2589569" lon="-85.7203115">
        <ele>59.4</ele>
        <time>2022-10-06T18:02:09Z</time>
      </trkpt>
      <trkpt lat="10.2587693" lon="-85.7203010">
        <ele>59.5</ele>
        <time>2022-10-06T18:02:10Z</time>
      </trkpt>
      <trkpt lat="10.2585860" lon="-85.7202914">
        <ele>59.7</ele>
        <time>2022-10-06T18:02:11Z</time>
      </trkpt>
      <trkpt lat="10.2584057" lon="-85.7202822">
        <ele>59.7</ele>
        <time>2022-10-06T18:02:12Z</time>
      </trkpt>
      <trkpt lat="10.2582291" lon="-85.7202711">
        <ele>59.9</ele>
        <time>2022-10-06T18:02:13Z</time>
      </trkpt>
      <trkpt lat="10.2580478" lon="-85.7202596">
        <ele>59.8</ele>
        <time>2022-10-06T18:02:14Z</time>
      </trkpt>
      <trkpt lat="10.2578655" lon="-85.7202495">
        <ele>60.1</ele>
        <time>2022-10-06T18:02:15Z</time>
      </trkpt>
      <trkpt lat="10.2576846" lon="-85.7202395">
        <ele>60.4</ele>
        <time>2022-10-06T18:02:16Z</time>
      </trkpt>
      <trkpt lat="10.2575018" lon="-85.7202292">
        <ele>60.6</ele>
        <time>2022-10-06T18:02:17Z</time>
      </trkpt>
      <trkpt lat="10.2573179" lon="-85.7202189">
        <ele>60.6</ele>
        <time>2022-10-06T18:02:18Z</time>
      </trkpt>
      <trkpt lat="10.2571312" lon="-85.7202113">
        <ele>60.8</ele>
        <time>2022-10-06T18:02:19Z</time>
      </trkpt>
      <trkpt lat="10.2569461" lon="-85.7202053">
        <ele>61.0</ele>
        <time>2022-10-06T18:02:20Z</time>
      </trkpt>
      <trkpt lat="10.2567577" lon="-85.7202033">
        <ele>61.1</ele>
        <time>2022-10-06T18:02:21Z</time>
      </trkpt>
      <trkpt lat="10.2565673" lon="-85.7202019">
        <ele>61.2</ele>
        <time>2022-10-06T18:02:22Z</time>
      </trkpt>
      <trkpt lat="10.2563759" lon="-85.7202038">
        <ele>61.3</ele>
        <time>2022-10-06T18:02:23Z</time>
      </trkpt>
      <trkpt lat="10.2561881" lon="-85.7202081">
        <ele>61.4</ele>
        <time>2022-10-06T18:02:24Z</time>
      </trkpt>
      <trkpt lat="10.2560058" lon="-85.7202160">
        <ele>61.5</ele>
        <time>2022-10-06T18:02:25Z</time>
      </trkpt>
      <trkpt lat="10.2558260" lon="-85.7202238">
        <ele>61.5</ele>
        <time>2022-10-06T18:02:26Z</time>
      </trkpt>
      <trkpt lat="10.2556481" lon="-85.7202344">
        <ele>61.5</ele>
        <time>2022-10-06T18:02:27Z</time>
      </trkpt>
      <trkpt lat="10.2554707" lon="-85.7202454">
        <ele>61.4</ele>
        <time>2022-10-06T18:02:28Z</time>
      </trkpt>
      <trkpt lat="10.2552974" lon="-85.7202552">
        <ele>61.2</ele>
        <time>2022-10-06T18:02:29Z</time>
      </trkpt>
      <trkpt lat="10.2551311" lon="-85.7202610">
        <ele>61.1</ele>
        <time>2022-10-06T18:02:30Z</time>
      </trkpt>
      <trkpt lat="10.2549760" lon="-85.7202634">
        <ele>61.1</ele>
        <time>2022-10-06T18:02:31Z</time>
      </trkpt>
      <trkpt lat="10.2548240" lon="-85.7202411">
        <ele>61.0</ele>
        <time>2022-10-06T18:02:32Z</time>
      </trkpt>
      <trkpt lat="10.2546836" lon="-85.7201980">
        <ele>60.7</ele>
        <time>2022-10-06T18:02:33Z</time>
      </trkpt>
      <trkpt lat="10.2545529" lon="-85.7201343">
        <ele>60.5</ele>
        <time>2022-10-06T18:02:34Z</time>
      </trkpt>
      <trkpt lat="10.2544334" lon="-85.7200558">
        <ele>60.2</ele>
        <time>2022-10-06T18:02:35Z</time>
      </trkpt>
      <trkpt lat="10.2543215" lon="-85.7199648">
        <ele>60.0</ele>
        <time>2022-10-06T18:02:36Z</time>
      </trkpt>
      <trkpt lat="10.2542213" lon="-85.7198555">
        <ele>59.8</ele>
        <time>2022-10-06T18:02:37Z</time>
      </trkpt>
      <trkpt lat="10.2541397" lon="-85.7197311">
        <ele>59.6</ele>
        <time>2022-10-06T18:02:38Z</time>
      </trkpt>
      <trkpt lat="10.2540776" lon="-85.7195959">
        <ele>59.4</ele>
        <time>2022-10-06T18:02:39Z</time>
      </trkpt>
      <trkpt lat="10.2540361" lon="-85.7194562">
        <ele>59.5</ele>
        <time>2022-10-06T18:02:40Z</time>
      </trkpt>
      <trkpt lat="10.2540013" lon="-85.7193112">
        <ele>59.5</ele>
        <time>2022-10-06T18:02:41Z</time>
      </trkpt>
      <trkpt lat="10.2539670" lon="-85.7191600">
        <ele>59.5</ele>
        <time>2022-10-06T18:02:42Z</time>
      </trkpt>
      <trkpt lat="10.2539383" lon="-85.7190025">
        <ele>59.6</ele>
        <time>2022-10-06T18:02:43Z</time>
      </trkpt>
      <trkpt lat="10.2539059" lon="-85.7188475">
        <ele>59.5</ele>
        <time>2022-10-06T18:02:44Z</time>
      </trkpt>
      <trkpt lat="10.2538720" lon="-85.7186896">
        <ele>59.5</ele>
        <time>2022-10-06T18:02:45Z</time>
      </trkpt>
      <trkpt lat="10.2538368" lon="-85.7185264">
        <ele>59.5</ele>
        <time>2022-10-06T18:02:46Z</time>
      </trkpt>
      <trkpt lat="10.2538016" lon="-85.7183610">
        <ele>59.5</ele>
        <time>2022-10-06T18:02:47Z</time>
      </trkpt>
      <trkpt lat="10.2537664" lon="-85.7181955">
        <ele>59.5</ele>
        <time>2022-10-06T18:02:48Z</time>
      </trkpt>
      <trkpt lat="10.2537328" lon="-85.7180306">
        <ele>59.6</ele>
        <time>2022-10-06T18:02:49Z</time>
      </trkpt>
      <trkpt lat="10.2537034" lon="-85.7178764">
        <ele>59.7</ele>
        <time>2022-10-06T18:02:50Z</time>
      </trkpt>
      <trkpt lat="10.2536732" lon="-85.7177242">
        <ele>59.7</ele>
        <time>2022-10-06T18:02:51Z</time>
      </trkpt>
      <trkpt lat="10.2536457" lon="-85.7175817">
        <ele>59.8</ele>
        <time>2022-10-06T18:02:52Z</time>
      </trkpt>
      <trkpt lat="10.2536230" lon="-85.7174485">
        <ele>59.8</ele>
        <time>2022-10-06T18:02:53Z</time>
      </trkpt>
      <trkpt lat="10.2536086" lon="-85.7173228">
        <ele>59.7</ele>
        <time>2022-10-06T18:02:54Z</time>
      </trkpt>
      <trkpt lat="10.2536050" lon="-85.7172033">
        <ele>59.8</ele>
        <time>2022-10-06T18:02:55Z</time>
      </trkpt>
      <trkpt lat="10.2536143" lon="-85.7170903">
        <ele>59.8</ele>
        <time>2022-10-06T18:02:56Z</time>
      </trkpt>
      <trkpt lat="10.2536398" lon="-85.7169826">
        <ele>60.0</ele>
        <time>2022-10-06T18:02:57Z</time>
      </trkpt>
      <trkpt lat="10.2536784" lon="-85.7168744">
        <ele>60.1</ele>
        <time>2022-10-06T18:02:58Z</time>
      </trkpt>
      <trkpt lat="10.2537268" lon="-85.7167650">
        <ele>60.2</ele>
        <time>2022-10-06T18:02:59Z</time>
      </trkpt>
      <trkpt lat="10.2537817" lon="-85.7166545">
        <ele>60.3</ele>
        <time>2022-10-06T18:03:00Z</time>
      </trkpt>
      <trkpt lat="10.2538419" lon="-85.7165463">
        <ele>60.3</ele>
        <time>2022-10-06T18:03:01Z</time>
      </trkpt>
      <trkpt lat="10.2539125" lon="-85.7164439">
        <ele>60.6</ele>
        <time>2022-10-06T18:03:02Z</time>
      </trkpt>
      <trkpt lat="10.2539905" lon="-85.7163529">
        <ele>60.7</ele>
        <time>2022-10-06T18:03:03Z</time>
      </trkpt>
      <trkpt lat="10.2540728" lon="-85.7162675">
        <ele>60.8</ele>
        <time>2022-10-06T18:03:04Z</time>
      </trkpt>
      <trkpt lat="10.2541602" lon="-85.7161882">
        <ele>61.0</ele>
        <time>2022-10-06T18:03:05Z</time>
      </trkpt>
      <trkpt lat="10.2542482" lon="-85.7161173">
        <ele>61.1</ele>
        <time>2022-10-06T18:03:06Z</time>
      </trkpt>
      <trkpt lat="10.2543357" lon="-85.7160514">
        <ele>61.3</ele>
        <time>2022-10-06T18:03:07Z</time>
      </trkpt>
      <trkpt lat="10.2544215" lon="-85.7159910">
        <ele>61.4</ele>
        <time>2022-10-06T18:03:08Z</time>
      </trkpt>
      <trkpt lat="10.2545004" lon="-85.7159380">
        <ele>61.5</ele>
        <time>2022-10-06T18:03:09Z</time>
      </trkpt>
      <trkpt lat="10.2545668" lon="-85.7158939">
        <ele>61.5</ele>
        <time>2022-10-06T18:03:10Z</time>
      </trkpt>
      <trkpt lat="10.2546199" lon="-85.7158594">
        <ele>61.5</ele>
        <time>2022-10-06T18:03:11Z</time>
      </trkpt>
      <trkpt lat="10.2546538" lon="-85.7158378">
        <ele>61.6</ele>
        <time>2022-10-06T18:03:12Z</time>
      </trkpt>
      <trkpt lat="10.2546821" lon="-85.7158137">
        <ele>61.6</ele>
        <time>2022-10-06T18:03:13Z</time>
      </trkpt>
      <trkpt lat="10.2547087" lon="-85.7157913">
        <ele>61.5</ele>
        <time>2022-10-06T18:03:14Z</time>
      </trkpt>
      <trkpt lat="10.2547408" lon="-85.7157665">
        <ele>61.6</ele>
        <time>2022-10-06T18:03:15Z</time>
      </trkpt>
      <trkpt lat="10.2547752" lon="-85.7157411">
        <ele>61.6</ele>
        <time>2022-10-06T18:03:16Z</time>
      </trkpt>
      <trkpt lat="10.2548126" lon="-85.7157116">
        <ele>61.5</ele>
        <time>2022-10-06T18:03:17Z</time>
      </trkpt>
      <trkpt lat="10.2548584" lon="-85.7156738">
        <ele>61.5</ele>
        <time>2022-10-06T18:03:18Z</time>
      </trkpt>
      <trkpt lat="10.2549144" lon="-85.7156272">
        <ele>61.4</ele>
        <time>2022-10-06T18:03:19Z</time>
      </trkpt>
      <trkpt lat="10.2549822" lon="-85.7155721">
        <ele>61.3</ele>
        <time>2022-10-06T18:03:20Z</time>
      </trkpt>
      <trkpt lat="10.2550606" lon="-85.7155114">
        <ele>61.2</ele>
        <time>2022-10-06T18:03:21Z</time>
      </trkpt>
      <trkpt lat="10.2551485" lon="-85.7154433">
        <ele>61.2</ele>
        <time>2022-10-06T18:03:22Z</time>
      </trkpt>
      <trkpt lat="10.2552437" lon="-85.7153703">
        <ele>61.1</ele>
        <time>2022-10-06T18:03:23Z</time>
      </trkpt>
      <trkpt lat="10.2553444" lon="-85.7152918">
        <ele>61.0</ele>
        <time>2022-10-06T18:03:24Z</time>
      </trkpt>
      <trkpt lat="10.2554546" lon="-85.7152051">
        <ele>60.9</ele>
        <time>2022-10-06T18:03:25Z</time>
      </trkpt>
      <trkpt lat="10.2555726" lon="-85.7151143">
        <ele>60.9</ele>
        <time>2022-10-06T18:03:26Z</time>
      </trkpt>
      <trkpt lat="10.2556979" lon="-85.7150170">
        <ele>60.8</ele>
        <time>2022-10-06T18:03:27Z</time>
      </trkpt>
      <trkpt lat="10.2558270" lon="-85.7149153">
        <ele>60.7</ele>
        <time>2022-10-06T18:03:28Z</time>
      </trkpt>
      <trkpt lat="10.2559617" lon="-85.7148095">
        <ele>60.6</ele>
        <time>2022-10-06T18:03:29Z</time>
      </trkpt>
      <trkpt lat="10.2561024" lon="-85.7147001">
        <ele>60.5</ele>
        <time>2022-10-06T18:03:30Z</time>
      </trkpt>
      <trkpt lat="10.2562466" lon="-85.7145900">
        <ele>60.4</ele>
        <time>2022-10-06T18:03:31Z</time>
      </trkpt>
      <trkpt lat="10.2563959" lon="-85.7144760">
        <ele>60.4</ele>
        <time>2022-10-06T18:03:32Z</time>
      </trkpt>
      <trkpt lat="10.2565493" lon="-85.7143592">
        <ele>60.3</ele>
        <time>2022-10-06T18:03:33Z</time>
      </trkpt>
      <trkpt lat="10.2567031" lon="-85.7142402">
        <ele>60.3</ele>
        <time>2022-10-06T18:03:34Z</time>
      </trkpt>
      <trkpt lat="10.2568577" lon="-85.7141209">
        <ele>60.2</ele>
        <time>2022-10-06T18:03:35Z</time>
      </trkpt>
      <trkpt lat="10.2570159" lon="-85.7139992">
        <ele>60.1</ele>
        <time>2022-10-06T18:03:36Z</time>
      </trkpt>
      <trkpt lat="10.2571760" lon="-85.7138756">
        <ele>60.1</ele>
        <time>2022-10-06T18:03:37Z</time>
      </trkpt>
      <trkpt lat="10.2573382" lon="-85.7137499">
        <ele>59.9</ele>
        <time>2022-10-06T18:03:38Z</time>
      </trkpt>
      <trkpt lat="10.2575018" lon="-85.7136235">
        <ele>59.8</ele>
        <time>2022-10-06T18:03:39Z</time>
      </trkpt>
      <trkpt lat="10.2576677" lon="-85.7134943">
        <ele>59.7</ele>
        <time>2022-10-06T18:03:40Z</time>
      </trkpt>
      <trkpt lat="10.2578341" lon="-85.7133643">
        <ele>59.7</ele>
        <time>2022-10-06T18:03:41Z</time>
      </trkpt>
      <trkpt lat="10.2580001" lon="-85.7132341">
        <ele>59.6</ele>
        <time>2022-10-06T18:03:42Z</time>
      </trkpt>
      <trkpt lat="10.2581688" lon="-85.7131032">
        <ele>59.5</ele>
        <time>2022-10-06T18:03:43Z</time>
      </trkpt>
      <trkpt lat="10.2583395" lon="-85.7129718">
        <ele>59.4</ele>
        <time>2022-10-06T18:03:44Z</time>
      </trkpt>
      <trkpt lat="10.2585079" lon="-85.7128406">
        <ele>59.3</ele>
        <time>2022-10-06T18:03:45Z</time>
      </trkpt>
      <trkpt lat="10.2586800" lon="-85.7127082">
        <ele>59.2</ele>
        <time>2022-10-06T18:03:46Z</time>
      </trkpt>
      <trkpt lat="10.2588522" lon="-85.7125758">
        <ele>59.2</ele>
        <time>2022-10-06T18:03:47Z</time>
      </trkpt>
      <trkpt lat="10.2590255" lon="-85.7124429">
        <ele>59.2</ele>
        <time>2022-10-06T18:03:48Z</time>
      </trkpt>
      <trkpt lat="10.2591965" lon="-85.7123113">
        <ele>59.1</ele>
        <time>2022-10-06T18:03:49Z</time>
      </trkpt>
      <trkpt lat="10.2593704" lon="-85.7121805">
        <ele>59.1</ele>
        <time>2022-10-06T18:03:50Z</time>
      </trkpt>
      <trkpt lat="10.2595405" lon="-85.7120484">
        <ele>59.1</ele>
        <time>2022-10-06T18:03:51Z</time>
      </trkpt>
      <trkpt lat="10.2597123" lon="-85.7119145">
        <ele>59.0</ele>
        <time>2022-10-06T18:03:52Z</time>
      </trkpt>
      <trkpt lat="10.2598861" lon="-85.7117789">
        <ele>59.0</ele>
        <time>2022-10-06T18:03:53Z</time>
      </trkpt>
      <trkpt lat="10.2600608" lon="-85.7116432">
        <ele>58.9</ele>
        <time>2022-10-06T18:03:54Z</time>
      </trkpt>
      <trkpt lat="10.2602368" lon="-85.7115048">
        <ele>58.9</ele>
        <time>2022-10-06T18:03:55Z</time>
      </trkpt>
      <trkpt lat="10.2604154" lon="-85.7113660">
        <ele>58.9</ele>
        <time>2022-10-06T18:03:56Z</time>
      </trkpt>
      <trkpt lat="10.2605930" lon="-85.7112271">
        <ele>58.8</ele>
        <time>2022-10-06T18:03:57Z</time>
      </trkpt>
      <trkpt lat="10.2607715" lon="-85.7110878">
        <ele>58.8</ele>
        <time>2022-10-06T18:03:58Z</time>
      </trkpt>
      <trkpt lat="10.2609480" lon="-85.7109531">
        <ele>58.9</ele>
        <time>2022-10-06T18:03:59Z</time>
      </trkpt>
      <trkpt lat="10.2611235" lon="-85.7108213">
        <ele>58.9</ele>
        <time>2022-10-06T18:04:00Z</time>
      </trkpt>
      <trkpt lat="10.2612991" lon="-85.7106947">
        <ele>58.9</ele>
        <time>2022-10-06T18:04:01Z</time>
      </trkpt>
      <trkpt lat="10.2614729" lon="-85.7105717">
        <ele>58.9</ele>
        <time>2022-10-06T18:04:02Z</time>
      </trkpt>
      <trkpt lat="10.2616464" lon="-85.7104544">
        <ele>59.1</ele>
        <time>2022-10-06T18:04:03Z</time>
      </trkpt>
      <trkpt lat="10.2618192" lon="-85.7103426">
        <ele>59.2</ele>
        <time>2022-10-06T18:04:04Z</time>
      </trkpt>
      <trkpt lat="10.2619904" lon="-85.7102321">
        <ele>59.1</ele>
        <time>2022-10-06T18:04:05Z</time>
      </trkpt>
      <trkpt lat="10.2621617" lon="-85.7101222">
        <ele>59.2</ele>
        <time>2022-10-06T18:04:06Z</time>
      </trkpt>
      <trkpt lat="10.2623337" lon="-85.7100128">
        <ele>59.0</ele>
        <time>2022-10-06T18:04:07Z</time>
      </trkpt>
      <trkpt lat="10.2625057" lon="-85.7099029">
        <ele>58.9</ele>
        <time>2022-10-06T18:04:08Z</time>
      </trkpt>
      <trkpt lat="10.2626795" lon="-85.7097928">
        <ele>58.8</ele>
        <time>2022-10-06T18:04:09Z</time>
      </trkpt>
      <trkpt lat="10.2628513" lon="-85.7096866">
        <ele>58.6</ele>
        <time>2022-10-06T18:04:10Z</time>
      </trkpt>
      <trkpt lat="10.2630212" lon="-85.7095804">
        <ele>58.5</ele>
        <time>2022-10-06T18:04:11Z</time>
      </trkpt>
      <trkpt lat="10.2631902" lon="-85.7094753">
        <ele>58.6</ele>
        <time>2022-10-06T18:04:12Z</time>
      </trkpt>
      <trkpt lat="10.2633578" lon="-85.7093723">
        <ele>58.5</ele>
        <time>2022-10-06T18:04:13Z</time>
      </trkpt>
      <trkpt lat="10.2635237" lon="-85.7092702">
        <ele>58.5</ele>
        <time>2022-10-06T18:04:14Z</time>
      </trkpt>
      <trkpt lat="10.2636860" lon="-85.7091703">
        <ele>58.5</ele>
        <time>2022-10-06T18:04:15Z</time>
      </trkpt>
      <trkpt lat="10.2638459" lon="-85.7090728">
        <ele>58.4</ele>
        <time>2022-10-06T18:04:16Z</time>
      </trkpt>
      <trkpt lat="10.2640030" lon="-85.7089775">
        <ele>58.3</ele>
        <time>2022-10-06T18:04:17Z</time>
      </trkpt>
      <trkpt lat="10.2641580" lon="-85.7088813">
        <ele>58.2</ele>
        <time>2022-10-06T18:04:18Z</time>
      </trkpt>
      <trkpt lat="10.2643102" lon="-85.7087861">
        <ele>58.1</ele>
        <time>2022-10-06T18:04:19Z</time>
      </trkpt>
      <trkpt lat="10.2644606" lon="-85.7086917">
        <ele>58.0</ele>
        <time>2022-10-06T18:04:20Z</time>
      </trkpt>
      <trkpt lat="10.2646069" lon="-85.7085988">
        <ele>58.0</ele>
        <time>2022-10-06T18:04:21Z</time>
      </trkpt>
      <trkpt lat="10.2647536" lon="-85.7085068">
        <ele>58.0</ele>
        <time>2022-10-06T18:04:22Z</time>
      </trkpt>
      <trkpt lat="10.2648979" lon="-85.7084157">
        <ele>58.0</ele>
        <time>2022-10-06T18:04:23Z</time>
      </trkpt>
      <trkpt lat="10.2650404" lon="-85.7083265">
        <ele>58.0</ele>
        <time>2022-10-06T18:04:24Z</time>
      </trkpt>
      <trkpt lat="10.2651788" lon="-85.7082396">
        <ele>57.9</ele>
        <time>2022-10-06T18:04:25Z</time>
      </trkpt>
      <trkpt lat="10.2653168" lon="-85.7081527">
        <ele>58.0</ele>
        <time>2022-10-06T18:04:26Z</time>
      </trkpt>
      <trkpt lat="10.2654558" lon="-85.7080655">
        <ele>58.0</ele>
        <time>2022-10-06T18:04:27Z</time>
      </trkpt>
      <trkpt lat="10.2655947" lon="-85.7079726">
        <ele>58.0</ele>
        <time>2022-10-06T18:04:28Z</time>
      </trkpt>
      <trkpt lat="10.2657304" lon="-85.7078728">
        <ele>58.0</ele>
        <time>2022-10-06T18:04:29Z</time>
      </trkpt>
      <trkpt lat="10.2658604" lon="-85.7077664">
        <ele>57.8</ele>
        <time>2022-10-06T18:04:30Z</time>
      </trkpt>
      <trkpt lat="10.2659886" lon="-85.7076498">
        <ele>57.6</ele>
        <time>2022-10-06T18:04:31Z</time>
      </trkpt>
      <trkpt lat="10.2661151" lon="-85.7075274">
        <ele>57.6</ele>
        <time>2022-10-06T18:04:32Z</time>
      </trkpt>
      <trkpt lat="10.2662361" lon="-85.7073990">
        <ele>57.6</ele>
        <time>2022-10-06T18:04:33Z</time>
      </trkpt>
      <trkpt lat="10.2663546" lon="-85.7072697">
        <ele>57.5</ele>
        <time>2022-10-06T18:04:34Z</time>
      </trkpt>
      <trkpt lat="10.2664722" lon="-85.7071419">
        <ele>57.4</ele>
        <time>2022-10-06T18:04:35Z</time>
      </trkpt>
      <trkpt lat="10.2665898" lon="-85.7070126">
        <ele>57.4</ele>
        <time>2022-10-06T18:04:36Z</time>
      </trkpt>
      <trkpt lat="10.2667057" lon="-85.7068848">
        <ele>57.4</ele>
        <time>2022-10-06T18:04:37Z</time>
      </trkpt>
      <trkpt lat="10.2668223" lon="-85.7067566">
        <ele>57.5</ele>
        <time>2022-10-06T18:04:38Z</time>
      </trkpt>
      <trkpt lat="10.2669409" lon="-85.7066262">
        <ele>57.4</ele>
        <time>2022-10-06T18:04:39Z</time>
      </trkpt>
      <trkpt lat="10.2670603" lon="-85.7064954">
        <ele>57.4</ele>
        <time>2022-10-06T18:04:40Z</time>
      </trkpt>
      <trkpt lat="10.2671807" lon="-85.7063632">
        <ele>57.3</ele>
        <time>2022-10-06T18:04:41Z</time>
      </trkpt>
      <trkpt lat="10.2673027" lon="-85.7062294">
        <ele>57.3</ele>
        <time>2022-10-06T18:04:42Z</time>
      </trkpt>
      <trkpt lat="10.2674251" lon="-85.7060961">
        <ele>57.3</ele>
        <time>2022-10-06T18:04:43Z</time>
      </trkpt>
      <trkpt lat="10.2675474" lon="-85.7059613">
        <ele>57.4</ele>
        <time>2022-10-06T18:04:44Z</time>
      </trkpt>
      <trkpt lat="10.2676701" lon="-85.7058249">
        <ele>57.4</ele>
        <time>2022-10-06T18:04:45Z</time>
      </trkpt>
      <trkpt lat="10.2677960" lon="-85.7056875">
        <ele>57.3</ele>
        <time>2022-10-06T18:04:46Z</time>
      </trkpt>
      <trkpt lat="10.2679207" lon="-85.7055503">
        <ele>57.4</ele>
        <time>2022-10-06T18:04:47Z</time>
      </trkpt>
      <trkpt lat="10.2680461" lon="-85.7054126">
        <ele>57.4</ele>
        <time>2022-10-06T18:04:48Z</time>
      </trkpt>
      <trkpt lat="10.2681721" lon="-85.7052758">
        <ele>57.5</ele>
        <time>2022-10-06T18:04:49Z</time>
      </trkpt>
      <trkpt lat="10.2682977" lon="-85.7051384">
        <ele>57.5</ele>
        <time>2022-10-06T18:04:50Z</time>
      </trkpt>
      <trkpt lat="10.2684235" lon="-85.7050010">
        <ele>57.5</ele>
        <time>2022-10-06T18:04:51Z</time>
      </trkpt>
      <trkpt lat="10.2685485" lon="-85.7048643">
        <ele>57.7</ele>
        <time>2022-10-06T18:04:52Z</time>
      </trkpt>
      <trkpt lat="10.2686753" lon="-85.7047268">
        <ele>57.8</ele>
        <time>2022-10-06T18:04:53Z</time>
      </trkpt>
      <trkpt lat="10.2688034" lon="-85.7045884">
        <ele>58.0</ele>
        <time>2022-10-06T18:04:54Z</time>
      </trkpt>
      <trkpt lat="10.2689307" lon="-85.7044496">
        <ele>58.3</ele>
        <time>2022-10-06T18:04:55Z</time>
      </trkpt>
      <trkpt lat="10.2690568" lon="-85.7043106">
        <ele>58.5</ele>
        <time>2022-10-06T18:04:56Z</time>
      </trkpt>
      <trkpt lat="10.2691822" lon="-85.7041718">
        <ele>58.8</ele>
        <time>2022-10-06T18:04:57Z</time>
      </trkpt>
      <trkpt lat="10.2693098" lon="-85.7040341">
        <ele>59.1</ele>
        <time>2022-10-06T18:04:58Z</time>
      </trkpt>
      <trkpt lat="10.2694365" lon="-85.7038965">
        <ele>59.4</ele>
        <time>2022-10-06T18:04:59Z</time>
      </trkpt>
      <trkpt lat="10.2695645" lon="-85.7037567">
        <ele>59.6</ele>
        <time>2022-10-06T18:05:00Z</time>
      </trkpt>
      <trkpt lat="10.2696943" lon="-85.7036147">
        <ele>59.8</ele>
        <time>2022-10-06T18:05:01Z</time>
      </trkpt>
      <trkpt lat="10.2698228" lon="-85.7034712">
        <ele>60.0</ele>
        <time>2022-10-06T18:05:02Z</time>
      </trkpt>
      <trkpt lat="10.2699546" lon="-85.7033288">
        <ele>60.1</ele>
        <time>2022-10-06T18:05:03Z</time>
      </trkpt>
      <trkpt lat="10.2700866" lon="-85.7031846">
        <ele>60.3</ele>
        <time>2022-10-06T18:05:04Z</time>
      </trkpt>
      <trkpt lat="10.2702202" lon="-85.7030416">
        <ele>60.5</ele>
        <time>2022-10-06T18:05:05Z</time>
      </trkpt>
      <trkpt lat="10.2703537" lon="-85.7028960">
        <ele>60.6</ele>
        <time>2022-10-06T18:05:06Z</time>
      </trkpt>
      <trkpt lat="10.2704869" lon="-85.7027510">
        <ele>60.7</ele>
        <time>2022-10-06T18:05:07Z</time>
      </trkpt>
      <trkpt lat="10.2706230" lon="-85.7026034">
        <ele>60.7</ele>
        <time>2022-10-06T18:05:08Z</time>
      </trkpt>
      <trkpt lat="10.2707601" lon="-85.7024531">
        <ele>60.6</ele>
        <time>2022-10-06T18:05:09Z</time>
      </trkpt>
      <trkpt lat="10.2708979" lon="-85.7023021">
        <ele>60.7</ele>
        <time>2022-10-06T18:05:10Z</time>
      </trkpt>
      <trkpt lat="10.2710350" lon="-85.7021519">
        <ele>60.8</ele>
        <time>2022-10-06T18:05:11Z</time>
      </trkpt>
      <trkpt lat="10.2711728" lon="-85.7020025">
        <ele>60.8</ele>
        <time>2022-10-06T18:05:12Z</time>
      </trkpt>
      <trkpt lat="10.2713107" lon="-85.7018517">
        <ele>60.9</ele>
        <time>2022-10-06T18:05:13Z</time>
      </trkpt>
      <trkpt lat="10.2714477" lon="-85.7017017">
        <ele>60.8</ele>
        <time>2022-10-06T18:05:14Z</time>
      </trkpt>
      <trkpt lat="10.2715851" lon="-85.7015513">
        <ele>60.9</ele>
        <time>2022-10-06T18:05:15Z</time>
      </trkpt>
      <trkpt lat="10.2717226" lon="-85.7014005">
        <ele>61.0</ele>
        <time>2022-10-06T18:05:16Z</time>
      </trkpt>
      <trkpt lat="10.2718618" lon="-85.7012478">
        <ele>61.2</ele>
        <time>2022-10-06T18:05:17Z</time>
      </trkpt>
      <trkpt lat="10.2720032" lon="-85.7010951">
        <ele>61.3</ele>
        <time>2022-10-06T18:05:18Z</time>
      </trkpt>
      <trkpt lat="10.2721426" lon="-85.7009416">
        <ele>61.6</ele>
        <time>2022-10-06T18:05:19Z</time>
      </trkpt>
      <trkpt lat="10.2722818" lon="-85.7007883">
        <ele>62.0</ele>
        <time>2022-10-06T18:05:20Z</time>
      </trkpt>
      <trkpt lat="10.2724185" lon="-85.7006380">
        <ele>62.3</ele>
        <time>2022-10-06T18:05:21Z</time>
      </trkpt>
      <trkpt lat="10.2725503" lon="-85.7004930">
        <ele>62.6</ele>
        <time>2022-10-06T18:05:22Z</time>
      </trkpt>
      <trkpt lat="10.2726803" lon="-85.7003494">
        <ele>62.8</ele>
        <time>2022-10-06T18:05:23Z</time>
      </trkpt>
      <trkpt lat="10.2728081" lon="-85.7002069">
        <ele>63.1</ele>
        <time>2022-10-06T18:05:24Z</time>
      </trkpt>
      <trkpt lat="10.2729373" lon="-85.7000657">
        <ele>63.3</ele>
        <time>2022-10-06T18:05:25Z</time>
      </trkpt>
      <trkpt lat="10.2730646" lon="-85.6999260">
        <ele>63.5</ele>
        <time>2022-10-06T18:05:26Z</time>
      </trkpt>
      <trkpt lat="10.2731899" lon="-85.6997902">
        <ele>63.9</ele>
        <time>2022-10-06T18:05:27Z</time>
      </trkpt>
      <trkpt lat="10.2733108" lon="-85.6996577">
        <ele>64.1</ele>
        <time>2022-10-06T18:05:28Z</time>
      </trkpt>
      <trkpt lat="10.2734286" lon="-85.6995280">
        <ele>64.4</ele>
        <time>2022-10-06T18:05:29Z</time>
      </trkpt>
      <trkpt lat="10.2735421" lon="-85.6994026">
        <ele>64.7</ele>
        <time>2022-10-06T18:05:30Z</time>
      </trkpt>
      <trkpt lat="10.2736531" lon="-85.6992805">
        <ele>65.0</ele>
        <time>2022-10-06T18:05:31Z</time>
      </trkpt>
      <trkpt lat="10.2737572" lon="-85.6991643">
        <ele>65.5</ele>
        <time>2022-10-06T18:05:32Z</time>
      </trkpt>
      <trkpt lat="10.2738598" lon="-85.6990507">
        <ele>66.1</ele>
        <time>2022-10-06T18:05:33Z</time>
      </trkpt>
      <trkpt lat="10.2739572" lon="-85.6989412">
        <ele>66.8</ele>
        <time>2022-10-06T18:05:34Z</time>
      </trkpt>
      <trkpt lat="10.2740511" lon="-85.6988381">
        <ele>67.4</ele>
        <time>2022-10-06T18:05:35Z</time>
      </trkpt>
      <trkpt lat="10.2741454" lon="-85.6987387">
        <ele>67.9</ele>
        <time>2022-10-06T18:05:36Z</time>
      </trkpt>
      <trkpt lat="10.2742411" lon="-85.6986444">
        <ele>68.2</ele>
        <time>2022-10-06T18:05:37Z</time>
      </trkpt>
      <trkpt lat="10.2743406" lon="-85.6985540">
        <ele>68.4</ele>
        <time>2022-10-06T18:05:38Z</time>
      </trkpt>
      <trkpt lat="10.2744426" lon="-85.6984685">
        <ele>68.2</ele>
        <time>2022-10-06T18:05:39Z</time>
      </trkpt>
      <trkpt lat="10.2745528" lon="-85.6983871">
        <ele>68.1</ele>
        <time>2022-10-06T18:05:40Z</time>
      </trkpt>
      <trkpt lat="10.2746707" lon="-85.6983100">
        <ele>67.6</ele>
        <time>2022-10-06T18:05:41Z</time>
      </trkpt>
      <trkpt lat="10.2747938" lon="-85.6982339">
        <ele>66.9</ele>
        <time>2022-10-06T18:05:42Z</time>
      </trkpt>
      <trkpt lat="10.2749218" lon="-85.6981588">
        <ele>66.2</ele>
        <time>2022-10-06T18:05:43Z</time>
      </trkpt>
      <trkpt lat="10.2750512" lon="-85.6980836">
        <ele>65.6</ele>
        <time>2022-10-06T18:05:44Z</time>
      </trkpt>
      <trkpt lat="10.2751784" lon="-85.6980080">
        <ele>64.9</ele>
        <time>2022-10-06T18:05:45Z</time>
      </trkpt>
      <trkpt lat="10.2753046" lon="-85.6979325">
        <ele>64.3</ele>
        <time>2022-10-06T18:05:46Z</time>
      </trkpt>
      <trkpt lat="10.2754356" lon="-85.6978558">
        <ele>63.6</ele>
        <time>2022-10-06T18:05:47Z</time>
      </trkpt>
      <trkpt lat="10.2755682" lon="-85.6977769">
        <ele>63.0</ele>
        <time>2022-10-06T18:05:48Z</time>
      </trkpt>
      <trkpt lat="10.2757023" lon="-85.6976974">
        <ele>62.5</ele>
        <time>2022-10-06T18:05:49Z</time>
      </trkpt>
      <trkpt lat="10.2758371" lon="-85.6976171">
        <ele>62.1</ele>
        <time>2022-10-06T18:05:50Z</time>
      </trkpt>
      <trkpt lat="10.2759702" lon="-85.6975384">
        <ele>61.6</ele>
        <time>2022-10-06T18:05:51Z</time>
      </trkpt>
      <trkpt lat="10.2761051" lon="-85.6974592">
        <ele>61.2</ele>
        <time>2022-10-06T18:05:52Z</time>
      </trkpt>
      <trkpt lat="10.2762390" lon="-85.6973803">
        <ele>60.7</ele>
        <time>2022-10-06T18:05:53Z</time>
      </trkpt>
      <trkpt lat="10.2763747" lon="-85.6973011">
        <ele>60.3</ele>
        <time>2022-10-06T18:05:54Z</time>
      </trkpt>
      <trkpt lat="10.2765071" lon="-85.6972248">
        <ele>60.0</ele>
        <time>2022-10-06T18:05:55Z</time>
      </trkpt>
      <trkpt lat="10.2766383" lon="-85.6971482">
        <ele>59.6</ele>
        <time>2022-10-06T18:05:56Z</time>
      </trkpt>
      <trkpt lat="10.2767666" lon="-85.6970702">
        <ele>59.2</ele>
        <time>2022-10-06T18:05:57Z</time>
      </trkpt>
      <trkpt lat="10.2768942" lon="-85.6969898">
        <ele>58.9</ele>
        <time>2022-10-06T18:05:58Z</time>
      </trkpt>
      <trkpt lat="10.2770199" lon="-85.6969037">
        <ele>58.5</ele>
        <time>2022-10-06T18:05:59Z</time>
      </trkpt>
      <trkpt lat="10.2771422" lon="-85.6968099">
        <ele>58.2</ele>
        <time>2022-10-06T18:06:00Z</time>
      </trkpt>
      <trkpt lat="10.2772574" lon="-85.6967082">
        <ele>58.0</ele>
        <time>2022-10-06T18:06:01Z</time>
      </trkpt>
      <trkpt lat="10.2773644" lon="-85.6965995">
        <ele>57.8</ele>
        <time>2022-10-06T18:06:02Z</time>
      </trkpt>
      <trkpt lat="10.2774594" lon="-85.6964882">
        <ele>58.0</ele>
        <time>2022-10-06T18:06:03Z</time>
      </trkpt>
      <trkpt lat="10.2775421" lon="-85.6963679">
        <ele>57.9</ele>
        <time>2022-10-06T18:06:04Z</time>
      </trkpt>
      <trkpt lat="10.2776118" lon="-85.6962466">
        <ele>57.7</ele>
        <time>2022-10-06T18:06:05Z</time>
      </trkpt>
      <trkpt lat="10.2776779" lon="-85.6961200">
        <ele>57.7</ele>
        <time>2022-10-06T18:06:06Z</time>
      </trkpt>
      <trkpt lat="10.2777363" lon="-85.6959920">
        <ele>57.8</ele>
        <time>2022-10-06T18:06:07Z</time>
      </trkpt>
      <trkpt lat="10.2777882" lon="-85.6958606">
        <ele>58.0</ele>
        <time>2022-10-06T18:06:08Z</time>
      </trkpt>
      <trkpt lat="10.2778307" lon="-85.6957295">
        <ele>58.0</ele>
        <time>2022-10-06T18:06:09Z</time>
      </trkpt>
      <trkpt lat="10.2778648" lon="-85.6955986">
        <ele>58.2</ele>
        <time>2022-10-06T18:06:10Z</time>
      </trkpt>
      <trkpt lat="10.2778881" lon="-85.6954685">
        <ele>58.3</ele>
        <time>2022-10-06T18:06:11Z</time>
      </trkpt>
      <trkpt lat="10.2779070" lon="-85.6953372">
        <ele>58.4</ele>
        <time>2022-10-06T18:06:12Z</time>
      </trkpt>
      <trkpt lat="10.2779139" lon="-85.6952041">
        <ele>58.7</ele>
        <time>2022-10-06T18:06:13Z</time>
      </trkpt>
      <trkpt lat="10.2779171" lon="-85.6950697">
        <ele>59.0</ele>
        <time>2022-10-06T18:06:14Z</time>
      </trkpt>
      <trkpt lat="10.2779138" lon="-85.6949299">
        <ele>59.3</ele>
        <time>2022-10-06T18:06:15Z</time>
      </trkpt>
      <trkpt lat="10.2779083" lon="-85.6947876">
        <ele>59.6</ele>
        <time>2022-10-06T18:06:16Z</time>
      </trkpt>
      <trkpt lat="10.2779038" lon="-85.6946405">
        <ele>60.0</ele>
        <time>2022-10-06T18:06:17Z</time>
      </trkpt>
      <trkpt lat="10.2779034" lon="-85.6944887">
        <ele>60.3</ele>
        <time>2022-10-06T18:06:18Z</time>
      </trkpt>
      <trkpt lat="10.2779013" lon="-85.6943287">
        <ele>60.5</ele>
        <time>2022-10-06T18:06:19Z</time>
      </trkpt>
      <trkpt lat="10.2778969" lon="-85.6941621">
        <ele>60.5</ele>
        <time>2022-10-06T18:06:20Z</time>
      </trkpt>
      <trkpt lat="10.2778886" lon="-85.6939915">
        <ele>60.5</ele>
        <time>2022-10-06T18:06:21Z</time>
      </trkpt>
      <trkpt lat="10.2778772" lon="-85.6938166">
        <ele>60.7</ele>
        <time>2022-10-06T18:06:22Z</time>
      </trkpt>
      <trkpt lat="10.2778642" lon="-85.6936394">
        <ele>60.6</ele>
        <time>2022-10-06T18:06:23Z</time>
      </trkpt>
      <trkpt lat="10.2778495" lon="-85.6934573">
        <ele>60.5</ele>
        <time>2022-10-06T18:06:24Z</time>
      </trkpt>
      <trkpt lat="10.2778325" lon="-85.6932721">
        <ele>60.2</ele>
        <time>2022-10-06T18:06:25Z</time>
      </trkpt>
      <trkpt lat="10.2778165" lon="-85.6930851">
        <ele>59.9</ele>
        <time>2022-10-06T18:06:26Z</time>
      </trkpt>
      <trkpt lat="10.2778008" lon="-85.6928945">
        <ele>59.8</ele>
        <time>2022-10-06T18:06:27Z</time>
      </trkpt>
      <trkpt lat="10.2777869" lon="-85.6927004">
        <ele>59.6</ele>
        <time>2022-10-06T18:06:28Z</time>
      </trkpt>
      <trkpt lat="10.2777737" lon="-85.6925015">
        <ele>59.5</ele>
        <time>2022-10-06T18:06:29Z</time>
      </trkpt>
      <trkpt lat="10.2777583" lon="-85.6923031">
        <ele>59.6</ele>
        <time>2022-10-06T18:06:30Z</time>
      </trkpt>
      <trkpt lat="10.2777426" lon="-85.6921030">
        <ele>59.7</ele>
        <time>2022-10-06T18:06:31Z</time>
      </trkpt>
      <trkpt lat="10.2777281" lon="-85.6919025">
        <ele>59.9</ele>
        <time>2022-10-06T18:06:32Z</time>
      </trkpt>
      <trkpt lat="10.2777138" lon="-85.6917028">
        <ele>60.1</ele>
        <time>2022-10-06T18:06:33Z</time>
      </trkpt>
      <trkpt lat="10.2777004" lon="-85.6915018">
        <ele>60.2</ele>
        <time>2022-10-06T18:06:34Z</time>
      </trkpt>
      <trkpt lat="10.2776881" lon="-85.6912993">
        <ele>60.3</ele>
        <time>2022-10-06T18:06:35Z</time>
      </trkpt>
      <trkpt lat="10.2776744" lon="-85.6910978">
        <ele>60.3</ele>
        <time>2022-10-06T18:06:36Z</time>
      </trkpt>
      <trkpt lat="10.2776592" lon="-85.6908994">
        <ele>60.3</ele>
        <time>2022-10-06T18:06:37Z</time>
      </trkpt>
      <trkpt lat="10.2776418" lon="-85.6907083">
        <ele>60.4</ele>
        <time>2022-10-06T18:06:38Z</time>
      </trkpt>
      <trkpt lat="10.2776151" lon="-85.6905182">
        <ele>60.6</ele>
        <time>2022-10-06T18:06:39Z</time>
      </trkpt>
      <trkpt lat="10.2775736" lon="-85.6903294">
        <ele>60.9</ele>
        <time>2022-10-06T18:06:40Z</time>
      </trkpt>
      <trkpt lat="10.2775154" lon="-85.6901443">
        <ele>61.2</ele>
        <time>2022-10-06T18:06:41Z</time>
      </trkpt>
      <trkpt lat="10.2774423" lon="-85.6899662">
        <ele>61.4</ele>
        <time>2022-10-06T18:06:42Z</time>
      </trkpt>
      <trkpt lat="10.2773613" lon="-85.6897901">
        <ele>61.4</ele>
        <time>2022-10-06T18:06:43Z</time>
      </trkpt>
      <trkpt lat="10.2772775" lon="-85.6896144">
        <ele>61.3</ele>
        <time>2022-10-06T18:06:44Z</time>
      </trkpt>
      <trkpt lat="10.2771928" lon="-85.6894405">
        <ele>61.2</ele>
        <time>2022-10-06T18:06:45Z</time>
      </trkpt>
      <trkpt lat="10.2771074" lon="-85.6892654">
        <ele>61.2</ele>
        <time>2022-10-06T18:06:46Z</time>
      </trkpt>
      <trkpt lat="10.2770228" lon="-85.6890898">
        <ele>61.3</ele>
        <time>2022-10-06T18:06:47Z</time>
      </trkpt>
      <trkpt lat="10.2769396" lon="-85.6889148">
        <ele>61.4</ele>
        <time>2022-10-06T18:06:48Z</time>
      </trkpt>
      <trkpt lat="10.2768556" lon="-85.6887393">
        <ele>61.3</ele>
        <time>2022-10-06T18:06:49Z</time>
      </trkpt>
      <trkpt lat="10.2767700" lon="-85.6885635">
        <ele>61.3</ele>
        <time>2022-10-06T18:06:50Z</time>
      </trkpt>
      <trkpt lat="10.2766828" lon="-85.6883862">
        <ele>61.4</ele>
        <time>2022-10-06T18:06:51Z</time>
      </trkpt>
      <trkpt lat="10.2765955" lon="-85.6882068">
        <ele>61.3</ele>
        <time>2022-10-06T18:06:52Z</time>
      </trkpt>
      <trkpt lat="10.2765086" lon="-85.6880266">
        <ele>61.3</ele>
        <time>2022-10-06T18:06:53Z</time>
      </trkpt>
      <trkpt lat="10.2764229" lon="-85.6878414">
        <ele>61.2</ele>
        <time>2022-10-06T18:06:54Z</time>
      </trkpt>
      <trkpt lat="10.2763377" lon="-85.6876545">
        <ele>60.9</ele>
        <time>2022-10-06T18:06:55Z</time>
      </trkpt>
      <trkpt lat="10.2762534" lon="-85.6874647">
        <ele>60.6</ele>
        <time>2022-10-06T18:06:56Z</time>
      </trkpt>
      <trkpt lat="10.2761698" lon="-85.6872734">
        <ele>60.3</ele>
        <time>2022-10-06T18:06:57Z</time>
      </trkpt>
      <trkpt lat="10.2760882" lon="-85.6870802">
        <ele>60.1</ele>
        <time>2022-10-06T18:06:58Z</time>
      </trkpt>
      <trkpt lat="10.2760129" lon="-85.6868837">
        <ele>59.9</ele>
        <time>2022-10-06T18:06:59Z</time>
      </trkpt>
      <trkpt lat="10.2759455" lon="-85.6866842">
        <ele>59.7</ele>
        <time>2022-10-06T18:07:00Z</time>
      </trkpt>
      <trkpt lat="10.2758817" lon="-85.6864829">
        <ele>59.4</ele>
        <time>2022-10-06T18:07:01Z</time>
      </trkpt>
      <trkpt lat="10.2758204" lon="-85.6862810">
        <ele>59.3</ele>
        <time>2022-10-06T18:07:02Z</time>
      </trkpt>
      <trkpt lat="10.2757628" lon="-85.6860814">
        <ele>59.1</ele>
        <time>2022-10-06T18:07:03Z</time>
      </trkpt>
      <trkpt lat="10.2757064" lon="-85.6858876">
        <ele>59.0</ele>
        <time>2022-10-06T18:07:04Z</time>
      </trkpt>
      <trkpt lat="10.2756507" lon="-85.6856976">
        <ele>58.9</ele>
        <time>2022-10-06T18:07:05Z</time>
      </trkpt>
      <trkpt lat="10.2755945" lon="-85.6855092">
        <ele>58.9</ele>
        <time>2022-10-06T18:07:06Z</time>
      </trkpt>
      <trkpt lat="10.2755400" lon="-85.6853250">
        <ele>58.9</ele>
        <time>2022-10-06T18:07:07Z</time>
      </trkpt>
      <trkpt lat="10.2754874" lon="-85.6851458">
        <ele>58.9</ele>
        <time>2022-10-06T18:07:08Z</time>
      </trkpt>
      <trkpt lat="10.2754374" lon="-85.6849729">
        <ele>58.9</ele>
        <time>2022-10-06T18:07:09Z</time>
      </trkpt>
      <trkpt lat="10.2753885" lon="-85.6848043">
        <ele>59.0</ele>
        <time>2022-10-06T18:07:10Z</time>
      </trkpt>
      <trkpt lat="10.2753423" lon="-85.6846435">
        <ele>59.0</ele>
        <time>2022-10-06T18:07:11Z</time>
      </trkpt>
      <trkpt lat="10.2752979" lon="-85.6844939">
        <ele>59.0</ele>
        <time>2022-10-06T18:07:12Z</time>
      </trkpt>
      <trkpt lat="10.2752546" lon="-85.6843492">
        <ele>58.9</ele>
        <time>2022-10-06T18:07:13Z</time>
      </trkpt>
      <trkpt lat="10.2752117" lon="-85.6842065">
        <ele>58.9</ele>
        <time>2022-10-06T18:07:14Z</time>
      </trkpt>
      <trkpt lat="10.2751707" lon="-85.6840657">
        <ele>59.0</ele>
        <time>2022-10-06T18:07:15Z</time>
      </trkpt>
      <trkpt lat="10.2751321" lon="-85.6839295">
        <ele>59.0</ele>
        <time>2022-10-06T18:07:16Z</time>
      </trkpt>
      <trkpt lat="10.2750936" lon="-85.6837949">
        <ele>59.1</ele>
        <time>2022-10-06T18:07:17Z</time>
      </trkpt>
      <trkpt lat="10.2750554" lon="-85.6836618">
        <ele>59.2</ele>
        <time>2022-10-06T18:07:18Z</time>
      </trkpt>
      <trkpt lat="10.2750167" lon="-85.6835281">
        <ele>59.2</ele>
        <time>2022-10-06T18:07:19Z</time>
      </trkpt>
      <trkpt lat="10.2749766" lon="-85.6833927">
        <ele>59.2</ele>
        <time>2022-10-06T18:07:20Z</time>
      </trkpt>
      <trkpt lat="10.2749363" lon="-85.6832559">
        <ele>59.3</ele>
        <time>2022-10-06T18:07:21Z</time>
      </trkpt>
      <trkpt lat="10.2748959" lon="-85.6831203">
        <ele>59.3</ele>
        <time>2022-10-06T18:07:22Z</time>
      </trkpt>
      <trkpt lat="10.2748559" lon="-85.6829839">
        <ele>59.4</ele>
        <time>2022-10-06T18:07:23Z</time>
      </trkpt>
      <trkpt lat="10.2748160" lon="-85.6828480">
        <ele>59.5</ele>
        <time>2022-10-06T18:07:24Z</time>
      </trkpt>
      <trkpt lat="10.2747754" lon="-85.6827121">
        <ele>59.7</ele>
        <time>2022-10-06T18:07:25Z</time>
      </trkpt>
      <trkpt lat="10.2747358" lon="-85.6825755">
        <ele>59.8</ele>
        <time>2022-10-06T18:07:26Z</time>
      </trkpt>
      <trkpt lat="10.2746948" lon="-85.6824373">
        <ele>60.0</ele>
        <time>2022-10-06T18:07:27Z</time>
      </trkpt>
      <trkpt lat="10.2746559" lon="-85.6823051">
        <ele>60.1</ele>
        <time>2022-10-06T18:07:28Z</time>
      </trkpt>
      <trkpt lat="10.2746194" lon="-85.6821777">
        <ele>60.3</ele>
        <time>2022-10-06T18:07:29Z</time>
      </trkpt>
      <trkpt lat="10.2745829" lon="-85.6820501">
        <ele>60.4</ele>
        <time>2022-10-06T18:07:30Z</time>
      </trkpt>
      <trkpt lat="10.2745446" lon="-85.6819172">
        <ele>60.5</ele>
        <time>2022-10-06T18:07:31Z</time>
      </trkpt>
      <trkpt lat="10.2745052" lon="-85.6817794">
        <ele>60.6</ele>
        <time>2022-10-06T18:07:32Z</time>
      </trkpt>
      <trkpt lat="10.2744654" lon="-85.6816382">
        <ele>60.6</ele>
        <time>2022-10-06T18:07:33Z</time>
      </trkpt>
      <trkpt lat="10.2744244" lon="-85.6814960">
        <ele>60.6</ele>
        <time>2022-10-06T18:07:34Z</time>
      </trkpt>
      <trkpt lat="10.2743833" lon="-85.6813534">
        <ele>60.5</ele>
        <time>2022-10-06T18:07:35Z</time>
      </trkpt>
      <trkpt lat="10.2743428" lon="-85.6812136">
        <ele>60.4</ele>
        <time>2022-10-06T18:07:36Z</time>
      </trkpt>
      <trkpt lat="10.2743028" lon="-85.6810754">
        <ele>60.3</ele>
        <time>2022-10-06T18:07:37Z</time>
      </trkpt>
      <trkpt lat="10.2742636" lon="-85.6809376">
        <ele>60.2</ele>
        <time>2022-10-06T18:07:38Z</time>
      </trkpt>
      <trkpt lat="10.2742246" lon="-85.6808004">
        <ele>60.3</ele>
        <time>2022-10-06T18:07:39Z</time>
      </trkpt>
      <trkpt lat="10.2741864" lon="-85.6806640">
        <ele>60.2</ele>
        <time>2022-10-06T18:07:40Z</time>
      </trkpt>
      <trkpt lat="10.2741475" lon="-85.6805280">
        <ele>60.2</ele>
        <time>2022-10-06T18:07:41Z</time>
      </trkpt>
      <trkpt lat="10.2741103" lon="-85.6803940">
        <ele>60.2</ele>
        <time>2022-10-06T18:07:42Z</time>
      </trkpt>
      <trkpt lat="10.2740720" lon="-85.6802590">
        <ele>60.2</ele>
        <time>2022-10-06T18:07:43Z</time>
      </trkpt>
      <trkpt lat="10.2740340" lon="-85.6801251">
        <ele>60.3</ele>
        <time>2022-10-06T18:07:44Z</time>
      </trkpt>
      <trkpt lat="10.2739955" lon="-85.6799908">
        <ele>60.3</ele>
        <time>2022-10-06T18:07:45Z</time>
      </trkpt>
      <trkpt lat="10.2739563" lon="-85.6798570">
        <ele>60.2</ele>
        <time>2022-10-06T18:07:46Z</time>
      </trkpt>
      <trkpt lat="10.2739181" lon="-85.6797224">
        <ele>60.0</ele>
        <time>2022-10-06T18:07:47Z</time>
      </trkpt>
      <trkpt lat="10.2738798" lon="-85.6795920">
        <ele>59.9</ele>
        <time>2022-10-06T18:07:48Z</time>
      </trkpt>
      <trkpt lat="10.2738419" lon="-85.6794649">
        <ele>59.8</ele>
        <time>2022-10-06T18:07:49Z</time>
      </trkpt>
      <trkpt lat="10.2738066" lon="-85.6793431">
        <ele>59.7</ele>
        <time>2022-10-06T18:07:50Z</time>
      </trkpt>
      <trkpt lat="10.2737728" lon="-85.6792281">
        <ele>59.5</ele>
        <time>2022-10-06T18:07:51Z</time>
      </trkpt>
      <trkpt lat="10.2737388" lon="-85.6791148">
        <ele>59.3</ele>
        <time>2022-10-06T18:07:52Z</time>
      </trkpt>
      <trkpt lat="10.2737058" lon="-85.6790015">
        <ele>59.2</ele>
        <time>2022-10-06T18:07:53Z</time>
      </trkpt>
      <trkpt lat="10.2736731" lon="-85.6788915">
        <ele>59.0</ele>
        <time>2022-10-06T18:07:54Z</time>
      </trkpt>
      <trkpt lat="10.2736411" lon="-85.6787809">
        <ele>58.9</ele>
        <time>2022-10-06T18:07:55Z</time>
      </trkpt>
      <trkpt lat="10.2736085" lon="-85.6786694">
        <ele>58.7</ele>
        <time>2022-10-06T18:07:56Z</time>
      </trkpt>
      <trkpt lat="10.2735757" lon="-85.6785553">
        <ele>58.5</ele>
        <time>2022-10-06T18:07:57Z</time>
      </trkpt>
      <trkpt lat="10.2735420" lon="-85.6784407">
        <ele>58.4</ele>
        <time>2022-10-06T18:07:58Z</time>
      </trkpt>
      <trkpt lat="10.2735081" lon="-85.6783242">
        <ele>58.2</ele>
        <time>2022-10-06T18:07:59Z</time>
      </trkpt>
      <trkpt lat="10.2734740" lon="-85.6782094">
        <ele>58.1</ele>
        <time>2022-10-06T18:08:00Z</time>
      </trkpt>
      <trkpt lat="10.2734407" lon="-85.6780955">
        <ele>57.9</ele>
        <time>2022-10-06T18:08:01Z</time>
      </trkpt>
      <trkpt lat="10.2734081" lon="-85.6779855">
        <ele>57.9</ele>
        <time>2022-10-06T18:08:02Z</time>
      </trkpt>
      <trkpt lat="10.2733765" lon="-85.6778781">
        <ele>57.8</ele>
        <time>2022-10-06T18:08:03Z</time>
      </trkpt>
      <trkpt lat="10.2733465" lon="-85.6777705">
        <ele>57.7</ele>
        <time>2022-10-06T18:08:04Z</time>
      </trkpt>
      <trkpt lat="10.2733153" lon="-85.6776679">
        <ele>57.6</ele>
        <time>2022-10-06T18:08:05Z</time>
      </trkpt>
      <trkpt lat="10.2732860" lon="-85.6775649">
        <ele>57.6</ele>
        <time>2022-10-06T18:08:06Z</time>
      </trkpt>
      <trkpt lat="10.2732573" lon="-85.6774626">
        <ele>57.6</ele>
        <time>2022-10-06T18:08:07Z</time>
      </trkpt>
      <trkpt lat="10.2732294" lon="-85.6773633">
        <ele>57.5</ele>
        <time>2022-10-06T18:08:08Z</time>
      </trkpt>
      <trkpt lat="10.2732037" lon="-85.6772685">
        <ele>57.5</ele>
        <time>2022-10-06T18:08:09Z</time>
      </trkpt>
      <trkpt lat="10.2731773" lon="-85.6771763">
        <ele>57.4</ele>
        <time>2022-10-06T18:08:10Z</time>
      </trkpt>
      <trkpt lat="10.2731534" lon="-85.6770877">
        <ele>57.4</ele>
        <time>2022-10-06T18:08:11Z</time>
      </trkpt>
      <trkpt lat="10.2731309" lon="-85.6770012">
        <ele>57.4</ele>
        <time>2022-10-06T18:08:12Z</time>
      </trkpt>
      <trkpt lat="10.2731075" lon="-85.6769180">
        <ele>57.3</ele>
        <time>2022-10-06T18:08:13Z</time>
      </trkpt>
      <trkpt lat="10.2730836" lon="-85.6768376">
        <ele>57.4</ele>
        <time>2022-10-06T18:08:14Z</time>
      </trkpt>
      <trkpt lat="10.2730615" lon="-85.6767629">
        <ele>57.5</ele>
        <time>2022-10-06T18:08:15Z</time>
      </trkpt>
      <trkpt lat="10.2730399" lon="-85.6766927">
        <ele>57.4</ele>
        <time>2022-10-06T18:08:16Z</time>
      </trkpt>
      <trkpt lat="10.2730196" lon="-85.6766267">
        <ele>57.4</ele>
        <time>2022-10-06T18:08:17Z</time>
      </trkpt>
      <trkpt lat="10.2730007" lon="-85.6765634">
        <ele>57.5</ele>
        <time>2022-10-06T18:08:18Z</time>
      </trkpt>
      <trkpt lat="10.2729828" lon="-85.6765039">
        <ele>57.4</ele>
        <time>2022-10-06T18:08:19Z</time>
      </trkpt>
      <trkpt lat="10.2729660" lon="-85.6764474">
        <ele>57.4</ele>
        <time>2022-10-06T18:08:20Z</time>
      </trkpt>
      <trkpt lat="10.2729510" lon="-85.6763965">
        <ele>57.4</ele>
        <time>2022-10-06T18:08:21Z</time>
      </trkpt>
      <trkpt lat="10.2729374" lon="-85.6763503">
        <ele>57.4</ele>
        <time>2022-10-06T18:08:22Z</time>
      </trkpt>
      <trkpt lat="10.2729269" lon="-85.6763098">
        <ele>57.4</ele>
        <time>2022-10-06T18:08:23Z</time>
      </trkpt>
      <trkpt lat="10.2729190" lon="-85.6762776">
        <ele>57.4</ele>
        <time>2022-10-06T18:08:24Z</time>
      </trkpt>
      <trkpt lat="10.2729132" lon="-85.6762543">
        <ele>57.4</ele>
        <time>2022-10-06T18:08:25Z</time>
      </trkpt>
      <trkpt lat="10.2729081" lon="-85.6762346">
        <ele>57.4</ele>
        <time>2022-10-06T18:08:26Z</time>
      </trkpt>
      <trkpt lat="10.2729035" lon="-85.6762180">
        <ele>57.3</ele>
        <time>2022-10-06T18:08:27Z</time>
      </trkpt>
      <trkpt lat="10.2728981" lon="-85.6761976">
        <ele>57.4</ele>
        <time>2022-10-06T18:08:28Z</time>
      </trkpt>
      <trkpt lat="10.2728914" lon="-85.6761721">
        <ele>57.4</ele>
        <time>2022-10-06T18:08:29Z</time>
      </trkpt>
      <trkpt lat="10.2728818" lon="-85.6761414">
        <ele>57.3</ele>
        <time>2022-10-06T18:08:30Z</time>
      </trkpt>
      <trkpt lat="10.2728709" lon="-85.6761041">
        <ele>57.3</ele>
        <time>2022-10-06T18:08:31Z</time>
      </trkpt>
      <trkpt lat="10.2728601" lon="-85.6760667">
        <ele>57.3</ele>
        <time>2022-10-06T18:08:32Z</time>
      </trkpt>
      <trkpt lat="10.2728508" lon="-85.6760376">
        <ele>57.4</ele>
        <time>2022-10-06T18:08:33Z</time>
      </trkpt>
      <trkpt lat="10.2728422" lon="-85.6760119">
        <ele>57.2</ele>
        <time>2022-10-06T18:08:34Z</time>
      </trkpt>
      <trkpt lat="10.2728330" lon="-85.6759814">
        <ele>57.3</ele>
        <time>2022-10-06T18:08:35Z</time>
      </trkpt>
      <trkpt lat="10.2728193" lon="-85.6759358">
        <ele>57.3</ele>
        <time>2022-10-06T18:08:36Z</time>
      </trkpt>
      <trkpt lat="10.2728020" lon="-85.6758786">
        <ele>57.4</ele>
        <time>2022-10-06T18:08:37Z</time>
      </trkpt>
      <trkpt lat="10.2727823" lon="-85.6758150">
        <ele>57.4</ele>
        <time>2022-10-06T18:08:38Z</time>
      </trkpt>
      <trkpt lat="10.2727608" lon="-85.6757423">
        <ele>57.5</ele>
        <time>2022-10-06T18:08:39Z</time>
      </trkpt>
      <trkpt lat="10.2727377" lon="-85.6756643">
        <ele>57.5</ele>
        <time>2022-10-06T18:08:40Z</time>
      </trkpt>
      <trkpt lat="10.2727147" lon="-85.6755832">
        <ele>57.6</ele>
        <time>2022-10-06T18:08:41Z</time>
      </trkpt>
      <trkpt lat="10.2726896" lon="-85.6754959">
        <ele>57.6</ele>
        <time>2022-10-06T18:08:42Z</time>
      </trkpt>
      <trkpt lat="10.2726654" lon="-85.6754078">
        <ele>57.8</ele>
        <time>2022-10-06T18:08:43Z</time>
      </trkpt>
      <trkpt lat="10.2726419" lon="-85.6753244">
        <ele>57.8</ele>
        <time>2022-10-06T18:08:44Z</time>
      </trkpt>
      <trkpt lat="10.2726201" lon="-85.6752481">
        <ele>57.8</ele>
        <time>2022-10-06T18:08:45Z</time>
      </trkpt>
      <trkpt lat="10.2725999" lon="-85.6751728">
        <ele>57.9</ele>
        <time>2022-10-06T18:08:46Z</time>
      </trkpt>
      <trkpt lat="10.2725811" lon="-85.6751064">
        <ele>58.0</ele>
        <time>2022-10-06T18:08:47Z</time>
      </trkpt>
      <trkpt lat="10.2725632" lon="-85.6750475">
        <ele>58.0</ele>
        <time>2022-10-06T18:08:48Z</time>
      </trkpt>
      <trkpt lat="10.2725477" lon="-85.6749955">
        <ele>58.0</ele>
        <time>2022-10-06T18:08:49Z</time>
      </trkpt>
      <trkpt lat="10.2725339" lon="-85.6749486">
        <ele>58.0</ele>
        <time>2022-10-06T18:08:50Z</time>
      </trkpt>
      <trkpt lat="10.2725217" lon="-85.6749030">
        <ele>58.0</ele>
        <time>2022-10-06T18:08:51Z</time>
      </trkpt>
      <trkpt lat="10.2725082" lon="-85.6748571">
        <ele>58.0</ele>
        <time>2022-10-06T18:08:52Z</time>
      </trkpt>
      <trkpt lat="10.2724954" lon="-85.6748148">
        <ele>58.0</ele>
        <time>2022-10-06T18:08:53Z</time>
      </trkpt>
      <trkpt lat="10.2724839" lon="-85.6747757">
        <ele>58.0</ele>
        <time>2022-10-06T18:08:54Z</time>
      </trkpt>
      <trkpt lat="10.2724739" lon="-85.6747423">
        <ele>58.0</ele>
        <time>2022-10-06T18:08:55Z</time>
      </trkpt>
      <trkpt lat="10.2724654" lon="-85.6747129">
        <ele>58.0</ele>
        <time>2022-10-06T18:08:56Z</time>
      </trkpt>
      <trkpt lat="10.2724575" lon="-85.6746857">
        <ele>58.0</ele>
        <time>2022-10-06T18:08:57Z</time>
      </trkpt>
      <trkpt lat="10.2724477" lon="-85.6746536">
        <ele>58.0</ele>
        <time>2022-10-06T18:08:58Z</time>
      </trkpt>
      <trkpt lat="10.2724372" lon="-85.6746173">
        <ele>58.0</ele>
        <time>2022-10-06T18:08:59Z</time>
      </trkpt>
      <trkpt lat="10.2724244" lon="-85.6745714">
        <ele>58.0</ele>
        <time>2022-10-06T18:09:00Z</time>
      </trkpt>
      <trkpt lat="10.2724115" lon="-85.6745281">
        <ele>58.0</ele>
        <time>2022-10-06T18:09:01Z</time>
      </trkpt>
      <trkpt lat="10.2724000" lon="-85.6744911">
        <ele>58.0</ele>
        <time>2022-10-06T18:09:02Z</time>
      </trkpt>
      <trkpt lat="10.2723878" lon="-85.6744510">
        <ele>58.0</ele>
        <time>2022-10-06T18:09:03Z</time>
      </trkpt>
      <trkpt lat="10.2723719" lon="-85.6743985">
        <ele>58.0</ele>
        <time>2022-10-06T18:09:04Z</time>
      </trkpt>
      <trkpt lat="10.2723528" lon="-85.6743328">
        <ele>58.1</ele>
        <time>2022-10-06T18:09:05Z</time>
      </trkpt>
      <trkpt lat="10.2723316" lon="-85.6742553">
        <ele>58.1</ele>
        <time>2022-10-06T18:09:06Z</time>
      </trkpt>
      <trkpt lat="10.2723073" lon="-85.6741697">
        <ele>58.2</ele>
        <time>2022-10-06T18:09:07Z</time>
      </trkpt>
      <trkpt lat="10.2722820" lon="-85.6740751">
        <ele>58.2</ele>
        <time>2022-10-06T18:09:08Z</time>
      </trkpt>
      <trkpt lat="10.2722541" lon="-85.6739760">
        <ele>58.3</ele>
        <time>2022-10-06T18:09:09Z</time>
      </trkpt>
      <trkpt lat="10.2722258" lon="-85.6738761">
        <ele>58.3</ele>
        <time>2022-10-06T18:09:10Z</time>
      </trkpt>
      <trkpt lat="10.2721979" lon="-85.6737783">
        <ele>58.5</ele>
        <time>2022-10-06T18:09:11Z</time>
      </trkpt>
      <trkpt lat="10.2721721" lon="-85.6736846">
        <ele>58.5</ele>
        <time>2022-10-06T18:09:12Z</time>
      </trkpt>
      <trkpt lat="10.2721460" lon="-85.6735949">
        <ele>58.7</ele>
        <time>2022-10-06T18:09:13Z</time>
      </trkpt>
      <trkpt lat="10.2721211" lon="-85.6735110">
        <ele>58.7</ele>
        <time>2022-10-06T18:09:14Z</time>
      </trkpt>
      <trkpt lat="10.2720993" lon="-85.6734364">
        <ele>58.9</ele>
        <time>2022-10-06T18:09:15Z</time>
      </trkpt>
      <trkpt lat="10.2720806" lon="-85.6733716">
        <ele>58.9</ele>
        <time>2022-10-06T18:09:16Z</time>
      </trkpt>
      <trkpt lat="10.2720649" lon="-85.6733181">
        <ele>59.0</ele>
        <time>2022-10-06T18:09:17Z</time>
      </trkpt>
      <trkpt lat="10.2720525" lon="-85.6732760">
        <ele>59.0</ele>
        <time>2022-10-06T18:09:18Z</time>
      </trkpt>
      <trkpt lat="10.2720415" lon="-85.6732389">
        <ele>59.1</ele>
        <time>2022-10-06T18:09:19Z</time>
      </trkpt>
      <trkpt lat="10.2720326" lon="-85.6732105">
        <ele>59.1</ele>
        <time>2022-10-06T18:09:20Z</time>
      </trkpt>
      <trkpt lat="10.2720248" lon="-85.6731872">
        <ele>59.1</ele>
        <time>2022-10-06T18:09:21Z</time>
      </trkpt>
      <trkpt lat="10.2720187" lon="-85.6731674">
        <ele>59.1</ele>
        <time>2022-10-06T18:09:22Z</time>
      </trkpt>
      <trkpt lat="10.2720116" lon="-85.6731436">
        <ele>59.1</ele>
        <time>2022-10-06T18:09:23Z</time>
      </trkpt>
      <trkpt lat="10.2720044" lon="-85.6731126">
        <ele>59.1</ele>
        <time>2022-10-06T18:09:24Z</time>
      </trkpt>
      <trkpt lat="10.2719976" lon="-85.6730814">
        <ele>59.1</ele>
        <time>2022-10-06T18:09:25Z</time>
      </trkpt>
      <trkpt lat="10.2719889" lon="-85.6730513">
        <ele>59.1</ele>
        <time>2022-10-06T18:09:26Z</time>
      </trkpt>
      <trkpt lat="10.2719802" lon="-85.6730187">
        <ele>59.2</ele>
        <time>2022-10-06T18:09:27Z</time>
      </trkpt>
      <trkpt lat="10.2719715" lon="-85.6729887">
        <ele>59.2</ele>
        <time>2022-10-06T18:09:28Z</time>
      </trkpt>
      <trkpt lat="10.2719631" lon="-85.6729607">
        <ele>59.2</ele>
        <time>2022-10-06T18:09:29Z</time>
      </trkpt>
      <trkpt lat="10.2719547" lon="-85.6729319">
        <ele>59.2</ele>
        <time>2022-10-06T18:09:30Z</time>
      </trkpt>
      <trkpt lat="10.2719437" lon="-85.6728949">
        <ele>59.1</ele>
        <time>2022-10-06T18:09:31Z</time>
      </trkpt>
      <trkpt lat="10.2719299" lon="-85.6728446">
        <ele>59.1</ele>
        <time>2022-10-06T18:09:32Z</time>
      </trkpt>
      <trkpt lat="10.2719139" lon="-85.6727832">
        <ele>59.1</ele>
        <time>2022-10-06T18:09:33Z</time>
      </trkpt>
      <trkpt lat="10.2718930" lon="-85.6727121">
        <ele>59.2</ele>
        <time>2022-10-06T18:09:34Z</time>
      </trkpt>
      <trkpt lat="10.2718696" lon="-85.6726308">
        <ele>59.2</ele>
        <time>2022-10-06T18:09:35Z</time>
      </trkpt>
      <trkpt lat="10.2718440" lon="-85.6725427">
        <ele>59.2</ele>
        <time>2022-10-06T18:09:36Z</time>
      </trkpt>
      <trkpt lat="10.2718135" lon="-85.6724437">
        <ele>59.2</ele>
        <time>2022-10-06T18:09:37Z</time>
      </trkpt>
      <trkpt lat="10.2717812" lon="-85.6723358">
        <ele>59.2</ele>
        <time>2022-10-06T18:09:38Z</time>
      </trkpt>
      <trkpt lat="10.2717481" lon="-85.6722196">
        <ele>59.2</ele>
        <time>2022-10-06T18:09:39Z</time>
      </trkpt>
      <trkpt lat="10.2717111" lon="-85.6720942">
        <ele>59.2</ele>
        <time>2022-10-06T18:09:40Z</time>
      </trkpt>
      <trkpt lat="10.2716728" lon="-85.6719637">
        <ele>59.3</ele>
        <time>2022-10-06T18:09:41Z</time>
      </trkpt>
      <trkpt lat="10.2716324" lon="-85.6718284">
        <ele>59.3</ele>
        <time>2022-10-06T18:09:42Z</time>
      </trkpt>
      <trkpt lat="10.2715916" lon="-85.6716875">
        <ele>59.3</ele>
        <time>2022-10-06T18:09:43Z</time>
      </trkpt>
      <trkpt lat="10.2715512" lon="-85.6715476">
        <ele>59.3</ele>
        <time>2022-10-06T18:09:44Z</time>
      </trkpt>
      <trkpt lat="10.2715124" lon="-85.6714119">
        <ele>59.4</ele>
        <time>2022-10-06T18:09:45Z</time>
      </trkpt>
      <trkpt lat="10.2714727" lon="-85.6712782">
        <ele>59.4</ele>
        <time>2022-10-06T18:09:46Z</time>
      </trkpt>
      <trkpt lat="10.2714339" lon="-85.6711469">
        <ele>59.5</ele>
        <time>2022-10-06T18:09:47Z</time>
      </trkpt>
      <trkpt lat="10.2713969" lon="-85.6710200">
        <ele>59.5</ele>
        <time>2022-10-06T18:09:48Z</time>
      </trkpt>
      <trkpt lat="10.2713608" lon="-85.6708963">
        <ele>59.6</ele>
        <time>2022-10-06T18:09:49Z</time>
      </trkpt>
      <trkpt lat="10.2713243" lon="-85.6707748">
        <ele>59.6</ele>
        <time>2022-10-06T18:09:50Z</time>
      </trkpt>
      <trkpt lat="10.2712903" lon="-85.6706590">
        <ele>59.6</ele>
        <time>2022-10-06T18:09:51Z</time>
      </trkpt>
      <trkpt lat="10.2712571" lon="-85.6705438">
        <ele>59.7</ele>
        <time>2022-10-06T18:09:52Z</time>
      </trkpt>
      <trkpt lat="10.2712236" lon="-85.6704280">
        <ele>59.6</ele>
        <time>2022-10-06T18:09:53Z</time>
      </trkpt>
      <trkpt lat="10.2711905" lon="-85.6703114">
        <ele>60.0</ele>
        <time>2022-10-06T18:09:54Z</time>
      </trkpt>
      <trkpt lat="10.2711565" lon="-85.6701973">
        <ele>59.9</ele>
        <time>2022-10-06T18:09:55Z</time>
      </trkpt>
      <trkpt lat="10.2711222" lon="-85.6700830">
        <ele>59.9</ele>
        <time>2022-10-06T18:09:56Z</time>
      </trkpt>
      <trkpt lat="10.2710847" lon="-85.6699651">
        <ele>59.9</ele>
        <time>2022-10-06T18:09:57Z</time>
      </trkpt>
      <trkpt lat="10.2710460" lon="-85.6698423">
        <ele>59.9</ele>
        <time>2022-10-06T18:09:58Z</time>
      </trkpt>
      <trkpt lat="10.2710094" lon="-85.6697170">
        <ele>59.8</ele>
        <time>2022-10-06T18:09:59Z</time>
      </trkpt>
      <trkpt lat="10.2709730" lon="-85.6695886">
        <ele>59.8</ele>
        <time>2022-10-06T18:10:00Z</time>
      </trkpt>
      <trkpt lat="10.2709351" lon="-85.6694606">
        <ele>59.8</ele>
        <time>2022-10-06T18:10:01Z</time>
      </trkpt>
      <trkpt lat="10.2708967" lon="-85.6693346">
        <ele>59.7</ele>
        <time>2022-10-06T18:10:02Z</time>
      </trkpt>
      <trkpt lat="10.2708595" lon="-85.6692114">
        <ele>59.6</ele>
        <time>2022-10-06T18:10:03Z</time>
      </trkpt>
      <trkpt lat="10.2708225" lon="-85.6690912">
        <ele>59.5</ele>
        <time>2022-10-06T18:10:04Z</time>
      </trkpt>
      <trkpt lat="10.2707869" lon="-85.6689737">
        <ele>59.3</ele>
        <time>2022-10-06T18:10:05Z</time>
      </trkpt>
      <trkpt lat="10.2707536" lon="-85.6688616">
        <ele>59.2</ele>
        <time>2022-10-06T18:10:06Z</time>
      </trkpt>
      <trkpt lat="10.2707226" lon="-85.6687574">
        <ele>59.0</ele>
        <time>2022-10-06T18:10:07Z</time>
      </trkpt>
      <trkpt lat="10.2706921" lon="-85.6686584">
        <ele>58.8</ele>
        <time>2022-10-06T18:10:08Z</time>
      </trkpt>
      <trkpt lat="10.2706625" lon="-85.6685622">
        <ele>58.7</ele>
        <time>2022-10-06T18:10:09Z</time>
      </trkpt>
      <trkpt lat="10.2706352" lon="-85.6684717">
        <ele>58.6</ele>
        <time>2022-10-06T18:10:10Z</time>
      </trkpt>
      <trkpt lat="10.2706110" lon="-85.6683911">
        <ele>58.6</ele>
        <time>2022-10-06T18:10:11Z</time>
      </trkpt>
      <trkpt lat="10.2705899" lon="-85.6683177">
        <ele>58.6</ele>
        <time>2022-10-06T18:10:12Z</time>
      </trkpt>
      <trkpt lat="10.2705689" lon="-85.6682445">
        <ele>58.4</ele>
        <time>2022-10-06T18:10:13Z</time>
      </trkpt>
      <trkpt lat="10.2705488" lon="-85.6681732">
        <ele>58.3</ele>
        <time>2022-10-06T18:10:14Z</time>
      </trkpt>
      <trkpt lat="10.2705274" lon="-85.6680963">
        <ele>58.1</ele>
        <time>2022-10-06T18:10:15Z</time>
      </trkpt>
      <trkpt lat="10.2705046" lon="-85.6680131">
        <ele>58.1</ele>
        <time>2022-10-06T18:10:16Z</time>
      </trkpt>
      <trkpt lat="10.2704814" lon="-85.6679272">
        <ele>57.9</ele>
        <time>2022-10-06T18:10:17Z</time>
      </trkpt>
      <trkpt lat="10.2704573" lon="-85.6678315">
        <ele>57.9</ele>
        <time>2022-10-06T18:10:18Z</time>
      </trkpt>
      <trkpt lat="10.2704308" lon="-85.6677252">
        <ele>57.8</ele>
        <time>2022-10-06T18:10:19Z</time>
      </trkpt>
      <trkpt lat="10.2704063" lon="-85.6676137">
        <ele>58.0</ele>
        <time>2022-10-06T18:10:20Z</time>
      </trkpt>
      <trkpt lat="10.2703888" lon="-85.6674955">
        <ele>58.2</ele>
        <time>2022-10-06T18:10:21Z</time>
      </trkpt>
      <trkpt lat="10.2703728" lon="-85.6673747">
        <ele>58.3</ele>
        <time>2022-10-06T18:10:22Z</time>
      </trkpt>
      <trkpt lat="10.2703523" lon="-85.6672505">
        <ele>58.4</ele>
        <time>2022-10-06T18:10:23Z</time>
      </trkpt>
      <trkpt lat="10.2703305" lon="-85.6671196">
        <ele>58.5</ele>
        <time>2022-10-06T18:10:24Z</time>
      </trkpt>
      <trkpt lat="10.2703084" lon="-85.6669856">
        <ele>58.6</ele>
        <time>2022-10-06T18:10:25Z</time>
      </trkpt>
      <trkpt lat="10.2702940" lon="-85.6668462">
        <ele>58.6</ele>
        <time>2022-10-06T18:10:26Z</time>
      </trkpt>
      <trkpt lat="10.2702855" lon="-85.6667027">
        <ele>58.7</ele>
        <time>2022-10-06T18:10:27Z</time>
      </trkpt>
      <trkpt lat="10.2702832" lon="-85.6665571">
        <ele>58.7</ele>
        <time>2022-10-06T18:10:28Z</time>
      </trkpt>
      <trkpt lat="10.2702841" lon="-85.6664066">
        <ele>58.7</ele>
        <time>2022-10-06T18:10:29Z</time>
      </trkpt>
      <trkpt lat="10.2702861" lon="-85.6662484">
        <ele>58.8</ele>
        <time>2022-10-06T18:10:30Z</time>
      </trkpt>
      <trkpt lat="10.2702980" lon="-85.6660869">
        <ele>58.9</ele>
        <time>2022-10-06T18:10:31Z</time>
      </trkpt>
      <trkpt lat="10.2703132" lon="-85.6659271">
        <ele>59.0</ele>
        <time>2022-10-06T18:10:32Z</time>
      </trkpt>
      <trkpt lat="10.2703284" lon="-85.6657655">
        <ele>59.1</ele>
        <time>2022-10-06T18:10:33Z</time>
      </trkpt>
      <trkpt lat="10.2703438" lon="-85.6656040">
        <ele>59.1</ele>
        <time>2022-10-06T18:10:34Z</time>
      </trkpt>
      <trkpt lat="10.2703625" lon="-85.6654364">
        <ele>59.2</ele>
        <time>2022-10-06T18:10:35Z</time>
      </trkpt>
      <trkpt lat="10.2703813" lon="-85.6652657">
        <ele>59.2</ele>
        <time>2022-10-06T18:10:36Z</time>
      </trkpt>
      <trkpt lat="10.2704008" lon="-85.6650950">
        <ele>59.3</ele>
        <time>2022-10-06T18:10:37Z</time>
      </trkpt>
      <trkpt lat="10.2704207" lon="-85.6649244">
        <ele>59.3</ele>
        <time>2022-10-06T18:10:38Z</time>
      </trkpt>
      <trkpt lat="10.2704445" lon="-85.6647507">
        <ele>59.4</ele>
        <time>2022-10-06T18:10:39Z</time>
      </trkpt>
      <trkpt lat="10.2704669" lon="-85.6645740">
        <ele>59.6</ele>
        <time>2022-10-06T18:10:40Z</time>
      </trkpt>
      <trkpt lat="10.2704919" lon="-85.6643910">
        <ele>59.7</ele>
        <time>2022-10-06T18:10:41Z</time>
      </trkpt>
      <trkpt lat="10.2705177" lon="-85.6642054">
        <ele>60.0</ele>
        <time>2022-10-06T18:10:42Z</time>
      </trkpt>
      <trkpt lat="10.2705411" lon="-85.6640152">
        <ele>60.3</ele>
        <time>2022-10-06T18:10:43Z</time>
      </trkpt>
      <trkpt lat="10.2705596" lon="-85.6638215">
        <ele>60.5</ele>
        <time>2022-10-06T18:10:44Z</time>
      </trkpt>
      <trkpt lat="10.2705737" lon="-85.6636266">
        <ele>60.9</ele>
        <time>2022-10-06T18:10:45Z</time>
      </trkpt>
      <trkpt lat="10.2705877" lon="-85.6634309">
        <ele>61.2</ele>
        <time>2022-10-06T18:10:46Z</time>
      </trkpt>
      <trkpt lat="10.2706012" lon="-85.6632340">
        <ele>61.7</ele>
        <time>2022-10-06T18:10:47Z</time>
      </trkpt>
      <trkpt lat="10.2706163" lon="-85.6630414">
        <ele>62.1</ele>
        <time>2022-10-06T18:10:48Z</time>
      </trkpt>
      <trkpt lat="10.2706339" lon="-85.6628507">
        <ele>62.6</ele>
        <time>2022-10-06T18:10:49Z</time>
      </trkpt>
      <trkpt lat="10.2706521" lon="-85.6626610">
        <ele>62.8</ele>
        <time>2022-10-06T18:10:50Z</time>
      </trkpt>
      <trkpt lat="10.2706699" lon="-85.6624722">
        <ele>63.1</ele>
        <time>2022-10-06T18:10:51Z</time>
      </trkpt>
      <trkpt lat="10.2706888" lon="-85.6622820">
        <ele>63.4</ele>
        <time>2022-10-06T18:10:52Z</time>
      </trkpt>
      <trkpt lat="10.2707080" lon="-85.6620924">
        <ele>63.8</ele>
        <time>2022-10-06T18:10:53Z</time>
      </trkpt>
      <trkpt lat="10.2707285" lon="-85.6619008">
        <ele>64.1</ele>
        <time>2022-10-06T18:10:54Z</time>
      </trkpt>
      <trkpt lat="10.2707486" lon="-85.6617122">
        <ele>64.3</ele>
        <time>2022-10-06T18:10:55Z</time>
      </trkpt>
      <trkpt lat="10.2707685" lon="-85.6615274">
        <ele>64.4</ele>
        <time>2022-10-06T18:10:56Z</time>
      </trkpt>
      <trkpt lat="10.2707873" lon="-85.6613418">
        <ele>64.4</ele>
        <time>2022-10-06T18:10:57Z</time>
      </trkpt>
      <trkpt lat="10.2708075" lon="-85.6611584">
        <ele>64.7</ele>
        <time>2022-10-06T18:10:58Z</time>
      </trkpt>
      <trkpt lat="10.2708254" lon="-85.6609755">
        <ele>64.8</ele>
        <time>2022-10-06T18:10:59Z</time>
      </trkpt>
      <trkpt lat="10.2708443" lon="-85.6607901">
        <ele>64.8</ele>
        <time>2022-10-06T18:11:00Z</time>
      </trkpt>
      <trkpt lat="10.2708637" lon="-85.6606041">
        <ele>64.8</ele>
        <time>2022-10-06T18:11:01Z</time>
      </trkpt>
      <trkpt lat="10.2708838" lon="-85.6604156">
        <ele>64.9</ele>
        <time>2022-10-06T18:11:02Z</time>
      </trkpt>
      <trkpt lat="10.2709048" lon="-85.6602245">
        <ele>64.9</ele>
        <time>2022-10-06T18:11:03Z</time>
      </trkpt>
      <trkpt lat="10.2709252" lon="-85.6600330">
        <ele>65.0</ele>
        <time>2022-10-06T18:11:04Z</time>
      </trkpt>
      <trkpt lat="10.2709461" lon="-85.6598430">
        <ele>65.3</ele>
        <time>2022-10-06T18:11:05Z</time>
      </trkpt>
      <trkpt lat="10.2709659" lon="-85.6596577">
        <ele>65.5</ele>
        <time>2022-10-06T18:11:06Z</time>
      </trkpt>
      <trkpt lat="10.2709853" lon="-85.6594757">
        <ele>65.9</ele>
        <time>2022-10-06T18:11:07Z</time>
      </trkpt>
      <trkpt lat="10.2710031" lon="-85.6592998">
        <ele>66.4</ele>
        <time>2022-10-06T18:11:08Z</time>
      </trkpt>
      <trkpt lat="10.2710203" lon="-85.6591268">
        <ele>67.0</ele>
        <time>2022-10-06T18:11:09Z</time>
      </trkpt>
      <trkpt lat="10.2710375" lon="-85.6589580">
        <ele>67.7</ele>
        <time>2022-10-06T18:11:10Z</time>
      </trkpt>
      <trkpt lat="10.2710550" lon="-85.6587938">
        <ele>68.5</ele>
        <time>2022-10-06T18:11:11Z</time>
      </trkpt>
      <trkpt lat="10.2710719" lon="-85.6586337">
        <ele>68.5</ele>
        <time>2022-10-06T18:11:12Z</time>
      </trkpt>
      <trkpt lat="10.2710895" lon="-85.6584726">
        <ele>69.1</ele>
        <time>2022-10-06T18:11:13Z</time>
      </trkpt>
      <trkpt lat="10.2711054" lon="-85.6583140">
        <ele>69.8</ele>
        <time>2022-10-06T18:11:14Z</time>
      </trkpt>
      <trkpt lat="10.2711214" lon="-85.6581568">
        <ele>70.7</ele>
        <time>2022-10-06T18:11:15Z</time>
      </trkpt>
      <trkpt lat="10.2711368" lon="-85.6580027">
        <ele>71.4</ele>
        <time>2022-10-06T18:11:16Z</time>
      </trkpt>
      <trkpt lat="10.2711509" lon="-85.6578566">
        <ele>72.2</ele>
        <time>2022-10-06T18:11:17Z</time>
      </trkpt>
      <trkpt lat="10.2711646" lon="-85.6577116">
        <ele>73.1</ele>
        <time>2022-10-06T18:11:18Z</time>
      </trkpt>
      <trkpt lat="10.2711781" lon="-85.6575676">
        <ele>73.1</ele>
        <time>2022-10-06T18:11:19Z</time>
      </trkpt>
      <trkpt lat="10.2711931" lon="-85.6574256">
        <ele>74.1</ele>
        <time>2022-10-06T18:11:20Z</time>
      </trkpt>
      <trkpt lat="10.2712071" lon="-85.6572852">
        <ele>74.8</ele>
        <time>2022-10-06T18:11:21Z</time>
      </trkpt>
      <trkpt lat="10.2712222" lon="-85.6571464">
        <ele>75.5</ele>
        <time>2022-10-06T18:11:22Z</time>
      </trkpt>
      <trkpt lat="10.2712362" lon="-85.6570071">
        <ele>76.2</ele>
        <time>2022-10-06T18:11:23Z</time>
      </trkpt>
      <trkpt lat="10.2712499" lon="-85.6568706">
        <ele>76.9</ele>
        <time>2022-10-06T18:11:24Z</time>
      </trkpt>
      <trkpt lat="10.2712635" lon="-85.6567341">
        <ele>77.5</ele>
        <time>2022-10-06T18:11:25Z</time>
      </trkpt>
      <trkpt lat="10.2712783" lon="-85.6565961">
        <ele>78.1</ele>
        <time>2022-10-06T18:11:26Z</time>
      </trkpt>
      <trkpt lat="10.2712936" lon="-85.6564569">
        <ele>79.0</ele>
        <time>2022-10-06T18:11:27Z</time>
      </trkpt>
      <trkpt lat="10.2713083" lon="-85.6563176">
        <ele>79.9</ele>
        <time>2022-10-06T18:11:28Z</time>
      </trkpt>
      <trkpt lat="10.2713230" lon="-85.6561790">
        <ele>80.7</ele>
        <time>2022-10-06T18:11:29Z</time>
      </trkpt>
      <trkpt lat="10.2713378" lon="-85.6560389">
        <ele>81.5</ele>
        <time>2022-10-06T18:11:30Z</time>
      </trkpt>
      <trkpt lat="10.2713514" lon="-85.6558987">
        <ele>82.2</ele>
        <time>2022-10-06T18:11:31Z</time>
      </trkpt>
      <trkpt lat="10.2713658" lon="-85.6557584">
        <ele>82.7</ele>
        <time>2022-10-06T18:11:32Z</time>
      </trkpt>
      <trkpt lat="10.2713786" lon="-85.6556217">
        <ele>83.1</ele>
        <time>2022-10-06T18:11:33Z</time>
      </trkpt>
      <trkpt lat="10.2713924" lon="-85.6554854">
        <ele>83.3</ele>
        <time>2022-10-06T18:11:34Z</time>
      </trkpt>
      <trkpt lat="10.2714058" lon="-85.6553481">
        <ele>83.3</ele>
        <time>2022-10-06T18:11:35Z</time>
      </trkpt>
      <trkpt lat="10.2714189" lon="-85.6552042">
        <ele>83.2</ele>
        <time>2022-10-06T18:11:36Z</time>
      </trkpt>
      <trkpt lat="10.2714337" lon="-85.6550549">
        <ele>83.1</ele>
        <time>2022-10-06T18:11:37Z</time>
      </trkpt>
      <trkpt lat="10.2714497" lon="-85.6549069">
        <ele>82.6</ele>
        <time>2022-10-06T18:11:38Z</time>
      </trkpt>
      <trkpt lat="10.2714630" lon="-85.6547569">
        <ele>81.9</ele>
        <time>2022-10-06T18:11:39Z</time>
      </trkpt>
      <trkpt lat="10.2714721" lon="-85.6546051">
        <ele>81.2</ele>
        <time>2022-10-06T18:11:40Z</time>
      </trkpt>
      <trkpt lat="10.2714759" lon="-85.6544538">
        <ele>80.5</ele>
        <time>2022-10-06T18:11:41Z</time>
      </trkpt>
      <trkpt lat="10.2714739" lon="-85.6543055">
        <ele>79.7</ele>
        <time>2022-10-06T18:11:42Z</time>
      </trkpt>
      <trkpt lat="10.2714627" lon="-85.6541606">
        <ele>79.0</ele>
        <time>2022-10-06T18:11:43Z</time>
      </trkpt>
      <trkpt lat="10.2714455" lon="-85.6540171">
        <ele>78.2</ele>
        <time>2022-10-06T18:11:44Z</time>
      </trkpt>
      <trkpt lat="10.2714218" lon="-85.6538751">
        <ele>77.7</ele>
        <time>2022-10-06T18:11:45Z</time>
      </trkpt>
      <trkpt lat="10.2713950" lon="-85.6537369">
        <ele>77.0</ele>
        <time>2022-10-06T18:11:46Z</time>
      </trkpt>
      <trkpt lat="10.2713646" lon="-85.6536002">
        <ele>76.1</ele>
        <time>2022-10-06T18:11:47Z</time>
      </trkpt>
      <trkpt lat="10.2713316" lon="-85.6534581">
        <ele>75.3</ele>
        <time>2022-10-06T18:11:48Z</time>
      </trkpt>
      <trkpt lat="10.2712928" lon="-85.6533091">
        <ele>74.4</ele>
        <time>2022-10-06T18:11:49Z</time>
      </trkpt>
      <trkpt lat="10.2712452" lon="-85.6531600">
        <ele>73.7</ele>
        <time>2022-10-06T18:11:50Z</time>
      </trkpt>
      <trkpt lat="10.2711890" lon="-85.6530046">
        <ele>73.9</ele>
        <time>2022-10-06T18:11:51Z</time>
      </trkpt>
      <trkpt lat="10.2711249" lon="-85.6528490">
        <ele>73.3</ele>
        <time>2022-10-06T18:11:52Z</time>
      </trkpt>
      <trkpt lat="10.2710575" lon="-85.6526946">
        <ele>73.0</ele>
        <time>2022-10-06T18:11:53Z</time>
      </trkpt>
      <trkpt lat="10.2709872" lon="-85.6525374">
        <ele>72.7</ele>
        <time>2022-10-06T18:11:54Z</time>
      </trkpt>
      <trkpt lat="10.2709172" lon="-85.6523818">
        <ele>72.4</ele>
        <time>2022-10-06T18:11:55Z</time>
      </trkpt>
      <trkpt lat="10.2708458" lon="-85.6522243">
        <ele>72.2</ele>
        <time>2022-10-06T18:11:56Z</time>
      </trkpt>
      <trkpt lat="10.2707748" lon="-85.6520693">
        <ele>71.9</ele>
        <time>2022-10-06T18:11:57Z</time>
      </trkpt>
      <trkpt lat="10.2707038" lon="-85.6519171">
        <ele>71.8</ele>
        <time>2022-10-06T18:11:58Z</time>
      </trkpt>
      <trkpt lat="10.2706334" lon="-85.6517630">
        <ele>71.8</ele>
        <time>2022-10-06T18:11:59Z</time>
      </trkpt>
      <trkpt lat="10.2705626" lon="-85.6516089">
        <ele>71.7</ele>
        <time>2022-10-06T18:12:00Z</time>
      </trkpt>
      <trkpt lat="10.2704927" lon="-85.6514562">
        <ele>71.7</ele>
        <time>2022-10-06T18:12:01Z</time>
      </trkpt>
      <trkpt lat="10.2704222" lon="-85.6513016">
        <ele>71.7</ele>
        <time>2022-10-06T18:12:02Z</time>
      </trkpt>
      <trkpt lat="10.2703509" lon="-85.6511468">
        <ele>71.6</ele>
        <time>2022-10-06T18:12:03Z</time>
      </trkpt>
      <trkpt lat="10.2702809" lon="-85.6509957">
        <ele>71.5</ele>
        <time>2022-10-06T18:12:04Z</time>
      </trkpt>
      <trkpt lat="10.2702156" lon="-85.6508500">
        <ele>71.3</ele>
        <time>2022-10-06T18:12:05Z</time>
      </trkpt>
      <trkpt lat="10.2701519" lon="-85.6507071">
        <ele>71.4</ele>
        <time>2022-10-06T18:12:06Z</time>
      </trkpt>
      <trkpt lat="10.2700890" lon="-85.6505674">
        <ele>71.4</ele>
        <time>2022-10-06T18:12:07Z</time>
      </trkpt>
      <trkpt lat="10.2700256" lon="-85.6504310">
        <ele>71.4</ele>
        <time>2022-10-06T18:12:08Z</time>
      </trkpt>
      <trkpt lat="10.2699598" lon="-85.6502940">
        <ele>71.4</ele>
        <time>2022-10-06T18:12:09Z</time>
      </trkpt>
      <trkpt lat="10.2698916" lon="-85.6501527">
        <ele>71.6</ele>
        <time>2022-10-06T18:12:10Z</time>
      </trkpt>
      <trkpt lat="10.2698236" lon="-85.6500074">
        <ele>72.0</ele>
        <time>2022-10-06T18:12:11Z</time>
      </trkpt>
      <trkpt lat="10.2697566" lon="-85.6498575">
        <ele>72.0</ele>
        <time>2022-10-06T18:12:12Z</time>
      </trkpt>
      <trkpt lat="10.2696888" lon="-85.6497083">
        <ele>72.4</ele>
        <time>2022-10-06T18:12:13Z</time>
      </trkpt>
      <trkpt lat="10.2696169" lon="-85.6495524">
        <ele>72.7</ele>
        <time>2022-10-06T18:12:14Z</time>
      </trkpt>
      <trkpt lat="10.2695452" lon="-85.6493937">
        <ele>72.7</ele>
        <time>2022-10-06T18:12:15Z</time>
      </trkpt>
      <trkpt lat="10.2694751" lon="-85.6492343">
        <ele>72.7</ele>
        <time>2022-10-06T18:12:16Z</time>
      </trkpt>
      <trkpt lat="10.2694072" lon="-85.6490737">
        <ele>72.7</ele>
        <time>2022-10-06T18:12:17Z</time>
      </trkpt>
      <trkpt lat="10.2693516" lon="-85.6489064">
        <ele>72.4</ele>
        <time>2022-10-06T18:12:18Z</time>
      </trkpt>
      <trkpt lat="10.2693110" lon="-85.6487382">
        <ele>72.3</ele>
        <time>2022-10-06T18:12:19Z</time>
      </trkpt>
      <trkpt lat="10.2692869" lon="-85.6485723">
        <ele>72.2</ele>
        <time>2022-10-06T18:12:20Z</time>
      </trkpt>
      <trkpt lat="10.2692785" lon="-85.6484114">
        <ele>72.4</ele>
        <time>2022-10-06T18:12:21Z</time>
      </trkpt>
      <trkpt lat="10.2692833" lon="-85.6482536">
        <ele>72.3</ele>
        <time>2022-10-06T18:12:22Z</time>
      </trkpt>
      <trkpt lat="10.2693000" lon="-85.6481066">
        <ele>72.2</ele>
        <time>2022-10-06T18:12:23Z</time>
      </trkpt>
      <trkpt lat="10.2693257" lon="-85.6479729">
        <ele>72.1</ele>
        <time>2022-10-06T18:12:24Z</time>
      </trkpt>
      <trkpt lat="10.2693531" lon="-85.6478553">
        <ele>71.9</ele>
        <time>2022-10-06T18:12:25Z</time>
      </trkpt>
      <trkpt lat="10.2693761" lon="-85.6477572">
        <ele>71.7</ele>
        <time>2022-10-06T18:12:26Z</time>
      </trkpt>
      <trkpt lat="10.2693946" lon="-85.6476823">
        <ele>71.4</ele>
        <time>2022-10-06T18:12:27Z</time>
      </trkpt>
      <trkpt lat="10.2694085" lon="-85.6476261">
        <ele>71.3</ele>
        <time>2022-10-06T18:12:28Z</time>
      </trkpt>
      <trkpt lat="10.2694184" lon="-85.6475834">
        <ele>71.2</ele>
        <time>2022-10-06T18:12:29Z</time>
      </trkpt>
      <trkpt lat="10.2694257" lon="-85.6475567">
        <ele>71.2</ele>
        <time>2022-10-06T18:12:30Z</time>
      </trkpt>
      <trkpt lat="10.2694331" lon="-85.6475311">
        <ele>71.3</ele>
        <time>2022-10-06T18:12:31Z</time>
      </trkpt>
      <trkpt lat="10.2694406" lon="-85.6475003">
        <ele>71.2</ele>
        <time>2022-10-06T18:12:32Z</time>
      </trkpt>
      <trkpt lat="10.2694513" lon="-85.6474609">
        <ele>71.2</ele>
        <time>2022-10-06T18:12:33Z</time>
      </trkpt>
      <trkpt lat="10.2694650" lon="-85.6474084">
        <ele>71.1</ele>
        <time>2022-10-06T18:12:34Z</time>
      </trkpt>
      <trkpt lat="10.2694825" lon="-85.6473436">
        <ele>70.9</ele>
        <time>2022-10-06T18:12:35Z</time>
      </trkpt>
      <trkpt lat="10.2695033" lon="-85.6472689">
        <ele>70.8</ele>
        <time>2022-10-06T18:12:36Z</time>
      </trkpt>
      <trkpt lat="10.2695233" lon="-85.6471924">
        <ele>70.7</ele>
        <time>2022-10-06T18:12:37Z</time>
      </trkpt>
      <trkpt lat="10.2695432" lon="-85.6471163">
        <ele>70.6</ele>
        <time>2022-10-06T18:12:38Z</time>
      </trkpt>
      <trkpt lat="10.2695628" lon="-85.6470410">
        <ele>70.5</ele>
        <time>2022-10-06T18:12:39Z</time>
      </trkpt>
      <trkpt lat="10.2695825" lon="-85.6469660">
        <ele>70.4</ele>
        <time>2022-10-06T18:12:40Z</time>
      </trkpt>
      <trkpt lat="10.2696016" lon="-85.6468905">
        <ele>70.3</ele>
        <time>2022-10-06T18:12:41Z</time>
      </trkpt>
      <trkpt lat="10.2696205" lon="-85.6468202">
        <ele>70.2</ele>
        <time>2022-10-06T18:12:42Z</time>
      </trkpt>
      <trkpt lat="10.2696366" lon="-85.6467599">
        <ele>70.1</ele>
        <time>2022-10-06T18:12:43Z</time>
      </trkpt>
      <trkpt lat="10.2696469" lon="-85.6467222">
        <ele>70.0</ele>
        <time>2022-10-06T18:12:44Z</time>
      </trkpt>
      <trkpt lat="10.2696528" lon="-85.6467010">
        <ele>70.0</ele>
        <time>2022-10-06T18:12:45Z</time>
      </trkpt>
      <trkpt lat="10.2696584" lon="-85.6466819">
        <ele>69.9</ele>
        <time>2022-10-06T18:12:46Z</time>
      </trkpt>
      <trkpt lat="10.2696633" lon="-85.6466611">
        <ele>69.9</ele>
        <time>2022-10-06T18:12:47Z</time>
      </trkpt>
      <trkpt lat="10.2696707" lon="-85.6466375">
        <ele>69.9</ele>
        <time>2022-10-06T18:12:48Z</time>
      </trkpt>
      <trkpt lat="10.2696773" lon="-85.6466123">
        <ele>69.9</ele>
        <time>2022-10-06T18:12:49Z</time>
      </trkpt>
      <trkpt lat="10.2696834" lon="-85.6465870">
        <ele>69.8</ele>
        <time>2022-10-06T18:12:50Z</time>
      </trkpt>
      <trkpt lat="10.2696919" lon="-85.6465541">
        <ele>69.7</ele>
        <time>2022-10-06T18:12:51Z</time>
      </trkpt>
      <trkpt lat="10.2697042" lon="-85.6465096">
        <ele>69.6</ele>
        <time>2022-10-06T18:12:52Z</time>
      </trkpt>
      <trkpt lat="10.2697190" lon="-85.6464523">
        <ele>69.6</ele>
        <time>2022-10-06T18:12:53Z</time>
      </trkpt>
      <trkpt lat="10.2697364" lon="-85.6463822">
        <ele>69.4</ele>
        <time>2022-10-06T18:12:54Z</time>
      </trkpt>
      <trkpt lat="10.2697551" lon="-85.6463050">
        <ele>69.3</ele>
        <time>2022-10-06T18:12:55Z</time>
      </trkpt>
      <trkpt lat="10.2697758" lon="-85.6462187">
        <ele>69.2</ele>
        <time>2022-10-06T18:12:56Z</time>
      </trkpt>
      <trkpt lat="10.2697974" lon="-85.6461256">
        <ele>69.0</ele>
        <time>2022-10-06T18:12:57Z</time>
      </trkpt>
      <trkpt lat="10.2698221" lon="-85.6460250">
        <ele>68.9</ele>
        <time>2022-10-06T18:12:58Z</time>
      </trkpt>
      <trkpt lat="10.2698464" lon="-85.6459235">
        <ele>68.8</ele>
        <time>2022-10-06T18:12:59Z</time>
      </trkpt>
      <trkpt lat="10.2698709" lon="-85.6458252">
        <ele>68.7</ele>
        <time>2022-10-06T18:13:00Z</time>
      </trkpt>
      <trkpt lat="10.2698950" lon="-85.6457295">
        <ele>68.6</ele>
        <time>2022-10-06T18:13:01Z</time>
      </trkpt>
      <trkpt lat="10.2699194" lon="-85.6456324">
        <ele>68.4</ele>
        <time>2022-10-06T18:13:02Z</time>
      </trkpt>
      <trkpt lat="10.2699449" lon="-85.6455308">
        <ele>68.4</ele>
        <time>2022-10-06T18:13:03Z</time>
      </trkpt>
      <trkpt lat="10.2699703" lon="-85.6454301">
        <ele>68.3</ele>
        <time>2022-10-06T18:13:04Z</time>
      </trkpt>
      <trkpt lat="10.2699971" lon="-85.6453257">
        <ele>68.3</ele>
        <time>2022-10-06T18:13:05Z</time>
      </trkpt>
      <trkpt lat="10.2700232" lon="-85.6452198">
        <ele>68.2</ele>
        <time>2022-10-06T18:13:06Z</time>
      </trkpt>
      <trkpt lat="10.2700521" lon="-85.6451053">
        <ele>68.1</ele>
        <time>2022-10-06T18:13:07Z</time>
      </trkpt>
      <trkpt lat="10.2700814" lon="-85.6449881">
        <ele>68.0</ele>
        <time>2022-10-06T18:13:08Z</time>
      </trkpt>
      <trkpt lat="10.2701121" lon="-85.6448691">
        <ele>68.0</ele>
        <time>2022-10-06T18:13:09Z</time>
      </trkpt>
      <trkpt lat="10.2701441" lon="-85.6447463">
        <ele>67.9</ele>
        <time>2022-10-06T18:13:10Z</time>
      </trkpt>
      <trkpt lat="10.2701766" lon="-85.6446237">
        <ele>67.9</ele>
        <time>2022-10-06T18:13:11Z</time>
      </trkpt>
      <trkpt lat="10.2702091" lon="-85.6444978">
        <ele>68.0</ele>
        <time>2022-10-06T18:13:12Z</time>
      </trkpt>
      <trkpt lat="10.2702405" lon="-85.6443712">
        <ele>68.0</ele>
        <time>2022-10-06T18:13:13Z</time>
      </trkpt>
      <trkpt lat="10.2702737" lon="-85.6442382">
        <ele>67.9</ele>
        <time>2022-10-06T18:13:14Z</time>
      </trkpt>
      <trkpt lat="10.2703075" lon="-85.6441010">
        <ele>67.9</ele>
        <time>2022-10-06T18:13:15Z</time>
      </trkpt>
      <trkpt lat="10.2703429" lon="-85.6439611">
        <ele>67.9</ele>
        <time>2022-10-06T18:13:16Z</time>
      </trkpt>
      <trkpt lat="10.2703790" lon="-85.6438190">
        <ele>67.9</ele>
        <time>2022-10-06T18:13:17Z</time>
      </trkpt>
      <trkpt lat="10.2704145" lon="-85.6436761">
        <ele>67.8</ele>
        <time>2022-10-06T18:13:18Z</time>
      </trkpt>
      <trkpt lat="10.2704511" lon="-85.6435317">
        <ele>67.8</ele>
        <time>2022-10-06T18:13:19Z</time>
      </trkpt>
      <trkpt lat="10.2704881" lon="-85.6433839">
        <ele>67.8</ele>
        <time>2022-10-06T18:13:20Z</time>
      </trkpt>
      <trkpt lat="10.2705231" lon="-85.6432332">
        <ele>67.9</ele>
        <time>2022-10-06T18:13:21Z</time>
      </trkpt>
      <trkpt lat="10.2705575" lon="-85.6430799">
        <ele>68.0</ele>
        <time>2022-10-06T18:13:22Z</time>
      </trkpt>
      <trkpt lat="10.2705935" lon="-85.6429265">
        <ele>68.1</ele>
        <time>2022-10-06T18:13:23Z</time>
      </trkpt>
      <trkpt lat="10.2706321" lon="-85.6427733">
        <ele>68.2</ele>
        <time>2022-10-06T18:13:24Z</time>
      </trkpt>
      <trkpt lat="10.2706726" lon="-85.6426182">
        <ele>68.4</ele>
        <time>2022-10-06T18:13:25Z</time>
      </trkpt>
      <trkpt lat="10.2707130" lon="-85.6424651">
        <ele>68.5</ele>
        <time>2022-10-06T18:13:26Z</time>
      </trkpt>
      <trkpt lat="10.2707546" lon="-85.6423079">
        <ele>68.5</ele>
        <time>2022-10-06T18:13:27Z</time>
      </trkpt>
      <trkpt lat="10.2707960" lon="-85.6421494">
        <ele>68.8</ele>
        <time>2022-10-06T18:13:28Z</time>
      </trkpt>
      <trkpt lat="10.2708374" lon="-85.6419905">
        <ele>69.0</ele>
        <time>2022-10-06T18:13:29Z</time>
      </trkpt>
      <trkpt lat="10.2708776" lon="-85.6418315">
        <ele>69.2</ele>
        <time>2022-10-06T18:13:30Z</time>
      </trkpt>
      <trkpt lat="10.2709154" lon="-85.6416745">
        <ele>69.3</ele>
        <time>2022-10-06T18:13:31Z</time>
      </trkpt>
      <trkpt lat="10.2709545" lon="-85.6415171">
        <ele>69.5</ele>
        <time>2022-10-06T18:13:32Z</time>
      </trkpt>
      <trkpt lat="10.2709930" lon="-85.6413626">
        <ele>69.7</ele>
        <time>2022-10-06T18:13:33Z</time>
      </trkpt>
      <trkpt lat="10.2710312" lon="-85.6412114">
        <ele>69.9</ele>
        <time>2022-10-06T18:13:34Z</time>
      </trkpt>
      <trkpt lat="10.2710713" lon="-85.6410595">
        <ele>69.9</ele>
        <time>2022-10-06T18:13:35Z</time>
      </trkpt>
      <trkpt lat="10.2711115" lon="-85.6409052">
        <ele>70.0</ele>
        <time>2022-10-06T18:13:36Z</time>
      </trkpt>
      <trkpt lat="10.2711498" lon="-85.6407512">
        <ele>70.2</ele>
        <time>2022-10-06T18:13:37Z</time>
      </trkpt>
      <trkpt lat="10.2711875" lon="-85.6405965">
        <ele>70.3</ele>
        <time>2022-10-06T18:13:38Z</time>
      </trkpt>
      <trkpt lat="10.2712266" lon="-85.6404400">
        <ele>70.4</ele>
        <time>2022-10-06T18:13:39Z</time>
      </trkpt>
      <trkpt lat="10.2712646" lon="-85.6402878">
        <ele>70.6</ele>
        <time>2022-10-06T18:13:40Z</time>
      </trkpt>
      <trkpt lat="10.2713021" lon="-85.6401376">
        <ele>70.8</ele>
        <time>2022-10-06T18:13:41Z</time>
      </trkpt>
      <trkpt lat="10.2713394" lon="-85.6399898">
        <ele>70.9</ele>
        <time>2022-10-06T18:13:42Z</time>
      </trkpt>
      <trkpt lat="10.2713756" lon="-85.6398461">
        <ele>71.0</ele>
        <time>2022-10-06T18:13:43Z</time>
      </trkpt>
      <trkpt lat="10.2714096" lon="-85.6397036">
        <ele>71.1</ele>
        <time>2022-10-06T18:13:44Z</time>
      </trkpt>
      <trkpt lat="10.2714465" lon="-85.6395602">
        <ele>71.2</ele>
        <time>2022-10-06T18:13:45Z</time>
      </trkpt>
      <trkpt lat="10.2714840" lon="-85.6394140">
        <ele>71.2</ele>
        <time>2022-10-06T18:13:46Z</time>
      </trkpt>
      <trkpt lat="10.2715220" lon="-85.6392663">
        <ele>71.3</ele>
        <time>2022-10-06T18:13:47Z</time>
      </trkpt>
      <trkpt lat="10.2715613" lon="-85.6391154">
        <ele>71.3</ele>
        <time>2022-10-06T18:13:48Z</time>
      </trkpt>
      <trkpt lat="10.2716002" lon="-85.6389624">
        <ele>71.5</ele>
        <time>2022-10-06T18:13:49Z</time>
      </trkpt>
      <trkpt lat="10.2716383" lon="-85.6388120">
        <ele>71.5</ele>
        <time>2022-10-06T18:13:50Z</time>
      </trkpt>
      <trkpt lat="10.2716767" lon="-85.6386626">
        <ele>71.5</ele>
        <time>2022-10-06T18:13:51Z</time>
      </trkpt>
      <trkpt lat="10.2717159" lon="-85.6385120">
        <ele>71.6</ele>
        <time>2022-10-06T18:13:52Z</time>
      </trkpt>
      <trkpt lat="10.2717548" lon="-85.6383618">
        <ele>71.6</ele>
        <time>2022-10-06T18:13:53Z</time>
      </trkpt>
      <trkpt lat="10.2717927" lon="-85.6382142">
        <ele>71.5</ele>
        <time>2022-10-06T18:13:54Z</time>
      </trkpt>
      <trkpt lat="10.2718292" lon="-85.6380680">
        <ele>71.4</ele>
        <time>2022-10-06T18:13:55Z</time>
      </trkpt>
      <trkpt lat="10.2718657" lon="-85.6379234">
        <ele>71.4</ele>
        <time>2022-10-06T18:13:56Z</time>
      </trkpt>
      <trkpt lat="10.2719027" lon="-85.6377814">
        <ele>71.4</ele>
        <time>2022-10-06T18:13:57Z</time>
      </trkpt>
      <trkpt lat="10.2719381" lon="-85.6376466">
        <ele>71.4</ele>
        <time>2022-10-06T18:13:58Z</time>
      </trkpt>
      <trkpt lat="10.2719691" lon="-85.6375283">
        <ele>71.4</ele>
        <time>2022-10-06T18:13:59Z</time>
      </trkpt>
      <trkpt lat="10.2719956" lon="-85.6374269">
        <ele>71.4</ele>
        <time>2022-10-06T18:14:00Z</time>
      </trkpt>
      <trkpt lat="10.2720169" lon="-85.6373384">
        <ele>71.4</ele>
        <time>2022-10-06T18:14:01Z</time>
      </trkpt>
      <trkpt lat="10.2720337" lon="-85.6372652">
        <ele>71.3</ele>
        <time>2022-10-06T18:14:02Z</time>
      </trkpt>
      <trkpt lat="10.2720464" lon="-85.6372124">
        <ele>71.2</ele>
        <time>2022-10-06T18:14:03Z</time>
      </trkpt>
      <trkpt lat="10.2720560" lon="-85.6371751">
        <ele>71.1</ele>
        <time>2022-10-06T18:14:04Z</time>
      </trkpt>
      <trkpt lat="10.2720634" lon="-85.6371510">
        <ele>71.1</ele>
        <time>2022-10-06T18:14:05Z</time>
      </trkpt>
      <trkpt lat="10.2720701" lon="-85.6371251">
        <ele>71.2</ele>
        <time>2022-10-06T18:14:06Z</time>
      </trkpt>
      <trkpt lat="10.2720804" lon="-85.6370937">
        <ele>71.2</ele>
        <time>2022-10-06T18:14:07Z</time>
      </trkpt>
      <trkpt lat="10.2720933" lon="-85.6370469">
        <ele>71.2</ele>
        <time>2022-10-06T18:14:08Z</time>
      </trkpt>
      <trkpt lat="10.2721094" lon="-85.6369825">
        <ele>71.2</ele>
        <time>2022-10-06T18:14:09Z</time>
      </trkpt>
      <trkpt lat="10.2721294" lon="-85.6369053">
        <ele>71.1</ele>
        <time>2022-10-06T18:14:10Z</time>
      </trkpt>
      <trkpt lat="10.2721516" lon="-85.6368211">
        <ele>71.0</ele>
        <time>2022-10-06T18:14:11Z</time>
      </trkpt>
      <trkpt lat="10.2721747" lon="-85.6367327">
        <ele>71.0</ele>
        <time>2022-10-06T18:14:12Z</time>
      </trkpt>
      <trkpt lat="10.2721980" lon="-85.6366421">
        <ele>71.1</ele>
        <time>2022-10-06T18:14:13Z</time>
      </trkpt>
      <trkpt lat="10.2722205" lon="-85.6365517">
        <ele>71.0</ele>
        <time>2022-10-06T18:14:14Z</time>
      </trkpt>
      <trkpt lat="10.2722443" lon="-85.6364619">
        <ele>70.9</ele>
        <time>2022-10-06T18:14:15Z</time>
      </trkpt>
      <trkpt lat="10.2722656" lon="-85.6363728">
        <ele>70.9</ele>
        <time>2022-10-06T18:14:16Z</time>
      </trkpt>
      <trkpt lat="10.2722874" lon="-85.6362853">
        <ele>70.8</ele>
        <time>2022-10-06T18:14:17Z</time>
      </trkpt>
      <trkpt lat="10.2723088" lon="-85.6361984">
        <ele>70.8</ele>
        <time>2022-10-06T18:14:18Z</time>
      </trkpt>
      <trkpt lat="10.2723309" lon="-85.6361086">
        <ele>70.7</ele>
        <time>2022-10-06T18:14:19Z</time>
      </trkpt>
      <trkpt lat="10.2723535" lon="-85.6360172">
        <ele>70.6</ele>
        <time>2022-10-06T18:14:20Z</time>
      </trkpt>
      <trkpt lat="10.2723761" lon="-85.6359264">
        <ele>70.4</ele>
        <time>2022-10-06T18:14:21Z</time>
      </trkpt>
      <trkpt lat="10.2723971" lon="-85.6358432">
        <ele>70.3</ele>
        <time>2022-10-06T18:14:22Z</time>
      </trkpt>
      <trkpt lat="10.2724147" lon="-85.6357742">
        <ele>70.2</ele>
        <time>2022-10-06T18:14:23Z</time>
      </trkpt>
      <trkpt lat="10.2724274" lon="-85.6357242">
        <ele>70.2</ele>
        <time>2022-10-06T18:14:24Z</time>
      </trkpt>
      <trkpt lat="10.2724374" lon="-85.6356816">
        <ele>70.1</ele>
        <time>2022-10-06T18:14:25Z</time>
      </trkpt>
      <trkpt lat="10.2724476" lon="-85.6356421">
        <ele>70.1</ele>
        <time>2022-10-06T18:14:26Z</time>
      </trkpt>
      <trkpt lat="10.2724566" lon="-85.6356096">
        <ele>70.1</ele>
        <time>2022-10-06T18:14:27Z</time>
      </trkpt>
      <trkpt lat="10.2724649" lon="-85.6355812">
        <ele>70.1</ele>
        <time>2022-10-06T18:14:28Z</time>
      </trkpt>
      <trkpt lat="10.2724745" lon="-85.6355428">
        <ele>70.1</ele>
        <time>2022-10-06T18:14:29Z</time>
      </trkpt>
      <trkpt lat="10.2724873" lon="-85.6354967">
        <ele>70.1</ele>
        <time>2022-10-06T18:14:30Z</time>
      </trkpt>
      <trkpt lat="10.2725020" lon="-85.6354408">
        <ele>70.0</ele>
        <time>2022-10-06T18:14:31Z</time>
      </trkpt>
      <trkpt lat="10.2725192" lon="-85.6353744">
        <ele>69.9</ele>
        <time>2022-10-06T18:14:32Z</time>
      </trkpt>
      <trkpt lat="10.2725371" lon="-85.6353003">
        <ele>69.9</ele>
        <time>2022-10-06T18:14:33Z</time>
      </trkpt>
      <trkpt lat="10.2725579" lon="-85.6352185">
        <ele>69.8</ele>
        <time>2022-10-06T18:14:34Z</time>
      </trkpt>
      <trkpt lat="10.2725807" lon="-85.6351310">
        <ele>69.7</ele>
        <time>2022-10-06T18:14:35Z</time>
      </trkpt>
      <trkpt lat="10.2726044" lon="-85.6350341">
        <ele>69.5</ele>
        <time>2022-10-06T18:14:36Z</time>
      </trkpt>
      <trkpt lat="10.2726285" lon="-85.6349339">
        <ele>69.4</ele>
        <time>2022-10-06T18:14:37Z</time>
      </trkpt>
      <trkpt lat="10.2726536" lon="-85.6348388">
        <ele>69.3</ele>
        <time>2022-10-06T18:14:38Z</time>
      </trkpt>
      <trkpt lat="10.2726798" lon="-85.6347425">
        <ele>69.2</ele>
        <time>2022-10-06T18:14:39Z</time>
      </trkpt>
      <trkpt lat="10.2727042" lon="-85.6346396">
        <ele>69.2</ele>
        <time>2022-10-06T18:14:40Z</time>
      </trkpt>
      <trkpt lat="10.2727307" lon="-85.6345313">
        <ele>69.3</ele>
        <time>2022-10-06T18:14:41Z</time>
      </trkpt>
      <trkpt lat="10.2727593" lon="-85.6344175">
        <ele>69.4</ele>
        <time>2022-10-06T18:14:42Z</time>
      </trkpt>
      <trkpt lat="10.2727909" lon="-85.6342955">
        <ele>69.4</ele>
        <time>2022-10-06T18:14:43Z</time>
      </trkpt>
      <trkpt lat="10.2728235" lon="-85.6341712">
        <ele>69.7</ele>
        <time>2022-10-06T18:14:44Z</time>
      </trkpt>
      <trkpt lat="10.2728580" lon="-85.6340385">
        <ele>69.8</ele>
        <time>2022-10-06T18:14:45Z</time>
      </trkpt>
      <trkpt lat="10.2728916" lon="-85.6339042">
        <ele>70.0</ele>
        <time>2022-10-06T18:14:46Z</time>
      </trkpt>
      <trkpt lat="10.2729269" lon="-85.6337634">
        <ele>70.1</ele>
        <time>2022-10-06T18:14:47Z</time>
      </trkpt>
      <trkpt lat="10.2729637" lon="-85.6336194">
        <ele>70.3</ele>
        <time>2022-10-06T18:14:48Z</time>
      </trkpt>
      <trkpt lat="10.2730017" lon="-85.6334730">
        <ele>70.3</ele>
        <time>2022-10-06T18:14:49Z</time>
      </trkpt>
      <trkpt lat="10.2730396" lon="-85.6333216">
        <ele>70.3</ele>
        <time>2022-10-06T18:14:50Z</time>
      </trkpt>
      <trkpt lat="10.2730774" lon="-85.6331688">
        <ele>70.1</ele>
        <time>2022-10-06T18:14:51Z</time>
      </trkpt>
      <trkpt lat="10.2731161" lon="-85.6330163">
        <ele>69.6</ele>
        <time>2022-10-06T18:14:52Z</time>
      </trkpt>
      <trkpt lat="10.2731531" lon="-85.6328612">
        <ele>69.0</ele>
        <time>2022-10-06T18:14:53Z</time>
      </trkpt>
      <trkpt lat="10.2731885" lon="-85.6327049">
        <ele>68.6</ele>
        <time>2022-10-06T18:14:54Z</time>
      </trkpt>
      <trkpt lat="10.2732214" lon="-85.6325487">
        <ele>68.2</ele>
        <time>2022-10-06T18:14:55Z</time>
      </trkpt>
      <trkpt lat="10.2732515" lon="-85.6323941">
        <ele>67.9</ele>
        <time>2022-10-06T18:14:56Z</time>
      </trkpt>
      <trkpt lat="10.2732733" lon="-85.6322372">
        <ele>67.8</ele>
        <time>2022-10-06T18:14:57Z</time>
      </trkpt>
      <trkpt lat="10.2732867" lon="-85.6320809">
        <ele>67.6</ele>
        <time>2022-10-06T18:14:58Z</time>
      </trkpt>
      <trkpt lat="10.2732952" lon="-85.6319221">
        <ele>67.6</ele>
        <time>2022-10-06T18:14:59Z</time>
      </trkpt>
      <trkpt lat="10.2733010" lon="-85.6317629">
        <ele>67.6</ele>
        <time>2022-10-06T18:15:00Z</time>
      </trkpt>
      <trkpt lat="10.2733027" lon="-85.6316019">
        <ele>67.5</ele>
        <time>2022-10-06T18:15:01Z</time>
      </trkpt>
      <trkpt lat="10.2733019" lon="-85.6314385">
        <ele>67.5</ele>
        <time>2022-10-06T18:15:02Z</time>
      </trkpt>
      <trkpt lat="10.2732983" lon="-85.6312767">
        <ele>67.7</ele>
        <time>2022-10-06T18:15:03Z</time>
      </trkpt>
      <trkpt lat="10.2732931" lon="-85.6311143">
        <ele>67.8</ele>
        <time>2022-10-06T18:15:04Z</time>
      </trkpt>
      <trkpt lat="10.2732865" lon="-85.6309501">
        <ele>67.8</ele>
        <time>2022-10-06T18:15:05Z</time>
      </trkpt>
      <trkpt lat="10.2732789" lon="-85.6307875">
        <ele>67.8</ele>
        <time>2022-10-06T18:15:06Z</time>
      </trkpt>
      <trkpt lat="10.2732716" lon="-85.6306233">
        <ele>67.8</ele>
        <time>2022-10-06T18:15:07Z</time>
      </trkpt>
      <trkpt lat="10.2732641" lon="-85.6304555">
        <ele>67.8</ele>
        <time>2022-10-06T18:15:08Z</time>
      </trkpt>
      <trkpt lat="10.2732537" lon="-85.6302866">
        <ele>67.9</ele>
        <time>2022-10-06T18:15:09Z</time>
      </trkpt>
      <trkpt lat="10.2732458" lon="-85.6301166">
        <ele>68.1</ele>
        <time>2022-10-06T18:15:10Z</time>
      </trkpt>
      <trkpt lat="10.2732463" lon="-85.6299457">
        <ele>68.3</ele>
        <time>2022-10-06T18:15:11Z</time>
      </trkpt>
      <trkpt lat="10.2732498" lon="-85.6297794">
        <ele>68.3</ele>
        <time>2022-10-06T18:15:12Z</time>
      </trkpt>
      <trkpt lat="10.2732569" lon="-85.6296137">
        <ele>68.6</ele>
        <time>2022-10-06T18:15:13Z</time>
      </trkpt>
      <trkpt lat="10.2732635" lon="-85.6294460">
        <ele>68.9</ele>
        <time>2022-10-06T18:15:14Z</time>
      </trkpt>
      <trkpt lat="10.2732700" lon="-85.6292753">
        <ele>69.0</ele>
        <time>2022-10-06T18:15:15Z</time>
      </trkpt>
      <trkpt lat="10.2732797" lon="-85.6291021">
        <ele>69.2</ele>
        <time>2022-10-06T18:15:16Z</time>
      </trkpt>
      <trkpt lat="10.2732897" lon="-85.6289294">
        <ele>69.4</ele>
        <time>2022-10-06T18:15:17Z</time>
      </trkpt>
      <trkpt lat="10.2733001" lon="-85.6287545">
        <ele>69.5</ele>
        <time>2022-10-06T18:15:18Z</time>
      </trkpt>
      <trkpt lat="10.2733143" lon="-85.6285786">
        <ele>69.7</ele>
        <time>2022-10-06T18:15:19Z</time>
      </trkpt>
      <trkpt lat="10.2733340" lon="-85.6284005">
        <ele>69.9</ele>
        <time>2022-10-06T18:15:20Z</time>
      </trkpt>
      <trkpt lat="10.2733585" lon="-85.6282187">
        <ele>70.1</ele>
        <time>2022-10-06T18:15:21Z</time>
      </trkpt>
      <trkpt lat="10.2733884" lon="-85.6280380">
        <ele>70.2</ele>
        <time>2022-10-06T18:15:22Z</time>
      </trkpt>
      <trkpt lat="10.2734237" lon="-85.6278575">
        <ele>70.4</ele>
        <time>2022-10-06T18:15:23Z</time>
      </trkpt>
      <trkpt lat="10.2734639" lon="-85.6276739">
        <ele>70.5</ele>
        <time>2022-10-06T18:15:24Z</time>
      </trkpt>
      <trkpt lat="10.2735107" lon="-85.6274923">
        <ele>70.7</ele>
        <time>2022-10-06T18:15:25Z</time>
      </trkpt>
      <trkpt lat="10.2735620" lon="-85.6273099">
        <ele>70.5</ele>
        <time>2022-10-06T18:15:26Z</time>
      </trkpt>
      <trkpt lat="10.2736242" lon="-85.6271294">
        <ele>70.5</ele>
        <time>2022-10-06T18:15:27Z</time>
      </trkpt>
      <trkpt lat="10.2736912" lon="-85.6269515">
        <ele>70.4</ele>
        <time>2022-10-06T18:15:28Z</time>
      </trkpt>
      <trkpt lat="10.2737619" lon="-85.6267751">
        <ele>70.4</ele>
        <time>2022-10-06T18:15:29Z</time>
      </trkpt>
      <trkpt lat="10.2738329" lon="-85.6265973">
        <ele>70.3</ele>
        <time>2022-10-06T18:15:30Z</time>
      </trkpt>
      <trkpt lat="10.2738999" lon="-85.6264207">
        <ele>70.1</ele>
        <time>2022-10-06T18:15:31Z</time>
      </trkpt>
      <trkpt lat="10.2739642" lon="-85.6262466">
        <ele>70.0</ele>
        <time>2022-10-06T18:15:32Z</time>
      </trkpt>
      <trkpt lat="10.2740188" lon="-85.6260770">
        <ele>69.8</ele>
        <time>2022-10-06T18:15:33Z</time>
      </trkpt>
      <trkpt lat="10.2740555" lon="-85.6259104">
        <ele>69.6</ele>
        <time>2022-10-06T18:15:34Z</time>
      </trkpt>
      <trkpt lat="10.2740678" lon="-85.6257480">
        <ele>69.6</ele>
        <time>2022-10-06T18:15:35Z</time>
      </trkpt>
      <trkpt lat="10.2740547" lon="-85.6255917">
        <ele>69.6</ele>
        <time>2022-10-06T18:15:36Z</time>
      </trkpt>
      <trkpt lat="10.2740191" lon="-85.6254362">
        <ele>69.7</ele>
        <time>2022-10-06T18:15:37Z</time>
      </trkpt>
      <trkpt lat="10.2739712" lon="-85.6252805">
        <ele>69.7</ele>
        <time>2022-10-06T18:15:38Z</time>
      </trkpt>
      <trkpt lat="10.2739216" lon="-85.6251241">
        <ele>69.7</ele>
        <time>2022-10-06T18:15:39Z</time>
      </trkpt>
      <trkpt lat="10.2738713" lon="-85.6249659">
        <ele>69.7</ele>
        <time>2022-10-06T18:15:40Z</time>
      </trkpt>
      <trkpt lat="10.2738248" lon="-85.6248177">
        <ele>69.6</ele>
        <time>2022-10-06T18:15:41Z</time>
      </trkpt>
      <trkpt lat="10.2737837" lon="-85.6246832">
        <ele>69.5</ele>
        <time>2022-10-06T18:15:42Z</time>
      </trkpt>
      <trkpt lat="10.2737458" lon="-85.6245645">
        <ele>69.5</ele>
        <time>2022-10-06T18:15:43Z</time>
      </trkpt>
      <trkpt lat="10.2737123" lon="-85.6244607">
        <ele>69.3</ele>
        <time>2022-10-06T18:15:44Z</time>
      </trkpt>
      <trkpt lat="10.2736826" lon="-85.6243720">
        <ele>69.1</ele>
        <time>2022-10-06T18:15:45Z</time>
      </trkpt>
      <trkpt lat="10.2736588" lon="-85.6242978">
        <ele>69.0</ele>
        <time>2022-10-06T18:15:46Z</time>
      </trkpt>
      <trkpt lat="10.2736409" lon="-85.6242424">
        <ele>68.9</ele>
        <time>2022-10-06T18:15:47Z</time>
      </trkpt>
      <trkpt lat="10.2736295" lon="-85.6242025">
        <ele>68.8</ele>
        <time>2022-10-06T18:15:48Z</time>
      </trkpt>
      <trkpt lat="10.2736236" lon="-85.6241808">
        <ele>68.9</ele>
        <time>2022-10-06T18:15:49Z</time>
      </trkpt>
      <trkpt lat="10.2736226" lon="-85.6241724">
        <ele>69.0</ele>
        <time>2022-10-06T18:15:50Z</time>
      </trkpt>
      <trkpt lat="10.2736226" lon="-85.6241724">
        <ele>68.9</ele>
        <time>2022-10-06T18:15:51Z</time>
      </trkpt>
      <trkpt lat="10.2736226" lon="-85.6241724">
        <ele>68.9</ele>
        <time>2022-10-06T18:15:52Z</time>
      </trkpt>
      <trkpt lat="10.2736226" lon="-85.6241724">
        <ele>68.9</ele>
        <time>2022-10-06T18:15:53Z</time>
      </trkpt>
      <trkpt lat="10.2736226" lon="-85.6241724">
        <ele>68.9</ele>
        <time>2022-10-06T18:15:54Z</time>
      </trkpt>
      <trkpt lat="10.2736226" lon="-85.6241724">
        <ele>68.8</ele>
        <time>2022-10-06T18:15:55Z</time>
      </trkpt>
      <trkpt lat="10.2736226" lon="-85.6241724">
        <ele>68.7</ele>
        <time>2022-10-06T18:15:56Z</time>
      </trkpt>
      <trkpt lat="10.2736200" lon="-85.6241600">
        <ele>68.7</ele>
        <time>2022-10-06T18:15:57Z</time>
      </trkpt>
      <trkpt lat="10.2736124" lon="-85.6241295">
        <ele>68.7</ele>
        <time>2022-10-06T18:15:58Z</time>
      </trkpt>
      <trkpt lat="10.2735995" lon="-85.6240818">
        <ele>68.5</ele>
        <time>2022-10-06T18:15:59Z</time>
      </trkpt>
      <trkpt lat="10.2735829" lon="-85.6240181">
        <ele>68.5</ele>
        <time>2022-10-06T18:16:00Z</time>
      </trkpt>
      <trkpt lat="10.2735648" lon="-85.6239427">
        <ele>68.5</ele>
        <time>2022-10-06T18:16:01Z</time>
      </trkpt>
      <trkpt lat="10.2735424" lon="-85.6238648">
        <ele>68.3</ele>
        <time>2022-10-06T18:16:02Z</time>
      </trkpt>
      <trkpt lat="10.2735194" lon="-85.6237871">
        <ele>68.3</ele>
        <time>2022-10-06T18:16:03Z</time>
      </trkpt>
      <trkpt lat="10.2734917" lon="-85.6237121">
        <ele>68.4</ele>
        <time>2022-10-06T18:16:04Z</time>
      </trkpt>
      <trkpt lat="10.2734617" lon="-85.6236327">
        <ele>68.6</ele>
        <time>2022-10-06T18:16:05Z</time>
      </trkpt>
      <trkpt lat="10.2734299" lon="-85.6235445">
        <ele>68.7</ele>
        <time>2022-10-06T18:16:06Z</time>
      </trkpt>
      <trkpt lat="10.2733981" lon="-85.6234530">
        <ele>68.7</ele>
        <time>2022-10-06T18:16:07Z</time>
      </trkpt>
      <trkpt lat="10.2733560" lon="-85.6233673">
        <ele>68.9</ele>
        <time>2022-10-06T18:16:08Z</time>
      </trkpt>
      <trkpt lat="10.2733077" lon="-85.6232823">
        <ele>69.2</ele>
        <time>2022-10-06T18:16:09Z</time>
      </trkpt>
      <trkpt lat="10.2732480" lon="-85.6231971">
        <ele>69.5</ele>
        <time>2022-10-06T18:16:10Z</time>
      </trkpt>
      <trkpt lat="10.2731784" lon="-85.6231192">
        <ele>69.7</ele>
        <time>2022-10-06T18:16:11Z</time>
      </trkpt>
      <trkpt lat="10.2731038" lon="-85.6230434">
        <ele>69.9</ele>
        <time>2022-10-06T18:16:12Z</time>
      </trkpt>
      <trkpt lat="10.2730334" lon="-85.6229660">
        <ele>70.5</ele>
        <time>2022-10-06T18:16:13Z</time>
      </trkpt>
      <trkpt lat="10.2729683" lon="-85.6228806">
        <ele>70.9</ele>
        <time>2022-10-06T18:16:14Z</time>
      </trkpt>
      <trkpt lat="10.2729141" lon="-85.6227847">
        <ele>71.2</ele>
        <time>2022-10-06T18:16:15Z</time>
      </trkpt>
      <trkpt lat="10.2728730" lon="-85.6226776">
        <ele>71.6</ele>
        <time>2022-10-06T18:16:16Z</time>
      </trkpt>
      <trkpt lat="10.2728493" lon="-85.6225616">
        <ele>71.8</ele>
        <time>2022-10-06T18:16:17Z</time>
      </trkpt>
      <trkpt lat="10.2728397" lon="-85.6224392">
        <ele>72.0</ele>
        <time>2022-10-06T18:16:18Z</time>
      </trkpt>
      <trkpt lat="10.2728369" lon="-85.6223088">
        <ele>72.0</ele>
        <time>2022-10-06T18:16:19Z</time>
      </trkpt>
      <trkpt lat="10.2728453" lon="-85.6221817">
        <ele>72.3</ele>
        <time>2022-10-06T18:16:20Z</time>
      </trkpt>
      <trkpt lat="10.2728589" lon="-85.6220477">
        <ele>72.7</ele>
        <time>2022-10-06T18:16:21Z</time>
      </trkpt>
      <trkpt lat="10.2728776" lon="-85.6219100">
        <ele>72.9</ele>
        <time>2022-10-06T18:16:22Z</time>
      </trkpt>
      <trkpt lat="10.2729025" lon="-85.6217696">
        <ele>73.0</ele>
        <time>2022-10-06T18:16:23Z</time>
      </trkpt>
      <trkpt lat="10.2729344" lon="-85.6216299">
        <ele>73.0</ele>
        <time>2022-10-06T18:16:24Z</time>
      </trkpt>
      <trkpt lat="10.2729705" lon="-85.6214858">
        <ele>73.1</ele>
        <time>2022-10-06T18:16:25Z</time>
      </trkpt>
      <trkpt lat="10.2730149" lon="-85.6213393">
        <ele>73.0</ele>
        <time>2022-10-06T18:16:26Z</time>
      </trkpt>
      <trkpt lat="10.2730669" lon="-85.6211926">
        <ele>72.9</ele>
        <time>2022-10-06T18:16:27Z</time>
      </trkpt>
      <trkpt lat="10.2731246" lon="-85.6210468">
        <ele>72.8</ele>
        <time>2022-10-06T18:16:28Z</time>
      </trkpt>
      <trkpt lat="10.2731855" lon="-85.6208977">
        <ele>72.8</ele>
        <time>2022-10-06T18:16:29Z</time>
      </trkpt>
      <trkpt lat="10.2732496" lon="-85.6207450">
        <ele>72.8</ele>
        <time>2022-10-06T18:16:30Z</time>
      </trkpt>
      <trkpt lat="10.2733163" lon="-85.6205912">
        <ele>72.7</ele>
        <time>2022-10-06T18:16:31Z</time>
      </trkpt>
      <trkpt lat="10.2733837" lon="-85.6204348">
        <ele>72.6</ele>
        <time>2022-10-06T18:16:32Z</time>
      </trkpt>
      <trkpt lat="10.2734507" lon="-85.6202788">
        <ele>72.5</ele>
        <time>2022-10-06T18:16:33Z</time>
      </trkpt>
      <trkpt lat="10.2735185" lon="-85.6201249">
        <ele>72.4</ele>
        <time>2022-10-06T18:16:34Z</time>
      </trkpt>
      <trkpt lat="10.2735864" lon="-85.6199687">
        <ele>72.4</ele>
        <time>2022-10-06T18:16:35Z</time>
      </trkpt>
      <trkpt lat="10.2736537" lon="-85.6198114">
        <ele>72.3</ele>
        <time>2022-10-06T18:16:36Z</time>
      </trkpt>
      <trkpt lat="10.2737216" lon="-85.6196462">
        <ele>72.2</ele>
        <time>2022-10-06T18:16:37Z</time>
      </trkpt>
      <trkpt lat="10.2737911" lon="-85.6194781">
        <ele>72.1</ele>
        <time>2022-10-06T18:16:38Z</time>
      </trkpt>
      <trkpt lat="10.2738577" lon="-85.6193087">
        <ele>72.2</ele>
        <time>2022-10-06T18:16:39Z</time>
      </trkpt>
      <trkpt lat="10.2739215" lon="-85.6191362">
        <ele>72.0</ele>
        <time>2022-10-06T18:16:40Z</time>
      </trkpt>
      <trkpt lat="10.2739813" lon="-85.6189613">
        <ele>72.0</ele>
        <time>2022-10-06T18:16:41Z</time>
      </trkpt>
      <trkpt lat="10.2740388" lon="-85.6187836">
        <ele>71.9</ele>
        <time>2022-10-06T18:16:42Z</time>
      </trkpt>
      <trkpt lat="10.2740945" lon="-85.6186015">
        <ele>71.7</ele>
        <time>2022-10-06T18:16:43Z</time>
      </trkpt>
      <trkpt lat="10.2741499" lon="-85.6184187">
        <ele>71.7</ele>
        <time>2022-10-06T18:16:44Z</time>
      </trkpt>
      <trkpt lat="10.2742046" lon="-85.6182380">
        <ele>71.5</ele>
        <time>2022-10-06T18:16:45Z</time>
      </trkpt>
      <trkpt lat="10.2742592" lon="-85.6180609">
        <ele>71.4</ele>
        <time>2022-10-06T18:16:46Z</time>
      </trkpt>
      <trkpt lat="10.2743142" lon="-85.6178824">
        <ele>71.3</ele>
        <time>2022-10-06T18:16:47Z</time>
      </trkpt>
      <trkpt lat="10.2743690" lon="-85.6177009">
        <ele>71.2</ele>
        <time>2022-10-06T18:16:48Z</time>
      </trkpt>
      <trkpt lat="10.2744224" lon="-85.6175204">
        <ele>70.9</ele>
        <time>2022-10-06T18:16:49Z</time>
      </trkpt>
      <trkpt lat="10.2744757" lon="-85.6173379">
        <ele>70.8</ele>
        <time>2022-10-06T18:16:50Z</time>
      </trkpt>
      <trkpt lat="10.2745290" lon="-85.6171523">
        <ele>70.7</ele>
        <time>2022-10-06T18:16:51Z</time>
      </trkpt>
      <trkpt lat="10.2745837" lon="-85.6169664">
        <ele>70.8</ele>
        <time>2022-10-06T18:16:52Z</time>
      </trkpt>
      <trkpt lat="10.2746399" lon="-85.6167775">
        <ele>71.0</ele>
        <time>2022-10-06T18:16:53Z</time>
      </trkpt>
      <trkpt lat="10.2746962" lon="-85.6165878">
        <ele>71.2</ele>
        <time>2022-10-06T18:16:54Z</time>
      </trkpt>
      <trkpt lat="10.2747503" lon="-85.6163996">
        <ele>71.8</ele>
        <time>2022-10-06T18:16:55Z</time>
      </trkpt>
      <trkpt lat="10.2748062" lon="-85.6162065">
        <ele>72.4</ele>
        <time>2022-10-06T18:16:56Z</time>
      </trkpt>
      <trkpt lat="10.2748624" lon="-85.6160151">
        <ele>72.6</ele>
        <time>2022-10-06T18:16:57Z</time>
      </trkpt>
      <trkpt lat="10.2749158" lon="-85.6158216">
        <ele>73.3</ele>
        <time>2022-10-06T18:16:58Z</time>
      </trkpt>
      <trkpt lat="10.2749634" lon="-85.6156314">
        <ele>74.4</ele>
        <time>2022-10-06T18:16:59Z</time>
      </trkpt>
      <trkpt lat="10.2750005" lon="-85.6154486">
        <ele>75.6</ele>
        <time>2022-10-06T18:17:00Z</time>
      </trkpt>
      <trkpt lat="10.2750235" lon="-85.6152754">
        <ele>76.9</ele>
        <time>2022-10-06T18:17:01Z</time>
      </trkpt>
      <trkpt lat="10.2750281" lon="-85.6151096">
        <ele>77.9</ele>
        <time>2022-10-06T18:17:02Z</time>
      </trkpt>
      <trkpt lat="10.2750091" lon="-85.6149488">
        <ele>78.7</ele>
        <time>2022-10-06T18:17:03Z</time>
      </trkpt>
      <trkpt lat="10.2749810" lon="-85.6147914">
        <ele>79.2</ele>
        <time>2022-10-06T18:17:04Z</time>
      </trkpt>
      <trkpt lat="10.2749554" lon="-85.6146318">
        <ele>79.1</ele>
        <time>2022-10-06T18:17:05Z</time>
      </trkpt>
      <trkpt lat="10.2749355" lon="-85.6144681">
        <ele>78.8</ele>
        <time>2022-10-06T18:17:06Z</time>
      </trkpt>
      <trkpt lat="10.2749193" lon="-85.6143042">
        <ele>78.6</ele>
        <time>2022-10-06T18:17:07Z</time>
      </trkpt>
      <trkpt lat="10.2749038" lon="-85.6141409">
        <ele>78.5</ele>
        <time>2022-10-06T18:17:08Z</time>
      </trkpt>
      <trkpt lat="10.2748864" lon="-85.6139824">
        <ele>78.5</ele>
        <time>2022-10-06T18:17:09Z</time>
      </trkpt>
      <trkpt lat="10.2748644" lon="-85.6138223">
        <ele>78.4</ele>
        <time>2022-10-06T18:17:10Z</time>
      </trkpt>
      <trkpt lat="10.2748346" lon="-85.6136611">
        <ele>78.4</ele>
        <time>2022-10-06T18:17:11Z</time>
      </trkpt>
      <trkpt lat="10.2747954" lon="-85.6134997">
        <ele>78.3</ele>
        <time>2022-10-06T18:17:12Z</time>
      </trkpt>
      <trkpt lat="10.2747424" lon="-85.6133385">
        <ele>78.2</ele>
        <time>2022-10-06T18:17:13Z</time>
      </trkpt>
      <trkpt lat="10.2746816" lon="-85.6131785">
        <ele>77.9</ele>
        <time>2022-10-06T18:17:14Z</time>
      </trkpt>
      <trkpt lat="10.2746151" lon="-85.6130192">
        <ele>77.6</ele>
        <time>2022-10-06T18:17:15Z</time>
      </trkpt>
      <trkpt lat="10.2745449" lon="-85.6128602">
        <ele>77.4</ele>
        <time>2022-10-06T18:17:16Z</time>
      </trkpt>
      <trkpt lat="10.2744648" lon="-85.6127045">
        <ele>77.1</ele>
        <time>2022-10-06T18:17:17Z</time>
      </trkpt>
      <trkpt lat="10.2743691" lon="-85.6125506">
        <ele>76.4</ele>
        <time>2022-10-06T18:17:18Z</time>
      </trkpt>
      <trkpt lat="10.2742575" lon="-85.6123964">
        <ele>76.2</ele>
        <time>2022-10-06T18:17:19Z</time>
      </trkpt>
      <trkpt lat="10.2741342" lon="-85.6122443">
        <ele>75.8</ele>
        <time>2022-10-06T18:17:20Z</time>
      </trkpt>
      <trkpt lat="10.2740042" lon="-85.6120933">
        <ele>75.6</ele>
        <time>2022-10-06T18:17:21Z</time>
      </trkpt>
      <trkpt lat="10.2738720" lon="-85.6119402">
        <ele>75.5</ele>
        <time>2022-10-06T18:17:22Z</time>
      </trkpt>
      <trkpt lat="10.2737405" lon="-85.6117912">
        <ele>75.6</ele>
        <time>2022-10-06T18:17:23Z</time>
      </trkpt>
      <trkpt lat="10.2736103" lon="-85.6116454">
        <ele>75.7</ele>
        <time>2022-10-06T18:17:24Z</time>
      </trkpt>
      <trkpt lat="10.2734812" lon="-85.6115014">
        <ele>76.0</ele>
        <time>2022-10-06T18:17:25Z</time>
      </trkpt>
      <trkpt lat="10.2733564" lon="-85.6113594">
        <ele>76.2</ele>
        <time>2022-10-06T18:17:26Z</time>
      </trkpt>
      <trkpt lat="10.2732325" lon="-85.6112174">
        <ele>76.3</ele>
        <time>2022-10-06T18:17:27Z</time>
      </trkpt>
      <trkpt lat="10.2731113" lon="-85.6110772">
        <ele>76.8</ele>
        <time>2022-10-06T18:17:28Z</time>
      </trkpt>
      <trkpt lat="10.2729914" lon="-85.6109338">
        <ele>77.4</ele>
        <time>2022-10-06T18:17:29Z</time>
      </trkpt>
      <trkpt lat="10.2728690" lon="-85.6107908">
        <ele>77.8</ele>
        <time>2022-10-06T18:17:30Z</time>
      </trkpt>
      <trkpt lat="10.2727450" lon="-85.6106493">
        <ele>78.4</ele>
        <time>2022-10-06T18:17:31Z</time>
      </trkpt>
      <trkpt lat="10.2726235" lon="-85.6105104">
        <ele>79.1</ele>
        <time>2022-10-06T18:17:32Z</time>
      </trkpt>
      <trkpt lat="10.2725050" lon="-85.6103756">
        <ele>79.7</ele>
        <time>2022-10-06T18:17:33Z</time>
      </trkpt>
      <trkpt lat="10.2723887" lon="-85.6102499">
        <ele>80.4</ele>
        <time>2022-10-06T18:17:34Z</time>
      </trkpt>
      <trkpt lat="10.2722688" lon="-85.6101359">
        <ele>81.1</ele>
        <time>2022-10-06T18:17:35Z</time>
      </trkpt>
      <trkpt lat="10.2721434" lon="-85.6100294">
        <ele>81.4</ele>
        <time>2022-10-06T18:17:36Z</time>
      </trkpt>
      <trkpt lat="10.2720089" lon="-85.6099319">
        <ele>81.7</ele>
        <time>2022-10-06T18:17:37Z</time>
      </trkpt>
      <trkpt lat="10.2718707" lon="-85.6098422">
        <ele>81.3</ele>
        <time>2022-10-06T18:17:38Z</time>
      </trkpt>
      <trkpt lat="10.2717280" lon="-85.6097538">
        <ele>80.9</ele>
        <time>2022-10-06T18:17:39Z</time>
      </trkpt>
      <trkpt lat="10.2715819" lon="-85.6096631">
        <ele>80.5</ele>
        <time>2022-10-06T18:17:40Z</time>
      </trkpt>
      <trkpt lat="10.2714357" lon="-85.6095694">
        <ele>80.2</ele>
        <time>2022-10-06T18:17:41Z</time>
      </trkpt>
      <trkpt lat="10.2712910" lon="-85.6094698">
        <ele>80.0</ele>
        <time>2022-10-06T18:17:42Z</time>
      </trkpt>
      <trkpt lat="10.2711457" lon="-85.6093621">
        <ele>79.9</ele>
        <time>2022-10-06T18:17:43Z</time>
      </trkpt>
      <trkpt lat="10.2710040" lon="-85.6092440">
        <ele>80.0</ele>
        <time>2022-10-06T18:17:44Z</time>
      </trkpt>
      <trkpt lat="10.2708704" lon="-85.6091175">
        <ele>80.0</ele>
        <time>2022-10-06T18:17:45Z</time>
      </trkpt>
      <trkpt lat="10.2707463" lon="-85.6089818">
        <ele>79.9</ele>
        <time>2022-10-06T18:17:46Z</time>
      </trkpt>
      <trkpt lat="10.2706293" lon="-85.6088366">
        <ele>80.0</ele>
        <time>2022-10-06T18:17:47Z</time>
      </trkpt>
      <trkpt lat="10.2705210" lon="-85.6086798">
        <ele>80.2</ele>
        <time>2022-10-06T18:17:48Z</time>
      </trkpt>
      <trkpt lat="10.2704259" lon="-85.6085120">
        <ele>80.3</ele>
        <time>2022-10-06T18:17:49Z</time>
      </trkpt>
      <trkpt lat="10.2703423" lon="-85.6083364">
        <ele>80.3</ele>
        <time>2022-10-06T18:17:50Z</time>
      </trkpt>
      <trkpt lat="10.2702659" lon="-85.6081579">
        <ele>80.4</ele>
        <time>2022-10-06T18:17:51Z</time>
      </trkpt>
      <trkpt lat="10.2702083" lon="-85.6079696">
        <ele>80.3</ele>
        <time>2022-10-06T18:17:52Z</time>
      </trkpt>
      <trkpt lat="10.2701597" lon="-85.6077796">
        <ele>80.2</ele>
        <time>2022-10-06T18:17:53Z</time>
      </trkpt>
      <trkpt lat="10.2701208" lon="-85.6075858">
        <ele>80.1</ele>
        <time>2022-10-06T18:17:54Z</time>
      </trkpt>
      <trkpt lat="10.2700986" lon="-85.6073904">
        <ele>80.0</ele>
        <time>2022-10-06T18:17:55Z</time>
      </trkpt>
      <trkpt lat="10.2700922" lon="-85.6071937">
        <ele>79.9</ele>
        <time>2022-10-06T18:17:56Z</time>
      </trkpt>
      <trkpt lat="10.2700931" lon="-85.6069942">
        <ele>80.0</ele>
        <time>2022-10-06T18:17:57Z</time>
      </trkpt>
      <trkpt lat="10.2700937" lon="-85.6067996">
        <ele>80.0</ele>
        <time>2022-10-06T18:17:58Z</time>
      </trkpt>
      <trkpt lat="10.2700942" lon="-85.6066078">
        <ele>80.0</ele>
        <time>2022-10-06T18:17:59Z</time>
      </trkpt>
      <trkpt lat="10.2700956" lon="-85.6064236">
        <ele>79.8</ele>
        <time>2022-10-06T18:18:00Z</time>
      </trkpt>
      <trkpt lat="10.2700941" lon="-85.6062445">
        <ele>79.5</ele>
        <time>2022-10-06T18:18:01Z</time>
      </trkpt>
      <trkpt lat="10.2700930" lon="-85.6060700">
        <ele>79.5</ele>
        <time>2022-10-06T18:18:02Z</time>
      </trkpt>
      <trkpt lat="10.2700930" lon="-85.6059019">
        <ele>79.2</ele>
        <time>2022-10-06T18:18:03Z</time>
      </trkpt>
      <trkpt lat="10.2700923" lon="-85.6057416">
        <ele>79.2</ele>
        <time>2022-10-06T18:18:04Z</time>
      </trkpt>
      <trkpt lat="10.2700937" lon="-85.6055837">
        <ele>79.1</ele>
        <time>2022-10-06T18:18:05Z</time>
      </trkpt>
      <trkpt lat="10.2700956" lon="-85.6054283">
        <ele>78.9</ele>
        <time>2022-10-06T18:18:06Z</time>
      </trkpt>
      <trkpt lat="10.2700970" lon="-85.6052734">
        <ele>78.6</ele>
        <time>2022-10-06T18:18:07Z</time>
      </trkpt>
      <trkpt lat="10.2700985" lon="-85.6051197">
        <ele>78.5</ele>
        <time>2022-10-06T18:18:08Z</time>
      </trkpt>
      <trkpt lat="10.2701010" lon="-85.6049618">
        <ele>78.5</ele>
        <time>2022-10-06T18:18:09Z</time>
      </trkpt>
      <trkpt lat="10.2701015" lon="-85.6048015">
        <ele>78.6</ele>
        <time>2022-10-06T18:18:10Z</time>
      </trkpt>
      <trkpt lat="10.2700985" lon="-85.6046433">
        <ele>78.6</ele>
        <time>2022-10-06T18:18:11Z</time>
      </trkpt>
      <trkpt lat="10.2700928" lon="-85.6044878">
        <ele>78.5</ele>
        <time>2022-10-06T18:18:12Z</time>
      </trkpt>
      <trkpt lat="10.2700802" lon="-85.6043332">
        <ele>78.5</ele>
        <time>2022-10-06T18:18:13Z</time>
      </trkpt>
      <trkpt lat="10.2700644" lon="-85.6041820">
        <ele>78.6</ele>
        <time>2022-10-06T18:18:14Z</time>
      </trkpt>
      <trkpt lat="10.2700443" lon="-85.6040324">
        <ele>78.6</ele>
        <time>2022-10-06T18:18:15Z</time>
      </trkpt>
      <trkpt lat="10.2700196" lon="-85.6038812">
        <ele>78.6</ele>
        <time>2022-10-06T18:18:16Z</time>
      </trkpt>
      <trkpt lat="10.2699912" lon="-85.6037308">
        <ele>78.6</ele>
        <time>2022-10-06T18:18:17Z</time>
      </trkpt>
      <trkpt lat="10.2699567" lon="-85.6035853">
        <ele>78.6</ele>
        <time>2022-10-06T18:18:18Z</time>
      </trkpt>
      <trkpt lat="10.2699176" lon="-85.6034346">
        <ele>78.7</ele>
        <time>2022-10-06T18:18:19Z</time>
      </trkpt>
      <trkpt lat="10.2698722" lon="-85.6032845">
        <ele>78.3</ele>
        <time>2022-10-06T18:18:20Z</time>
      </trkpt>
      <trkpt lat="10.2698214" lon="-85.6031370">
        <ele>78.3</ele>
        <time>2022-10-06T18:18:21Z</time>
      </trkpt>
      <trkpt lat="10.2697683" lon="-85.6029938">
        <ele>78.2</ele>
        <time>2022-10-06T18:18:22Z</time>
      </trkpt>
      <trkpt lat="10.2697158" lon="-85.6028548">
        <ele>78.2</ele>
        <time>2022-10-06T18:18:23Z</time>
      </trkpt>
      <trkpt lat="10.2696622" lon="-85.6027143">
        <ele>78.2</ele>
        <time>2022-10-06T18:18:24Z</time>
      </trkpt>
      <trkpt lat="10.2696093" lon="-85.6025752">
        <ele>78.2</ele>
        <time>2022-10-06T18:18:25Z</time>
      </trkpt>
      <trkpt lat="10.2695554" lon="-85.6024365">
        <ele>78.1</ele>
        <time>2022-10-06T18:18:26Z</time>
      </trkpt>
      <trkpt lat="10.2695023" lon="-85.6022944">
        <ele>77.9</ele>
        <time>2022-10-06T18:18:27Z</time>
      </trkpt>
      <trkpt lat="10.2694484" lon="-85.6021534">
        <ele>78.1</ele>
        <time>2022-10-06T18:18:28Z</time>
      </trkpt>
      <trkpt lat="10.2693933" lon="-85.6020124">
        <ele>78.2</ele>
        <time>2022-10-06T18:18:29Z</time>
      </trkpt>
      <trkpt lat="10.2693409" lon="-85.6018733">
        <ele>78.2</ele>
        <time>2022-10-06T18:18:30Z</time>
      </trkpt>
      <trkpt lat="10.2692889" lon="-85.6017364">
        <ele>78.1</ele>
        <time>2022-10-06T18:18:31Z</time>
      </trkpt>
      <trkpt lat="10.2692386" lon="-85.6016031">
        <ele>78.0</ele>
        <time>2022-10-06T18:18:32Z</time>
      </trkpt>
      <trkpt lat="10.2691884" lon="-85.6014712">
        <ele>78.0</ele>
        <time>2022-10-06T18:18:33Z</time>
      </trkpt>
      <trkpt lat="10.2691387" lon="-85.6013417">
        <ele>77.9</ele>
        <time>2022-10-06T18:18:34Z</time>
      </trkpt>
      <trkpt lat="10.2690897" lon="-85.6012164">
        <ele>77.9</ele>
        <time>2022-10-06T18:18:35Z</time>
      </trkpt>
      <trkpt lat="10.2690416" lon="-85.6010911">
        <ele>77.8</ele>
        <time>2022-10-06T18:18:36Z</time>
      </trkpt>
      <trkpt lat="10.2689960" lon="-85.6009755">
        <ele>77.8</ele>
        <time>2022-10-06T18:18:37Z</time>
      </trkpt>
      <trkpt lat="10.2689510" lon="-85.6008611">
        <ele>77.8</ele>
        <time>2022-10-06T18:18:38Z</time>
      </trkpt>
      <trkpt lat="10.2689163" lon="-85.6007552">
        <ele>77.7</ele>
        <time>2022-10-06T18:18:39Z</time>
      </trkpt>
      <trkpt lat="10.2688979" lon="-85.6006515">
        <ele>77.5</ele>
        <time>2022-10-06T18:18:40Z</time>
      </trkpt>
      <trkpt lat="10.2689004" lon="-85.6005514">
        <ele>77.4</ele>
        <time>2022-10-06T18:18:41Z</time>
      </trkpt>
      <trkpt lat="10.2689152" lon="-85.6004584">
        <ele>77.1</ele>
        <time>2022-10-06T18:18:42Z</time>
      </trkpt>
      <trkpt lat="10.2689579" lon="-85.6003672">
        <ele>77.1</ele>
        <time>2022-10-06T18:18:43Z</time>
      </trkpt>
      <trkpt lat="10.2690308" lon="-85.6002891">
        <ele>77.0</ele>
        <time>2022-10-06T18:18:44Z</time>
      </trkpt>
      <trkpt lat="10.2691146" lon="-85.6002156">
        <ele>77.6</ele>
        <time>2022-10-06T18:18:45Z</time>
      </trkpt>
      <trkpt lat="10.2692014" lon="-85.6001304">
        <ele>77.4</ele>
        <time>2022-10-06T18:18:46Z</time>
      </trkpt>
      <trkpt lat="10.2692923" lon="-85.6000436">
        <ele>77.3</ele>
        <time>2022-10-06T18:18:47Z</time>
      </trkpt>
      <trkpt lat="10.2693850" lon="-85.5999545">
        <ele>77.1</ele>
        <time>2022-10-06T18:18:48Z</time>
      </trkpt>
      <trkpt lat="10.2694811" lon="-85.5998646">
        <ele>77.1</ele>
        <time>2022-10-06T18:18:49Z</time>
      </trkpt>
      <trkpt lat="10.2695779" lon="-85.5997700">
        <ele>76.9</ele>
        <time>2022-10-06T18:18:50Z</time>
      </trkpt>
      <trkpt lat="10.2696761" lon="-85.5996741">
        <ele>76.6</ele>
        <time>2022-10-06T18:18:51Z</time>
      </trkpt>
      <trkpt lat="10.2697730" lon="-85.5995794">
        <ele>76.4</ele>
        <time>2022-10-06T18:18:52Z</time>
      </trkpt>
      <trkpt lat="10.2698703" lon="-85.5994830">
        <ele>76.3</ele>
        <time>2022-10-06T18:18:53Z</time>
      </trkpt>
      <trkpt lat="10.2699629" lon="-85.5993879">
        <ele>76.1</ele>
        <time>2022-10-06T18:18:54Z</time>
      </trkpt>
      <trkpt lat="10.2700491" lon="-85.5992966">
        <ele>75.9</ele>
        <time>2022-10-06T18:18:55Z</time>
      </trkpt>
      <trkpt lat="10.2701198" lon="-85.5992042">
        <ele>75.5</ele>
        <time>2022-10-06T18:18:56Z</time>
      </trkpt>
      <trkpt lat="10.2701700" lon="-85.5991012">
        <ele>75.5</ele>
        <time>2022-10-06T18:18:57Z</time>
      </trkpt>
      <trkpt lat="10.2702117" lon="-85.5989873">
        <ele>75.3</ele>
        <time>2022-10-06T18:18:58Z</time>
      </trkpt>
      <trkpt lat="10.2702288" lon="-85.5988668">
        <ele>75.3</ele>
        <time>2022-10-06T18:18:59Z</time>
      </trkpt>
      <trkpt lat="10.2702426" lon="-85.5987454">
        <ele>75.1</ele>
        <time>2022-10-06T18:19:00Z</time>
      </trkpt>
      <trkpt lat="10.2702567" lon="-85.5986201">
        <ele>75.1</ele>
        <time>2022-10-06T18:19:01Z</time>
      </trkpt>
      <trkpt lat="10.2702708" lon="-85.5984956">
        <ele>74.9</ele>
        <time>2022-10-06T18:19:02Z</time>
      </trkpt>
      <trkpt lat="10.2702853" lon="-85.5983699">
        <ele>74.9</ele>
        <time>2022-10-06T18:19:03Z</time>
      </trkpt>
      <trkpt lat="10.2702989" lon="-85.5982480">
        <ele>74.7</ele>
        <time>2022-10-06T18:19:04Z</time>
      </trkpt>
      <trkpt lat="10.2703140" lon="-85.5981263">
        <ele>74.5</ele>
        <time>2022-10-06T18:19:05Z</time>
      </trkpt>
      <trkpt lat="10.2703281" lon="-85.5980030">
        <ele>74.4</ele>
        <time>2022-10-06T18:19:06Z</time>
      </trkpt>
      <trkpt lat="10.2703432" lon="-85.5978802">
        <ele>74.2</ele>
        <time>2022-10-06T18:19:07Z</time>
      </trkpt>
      <trkpt lat="10.2703603" lon="-85.5977558">
        <ele>74.1</ele>
        <time>2022-10-06T18:19:08Z</time>
      </trkpt>
      <trkpt lat="10.2703739" lon="-85.5976309">
        <ele>74.0</ele>
        <time>2022-10-06T18:19:09Z</time>
      </trkpt>
      <trkpt lat="10.2703824" lon="-85.5975072">
        <ele>73.7</ele>
        <time>2022-10-06T18:19:10Z</time>
      </trkpt>
      <trkpt lat="10.2703825" lon="-85.5973855">
        <ele>73.8</ele>
        <time>2022-10-06T18:19:11Z</time>
      </trkpt>
      <trkpt lat="10.2703736" lon="-85.5972632">
        <ele>74.0</ele>
        <time>2022-10-06T18:19:12Z</time>
      </trkpt>
      <trkpt lat="10.2703707" lon="-85.5971404">
        <ele>73.9</ele>
        <time>2022-10-06T18:19:13Z</time>
      </trkpt>
      <trkpt lat="10.2703783" lon="-85.5970184">
        <ele>73.7</ele>
        <time>2022-10-06T18:19:14Z</time>
      </trkpt>
      <trkpt lat="10.2703896" lon="-85.5968927">
        <ele>73.6</ele>
        <time>2022-10-06T18:19:15Z</time>
      </trkpt>
      <trkpt lat="10.2704021" lon="-85.5967668">
        <ele>73.6</ele>
        <time>2022-10-06T18:19:16Z</time>
      </trkpt>
      <trkpt lat="10.2704139" lon="-85.5966391">
        <ele>73.5</ele>
        <time>2022-10-06T18:19:17Z</time>
      </trkpt>
      <trkpt lat="10.2704280" lon="-85.5965138">
        <ele>73.4</ele>
        <time>2022-10-06T18:19:18Z</time>
      </trkpt>
      <trkpt lat="10.2704415" lon="-85.5963853">
        <ele>73.1</ele>
        <time>2022-10-06T18:19:19Z</time>
      </trkpt>
      <trkpt lat="10.2704562" lon="-85.5962555">
        <ele>72.9</ele>
        <time>2022-10-06T18:19:20Z</time>
      </trkpt>
      <trkpt lat="10.2704713" lon="-85.5961274">
        <ele>72.9</ele>
        <time>2022-10-06T18:19:21Z</time>
      </trkpt>
      <trkpt lat="10.2704840" lon="-85.5959971">
        <ele>72.7</ele>
        <time>2022-10-06T18:19:22Z</time>
      </trkpt>
      <trkpt lat="10.2704972" lon="-85.5958684">
        <ele>72.6</ele>
        <time>2022-10-06T18:19:23Z</time>
      </trkpt>
      <trkpt lat="10.2705105" lon="-85.5957398">
        <ele>72.4</ele>
        <time>2022-10-06T18:19:24Z</time>
      </trkpt>
      <trkpt lat="10.2705247" lon="-85.5956095">
        <ele>72.3</ele>
        <time>2022-10-06T18:19:25Z</time>
      </trkpt>
      <trkpt lat="10.2705393" lon="-85.5954799">
        <ele>72.1</ele>
        <time>2022-10-06T18:19:26Z</time>
      </trkpt>
      <trkpt lat="10.2705548" lon="-85.5953516">
        <ele>72.0</ele>
        <time>2022-10-06T18:19:27Z</time>
      </trkpt>
      <trkpt lat="10.2705712" lon="-85.5952227">
        <ele>72.0</ele>
        <time>2022-10-06T18:19:28Z</time>
      </trkpt>
      <trkpt lat="10.2705870" lon="-85.5950929">
        <ele>71.9</ele>
        <time>2022-10-06T18:19:29Z</time>
      </trkpt>
      <trkpt lat="10.2706025" lon="-85.5949641">
        <ele>71.9</ele>
        <time>2022-10-06T18:19:30Z</time>
      </trkpt>
      <trkpt lat="10.2706175" lon="-85.5948369">
        <ele>71.8</ele>
        <time>2022-10-06T18:19:31Z</time>
      </trkpt>
      <trkpt lat="10.2706291" lon="-85.5947118">
        <ele>71.8</ele>
        <time>2022-10-06T18:19:32Z</time>
      </trkpt>
      <trkpt lat="10.2706363" lon="-85.5945840">
        <ele>71.6</ele>
        <time>2022-10-06T18:19:33Z</time>
      </trkpt>
      <trkpt lat="10.2706403" lon="-85.5944550">
        <ele>71.5</ele>
        <time>2022-10-06T18:19:34Z</time>
      </trkpt>
      <trkpt lat="10.2706418" lon="-85.5943231">
        <ele>71.5</ele>
        <time>2022-10-06T18:19:35Z</time>
      </trkpt>
      <trkpt lat="10.2706419" lon="-85.5941877">
        <ele>71.5</ele>
        <time>2022-10-06T18:19:36Z</time>
      </trkpt>
      <trkpt lat="10.2706403" lon="-85.5940492">
        <ele>71.5</ele>
        <time>2022-10-06T18:19:37Z</time>
      </trkpt>
      <trkpt lat="10.2706375" lon="-85.5939081">
        <ele>71.5</ele>
        <time>2022-10-06T18:19:38Z</time>
      </trkpt>
      <trkpt lat="10.2706353" lon="-85.5937665">
        <ele>71.5</ele>
        <time>2022-10-06T18:19:39Z</time>
      </trkpt>
      <trkpt lat="10.2706324" lon="-85.5936212">
        <ele>71.6</ele>
        <time>2022-10-06T18:19:40Z</time>
      </trkpt>
      <trkpt lat="10.2706283" lon="-85.5934764">
        <ele>71.5</ele>
        <time>2022-10-06T18:19:41Z</time>
      </trkpt>
      <trkpt lat="10.2706246" lon="-85.5933318">
        <ele>71.4</ele>
        <time>2022-10-06T18:19:42Z</time>
      </trkpt>
      <trkpt lat="10.2706205" lon="-85.5931903">
        <ele>71.3</ele>
        <time>2022-10-06T18:19:43Z</time>
      </trkpt>
      <trkpt lat="10.2706144" lon="-85.5930518">
        <ele>71.5</ele>
        <time>2022-10-06T18:19:44Z</time>
      </trkpt>
      <trkpt lat="10.2706029" lon="-85.5929148">
        <ele>71.5</ele>
        <time>2022-10-06T18:19:45Z</time>
      </trkpt>
      <trkpt lat="10.2705882" lon="-85.5927793">
        <ele>71.3</ele>
        <time>2022-10-06T18:19:46Z</time>
      </trkpt>
      <trkpt lat="10.2705717" lon="-85.5926439">
        <ele>71.3</ele>
        <time>2022-10-06T18:19:47Z</time>
      </trkpt>
      <trkpt lat="10.2705533" lon="-85.5925089">
        <ele>71.1</ele>
        <time>2022-10-06T18:19:48Z</time>
      </trkpt>
      <trkpt lat="10.2705350" lon="-85.5923728">
        <ele>71.2</ele>
        <time>2022-10-06T18:19:49Z</time>
      </trkpt>
      <trkpt lat="10.2705211" lon="-85.5922430">
        <ele>71.2</ele>
        <time>2022-10-06T18:19:50Z</time>
      </trkpt>
      <trkpt lat="10.2705227" lon="-85.5921108">
        <ele>71.4</ele>
        <time>2022-10-06T18:19:51Z</time>
      </trkpt>
      <trkpt lat="10.2705451" lon="-85.5919809">
        <ele>71.5</ele>
        <time>2022-10-06T18:19:52Z</time>
      </trkpt>
      <trkpt lat="10.2705792" lon="-85.5918559">
        <ele>71.4</ele>
        <time>2022-10-06T18:19:53Z</time>
      </trkpt>
      <trkpt lat="10.2706114" lon="-85.5917341">
        <ele>71.2</ele>
        <time>2022-10-06T18:19:54Z</time>
      </trkpt>
      <trkpt lat="10.2706288" lon="-85.5916147">
        <ele>71.1</ele>
        <time>2022-10-06T18:19:55Z</time>
      </trkpt>
      <trkpt lat="10.2706255" lon="-85.5914973">
        <ele>71.1</ele>
        <time>2022-10-06T18:19:56Z</time>
      </trkpt>
      <trkpt lat="10.2706132" lon="-85.5913779">
        <ele>71.0</ele>
        <time>2022-10-06T18:19:57Z</time>
      </trkpt>
      <trkpt lat="10.2705706" lon="-85.5912653">
        <ele>71.3</ele>
        <time>2022-10-06T18:19:58Z</time>
      </trkpt>
      <trkpt lat="10.2705169" lon="-85.5911552">
        <ele>71.4</ele>
        <time>2022-10-06T18:19:59Z</time>
      </trkpt>
      <trkpt lat="10.2704560" lon="-85.5910509">
        <ele>71.4</ele>
        <time>2022-10-06T18:20:00Z</time>
      </trkpt>
      <trkpt lat="10.2703954" lon="-85.5909479">
        <ele>71.4</ele>
        <time>2022-10-06T18:20:01Z</time>
      </trkpt>
      <trkpt lat="10.2703394" lon="-85.5908428">
        <ele>71.3</ele>
        <time>2022-10-06T18:20:02Z</time>
      </trkpt>
      <trkpt lat="10.2702887" lon="-85.5907417">
        <ele>71.4</ele>
        <time>2022-10-06T18:20:03Z</time>
      </trkpt>
      <trkpt lat="10.2702441" lon="-85.5906401">
        <ele>71.3</ele>
        <time>2022-10-06T18:20:04Z</time>
      </trkpt>
      <trkpt lat="10.2702056" lon="-85.5905436">
        <ele>71.2</ele>
        <time>2022-10-06T18:20:05Z</time>
      </trkpt>
      <trkpt lat="10.2701798" lon="-85.5904483">
        <ele>71.2</ele>
        <time>2022-10-06T18:20:06Z</time>
      </trkpt>
      <trkpt lat="10.2701698" lon="-85.5903472">
        <ele>71.0</ele>
        <time>2022-10-06T18:20:07Z</time>
      </trkpt>
      <trkpt lat="10.2701728" lon="-85.5902495">
        <ele>70.9</ele>
        <time>2022-10-06T18:20:08Z</time>
      </trkpt>
      <trkpt lat="10.2702067" lon="-85.5901597">
        <ele>70.9</ele>
        <time>2022-10-06T18:20:09Z</time>
      </trkpt>
      <trkpt lat="10.2702845" lon="-85.5900815">
        <ele>71.0</ele>
        <time>2022-10-06T18:20:10Z</time>
      </trkpt>
      <trkpt lat="10.2703578" lon="-85.5900085">
        <ele>70.8</ele>
        <time>2022-10-06T18:20:11Z</time>
      </trkpt>
      <trkpt lat="10.2704292" lon="-85.5899387">
        <ele>70.8</ele>
        <time>2022-10-06T18:20:12Z</time>
      </trkpt>
      <trkpt lat="10.2705008" lon="-85.5898616">
        <ele>70.7</ele>
        <time>2022-10-06T18:20:13Z</time>
      </trkpt>
      <trkpt lat="10.2705671" lon="-85.5897860">
        <ele>70.7</ele>
        <time>2022-10-06T18:20:14Z</time>
      </trkpt>
      <trkpt lat="10.2706315" lon="-85.5897129">
        <ele>70.6</ele>
        <time>2022-10-06T18:20:15Z</time>
      </trkpt>
      <trkpt lat="10.2706967" lon="-85.5896464">
        <ele>70.6</ele>
        <time>2022-10-06T18:20:16Z</time>
      </trkpt>
      <trkpt lat="10.2707635" lon="-85.5895900">
        <ele>70.6</ele>
        <time>2022-10-06T18:20:17Z</time>
      </trkpt>
      <trkpt lat="10.2708210" lon="-85.5895486">
        <ele>70.5</ele>
        <time>2022-10-06T18:20:18Z</time>
      </trkpt>
      <trkpt lat="10.2708601" lon="-85.5895257">
        <ele>70.4</ele>
        <time>2022-10-06T18:20:19Z</time>
      </trkpt>
      <trkpt lat="10.2708860" lon="-85.5895105">
        <ele>70.3</ele>
        <time>2022-10-06T18:20:20Z</time>
      </trkpt>
      <trkpt lat="10.2709006" lon="-85.5895021">
        <ele>70.2</ele>
        <time>2022-10-06T18:20:21Z</time>
      </trkpt>
      <trkpt lat="10.2709144" lon="-85.5894953">
        <ele>70.1</ele>
        <time>2022-10-06T18:20:22Z</time>
      </trkpt>
      <trkpt lat="10.2709321" lon="-85.5894854">
        <ele>70.0</ele>
        <time>2022-10-06T18:20:23Z</time>
      </trkpt>
      <trkpt lat="10.2709546" lon="-85.5894724">
        <ele>69.9</ele>
        <time>2022-10-06T18:20:24Z</time>
      </trkpt>
      <trkpt lat="10.2709799" lon="-85.5894533">
        <ele>69.9</ele>
        <time>2022-10-06T18:20:25Z</time>
      </trkpt>
      <trkpt lat="10.2710038" lon="-85.5894343">
        <ele>70.0</ele>
        <time>2022-10-06T18:20:26Z</time>
      </trkpt>
      <trkpt lat="10.2710134" lon="-85.5894036">
        <ele>70.0</ele>
        <time>2022-10-06T18:20:27Z</time>
      </trkpt>
      <trkpt lat="10.2710206" lon="-85.5893771">
        <ele>70.0</ele>
        <time>2022-10-06T18:20:28Z</time>
      </trkpt>
      <trkpt lat="10.2710035" lon="-85.5893389">
        <ele>69.9</ele>
        <time>2022-10-06T18:20:29Z</time>
      </trkpt>
      <trkpt lat="10.2709857" lon="-85.5893074">
        <ele>69.9</ele>
        <time>2022-10-06T18:20:30Z</time>
      </trkpt>
      <trkpt lat="10.2709547" lon="-85.5892830">
        <ele>69.8</ele>
        <time>2022-10-06T18:20:31Z</time>
      </trkpt>
      <trkpt lat="10.2709091" lon="-85.5892628">
        <ele>70.3</ele>
        <time>2022-10-06T18:20:32Z</time>
      </trkpt>
      <trkpt lat="10.2708534" lon="-85.5892456">
        <ele>70.4</ele>
        <time>2022-10-06T18:20:33Z</time>
      </trkpt>
      <trkpt lat="10.2707909" lon="-85.5892283">
        <ele>70.6</ele>
        <time>2022-10-06T18:20:34Z</time>
      </trkpt>
      <trkpt lat="10.2707203" lon="-85.5892093">
        <ele>70.8</ele>
        <time>2022-10-06T18:20:35Z</time>
      </trkpt>
      <trkpt lat="10.2706490" lon="-85.5891920">
        <ele>70.9</ele>
        <time>2022-10-06T18:20:36Z</time>
      </trkpt>
      <trkpt lat="10.2705787" lon="-85.5891747">
        <ele>71.3</ele>
        <time>2022-10-06T18:20:37Z</time>
      </trkpt>
      <trkpt lat="10.2705069" lon="-85.5891564">
        <ele>71.6</ele>
        <time>2022-10-06T18:20:38Z</time>
      </trkpt>
      <trkpt lat="10.2704329" lon="-85.5891384">
        <ele>71.5</ele>
        <time>2022-10-06T18:20:39Z</time>
      </trkpt>
      <trkpt lat="10.2703611" lon="-85.5891181">
        <ele>71.5</ele>
        <time>2022-10-06T18:20:40Z</time>
      </trkpt>
      <trkpt lat="10.2702896" lon="-85.5891002">
        <ele>71.5</ele>
        <time>2022-10-06T18:20:41Z</time>
      </trkpt>
      <trkpt lat="10.2702194" lon="-85.5890809">
        <ele>71.2</ele>
        <time>2022-10-06T18:20:42Z</time>
      </trkpt>
      <trkpt lat="10.2701459" lon="-85.5890636">
        <ele>71.2</ele>
        <time>2022-10-06T18:20:43Z</time>
      </trkpt>
      <trkpt lat="10.2700667" lon="-85.5890436">
        <ele>71.2</ele>
        <time>2022-10-06T18:20:44Z</time>
      </trkpt>
      <trkpt lat="10.2699815" lon="-85.5890224">
        <ele>71.2</ele>
        <time>2022-10-06T18:20:45Z</time>
      </trkpt>
      <trkpt lat="10.2698916" lon="-85.5889960">
        <ele>71.1</ele>
        <time>2022-10-06T18:20:46Z</time>
      </trkpt>
      <trkpt lat="10.2697983" lon="-85.5889715">
        <ele>71.0</ele>
        <time>2022-10-06T18:20:47Z</time>
      </trkpt>
      <trkpt lat="10.2697012" lon="-85.5889462">
        <ele>71.0</ele>
        <time>2022-10-06T18:20:48Z</time>
      </trkpt>
      <trkpt lat="10.2695991" lon="-85.5889139">
        <ele>70.9</ele>
        <time>2022-10-06T18:20:49Z</time>
      </trkpt>
      <trkpt lat="10.2694940" lon="-85.5888758">
        <ele>70.8</ele>
        <time>2022-10-06T18:20:50Z</time>
      </trkpt>
      <trkpt lat="10.2693883" lon="-85.5888363">
        <ele>70.8</ele>
        <time>2022-10-06T18:20:51Z</time>
      </trkpt>
      <trkpt lat="10.2692776" lon="-85.5887857">
        <ele>70.9</ele>
        <time>2022-10-06T18:20:52Z</time>
      </trkpt>
      <trkpt lat="10.2691687" lon="-85.5887307">
        <ele>71.0</ele>
        <time>2022-10-06T18:20:53Z</time>
      </trkpt>
      <trkpt lat="10.2690607" lon="-85.5886737">
        <ele>71.1</ele>
        <time>2022-10-06T18:20:54Z</time>
      </trkpt>
      <trkpt lat="10.2689550" lon="-85.5886097">
        <ele>71.0</ele>
        <time>2022-10-06T18:20:55Z</time>
      </trkpt>
      <trkpt lat="10.2688486" lon="-85.5885352">
        <ele>71.2</ele>
        <time>2022-10-06T18:20:56Z</time>
      </trkpt>
      <trkpt lat="10.2687463" lon="-85.5884569">
        <ele>71.4</ele>
        <time>2022-10-06T18:20:57Z</time>
      </trkpt>
      <trkpt lat="10.2686469" lon="-85.5883752">
        <ele>71.5</ele>
        <time>2022-10-06T18:20:58Z</time>
      </trkpt>
      <trkpt lat="10.2685518" lon="-85.5882862">
        <ele>71.7</ele>
        <time>2022-10-06T18:20:59Z</time>
      </trkpt>
      <trkpt lat="10.2684599" lon="-85.5881964">
        <ele>71.8</ele>
        <time>2022-10-06T18:21:00Z</time>
      </trkpt>
      <trkpt lat="10.2683695" lon="-85.5881064">
        <ele>71.9</ele>
        <time>2022-10-06T18:21:01Z</time>
      </trkpt>
      <trkpt lat="10.2682824" lon="-85.5880196">
        <ele>71.9</ele>
        <time>2022-10-06T18:21:02Z</time>
      </trkpt>
      <trkpt lat="10.2682029" lon="-85.5879305">
        <ele>72.1</ele>
        <time>2022-10-06T18:21:03Z</time>
      </trkpt>
      <trkpt lat="10.2681364" lon="-85.5878383">
        <ele>72.0</ele>
        <time>2022-10-06T18:21:04Z</time>
      </trkpt>
      <trkpt lat="10.2680787" lon="-85.5877402">
        <ele>72.0</ele>
        <time>2022-10-06T18:21:05Z</time>
      </trkpt>
      <trkpt lat="10.2680247" lon="-85.5876414">
        <ele>72.0</ele>
        <time>2022-10-06T18:21:06Z</time>
      </trkpt>
      <trkpt lat="10.2679762" lon="-85.5875445">
        <ele>72.0</ele>
        <time>2022-10-06T18:21:07Z</time>
      </trkpt>
      <trkpt lat="10.2679345" lon="-85.5874513">
        <ele>71.8</ele>
        <time>2022-10-06T18:21:08Z</time>
      </trkpt>
      <trkpt lat="10.2679004" lon="-85.5873710">
        <ele>71.9</ele>
        <time>2022-10-06T18:21:09Z</time>
      </trkpt>
      <trkpt lat="10.2678682" lon="-85.5872942">
        <ele>71.9</ele>
        <time>2022-10-06T18:21:10Z</time>
      </trkpt>
      <trkpt lat="10.2678319" lon="-85.5872316">
        <ele>71.8</ele>
        <time>2022-10-06T18:21:11Z</time>
      </trkpt>
      <trkpt lat="10.2677941" lon="-85.5871786">
        <ele>71.7</ele>
        <time>2022-10-06T18:21:12Z</time>
      </trkpt>
      <trkpt lat="10.2677243" lon="-85.5871551">
        <ele>72.1</ele>
        <time>2022-10-06T18:21:13Z</time>
      </trkpt>
      <trkpt lat="10.2676547" lon="-85.5871335">
        <ele>72.3</ele>
        <time>2022-10-06T18:21:14Z</time>
      </trkpt>
      <trkpt lat="10.2675816" lon="-85.5871161">
        <ele>72.1</ele>
        <time>2022-10-06T18:21:15Z</time>
      </trkpt>
      <trkpt lat="10.2675040" lon="-85.5871013">
        <ele>72.1</ele>
        <time>2022-10-06T18:21:16Z</time>
      </trkpt>
      <trkpt lat="10.2674237" lon="-85.5870879">
        <ele>72.2</ele>
        <time>2022-10-06T18:21:17Z</time>
      </trkpt>
      <trkpt lat="10.2673433" lon="-85.5870721">
        <ele>72.3</ele>
        <time>2022-10-06T18:21:18Z</time>
      </trkpt>
      <trkpt lat="10.2672586" lon="-85.5870585">
        <ele>72.3</ele>
        <time>2022-10-06T18:21:19Z</time>
      </trkpt>
      <trkpt lat="10.2671741" lon="-85.5870431">
        <ele>72.3</ele>
        <time>2022-10-06T18:21:20Z</time>
      </trkpt>
      <trkpt lat="10.2670879" lon="-85.5870291">
        <ele>72.5</ele>
        <time>2022-10-06T18:21:21Z</time>
      </trkpt>
      <trkpt lat="10.2670026" lon="-85.5870136">
        <ele>72.7</ele>
        <time>2022-10-06T18:21:22Z</time>
      </trkpt>
      <trkpt lat="10.2669167" lon="-85.5869985">
        <ele>72.7</ele>
        <time>2022-10-06T18:21:23Z</time>
      </trkpt>
      <trkpt lat="10.2668302" lon="-85.5869824">
        <ele>72.7</ele>
        <time>2022-10-06T18:21:24Z</time>
      </trkpt>
      <trkpt lat="10.2667423" lon="-85.5869686">
        <ele>72.7</ele>
        <time>2022-10-06T18:21:25Z</time>
      </trkpt>
      <trkpt lat="10.2666523" lon="-85.5869576">
        <ele>72.8</ele>
        <time>2022-10-06T18:21:26Z</time>
      </trkpt>
      <trkpt lat="10.2665609" lon="-85.5869474">
        <ele>72.9</ele>
        <time>2022-10-06T18:21:27Z</time>
      </trkpt>
      <trkpt lat="10.2664702" lon="-85.5869381">
        <ele>73.0</ele>
        <time>2022-10-06T18:21:28Z</time>
      </trkpt>
      <trkpt lat="10.2663794" lon="-85.5869280">
        <ele>73.2</ele>
        <time>2022-10-06T18:21:29Z</time>
      </trkpt>
      <trkpt lat="10.2662903" lon="-85.5869167">
        <ele>73.3</ele>
        <time>2022-10-06T18:21:30Z</time>
      </trkpt>
      <trkpt lat="10.2662093" lon="-85.5869079">
        <ele>73.4</ele>
        <time>2022-10-06T18:21:31Z</time>
      </trkpt>
      <trkpt lat="10.2661432" lon="-85.5869000">
        <ele>73.5</ele>
        <time>2022-10-06T18:21:32Z</time>
      </trkpt>
      <trkpt lat="10.2660855" lon="-85.5868922">
        <ele>73.5</ele>
        <time>2022-10-06T18:21:33Z</time>
      </trkpt>
      <trkpt lat="10.2660263" lon="-85.5868837">
        <ele>73.5</ele>
        <time>2022-10-06T18:21:34Z</time>
      </trkpt>
      <trkpt lat="10.2659659" lon="-85.5868734">
        <ele>73.6</ele>
        <time>2022-10-06T18:21:35Z</time>
      </trkpt>
      <trkpt lat="10.2658990" lon="-85.5868623">
        <ele>73.8</ele>
        <time>2022-10-06T18:21:36Z</time>
      </trkpt>
      <trkpt lat="10.2658296" lon="-85.5868500">
        <ele>74.0</ele>
        <time>2022-10-06T18:21:37Z</time>
      </trkpt>
      <trkpt lat="10.2657567" lon="-85.5868370">
        <ele>74.1</ele>
        <time>2022-10-06T18:21:38Z</time>
      </trkpt>
      <trkpt lat="10.2656846" lon="-85.5868234">
        <ele>74.3</ele>
        <time>2022-10-06T18:21:39Z</time>
      </trkpt>
      <trkpt lat="10.2656128" lon="-85.5868071">
        <ele>74.4</ele>
        <time>2022-10-06T18:21:40Z</time>
      </trkpt>
      <trkpt lat="10.2655377" lon="-85.5867927">
        <ele>74.5</ele>
        <time>2022-10-06T18:21:41Z</time>
      </trkpt>
      <trkpt lat="10.2654603" lon="-85.5867794">
        <ele>74.7</ele>
        <time>2022-10-06T18:21:42Z</time>
      </trkpt>
      <trkpt lat="10.2653796" lon="-85.5867664">
        <ele>74.7</ele>
        <time>2022-10-06T18:21:43Z</time>
      </trkpt>
      <trkpt lat="10.2652955" lon="-85.5867528">
        <ele>74.9</ele>
        <time>2022-10-06T18:21:44Z</time>
      </trkpt>
      <trkpt lat="10.2652133" lon="-85.5867396">
        <ele>74.8</ele>
        <time>2022-10-06T18:21:45Z</time>
      </trkpt>
      <trkpt lat="10.2651320" lon="-85.5867256">
        <ele>74.8</ele>
        <time>2022-10-06T18:21:46Z</time>
      </trkpt>
      <trkpt lat="10.2650513" lon="-85.5867141">
        <ele>74.9</ele>
        <time>2022-10-06T18:21:47Z</time>
      </trkpt>
      <trkpt lat="10.2649699" lon="-85.5867017">
        <ele>75.0</ele>
        <time>2022-10-06T18:21:48Z</time>
      </trkpt>
      <trkpt lat="10.2648863" lon="-85.5866885">
        <ele>75.1</ele>
        <time>2022-10-06T18:21:49Z</time>
      </trkpt>
      <trkpt lat="10.2648023" lon="-85.5866754">
        <ele>75.1</ele>
        <time>2022-10-06T18:21:50Z</time>
      </trkpt>
      <trkpt lat="10.2647189" lon="-85.5866661">
        <ele>75.1</ele>
        <time>2022-10-06T18:21:51Z</time>
      </trkpt>
      <trkpt lat="10.2646424" lon="-85.5866584">
        <ele>75.1</ele>
        <time>2022-10-06T18:21:52Z</time>
      </trkpt>
      <trkpt lat="10.2645773" lon="-85.5866524">
        <ele>75.0</ele>
        <time>2022-10-06T18:21:53Z</time>
      </trkpt>
      <trkpt lat="10.2645206" lon="-85.5866473">
        <ele>75.1</ele>
        <time>2022-10-06T18:21:54Z</time>
      </trkpt>
      <trkpt lat="10.2644672" lon="-85.5866367">
        <ele>75.0</ele>
        <time>2022-10-06T18:21:55Z</time>
      </trkpt>
      <trkpt lat="10.2644133" lon="-85.5866197">
        <ele>75.3</ele>
        <time>2022-10-06T18:21:56Z</time>
      </trkpt>
      <trkpt lat="10.2643604" lon="-85.5866040">
        <ele>75.3</ele>
        <time>2022-10-06T18:21:57Z</time>
      </trkpt>
      <trkpt lat="10.2643011" lon="-85.5865917">
        <ele>75.4</ele>
        <time>2022-10-06T18:21:58Z</time>
      </trkpt>
      <trkpt lat="10.2642442" lon="-85.5865829">
        <ele>75.4</ele>
        <time>2022-10-06T18:21:59Z</time>
      </trkpt>
      <trkpt lat="10.2641899" lon="-85.5865734">
        <ele>75.3</ele>
        <time>2022-10-06T18:22:00Z</time>
      </trkpt>
      <trkpt lat="10.2641438" lon="-85.5865664">
        <ele>75.5</ele>
        <time>2022-10-06T18:22:01Z</time>
      </trkpt>
      <trkpt lat="10.2641022" lon="-85.5865595">
        <ele>75.3</ele>
        <time>2022-10-06T18:22:02Z</time>
      </trkpt>
      <trkpt lat="10.2640632" lon="-85.5865525">
        <ele>75.3</ele>
        <time>2022-10-06T18:22:03Z</time>
      </trkpt>
      <trkpt lat="10.2640258" lon="-85.5865451">
        <ele>75.5</ele>
        <time>2022-10-06T18:22:04Z</time>
      </trkpt>
      <trkpt lat="10.2639911" lon="-85.5865373">
        <ele>75.5</ele>
        <time>2022-10-06T18:22:05Z</time>
      </trkpt>
      <trkpt lat="10.2639568" lon="-85.5865305">
        <ele>75.6</ele>
        <time>2022-10-06T18:22:06Z</time>
      </trkpt>
      <trkpt lat="10.2639228" lon="-85.5865240">
        <ele>75.6</ele>
        <time>2022-10-06T18:22:07Z</time>
      </trkpt>
      <trkpt lat="10.2638875" lon="-85.5865186">
        <ele>75.6</ele>
        <time>2022-10-06T18:22:08Z</time>
      </trkpt>
      <trkpt lat="10.2638531" lon="-85.5865127">
        <ele>75.6</ele>
        <time>2022-10-06T18:22:09Z</time>
      </trkpt>
      <trkpt lat="10.2638183" lon="-85.5865044">
        <ele>75.6</ele>
        <time>2022-10-06T18:22:10Z</time>
      </trkpt>
      <trkpt lat="10.2637803" lon="-85.5864955">
        <ele>75.5</ele>
        <time>2022-10-06T18:22:11Z</time>
      </trkpt>
      <trkpt lat="10.2637421" lon="-85.5864873">
        <ele>75.5</ele>
        <time>2022-10-06T18:22:12Z</time>
      </trkpt>
      <trkpt lat="10.2637052" lon="-85.5864800">
        <ele>75.5</ele>
        <time>2022-10-06T18:22:13Z</time>
      </trkpt>
      <trkpt lat="10.2636671" lon="-85.5864712">
        <ele>75.4</ele>
        <time>2022-10-06T18:22:14Z</time>
      </trkpt>
      <trkpt lat="10.2636273" lon="-85.5864630">
        <ele>75.4</ele>
        <time>2022-10-06T18:22:15Z</time>
      </trkpt>
      <trkpt lat="10.2635854" lon="-85.5864573">
        <ele>75.5</ele>
        <time>2022-10-06T18:22:16Z</time>
      </trkpt>
      <trkpt lat="10.2635472" lon="-85.5864486">
        <ele>75.5</ele>
        <time>2022-10-06T18:22:17Z</time>
      </trkpt>
      <trkpt lat="10.2635022" lon="-85.5864411">
        <ele>75.5</ele>
        <time>2022-10-06T18:22:18Z</time>
      </trkpt>
      <trkpt lat="10.2634566" lon="-85.5864322">
        <ele>75.6</ele>
        <time>2022-10-06T18:22:19Z</time>
      </trkpt>
      <trkpt lat="10.2634150" lon="-85.5864242">
        <ele>75.6</ele>
        <time>2022-10-06T18:22:20Z</time>
      </trkpt>
      <trkpt lat="10.2633745" lon="-85.5864149">
        <ele>75.5</ele>
        <time>2022-10-06T18:22:21Z</time>
      </trkpt>
      <trkpt lat="10.2633333" lon="-85.5864038">
        <ele>75.5</ele>
        <time>2022-10-06T18:22:22Z</time>
      </trkpt>
      <trkpt lat="10.2632933" lon="-85.5863942">
        <ele>75.4</ele>
        <time>2022-10-06T18:22:23Z</time>
      </trkpt>
      <trkpt lat="10.2632553" lon="-85.5863852">
        <ele>75.5</ele>
        <time>2022-10-06T18:22:24Z</time>
      </trkpt>
      <trkpt lat="10.2632157" lon="-85.5863776">
        <ele>75.5</ele>
        <time>2022-10-06T18:22:25Z</time>
      </trkpt>
      <trkpt lat="10.2631787" lon="-85.5863722">
        <ele>75.5</ele>
        <time>2022-10-06T18:22:26Z</time>
      </trkpt>
      <trkpt lat="10.2631403" lon="-85.5863673">
        <ele>75.5</ele>
        <time>2022-10-06T18:22:27Z</time>
      </trkpt>
      <trkpt lat="10.2630999" lon="-85.5863615">
        <ele>75.4</ele>
        <time>2022-10-06T18:22:28Z</time>
      </trkpt>
      <trkpt lat="10.2630543" lon="-85.5863557">
        <ele>75.5</ele>
        <time>2022-10-06T18:22:29Z</time>
      </trkpt>
      <trkpt lat="10.2630080" lon="-85.5863479">
        <ele>75.5</ele>
        <time>2022-10-06T18:22:30Z</time>
      </trkpt>
      <trkpt lat="10.2629611" lon="-85.5863405">
        <ele>75.6</ele>
        <time>2022-10-06T18:22:31Z</time>
      </trkpt>
      <trkpt lat="10.2629137" lon="-85.5863324">
        <ele>75.5</ele>
        <time>2022-10-06T18:22:32Z</time>
      </trkpt>
      <trkpt lat="10.2628697" lon="-85.5863197">
        <ele>75.4</ele>
        <time>2022-10-06T18:22:33Z</time>
      </trkpt>
      <trkpt lat="10.2628317" lon="-85.5863071">
        <ele>75.4</ele>
        <time>2022-10-06T18:22:34Z</time>
      </trkpt>
      <trkpt lat="10.2627880" lon="-85.5862959">
        <ele>75.3</ele>
        <time>2022-10-06T18:22:35Z</time>
      </trkpt>
      <trkpt lat="10.2627458" lon="-85.5862909">
        <ele>75.3</ele>
        <time>2022-10-06T18:22:36Z</time>
      </trkpt>
      <trkpt lat="10.2627034" lon="-85.5862854">
        <ele>75.4</ele>
        <time>2022-10-06T18:22:37Z</time>
      </trkpt>
      <trkpt lat="10.2626612" lon="-85.5862814">
        <ele>75.4</ele>
        <time>2022-10-06T18:22:38Z</time>
      </trkpt>
      <trkpt lat="10.2626180" lon="-85.5862765">
        <ele>75.3</ele>
        <time>2022-10-06T18:22:39Z</time>
      </trkpt>
      <trkpt lat="10.2625761" lon="-85.5862717">
        <ele>75.3</ele>
        <time>2022-10-06T18:22:40Z</time>
      </trkpt>
      <trkpt lat="10.2625327" lon="-85.5862674">
        <ele>75.3</ele>
        <time>2022-10-06T18:22:41Z</time>
      </trkpt>
      <trkpt lat="10.2624907" lon="-85.5862634">
        <ele>75.2</ele>
        <time>2022-10-06T18:22:42Z</time>
      </trkpt>
      <trkpt lat="10.2624497" lon="-85.5862599">
        <ele>75.2</ele>
        <time>2022-10-06T18:22:43Z</time>
      </trkpt>
      <trkpt lat="10.2624084" lon="-85.5862559">
        <ele>75.2</ele>
        <time>2022-10-06T18:22:44Z</time>
      </trkpt>
      <trkpt lat="10.2623712" lon="-85.5862536">
        <ele>75.2</ele>
        <time>2022-10-06T18:22:45Z</time>
      </trkpt>
      <trkpt lat="10.2623331" lon="-85.5862516">
        <ele>75.3</ele>
        <time>2022-10-06T18:22:46Z</time>
      </trkpt>
      <trkpt lat="10.2622923" lon="-85.5862485">
        <ele>75.3</ele>
        <time>2022-10-06T18:22:47Z</time>
      </trkpt>
      <trkpt lat="10.2622520" lon="-85.5862414">
        <ele>75.4</ele>
        <time>2022-10-06T18:22:48Z</time>
      </trkpt>
      <trkpt lat="10.2622137" lon="-85.5862353">
        <ele>75.3</ele>
        <time>2022-10-06T18:22:49Z</time>
      </trkpt>
      <trkpt lat="10.2621749" lon="-85.5862298">
        <ele>75.5</ele>
        <time>2022-10-06T18:22:50Z</time>
      </trkpt>
      <trkpt lat="10.2621365" lon="-85.5862259">
        <ele>75.6</ele>
        <time>2022-10-06T18:22:51Z</time>
      </trkpt>
      <trkpt lat="10.2620992" lon="-85.5862204">
        <ele>75.6</ele>
        <time>2022-10-06T18:22:52Z</time>
      </trkpt>
      <trkpt lat="10.2620588" lon="-85.5862154">
        <ele>75.5</ele>
        <time>2022-10-06T18:22:53Z</time>
      </trkpt>
      <trkpt lat="10.2620167" lon="-85.5862093">
        <ele>75.5</ele>
        <time>2022-10-06T18:22:54Z</time>
      </trkpt>
      <trkpt lat="10.2619749" lon="-85.5862016">
        <ele>75.6</ele>
        <time>2022-10-06T18:22:55Z</time>
      </trkpt>
      <trkpt lat="10.2619346" lon="-85.5861959">
        <ele>75.7</ele>
        <time>2022-10-06T18:22:56Z</time>
      </trkpt>
      <trkpt lat="10.2618928" lon="-85.5861909">
        <ele>75.7</ele>
        <time>2022-10-06T18:22:57Z</time>
      </trkpt>
      <trkpt lat="10.2618501" lon="-85.5861850">
        <ele>75.7</ele>
        <time>2022-10-06T18:22:58Z</time>
      </trkpt>
      <trkpt lat="10.2618070" lon="-85.5861803">
        <ele>75.7</ele>
        <time>2022-10-06T18:22:59Z</time>
      </trkpt>
      <trkpt lat="10.2617627" lon="-85.5861730">
        <ele>75.6</ele>
        <time>2022-10-06T18:23:00Z</time>
      </trkpt>
      <trkpt lat="10.2617200" lon="-85.5861667">
        <ele>75.6</ele>
        <time>2022-10-06T18:23:01Z</time>
      </trkpt>
      <trkpt lat="10.2616763" lon="-85.5861589">
        <ele>75.5</ele>
        <time>2022-10-06T18:23:02Z</time>
      </trkpt>
      <trkpt lat="10.2616364" lon="-85.5861528">
        <ele>75.5</ele>
        <time>2022-10-06T18:23:03Z</time>
      </trkpt>
      <trkpt lat="10.2615927" lon="-85.5861480">
        <ele>75.5</ele>
        <time>2022-10-06T18:23:04Z</time>
      </trkpt>
      <trkpt lat="10.2615524" lon="-85.5861429">
        <ele>75.5</ele>
        <time>2022-10-06T18:23:05Z</time>
      </trkpt>
      <trkpt lat="10.2615161" lon="-85.5861380">
        <ele>75.5</ele>
        <time>2022-10-06T18:23:06Z</time>
      </trkpt>
      <trkpt lat="10.2614781" lon="-85.5861319">
        <ele>75.6</ele>
        <time>2022-10-06T18:23:07Z</time>
      </trkpt>
      <trkpt lat="10.2614441" lon="-85.5861266">
        <ele>75.7</ele>
        <time>2022-10-06T18:23:08Z</time>
      </trkpt>
      <trkpt lat="10.2614085" lon="-85.5861201">
        <ele>75.7</ele>
        <time>2022-10-06T18:23:09Z</time>
      </trkpt>
      <trkpt lat="10.2613703" lon="-85.5861148">
        <ele>75.7</ele>
        <time>2022-10-06T18:23:10Z</time>
      </trkpt>
      <trkpt lat="10.2613302" lon="-85.5861097">
        <ele>75.5</ele>
        <time>2022-10-06T18:23:11Z</time>
      </trkpt>
      <trkpt lat="10.2612931" lon="-85.5861034">
        <ele>75.6</ele>
        <time>2022-10-06T18:23:12Z</time>
      </trkpt>
      <trkpt lat="10.2612569" lon="-85.5860964">
        <ele>75.6</ele>
        <time>2022-10-06T18:23:13Z</time>
      </trkpt>
      <trkpt lat="10.2612222" lon="-85.5860913">
        <ele>75.6</ele>
        <time>2022-10-06T18:23:14Z</time>
      </trkpt>
      <trkpt lat="10.2611868" lon="-85.5860859">
        <ele>75.6</ele>
        <time>2022-10-06T18:23:15Z</time>
      </trkpt>
      <trkpt lat="10.2611509" lon="-85.5860819">
        <ele>75.6</ele>
        <time>2022-10-06T18:23:16Z</time>
      </trkpt>
      <trkpt lat="10.2611171" lon="-85.5860773">
        <ele>75.7</ele>
        <time>2022-10-06T18:23:17Z</time>
      </trkpt>
      <trkpt lat="10.2610797" lon="-85.5860713">
        <ele>75.6</ele>
        <time>2022-10-06T18:23:18Z</time>
      </trkpt>
      <trkpt lat="10.2610437" lon="-85.5860663">
        <ele>75.7</ele>
        <time>2022-10-06T18:23:19Z</time>
      </trkpt>
      <trkpt lat="10.2610048" lon="-85.5860607">
        <ele>75.7</ele>
        <time>2022-10-06T18:23:20Z</time>
      </trkpt>
      <trkpt lat="10.2609673" lon="-85.5860550">
        <ele>75.7</ele>
        <time>2022-10-06T18:23:21Z</time>
      </trkpt>
      <trkpt lat="10.2609304" lon="-85.5860481">
        <ele>75.7</ele>
        <time>2022-10-06T18:23:22Z</time>
      </trkpt>
      <trkpt lat="10.2608920" lon="-85.5860405">
        <ele>75.8</ele>
        <time>2022-10-06T18:23:23Z</time>
      </trkpt>
      <trkpt lat="10.2608540" lon="-85.5860317">
        <ele>75.8</ele>
        <time>2022-10-06T18:23:24Z</time>
      </trkpt>
      <trkpt lat="10.2608139" lon="-85.5860245">
        <ele>75.8</ele>
        <time>2022-10-06T18:23:25Z</time>
      </trkpt>
      <trkpt lat="10.2607731" lon="-85.5860188">
        <ele>76.0</ele>
        <time>2022-10-06T18:23:26Z</time>
      </trkpt>
      <trkpt lat="10.2607319" lon="-85.5860117">
        <ele>76.0</ele>
        <time>2022-10-06T18:23:27Z</time>
      </trkpt>
      <trkpt lat="10.2606931" lon="-85.5860056">
        <ele>76.0</ele>
        <time>2022-10-06T18:23:28Z</time>
      </trkpt>
      <trkpt lat="10.2606561" lon="-85.5859971">
        <ele>76.1</ele>
        <time>2022-10-06T18:23:29Z</time>
      </trkpt>
      <trkpt lat="10.2606212" lon="-85.5859891">
        <ele>76.1</ele>
        <time>2022-10-06T18:23:30Z</time>
      </trkpt>
      <trkpt lat="10.2605861" lon="-85.5859832">
        <ele>76.2</ele>
        <time>2022-10-06T18:23:31Z</time>
      </trkpt>
      <trkpt lat="10.2605483" lon="-85.5859775">
        <ele>76.2</ele>
        <time>2022-10-06T18:23:32Z</time>
      </trkpt>
      <trkpt lat="10.2605101" lon="-85.5859717">
        <ele>76.3</ele>
        <time>2022-10-06T18:23:33Z</time>
      </trkpt>
      <trkpt lat="10.2604720" lon="-85.5859672">
        <ele>76.4</ele>
        <time>2022-10-06T18:23:34Z</time>
      </trkpt>
      <trkpt lat="10.2604335" lon="-85.5859619">
        <ele>76.5</ele>
        <time>2022-10-06T18:23:35Z</time>
      </trkpt>
      <trkpt lat="10.2603936" lon="-85.5859558">
        <ele>76.5</ele>
        <time>2022-10-06T18:23:36Z</time>
      </trkpt>
      <trkpt lat="10.2603511" lon="-85.5859482">
        <ele>76.5</ele>
        <time>2022-10-06T18:23:37Z</time>
      </trkpt>
      <trkpt lat="10.2603087" lon="-85.5859412">
        <ele>76.6</ele>
        <time>2022-10-06T18:23:38Z</time>
      </trkpt>
      <trkpt lat="10.2602665" lon="-85.5859340">
        <ele>76.6</ele>
        <time>2022-10-06T18:23:39Z</time>
      </trkpt>
      <trkpt lat="10.2602263" lon="-85.5859254">
        <ele>76.6</ele>
        <time>2022-10-06T18:23:40Z</time>
      </trkpt>
      <trkpt lat="10.2601889" lon="-85.5859195">
        <ele>76.7</ele>
        <time>2022-10-06T18:23:41Z</time>
      </trkpt>
      <trkpt lat="10.2601495" lon="-85.5859143">
        <ele>76.7</ele>
        <time>2022-10-06T18:23:42Z</time>
      </trkpt>
      <trkpt lat="10.2601113" lon="-85.5859066">
        <ele>76.8</ele>
        <time>2022-10-06T18:23:43Z</time>
      </trkpt>
      <trkpt lat="10.2600721" lon="-85.5859007">
        <ele>76.7</ele>
        <time>2022-10-06T18:23:44Z</time>
      </trkpt>
      <trkpt lat="10.2600326" lon="-85.5858938">
        <ele>76.8</ele>
        <time>2022-10-06T18:23:45Z</time>
      </trkpt>
      <trkpt lat="10.2599977" lon="-85.5858885">
        <ele>76.9</ele>
        <time>2022-10-06T18:23:46Z</time>
      </trkpt>
      <trkpt lat="10.2599577" lon="-85.5858843">
        <ele>77.0</ele>
        <time>2022-10-06T18:23:47Z</time>
      </trkpt>
      <trkpt lat="10.2599209" lon="-85.5858796">
        <ele>77.0</ele>
        <time>2022-10-06T18:23:48Z</time>
      </trkpt>
      <trkpt lat="10.2598873" lon="-85.5858747">
        <ele>77.4</ele>
        <time>2022-10-06T18:23:49Z</time>
      </trkpt>
      <trkpt lat="10.2598645" lon="-85.5858692">
        <ele>77.4</ele>
        <time>2022-10-06T18:23:50Z</time>
      </trkpt>
      <trkpt lat="10.2598495" lon="-85.5858651">
        <ele>77.3</ele>
        <time>2022-10-06T18:23:51Z</time>
      </trkpt>
      <trkpt lat="10.2598331" lon="-85.5858621">
        <ele>77.4</ele>
        <time>2022-10-06T18:23:52Z</time>
      </trkpt>
      <trkpt lat="10.2598143" lon="-85.5858584">
        <ele>77.5</ele>
        <time>2022-10-06T18:23:53Z</time>
      </trkpt>
      <trkpt lat="10.2597969" lon="-85.5858547">
        <ele>77.4</ele>
        <time>2022-10-06T18:23:54Z</time>
      </trkpt>
      <trkpt lat="10.2597787" lon="-85.5858496">
        <ele>77.3</ele>
        <time>2022-10-06T18:23:55Z</time>
      </trkpt>
      <trkpt lat="10.2597557" lon="-85.5858455">
        <ele>77.3</ele>
        <time>2022-10-06T18:23:56Z</time>
      </trkpt>
      <trkpt lat="10.2597300" lon="-85.5858405">
        <ele>77.3</ele>
        <time>2022-10-06T18:23:57Z</time>
      </trkpt>
      <trkpt lat="10.2597031" lon="-85.5858348">
        <ele>77.4</ele>
        <time>2022-10-06T18:23:58Z</time>
      </trkpt>
      <trkpt lat="10.2596711" lon="-85.5858294">
        <ele>77.5</ele>
        <time>2022-10-06T18:23:59Z</time>
      </trkpt>
      <trkpt lat="10.2596260" lon="-85.5858260">
        <ele>77.5</ele>
        <time>2022-10-06T18:24:00Z</time>
      </trkpt>
      <trkpt lat="10.2595804" lon="-85.5858197">
        <ele>77.6</ele>
        <time>2022-10-06T18:24:01Z</time>
      </trkpt>
      <trkpt lat="10.2595376" lon="-85.5858149">
        <ele>77.7</ele>
        <time>2022-10-06T18:24:02Z</time>
      </trkpt>
      <trkpt lat="10.2594934" lon="-85.5858097">
        <ele>77.6</ele>
        <time>2022-10-06T18:24:03Z</time>
      </trkpt>
      <trkpt lat="10.2594492" lon="-85.5858053">
        <ele>77.6</ele>
        <time>2022-10-06T18:24:04Z</time>
      </trkpt>
      <trkpt lat="10.2594164" lon="-85.5858020">
        <ele>77.8</ele>
        <time>2022-10-06T18:24:05Z</time>
      </trkpt>
      <trkpt lat="10.2593867" lon="-85.5857990">
        <ele>77.8</ele>
        <time>2022-10-06T18:24:06Z</time>
      </trkpt>
      <trkpt lat="10.2593669" lon="-85.5857966">
        <ele>77.7</ele>
        <time>2022-10-06T18:24:07Z</time>
      </trkpt>
      <trkpt lat="10.2593496" lon="-85.5857945">
        <ele>77.8</ele>
        <time>2022-10-06T18:24:08Z</time>
      </trkpt>
      <trkpt lat="10.2593360" lon="-85.5857910">
        <ele>77.8</ele>
        <time>2022-10-06T18:24:09Z</time>
      </trkpt>
      <trkpt lat="10.2593179" lon="-85.5857882">
        <ele>77.9</ele>
        <time>2022-10-06T18:24:10Z</time>
      </trkpt>
      <trkpt lat="10.2592995" lon="-85.5857855">
        <ele>77.9</ele>
        <time>2022-10-06T18:24:11Z</time>
      </trkpt>
      <trkpt lat="10.2592802" lon="-85.5857832">
        <ele>77.9</ele>
        <time>2022-10-06T18:24:12Z</time>
      </trkpt>
      <trkpt lat="10.2592590" lon="-85.5857791">
        <ele>77.6</ele>
        <time>2022-10-06T18:24:13Z</time>
      </trkpt>
      <trkpt lat="10.2592375" lon="-85.5857752">
        <ele>77.4</ele>
        <time>2022-10-06T18:24:14Z</time>
      </trkpt>
      <trkpt lat="10.2592135" lon="-85.5857698">
        <ele>77.4</ele>
        <time>2022-10-06T18:24:15Z</time>
      </trkpt>
      <trkpt lat="10.2591831" lon="-85.5857625">
        <ele>77.8</ele>
        <time>2022-10-06T18:24:16Z</time>
      </trkpt>
      <trkpt lat="10.2591528" lon="-85.5857569">
        <ele>77.8</ele>
        <time>2022-10-06T18:24:17Z</time>
      </trkpt>
      <trkpt lat="10.2591237" lon="-85.5857516">
        <ele>77.7</ele>
        <time>2022-10-06T18:24:18Z</time>
      </trkpt>
      <trkpt lat="10.2590894" lon="-85.5857475">
        <ele>78.2</ele>
        <time>2022-10-06T18:24:19Z</time>
      </trkpt>
      <trkpt lat="10.2590588" lon="-85.5857439">
        <ele>78.1</ele>
        <time>2022-10-06T18:24:20Z</time>
      </trkpt>
      <trkpt lat="10.2590289" lon="-85.5857403">
        <ele>78.1</ele>
        <time>2022-10-06T18:24:21Z</time>
      </trkpt>
      <trkpt lat="10.2590011" lon="-85.5857371">
        <ele>78.1</ele>
        <time>2022-10-06T18:24:22Z</time>
      </trkpt>
      <trkpt lat="10.2589756" lon="-85.5857349">
        <ele>78.1</ele>
        <time>2022-10-06T18:24:23Z</time>
      </trkpt>
      <trkpt lat="10.2589478" lon="-85.5857332">
        <ele>78.2</ele>
        <time>2022-10-06T18:24:24Z</time>
      </trkpt>
      <trkpt lat="10.2589242" lon="-85.5857336">
        <ele>78.2</ele>
        <time>2022-10-06T18:24:25Z</time>
      </trkpt>
      <trkpt lat="10.2589072" lon="-85.5857343">
        <ele>78.2</ele>
        <time>2022-10-06T18:24:26Z</time>
      </trkpt>
      <trkpt lat="10.2588979" lon="-85.5857365">
        <ele>78.2</ele>
        <time>2022-10-06T18:24:27Z</time>
      </trkpt>
      <trkpt lat="10.2588880" lon="-85.5857393">
        <ele>78.2</ele>
        <time>2022-10-06T18:24:28Z</time>
      </trkpt>
      <trkpt lat="10.2588757" lon="-85.5857455">
        <ele>78.1</ele>
        <time>2022-10-06T18:24:29Z</time>
      </trkpt>
      <trkpt lat="10.2588605" lon="-85.5857588">
        <ele>78.1</ele>
        <time>2022-10-06T18:24:30Z</time>
      </trkpt>
      <trkpt lat="10.2588449" lon="-85.5857776">
        <ele>78.1</ele>
        <time>2022-10-06T18:24:31Z</time>
      </trkpt>
      <trkpt lat="10.2588342" lon="-85.5858039">
        <ele>78.0</ele>
        <time>2022-10-06T18:24:32Z</time>
      </trkpt>
      <trkpt lat="10.2588241" lon="-85.5858303">
        <ele>77.9</ele>
        <time>2022-10-06T18:24:33Z</time>
      </trkpt>
      <trkpt lat="10.2588235" lon="-85.5858624">
        <ele>77.9</ele>
        <time>2022-10-06T18:24:34Z</time>
      </trkpt>
      <trkpt lat="10.2588203" lon="-85.5858960">
        <ele>77.8</ele>
        <time>2022-10-06T18:24:35Z</time>
      </trkpt>
      <trkpt lat="10.2588175" lon="-85.5859300">
        <ele>77.7</ele>
        <time>2022-10-06T18:24:36Z</time>
      </trkpt>
      <trkpt lat="10.2588125" lon="-85.5859651">
        <ele>77.6</ele>
        <time>2022-10-06T18:24:37Z</time>
      </trkpt>
      <trkpt lat="10.2588076" lon="-85.5860029">
        <ele>77.6</ele>
        <time>2022-10-06T18:24:38Z</time>
      </trkpt>
      <trkpt lat="10.2588014" lon="-85.5860400">
        <ele>77.5</ele>
        <time>2022-10-06T18:24:39Z</time>
      </trkpt>
      <trkpt lat="10.2587953" lon="-85.5860751">
        <ele>77.4</ele>
        <time>2022-10-06T18:24:40Z</time>
      </trkpt>
      <trkpt lat="10.2587917" lon="-85.5861122">
        <ele>77.4</ele>
        <time>2022-10-06T18:24:41Z</time>
      </trkpt>
      <trkpt lat="10.2587867" lon="-85.5861502">
        <ele>77.5</ele>
        <time>2022-10-06T18:24:42Z</time>
      </trkpt>
      <trkpt lat="10.2587840" lon="-85.5861900">
        <ele>77.6</ele>
        <time>2022-10-06T18:24:43Z</time>
      </trkpt>
      <trkpt lat="10.2587788" lon="-85.5862319">
        <ele>77.5</ele>
        <time>2022-10-06T18:24:44Z</time>
      </trkpt>
      <trkpt lat="10.2587739" lon="-85.5862697">
        <ele>77.5</ele>
        <time>2022-10-06T18:24:45Z</time>
      </trkpt>
      <trkpt lat="10.2587707" lon="-85.5863029">
        <ele>77.6</ele>
        <time>2022-10-06T18:24:46Z</time>
      </trkpt>
      <trkpt lat="10.2587660" lon="-85.5863348">
        <ele>77.6</ele>
        <time>2022-10-06T18:24:47Z</time>
      </trkpt>
      <trkpt lat="10.2587609" lon="-85.5863652">
        <ele>77.5</ele>
        <time>2022-10-06T18:24:48Z</time>
      </trkpt>
      <trkpt lat="10.2587567" lon="-85.5863980">
        <ele>77.3</ele>
        <time>2022-10-06T18:24:49Z</time>
      </trkpt>
      <trkpt lat="10.2587509" lon="-85.5864313">
        <ele>77.4</ele>
        <time>2022-10-06T18:24:50Z</time>
      </trkpt>
      <trkpt lat="10.2587434" lon="-85.5864660">
        <ele>77.4</ele>
        <time>2022-10-06T18:24:51Z</time>
      </trkpt>
      <trkpt lat="10.2587378" lon="-85.5864995">
        <ele>77.3</ele>
        <time>2022-10-06T18:24:52Z</time>
      </trkpt>
      <trkpt lat="10.2587313" lon="-85.5865359">
        <ele>77.3</ele>
        <time>2022-10-06T18:24:53Z</time>
      </trkpt>
      <trkpt lat="10.2587238" lon="-85.5865763">
        <ele>77.2</ele>
        <time>2022-10-06T18:24:54Z</time>
      </trkpt>
      <trkpt lat="10.2587150" lon="-85.5866193">
        <ele>77.0</ele>
        <time>2022-10-06T18:24:55Z</time>
      </trkpt>
      <trkpt lat="10.2587071" lon="-85.5866668">
        <ele>76.9</ele>
        <time>2022-10-06T18:24:56Z</time>
      </trkpt>
      <trkpt lat="10.2587013" lon="-85.5867152">
        <ele>76.9</ele>
        <time>2022-10-06T18:24:57Z</time>
      </trkpt>
      <trkpt lat="10.2586953" lon="-85.5867635">
        <ele>76.8</ele>
        <time>2022-10-06T18:24:58Z</time>
      </trkpt>
      <trkpt lat="10.2586891" lon="-85.5868109">
        <ele>76.7</ele>
        <time>2022-10-06T18:24:59Z</time>
      </trkpt>
      <trkpt lat="10.2586824" lon="-85.5868596">
        <ele>76.6</ele>
        <time>2022-10-06T18:25:00Z</time>
      </trkpt>
      <trkpt lat="10.2586753" lon="-85.5869064">
        <ele>76.6</ele>
        <time>2022-10-06T18:25:01Z</time>
      </trkpt>
      <trkpt lat="10.2586710" lon="-85.5869445">
        <ele>76.5</ele>
        <time>2022-10-06T18:25:02Z</time>
      </trkpt>
      <trkpt lat="10.2586679" lon="-85.5869699">
        <ele>76.4</ele>
        <time>2022-10-06T18:25:03Z</time>
      </trkpt>
      <trkpt lat="10.2586658" lon="-85.5869863">
        <ele>76.5</ele>
        <time>2022-10-06T18:25:04Z</time>
      </trkpt>
      <trkpt lat="10.2586642" lon="-85.5869977">
        <ele>76.4</ele>
        <time>2022-10-06T18:25:05Z</time>
      </trkpt>
      <trkpt lat="10.2586622" lon="-85.5870103">
        <ele>76.4</ele>
        <time>2022-10-06T18:25:06Z</time>
      </trkpt>
      <trkpt lat="10.2586588" lon="-85.5870314">
        <ele>76.4</ele>
        <time>2022-10-06T18:25:07Z</time>
      </trkpt>
      <trkpt lat="10.2586549" lon="-85.5870560">
        <ele>76.4</ele>
        <time>2022-10-06T18:25:08Z</time>
      </trkpt>
      <trkpt lat="10.2586500" lon="-85.5870846">
        <ele>76.3</ele>
        <time>2022-10-06T18:25:09Z</time>
      </trkpt>
      <trkpt lat="10.2586438" lon="-85.5871225">
        <ele>76.2</ele>
        <time>2022-10-06T18:25:10Z</time>
      </trkpt>
      <trkpt lat="10.2586355" lon="-85.5871693">
        <ele>76.1</ele>
        <time>2022-10-06T18:25:11Z</time>
      </trkpt>
      <trkpt lat="10.2586269" lon="-85.5872183">
        <ele>76.1</ele>
        <time>2022-10-06T18:25:12Z</time>
      </trkpt>
      <trkpt lat="10.2586192" lon="-85.5872706">
        <ele>76.1</ele>
        <time>2022-10-06T18:25:13Z</time>
      </trkpt>
      <trkpt lat="10.2586098" lon="-85.5873262">
        <ele>76.0</ele>
        <time>2022-10-06T18:25:14Z</time>
      </trkpt>
      <trkpt lat="10.2586001" lon="-85.5873865">
        <ele>75.9</ele>
        <time>2022-10-06T18:25:15Z</time>
      </trkpt>
      <trkpt lat="10.2585907" lon="-85.5874458">
        <ele>75.9</ele>
        <time>2022-10-06T18:25:16Z</time>
      </trkpt>
      <trkpt lat="10.2585818" lon="-85.5875052">
        <ele>75.8</ele>
        <time>2022-10-06T18:25:17Z</time>
      </trkpt>
      <trkpt lat="10.2585719" lon="-85.5875623">
        <ele>75.8</ele>
        <time>2022-10-06T18:25:18Z</time>
      </trkpt>
      <trkpt lat="10.2585605" lon="-85.5876209">
        <ele>75.8</ele>
        <time>2022-10-06T18:25:19Z</time>
      </trkpt>
      <trkpt lat="10.2585495" lon="-85.5876823">
        <ele>75.7</ele>
        <time>2022-10-06T18:25:20Z</time>
      </trkpt>
      <trkpt lat="10.2585376" lon="-85.5877433">
        <ele>75.7</ele>
        <time>2022-10-06T18:25:21Z</time>
      </trkpt>
      <trkpt lat="10.2585259" lon="-85.5878053">
        <ele>75.5</ele>
        <time>2022-10-06T18:25:22Z</time>
      </trkpt>
      <trkpt lat="10.2585149" lon="-85.5878660">
        <ele>75.6</ele>
        <time>2022-10-06T18:25:23Z</time>
      </trkpt>
      <trkpt lat="10.2585047" lon="-85.5879252">
        <ele>75.6</ele>
        <time>2022-10-06T18:25:24Z</time>
      </trkpt>
      <trkpt lat="10.2584946" lon="-85.5879842">
        <ele>75.5</ele>
        <time>2022-10-06T18:25:25Z</time>
      </trkpt>
      <trkpt lat="10.2584823" lon="-85.5880413">
        <ele>75.7</ele>
        <time>2022-10-06T18:25:26Z</time>
      </trkpt>
      <trkpt lat="10.2584717" lon="-85.5881010">
        <ele>75.9</ele>
        <time>2022-10-06T18:25:27Z</time>
      </trkpt>
      <trkpt lat="10.2584602" lon="-85.5881615">
        <ele>76.0</ele>
        <time>2022-10-06T18:25:28Z</time>
      </trkpt>
      <trkpt lat="10.2584494" lon="-85.5882224">
        <ele>76.1</ele>
        <time>2022-10-06T18:25:29Z</time>
      </trkpt>
      <trkpt lat="10.2584396" lon="-85.5882819">
        <ele>76.0</ele>
        <time>2022-10-06T18:25:30Z</time>
      </trkpt>
      <trkpt lat="10.2584311" lon="-85.5883437">
        <ele>76.1</ele>
        <time>2022-10-06T18:25:31Z</time>
      </trkpt>
      <trkpt lat="10.2584217" lon="-85.5884018">
        <ele>76.4</ele>
        <time>2022-10-06T18:25:32Z</time>
      </trkpt>
      <trkpt lat="10.2584128" lon="-85.5884598">
        <ele>76.4</ele>
        <time>2022-10-06T18:25:33Z</time>
      </trkpt>
      <trkpt lat="10.2584040" lon="-85.5885121">
        <ele>76.4</ele>
        <time>2022-10-06T18:25:34Z</time>
      </trkpt>
      <trkpt lat="10.2583958" lon="-85.5885605">
        <ele>76.4</ele>
        <time>2022-10-06T18:25:35Z</time>
      </trkpt>
      <trkpt lat="10.2583895" lon="-85.5886003">
        <ele>76.4</ele>
        <time>2022-10-06T18:25:36Z</time>
      </trkpt>
      <trkpt lat="10.2583849" lon="-85.5886365">
        <ele>76.5</ele>
        <time>2022-10-06T18:25:37Z</time>
      </trkpt>
      <trkpt lat="10.2583803" lon="-85.5886684">
        <ele>76.6</ele>
        <time>2022-10-06T18:25:38Z</time>
      </trkpt>
      <trkpt lat="10.2583770" lon="-85.5886925">
        <ele>76.6</ele>
        <time>2022-10-06T18:25:39Z</time>
      </trkpt>
      <trkpt lat="10.2583745" lon="-85.5887087">
        <ele>76.6</ele>
        <time>2022-10-06T18:25:40Z</time>
      </trkpt>
      <trkpt lat="10.2583731" lon="-85.5887244">
        <ele>76.6</ele>
        <time>2022-10-06T18:25:41Z</time>
      </trkpt>
      <trkpt lat="10.2583701" lon="-85.5887454">
        <ele>76.6</ele>
        <time>2022-10-06T18:25:42Z</time>
      </trkpt>
      <trkpt lat="10.2583662" lon="-85.5887713">
        <ele>76.6</ele>
        <time>2022-10-06T18:25:43Z</time>
      </trkpt>
      <trkpt lat="10.2583601" lon="-85.5887997">
        <ele>76.3</ele>
        <time>2022-10-06T18:25:44Z</time>
      </trkpt>
      <trkpt lat="10.2583526" lon="-85.5888347">
        <ele>76.3</ele>
        <time>2022-10-06T18:25:45Z</time>
      </trkpt>
      <trkpt lat="10.2583434" lon="-85.5888720">
        <ele>76.4</ele>
        <time>2022-10-06T18:25:46Z</time>
      </trkpt>
      <trkpt lat="10.2583339" lon="-85.5889160">
        <ele>76.4</ele>
        <time>2022-10-06T18:25:47Z</time>
      </trkpt>
      <trkpt lat="10.2583263" lon="-85.5889638">
        <ele>76.5</ele>
        <time>2022-10-06T18:25:48Z</time>
      </trkpt>
      <trkpt lat="10.2583163" lon="-85.5890146">
        <ele>76.7</ele>
        <time>2022-10-06T18:25:49Z</time>
      </trkpt>
      <trkpt lat="10.2583054" lon="-85.5890647">
        <ele>76.6</ele>
        <time>2022-10-06T18:25:50Z</time>
      </trkpt>
      <trkpt lat="10.2582949" lon="-85.5891153">
        <ele>76.7</ele>
        <time>2022-10-06T18:25:51Z</time>
      </trkpt>
      <trkpt lat="10.2582851" lon="-85.5891690">
        <ele>76.8</ele>
        <time>2022-10-06T18:25:52Z</time>
      </trkpt>
      <trkpt lat="10.2582758" lon="-85.5892170">
        <ele>76.7</ele>
        <time>2022-10-06T18:25:53Z</time>
      </trkpt>
      <trkpt lat="10.2582680" lon="-85.5892613">
        <ele>76.8</ele>
        <time>2022-10-06T18:25:54Z</time>
      </trkpt>
      <trkpt lat="10.2582610" lon="-85.5893061">
        <ele>76.8</ele>
        <time>2022-10-06T18:25:55Z</time>
      </trkpt>
      <trkpt lat="10.2582535" lon="-85.5893457">
        <ele>76.8</ele>
        <time>2022-10-06T18:25:56Z</time>
      </trkpt>
      <trkpt lat="10.2582474" lon="-85.5893850">
        <ele>76.8</ele>
        <time>2022-10-06T18:25:57Z</time>
      </trkpt>
      <trkpt lat="10.2582419" lon="-85.5894236">
        <ele>76.8</ele>
        <time>2022-10-06T18:25:58Z</time>
      </trkpt>
      <trkpt lat="10.2582357" lon="-85.5894628">
        <ele>76.8</ele>
        <time>2022-10-06T18:25:59Z</time>
      </trkpt>
      <trkpt lat="10.2582289" lon="-85.5895028">
        <ele>76.8</ele>
        <time>2022-10-06T18:26:00Z</time>
      </trkpt>
      <trkpt lat="10.2582231" lon="-85.5895376">
        <ele>76.9</ele>
        <time>2022-10-06T18:26:01Z</time>
      </trkpt>
      <trkpt lat="10.2582221" lon="-85.5895688">
        <ele>76.9</ele>
        <time>2022-10-06T18:26:02Z</time>
      </trkpt>
      <trkpt lat="10.2582273" lon="-85.5895933">
        <ele>76.9</ele>
        <time>2022-10-06T18:26:03Z</time>
      </trkpt>
      <trkpt lat="10.2582304" lon="-85.5896086">
        <ele>76.9</ele>
        <time>2022-10-06T18:26:04Z</time>
      </trkpt>
      <trkpt lat="10.2582297" lon="-85.5896176">
        <ele>76.9</ele>
        <time>2022-10-06T18:26:05Z</time>
      </trkpt>
      <trkpt lat="10.2582297" lon="-85.5896176">
        <ele>76.9</ele>
        <time>2022-10-06T18:26:06Z</time>
      </trkpt>
      <trkpt lat="10.2582297" lon="-85.5896176">
        <ele>76.9</ele>
        <time>2022-10-06T18:26:07Z</time>
      </trkpt>
      <trkpt lat="10.2582297" lon="-85.5896176">
        <ele>76.9</ele>
        <time>2022-10-06T18:26:08Z</time>
      </trkpt>
      <trkpt lat="10.2582297" lon="-85.5896176">
        <ele>76.8</ele>
        <time>2022-10-06T18:26:09Z</time>
      </trkpt>
      <trkpt lat="10.2582297" lon="-85.5896176">
        <ele>76.8</ele>
        <time>2022-10-06T18:26:10Z</time>
      </trkpt>
      <trkpt lat="10.2582297" lon="-85.5896176">
        <ele>76.8</ele>
        <time>2022-10-06T18:26:11Z</time>
      </trkpt>
      <trkpt lat="10.2582297" lon="-85.5896176">
        <ele>76.8</ele>
        <time>2022-10-06T18:26:12Z</time>
      </trkpt>
      <trkpt lat="10.2582292" lon="-85.5896323">
        <ele>76.8</ele>
        <time>2022-10-06T18:26:13Z</time>
      </trkpt>
      <trkpt lat="10.2582292" lon="-85.5896323">
        <ele>76.8</ele>
        <time>2022-10-06T18:26:14Z</time>
      </trkpt>
      <trkpt lat="10.2582292" lon="-85.5896323">
        <ele>76.8</ele>
        <time>2022-10-06T18:26:15Z</time>
      </trkpt>
      <trkpt lat="10.2582292" lon="-85.5896323">
        <ele>76.8</ele>
        <time>2022-10-06T18:26:16Z</time>
      </trkpt>
      <trkpt lat="10.2582232" lon="-85.5896359">
        <ele>76.6</ele>
        <time>2022-10-06T18:26:17Z</time>
      </trkpt>
      <trkpt lat="10.2582269" lon="-85.5896377">
        <ele>76.6</ele>
        <time>2022-10-06T18:26:18Z</time>
      </trkpt>
      <trkpt lat="10.2582288" lon="-85.5896441">
        <ele>76.6</ele>
        <time>2022-10-06T18:26:19Z</time>
      </trkpt>
      <trkpt lat="10.2582331" lon="-85.5896505">
        <ele>76.8</ele>
        <time>2022-10-06T18:26:20Z</time>
      </trkpt>
      <trkpt lat="10.2582425" lon="-85.5896527">
        <ele>76.9</ele>
        <time>2022-10-06T18:26:21Z</time>
      </trkpt>
      <trkpt lat="10.2582487" lon="-85.5896570">
        <ele>77.0</ele>
        <time>2022-10-06T18:26:22Z</time>
      </trkpt>
      <trkpt lat="10.2582570" lon="-85.5896598">
        <ele>77.1</ele>
        <time>2022-10-06T18:26:23Z</time>
      </trkpt>
      <trkpt lat="10.2582719" lon="-85.5896590">
        <ele>77.2</ele>
        <time>2022-10-06T18:26:24Z</time>
      </trkpt>
      <trkpt lat="10.2582890" lon="-85.5896515">
        <ele>77.3</ele>
        <time>2022-10-06T18:26:25Z</time>
      </trkpt>
      <trkpt lat="10.2583021" lon="-85.5896497">
        <ele>77.4</ele>
        <time>2022-10-06T18:26:26Z</time>
      </trkpt>
      <trkpt lat="10.2583135" lon="-85.5896476">
        <ele>77.2</ele>
        <time>2022-10-06T18:26:27Z</time>
      </trkpt>
      <trkpt lat="10.2583226" lon="-85.5896461">
        <ele>77.2</ele>
        <time>2022-10-06T18:26:28Z</time>
      </trkpt>
      <trkpt lat="10.2583328" lon="-85.5896442">
        <ele>77.1</ele>
        <time>2022-10-06T18:26:29Z</time>
      </trkpt>
      <trkpt lat="10.2583447" lon="-85.5896412">
        <ele>77.2</ele>
        <time>2022-10-06T18:26:30Z</time>
      </trkpt>
      <trkpt lat="10.2583554" lon="-85.5896417">
        <ele>77.1</ele>
        <time>2022-10-06T18:26:31Z</time>
      </trkpt>
      <trkpt lat="10.2583624" lon="-85.5896414">
        <ele>77.2</ele>
        <time>2022-10-06T18:26:32Z</time>
      </trkpt>
      <trkpt lat="10.2583714" lon="-85.5896428">
        <ele>77.2</ele>
        <time>2022-10-06T18:26:33Z</time>
      </trkpt>
      <trkpt lat="10.2583783" lon="-85.5896424">
        <ele>77.2</ele>
        <time>2022-10-06T18:26:34Z</time>
      </trkpt>
      <trkpt lat="10.2583808" lon="-85.5896415">
        <ele>77.2</ele>
        <time>2022-10-06T18:26:35Z</time>
      </trkpt>
      <trkpt lat="10.2583808" lon="-85.5896415">
        <ele>77.2</ele>
        <time>2022-10-06T18:26:36Z</time>
      </trkpt>
      <trkpt lat="10.2583808" lon="-85.5896415">
        <ele>77.2</ele>
        <time>2022-10-06T18:26:37Z</time>
      </trkpt>
      <trkpt lat="10.2583808" lon="-85.5896415">
        <ele>77.2</ele>
        <time>2022-10-06T18:26:38Z</time>
      </trkpt>
      <trkpt lat="10.2583808" lon="-85.5896415">
        <ele>77.2</ele>
        <time>2022-10-06T18:26:39Z</time>
      </trkpt>
      <trkpt lat="10.2583808" lon="-85.5896415">
        <ele>77.2</ele>
        <time>2022-10-06T18:26:40Z</time>
      </trkpt>
      <trkpt lat="10.2583808" lon="-85.5896415">
        <ele>77.2</ele>
        <time>2022-10-06T18:26:41Z</time>
      </trkpt>
      <trkpt lat="10.2583808" lon="-85.5896415">
        <ele>77.2</ele>
        <time>2022-10-06T18:26:42Z</time>
      </trkpt>
      <trkpt lat="10.2583808" lon="-85.5896415">
        <ele>77.1</ele>
        <time>2022-10-06T18:26:43Z</time>
      </trkpt>
      <trkpt lat="10.2583808" lon="-85.5896415">
        <ele>77.1</ele>
        <time>2022-10-06T18:26:44Z</time>
      </trkpt>
      <trkpt lat="10.2583808" lon="-85.5896415">
        <ele>77.1</ele>
        <time>2022-10-06T18:26:45Z</time>
      </trkpt>
      <trkpt lat="10.2583808" lon="-85.5896415">
        <ele>77.0</ele>
        <time>2022-10-06T18:26:46Z</time>
      </trkpt>
      <trkpt lat="10.2583808" lon="-85.5896415">
        <ele>77.0</ele>
        <time>2022-10-06T18:26:47Z</time>
      </trkpt>
      <trkpt lat="10.2583808" lon="-85.5896415">
        <ele>76.9</ele>
        <time>2022-10-06T18:26:48Z</time>
      </trkpt>
      <trkpt lat="10.2583808" lon="-85.5896415">
        <ele>76.9</ele>
        <time>2022-10-06T18:26:49Z</time>
      </trkpt>
      <trkpt lat="10.2583808" lon="-85.5896415">
        <ele>76.9</ele>
        <time>2022-10-06T18:26:50Z</time>
      </trkpt>
      <trkpt lat="10.2583808" lon="-85.5896415">
        <ele>76.8</ele>
        <time>2022-10-06T18:26:51Z</time>
      </trkpt>
      <trkpt lat="10.2583808" lon="-85.5896415">
        <ele>76.8</ele>
        <time>2022-10-06T18:26:52Z</time>
      </trkpt>
      <trkpt lat="10.2583808" lon="-85.5896415">
        <ele>76.7</ele>
        <time>2022-10-06T18:26:53Z</time>
      </trkpt>
      <trkpt lat="10.2583808" lon="-85.5896415">
        <ele>76.6</ele>
        <time>2022-10-06T18:26:54Z</time>
      </trkpt>
      <trkpt lat="10.2583808" lon="-85.5896415">
        <ele>76.6</ele>
        <time>2022-10-06T18:26:55Z</time>
      </trkpt>
      <trkpt lat="10.2583808" lon="-85.5896415">
        <ele>76.6</ele>
        <time>2022-10-06T18:26:56Z</time>
      </trkpt>
      <trkpt lat="10.2583808" lon="-85.5896415">
        <ele>76.6</ele>
        <time>2022-10-06T18:26:57Z</time>
      </trkpt>
      <trkpt lat="10.2583808" lon="-85.5896415">
        <ele>76.6</ele>
        <time>2022-10-06T18:26:58Z</time>
      </trkpt>
      <trkpt lat="10.2583808" lon="-85.5896415">
        <ele>76.5</ele>
        <time>2022-10-06T18:26:59Z</time>
      </trkpt>
      <trkpt lat="10.2583808" lon="-85.5896415">
        <ele>76.5</ele>
        <time>2022-10-06T18:27:00Z</time>
      </trkpt>
      <trkpt lat="10.2583808" lon="-85.5896415">
        <ele>76.5</ele>
        <time>2022-10-06T18:27:01Z</time>
      </trkpt>
      <trkpt lat="10.2583808" lon="-85.5896415">
        <ele>76.5</ele>
        <time>2022-10-06T18:27:02Z</time>
      </trkpt>
      <trkpt lat="10.2583808" lon="-85.5896415">
        <ele>76.4</ele>
        <time>2022-10-06T18:27:03Z</time>
      </trkpt>
      <trkpt lat="10.2583808" lon="-85.5896415">
        <ele>76.5</ele>
        <time>2022-10-06T18:27:04Z</time>
      </trkpt>
      <trkpt lat="10.2584101" lon="-85.5896385">
        <ele>76.0</ele>
        <time>2022-10-06T18:27:05Z</time>
      </trkpt>
      <trkpt lat="10.2584154" lon="-85.5896450">
        <ele>75.1</ele>
        <time>2022-10-06T18:27:06Z</time>
      </trkpt>
      <trkpt lat="10.2584154" lon="-85.5896450">
        <ele>75.3</ele>
        <time>2022-10-06T18:27:07Z</time>
      </trkpt>
      <trkpt lat="10.2584154" lon="-85.5896450">
        <ele>75.6</ele>
        <time>2022-10-06T18:27:08Z</time>
      </trkpt>
      <trkpt lat="10.2584154" lon="-85.5896450">
        <ele>75.7</ele>
        <time>2022-10-06T18:27:09Z</time>
      </trkpt>
      <trkpt lat="10.2584154" lon="-85.5896450">
        <ele>75.7</ele>
        <time>2022-10-06T18:27:10Z</time>
      </trkpt>
      <trkpt lat="10.2584154" lon="-85.5896450">
        <ele>75.7</ele>
        <time>2022-10-06T18:27:11Z</time>
      </trkpt>
      <trkpt lat="10.2584154" lon="-85.5896450">
        <ele>75.8</ele>
        <time>2022-10-06T18:27:12Z</time>
      </trkpt>
      <trkpt lat="10.2584151" lon="-85.5896452">
        <ele>76.4</ele>
        <time>2022-10-06T18:27:13Z</time>
      </trkpt>
      <trkpt lat="10.2584151" lon="-85.5896452">
        <ele>76.5</ele>
        <time>2022-10-06T18:27:14Z</time>
      </trkpt>
      <trkpt lat="10.2584151" lon="-85.5896452">
        <ele>76.4</ele>
        <time>2022-10-06T18:27:15Z</time>
      </trkpt>
      <trkpt lat="10.2584139" lon="-85.5896510">
        <ele>76.5</ele>
        <time>2022-10-06T18:27:16Z</time>
      </trkpt>
      <trkpt lat="10.2584141" lon="-85.5896574">
        <ele>76.6</ele>
        <time>2022-10-06T18:27:17Z</time>
      </trkpt>
      <trkpt lat="10.2584141" lon="-85.5896574">
        <ele>76.5</ele>
        <time>2022-10-06T18:27:18Z</time>
      </trkpt>
      <trkpt lat="10.2584141" lon="-85.5896574">
        <ele>76.6</ele>
        <time>2022-10-06T18:27:19Z</time>
      </trkpt>
      <trkpt lat="10.2584141" lon="-85.5896574">
        <ele>76.6</ele>
        <time>2022-10-06T18:27:20Z</time>
      </trkpt>
      <trkpt lat="10.2584141" lon="-85.5896574">
        <ele>76.7</ele>
        <time>2022-10-06T18:27:21Z</time>
      </trkpt>
      <trkpt lat="10.2584141" lon="-85.5896574">
        <ele>76.7</ele>
        <time>2022-10-06T18:27:22Z</time>
      </trkpt>
      <trkpt lat="10.2584014" lon="-85.5896626">
        <ele>76.8</ele>
        <time>2022-10-06T18:27:23Z</time>
      </trkpt>
      <trkpt lat="10.2583923" lon="-85.5896611">
        <ele>76.9</ele>
        <time>2022-10-06T18:27:24Z</time>
      </trkpt>
      <trkpt lat="10.2583907" lon="-85.5896556">
        <ele>76.9</ele>
        <time>2022-10-06T18:27:25Z</time>
      </trkpt>
      <trkpt lat="10.2583907" lon="-85.5896556">
        <ele>76.9</ele>
        <time>2022-10-06T18:27:26Z</time>
      </trkpt>
      <trkpt lat="10.2583907" lon="-85.5896556">
        <ele>77.1</ele>
        <time>2022-10-06T18:27:27Z</time>
      </trkpt>
      <trkpt lat="10.2583907" lon="-85.5896556">
        <ele>77.1</ele>
        <time>2022-10-06T18:27:28Z</time>
      </trkpt>
      <trkpt lat="10.2583907" lon="-85.5896556">
        <ele>77.1</ele>
        <time>2022-10-06T18:27:29Z</time>
      </trkpt>
      <trkpt lat="10.2583907" lon="-85.5896556">
        <ele>77.1</ele>
        <time>2022-10-06T18:27:30Z</time>
      </trkpt>
      <trkpt lat="10.2583802" lon="-85.5896632">
        <ele>77.3</ele>
        <time>2022-10-06T18:27:31Z</time>
      </trkpt>
      <trkpt lat="10.2583802" lon="-85.5896632">
        <ele>77.3</ele>
        <time>2022-10-06T18:27:32Z</time>
      </trkpt>
      <trkpt lat="10.2583802" lon="-85.5896632">
        <ele>77.3</ele>
        <time>2022-10-06T18:27:33Z</time>
      </trkpt>
      <trkpt lat="10.2583802" lon="-85.5896632">
        <ele>77.3</ele>
        <time>2022-10-06T18:27:34Z</time>
      </trkpt>
      <trkpt lat="10.2583802" lon="-85.5896632">
        <ele>77.2</ele>
        <time>2022-10-06T18:27:35Z</time>
      </trkpt>
      <trkpt lat="10.2583809" lon="-85.5896679">
        <ele>77.4</ele>
        <time>2022-10-06T18:27:36Z</time>
      </trkpt>
      <trkpt lat="10.2583809" lon="-85.5896679">
        <ele>77.4</ele>
        <time>2022-10-06T18:27:37Z</time>
      </trkpt>
      <trkpt lat="10.2583809" lon="-85.5896679">
        <ele>77.0</ele>
        <time>2022-10-06T18:27:38Z</time>
      </trkpt>
      <trkpt lat="10.2583809" lon="-85.5896679">
        <ele>77.1</ele>
        <time>2022-10-06T18:27:39Z</time>
      </trkpt>
      <trkpt lat="10.2583809" lon="-85.5896679">
        <ele>77.2</ele>
        <time>2022-10-06T18:27:40Z</time>
      </trkpt>
      <trkpt lat="10.2583809" lon="-85.5896679">
        <ele>77.3</ele>
        <time>2022-10-06T18:27:41Z</time>
      </trkpt>
      <trkpt lat="10.2583809" lon="-85.5896679">
        <ele>77.3</ele>
        <time>2022-10-06T18:27:42Z</time>
      </trkpt>
      <trkpt lat="10.2583813" lon="-85.5896600">
        <ele>77.3</ele>
        <time>2022-10-06T18:27:43Z</time>
      </trkpt>
      <trkpt lat="10.2583738" lon="-85.5896611">
        <ele>77.3</ele>
        <time>2022-10-06T18:27:44Z</time>
      </trkpt>
      <trkpt lat="10.2583659" lon="-85.5896601">
        <ele>77.3</ele>
        <time>2022-10-06T18:27:45Z</time>
      </trkpt>
      <trkpt lat="10.2583581" lon="-85.5896602">
        <ele>77.5</ele>
        <time>2022-10-06T18:27:46Z</time>
      </trkpt>
      <trkpt lat="10.2583456" lon="-85.5896582">
        <ele>77.5</ele>
        <time>2022-10-06T18:27:47Z</time>
      </trkpt>
      <trkpt lat="10.2583330" lon="-85.5896516">
        <ele>77.5</ele>
        <time>2022-10-06T18:27:48Z</time>
      </trkpt>
      <trkpt lat="10.2583211" lon="-85.5896502">
        <ele>77.6</ele>
        <time>2022-10-06T18:27:49Z</time>
      </trkpt>
      <trkpt lat="10.2583082" lon="-85.5896479">
        <ele>77.5</ele>
        <time>2022-10-06T18:27:50Z</time>
      </trkpt>
      <trkpt lat="10.2583082" lon="-85.5896479">
        <ele>77.5</ele>
        <time>2022-10-06T18:27:51Z</time>
      </trkpt>
      <trkpt lat="10.2583082" lon="-85.5896479">
        <ele>77.4</ele>
        <time>2022-10-06T18:27:52Z</time>
      </trkpt>
      <trkpt lat="10.2583082" lon="-85.5896479">
        <ele>77.5</ele>
        <time>2022-10-06T18:27:53Z</time>
      </trkpt>
      <trkpt lat="10.2583082" lon="-85.5896479">
        <ele>77.4</ele>
        <time>2022-10-06T18:27:54Z</time>
      </trkpt>
      <trkpt lat="10.2583082" lon="-85.5896479">
        <ele>77.4</ele>
        <time>2022-10-06T18:27:55Z</time>
      </trkpt>
      <trkpt lat="10.2583082" lon="-85.5896479">
        <ele>77.3</ele>
        <time>2022-10-06T18:27:56Z</time>
      </trkpt>
      <trkpt lat="10.2583082" lon="-85.5896479">
        <ele>77.3</ele>
        <time>2022-10-06T18:27:57Z</time>
      </trkpt>
      <trkpt lat="10.2583082" lon="-85.5896479">
        <ele>77.4</ele>
        <time>2022-10-06T18:27:58Z</time>
      </trkpt>
      <trkpt lat="10.2583082" lon="-85.5896479">
        <ele>77.4</ele>
        <time>2022-10-06T18:27:59Z</time>
      </trkpt>
      <trkpt lat="10.2583082" lon="-85.5896479">
        <ele>77.4</ele>
        <time>2022-10-06T18:28:00Z</time>
      </trkpt>
      <trkpt lat="10.2582772" lon="-85.5896379">
        <ele>77.3</ele>
        <time>2022-10-06T18:28:01Z</time>
      </trkpt>
      <trkpt lat="10.2582707" lon="-85.5896367">
        <ele>77.4</ele>
        <time>2022-10-06T18:28:02Z</time>
      </trkpt>
      <trkpt lat="10.2582648" lon="-85.5896361">
        <ele>77.4</ele>
        <time>2022-10-06T18:28:03Z</time>
      </trkpt>
      <trkpt lat="10.2582597" lon="-85.5896348">
        <ele>77.4</ele>
        <time>2022-10-06T18:28:04Z</time>
      </trkpt>
      <trkpt lat="10.2582550" lon="-85.5896346">
        <ele>77.4</ele>
        <time>2022-10-06T18:28:05Z</time>
      </trkpt>
      <trkpt lat="10.2582513" lon="-85.5896344">
        <ele>77.4</ele>
        <time>2022-10-06T18:28:06Z</time>
      </trkpt>
      <trkpt lat="10.2582513" lon="-85.5896344">
        <ele>77.4</ele>
        <time>2022-10-06T18:28:07Z</time>
      </trkpt>
      <trkpt lat="10.2582476" lon="-85.5896328">
        <ele>77.4</ele>
        <time>2022-10-06T18:28:08Z</time>
      </trkpt>
      <trkpt lat="10.2582476" lon="-85.5896328">
        <ele>77.3</ele>
        <time>2022-10-06T18:28:09Z</time>
      </trkpt>
      <trkpt lat="10.2582476" lon="-85.5896328">
        <ele>77.4</ele>
        <time>2022-10-06T18:28:10Z</time>
      </trkpt>
      <trkpt lat="10.2582476" lon="-85.5896328">
        <ele>77.4</ele>
        <time>2022-10-06T18:28:11Z</time>
      </trkpt>
      <trkpt lat="10.2582476" lon="-85.5896328">
        <ele>77.4</ele>
        <time>2022-10-06T18:28:12Z</time>
      </trkpt>
      <trkpt lat="10.2582476" lon="-85.5896328">
        <ele>77.4</ele>
        <time>2022-10-06T18:28:13Z</time>
      </trkpt>
      <trkpt lat="10.2582476" lon="-85.5896328">
        <ele>77.5</ele>
        <time>2022-10-06T18:28:14Z</time>
      </trkpt>
      <trkpt lat="10.2582476" lon="-85.5896328">
        <ele>77.3</ele>
        <time>2022-10-06T18:28:15Z</time>
      </trkpt>
      <trkpt lat="10.2582476" lon="-85.5896328">
        <ele>77.4</ele>
        <time>2022-10-06T18:28:16Z</time>
      </trkpt>
      <trkpt lat="10.2582476" lon="-85.5896328">
        <ele>77.6</ele>
        <time>2022-10-06T18:28:17Z</time>
      </trkpt>
      <trkpt lat="10.2582476" lon="-85.5896328">
        <ele>77.7</ele>
        <time>2022-10-06T18:28:18Z</time>
      </trkpt>
      <trkpt lat="10.2582476" lon="-85.5896328">
        <ele>77.6</ele>
        <time>2022-10-06T18:28:19Z</time>
      </trkpt>
      <trkpt lat="10.2582476" lon="-85.5896328">
        <ele>77.6</ele>
        <time>2022-10-06T18:28:20Z</time>
      </trkpt>
      <trkpt lat="10.2582476" lon="-85.5896328">
        <ele>77.6</ele>
        <time>2022-10-06T18:28:21Z</time>
      </trkpt>
      <trkpt lat="10.2582476" lon="-85.5896328">
        <ele>77.9</ele>
        <time>2022-10-06T18:28:22Z</time>
      </trkpt>
      <trkpt lat="10.2582476" lon="-85.5896328">
        <ele>78.1</ele>
        <time>2022-10-06T18:28:23Z</time>
      </trkpt>
      <trkpt lat="10.2582476" lon="-85.5896328">
        <ele>78.1</ele>
        <time>2022-10-06T18:28:24Z</time>
      </trkpt>
      <trkpt lat="10.2582476" lon="-85.5896328">
        <ele>77.9</ele>
        <time>2022-10-06T18:28:25Z</time>
      </trkpt>
      <trkpt lat="10.2582476" lon="-85.5896328">
        <ele>77.9</ele>
        <time>2022-10-06T18:28:26Z</time>
      </trkpt>
      <trkpt lat="10.2582476" lon="-85.5896328">
        <ele>78.1</ele>
        <time>2022-10-06T18:28:27Z</time>
      </trkpt>
      <trkpt lat="10.2582476" lon="-85.5896328">
        <ele>78.1</ele>
        <time>2022-10-06T18:28:28Z</time>
      </trkpt>
      <trkpt lat="10.2582476" lon="-85.5896328">
        <ele>78.1</ele>
        <time>2022-10-06T18:28:29Z</time>
      </trkpt>
      <trkpt lat="10.2582476" lon="-85.5896328">
        <ele>78.2</ele>
        <time>2022-10-06T18:28:30Z</time>
      </trkpt>
      <trkpt lat="10.2582476" lon="-85.5896328">
        <ele>78.1</ele>
        <time>2022-10-06T18:28:31Z</time>
      </trkpt>
      <trkpt lat="10.2582476" lon="-85.5896328">
        <ele>78.2</ele>
        <time>2022-10-06T18:28:32Z</time>
      </trkpt>
      <trkpt lat="10.2582476" lon="-85.5896328">
        <ele>78.3</ele>
        <time>2022-10-06T18:28:33Z</time>
      </trkpt>
      <trkpt lat="10.2582476" lon="-85.5896328">
        <ele>78.3</ele>
        <time>2022-10-06T18:28:34Z</time>
      </trkpt>
      <trkpt lat="10.2582476" lon="-85.5896328">
        <ele>78.5</ele>
        <time>2022-10-06T18:28:35Z</time>
      </trkpt>
      <trkpt lat="10.2582401" lon="-85.5896488">
        <ele>78.5</ele>
        <time>2022-10-06T18:28:36Z</time>
      </trkpt>
      <trkpt lat="10.2582390" lon="-85.5896471">
        <ele>78.5</ele>
        <time>2022-10-06T18:28:37Z</time>
      </trkpt>
      <trkpt lat="10.2582368" lon="-85.5896455">
        <ele>78.6</ele>
        <time>2022-10-06T18:28:38Z</time>
      </trkpt>
      <trkpt lat="10.2582368" lon="-85.5896455">
        <ele>78.6</ele>
        <time>2022-10-06T18:28:39Z</time>
      </trkpt>
      <trkpt lat="10.2582368" lon="-85.5896455">
        <ele>78.6</ele>
        <time>2022-10-06T18:28:40Z</time>
      </trkpt>
      <trkpt lat="10.2582368" lon="-85.5896455">
        <ele>78.6</ele>
        <time>2022-10-06T18:28:41Z</time>
      </trkpt>
      <trkpt lat="10.2582368" lon="-85.5896455">
        <ele>78.5</ele>
        <time>2022-10-06T18:28:42Z</time>
      </trkpt>
      <trkpt lat="10.2582368" lon="-85.5896455">
        <ele>78.5</ele>
        <time>2022-10-06T18:28:43Z</time>
      </trkpt>
      <trkpt lat="10.2582368" lon="-85.5896455">
        <ele>78.6</ele>
        <time>2022-10-06T18:28:44Z</time>
      </trkpt>
      <trkpt lat="10.2582368" lon="-85.5896455">
        <ele>78.6</ele>
        <time>2022-10-06T18:28:45Z</time>
      </trkpt>
      <trkpt lat="10.2582368" lon="-85.5896455">
        <ele>78.5</ele>
        <time>2022-10-06T18:28:46Z</time>
      </trkpt>
      <trkpt lat="10.2582368" lon="-85.5896455">
        <ele>78.4</ele>
        <time>2022-10-06T18:28:47Z</time>
      </trkpt>
      <trkpt lat="10.2582368" lon="-85.5896455">
        <ele>78.4</ele>
        <time>2022-10-06T18:28:48Z</time>
      </trkpt>
      <trkpt lat="10.2582368" lon="-85.5896455">
        <ele>78.4</ele>
        <time>2022-10-06T18:28:49Z</time>
      </trkpt>
      <trkpt lat="10.2582368" lon="-85.5896455">
        <ele>78.4</ele>
        <time>2022-10-06T18:28:50Z</time>
      </trkpt>
      <trkpt lat="10.2582368" lon="-85.5896455">
        <ele>78.3</ele>
        <time>2022-10-06T18:28:51Z</time>
      </trkpt>
      <trkpt lat="10.2582368" lon="-85.5896455">
        <ele>78.3</ele>
        <time>2022-10-06T18:28:52Z</time>
      </trkpt>
      <trkpt lat="10.2582368" lon="-85.5896455">
        <ele>78.3</ele>
        <time>2022-10-06T18:28:53Z</time>
      </trkpt>
      <trkpt lat="10.2582368" lon="-85.5896455">
        <ele>78.3</ele>
        <time>2022-10-06T18:28:54Z</time>
      </trkpt>
      <trkpt lat="10.2582368" lon="-85.5896455">
        <ele>78.3</ele>
        <time>2022-10-06T18:28:55Z</time>
      </trkpt>
      <trkpt lat="10.2582368" lon="-85.5896455">
        <ele>78.3</ele>
        <time>2022-10-06T18:28:56Z</time>
      </trkpt>
      <trkpt lat="10.2582368" lon="-85.5896455">
        <ele>78.2</ele>
        <time>2022-10-06T18:28:57Z</time>
      </trkpt>
      <trkpt lat="10.2582368" lon="-85.5896455">
        <ele>78.2</ele>
        <time>2022-10-06T18:28:58Z</time>
      </trkpt>
      <trkpt lat="10.2582368" lon="-85.5896455">
        <ele>78.2</ele>
        <time>2022-10-06T18:28:59Z</time>
      </trkpt>
      <trkpt lat="10.2582368" lon="-85.5896455">
        <ele>78.2</ele>
        <time>2022-10-06T18:29:00Z</time>
      </trkpt>
      <trkpt lat="10.2582368" lon="-85.5896455">
        <ele>78.2</ele>
        <time>2022-10-06T18:29:01Z</time>
      </trkpt>
      <trkpt lat="10.2582368" lon="-85.5896455">
        <ele>78.2</ele>
        <time>2022-10-06T18:29:02Z</time>
      </trkpt>
      <trkpt lat="10.2582368" lon="-85.5896455">
        <ele>78.1</ele>
        <time>2022-10-06T18:29:03Z</time>
      </trkpt>
      <trkpt lat="10.2582368" lon="-85.5896455">
        <ele>78.2</ele>
        <time>2022-10-06T18:29:04Z</time>
      </trkpt>
      <trkpt lat="10.2582368" lon="-85.5896455">
        <ele>78.2</ele>
        <time>2022-10-06T18:29:05Z</time>
      </trkpt>
      <trkpt lat="10.2582368" lon="-85.5896455">
        <ele>78.1</ele>
        <time>2022-10-06T18:29:06Z</time>
      </trkpt>
      <trkpt lat="10.2582368" lon="-85.5896455">
        <ele>78.1</ele>
        <time>2022-10-06T18:29:07Z</time>
      </trkpt>
      <trkpt lat="10.2582368" lon="-85.5896455">
        <ele>78.1</ele>
        <time>2022-10-06T18:29:08Z</time>
      </trkpt>
      <trkpt lat="10.2582368" lon="-85.5896455">
        <ele>78.0</ele>
        <time>2022-10-06T18:29:09Z</time>
      </trkpt>
      <trkpt lat="10.2582368" lon="-85.5896455">
        <ele>78.0</ele>
        <time>2022-10-06T18:29:10Z</time>
      </trkpt>
      <trkpt lat="10.2582368" lon="-85.5896455">
        <ele>77.9</ele>
        <time>2022-10-06T18:29:11Z</time>
      </trkpt>
      <trkpt lat="10.2582368" lon="-85.5896455">
        <ele>78.0</ele>
        <time>2022-10-06T18:29:12Z</time>
      </trkpt>
      <trkpt lat="10.2582368" lon="-85.5896455">
        <ele>78.0</ele>
        <time>2022-10-06T18:29:13Z</time>
      </trkpt>
      <trkpt lat="10.2582368" lon="-85.5896455">
        <ele>78.0</ele>
        <time>2022-10-06T18:29:14Z</time>
      </trkpt>
      <trkpt lat="10.2582241" lon="-85.5896440">
        <ele>78.0</ele>
        <time>2022-10-06T18:29:15Z</time>
      </trkpt>
      <trkpt lat="10.2582131" lon="-85.5896489">
        <ele>77.9</ele>
        <time>2022-10-06T18:29:16Z</time>
      </trkpt>
      <trkpt lat="10.2582006" lon="-85.5896622">
        <ele>77.8</ele>
        <time>2022-10-06T18:29:17Z</time>
      </trkpt>
      <trkpt lat="10.2581917" lon="-85.5896839">
        <ele>78.3</ele>
        <time>2022-10-06T18:29:18Z</time>
      </trkpt>
      <trkpt lat="10.2581830" lon="-85.5897046">
        <ele>78.4</ele>
        <time>2022-10-06T18:29:19Z</time>
      </trkpt>
      <trkpt lat="10.2581773" lon="-85.5897285">
        <ele>78.5</ele>
        <time>2022-10-06T18:29:20Z</time>
      </trkpt>
      <trkpt lat="10.2581719" lon="-85.5897512">
        <ele>78.3</ele>
        <time>2022-10-06T18:29:21Z</time>
      </trkpt>
      <trkpt lat="10.2581686" lon="-85.5897714">
        <ele>78.3</ele>
        <time>2022-10-06T18:29:22Z</time>
      </trkpt>
      <trkpt lat="10.2581593" lon="-85.5897987">
        <ele>78.9</ele>
        <time>2022-10-06T18:29:23Z</time>
      </trkpt>
      <trkpt lat="10.2581499" lon="-85.5898260">
        <ele>79.0</ele>
        <time>2022-10-06T18:29:24Z</time>
      </trkpt>
      <trkpt lat="10.2581415" lon="-85.5898551">
        <ele>79.1</ele>
        <time>2022-10-06T18:29:25Z</time>
      </trkpt>
      <trkpt lat="10.2581384" lon="-85.5898831">
        <ele>79.1</ele>
        <time>2022-10-06T18:29:26Z</time>
      </trkpt>
      <trkpt lat="10.2581349" lon="-85.5899095">
        <ele>79.2</ele>
        <time>2022-10-06T18:29:27Z</time>
      </trkpt>
      <trkpt lat="10.2581324" lon="-85.5899330">
        <ele>79.2</ele>
        <time>2022-10-06T18:29:28Z</time>
      </trkpt>
      <trkpt lat="10.2581310" lon="-85.5899552">
        <ele>79.3</ele>
        <time>2022-10-06T18:29:29Z</time>
      </trkpt>
      <trkpt lat="10.2581296" lon="-85.5899796">
        <ele>79.4</ele>
        <time>2022-10-06T18:29:30Z</time>
      </trkpt>
      <trkpt lat="10.2581277" lon="-85.5899999">
        <ele>79.4</ele>
        <time>2022-10-06T18:29:31Z</time>
      </trkpt>
      <trkpt lat="10.2581267" lon="-85.5900180">
        <ele>79.6</ele>
        <time>2022-10-06T18:29:32Z</time>
      </trkpt>
      <trkpt lat="10.2581243" lon="-85.5900378">
        <ele>79.5</ele>
        <time>2022-10-06T18:29:33Z</time>
      </trkpt>
      <trkpt lat="10.2581196" lon="-85.5900597">
        <ele>79.4</ele>
        <time>2022-10-06T18:29:34Z</time>
      </trkpt>
      <trkpt lat="10.2581076" lon="-85.5900851">
        <ele>79.6</ele>
        <time>2022-10-06T18:29:35Z</time>
      </trkpt>
      <trkpt lat="10.2581007" lon="-85.5901151">
        <ele>79.7</ele>
        <time>2022-10-06T18:29:36Z</time>
      </trkpt>
      <trkpt lat="10.2580941" lon="-85.5901481">
        <ele>79.9</ele>
        <time>2022-10-06T18:29:37Z</time>
      </trkpt>
      <trkpt lat="10.2580888" lon="-85.5901849">
        <ele>79.9</ele>
        <time>2022-10-06T18:29:38Z</time>
      </trkpt>
      <trkpt lat="10.2580836" lon="-85.5902238">
        <ele>79.9</ele>
        <time>2022-10-06T18:29:39Z</time>
      </trkpt>
      <trkpt lat="10.2580763" lon="-85.5902624">
        <ele>80.3</ele>
        <time>2022-10-06T18:29:40Z</time>
      </trkpt>
      <trkpt lat="10.2580707" lon="-85.5903051">
        <ele>80.2</ele>
        <time>2022-10-06T18:29:41Z</time>
      </trkpt>
      <trkpt lat="10.2580643" lon="-85.5903495">
        <ele>80.3</ele>
        <time>2022-10-06T18:29:42Z</time>
      </trkpt>
      <trkpt lat="10.2580588" lon="-85.5903961">
        <ele>80.2</ele>
        <time>2022-10-06T18:29:43Z</time>
      </trkpt>
      <trkpt lat="10.2580522" lon="-85.5904386">
        <ele>80.3</ele>
        <time>2022-10-06T18:29:44Z</time>
      </trkpt>
      <trkpt lat="10.2580446" lon="-85.5904812">
        <ele>80.3</ele>
        <time>2022-10-06T18:29:45Z</time>
      </trkpt>
      <trkpt lat="10.2580367" lon="-85.5905209">
        <ele>80.4</ele>
        <time>2022-10-06T18:29:46Z</time>
      </trkpt>
      <trkpt lat="10.2580293" lon="-85.5905584">
        <ele>80.5</ele>
        <time>2022-10-06T18:29:47Z</time>
      </trkpt>
      <trkpt lat="10.2580260" lon="-85.5905899">
        <ele>80.5</ele>
        <time>2022-10-06T18:29:48Z</time>
      </trkpt>
      <trkpt lat="10.2580251" lon="-85.5906101">
        <ele>80.4</ele>
        <time>2022-10-06T18:29:49Z</time>
      </trkpt>
      <trkpt lat="10.2580270" lon="-85.5906229">
        <ele>80.4</ele>
        <time>2022-10-06T18:29:50Z</time>
      </trkpt>
      <trkpt lat="10.2580325" lon="-85.5906360">
        <ele>80.3</ele>
        <time>2022-10-06T18:29:51Z</time>
      </trkpt>
      <trkpt lat="10.2580411" lon="-85.5906455">
        <ele>79.9</ele>
        <time>2022-10-06T18:29:52Z</time>
      </trkpt>
      <trkpt lat="10.2580585" lon="-85.5906572">
        <ele>79.7</ele>
        <time>2022-10-06T18:29:53Z</time>
      </trkpt>
      <trkpt lat="10.2580820" lon="-85.5906657">
        <ele>79.5</ele>
        <time>2022-10-06T18:29:54Z</time>
      </trkpt>
      <trkpt lat="10.2581115" lon="-85.5906746">
        <ele>79.5</ele>
        <time>2022-10-06T18:29:55Z</time>
      </trkpt>
      <trkpt lat="10.2581453" lon="-85.5906769">
        <ele>79.4</ele>
        <time>2022-10-06T18:29:56Z</time>
      </trkpt>
      <trkpt lat="10.2581835" lon="-85.5906778">
        <ele>79.2</ele>
        <time>2022-10-06T18:29:57Z</time>
      </trkpt>
      <trkpt lat="10.2582233" lon="-85.5906792">
        <ele>79.2</ele>
        <time>2022-10-06T18:29:58Z</time>
      </trkpt>
      <trkpt lat="10.2582628" lon="-85.5906805">
        <ele>79.4</ele>
        <time>2022-10-06T18:29:59Z</time>
      </trkpt>
      <trkpt lat="10.2583024" lon="-85.5906843">
        <ele>79.4</ele>
        <time>2022-10-06T18:30:00Z</time>
      </trkpt>
      <trkpt lat="10.2583412" lon="-85.5906852">
        <ele>78.8</ele>
        <time>2022-10-06T18:30:01Z</time>
      </trkpt>
      <trkpt lat="10.2583814" lon="-85.5906883">
        <ele>78.5</ele>
        <time>2022-10-06T18:30:02Z</time>
      </trkpt>
      <trkpt lat="10.2584238" lon="-85.5906914">
        <ele>78.4</ele>
        <time>2022-10-06T18:30:03Z</time>
      </trkpt>
      <trkpt lat="10.2584673" lon="-85.5906946">
        <ele>78.3</ele>
        <time>2022-10-06T18:30:04Z</time>
      </trkpt>
      <trkpt lat="10.2585091" lon="-85.5906981">
        <ele>78.2</ele>
        <time>2022-10-06T18:30:05Z</time>
      </trkpt>
      <trkpt lat="10.2585536" lon="-85.5907025">
        <ele>78.1</ele>
        <time>2022-10-06T18:30:06Z</time>
      </trkpt>
      <trkpt lat="10.2585990" lon="-85.5907070">
        <ele>77.8</ele>
        <time>2022-10-06T18:30:07Z</time>
      </trkpt>
      <trkpt lat="10.2586451" lon="-85.5907116">
        <ele>77.7</ele>
        <time>2022-10-06T18:30:08Z</time>
      </trkpt>
      <trkpt lat="10.2586887" lon="-85.5907167">
        <ele>77.5</ele>
        <time>2022-10-06T18:30:09Z</time>
      </trkpt>
      <trkpt lat="10.2587310" lon="-85.5907214">
        <ele>77.6</ele>
        <time>2022-10-06T18:30:10Z</time>
      </trkpt>
      <trkpt lat="10.2587688" lon="-85.5907264">
        <ele>77.6</ele>
        <time>2022-10-06T18:30:11Z</time>
      </trkpt>
      <trkpt lat="10.2588048" lon="-85.5907309">
        <ele>77.7</ele>
        <time>2022-10-06T18:30:12Z</time>
      </trkpt>
      <trkpt lat="10.2588424" lon="-85.5907367">
        <ele>77.6</ele>
        <time>2022-10-06T18:30:13Z</time>
      </trkpt>
      <trkpt lat="10.2588838" lon="-85.5907442">
        <ele>77.6</ele>
        <time>2022-10-06T18:30:14Z</time>
      </trkpt>
      <trkpt lat="10.2589245" lon="-85.5907498">
        <ele>77.8</ele>
        <time>2022-10-06T18:30:15Z</time>
      </trkpt>
      <trkpt lat="10.2589707" lon="-85.5907549">
        <ele>77.6</ele>
        <time>2022-10-06T18:30:16Z</time>
      </trkpt>
      <trkpt lat="10.2590170" lon="-85.5907592">
        <ele>77.4</ele>
        <time>2022-10-06T18:30:17Z</time>
      </trkpt>
      <trkpt lat="10.2590634" lon="-85.5907613">
        <ele>77.3</ele>
        <time>2022-10-06T18:30:18Z</time>
      </trkpt>
      <trkpt lat="10.2591132" lon="-85.5907623">
        <ele>77.2</ele>
        <time>2022-10-06T18:30:19Z</time>
      </trkpt>
      <trkpt lat="10.2591621" lon="-85.5907639">
        <ele>77.1</ele>
        <time>2022-10-06T18:30:20Z</time>
      </trkpt>
      <trkpt lat="10.2592113" lon="-85.5907666">
        <ele>77.0</ele>
        <time>2022-10-06T18:30:21Z</time>
      </trkpt>
      <trkpt lat="10.2592569" lon="-85.5907702">
        <ele>76.8</ele>
        <time>2022-10-06T18:30:22Z</time>
      </trkpt>
      <trkpt lat="10.2593059" lon="-85.5907754">
        <ele>76.7</ele>
        <time>2022-10-06T18:30:23Z</time>
      </trkpt>
      <trkpt lat="10.2593509" lon="-85.5907813">
        <ele>76.6</ele>
        <time>2022-10-06T18:30:24Z</time>
      </trkpt>
      <trkpt lat="10.2593913" lon="-85.5907849">
        <ele>76.4</ele>
        <time>2022-10-06T18:30:25Z</time>
      </trkpt>
      <trkpt lat="10.2594268" lon="-85.5907874">
        <ele>76.4</ele>
        <time>2022-10-06T18:30:26Z</time>
      </trkpt>
      <trkpt lat="10.2594495" lon="-85.5907900">
        <ele>76.3</ele>
        <time>2022-10-06T18:30:27Z</time>
      </trkpt>
      <trkpt lat="10.2594640" lon="-85.5907904">
        <ele>76.3</ele>
        <time>2022-10-06T18:30:28Z</time>
      </trkpt>
      <trkpt lat="10.2594697" lon="-85.5907884">
        <ele>76.3</ele>
        <time>2022-10-06T18:30:29Z</time>
      </trkpt>
      <trkpt lat="10.2594804" lon="-85.5907859">
        <ele>76.2</ele>
        <time>2022-10-06T18:30:30Z</time>
      </trkpt>
      <trkpt lat="10.2594967" lon="-85.5907815">
        <ele>76.3</ele>
        <time>2022-10-06T18:30:31Z</time>
      </trkpt>
      <trkpt lat="10.2595120" lon="-85.5907700">
        <ele>76.5</ele>
        <time>2022-10-06T18:30:32Z</time>
      </trkpt>
      <trkpt lat="10.2595211" lon="-85.5907506">
        <ele>76.7</ele>
        <time>2022-10-06T18:30:33Z</time>
      </trkpt>
      <trkpt lat="10.2595141" lon="-85.5907102">
        <ele>76.8</ele>
        <time>2022-10-06T18:30:34Z</time>
      </trkpt>
      <trkpt lat="10.2595172" lon="-85.5906773">
        <ele>76.9</ele>
        <time>2022-10-06T18:30:35Z</time>
      </trkpt>
      <trkpt lat="10.2595236" lon="-85.5906382">
        <ele>76.9</ele>
        <time>2022-10-06T18:30:36Z</time>
      </trkpt>
      <trkpt lat="10.2595306" lon="-85.5905974">
        <ele>77.1</ele>
        <time>2022-10-06T18:30:37Z</time>
      </trkpt>
      <trkpt lat="10.2595357" lon="-85.5905557">
        <ele>77.1</ele>
        <time>2022-10-06T18:30:38Z</time>
      </trkpt>
      <trkpt lat="10.2595420" lon="-85.5905143">
        <ele>77.0</ele>
        <time>2022-10-06T18:30:39Z</time>
      </trkpt>
      <trkpt lat="10.2595486" lon="-85.5904727">
        <ele>77.0</ele>
        <time>2022-10-06T18:30:40Z</time>
      </trkpt>
      <trkpt lat="10.2595552" lon="-85.5904327">
        <ele>76.9</ele>
        <time>2022-10-06T18:30:41Z</time>
      </trkpt>
      <trkpt lat="10.2595627" lon="-85.5903921">
        <ele>76.8</ele>
        <time>2022-10-06T18:30:42Z</time>
      </trkpt>
      <trkpt lat="10.2595699" lon="-85.5903490">
        <ele>76.8</ele>
        <time>2022-10-06T18:30:43Z</time>
      </trkpt>
      <trkpt lat="10.2595778" lon="-85.5903039">
        <ele>76.6</ele>
        <time>2022-10-06T18:30:44Z</time>
      </trkpt>
      <trkpt lat="10.2595822" lon="-85.5902614">
        <ele>76.8</ele>
        <time>2022-10-06T18:30:45Z</time>
      </trkpt>
      <trkpt lat="10.2595875" lon="-85.5902191">
        <ele>76.8</ele>
        <time>2022-10-06T18:30:46Z</time>
      </trkpt>
      <trkpt lat="10.2595965" lon="-85.5901760">
        <ele>76.7</ele>
        <time>2022-10-06T18:30:47Z</time>
      </trkpt>
      <trkpt lat="10.2596040" lon="-85.5901326">
        <ele>76.7</ele>
        <time>2022-10-06T18:30:48Z</time>
      </trkpt>
      <trkpt lat="10.2596106" lon="-85.5900920">
        <ele>76.7</ele>
        <time>2022-10-06T18:30:49Z</time>
      </trkpt>
      <trkpt lat="10.2596183" lon="-85.5900506">
        <ele>76.6</ele>
        <time>2022-10-06T18:30:50Z</time>
      </trkpt>
      <trkpt lat="10.2596259" lon="-85.5900129">
        <ele>76.5</ele>
        <time>2022-10-06T18:30:51Z</time>
      </trkpt>
      <trkpt lat="10.2596317" lon="-85.5899805">
        <ele>76.5</ele>
        <time>2022-10-06T18:30:52Z</time>
      </trkpt>
      <trkpt lat="10.2596368" lon="-85.5899505">
        <ele>76.4</ele>
        <time>2022-10-06T18:30:53Z</time>
      </trkpt>
      <trkpt lat="10.2596422" lon="-85.5899250">
        <ele>76.3</ele>
        <time>2022-10-06T18:30:54Z</time>
      </trkpt>
      <trkpt lat="10.2596491" lon="-85.5899034">
        <ele>76.2</ele>
        <time>2022-10-06T18:30:55Z</time>
      </trkpt>
      <trkpt lat="10.2596538" lon="-85.5898911">
        <ele>76.1</ele>
        <time>2022-10-06T18:30:56Z</time>
      </trkpt>
      <trkpt lat="10.2596571" lon="-85.5898812">
        <ele>76.1</ele>
        <time>2022-10-06T18:30:57Z</time>
      </trkpt>
      <trkpt lat="10.2596611" lon="-85.5898743">
        <ele>76.2</ele>
        <time>2022-10-06T18:30:58Z</time>
      </trkpt>
      <trkpt lat="10.2596630" lon="-85.5898705">
        <ele>76.3</ele>
        <time>2022-10-06T18:30:59Z</time>
      </trkpt>
      <trkpt lat="10.2596647" lon="-85.5898663">
        <ele>76.3</ele>
        <time>2022-10-06T18:31:00Z</time>
      </trkpt>
      <trkpt lat="10.2596659" lon="-85.5898643">
        <ele>76.7</ele>
        <time>2022-10-06T18:31:01Z</time>
      </trkpt>
      <trkpt lat="10.2596683" lon="-85.5898601">
        <ele>76.6</ele>
        <time>2022-10-06T18:31:02Z</time>
      </trkpt>
      <trkpt lat="10.2596714" lon="-85.5898560">
        <ele>76.7</ele>
        <time>2022-10-06T18:31:03Z</time>
      </trkpt>
      <trkpt lat="10.2596785" lon="-85.5898429">
        <ele>76.6</ele>
        <time>2022-10-06T18:31:04Z</time>
      </trkpt>
      <trkpt lat="10.2596826" lon="-85.5898294">
        <ele>76.5</ele>
        <time>2022-10-06T18:31:05Z</time>
      </trkpt>
      <trkpt lat="10.2596862" lon="-85.5898191">
        <ele>76.5</ele>
        <time>2022-10-06T18:31:06Z</time>
      </trkpt>
      <trkpt lat="10.2596875" lon="-85.5898103">
        <ele>76.6</ele>
        <time>2022-10-06T18:31:07Z</time>
      </trkpt>
      <trkpt lat="10.2596826" lon="-85.5898026">
        <ele>76.4</ele>
        <time>2022-10-06T18:31:08Z</time>
      </trkpt>
      <trkpt lat="10.2596812" lon="-85.5897973">
        <ele>76.4</ele>
        <time>2022-10-06T18:31:09Z</time>
      </trkpt>
      <trkpt lat="10.2596782" lon="-85.5897869">
        <ele>76.3</ele>
        <time>2022-10-06T18:31:10Z</time>
      </trkpt>
      <trkpt lat="10.2596759" lon="-85.5897739">
        <ele>76.3</ele>
        <time>2022-10-06T18:31:11Z</time>
      </trkpt>
      <trkpt lat="10.2596722" lon="-85.5897559">
        <ele>76.4</ele>
        <time>2022-10-06T18:31:12Z</time>
      </trkpt>
      <trkpt lat="10.2596700" lon="-85.5897326">
        <ele>76.5</ele>
        <time>2022-10-06T18:31:13Z</time>
      </trkpt>
      <trkpt lat="10.2596679" lon="-85.5897037">
        <ele>76.5</ele>
        <time>2022-10-06T18:31:14Z</time>
      </trkpt>
      <trkpt lat="10.2596681" lon="-85.5896669">
        <ele>76.5</ele>
        <time>2022-10-06T18:31:15Z</time>
      </trkpt>
      <trkpt lat="10.2596719" lon="-85.5896262">
        <ele>76.5</ele>
        <time>2022-10-06T18:31:16Z</time>
      </trkpt>
      <trkpt lat="10.2596775" lon="-85.5895816">
        <ele>76.7</ele>
        <time>2022-10-06T18:31:17Z</time>
      </trkpt>
      <trkpt lat="10.2596843" lon="-85.5895328">
        <ele>76.7</ele>
        <time>2022-10-06T18:31:18Z</time>
      </trkpt>
      <trkpt lat="10.2596915" lon="-85.5894803">
        <ele>76.8</ele>
        <time>2022-10-06T18:31:19Z</time>
      </trkpt>
      <trkpt lat="10.2596978" lon="-85.5894285">
        <ele>76.8</ele>
        <time>2022-10-06T18:31:20Z</time>
      </trkpt>
      <trkpt lat="10.2597047" lon="-85.5893740">
        <ele>76.8</ele>
        <time>2022-10-06T18:31:21Z</time>
      </trkpt>
      <trkpt lat="10.2597125" lon="-85.5893215">
        <ele>76.9</ele>
        <time>2022-10-06T18:31:22Z</time>
      </trkpt>
      <trkpt lat="10.2597220" lon="-85.5892684">
        <ele>76.9</ele>
        <time>2022-10-06T18:31:23Z</time>
      </trkpt>
      <trkpt lat="10.2597303" lon="-85.5892168">
        <ele>76.9</ele>
        <time>2022-10-06T18:31:24Z</time>
      </trkpt>
      <trkpt lat="10.2597381" lon="-85.5891674">
        <ele>76.8</ele>
        <time>2022-10-06T18:31:25Z</time>
      </trkpt>
      <trkpt lat="10.2597438" lon="-85.5891217">
        <ele>76.8</ele>
        <time>2022-10-06T18:31:26Z</time>
      </trkpt>
      <trkpt lat="10.2597490" lon="-85.5890832">
        <ele>76.8</ele>
        <time>2022-10-06T18:31:27Z</time>
      </trkpt>
      <trkpt lat="10.2597545" lon="-85.5890484">
        <ele>76.8</ele>
        <time>2022-10-06T18:31:28Z</time>
      </trkpt>
      <trkpt lat="10.2597592" lon="-85.5890232">
        <ele>76.7</ele>
        <time>2022-10-06T18:31:29Z</time>
      </trkpt>
      <trkpt lat="10.2597647" lon="-85.5890030">
        <ele>76.6</ele>
        <time>2022-10-06T18:31:30Z</time>
      </trkpt>
      <trkpt lat="10.2597682" lon="-85.5889882">
        <ele>76.6</ele>
        <time>2022-10-06T18:31:31Z</time>
      </trkpt>
      <trkpt lat="10.2597717" lon="-85.5889795">
        <ele>76.6</ele>
        <time>2022-10-06T18:31:32Z</time>
      </trkpt>
      <trkpt lat="10.2597750" lon="-85.5889750">
        <ele>76.5</ele>
        <time>2022-10-06T18:31:33Z</time>
      </trkpt>
      <trkpt lat="10.2597795" lon="-85.5889656">
        <ele>76.6</ele>
        <time>2022-10-06T18:31:34Z</time>
      </trkpt>
      <trkpt lat="10.2597863" lon="-85.5889607">
        <ele>76.4</ele>
        <time>2022-10-06T18:31:35Z</time>
      </trkpt>
      <trkpt lat="10.2598038" lon="-85.5889532">
        <ele>76.4</ele>
        <time>2022-10-06T18:31:36Z</time>
      </trkpt>
      <trkpt lat="10.2598309" lon="-85.5889488">
        <ele>76.5</ele>
        <time>2022-10-06T18:31:37Z</time>
      </trkpt>
      <trkpt lat="10.2598610" lon="-85.5889435">
        <ele>76.5</ele>
        <time>2022-10-06T18:31:38Z</time>
      </trkpt>
      <trkpt lat="10.2598926" lon="-85.5889504">
        <ele>76.3</ele>
        <time>2022-10-06T18:31:39Z</time>
      </trkpt>
      <trkpt lat="10.2599299" lon="-85.5889576">
        <ele>76.1</ele>
        <time>2022-10-06T18:31:40Z</time>
      </trkpt>
      <trkpt lat="10.2599673" lon="-85.5889654">
        <ele>75.9</ele>
        <time>2022-10-06T18:31:41Z</time>
      </trkpt>
      <trkpt lat="10.2600050" lon="-85.5889719">
        <ele>75.8</ele>
        <time>2022-10-06T18:31:42Z</time>
      </trkpt>
      <trkpt lat="10.2600433" lon="-85.5889796">
        <ele>75.6</ele>
        <time>2022-10-06T18:31:43Z</time>
      </trkpt>
      <trkpt lat="10.2600820" lon="-85.5889854">
        <ele>75.5</ele>
        <time>2022-10-06T18:31:44Z</time>
      </trkpt>
      <trkpt lat="10.2601205" lon="-85.5889920">
        <ele>75.4</ele>
        <time>2022-10-06T18:31:45Z</time>
      </trkpt>
      <trkpt lat="10.2601608" lon="-85.5889996">
        <ele>75.2</ele>
        <time>2022-10-06T18:31:46Z</time>
      </trkpt>
      <trkpt lat="10.2601998" lon="-85.5890062">
        <ele>75.1</ele>
        <time>2022-10-06T18:31:47Z</time>
      </trkpt>
      <trkpt lat="10.2602422" lon="-85.5890131">
        <ele>74.9</ele>
        <time>2022-10-06T18:31:48Z</time>
      </trkpt>
      <trkpt lat="10.2602825" lon="-85.5890192">
        <ele>74.8</ele>
        <time>2022-10-06T18:31:49Z</time>
      </trkpt>
      <trkpt lat="10.2603188" lon="-85.5890262">
        <ele>74.6</ele>
        <time>2022-10-06T18:31:50Z</time>
      </trkpt>
      <trkpt lat="10.2603547" lon="-85.5890323">
        <ele>74.5</ele>
        <time>2022-10-06T18:31:51Z</time>
      </trkpt>
      <trkpt lat="10.2603873" lon="-85.5890365">
        <ele>74.4</ele>
        <time>2022-10-06T18:31:52Z</time>
      </trkpt>
      <trkpt lat="10.2604138" lon="-85.5890415">
        <ele>74.3</ele>
        <time>2022-10-06T18:31:53Z</time>
      </trkpt>
      <trkpt lat="10.2604346" lon="-85.5890463">
        <ele>74.3</ele>
        <time>2022-10-06T18:31:54Z</time>
      </trkpt>
      <trkpt lat="10.2604458" lon="-85.5890496">
        <ele>74.2</ele>
        <time>2022-10-06T18:31:55Z</time>
      </trkpt>
      <trkpt lat="10.2604458" lon="-85.5890496">
        <ele>74.2</ele>
        <time>2022-10-06T18:31:56Z</time>
      </trkpt>
      <trkpt lat="10.2604458" lon="-85.5890496">
        <ele>74.2</ele>
        <time>2022-10-06T18:31:57Z</time>
      </trkpt>
      <trkpt lat="10.2604458" lon="-85.5890496">
        <ele>74.1</ele>
        <time>2022-10-06T18:31:58Z</time>
      </trkpt>
      <trkpt lat="10.2604458" lon="-85.5890496">
        <ele>74.1</ele>
        <time>2022-10-06T18:31:59Z</time>
      </trkpt>
      <trkpt lat="10.2604490" lon="-85.5890499">
        <ele>73.6</ele>
        <time>2022-10-06T18:32:00Z</time>
      </trkpt>
      <trkpt lat="10.2604629" lon="-85.5890527">
        <ele>73.5</ele>
        <time>2022-10-06T18:32:01Z</time>
      </trkpt>
      <trkpt lat="10.2604781" lon="-85.5890561">
        <ele>73.5</ele>
        <time>2022-10-06T18:32:02Z</time>
      </trkpt>
      <trkpt lat="10.2604996" lon="-85.5890602">
        <ele>73.4</ele>
        <time>2022-10-06T18:32:03Z</time>
      </trkpt>
      <trkpt lat="10.2605251" lon="-85.5890660">
        <ele>73.3</ele>
        <time>2022-10-06T18:32:04Z</time>
      </trkpt>
      <trkpt lat="10.2605507" lon="-85.5890716">
        <ele>73.3</ele>
        <time>2022-10-06T18:32:05Z</time>
      </trkpt>
      <trkpt lat="10.2605796" lon="-85.5890773">
        <ele>73.3</ele>
        <time>2022-10-06T18:32:06Z</time>
      </trkpt>
      <trkpt lat="10.2606159" lon="-85.5890831">
        <ele>73.3</ele>
        <time>2022-10-06T18:32:07Z</time>
      </trkpt>
      <trkpt lat="10.2606542" lon="-85.5890899">
        <ele>73.3</ele>
        <time>2022-10-06T18:32:08Z</time>
      </trkpt>
      <trkpt lat="10.2606943" lon="-85.5890985">
        <ele>73.2</ele>
        <time>2022-10-06T18:32:09Z</time>
      </trkpt>
      <trkpt lat="10.2607360" lon="-85.5891062">
        <ele>73.1</ele>
        <time>2022-10-06T18:32:10Z</time>
      </trkpt>
      <trkpt lat="10.2607795" lon="-85.5891143">
        <ele>73.0</ele>
        <time>2022-10-06T18:32:11Z</time>
      </trkpt>
      <trkpt lat="10.2608217" lon="-85.5891234">
        <ele>73.1</ele>
        <time>2022-10-06T18:32:12Z</time>
      </trkpt>
      <trkpt lat="10.2608658" lon="-85.5891327">
        <ele>73.1</ele>
        <time>2022-10-06T18:32:13Z</time>
      </trkpt>
      <trkpt lat="10.2609077" lon="-85.5891415">
        <ele>73.0</ele>
        <time>2022-10-06T18:32:14Z</time>
      </trkpt>
      <trkpt lat="10.2609490" lon="-85.5891488">
        <ele>73.0</ele>
        <time>2022-10-06T18:32:15Z</time>
      </trkpt>
      <trkpt lat="10.2609892" lon="-85.5891534">
        <ele>73.0</ele>
        <time>2022-10-06T18:32:16Z</time>
      </trkpt>
      <trkpt lat="10.2610222" lon="-85.5891562">
        <ele>72.9</ele>
        <time>2022-10-06T18:32:17Z</time>
      </trkpt>
      <trkpt lat="10.2610398" lon="-85.5891543">
        <ele>72.9</ele>
        <time>2022-10-06T18:32:18Z</time>
      </trkpt>
      <trkpt lat="10.2610429" lon="-85.5891532">
        <ele>72.2</ele>
        <time>2022-10-06T18:32:19Z</time>
      </trkpt>
      <trkpt lat="10.2610429" lon="-85.5891532">
        <ele>72.1</ele>
        <time>2022-10-06T18:32:20Z</time>
      </trkpt>
      <trkpt lat="10.2610525" lon="-85.5891521">
        <ele>72.0</ele>
        <time>2022-10-06T18:32:21Z</time>
      </trkpt>
      <trkpt lat="10.2610649" lon="-85.5891480">
        <ele>72.2</ele>
        <time>2022-10-06T18:32:22Z</time>
      </trkpt>
      <trkpt lat="10.2610770" lon="-85.5891397">
        <ele>72.2</ele>
        <time>2022-10-06T18:32:23Z</time>
      </trkpt>
      <trkpt lat="10.2610898" lon="-85.5891220">
        <ele>71.8</ele>
        <time>2022-10-06T18:32:24Z</time>
      </trkpt>
      <trkpt lat="10.2610967" lon="-85.5890973">
        <ele>71.9</ele>
        <time>2022-10-06T18:32:25Z</time>
      </trkpt>
      <trkpt lat="10.2611011" lon="-85.5890660">
        <ele>72.0</ele>
        <time>2022-10-06T18:32:26Z</time>
      </trkpt>
      <trkpt lat="10.2611035" lon="-85.5890255">
        <ele>72.0</ele>
        <time>2022-10-06T18:32:27Z</time>
      </trkpt>
      <trkpt lat="10.2611103" lon="-85.5889801">
        <ele>72.0</ele>
        <time>2022-10-06T18:32:28Z</time>
      </trkpt>
      <trkpt lat="10.2611212" lon="-85.5889310">
        <ele>72.0</ele>
        <time>2022-10-06T18:32:29Z</time>
      </trkpt>
      <trkpt lat="10.2611296" lon="-85.5888777">
        <ele>72.1</ele>
        <time>2022-10-06T18:32:30Z</time>
      </trkpt>
      <trkpt lat="10.2611380" lon="-85.5888250">
        <ele>72.0</ele>
        <time>2022-10-06T18:32:31Z</time>
      </trkpt>
      <trkpt lat="10.2611449" lon="-85.5887693">
        <ele>72.0</ele>
        <time>2022-10-06T18:32:32Z</time>
      </trkpt>
      <trkpt lat="10.2611488" lon="-85.5887150">
        <ele>71.9</ele>
        <time>2022-10-06T18:32:33Z</time>
      </trkpt>
      <trkpt lat="10.2611530" lon="-85.5886615">
        <ele>72.1</ele>
        <time>2022-10-06T18:32:34Z</time>
      </trkpt>
      <trkpt lat="10.2611611" lon="-85.5886080">
        <ele>72.3</ele>
        <time>2022-10-06T18:32:35Z</time>
      </trkpt>
      <trkpt lat="10.2611697" lon="-85.5885529">
        <ele>72.4</ele>
        <time>2022-10-06T18:32:36Z</time>
      </trkpt>
      <trkpt lat="10.2611799" lon="-85.5884987">
        <ele>72.4</ele>
        <time>2022-10-06T18:32:37Z</time>
      </trkpt>
      <trkpt lat="10.2611898" lon="-85.5884427">
        <ele>72.4</ele>
        <time>2022-10-06T18:32:38Z</time>
      </trkpt>
      <trkpt lat="10.2611980" lon="-85.5883955">
        <ele>72.4</ele>
        <time>2022-10-06T18:32:39Z</time>
      </trkpt>
      <trkpt lat="10.2612046" lon="-85.5883609">
        <ele>72.6</ele>
        <time>2022-10-06T18:32:40Z</time>
      </trkpt>
      <trkpt lat="10.2612098" lon="-85.5883354">
        <ele>72.6</ele>
        <time>2022-10-06T18:32:41Z</time>
      </trkpt>
      <trkpt lat="10.2612162" lon="-85.5883125">
        <ele>72.4</ele>
        <time>2022-10-06T18:32:42Z</time>
      </trkpt>
      <trkpt lat="10.2612242" lon="-85.5882840">
        <ele>72.3</ele>
        <time>2022-10-06T18:32:43Z</time>
      </trkpt>
      <trkpt lat="10.2612329" lon="-85.5882499">
        <ele>72.5</ele>
        <time>2022-10-06T18:32:44Z</time>
      </trkpt>
      <trkpt lat="10.2612413" lon="-85.5882105">
        <ele>72.6</ele>
        <time>2022-10-06T18:32:45Z</time>
      </trkpt>
      <trkpt lat="10.2612484" lon="-85.5881657">
        <ele>72.8</ele>
        <time>2022-10-06T18:32:46Z</time>
      </trkpt>
      <trkpt lat="10.2612545" lon="-85.5881188">
        <ele>73.1</ele>
        <time>2022-10-06T18:32:47Z</time>
      </trkpt>
      <trkpt lat="10.2612606" lon="-85.5880681">
        <ele>73.1</ele>
        <time>2022-10-06T18:32:48Z</time>
      </trkpt>
      <trkpt lat="10.2612656" lon="-85.5880185">
        <ele>72.9</ele>
        <time>2022-10-06T18:32:49Z</time>
      </trkpt>
      <trkpt lat="10.2612716" lon="-85.5879678">
        <ele>73.0</ele>
        <time>2022-10-06T18:32:50Z</time>
      </trkpt>
      <trkpt lat="10.2612804" lon="-85.5879153">
        <ele>73.4</ele>
        <time>2022-10-06T18:32:51Z</time>
      </trkpt>
      <trkpt lat="10.2612888" lon="-85.5878648">
        <ele>73.7</ele>
        <time>2022-10-06T18:32:52Z</time>
      </trkpt>
      <trkpt lat="10.2612952" lon="-85.5878162">
        <ele>74.2</ele>
        <time>2022-10-06T18:32:53Z</time>
      </trkpt>
      <trkpt lat="10.2613030" lon="-85.5877693">
        <ele>74.5</ele>
        <time>2022-10-06T18:32:54Z</time>
      </trkpt>
      <trkpt lat="10.2613094" lon="-85.5877250">
        <ele>74.7</ele>
        <time>2022-10-06T18:32:55Z</time>
      </trkpt>
      <trkpt lat="10.2613172" lon="-85.5876851">
        <ele>75.2</ele>
        <time>2022-10-06T18:32:56Z</time>
      </trkpt>
      <trkpt lat="10.2613250" lon="-85.5876465">
        <ele>75.4</ele>
        <time>2022-10-06T18:32:57Z</time>
      </trkpt>
      <trkpt lat="10.2613301" lon="-85.5876119">
        <ele>75.7</ele>
        <time>2022-10-06T18:32:58Z</time>
      </trkpt>
      <trkpt lat="10.2613351" lon="-85.5875829">
        <ele>75.9</ele>
        <time>2022-10-06T18:32:59Z</time>
      </trkpt>
      <trkpt lat="10.2613394" lon="-85.5875631">
        <ele>76.0</ele>
        <time>2022-10-06T18:33:00Z</time>
      </trkpt>
      <trkpt lat="10.2613399" lon="-85.5875515">
        <ele>76.1</ele>
        <time>2022-10-06T18:33:01Z</time>
      </trkpt>
      <trkpt lat="10.2613403" lon="-85.5875438">
        <ele>76.1</ele>
        <time>2022-10-06T18:33:02Z</time>
      </trkpt>
      <trkpt lat="10.2613416" lon="-85.5875367">
        <ele>76.1</ele>
        <time>2022-10-06T18:33:03Z</time>
      </trkpt>
      <trkpt lat="10.2613439" lon="-85.5875196">
        <ele>76.2</ele>
        <time>2022-10-06T18:33:04Z</time>
      </trkpt>
      <trkpt lat="10.2613480" lon="-85.5874954">
        <ele>76.3</ele>
        <time>2022-10-06T18:33:05Z</time>
      </trkpt>
      <trkpt lat="10.2613523" lon="-85.5874678">
        <ele>76.4</ele>
        <time>2022-10-06T18:33:06Z</time>
      </trkpt>
      <trkpt lat="10.2613561" lon="-85.5874348">
        <ele>76.3</ele>
        <time>2022-10-06T18:33:07Z</time>
      </trkpt>
      <trkpt lat="10.2613628" lon="-85.5873972">
        <ele>76.5</ele>
        <time>2022-10-06T18:33:08Z</time>
      </trkpt>
      <trkpt lat="10.2613688" lon="-85.5873554">
        <ele>76.5</ele>
        <time>2022-10-06T18:33:09Z</time>
      </trkpt>
      <trkpt lat="10.2613766" lon="-85.5873104">
        <ele>76.6</ele>
        <time>2022-10-06T18:33:10Z</time>
      </trkpt>
      <trkpt lat="10.2613851" lon="-85.5872625">
        <ele>76.7</ele>
        <time>2022-10-06T18:33:11Z</time>
      </trkpt>
      <trkpt lat="10.2613927" lon="-85.5872123">
        <ele>76.8</ele>
        <time>2022-10-06T18:33:12Z</time>
      </trkpt>
      <trkpt lat="10.2613978" lon="-85.5871614">
        <ele>76.9</ele>
        <time>2022-10-06T18:33:13Z</time>
      </trkpt>
      <trkpt lat="10.2614032" lon="-85.5871112">
        <ele>77.0</ele>
        <time>2022-10-06T18:33:14Z</time>
      </trkpt>
      <trkpt lat="10.2614096" lon="-85.5870633">
        <ele>77.0</ele>
        <time>2022-10-06T18:33:15Z</time>
      </trkpt>
      <trkpt lat="10.2614149" lon="-85.5870172">
        <ele>77.1</ele>
        <time>2022-10-06T18:33:16Z</time>
      </trkpt>
      <trkpt lat="10.2614204" lon="-85.5869736">
        <ele>77.2</ele>
        <time>2022-10-06T18:33:17Z</time>
      </trkpt>
      <trkpt lat="10.2614268" lon="-85.5869374">
        <ele>77.3</ele>
        <time>2022-10-06T18:33:18Z</time>
      </trkpt>
      <trkpt lat="10.2614311" lon="-85.5869153">
        <ele>77.3</ele>
        <time>2022-10-06T18:33:19Z</time>
      </trkpt>
      <trkpt lat="10.2614353" lon="-85.5869036">
        <ele>77.4</ele>
        <time>2022-10-06T18:33:20Z</time>
      </trkpt>
      <trkpt lat="10.2614365" lon="-85.5868959">
        <ele>77.4</ele>
        <time>2022-10-06T18:33:21Z</time>
      </trkpt>
      <trkpt lat="10.2614383" lon="-85.5868887">
        <ele>77.4</ele>
        <time>2022-10-06T18:33:22Z</time>
      </trkpt>
      <trkpt lat="10.2614418" lon="-85.5868716">
        <ele>77.2</ele>
        <time>2022-10-06T18:33:23Z</time>
      </trkpt>
      <trkpt lat="10.2614475" lon="-85.5868439">
        <ele>77.3</ele>
        <time>2022-10-06T18:33:24Z</time>
      </trkpt>
      <trkpt lat="10.2614555" lon="-85.5868101">
        <ele>77.3</ele>
        <time>2022-10-06T18:33:25Z</time>
      </trkpt>
      <trkpt lat="10.2614636" lon="-85.5867705">
        <ele>77.5</ele>
        <time>2022-10-06T18:33:26Z</time>
      </trkpt>
      <trkpt lat="10.2614726" lon="-85.5867255">
        <ele>77.5</ele>
        <time>2022-10-06T18:33:27Z</time>
      </trkpt>
      <trkpt lat="10.2614807" lon="-85.5866792">
        <ele>77.6</ele>
        <time>2022-10-06T18:33:28Z</time>
      </trkpt>
      <trkpt lat="10.2614877" lon="-85.5866314">
        <ele>77.6</ele>
        <time>2022-10-06T18:33:29Z</time>
      </trkpt>
      <trkpt lat="10.2614949" lon="-85.5865841">
        <ele>77.6</ele>
        <time>2022-10-06T18:33:30Z</time>
      </trkpt>
      <trkpt lat="10.2615033" lon="-85.5865365">
        <ele>77.6</ele>
        <time>2022-10-06T18:33:31Z</time>
      </trkpt>
      <trkpt lat="10.2615107" lon="-85.5864878">
        <ele>78.0</ele>
        <time>2022-10-06T18:33:32Z</time>
      </trkpt>
      <trkpt lat="10.2615169" lon="-85.5864383">
        <ele>78.0</ele>
        <time>2022-10-06T18:33:33Z</time>
      </trkpt>
      <trkpt lat="10.2615230" lon="-85.5863948">
        <ele>77.9</ele>
        <time>2022-10-06T18:33:34Z</time>
      </trkpt>
      <trkpt lat="10.2615291" lon="-85.5863505">
        <ele>78.0</ele>
        <time>2022-10-06T18:33:35Z</time>
      </trkpt>
      <trkpt lat="10.2615358" lon="-85.5863064">
        <ele>78.1</ele>
        <time>2022-10-06T18:33:36Z</time>
      </trkpt>
      <trkpt lat="10.2615432" lon="-85.5862658">
        <ele>78.1</ele>
        <time>2022-10-06T18:33:37Z</time>
      </trkpt>
      <trkpt lat="10.2615496" lon="-85.5862282">
        <ele>78.1</ele>
        <time>2022-10-06T18:33:38Z</time>
      </trkpt>
      <trkpt lat="10.2615553" lon="-85.5862026">
        <ele>78.0</ele>
        <time>2022-10-06T18:33:39Z</time>
      </trkpt>
      <trkpt lat="10.2615604" lon="-85.5861781">
        <ele>78.2</ele>
        <time>2022-10-06T18:33:40Z</time>
      </trkpt>
      <trkpt lat="10.2615634" lon="-85.5861621">
        <ele>78.2</ele>
        <time>2022-10-06T18:33:41Z</time>
      </trkpt>
      <trkpt lat="10.2615646" lon="-85.5861499">
        <ele>78.2</ele>
        <time>2022-10-06T18:33:42Z</time>
      </trkpt>
      <trkpt lat="10.2615666" lon="-85.5861351">
        <ele>78.1</ele>
        <time>2022-10-06T18:33:43Z</time>
      </trkpt>
      <trkpt lat="10.2615703" lon="-85.5861103">
        <ele>78.1</ele>
        <time>2022-10-06T18:33:44Z</time>
      </trkpt>
      <trkpt lat="10.2615749" lon="-85.5860822">
        <ele>78.0</ele>
        <time>2022-10-06T18:33:45Z</time>
      </trkpt>
      <trkpt lat="10.2615783" lon="-85.5860522">
        <ele>77.9</ele>
        <time>2022-10-06T18:33:46Z</time>
      </trkpt>
      <trkpt lat="10.2615837" lon="-85.5860165">
        <ele>78.0</ele>
        <time>2022-10-06T18:33:47Z</time>
      </trkpt>
      <trkpt lat="10.2615878" lon="-85.5859782">
        <ele>78.0</ele>
        <time>2022-10-06T18:33:48Z</time>
      </trkpt>
      <trkpt lat="10.2615928" lon="-85.5859399">
        <ele>78.0</ele>
        <time>2022-10-06T18:33:49Z</time>
      </trkpt>
      <trkpt lat="10.2616015" lon="-85.5858965">
        <ele>78.1</ele>
        <time>2022-10-06T18:33:50Z</time>
      </trkpt>
      <trkpt lat="10.2616083" lon="-85.5858540">
        <ele>78.0</ele>
        <time>2022-10-06T18:33:51Z</time>
      </trkpt>
      <trkpt lat="10.2616149" lon="-85.5858073">
        <ele>78.1</ele>
        <time>2022-10-06T18:33:52Z</time>
      </trkpt>
      <trkpt lat="10.2616209" lon="-85.5857583">
        <ele>78.0</ele>
        <time>2022-10-06T18:33:53Z</time>
      </trkpt>
      <trkpt lat="10.2616272" lon="-85.5857148">
        <ele>78.0</ele>
        <time>2022-10-06T18:33:54Z</time>
      </trkpt>
      <trkpt lat="10.2616343" lon="-85.5856693">
        <ele>77.9</ele>
        <time>2022-10-06T18:33:55Z</time>
      </trkpt>
      <trkpt lat="10.2616393" lon="-85.5856255">
        <ele>77.9</ele>
        <time>2022-10-06T18:33:56Z</time>
      </trkpt>
      <trkpt lat="10.2616461" lon="-85.5855797">
        <ele>77.9</ele>
        <time>2022-10-06T18:33:57Z</time>
      </trkpt>
      <trkpt lat="10.2616545" lon="-85.5855358">
        <ele>78.0</ele>
        <time>2022-10-06T18:33:58Z</time>
      </trkpt>
      <trkpt lat="10.2616609" lon="-85.5854893">
        <ele>78.1</ele>
        <time>2022-10-06T18:33:59Z</time>
      </trkpt>
      <trkpt lat="10.2616669" lon="-85.5854458">
        <ele>78.2</ele>
        <time>2022-10-06T18:34:00Z</time>
      </trkpt>
      <trkpt lat="10.2616712" lon="-85.5854073">
        <ele>78.2</ele>
        <time>2022-10-06T18:34:01Z</time>
      </trkpt>
      <trkpt lat="10.2616741" lon="-85.5853798">
        <ele>78.2</ele>
        <time>2022-10-06T18:34:02Z</time>
      </trkpt>
      <trkpt lat="10.2616748" lon="-85.5853613">
        <ele>78.2</ele>
        <time>2022-10-06T18:34:03Z</time>
      </trkpt>
      <trkpt lat="10.2616772" lon="-85.5853537">
        <ele>78.2</ele>
        <time>2022-10-06T18:34:04Z</time>
      </trkpt>
      <trkpt lat="10.2616772" lon="-85.5853537">
        <ele>78.2</ele>
        <time>2022-10-06T18:34:05Z</time>
      </trkpt>
      <trkpt lat="10.2616772" lon="-85.5853537">
        <ele>78.1</ele>
        <time>2022-10-06T18:34:06Z</time>
      </trkpt>
      <trkpt lat="10.2616772" lon="-85.5853537">
        <ele>78.0</ele>
        <time>2022-10-06T18:34:07Z</time>
      </trkpt>
      <trkpt lat="10.2616772" lon="-85.5853537">
        <ele>78.0</ele>
        <time>2022-10-06T18:34:08Z</time>
      </trkpt>
      <trkpt lat="10.2616772" lon="-85.5853537">
        <ele>78.0</ele>
        <time>2022-10-06T18:34:09Z</time>
      </trkpt>
      <trkpt lat="10.2616787" lon="-85.5853382">
        <ele>78.0</ele>
        <time>2022-10-06T18:34:10Z</time>
      </trkpt>
      <trkpt lat="10.2616787" lon="-85.5853382">
        <ele>78.0</ele>
        <time>2022-10-06T18:34:11Z</time>
      </trkpt>
      <trkpt lat="10.2616787" lon="-85.5853382">
        <ele>78.0</ele>
        <time>2022-10-06T18:34:12Z</time>
      </trkpt>
      <trkpt lat="10.2616787" lon="-85.5853382">
        <ele>78.0</ele>
        <time>2022-10-06T18:34:13Z</time>
      </trkpt>
      <trkpt lat="10.2616787" lon="-85.5853382">
        <ele>78.0</ele>
        <time>2022-10-06T18:34:14Z</time>
      </trkpt>
      <trkpt lat="10.2616787" lon="-85.5853382">
        <ele>77.9</ele>
        <time>2022-10-06T18:34:15Z</time>
      </trkpt>
      <trkpt lat="10.2616787" lon="-85.5853382">
        <ele>77.9</ele>
        <time>2022-10-06T18:34:16Z</time>
      </trkpt>
      <trkpt lat="10.2616787" lon="-85.5853382">
        <ele>77.8</ele>
        <time>2022-10-06T18:34:17Z</time>
      </trkpt>
      <trkpt lat="10.2616787" lon="-85.5853382">
        <ele>77.7</ele>
        <time>2022-10-06T18:34:18Z</time>
      </trkpt>
      <trkpt lat="10.2616896" lon="-85.5853269">
        <ele>77.7</ele>
        <time>2022-10-06T18:34:19Z</time>
      </trkpt>
      <trkpt lat="10.2616921" lon="-85.5853104">
        <ele>77.7</ele>
        <time>2022-10-06T18:34:20Z</time>
      </trkpt>
      <trkpt lat="10.2616965" lon="-85.5852877">
        <ele>77.6</ele>
        <time>2022-10-06T18:34:21Z</time>
      </trkpt>
      <trkpt lat="10.2616996" lon="-85.5852606">
        <ele>77.6</ele>
        <time>2022-10-06T18:34:22Z</time>
      </trkpt>
      <trkpt lat="10.2617040" lon="-85.5852282">
        <ele>77.6</ele>
        <time>2022-10-06T18:34:23Z</time>
      </trkpt>
      <trkpt lat="10.2617069" lon="-85.5851953">
        <ele>77.7</ele>
        <time>2022-10-06T18:34:24Z</time>
      </trkpt>
      <trkpt lat="10.2617104" lon="-85.5851612">
        <ele>77.7</ele>
        <time>2022-10-06T18:34:25Z</time>
      </trkpt>
      <trkpt lat="10.2617130" lon="-85.5851232">
        <ele>77.6</ele>
        <time>2022-10-06T18:34:26Z</time>
      </trkpt>
      <trkpt lat="10.2617178" lon="-85.5850850">
        <ele>77.5</ele>
        <time>2022-10-06T18:34:27Z</time>
      </trkpt>
      <trkpt lat="10.2617242" lon="-85.5850471">
        <ele>77.5</ele>
        <time>2022-10-06T18:34:28Z</time>
      </trkpt>
      <trkpt lat="10.2617306" lon="-85.5850090">
        <ele>77.6</ele>
        <time>2022-10-06T18:34:29Z</time>
      </trkpt>
      <trkpt lat="10.2617343" lon="-85.5849817">
        <ele>77.6</ele>
        <time>2022-10-06T18:34:30Z</time>
      </trkpt>
      <trkpt lat="10.2617382" lon="-85.5849627">
        <ele>77.6</ele>
        <time>2022-10-06T18:34:31Z</time>
      </trkpt>
      <trkpt lat="10.2617401" lon="-85.5849472">
        <ele>77.6</ele>
        <time>2022-10-06T18:34:32Z</time>
      </trkpt>
      <trkpt lat="10.2617443" lon="-85.5849288">
        <ele>77.6</ele>
        <time>2022-10-06T18:34:33Z</time>
      </trkpt>
      <trkpt lat="10.2617482" lon="-85.5849079">
        <ele>77.5</ele>
        <time>2022-10-06T18:34:34Z</time>
      </trkpt>
      <trkpt lat="10.2617514" lon="-85.5848817">
        <ele>77.4</ele>
        <time>2022-10-06T18:34:35Z</time>
      </trkpt>
      <trkpt lat="10.2617559" lon="-85.5848490">
        <ele>77.3</ele>
        <time>2022-10-06T18:34:36Z</time>
      </trkpt>
      <trkpt lat="10.2617597" lon="-85.5848125">
        <ele>77.3</ele>
        <time>2022-10-06T18:34:37Z</time>
      </trkpt>
      <trkpt lat="10.2617646" lon="-85.5847731">
        <ele>77.2</ele>
        <time>2022-10-06T18:34:38Z</time>
      </trkpt>
      <trkpt lat="10.2617707" lon="-85.5847316">
        <ele>77.2</ele>
        <time>2022-10-06T18:34:39Z</time>
      </trkpt>
      <trkpt lat="10.2617764" lon="-85.5846882">
        <ele>77.3</ele>
        <time>2022-10-06T18:34:40Z</time>
      </trkpt>
      <trkpt lat="10.2617836" lon="-85.5846443">
        <ele>77.2</ele>
        <time>2022-10-06T18:34:41Z</time>
      </trkpt>
      <trkpt lat="10.2617898" lon="-85.5846000">
        <ele>77.2</ele>
        <time>2022-10-06T18:34:42Z</time>
      </trkpt>
      <trkpt lat="10.2617939" lon="-85.5845599">
        <ele>77.3</ele>
        <time>2022-10-06T18:34:43Z</time>
      </trkpt>
      <trkpt lat="10.2617955" lon="-85.5845255">
        <ele>77.2</ele>
        <time>2022-10-06T18:34:44Z</time>
      </trkpt>
      <trkpt lat="10.2617948" lon="-85.5845011">
        <ele>77.2</ele>
        <time>2022-10-06T18:34:45Z</time>
      </trkpt>
      <trkpt lat="10.2617923" lon="-85.5844864">
        <ele>77.3</ele>
        <time>2022-10-06T18:34:46Z</time>
      </trkpt>
      <trkpt lat="10.2617894" lon="-85.5844789">
        <ele>77.3</ele>
        <time>2022-10-06T18:34:47Z</time>
      </trkpt>
      <trkpt lat="10.2617876" lon="-85.5844722">
        <ele>77.3</ele>
        <time>2022-10-06T18:34:48Z</time>
      </trkpt>
      <trkpt lat="10.2617847" lon="-85.5844655">
        <ele>77.3</ele>
        <time>2022-10-06T18:34:49Z</time>
      </trkpt>
      <trkpt lat="10.2617791" lon="-85.5844542">
        <ele>77.3</ele>
        <time>2022-10-06T18:34:50Z</time>
      </trkpt>
      <trkpt lat="10.2617706" lon="-85.5844364">
        <ele>77.4</ele>
        <time>2022-10-06T18:34:51Z</time>
      </trkpt>
      <trkpt lat="10.2617492" lon="-85.5844249">
        <ele>77.5</ele>
        <time>2022-10-06T18:34:52Z</time>
      </trkpt>
      <trkpt lat="10.2617200" lon="-85.5844088">
        <ele>77.6</ele>
        <time>2022-10-06T18:34:53Z</time>
      </trkpt>
      <trkpt lat="10.2616787" lon="-85.5844009">
        <ele>77.4</ele>
        <time>2022-10-06T18:34:54Z</time>
      </trkpt>
      <trkpt lat="10.2616347" lon="-85.5844034">
        <ele>77.3</ele>
        <time>2022-10-06T18:34:55Z</time>
      </trkpt>
      <trkpt lat="10.2615904" lon="-85.5844007">
        <ele>77.4</ele>
        <time>2022-10-06T18:34:56Z</time>
      </trkpt>
      <trkpt lat="10.2615449" lon="-85.5843991">
        <ele>77.4</ele>
        <time>2022-10-06T18:34:57Z</time>
      </trkpt>
      <trkpt lat="10.2614985" lon="-85.5843960">
        <ele>77.5</ele>
        <time>2022-10-06T18:34:58Z</time>
      </trkpt>
      <trkpt lat="10.2614611" lon="-85.5843961">
        <ele>77.6</ele>
        <time>2022-10-06T18:34:59Z</time>
      </trkpt>
      <trkpt lat="10.2614282" lon="-85.5843940">
        <ele>77.6</ele>
        <time>2022-10-06T18:35:00Z</time>
      </trkpt>
      <trkpt lat="10.2614117" lon="-85.5843943">
        <ele>77.6</ele>
        <time>2022-10-06T18:35:01Z</time>
      </trkpt>
      <trkpt lat="10.2613988" lon="-85.5843928">
        <ele>77.7</ele>
        <time>2022-10-06T18:35:02Z</time>
      </trkpt>
      <trkpt lat="10.2613899" lon="-85.5843915">
        <ele>77.9</ele>
        <time>2022-10-06T18:35:03Z</time>
      </trkpt>
      <trkpt lat="10.2613843" lon="-85.5843907">
        <ele>78.0</ele>
        <time>2022-10-06T18:35:04Z</time>
      </trkpt>
      <trkpt lat="10.2613768" lon="-85.5843885">
        <ele>78.0</ele>
        <time>2022-10-06T18:35:05Z</time>
      </trkpt>
      <trkpt lat="10.2613611" lon="-85.5843854">
        <ele>78.0</ele>
        <time>2022-10-06T18:35:06Z</time>
      </trkpt>
      <trkpt lat="10.2613420" lon="-85.5843804">
        <ele>77.7</ele>
        <time>2022-10-06T18:35:07Z</time>
      </trkpt>
      <trkpt lat="10.2613092" lon="-85.5843727">
        <ele>77.9</ele>
        <time>2022-10-06T18:35:08Z</time>
      </trkpt>
      <trkpt lat="10.2612678" lon="-85.5843666">
        <ele>77.7</ele>
        <time>2022-10-06T18:35:09Z</time>
      </trkpt>
      <trkpt lat="10.2612248" lon="-85.5843633">
        <ele>77.7</ele>
        <time>2022-10-06T18:35:10Z</time>
      </trkpt>
      <trkpt lat="10.2611823" lon="-85.5843582">
        <ele>77.8</ele>
        <time>2022-10-06T18:35:11Z</time>
      </trkpt>
      <trkpt lat="10.2611484" lon="-85.5843547">
        <ele>78.3</ele>
        <time>2022-10-06T18:35:12Z</time>
      </trkpt>
      <trkpt lat="10.2611086" lon="-85.5843497">
        <ele>78.2</ele>
        <time>2022-10-06T18:35:13Z</time>
      </trkpt>
      <trkpt lat="10.2610613" lon="-85.5843432">
        <ele>78.2</ele>
        <time>2022-10-06T18:35:14Z</time>
      </trkpt>
      <trkpt lat="10.2610110" lon="-85.5843352">
        <ele>77.9</ele>
        <time>2022-10-06T18:35:15Z</time>
      </trkpt>
      <trkpt lat="10.2609579" lon="-85.5843269">
        <ele>78.1</ele>
        <time>2022-10-06T18:35:16Z</time>
      </trkpt>
      <trkpt lat="10.2609018" lon="-85.5843190">
        <ele>78.2</ele>
        <time>2022-10-06T18:35:17Z</time>
      </trkpt>
      <trkpt lat="10.2608461" lon="-85.5843100">
        <ele>78.3</ele>
        <time>2022-10-06T18:35:18Z</time>
      </trkpt>
      <trkpt lat="10.2607937" lon="-85.5843004">
        <ele>78.3</ele>
        <time>2022-10-06T18:35:19Z</time>
      </trkpt>
      <trkpt lat="10.2607430" lon="-85.5842900">
        <ele>78.1</ele>
        <time>2022-10-06T18:35:20Z</time>
      </trkpt>
      <trkpt lat="10.2606925" lon="-85.5842815">
        <ele>78.0</ele>
        <time>2022-10-06T18:35:21Z</time>
      </trkpt>
      <trkpt lat="10.2606464" lon="-85.5842749">
        <ele>78.1</ele>
        <time>2022-10-06T18:35:22Z</time>
      </trkpt>
      <trkpt lat="10.2606086" lon="-85.5842741">
        <ele>78.1</ele>
        <time>2022-10-06T18:35:23Z</time>
      </trkpt>
      <trkpt lat="10.2605797" lon="-85.5842795">
        <ele>78.1</ele>
        <time>2022-10-06T18:35:24Z</time>
      </trkpt>
      <trkpt lat="10.2605682" lon="-85.5842818">
        <ele>78.3</ele>
        <time>2022-10-06T18:35:25Z</time>
      </trkpt>
      <trkpt lat="10.2605575" lon="-85.5842819">
        <ele>78.1</ele>
        <time>2022-10-06T18:35:26Z</time>
      </trkpt>
      <trkpt lat="10.2605498" lon="-85.5842816">
        <ele>77.9</ele>
        <time>2022-10-06T18:35:27Z</time>
      </trkpt>
      <trkpt lat="10.2605457" lon="-85.5842816">
        <ele>77.9</ele>
        <time>2022-10-06T18:35:28Z</time>
      </trkpt>
      <trkpt lat="10.2605444" lon="-85.5842814">
        <ele>78.0</ele>
        <time>2022-10-06T18:35:29Z</time>
      </trkpt>
      <trkpt lat="10.2605358" lon="-85.5842800">
        <ele>78.0</ele>
        <time>2022-10-06T18:35:30Z</time>
      </trkpt>
      <trkpt lat="10.2605258" lon="-85.5842794">
        <ele>78.0</ele>
        <time>2022-10-06T18:35:31Z</time>
      </trkpt>
      <trkpt lat="10.2605055" lon="-85.5842764">
        <ele>77.9</ele>
        <time>2022-10-06T18:35:32Z</time>
      </trkpt>
      <trkpt lat="10.2604753" lon="-85.5842709">
        <ele>77.8</ele>
        <time>2022-10-06T18:35:33Z</time>
      </trkpt>
      <trkpt lat="10.2604411" lon="-85.5842642">
        <ele>77.9</ele>
        <time>2022-10-06T18:35:34Z</time>
      </trkpt>
      <trkpt lat="10.2603991" lon="-85.5842566">
        <ele>77.9</ele>
        <time>2022-10-06T18:35:35Z</time>
      </trkpt>
      <trkpt lat="10.2603503" lon="-85.5842479">
        <ele>77.9</ele>
        <time>2022-10-06T18:35:36Z</time>
      </trkpt>
      <trkpt lat="10.2603016" lon="-85.5842403">
        <ele>77.9</ele>
        <time>2022-10-06T18:35:37Z</time>
      </trkpt>
      <trkpt lat="10.2602507" lon="-85.5842328">
        <ele>77.7</ele>
        <time>2022-10-06T18:35:38Z</time>
      </trkpt>
      <trkpt lat="10.2601997" lon="-85.5842230">
        <ele>77.7</ele>
        <time>2022-10-06T18:35:39Z</time>
      </trkpt>
      <trkpt lat="10.2601475" lon="-85.5842148">
        <ele>77.9</ele>
        <time>2022-10-06T18:35:40Z</time>
      </trkpt>
      <trkpt lat="10.2600951" lon="-85.5842061">
        <ele>77.9</ele>
        <time>2022-10-06T18:35:41Z</time>
      </trkpt>
      <trkpt lat="10.2600457" lon="-85.5841997">
        <ele>78.0</ele>
        <time>2022-10-06T18:35:42Z</time>
      </trkpt>
      <trkpt lat="10.2599923" lon="-85.5841943">
        <ele>78.1</ele>
        <time>2022-10-06T18:35:43Z</time>
      </trkpt>
      <trkpt lat="10.2599398" lon="-85.5841889">
        <ele>78.2</ele>
        <time>2022-10-06T18:35:44Z</time>
      </trkpt>
      <trkpt lat="10.2598881" lon="-85.5841816">
        <ele>78.1</ele>
        <time>2022-10-06T18:35:45Z</time>
      </trkpt>
      <trkpt lat="10.2598407" lon="-85.5841755">
        <ele>78.1</ele>
        <time>2022-10-06T18:35:46Z</time>
      </trkpt>
      <trkpt lat="10.2597990" lon="-85.5841689">
        <ele>77.7</ele>
        <time>2022-10-06T18:35:47Z</time>
      </trkpt>
      <trkpt lat="10.2597571" lon="-85.5841618">
        <ele>77.8</ele>
        <time>2022-10-06T18:35:48Z</time>
      </trkpt>
      <trkpt lat="10.2597128" lon="-85.5841527">
        <ele>77.8</ele>
        <time>2022-10-06T18:35:49Z</time>
      </trkpt>
      <trkpt lat="10.2596654" lon="-85.5841442">
        <ele>78.0</ele>
        <time>2022-10-06T18:35:50Z</time>
      </trkpt>
      <trkpt lat="10.2596173" lon="-85.5841350">
        <ele>78.0</ele>
        <time>2022-10-06T18:35:51Z</time>
      </trkpt>
      <trkpt lat="10.2595682" lon="-85.5841277">
        <ele>78.2</ele>
        <time>2022-10-06T18:35:52Z</time>
      </trkpt>
      <trkpt lat="10.2595141" lon="-85.5841193">
        <ele>78.2</ele>
        <time>2022-10-06T18:35:53Z</time>
      </trkpt>
      <trkpt lat="10.2594578" lon="-85.5841133">
        <ele>78.1</ele>
        <time>2022-10-06T18:35:54Z</time>
      </trkpt>
      <trkpt lat="10.2593996" lon="-85.5841054">
        <ele>78.2</ele>
        <time>2022-10-06T18:35:55Z</time>
      </trkpt>
      <trkpt lat="10.2593423" lon="-85.5840972">
        <ele>78.3</ele>
        <time>2022-10-06T18:35:56Z</time>
      </trkpt>
      <trkpt lat="10.2592864" lon="-85.5840899">
        <ele>78.5</ele>
        <time>2022-10-06T18:35:57Z</time>
      </trkpt>
      <trkpt lat="10.2592350" lon="-85.5840828">
        <ele>78.6</ele>
        <time>2022-10-06T18:35:58Z</time>
      </trkpt>
      <trkpt lat="10.2591887" lon="-85.5840774">
        <ele>78.6</ele>
        <time>2022-10-06T18:35:59Z</time>
      </trkpt>
      <trkpt lat="10.2591589" lon="-85.5840746">
        <ele>78.4</ele>
        <time>2022-10-06T18:36:00Z</time>
      </trkpt>
      <trkpt lat="10.2591329" lon="-85.5840852">
        <ele>78.7</ele>
        <time>2022-10-06T18:36:01Z</time>
      </trkpt>
      <trkpt lat="10.2591145" lon="-85.5840989">
        <ele>78.9</ele>
        <time>2022-10-06T18:36:02Z</time>
      </trkpt>
      <trkpt lat="10.2590967" lon="-85.5841123">
        <ele>78.7</ele>
        <time>2022-10-06T18:36:03Z</time>
      </trkpt>
      <trkpt lat="10.2590892" lon="-85.5841460">
        <ele>79.0</ele>
        <time>2022-10-06T18:36:04Z</time>
      </trkpt>
      <trkpt lat="10.2590820" lon="-85.5841833">
        <ele>79.0</ele>
        <time>2022-10-06T18:36:05Z</time>
      </trkpt>
      <trkpt lat="10.2590756" lon="-85.5842262">
        <ele>79.1</ele>
        <time>2022-10-06T18:36:06Z</time>
      </trkpt>
      <trkpt lat="10.2590729" lon="-85.5842745">
        <ele>79.2</ele>
        <time>2022-10-06T18:36:07Z</time>
      </trkpt>
      <trkpt lat="10.2590662" lon="-85.5843287">
        <ele>79.3</ele>
        <time>2022-10-06T18:36:08Z</time>
      </trkpt>
      <trkpt lat="10.2590575" lon="-85.5843849">
        <ele>79.3</ele>
        <time>2022-10-06T18:36:09Z</time>
      </trkpt>
      <trkpt lat="10.2590494" lon="-85.5844429">
        <ele>79.5</ele>
        <time>2022-10-06T18:36:10Z</time>
      </trkpt>
      <trkpt lat="10.2590407" lon="-85.5845014">
        <ele>79.5</ele>
        <time>2022-10-06T18:36:11Z</time>
      </trkpt>
      <trkpt lat="10.2590323" lon="-85.5845572">
        <ele>80.1</ele>
        <time>2022-10-06T18:36:12Z</time>
      </trkpt>
      <trkpt lat="10.2590243" lon="-85.5846111">
        <ele>80.2</ele>
        <time>2022-10-06T18:36:13Z</time>
      </trkpt>
      <trkpt lat="10.2590149" lon="-85.5846623">
        <ele>80.2</ele>
        <time>2022-10-06T18:36:14Z</time>
      </trkpt>
      <trkpt lat="10.2590072" lon="-85.5847128">
        <ele>80.2</ele>
        <time>2022-10-06T18:36:15Z</time>
      </trkpt>
      <trkpt lat="10.2590002" lon="-85.5847589">
        <ele>80.3</ele>
        <time>2022-10-06T18:36:16Z</time>
      </trkpt>
      <trkpt lat="10.2589922" lon="-85.5848026">
        <ele>80.3</ele>
        <time>2022-10-06T18:36:17Z</time>
      </trkpt>
      <trkpt lat="10.2589862" lon="-85.5848382">
        <ele>80.3</ele>
        <time>2022-10-06T18:36:18Z</time>
      </trkpt>
      <trkpt lat="10.2589823" lon="-85.5848641">
        <ele>80.3</ele>
        <time>2022-10-06T18:36:19Z</time>
      </trkpt>
      <trkpt lat="10.2589798" lon="-85.5848773">
        <ele>80.5</ele>
        <time>2022-10-06T18:36:20Z</time>
      </trkpt>
      <trkpt lat="10.2589790" lon="-85.5848850">
        <ele>80.5</ele>
        <time>2022-10-06T18:36:21Z</time>
      </trkpt>
      <trkpt lat="10.2589790" lon="-85.5848850">
        <ele>80.5</ele>
        <time>2022-10-06T18:36:22Z</time>
      </trkpt>
      <trkpt lat="10.2589790" lon="-85.5848850">
        <ele>80.6</ele>
        <time>2022-10-06T18:36:23Z</time>
      </trkpt>
      <trkpt lat="10.2589790" lon="-85.5848850">
        <ele>80.6</ele>
        <time>2022-10-06T18:36:24Z</time>
      </trkpt>
      <trkpt lat="10.2589790" lon="-85.5848850">
        <ele>80.6</ele>
        <time>2022-10-06T18:36:25Z</time>
      </trkpt>
      <trkpt lat="10.2589790" lon="-85.5848850">
        <ele>80.6</ele>
        <time>2022-10-06T18:36:26Z</time>
      </trkpt>
      <trkpt lat="10.2589790" lon="-85.5848850">
        <ele>80.6</ele>
        <time>2022-10-06T18:36:27Z</time>
      </trkpt>
      <trkpt lat="10.2589790" lon="-85.5848850">
        <ele>80.6</ele>
        <time>2022-10-06T18:36:28Z</time>
      </trkpt>
      <trkpt lat="10.2589790" lon="-85.5848850">
        <ele>80.6</ele>
        <time>2022-10-06T18:36:29Z</time>
      </trkpt>
      <trkpt lat="10.2589750" lon="-85.5849115">
        <ele>80.7</ele>
        <time>2022-10-06T18:36:30Z</time>
      </trkpt>
      <trkpt lat="10.2589747" lon="-85.5849193">
        <ele>80.6</ele>
        <time>2022-10-06T18:36:31Z</time>
      </trkpt>
      <trkpt lat="10.2589747" lon="-85.5849262">
        <ele>80.6</ele>
        <time>2022-10-06T18:36:32Z</time>
      </trkpt>
      <trkpt lat="10.2589755" lon="-85.5849340">
        <ele>80.7</ele>
        <time>2022-10-06T18:36:33Z</time>
      </trkpt>
      <trkpt lat="10.2589803" lon="-85.5849454">
        <ele>80.6</ele>
        <time>2022-10-06T18:36:34Z</time>
      </trkpt>
      <trkpt lat="10.2589929" lon="-85.5849577">
        <ele>80.8</ele>
        <time>2022-10-06T18:36:35Z</time>
      </trkpt>
      <trkpt lat="10.2590132" lon="-85.5849666">
        <ele>80.7</ele>
        <time>2022-10-06T18:36:36Z</time>
      </trkpt>
      <trkpt lat="10.2590329" lon="-85.5849790">
        <ele>80.7</ele>
        <time>2022-10-06T18:36:37Z</time>
      </trkpt>
      <trkpt lat="10.2590627" lon="-85.5849803">
        <ele>80.4</ele>
        <time>2022-10-06T18:36:38Z</time>
      </trkpt>
      <trkpt lat="10.2590965" lon="-85.5849845">
        <ele>80.4</ele>
        <time>2022-10-06T18:36:39Z</time>
      </trkpt>
      <trkpt lat="10.2591290" lon="-85.5849899">
        <ele>80.3</ele>
        <time>2022-10-06T18:36:40Z</time>
      </trkpt>
      <trkpt lat="10.2591556" lon="-85.5849934">
        <ele>80.3</ele>
        <time>2022-10-06T18:36:41Z</time>
      </trkpt>
      <trkpt lat="10.2591829" lon="-85.5849963">
        <ele>80.1</ele>
        <time>2022-10-06T18:36:42Z</time>
      </trkpt>
      <trkpt lat="10.2592087" lon="-85.5850005">
        <ele>80.0</ele>
        <time>2022-10-06T18:36:43Z</time>
      </trkpt>
      <trkpt lat="10.2592337" lon="-85.5850052">
        <ele>80.0</ele>
        <time>2022-10-06T18:36:44Z</time>
      </trkpt>
      <trkpt lat="10.2592694" lon="-85.5850092">
        <ele>80.0</ele>
        <time>2022-10-06T18:36:45Z</time>
      </trkpt>
      <trkpt lat="10.2593183" lon="-85.5850149">
        <ele>79.8</ele>
        <time>2022-10-06T18:36:46Z</time>
      </trkpt>
      <trkpt lat="10.2593768" lon="-85.5850222">
        <ele>80.0</ele>
        <time>2022-10-06T18:36:47Z</time>
      </trkpt>
      <trkpt lat="10.2594339" lon="-85.5850286">
        <ele>80.0</ele>
        <time>2022-10-06T18:36:48Z</time>
      </trkpt>
      <trkpt lat="10.2594863" lon="-85.5850349">
        <ele>80.3</ele>
        <time>2022-10-06T18:36:49Z</time>
      </trkpt>
      <trkpt lat="10.2595355" lon="-85.5850413">
        <ele>80.4</ele>
        <time>2022-10-06T18:36:50Z</time>
      </trkpt>
      <trkpt lat="10.2595778" lon="-85.5850481">
        <ele>80.6</ele>
        <time>2022-10-06T18:36:51Z</time>
      </trkpt>
      <trkpt lat="10.2596182" lon="-85.5850534">
        <ele>80.5</ele>
        <time>2022-10-06T18:36:52Z</time>
      </trkpt>
      <trkpt lat="10.2596560" lon="-85.5850581">
        <ele>80.5</ele>
        <time>2022-10-06T18:36:53Z</time>
      </trkpt>
      <trkpt lat="10.2596911" lon="-85.5850627">
        <ele>80.4</ele>
        <time>2022-10-06T18:36:54Z</time>
      </trkpt>
      <trkpt lat="10.2597254" lon="-85.5850667">
        <ele>80.4</ele>
        <time>2022-10-06T18:36:55Z</time>
      </trkpt>
      <trkpt lat="10.2597610" lon="-85.5850708">
        <ele>80.3</ele>
        <time>2022-10-06T18:36:56Z</time>
      </trkpt>
      <trkpt lat="10.2597974" lon="-85.5850751">
        <ele>80.2</ele>
        <time>2022-10-06T18:36:57Z</time>
      </trkpt>
      <trkpt lat="10.2598339" lon="-85.5850788">
        <ele>79.9</ele>
        <time>2022-10-06T18:36:58Z</time>
      </trkpt>
      <trkpt lat="10.2598658" lon="-85.5850839">
        <ele>79.8</ele>
        <time>2022-10-06T18:36:59Z</time>
      </trkpt>
      <trkpt lat="10.2598958" lon="-85.5850896">
        <ele>79.9</ele>
        <time>2022-10-06T18:37:00Z</time>
      </trkpt>
      <trkpt lat="10.2599287" lon="-85.5850934">
        <ele>79.8</ele>
        <time>2022-10-06T18:37:01Z</time>
      </trkpt>
      <trkpt lat="10.2599633" lon="-85.5850976">
        <ele>79.7</ele>
        <time>2022-10-06T18:37:02Z</time>
      </trkpt>
      <trkpt lat="10.2599989" lon="-85.5851006">
        <ele>79.6</ele>
        <time>2022-10-06T18:37:03Z</time>
      </trkpt>
      <trkpt lat="10.2600326" lon="-85.5851053">
        <ele>79.6</ele>
        <time>2022-10-06T18:37:04Z</time>
      </trkpt>
      <trkpt lat="10.2600680" lon="-85.5851108">
        <ele>79.5</ele>
        <time>2022-10-06T18:37:05Z</time>
      </trkpt>
      <trkpt lat="10.2601070" lon="-85.5851162">
        <ele>79.5</ele>
        <time>2022-10-06T18:37:06Z</time>
      </trkpt>
      <trkpt lat="10.2601455" lon="-85.5851195">
        <ele>79.6</ele>
        <time>2022-10-06T18:37:07Z</time>
      </trkpt>
      <trkpt lat="10.2601884" lon="-85.5851256">
        <ele>79.6</ele>
        <time>2022-10-06T18:37:08Z</time>
      </trkpt>
      <trkpt lat="10.2602311" lon="-85.5851319">
        <ele>79.6</ele>
        <time>2022-10-06T18:37:09Z</time>
      </trkpt>
      <trkpt lat="10.2602716" lon="-85.5851377">
        <ele>79.5</ele>
        <time>2022-10-06T18:37:10Z</time>
      </trkpt>
      <trkpt lat="10.2603113" lon="-85.5851430">
        <ele>79.3</ele>
        <time>2022-10-06T18:37:11Z</time>
      </trkpt>
      <trkpt lat="10.2603502" lon="-85.5851465">
        <ele>79.5</ele>
        <time>2022-10-06T18:37:12Z</time>
      </trkpt>
      <trkpt lat="10.2603874" lon="-85.5851527">
        <ele>79.4</ele>
        <time>2022-10-06T18:37:13Z</time>
      </trkpt>
      <trkpt lat="10.2604284" lon="-85.5851560">
        <ele>79.2</ele>
        <time>2022-10-06T18:37:14Z</time>
      </trkpt>
      <trkpt lat="10.2604727" lon="-85.5851601">
        <ele>79.3</ele>
        <time>2022-10-06T18:37:15Z</time>
      </trkpt>
      <trkpt lat="10.2605167" lon="-85.5851648">
        <ele>79.1</ele>
        <time>2022-10-06T18:37:16Z</time>
      </trkpt>
      <trkpt lat="10.2605664" lon="-85.5851698">
        <ele>79.1</ele>
        <time>2022-10-06T18:37:17Z</time>
      </trkpt>
      <trkpt lat="10.2606138" lon="-85.5851761">
        <ele>78.8</ele>
        <time>2022-10-06T18:37:18Z</time>
      </trkpt>
      <trkpt lat="10.2606651" lon="-85.5851820">
        <ele>78.7</ele>
        <time>2022-10-06T18:37:19Z</time>
      </trkpt>
      <trkpt lat="10.2607167" lon="-85.5851895">
        <ele>78.7</ele>
        <time>2022-10-06T18:37:20Z</time>
      </trkpt>
      <trkpt lat="10.2607701" lon="-85.5851959">
        <ele>78.7</ele>
        <time>2022-10-06T18:37:21Z</time>
      </trkpt>
      <trkpt lat="10.2608225" lon="-85.5852024">
        <ele>78.6</ele>
        <time>2022-10-06T18:37:22Z</time>
      </trkpt>
      <trkpt lat="10.2608760" lon="-85.5852101">
        <ele>78.5</ele>
        <time>2022-10-06T18:37:23Z</time>
      </trkpt>
      <trkpt lat="10.2609275" lon="-85.5852173">
        <ele>78.3</ele>
        <time>2022-10-06T18:37:24Z</time>
      </trkpt>
      <trkpt lat="10.2609813" lon="-85.5852259">
        <ele>78.2</ele>
        <time>2022-10-06T18:37:25Z</time>
      </trkpt>
      <trkpt lat="10.2610344" lon="-85.5852352">
        <ele>78.2</ele>
        <time>2022-10-06T18:37:26Z</time>
      </trkpt>
      <trkpt lat="10.2610839" lon="-85.5852401">
        <ele>78.1</ele>
        <time>2022-10-06T18:37:27Z</time>
      </trkpt>
      <trkpt lat="10.2611358" lon="-85.5852476">
        <ele>78.2</ele>
        <time>2022-10-06T18:37:28Z</time>
      </trkpt>
      <trkpt lat="10.2611861" lon="-85.5852556">
        <ele>78.1</ele>
        <time>2022-10-06T18:37:29Z</time>
      </trkpt>
      <trkpt lat="10.2612373" lon="-85.5852635">
        <ele>78.1</ele>
        <time>2022-10-06T18:37:30Z</time>
      </trkpt>
      <trkpt lat="10.2612907" lon="-85.5852705">
        <ele>78.0</ele>
        <time>2022-10-06T18:37:31Z</time>
      </trkpt>
      <trkpt lat="10.2613464" lon="-85.5852777">
        <ele>77.9</ele>
        <time>2022-10-06T18:37:32Z</time>
      </trkpt>
      <trkpt lat="10.2613991" lon="-85.5852843">
        <ele>77.8</ele>
        <time>2022-10-06T18:37:33Z</time>
      </trkpt>
      <trkpt lat="10.2614539" lon="-85.5852917">
        <ele>77.8</ele>
        <time>2022-10-06T18:37:34Z</time>
      </trkpt>
      <trkpt lat="10.2615061" lon="-85.5852994">
        <ele>77.7</ele>
        <time>2022-10-06T18:37:35Z</time>
      </trkpt>
      <trkpt lat="10.2615582" lon="-85.5853066">
        <ele>77.7</ele>
        <time>2022-10-06T18:37:36Z</time>
      </trkpt>
      <trkpt lat="10.2616063" lon="-85.5853122">
        <ele>77.6</ele>
        <time>2022-10-06T18:37:37Z</time>
      </trkpt>
      <trkpt lat="10.2616468" lon="-85.5853176">
        <ele>77.5</ele>
        <time>2022-10-06T18:37:38Z</time>
      </trkpt>
      <trkpt lat="10.2616845" lon="-85.5853233">
        <ele>77.5</ele>
        <time>2022-10-06T18:37:39Z</time>
      </trkpt>
      <trkpt lat="10.2617183" lon="-85.5853270">
        <ele>77.5</ele>
        <time>2022-10-06T18:37:40Z</time>
      </trkpt>
      <trkpt lat="10.2617516" lon="-85.5853309">
        <ele>77.5</ele>
        <time>2022-10-06T18:37:41Z</time>
      </trkpt>
      <trkpt lat="10.2617878" lon="-85.5853358">
        <ele>77.4</ele>
        <time>2022-10-06T18:37:42Z</time>
      </trkpt>
      <trkpt lat="10.2618280" lon="-85.5853411">
        <ele>77.5</ele>
        <time>2022-10-06T18:37:43Z</time>
      </trkpt>
      <trkpt lat="10.2618681" lon="-85.5853472">
        <ele>77.3</ele>
        <time>2022-10-06T18:37:44Z</time>
      </trkpt>
      <trkpt lat="10.2618997" lon="-85.5853528">
        <ele>77.0</ele>
        <time>2022-10-06T18:37:45Z</time>
      </trkpt>
      <trkpt lat="10.2619281" lon="-85.5853576">
        <ele>76.8</ele>
        <time>2022-10-06T18:37:46Z</time>
      </trkpt>
      <trkpt lat="10.2619582" lon="-85.5853621">
        <ele>76.7</ele>
        <time>2022-10-06T18:37:47Z</time>
      </trkpt>
      <trkpt lat="10.2619922" lon="-85.5853674">
        <ele>76.8</ele>
        <time>2022-10-06T18:37:48Z</time>
      </trkpt>
      <trkpt lat="10.2620287" lon="-85.5853724">
        <ele>76.8</ele>
        <time>2022-10-06T18:37:49Z</time>
      </trkpt>
      <trkpt lat="10.2620667" lon="-85.5853775">
        <ele>76.8</ele>
        <time>2022-10-06T18:37:50Z</time>
      </trkpt>
      <trkpt lat="10.2621068" lon="-85.5853821">
        <ele>76.9</ele>
        <time>2022-10-06T18:37:51Z</time>
      </trkpt>
      <trkpt lat="10.2621461" lon="-85.5853883">
        <ele>76.8</ele>
        <time>2022-10-06T18:37:52Z</time>
      </trkpt>
      <trkpt lat="10.2621844" lon="-85.5853940">
        <ele>76.8</ele>
        <time>2022-10-06T18:37:53Z</time>
      </trkpt>
      <trkpt lat="10.2622216" lon="-85.5853989">
        <ele>76.7</ele>
        <time>2022-10-06T18:37:54Z</time>
      </trkpt>
      <trkpt lat="10.2622559" lon="-85.5854041">
        <ele>76.7</ele>
        <time>2022-10-06T18:37:55Z</time>
      </trkpt>
      <trkpt lat="10.2622910" lon="-85.5854093">
        <ele>76.8</ele>
        <time>2022-10-06T18:37:56Z</time>
      </trkpt>
      <trkpt lat="10.2623284" lon="-85.5854134">
        <ele>76.7</ele>
        <time>2022-10-06T18:37:57Z</time>
      </trkpt>
      <trkpt lat="10.2623672" lon="-85.5854173">
        <ele>76.8</ele>
        <time>2022-10-06T18:37:58Z</time>
      </trkpt>
      <trkpt lat="10.2624057" lon="-85.5854220">
        <ele>76.8</ele>
        <time>2022-10-06T18:37:59Z</time>
      </trkpt>
      <trkpt lat="10.2624414" lon="-85.5854276">
        <ele>76.7</ele>
        <time>2022-10-06T18:38:00Z</time>
      </trkpt>
      <trkpt lat="10.2624765" lon="-85.5854321">
        <ele>76.9</ele>
        <time>2022-10-06T18:38:01Z</time>
      </trkpt>
      <trkpt lat="10.2625119" lon="-85.5854375">
        <ele>76.9</ele>
        <time>2022-10-06T18:38:02Z</time>
      </trkpt>
      <trkpt lat="10.2625496" lon="-85.5854421">
        <ele>76.9</ele>
        <time>2022-10-06T18:38:03Z</time>
      </trkpt>
      <trkpt lat="10.2625872" lon="-85.5854460">
        <ele>76.9</ele>
        <time>2022-10-06T18:38:04Z</time>
      </trkpt>
      <trkpt lat="10.2626251" lon="-85.5854510">
        <ele>76.9</ele>
        <time>2022-10-06T18:38:05Z</time>
      </trkpt>
      <trkpt lat="10.2626666" lon="-85.5854559">
        <ele>76.8</ele>
        <time>2022-10-06T18:38:06Z</time>
      </trkpt>
      <trkpt lat="10.2627136" lon="-85.5854629">
        <ele>76.7</ele>
        <time>2022-10-06T18:38:07Z</time>
      </trkpt>
      <trkpt lat="10.2627628" lon="-85.5854708">
        <ele>76.7</ele>
        <time>2022-10-06T18:38:08Z</time>
      </trkpt>
      <trkpt lat="10.2628114" lon="-85.5854792">
        <ele>76.7</ele>
        <time>2022-10-06T18:38:09Z</time>
      </trkpt>
      <trkpt lat="10.2628612" lon="-85.5854871">
        <ele>76.7</ele>
        <time>2022-10-06T18:38:10Z</time>
      </trkpt>
      <trkpt lat="10.2629123" lon="-85.5854944">
        <ele>76.7</ele>
        <time>2022-10-06T18:38:11Z</time>
      </trkpt>
      <trkpt lat="10.2629578" lon="-85.5855011">
        <ele>76.8</ele>
        <time>2022-10-06T18:38:12Z</time>
      </trkpt>
      <trkpt lat="10.2630083" lon="-85.5855074">
        <ele>76.7</ele>
        <time>2022-10-06T18:38:13Z</time>
      </trkpt>
      <trkpt lat="10.2630608" lon="-85.5855134">
        <ele>76.7</ele>
        <time>2022-10-06T18:38:14Z</time>
      </trkpt>
      <trkpt lat="10.2631070" lon="-85.5855190">
        <ele>76.7</ele>
        <time>2022-10-06T18:38:15Z</time>
      </trkpt>
      <trkpt lat="10.2631551" lon="-85.5855236">
        <ele>76.7</ele>
        <time>2022-10-06T18:38:16Z</time>
      </trkpt>
      <trkpt lat="10.2632004" lon="-85.5855289">
        <ele>76.6</ele>
        <time>2022-10-06T18:38:17Z</time>
      </trkpt>
      <trkpt lat="10.2632459" lon="-85.5855349">
        <ele>76.6</ele>
        <time>2022-10-06T18:38:18Z</time>
      </trkpt>
      <trkpt lat="10.2632893" lon="-85.5855399">
        <ele>76.6</ele>
        <time>2022-10-06T18:38:19Z</time>
      </trkpt>
      <trkpt lat="10.2633313" lon="-85.5855446">
        <ele>76.6</ele>
        <time>2022-10-06T18:38:20Z</time>
      </trkpt>
      <trkpt lat="10.2633723" lon="-85.5855497">
        <ele>76.7</ele>
        <time>2022-10-06T18:38:21Z</time>
      </trkpt>
      <trkpt lat="10.2634115" lon="-85.5855542">
        <ele>76.6</ele>
        <time>2022-10-06T18:38:22Z</time>
      </trkpt>
      <trkpt lat="10.2634511" lon="-85.5855594">
        <ele>76.6</ele>
        <time>2022-10-06T18:38:23Z</time>
      </trkpt>
      <trkpt lat="10.2634928" lon="-85.5855648">
        <ele>76.6</ele>
        <time>2022-10-06T18:38:24Z</time>
      </trkpt>
      <trkpt lat="10.2635380" lon="-85.5855703">
        <ele>76.6</ele>
        <time>2022-10-06T18:38:25Z</time>
      </trkpt>
      <trkpt lat="10.2635823" lon="-85.5855754">
        <ele>76.7</ele>
        <time>2022-10-06T18:38:26Z</time>
      </trkpt>
      <trkpt lat="10.2636309" lon="-85.5855810">
        <ele>76.7</ele>
        <time>2022-10-06T18:38:27Z</time>
      </trkpt>
      <trkpt lat="10.2636782" lon="-85.5855880">
        <ele>76.8</ele>
        <time>2022-10-06T18:38:28Z</time>
      </trkpt>
      <trkpt lat="10.2637269" lon="-85.5855952">
        <ele>76.8</ele>
        <time>2022-10-06T18:38:29Z</time>
      </trkpt>
      <trkpt lat="10.2637779" lon="-85.5856039">
        <ele>76.8</ele>
        <time>2022-10-06T18:38:30Z</time>
      </trkpt>
      <trkpt lat="10.2638245" lon="-85.5856105">
        <ele>76.8</ele>
        <time>2022-10-06T18:38:31Z</time>
      </trkpt>
      <trkpt lat="10.2638680" lon="-85.5856173">
        <ele>76.9</ele>
        <time>2022-10-06T18:38:32Z</time>
      </trkpt>
      <trkpt lat="10.2639132" lon="-85.5856245">
        <ele>76.7</ele>
        <time>2022-10-06T18:38:33Z</time>
      </trkpt>
      <trkpt lat="10.2639530" lon="-85.5856314">
        <ele>76.8</ele>
        <time>2022-10-06T18:38:34Z</time>
      </trkpt>
      <trkpt lat="10.2639904" lon="-85.5856358">
        <ele>76.8</ele>
        <time>2022-10-06T18:38:35Z</time>
      </trkpt>
      <trkpt lat="10.2640254" lon="-85.5856389">
        <ele>76.7</ele>
        <time>2022-10-06T18:38:36Z</time>
      </trkpt>
      <trkpt lat="10.2640629" lon="-85.5856440">
        <ele>76.6</ele>
        <time>2022-10-06T18:38:37Z</time>
      </trkpt>
      <trkpt lat="10.2641005" lon="-85.5856498">
        <ele>76.6</ele>
        <time>2022-10-06T18:38:38Z</time>
      </trkpt>
      <trkpt lat="10.2641358" lon="-85.5856557">
        <ele>76.6</ele>
        <time>2022-10-06T18:38:39Z</time>
      </trkpt>
      <trkpt lat="10.2641698" lon="-85.5856601">
        <ele>76.6</ele>
        <time>2022-10-06T18:38:40Z</time>
      </trkpt>
      <trkpt lat="10.2641996" lon="-85.5856624">
        <ele>77.3</ele>
        <time>2022-10-06T18:38:41Z</time>
      </trkpt>
      <trkpt lat="10.2642243" lon="-85.5856662">
        <ele>77.2</ele>
        <time>2022-10-06T18:38:42Z</time>
      </trkpt>
      <trkpt lat="10.2642478" lon="-85.5856711">
        <ele>77.2</ele>
        <time>2022-10-06T18:38:43Z</time>
      </trkpt>
      <trkpt lat="10.2642693" lon="-85.5856750">
        <ele>77.3</ele>
        <time>2022-10-06T18:38:44Z</time>
      </trkpt>
      <trkpt lat="10.2642945" lon="-85.5856804">
        <ele>77.4</ele>
        <time>2022-10-06T18:38:45Z</time>
      </trkpt>
      <trkpt lat="10.2643187" lon="-85.5856833">
        <ele>77.3</ele>
        <time>2022-10-06T18:38:46Z</time>
      </trkpt>
      <trkpt lat="10.2643428" lon="-85.5856859">
        <ele>77.3</ele>
        <time>2022-10-06T18:38:47Z</time>
      </trkpt>
      <trkpt lat="10.2643683" lon="-85.5856900">
        <ele>77.2</ele>
        <time>2022-10-06T18:38:48Z</time>
      </trkpt>
      <trkpt lat="10.2643945" lon="-85.5856942">
        <ele>77.2</ele>
        <time>2022-10-06T18:38:49Z</time>
      </trkpt>
      <trkpt lat="10.2644193" lon="-85.5856975">
        <ele>77.2</ele>
        <time>2022-10-06T18:38:50Z</time>
      </trkpt>
      <trkpt lat="10.2644466" lon="-85.5856993">
        <ele>77.1</ele>
        <time>2022-10-06T18:38:51Z</time>
      </trkpt>
      <trkpt lat="10.2644767" lon="-85.5857018">
        <ele>77.1</ele>
        <time>2022-10-06T18:38:52Z</time>
      </trkpt>
      <trkpt lat="10.2645066" lon="-85.5857060">
        <ele>77.2</ele>
        <time>2022-10-06T18:38:53Z</time>
      </trkpt>
      <trkpt lat="10.2645357" lon="-85.5857118">
        <ele>77.2</ele>
        <time>2022-10-06T18:38:54Z</time>
      </trkpt>
      <trkpt lat="10.2645642" lon="-85.5857163">
        <ele>77.1</ele>
        <time>2022-10-06T18:38:55Z</time>
      </trkpt>
      <trkpt lat="10.2645931" lon="-85.5857207">
        <ele>77.1</ele>
        <time>2022-10-06T18:38:56Z</time>
      </trkpt>
      <trkpt lat="10.2646239" lon="-85.5857260">
        <ele>77.0</ele>
        <time>2022-10-06T18:38:57Z</time>
      </trkpt>
      <trkpt lat="10.2646557" lon="-85.5857297">
        <ele>77.0</ele>
        <time>2022-10-06T18:38:58Z</time>
      </trkpt>
      <trkpt lat="10.2646855" lon="-85.5857332">
        <ele>76.9</ele>
        <time>2022-10-06T18:38:59Z</time>
      </trkpt>
      <trkpt lat="10.2647128" lon="-85.5857376">
        <ele>76.8</ele>
        <time>2022-10-06T18:39:00Z</time>
      </trkpt>
      <trkpt lat="10.2647410" lon="-85.5857393">
        <ele>76.9</ele>
        <time>2022-10-06T18:39:01Z</time>
      </trkpt>
      <trkpt lat="10.2647702" lon="-85.5857415">
        <ele>76.9</ele>
        <time>2022-10-06T18:39:02Z</time>
      </trkpt>
      <trkpt lat="10.2648014" lon="-85.5857454">
        <ele>76.8</ele>
        <time>2022-10-06T18:39:03Z</time>
      </trkpt>
      <trkpt lat="10.2648361" lon="-85.5857494">
        <ele>77.0</ele>
        <time>2022-10-06T18:39:04Z</time>
      </trkpt>
      <trkpt lat="10.2648746" lon="-85.5857526">
        <ele>76.9</ele>
        <time>2022-10-06T18:39:05Z</time>
      </trkpt>
      <trkpt lat="10.2649140" lon="-85.5857583">
        <ele>76.9</ele>
        <time>2022-10-06T18:39:06Z</time>
      </trkpt>
      <trkpt lat="10.2649525" lon="-85.5857631">
        <ele>76.8</ele>
        <time>2022-10-06T18:39:07Z</time>
      </trkpt>
      <trkpt lat="10.2649872" lon="-85.5857683">
        <ele>76.8</ele>
        <time>2022-10-06T18:39:08Z</time>
      </trkpt>
      <trkpt lat="10.2650192" lon="-85.5857730">
        <ele>76.8</ele>
        <time>2022-10-06T18:39:09Z</time>
      </trkpt>
      <trkpt lat="10.2650489" lon="-85.5857764">
        <ele>76.8</ele>
        <time>2022-10-06T18:39:10Z</time>
      </trkpt>
      <trkpt lat="10.2650743" lon="-85.5857775">
        <ele>76.8</ele>
        <time>2022-10-06T18:39:11Z</time>
      </trkpt>
      <trkpt lat="10.2650963" lon="-85.5857786">
        <ele>76.8</ele>
        <time>2022-10-06T18:39:12Z</time>
      </trkpt>
      <trkpt lat="10.2651192" lon="-85.5857743">
        <ele>76.8</ele>
        <time>2022-10-06T18:39:13Z</time>
      </trkpt>
      <trkpt lat="10.2651408" lon="-85.5857507">
        <ele>76.9</ele>
        <time>2022-10-06T18:39:14Z</time>
      </trkpt>
      <trkpt lat="10.2651598" lon="-85.5857227">
        <ele>77.1</ele>
        <time>2022-10-06T18:39:15Z</time>
      </trkpt>
      <trkpt lat="10.2651573" lon="-85.5856709">
        <ele>76.8</ele>
        <time>2022-10-06T18:39:16Z</time>
      </trkpt>
      <trkpt lat="10.2651634" lon="-85.5856245">
        <ele>76.8</ele>
        <time>2022-10-06T18:39:17Z</time>
      </trkpt>
      <trkpt lat="10.2651719" lon="-85.5855743">
        <ele>76.8</ele>
        <time>2022-10-06T18:39:18Z</time>
      </trkpt>
      <trkpt lat="10.2651794" lon="-85.5855235">
        <ele>76.8</ele>
        <time>2022-10-06T18:39:19Z</time>
      </trkpt>
      <trkpt lat="10.2651885" lon="-85.5854652">
        <ele>76.8</ele>
        <time>2022-10-06T18:39:20Z</time>
      </trkpt>
      <trkpt lat="10.2651987" lon="-85.5854016">
        <ele>76.8</ele>
        <time>2022-10-06T18:39:21Z</time>
      </trkpt>
      <trkpt lat="10.2652070" lon="-85.5853366">
        <ele>76.7</ele>
        <time>2022-10-06T18:39:22Z</time>
      </trkpt>
      <trkpt lat="10.2652154" lon="-85.5852687">
        <ele>76.7</ele>
        <time>2022-10-06T18:39:23Z</time>
      </trkpt>
      <trkpt lat="10.2652235" lon="-85.5851971">
        <ele>76.6</ele>
        <time>2022-10-06T18:39:24Z</time>
      </trkpt>
      <trkpt lat="10.2652329" lon="-85.5851285">
        <ele>76.4</ele>
        <time>2022-10-06T18:39:25Z</time>
      </trkpt>
      <trkpt lat="10.2652386" lon="-85.5850701">
        <ele>76.1</ele>
        <time>2022-10-06T18:39:26Z</time>
      </trkpt>
      <trkpt lat="10.2652448" lon="-85.5850298">
        <ele>76.1</ele>
        <time>2022-10-06T18:39:27Z</time>
      </trkpt>
      <trkpt lat="10.2652485" lon="-85.5850080">
        <ele>76.1</ele>
        <time>2022-10-06T18:39:28Z</time>
      </trkpt>
      <trkpt lat="10.2652502" lon="-85.5849954">
        <ele>76.1</ele>
        <time>2022-10-06T18:39:29Z</time>
      </trkpt>
      <trkpt lat="10.2652525" lon="-85.5849870">
        <ele>76.1</ele>
        <time>2022-10-06T18:39:30Z</time>
      </trkpt>
      <trkpt lat="10.2652548" lon="-85.5849729">
        <ele>76.1</ele>
        <time>2022-10-06T18:39:31Z</time>
      </trkpt>
      <trkpt lat="10.2652582" lon="-85.5849549">
        <ele>76.0</ele>
        <time>2022-10-06T18:39:32Z</time>
      </trkpt>
      <trkpt lat="10.2652629" lon="-85.5849264">
        <ele>76.0</ele>
        <time>2022-10-06T18:39:33Z</time>
      </trkpt>
      <trkpt lat="10.2652692" lon="-85.5848916">
        <ele>76.0</ele>
        <time>2022-10-06T18:39:34Z</time>
      </trkpt>
      <trkpt lat="10.2652740" lon="-85.5848485">
        <ele>76.0</ele>
        <time>2022-10-06T18:39:35Z</time>
      </trkpt>
      <trkpt lat="10.2652814" lon="-85.5847988">
        <ele>75.8</ele>
        <time>2022-10-06T18:39:36Z</time>
      </trkpt>
      <trkpt lat="10.2652921" lon="-85.5847410">
        <ele>75.7</ele>
        <time>2022-10-06T18:39:37Z</time>
      </trkpt>
      <trkpt lat="10.2653031" lon="-85.5846768">
        <ele>75.8</ele>
        <time>2022-10-06T18:39:38Z</time>
      </trkpt>
      <trkpt lat="10.2653145" lon="-85.5846100">
        <ele>75.9</ele>
        <time>2022-10-06T18:39:39Z</time>
      </trkpt>
      <trkpt lat="10.2653272" lon="-85.5845408">
        <ele>75.8</ele>
        <time>2022-10-06T18:39:40Z</time>
      </trkpt>
      <trkpt lat="10.2653424" lon="-85.5844693">
        <ele>75.9</ele>
        <time>2022-10-06T18:39:41Z</time>
      </trkpt>
      <trkpt lat="10.2653572" lon="-85.5843958">
        <ele>75.9</ele>
        <time>2022-10-06T18:39:42Z</time>
      </trkpt>
      <trkpt lat="10.2653684" lon="-85.5843229">
        <ele>75.8</ele>
        <time>2022-10-06T18:39:43Z</time>
      </trkpt>
      <trkpt lat="10.2653788" lon="-85.5842485">
        <ele>75.8</ele>
        <time>2022-10-06T18:39:44Z</time>
      </trkpt>
      <trkpt lat="10.2653879" lon="-85.5841715">
        <ele>75.8</ele>
        <time>2022-10-06T18:39:45Z</time>
      </trkpt>
      <trkpt lat="10.2653971" lon="-85.5840976">
        <ele>75.7</ele>
        <time>2022-10-06T18:39:46Z</time>
      </trkpt>
      <trkpt lat="10.2654078" lon="-85.5840284">
        <ele>75.7</ele>
        <time>2022-10-06T18:39:47Z</time>
      </trkpt>
      <trkpt lat="10.2654184" lon="-85.5839658">
        <ele>75.6</ele>
        <time>2022-10-06T18:39:48Z</time>
      </trkpt>
      <trkpt lat="10.2654272" lon="-85.5839118">
        <ele>75.4</ele>
        <time>2022-10-06T18:39:49Z</time>
      </trkpt>
      <trkpt lat="10.2654291" lon="-85.5838656">
        <ele>75.3</ele>
        <time>2022-10-06T18:39:50Z</time>
      </trkpt>
      <trkpt lat="10.2654283" lon="-85.5838346">
        <ele>75.3</ele>
        <time>2022-10-06T18:39:51Z</time>
      </trkpt>
      <trkpt lat="10.2654281" lon="-85.5838152">
        <ele>75.3</ele>
        <time>2022-10-06T18:39:52Z</time>
      </trkpt>
      <trkpt lat="10.2654277" lon="-85.5838045">
        <ele>75.3</ele>
        <time>2022-10-06T18:39:53Z</time>
      </trkpt>
      <trkpt lat="10.2654284" lon="-85.5837917">
        <ele>75.3</ele>
        <time>2022-10-06T18:39:54Z</time>
      </trkpt>
      <trkpt lat="10.2654307" lon="-85.5837651">
        <ele>75.4</ele>
        <time>2022-10-06T18:39:55Z</time>
      </trkpt>
      <trkpt lat="10.2654401" lon="-85.5837325">
        <ele>75.4</ele>
        <time>2022-10-06T18:39:56Z</time>
      </trkpt>
      <trkpt lat="10.2654787" lon="-85.5837117">
        <ele>75.8</ele>
        <time>2022-10-06T18:39:57Z</time>
      </trkpt>
      <trkpt lat="10.2655156" lon="-85.5836957">
        <ele>75.6</ele>
        <time>2022-10-06T18:39:58Z</time>
      </trkpt>
      <trkpt lat="10.2655552" lon="-85.5836777">
        <ele>75.5</ele>
        <time>2022-10-06T18:39:59Z</time>
      </trkpt>
      <trkpt lat="10.2656019" lon="-85.5836599">
        <ele>75.5</ele>
        <time>2022-10-06T18:40:00Z</time>
      </trkpt>
      <trkpt lat="10.2656542" lon="-85.5836397">
        <ele>75.6</ele>
        <time>2022-10-06T18:40:01Z</time>
      </trkpt>
      <trkpt lat="10.2657061" lon="-85.5836174">
        <ele>75.6</ele>
        <time>2022-10-06T18:40:02Z</time>
      </trkpt>
      <trkpt lat="10.2657579" lon="-85.5835952">
        <ele>75.5</ele>
        <time>2022-10-06T18:40:03Z</time>
      </trkpt>
      <trkpt lat="10.2658030" lon="-85.5835747">
        <ele>75.4</ele>
        <time>2022-10-06T18:40:04Z</time>
      </trkpt>
      <trkpt lat="10.2658381" lon="-85.5835588">
        <ele>75.4</ele>
        <time>2022-10-06T18:40:05Z</time>
      </trkpt>
      <trkpt lat="10.2658636" lon="-85.5835479">
        <ele>75.4</ele>
        <time>2022-10-06T18:40:06Z</time>
      </trkpt>
      <trkpt lat="10.2658755" lon="-85.5835449">
        <ele>75.3</ele>
        <time>2022-10-06T18:40:07Z</time>
      </trkpt>
      <trkpt lat="10.2658823" lon="-85.5835430">
        <ele>75.4</ele>
        <time>2022-10-06T18:40:08Z</time>
      </trkpt>
      <trkpt lat="10.2658948" lon="-85.5835366">
        <ele>75.4</ele>
        <time>2022-10-06T18:40:09Z</time>
      </trkpt>
      <trkpt lat="10.2659084" lon="-85.5835296">
        <ele>75.3</ele>
        <time>2022-10-06T18:40:10Z</time>
      </trkpt>
      <trkpt lat="10.2659257" lon="-85.5835226">
        <ele>75.3</ele>
        <time>2022-10-06T18:40:11Z</time>
      </trkpt>
      <trkpt lat="10.2659425" lon="-85.5835155">
        <ele>75.3</ele>
        <time>2022-10-06T18:40:12Z</time>
      </trkpt>
      <trkpt lat="10.2659621" lon="-85.5835080">
        <ele>75.3</ele>
        <time>2022-10-06T18:40:13Z</time>
      </trkpt>
      <trkpt lat="10.2659799" lon="-85.5835019">
        <ele>75.3</ele>
        <time>2022-10-06T18:40:14Z</time>
      </trkpt>
      <trkpt lat="10.2659952" lon="-85.5834958">
        <ele>75.2</ele>
        <time>2022-10-06T18:40:15Z</time>
      </trkpt>
      <trkpt lat="10.2660144" lon="-85.5834892">
        <ele>75.2</ele>
        <time>2022-10-06T18:40:16Z</time>
      </trkpt>
      <trkpt lat="10.2660323" lon="-85.5834838">
        <ele>75.1</ele>
        <time>2022-10-06T18:40:17Z</time>
      </trkpt>
      <trkpt lat="10.2660520" lon="-85.5834766">
        <ele>75.1</ele>
        <time>2022-10-06T18:40:18Z</time>
      </trkpt>
      <trkpt lat="10.2660722" lon="-85.5834695">
        <ele>75.2</ele>
        <time>2022-10-06T18:40:19Z</time>
      </trkpt>
      <trkpt lat="10.2660917" lon="-85.5834606">
        <ele>75.2</ele>
        <time>2022-10-06T18:40:20Z</time>
      </trkpt>
      <trkpt lat="10.2661109" lon="-85.5834519">
        <ele>75.4</ele>
        <time>2022-10-06T18:40:21Z</time>
      </trkpt>
      <trkpt lat="10.2661303" lon="-85.5834424">
        <ele>75.4</ele>
        <time>2022-10-06T18:40:22Z</time>
      </trkpt>
      <trkpt lat="10.2661487" lon="-85.5834331">
        <ele>75.4</ele>
        <time>2022-10-06T18:40:23Z</time>
      </trkpt>
      <trkpt lat="10.2661681" lon="-85.5834248">
        <ele>75.4</ele>
        <time>2022-10-06T18:40:24Z</time>
      </trkpt>
      <trkpt lat="10.2661879" lon="-85.5834164">
        <ele>75.5</ele>
        <time>2022-10-06T18:40:25Z</time>
      </trkpt>
      <trkpt lat="10.2662072" lon="-85.5834089">
        <ele>75.4</ele>
        <time>2022-10-06T18:40:26Z</time>
      </trkpt>
      <trkpt lat="10.2662234" lon="-85.5834014">
        <ele>75.4</ele>
        <time>2022-10-06T18:40:27Z</time>
      </trkpt>
      <trkpt lat="10.2662424" lon="-85.5833935">
        <ele>75.3</ele>
        <time>2022-10-06T18:40:28Z</time>
      </trkpt>
      <trkpt lat="10.2662565" lon="-85.5833876">
        <ele>75.2</ele>
        <time>2022-10-06T18:40:29Z</time>
      </trkpt>
      <trkpt lat="10.2662702" lon="-85.5833811">
        <ele>75.1</ele>
        <time>2022-10-06T18:40:30Z</time>
      </trkpt>
      <trkpt lat="10.2662850" lon="-85.5833726">
        <ele>75.1</ele>
        <time>2022-10-06T18:40:31Z</time>
      </trkpt>
      <trkpt lat="10.2663023" lon="-85.5833647">
        <ele>75.1</ele>
        <time>2022-10-06T18:40:32Z</time>
      </trkpt>
      <trkpt lat="10.2663163" lon="-85.5833587">
        <ele>75.0</ele>
        <time>2022-10-06T18:40:33Z</time>
      </trkpt>
      <trkpt lat="10.2663258" lon="-85.5833554">
        <ele>75.0</ele>
        <time>2022-10-06T18:40:34Z</time>
      </trkpt>
      <trkpt lat="10.2663368" lon="-85.5833548">
        <ele>75.1</ele>
        <time>2022-10-06T18:40:35Z</time>
      </trkpt>
      <trkpt lat="10.2663511" lon="-85.5833568">
        <ele>75.2</ele>
        <time>2022-10-06T18:40:36Z</time>
      </trkpt>
      <trkpt lat="10.2663728" lon="-85.5833667">
        <ele>75.2</ele>
        <time>2022-10-06T18:40:37Z</time>
      </trkpt>
      <trkpt lat="10.2663932" lon="-85.5833887">
        <ele>75.2</ele>
        <time>2022-10-06T18:40:38Z</time>
      </trkpt>
      <trkpt lat="10.2664133" lon="-85.5834149">
        <ele>75.4</ele>
        <time>2022-10-06T18:40:39Z</time>
      </trkpt>
      <trkpt lat="10.2664144" lon="-85.5834532">
        <ele>75.3</ele>
        <time>2022-10-06T18:40:40Z</time>
      </trkpt>
      <trkpt lat="10.2664090" lon="-85.5834956">
        <ele>75.1</ele>
        <time>2022-10-06T18:40:41Z</time>
      </trkpt>
      <trkpt lat="10.2663992" lon="-85.5835491">
        <ele>75.2</ele>
        <time>2022-10-06T18:40:42Z</time>
      </trkpt>
      <trkpt lat="10.2663889" lon="-85.5836061">
        <ele>75.4</ele>
        <time>2022-10-06T18:40:43Z</time>
      </trkpt>
      <trkpt lat="10.2663761" lon="-85.5836680">
        <ele>75.5</ele>
        <time>2022-10-06T18:40:44Z</time>
      </trkpt>
      <trkpt lat="10.2663630" lon="-85.5837356">
        <ele>75.6</ele>
        <time>2022-10-06T18:40:45Z</time>
      </trkpt>
      <trkpt lat="10.2663502" lon="-85.5838107">
        <ele>75.7</ele>
        <time>2022-10-06T18:40:46Z</time>
      </trkpt>
      <trkpt lat="10.2663365" lon="-85.5838873">
        <ele>75.9</ele>
        <time>2022-10-06T18:40:47Z</time>
      </trkpt>
      <trkpt lat="10.2663228" lon="-85.5839633">
        <ele>76.0</ele>
        <time>2022-10-06T18:40:48Z</time>
      </trkpt>
      <trkpt lat="10.2663121" lon="-85.5840366">
        <ele>76.2</ele>
        <time>2022-10-06T18:40:49Z</time>
      </trkpt>
      <trkpt lat="10.2663021" lon="-85.5841081">
        <ele>76.1</ele>
        <time>2022-10-06T18:40:50Z</time>
      </trkpt>
      <trkpt lat="10.2662927" lon="-85.5841785">
        <ele>76.3</ele>
        <time>2022-10-06T18:40:51Z</time>
      </trkpt>
      <trkpt lat="10.2662831" lon="-85.5842529">
        <ele>76.3</ele>
        <time>2022-10-06T18:40:52Z</time>
      </trkpt>
      <trkpt lat="10.2662729" lon="-85.5843248">
        <ele>76.4</ele>
        <time>2022-10-06T18:40:53Z</time>
      </trkpt>
      <trkpt lat="10.2662614" lon="-85.5843972">
        <ele>76.5</ele>
        <time>2022-10-06T18:40:54Z</time>
      </trkpt>
      <trkpt lat="10.2662486" lon="-85.5844681">
        <ele>76.7</ele>
        <time>2022-10-06T18:40:55Z</time>
      </trkpt>
      <trkpt lat="10.2662341" lon="-85.5845443">
        <ele>76.7</ele>
        <time>2022-10-06T18:40:56Z</time>
      </trkpt>
      <trkpt lat="10.2662221" lon="-85.5846208">
        <ele>76.9</ele>
        <time>2022-10-06T18:40:57Z</time>
      </trkpt>
      <trkpt lat="10.2662093" lon="-85.5846975">
        <ele>77.0</ele>
        <time>2022-10-06T18:40:58Z</time>
      </trkpt>
      <trkpt lat="10.2661982" lon="-85.5847727">
        <ele>77.5</ele>
        <time>2022-10-06T18:40:59Z</time>
      </trkpt>
      <trkpt lat="10.2661862" lon="-85.5848445">
        <ele>77.7</ele>
        <time>2022-10-06T18:41:00Z</time>
      </trkpt>
      <trkpt lat="10.2661790" lon="-85.5849099">
        <ele>77.7</ele>
        <time>2022-10-06T18:41:01Z</time>
      </trkpt>
      <trkpt lat="10.2661756" lon="-85.5849643">
        <ele>78.1</ele>
        <time>2022-10-06T18:41:02Z</time>
      </trkpt>
      <trkpt lat="10.2661736" lon="-85.5849993">
        <ele>78.1</ele>
        <time>2022-10-06T18:41:03Z</time>
      </trkpt>
      <trkpt lat="10.2661682" lon="-85.5850220">
        <ele>77.9</ele>
        <time>2022-10-06T18:41:04Z</time>
      </trkpt>
      <trkpt lat="10.2661651" lon="-85.5850331">
        <ele>77.9</ele>
        <time>2022-10-06T18:41:05Z</time>
      </trkpt>
      <trkpt lat="10.2661651" lon="-85.5850331">
        <ele>78.0</ele>
        <time>2022-10-06T18:41:06Z</time>
      </trkpt>
      <trkpt lat="10.2661651" lon="-85.5850331">
        <ele>77.9</ele>
        <time>2022-10-06T18:41:07Z</time>
      </trkpt>
      <trkpt lat="10.2661651" lon="-85.5850331">
        <ele>77.9</ele>
        <time>2022-10-06T18:41:08Z</time>
      </trkpt>
      <trkpt lat="10.2661651" lon="-85.5850331">
        <ele>77.9</ele>
        <time>2022-10-06T18:41:09Z</time>
      </trkpt>
      <trkpt lat="10.2661651" lon="-85.5850331">
        <ele>77.8</ele>
        <time>2022-10-06T18:41:10Z</time>
      </trkpt>
      <trkpt lat="10.2661651" lon="-85.5850331">
        <ele>77.7</ele>
        <time>2022-10-06T18:41:11Z</time>
      </trkpt>
      <trkpt lat="10.2661651" lon="-85.5850331">
        <ele>77.7</ele>
        <time>2022-10-06T18:41:12Z</time>
      </trkpt>
      <trkpt lat="10.2661651" lon="-85.5850331">
        <ele>77.7</ele>
        <time>2022-10-06T18:41:13Z</time>
      </trkpt>
      <trkpt lat="10.2661651" lon="-85.5850331">
        <ele>77.6</ele>
        <time>2022-10-06T18:41:14Z</time>
      </trkpt>
      <trkpt lat="10.2661651" lon="-85.5850331">
        <ele>77.5</ele>
        <time>2022-10-06T18:41:15Z</time>
      </trkpt>
      <trkpt lat="10.2661651" lon="-85.5850331">
        <ele>77.4</ele>
        <time>2022-10-06T18:41:16Z</time>
      </trkpt>
      <trkpt lat="10.2661651" lon="-85.5850331">
        <ele>77.4</ele>
        <time>2022-10-06T18:41:17Z</time>
      </trkpt>
      <trkpt lat="10.2661651" lon="-85.5850331">
        <ele>77.4</ele>
        <time>2022-10-06T18:41:18Z</time>
      </trkpt>
      <trkpt lat="10.2661651" lon="-85.5850331">
        <ele>77.4</ele>
        <time>2022-10-06T18:41:19Z</time>
      </trkpt>
      <trkpt lat="10.2661651" lon="-85.5850331">
        <ele>77.3</ele>
        <time>2022-10-06T18:41:20Z</time>
      </trkpt>
      <trkpt lat="10.2661651" lon="-85.5850331">
        <ele>77.3</ele>
        <time>2022-10-06T18:41:21Z</time>
      </trkpt>
      <trkpt lat="10.2661651" lon="-85.5850331">
        <ele>77.3</ele>
        <time>2022-10-06T18:41:22Z</time>
      </trkpt>
      <trkpt lat="10.2661651" lon="-85.5850331">
        <ele>77.3</ele>
        <time>2022-10-06T18:41:23Z</time>
      </trkpt>
      <trkpt lat="10.2661651" lon="-85.5850331">
        <ele>77.3</ele>
        <time>2022-10-06T18:41:24Z</time>
      </trkpt>
      <trkpt lat="10.2661651" lon="-85.5850331">
        <ele>77.3</ele>
        <time>2022-10-06T18:41:25Z</time>
      </trkpt>
      <trkpt lat="10.2661651" lon="-85.5850331">
        <ele>77.2</ele>
        <time>2022-10-06T18:41:26Z</time>
      </trkpt>
      <trkpt lat="10.2661651" lon="-85.5850331">
        <ele>77.2</ele>
        <time>2022-10-06T18:41:27Z</time>
      </trkpt>
      <trkpt lat="10.2661651" lon="-85.5850331">
        <ele>77.1</ele>
        <time>2022-10-06T18:41:28Z</time>
      </trkpt>
      <trkpt lat="10.2661651" lon="-85.5850331">
        <ele>77.1</ele>
        <time>2022-10-06T18:41:29Z</time>
      </trkpt>
      <trkpt lat="10.2661651" lon="-85.5850331">
        <ele>77.1</ele>
        <time>2022-10-06T18:41:30Z</time>
      </trkpt>
      <trkpt lat="10.2661651" lon="-85.5850331">
        <ele>77.0</ele>
        <time>2022-10-06T18:41:31Z</time>
      </trkpt>
      <trkpt lat="10.2661651" lon="-85.5850331">
        <ele>77.0</ele>
        <time>2022-10-06T18:41:32Z</time>
      </trkpt>
      <trkpt lat="10.2661651" lon="-85.5850331">
        <ele>77.0</ele>
        <time>2022-10-06T18:41:33Z</time>
      </trkpt>
      <trkpt lat="10.2661651" lon="-85.5850331">
        <ele>76.9</ele>
        <time>2022-10-06T18:41:34Z</time>
      </trkpt>
      <trkpt lat="10.2661651" lon="-85.5850331">
        <ele>76.9</ele>
        <time>2022-10-06T18:41:35Z</time>
      </trkpt>
      <trkpt lat="10.2661651" lon="-85.5850331">
        <ele>76.9</ele>
        <time>2022-10-06T18:41:36Z</time>
      </trkpt>
      <trkpt lat="10.2661651" lon="-85.5850331">
        <ele>76.9</ele>
        <time>2022-10-06T18:41:37Z</time>
      </trkpt>
      <trkpt lat="10.2661651" lon="-85.5850331">
        <ele>76.8</ele>
        <time>2022-10-06T18:41:38Z</time>
      </trkpt>
      <trkpt lat="10.2661506" lon="-85.5850751">
        <ele>76.8</ele>
        <time>2022-10-06T18:41:39Z</time>
      </trkpt>
      <trkpt lat="10.2661577" lon="-85.5850803">
        <ele>76.7</ele>
        <time>2022-10-06T18:41:40Z</time>
      </trkpt>
      <trkpt lat="10.2661643" lon="-85.5850964">
        <ele>76.7</ele>
        <time>2022-10-06T18:41:41Z</time>
      </trkpt>
      <trkpt lat="10.2661850" lon="-85.5850974">
        <ele>76.7</ele>
        <time>2022-10-06T18:41:42Z</time>
      </trkpt>
      <trkpt lat="10.2662224" lon="-85.5850866">
        <ele>76.7</ele>
        <time>2022-10-06T18:41:43Z</time>
      </trkpt>
      <trkpt lat="10.2662452" lon="-85.5850833">
        <ele>76.8</ele>
        <time>2022-10-06T18:41:44Z</time>
      </trkpt>
      <trkpt lat="10.2662676" lon="-85.5850813">
        <ele>77.1</ele>
        <time>2022-10-06T18:41:45Z</time>
      </trkpt>
      <trkpt lat="10.2662891" lon="-85.5850835">
        <ele>77.0</ele>
        <time>2022-10-06T18:41:46Z</time>
      </trkpt>
      <trkpt lat="10.2663062" lon="-85.5850870">
        <ele>76.9</ele>
        <time>2022-10-06T18:41:47Z</time>
      </trkpt>
      <trkpt lat="10.2663211" lon="-85.5850896">
        <ele>76.8</ele>
        <time>2022-10-06T18:41:48Z</time>
      </trkpt>
      <trkpt lat="10.2663275" lon="-85.5850882">
        <ele>76.9</ele>
        <time>2022-10-06T18:41:49Z</time>
      </trkpt>
      <trkpt lat="10.2663275" lon="-85.5850882">
        <ele>76.7</ele>
        <time>2022-10-06T18:41:50Z</time>
      </trkpt>
      <trkpt lat="10.2663275" lon="-85.5850882">
        <ele>76.7</ele>
        <time>2022-10-06T18:41:51Z</time>
      </trkpt>
      <trkpt lat="10.2663275" lon="-85.5850882">
        <ele>76.8</ele>
        <time>2022-10-06T18:41:52Z</time>
      </trkpt>
      <trkpt lat="10.2663275" lon="-85.5850882">
        <ele>76.7</ele>
        <time>2022-10-06T18:41:53Z</time>
      </trkpt>
      <trkpt lat="10.2663275" lon="-85.5850882">
        <ele>76.7</ele>
        <time>2022-10-06T18:41:54Z</time>
      </trkpt>
      <trkpt lat="10.2663275" lon="-85.5850882">
        <ele>76.7</ele>
        <time>2022-10-06T18:41:55Z</time>
      </trkpt>
      <trkpt lat="10.2663275" lon="-85.5850882">
        <ele>76.8</ele>
        <time>2022-10-06T18:41:56Z</time>
      </trkpt>
      <trkpt lat="10.2663275" lon="-85.5850882">
        <ele>76.4</ele>
        <time>2022-10-06T18:41:57Z</time>
      </trkpt>
      <trkpt lat="10.2663275" lon="-85.5850882">
        <ele>76.4</ele>
        <time>2022-10-06T18:41:58Z</time>
      </trkpt>
      <trkpt lat="10.2663275" lon="-85.5850882">
        <ele>76.4</ele>
        <time>2022-10-06T18:41:59Z</time>
      </trkpt>
      <trkpt lat="10.2663275" lon="-85.5850882">
        <ele>76.3</ele>
        <time>2022-10-06T18:42:00Z</time>
      </trkpt>
      <trkpt lat="10.2663275" lon="-85.5850882">
        <ele>76.2</ele>
        <time>2022-10-06T18:42:01Z</time>
      </trkpt>
      <trkpt lat="10.2663275" lon="-85.5850882">
        <ele>76.2</ele>
        <time>2022-10-06T18:42:02Z</time>
      </trkpt>
      <trkpt lat="10.2663275" lon="-85.5850882">
        <ele>76.2</ele>
        <time>2022-10-06T18:42:03Z</time>
      </trkpt>
      <trkpt lat="10.2663275" lon="-85.5850882">
        <ele>76.1</ele>
        <time>2022-10-06T18:42:04Z</time>
      </trkpt>
      <trkpt lat="10.2663275" lon="-85.5850882">
        <ele>76.1</ele>
        <time>2022-10-06T18:42:05Z</time>
      </trkpt>
      <trkpt lat="10.2663275" lon="-85.5850882">
        <ele>76.1</ele>
        <time>2022-10-06T18:42:06Z</time>
      </trkpt>
      <trkpt lat="10.2663275" lon="-85.5850882">
        <ele>76.0</ele>
        <time>2022-10-06T18:42:07Z</time>
      </trkpt>
      <trkpt lat="10.2663275" lon="-85.5850882">
        <ele>76.0</ele>
        <time>2022-10-06T18:42:08Z</time>
      </trkpt>
      <trkpt lat="10.2663275" lon="-85.5850882">
        <ele>76.0</ele>
        <time>2022-10-06T18:42:09Z</time>
      </trkpt>
      <trkpt lat="10.2663275" lon="-85.5850882">
        <ele>75.9</ele>
        <time>2022-10-06T18:42:10Z</time>
      </trkpt>
      <trkpt lat="10.2663275" lon="-85.5850882">
        <ele>75.9</ele>
        <time>2022-10-06T18:42:11Z</time>
      </trkpt>
      <trkpt lat="10.2663275" lon="-85.5850882">
        <ele>75.9</ele>
        <time>2022-10-06T18:42:12Z</time>
      </trkpt>
      <trkpt lat="10.2663275" lon="-85.5850882">
        <ele>75.9</ele>
        <time>2022-10-06T18:42:13Z</time>
      </trkpt>
      <trkpt lat="10.2663275" lon="-85.5850882">
        <ele>75.8</ele>
        <time>2022-10-06T18:42:14Z</time>
      </trkpt>
      <trkpt lat="10.2663275" lon="-85.5850882">
        <ele>75.8</ele>
        <time>2022-10-06T18:42:15Z</time>
      </trkpt>
      <trkpt lat="10.2663275" lon="-85.5850882">
        <ele>75.7</ele>
        <time>2022-10-06T18:42:16Z</time>
      </trkpt>
      <trkpt lat="10.2663275" lon="-85.5850882">
        <ele>75.8</ele>
        <time>2022-10-06T18:42:17Z</time>
      </trkpt>
      <trkpt lat="10.2663275" lon="-85.5850882">
        <ele>75.7</ele>
        <time>2022-10-06T18:42:18Z</time>
      </trkpt>
      <trkpt lat="10.2663275" lon="-85.5850882">
        <ele>75.7</ele>
        <time>2022-10-06T18:42:19Z</time>
      </trkpt>
      <trkpt lat="10.2663275" lon="-85.5850882">
        <ele>75.7</ele>
        <time>2022-10-06T18:42:20Z</time>
      </trkpt>
      <trkpt lat="10.2663275" lon="-85.5850882">
        <ele>75.7</ele>
        <time>2022-10-06T18:42:21Z</time>
      </trkpt>
      <trkpt lat="10.2663275" lon="-85.5850882">
        <ele>75.7</ele>
        <time>2022-10-06T18:42:22Z</time>
      </trkpt>
      <trkpt lat="10.2663275" lon="-85.5850882">
        <ele>75.7</ele>
        <time>2022-10-06T18:42:23Z</time>
      </trkpt>
      <trkpt lat="10.2663275" lon="-85.5850882">
        <ele>75.7</ele>
        <time>2022-10-06T18:42:24Z</time>
      </trkpt>
      <trkpt lat="10.2663275" lon="-85.5850882">
        <ele>75.6</ele>
        <time>2022-10-06T18:42:25Z</time>
      </trkpt>
      <trkpt lat="10.2663275" lon="-85.5850882">
        <ele>75.6</ele>
        <time>2022-10-06T18:42:26Z</time>
      </trkpt>
      <trkpt lat="10.2663275" lon="-85.5850882">
        <ele>75.6</ele>
        <time>2022-10-06T18:42:27Z</time>
      </trkpt>
      <trkpt lat="10.2663275" lon="-85.5850882">
        <ele>75.6</ele>
        <time>2022-10-06T18:42:28Z</time>
      </trkpt>
      <trkpt lat="10.2663275" lon="-85.5850882">
        <ele>75.6</ele>
        <time>2022-10-06T18:42:29Z</time>
      </trkpt>
      <trkpt lat="10.2663275" lon="-85.5850882">
        <ele>75.6</ele>
        <time>2022-10-06T18:42:30Z</time>
      </trkpt>
      <trkpt lat="10.2663275" lon="-85.5850882">
        <ele>75.6</ele>
        <time>2022-10-06T18:42:31Z</time>
      </trkpt>
      <trkpt lat="10.2663275" lon="-85.5850882">
        <ele>75.5</ele>
        <time>2022-10-06T18:42:32Z</time>
      </trkpt>
      <trkpt lat="10.2663275" lon="-85.5850882">
        <ele>75.5</ele>
        <time>2022-10-06T18:42:33Z</time>
      </trkpt>
      <trkpt lat="10.2663275" lon="-85.5850882">
        <ele>75.5</ele>
        <time>2022-10-06T18:42:34Z</time>
      </trkpt>
      <trkpt lat="10.2663275" lon="-85.5850882">
        <ele>75.5</ele>
        <time>2022-10-06T18:42:35Z</time>
      </trkpt>
      <trkpt lat="10.2663275" lon="-85.5850882">
        <ele>75.5</ele>
        <time>2022-10-06T18:42:36Z</time>
      </trkpt>
      <trkpt lat="10.2663275" lon="-85.5850882">
        <ele>75.5</ele>
        <time>2022-10-06T18:42:37Z</time>
      </trkpt>
      <trkpt lat="10.2663275" lon="-85.5850882">
        <ele>75.4</ele>
        <time>2022-10-06T18:42:38Z</time>
      </trkpt>
      <trkpt lat="10.2663275" lon="-85.5850882">
        <ele>75.5</ele>
        <time>2022-10-06T18:42:39Z</time>
      </trkpt>
      <trkpt lat="10.2663275" lon="-85.5850882">
        <ele>75.5</ele>
        <time>2022-10-06T18:42:40Z</time>
      </trkpt>
      <trkpt lat="10.2663275" lon="-85.5850882">
        <ele>75.5</ele>
        <time>2022-10-06T18:42:41Z</time>
      </trkpt>
      <trkpt lat="10.2663275" lon="-85.5850882">
        <ele>75.4</ele>
        <time>2022-10-06T18:42:42Z</time>
      </trkpt>
      <trkpt lat="10.2663275" lon="-85.5850882">
        <ele>75.4</ele>
        <time>2022-10-06T18:42:43Z</time>
      </trkpt>
      <trkpt lat="10.2663275" lon="-85.5850882">
        <ele>75.4</ele>
        <time>2022-10-06T18:42:44Z</time>
      </trkpt>
      <trkpt lat="10.2663275" lon="-85.5850882">
        <ele>75.4</ele>
        <time>2022-10-06T18:42:45Z</time>
      </trkpt>
      <trkpt lat="10.2663275" lon="-85.5850882">
        <ele>75.4</ele>
        <time>2022-10-06T18:42:46Z</time>
      </trkpt>
      <trkpt lat="10.2663275" lon="-85.5850882">
        <ele>75.4</ele>
        <time>2022-10-06T18:42:47Z</time>
      </trkpt>
      <trkpt lat="10.2663275" lon="-85.5850882">
        <ele>75.3</ele>
        <time>2022-10-06T18:42:48Z</time>
      </trkpt>
      <trkpt lat="10.2663275" lon="-85.5850882">
        <ele>75.3</ele>
        <time>2022-10-06T18:42:49Z</time>
      </trkpt>
      <trkpt lat="10.2663275" lon="-85.5850882">
        <ele>75.2</ele>
        <time>2022-10-06T18:42:50Z</time>
      </trkpt>
      <trkpt lat="10.2663275" lon="-85.5850882">
        <ele>75.3</ele>
        <time>2022-10-06T18:42:51Z</time>
      </trkpt>
      <trkpt lat="10.2663275" lon="-85.5850882">
        <ele>75.2</ele>
        <time>2022-10-06T18:42:52Z</time>
      </trkpt>
      <trkpt lat="10.2663275" lon="-85.5850882">
        <ele>75.2</ele>
        <time>2022-10-06T18:42:53Z</time>
      </trkpt>
      <trkpt lat="10.2663275" lon="-85.5850882">
        <ele>75.2</ele>
        <time>2022-10-06T18:42:54Z</time>
      </trkpt>
      <trkpt lat="10.2663275" lon="-85.5850882">
        <ele>75.2</ele>
        <time>2022-10-06T18:42:55Z</time>
      </trkpt>
      <trkpt lat="10.2663275" lon="-85.5850882">
        <ele>75.2</ele>
        <time>2022-10-06T18:42:56Z</time>
      </trkpt>
      <trkpt lat="10.2663275" lon="-85.5850882">
        <ele>75.2</ele>
        <time>2022-10-06T18:42:57Z</time>
      </trkpt>
      <trkpt lat="10.2663275" lon="-85.5850882">
        <ele>75.2</ele>
        <time>2022-10-06T18:42:58Z</time>
      </trkpt>
      <trkpt lat="10.2663275" lon="-85.5850882">
        <ele>75.2</ele>
        <time>2022-10-06T18:42:59Z</time>
      </trkpt>
      <trkpt lat="10.2663275" lon="-85.5850882">
        <ele>75.2</ele>
        <time>2022-10-06T18:43:00Z</time>
      </trkpt>
      <trkpt lat="10.2663275" lon="-85.5850882">
        <ele>75.3</ele>
        <time>2022-10-06T18:43:01Z</time>
      </trkpt>
      <trkpt lat="10.2663275" lon="-85.5850882">
        <ele>75.3</ele>
        <time>2022-10-06T18:43:02Z</time>
      </trkpt>
      <trkpt lat="10.2663275" lon="-85.5850882">
        <ele>75.3</ele>
        <time>2022-10-06T18:43:03Z</time>
      </trkpt>
      <trkpt lat="10.2663275" lon="-85.5850882">
        <ele>75.3</ele>
        <time>2022-10-06T18:43:04Z</time>
      </trkpt>
      <trkpt lat="10.2663275" lon="-85.5850882">
        <ele>75.3</ele>
        <time>2022-10-06T18:43:05Z</time>
      </trkpt>
      <trkpt lat="10.2663275" lon="-85.5850882">
        <ele>75.3</ele>
        <time>2022-10-06T18:43:06Z</time>
      </trkpt>
      <trkpt lat="10.2663275" lon="-85.5850882">
        <ele>75.3</ele>
        <time>2022-10-06T18:43:07Z</time>
      </trkpt>
      <trkpt lat="10.2663275" lon="-85.5850882">
        <ele>75.4</ele>
        <time>2022-10-06T18:43:08Z</time>
      </trkpt>
      <trkpt lat="10.2663275" lon="-85.5850882">
        <ele>75.4</ele>
        <time>2022-10-06T18:43:09Z</time>
      </trkpt>
      <trkpt lat="10.2663275" lon="-85.5850882">
        <ele>75.5</ele>
        <time>2022-10-06T18:43:10Z</time>
      </trkpt>
      <trkpt lat="10.2663275" lon="-85.5850882">
        <ele>75.4</ele>
        <time>2022-10-06T18:43:11Z</time>
      </trkpt>
      <trkpt lat="10.2663275" lon="-85.5850882">
        <ele>75.4</ele>
        <time>2022-10-06T18:43:12Z</time>
      </trkpt>
      <trkpt lat="10.2663275" lon="-85.5850882">
        <ele>75.5</ele>
        <time>2022-10-06T18:43:13Z</time>
      </trkpt>
      <trkpt lat="10.2663275" lon="-85.5850882">
        <ele>75.6</ele>
        <time>2022-10-06T18:43:14Z</time>
      </trkpt>
      <trkpt lat="10.2663275" lon="-85.5850882">
        <ele>75.7</ele>
        <time>2022-10-06T18:43:15Z</time>
      </trkpt>
      <trkpt lat="10.2663275" lon="-85.5850882">
        <ele>75.7</ele>
        <time>2022-10-06T18:43:16Z</time>
      </trkpt>
      <trkpt lat="10.2663275" lon="-85.5850882">
        <ele>75.7</ele>
        <time>2022-10-06T18:43:17Z</time>
      </trkpt>
      <trkpt lat="10.2663275" lon="-85.5850882">
        <ele>75.8</ele>
        <time>2022-10-06T18:43:18Z</time>
      </trkpt>
      <trkpt lat="10.2663275" lon="-85.5850882">
        <ele>75.8</ele>
        <time>2022-10-06T18:43:19Z</time>
      </trkpt>
      <trkpt lat="10.2663275" lon="-85.5850882">
        <ele>75.8</ele>
        <time>2022-10-06T18:43:20Z</time>
      </trkpt>
      <trkpt lat="10.2663275" lon="-85.5850882">
        <ele>75.9</ele>
        <time>2022-10-06T18:43:21Z</time>
      </trkpt>
      <trkpt lat="10.2663275" lon="-85.5850882">
        <ele>75.9</ele>
        <time>2022-10-06T18:43:22Z</time>
      </trkpt>
      <trkpt lat="10.2663275" lon="-85.5850882">
        <ele>76.0</ele>
        <time>2022-10-06T18:43:23Z</time>
      </trkpt>
      <trkpt lat="10.2663275" lon="-85.5850882">
        <ele>76.0</ele>
        <time>2022-10-06T18:43:24Z</time>
      </trkpt>
      <trkpt lat="10.2663275" lon="-85.5850882">
        <ele>76.1</ele>
        <time>2022-10-06T18:43:25Z</time>
      </trkpt>
      <trkpt lat="10.2663275" lon="-85.5850882">
        <ele>76.1</ele>
        <time>2022-10-06T18:43:26Z</time>
      </trkpt>
      <trkpt lat="10.2663275" lon="-85.5850882">
        <ele>76.1</ele>
        <time>2022-10-06T18:43:27Z</time>
      </trkpt>
      <trkpt lat="10.2663275" lon="-85.5850882">
        <ele>76.1</ele>
        <time>2022-10-06T18:43:28Z</time>
      </trkpt>
      <trkpt lat="10.2663275" lon="-85.5850882">
        <ele>76.1</ele>
        <time>2022-10-06T18:43:29Z</time>
      </trkpt>
      <trkpt lat="10.2663275" lon="-85.5850882">
        <ele>76.2</ele>
        <time>2022-10-06T18:43:30Z</time>
      </trkpt>
      <trkpt lat="10.2663275" lon="-85.5850882">
        <ele>76.2</ele>
        <time>2022-10-06T18:43:31Z</time>
      </trkpt>
      <trkpt lat="10.2663275" lon="-85.5850882">
        <ele>76.2</ele>
        <time>2022-10-06T18:43:32Z</time>
      </trkpt>
      <trkpt lat="10.2663275" lon="-85.5850882">
        <ele>76.2</ele>
        <time>2022-10-06T18:43:33Z</time>
      </trkpt>
      <trkpt lat="10.2663275" lon="-85.5850882">
        <ele>76.2</ele>
        <time>2022-10-06T18:43:34Z</time>
      </trkpt>
      <trkpt lat="10.2663275" lon="-85.5850882">
        <ele>76.2</ele>
        <time>2022-10-06T18:43:35Z</time>
      </trkpt>
      <trkpt lat="10.2663275" lon="-85.5850882">
        <ele>76.2</ele>
        <time>2022-10-06T18:43:36Z</time>
      </trkpt>
      <trkpt lat="10.2663275" lon="-85.5850882">
        <ele>76.2</ele>
        <time>2022-10-06T18:43:37Z</time>
      </trkpt>
      <trkpt lat="10.2663275" lon="-85.5850882">
        <ele>76.1</ele>
        <time>2022-10-06T18:43:38Z</time>
      </trkpt>
      <trkpt lat="10.2663275" lon="-85.5850882">
        <ele>76.1</ele>
        <time>2022-10-06T18:43:39Z</time>
      </trkpt>
      <trkpt lat="10.2663275" lon="-85.5850882">
        <ele>76.1</ele>
        <time>2022-10-06T18:43:40Z</time>
      </trkpt>
      <trkpt lat="10.2663275" lon="-85.5850882">
        <ele>76.0</ele>
        <time>2022-10-06T18:43:41Z</time>
      </trkpt>
      <trkpt lat="10.2663275" lon="-85.5850882">
        <ele>76.1</ele>
        <time>2022-10-06T18:43:42Z</time>
      </trkpt>
      <trkpt lat="10.2663275" lon="-85.5850882">
        <ele>76.0</ele>
        <time>2022-10-06T18:43:43Z</time>
      </trkpt>
      <trkpt lat="10.2663275" lon="-85.5850882">
        <ele>76.0</ele>
        <time>2022-10-06T18:43:44Z</time>
      </trkpt>
      <trkpt lat="10.2663275" lon="-85.5850882">
        <ele>76.0</ele>
        <time>2022-10-06T18:43:45Z</time>
      </trkpt>
      <trkpt lat="10.2663275" lon="-85.5850882">
        <ele>76.0</ele>
        <time>2022-10-06T18:43:46Z</time>
      </trkpt>
      <trkpt lat="10.2663275" lon="-85.5850882">
        <ele>76.0</ele>
        <time>2022-10-06T18:43:47Z</time>
      </trkpt>
      <trkpt lat="10.2663275" lon="-85.5850882">
        <ele>75.9</ele>
        <time>2022-10-06T18:43:48Z</time>
      </trkpt>
      <trkpt lat="10.2663275" lon="-85.5850882">
        <ele>75.9</ele>
        <time>2022-10-06T18:43:49Z</time>
      </trkpt>
      <trkpt lat="10.2663275" lon="-85.5850882">
        <ele>75.8</ele>
        <time>2022-10-06T18:43:50Z</time>
      </trkpt>
      <trkpt lat="10.2663275" lon="-85.5850882">
        <ele>75.8</ele>
        <time>2022-10-06T18:43:51Z</time>
      </trkpt>
      <trkpt lat="10.2663275" lon="-85.5850882">
        <ele>75.8</ele>
        <time>2022-10-06T18:43:52Z</time>
      </trkpt>
      <trkpt lat="10.2663275" lon="-85.5850882">
        <ele>75.8</ele>
        <time>2022-10-06T18:43:53Z</time>
      </trkpt>
      <trkpt lat="10.2663275" lon="-85.5850882">
        <ele>75.8</ele>
        <time>2022-10-06T18:43:54Z</time>
      </trkpt>
      <trkpt lat="10.2663275" lon="-85.5850882">
        <ele>75.8</ele>
        <time>2022-10-06T18:43:55Z</time>
      </trkpt>
      <trkpt lat="10.2663275" lon="-85.5850882">
        <ele>75.8</ele>
        <time>2022-10-06T18:43:56Z</time>
      </trkpt>
      <trkpt lat="10.2663275" lon="-85.5850882">
        <ele>75.9</ele>
        <time>2022-10-06T18:43:57Z</time>
      </trkpt>
      <trkpt lat="10.2663275" lon="-85.5850882">
        <ele>75.9</ele>
        <time>2022-10-06T18:43:58Z</time>
      </trkpt>
      <trkpt lat="10.2663275" lon="-85.5850882">
        <ele>75.9</ele>
        <time>2022-10-06T18:43:59Z</time>
      </trkpt>
      <trkpt lat="10.2663275" lon="-85.5850882">
        <ele>75.9</ele>
        <time>2022-10-06T18:44:00Z</time>
      </trkpt>
      <trkpt lat="10.2663275" lon="-85.5850882">
        <ele>75.9</ele>
        <time>2022-10-06T18:44:01Z</time>
      </trkpt>
      <trkpt lat="10.2663275" lon="-85.5850882">
        <ele>75.9</ele>
        <time>2022-10-06T18:44:02Z</time>
      </trkpt>
      <trkpt lat="10.2663275" lon="-85.5850882">
        <ele>75.9</ele>
        <time>2022-10-06T18:44:03Z</time>
      </trkpt>
      <trkpt lat="10.2663275" lon="-85.5850882">
        <ele>75.9</ele>
        <time>2022-10-06T18:44:04Z</time>
      </trkpt>
      <trkpt lat="10.2663275" lon="-85.5850882">
        <ele>75.9</ele>
        <time>2022-10-06T18:44:05Z</time>
      </trkpt>
      <trkpt lat="10.2663275" lon="-85.5850882">
        <ele>75.9</ele>
        <time>2022-10-06T18:44:06Z</time>
      </trkpt>
      <trkpt lat="10.2663275" lon="-85.5850882">
        <ele>75.9</ele>
        <time>2022-10-06T18:44:07Z</time>
      </trkpt>
      <trkpt lat="10.2663275" lon="-85.5850882">
        <ele>75.8</ele>
        <time>2022-10-06T18:44:08Z</time>
      </trkpt>
      <trkpt lat="10.2663275" lon="-85.5850882">
        <ele>75.9</ele>
        <time>2022-10-06T18:44:09Z</time>
      </trkpt>
      <trkpt lat="10.2663275" lon="-85.5850882">
        <ele>75.9</ele>
        <time>2022-10-06T18:44:10Z</time>
      </trkpt>
      <trkpt lat="10.2663275" lon="-85.5850882">
        <ele>75.9</ele>
        <time>2022-10-06T18:44:11Z</time>
      </trkpt>
      <trkpt lat="10.2663275" lon="-85.5850882">
        <ele>75.9</ele>
        <time>2022-10-06T18:44:12Z</time>
      </trkpt>
      <trkpt lat="10.2663275" lon="-85.5850882">
        <ele>75.9</ele>
        <time>2022-10-06T18:44:13Z</time>
      </trkpt>
      <trkpt lat="10.2663275" lon="-85.5850882">
        <ele>76.0</ele>
        <time>2022-10-06T18:44:14Z</time>
      </trkpt>
      <trkpt lat="10.2663275" lon="-85.5850882">
        <ele>75.9</ele>
        <time>2022-10-06T18:44:15Z</time>
      </trkpt>
      <trkpt lat="10.2663275" lon="-85.5850882">
        <ele>75.9</ele>
        <time>2022-10-06T18:44:16Z</time>
      </trkpt>
      <trkpt lat="10.2663275" lon="-85.5850882">
        <ele>75.9</ele>
        <time>2022-10-06T18:44:17Z</time>
      </trkpt>
      <trkpt lat="10.2663275" lon="-85.5850882">
        <ele>75.9</ele>
        <time>2022-10-06T18:44:18Z</time>
      </trkpt>
      <trkpt lat="10.2663275" lon="-85.5850882">
        <ele>75.9</ele>
        <time>2022-10-06T18:44:19Z</time>
      </trkpt>
      <trkpt lat="10.2663275" lon="-85.5850882">
        <ele>75.9</ele>
        <time>2022-10-06T18:44:20Z</time>
      </trkpt>
      <trkpt lat="10.2663275" lon="-85.5850882">
        <ele>76.0</ele>
        <time>2022-10-06T18:44:21Z</time>
      </trkpt>
      <trkpt lat="10.2663275" lon="-85.5850882">
        <ele>76.0</ele>
        <time>2022-10-06T18:44:22Z</time>
      </trkpt>
      <trkpt lat="10.2663275" lon="-85.5850882">
        <ele>76.0</ele>
        <time>2022-10-06T18:44:23Z</time>
      </trkpt>
      <trkpt lat="10.2663275" lon="-85.5850882">
        <ele>76.1</ele>
        <time>2022-10-06T18:44:24Z</time>
      </trkpt>
      <trkpt lat="10.2663275" lon="-85.5850882">
        <ele>76.1</ele>
        <time>2022-10-06T18:44:25Z</time>
      </trkpt>
      <trkpt lat="10.2663275" lon="-85.5850882">
        <ele>76.1</ele>
        <time>2022-10-06T18:44:26Z</time>
      </trkpt>
      <trkpt lat="10.2663275" lon="-85.5850882">
        <ele>76.2</ele>
        <time>2022-10-06T18:44:27Z</time>
      </trkpt>
      <trkpt lat="10.2663275" lon="-85.5850882">
        <ele>76.2</ele>
        <time>2022-10-06T18:44:28Z</time>
      </trkpt>
      <trkpt lat="10.2663275" lon="-85.5850882">
        <ele>76.2</ele>
        <time>2022-10-06T18:44:29Z</time>
      </trkpt>
      <trkpt lat="10.2663275" lon="-85.5850882">
        <ele>76.2</ele>
        <time>2022-10-06T18:44:30Z</time>
      </trkpt>
      <trkpt lat="10.2663275" lon="-85.5850882">
        <ele>76.2</ele>
        <time>2022-10-06T18:44:31Z</time>
      </trkpt>
      <trkpt lat="10.2663275" lon="-85.5850882">
        <ele>76.2</ele>
        <time>2022-10-06T18:44:32Z</time>
      </trkpt>
      <trkpt lat="10.2663365" lon="-85.5850753">
        <ele>76.2</ele>
        <time>2022-10-06T18:44:33Z</time>
      </trkpt>
      <trkpt lat="10.2663364" lon="-85.5850748">
        <ele>75.8</ele>
        <time>2022-10-06T18:44:34Z</time>
      </trkpt>
      <trkpt lat="10.2663364" lon="-85.5850748">
        <ele>75.8</ele>
        <time>2022-10-06T18:44:35Z</time>
      </trkpt>
      <trkpt lat="10.2663364" lon="-85.5850748">
        <ele>75.9</ele>
        <time>2022-10-06T18:44:36Z</time>
      </trkpt>
      <trkpt lat="10.2663364" lon="-85.5850748">
        <ele>75.9</ele>
        <time>2022-10-06T18:44:37Z</time>
      </trkpt>
      <trkpt lat="10.2663364" lon="-85.5850748">
        <ele>76.0</ele>
        <time>2022-10-06T18:44:38Z</time>
      </trkpt>
      <trkpt lat="10.2663364" lon="-85.5850748">
        <ele>76.0</ele>
        <time>2022-10-06T18:44:39Z</time>
      </trkpt>
      <trkpt lat="10.2663364" lon="-85.5850748">
        <ele>76.1</ele>
        <time>2022-10-06T18:44:40Z</time>
      </trkpt>
      <trkpt lat="10.2663364" lon="-85.5850748">
        <ele>76.1</ele>
        <time>2022-10-06T18:44:41Z</time>
      </trkpt>
      <trkpt lat="10.2663364" lon="-85.5850748">
        <ele>76.0</ele>
        <time>2022-10-06T18:44:42Z</time>
      </trkpt>
      <trkpt lat="10.2663364" lon="-85.5850748">
        <ele>76.0</ele>
        <time>2022-10-06T18:44:43Z</time>
      </trkpt>
      <trkpt lat="10.2663364" lon="-85.5850748">
        <ele>76.0</ele>
        <time>2022-10-06T18:44:44Z</time>
      </trkpt>
      <trkpt lat="10.2663364" lon="-85.5850748">
        <ele>75.9</ele>
        <time>2022-10-06T18:44:45Z</time>
      </trkpt>
      <trkpt lat="10.2663396" lon="-85.5850683">
        <ele>75.8</ele>
        <time>2022-10-06T18:44:46Z</time>
      </trkpt>
      <trkpt lat="10.2663477" lon="-85.5850710">
        <ele>75.9</ele>
        <time>2022-10-06T18:44:47Z</time>
      </trkpt>
      <trkpt lat="10.2663635" lon="-85.5850744">
        <ele>75.8</ele>
        <time>2022-10-06T18:44:48Z</time>
      </trkpt>
      <trkpt lat="10.2663867" lon="-85.5850798">
        <ele>75.8</ele>
        <time>2022-10-06T18:44:49Z</time>
      </trkpt>
      <trkpt lat="10.2664149" lon="-85.5850844">
        <ele>75.8</ele>
        <time>2022-10-06T18:44:50Z</time>
      </trkpt>
      <trkpt lat="10.2664505" lon="-85.5850909">
        <ele>76.0</ele>
        <time>2022-10-06T18:44:51Z</time>
      </trkpt>
      <trkpt lat="10.2664889" lon="-85.5850979">
        <ele>75.9</ele>
        <time>2022-10-06T18:44:52Z</time>
      </trkpt>
      <trkpt lat="10.2665307" lon="-85.5851042">
        <ele>75.8</ele>
        <time>2022-10-06T18:44:53Z</time>
      </trkpt>
      <trkpt lat="10.2665735" lon="-85.5851101">
        <ele>75.9</ele>
        <time>2022-10-06T18:44:54Z</time>
      </trkpt>
      <trkpt lat="10.2666187" lon="-85.5851172">
        <ele>76.1</ele>
        <time>2022-10-06T18:44:55Z</time>
      </trkpt>
      <trkpt lat="10.2666649" lon="-85.5851246">
        <ele>76.0</ele>
        <time>2022-10-06T18:44:56Z</time>
      </trkpt>
      <trkpt lat="10.2667147" lon="-85.5851316">
        <ele>75.6</ele>
        <time>2022-10-06T18:44:57Z</time>
      </trkpt>
      <trkpt lat="10.2667665" lon="-85.5851398">
        <ele>75.6</ele>
        <time>2022-10-06T18:44:58Z</time>
      </trkpt>
      <trkpt lat="10.2668188" lon="-85.5851482">
        <ele>75.6</ele>
        <time>2022-10-06T18:44:59Z</time>
      </trkpt>
      <trkpt lat="10.2668679" lon="-85.5851549">
        <ele>75.7</ele>
        <time>2022-10-06T18:45:00Z</time>
      </trkpt>
      <trkpt lat="10.2669115" lon="-85.5851606">
        <ele>75.6</ele>
        <time>2022-10-06T18:45:01Z</time>
      </trkpt>
      <trkpt lat="10.2669508" lon="-85.5851692">
        <ele>75.5</ele>
        <time>2022-10-06T18:45:02Z</time>
      </trkpt>
      <trkpt lat="10.2669887" lon="-85.5851803">
        <ele>75.7</ele>
        <time>2022-10-06T18:45:03Z</time>
      </trkpt>
      <trkpt lat="10.2670169" lon="-85.5852018">
        <ele>75.6</ele>
        <time>2022-10-06T18:45:04Z</time>
      </trkpt>
      <trkpt lat="10.2670206" lon="-85.5852487">
        <ele>76.4</ele>
        <time>2022-10-06T18:45:05Z</time>
      </trkpt>
      <trkpt lat="10.2670200" lon="-85.5852857">
        <ele>76.4</ele>
        <time>2022-10-06T18:45:06Z</time>
      </trkpt>
      <trkpt lat="10.2670137" lon="-85.5853273">
        <ele>76.5</ele>
        <time>2022-10-06T18:45:07Z</time>
      </trkpt>
      <trkpt lat="10.2670058" lon="-85.5853780">
        <ele>76.6</ele>
        <time>2022-10-06T18:45:08Z</time>
      </trkpt>
      <trkpt lat="10.2669977" lon="-85.5854350">
        <ele>76.5</ele>
        <time>2022-10-06T18:45:09Z</time>
      </trkpt>
      <trkpt lat="10.2669866" lon="-85.5854998">
        <ele>76.6</ele>
        <time>2022-10-06T18:45:10Z</time>
      </trkpt>
      <trkpt lat="10.2669752" lon="-85.5855672">
        <ele>76.6</ele>
        <time>2022-10-06T18:45:11Z</time>
      </trkpt>
      <trkpt lat="10.2669630" lon="-85.5856372">
        <ele>76.7</ele>
        <time>2022-10-06T18:45:12Z</time>
      </trkpt>
      <trkpt lat="10.2669504" lon="-85.5857076">
        <ele>76.7</ele>
        <time>2022-10-06T18:45:13Z</time>
      </trkpt>
      <trkpt lat="10.2669402" lon="-85.5857779">
        <ele>76.8</ele>
        <time>2022-10-06T18:45:14Z</time>
      </trkpt>
      <trkpt lat="10.2669320" lon="-85.5858417">
        <ele>77.0</ele>
        <time>2022-10-06T18:45:15Z</time>
      </trkpt>
      <trkpt lat="10.2669267" lon="-85.5858966">
        <ele>77.0</ele>
        <time>2022-10-06T18:45:16Z</time>
      </trkpt>
      <trkpt lat="10.2669286" lon="-85.5859389">
        <ele>76.9</ele>
        <time>2022-10-06T18:45:17Z</time>
      </trkpt>
      <trkpt lat="10.2669292" lon="-85.5859730">
        <ele>76.9</ele>
        <time>2022-10-06T18:45:18Z</time>
      </trkpt>
      <trkpt lat="10.2669279" lon="-85.5859923">
        <ele>76.9</ele>
        <time>2022-10-06T18:45:19Z</time>
      </trkpt>
      <trkpt lat="10.2669274" lon="-85.5860011">
        <ele>76.9</ele>
        <time>2022-10-06T18:45:20Z</time>
      </trkpt>
      <trkpt lat="10.2669274" lon="-85.5860011">
        <ele>76.9</ele>
        <time>2022-10-06T18:45:21Z</time>
      </trkpt>
      <trkpt lat="10.2669274" lon="-85.5860011">
        <ele>76.9</ele>
        <time>2022-10-06T18:45:22Z</time>
      </trkpt>
      <trkpt lat="10.2669274" lon="-85.5860011">
        <ele>76.9</ele>
        <time>2022-10-06T18:45:23Z</time>
      </trkpt>
      <trkpt lat="10.2669307" lon="-85.5860102">
        <ele>76.9</ele>
        <time>2022-10-06T18:45:24Z</time>
      </trkpt>
      <trkpt lat="10.2669304" lon="-85.5860224">
        <ele>77.0</ele>
        <time>2022-10-06T18:45:25Z</time>
      </trkpt>
      <trkpt lat="10.2669281" lon="-85.5860428">
        <ele>76.9</ele>
        <time>2022-10-06T18:45:26Z</time>
      </trkpt>
      <trkpt lat="10.2669242" lon="-85.5860754">
        <ele>76.8</ele>
        <time>2022-10-06T18:45:27Z</time>
      </trkpt>
      <trkpt lat="10.2669182" lon="-85.5861188">
        <ele>76.8</ele>
        <time>2022-10-06T18:45:28Z</time>
      </trkpt>
      <trkpt lat="10.2669104" lon="-85.5861723">
        <ele>76.8</ele>
        <time>2022-10-06T18:45:29Z</time>
      </trkpt>
      <trkpt lat="10.2669012" lon="-85.5862346">
        <ele>76.9</ele>
        <time>2022-10-06T18:45:30Z</time>
      </trkpt>
      <trkpt lat="10.2668918" lon="-85.5863005">
        <ele>77.0</ele>
        <time>2022-10-06T18:45:31Z</time>
      </trkpt>
      <trkpt lat="10.2668812" lon="-85.5863684">
        <ele>77.0</ele>
        <time>2022-10-06T18:45:32Z</time>
      </trkpt>
      <trkpt lat="10.2668708" lon="-85.5864372">
        <ele>77.3</ele>
        <time>2022-10-06T18:45:33Z</time>
      </trkpt>
      <trkpt lat="10.2668600" lon="-85.5865051">
        <ele>77.3</ele>
        <time>2022-10-06T18:45:34Z</time>
      </trkpt>
      <trkpt lat="10.2668490" lon="-85.5865717">
        <ele>77.3</ele>
        <time>2022-10-06T18:45:35Z</time>
      </trkpt>
      <trkpt lat="10.2668389" lon="-85.5866304">
        <ele>77.3</ele>
        <time>2022-10-06T18:45:36Z</time>
      </trkpt>
      <trkpt lat="10.2668310" lon="-85.5866775">
        <ele>77.0</ele>
        <time>2022-10-06T18:45:37Z</time>
      </trkpt>
      <trkpt lat="10.2668261" lon="-85.5867213">
        <ele>76.7</ele>
        <time>2022-10-06T18:45:38Z</time>
      </trkpt>
      <trkpt lat="10.2668254" lon="-85.5867620">
        <ele>76.4</ele>
        <time>2022-10-06T18:45:39Z</time>
      </trkpt>
      <trkpt lat="10.2668277" lon="-85.5867957">
        <ele>76.1</ele>
        <time>2022-10-06T18:45:40Z</time>
      </trkpt>
      <trkpt lat="10.2668319" lon="-85.5868252">
        <ele>75.9</ele>
        <time>2022-10-06T18:45:41Z</time>
      </trkpt>
      <trkpt lat="10.2668316" lon="-85.5868451">
        <ele>75.8</ele>
        <time>2022-10-06T18:45:42Z</time>
      </trkpt>
      <trkpt lat="10.2668302" lon="-85.5868618">
        <ele>75.8</ele>
        <time>2022-10-06T18:45:43Z</time>
      </trkpt>
      <trkpt lat="10.2668296" lon="-85.5868738">
        <ele>75.7</ele>
        <time>2022-10-06T18:45:44Z</time>
      </trkpt>
      <trkpt lat="10.2668288" lon="-85.5868821">
        <ele>75.8</ele>
        <time>2022-10-06T18:45:45Z</time>
      </trkpt>
      <trkpt lat="10.2668291" lon="-85.5868892">
        <ele>75.7</ele>
        <time>2022-10-06T18:45:46Z</time>
      </trkpt>
      <trkpt lat="10.2668291" lon="-85.5868892">
        <ele>75.8</ele>
        <time>2022-10-06T18:45:47Z</time>
      </trkpt>
      <trkpt lat="10.2668291" lon="-85.5868892">
        <ele>75.7</ele>
        <time>2022-10-06T18:45:48Z</time>
      </trkpt>
      <trkpt lat="10.2668291" lon="-85.5868892">
        <ele>75.8</ele>
        <time>2022-10-06T18:45:49Z</time>
      </trkpt>
      <trkpt lat="10.2668291" lon="-85.5868892">
        <ele>75.8</ele>
        <time>2022-10-06T18:45:50Z</time>
      </trkpt>
      <trkpt lat="10.2668291" lon="-85.5868892">
        <ele>75.7</ele>
        <time>2022-10-06T18:45:51Z</time>
      </trkpt>
      <trkpt lat="10.2668291" lon="-85.5868892">
        <ele>75.6</ele>
        <time>2022-10-06T18:45:52Z</time>
      </trkpt>
      <trkpt lat="10.2668291" lon="-85.5868892">
        <ele>75.5</ele>
        <time>2022-10-06T18:45:53Z</time>
      </trkpt>
      <trkpt lat="10.2668291" lon="-85.5868892">
        <ele>75.5</ele>
        <time>2022-10-06T18:45:54Z</time>
      </trkpt>
      <trkpt lat="10.2668291" lon="-85.5868892">
        <ele>75.5</ele>
        <time>2022-10-06T18:45:55Z</time>
      </trkpt>
      <trkpt lat="10.2668291" lon="-85.5868892">
        <ele>75.4</ele>
        <time>2022-10-06T18:45:56Z</time>
      </trkpt>
      <trkpt lat="10.2668291" lon="-85.5868892">
        <ele>75.4</ele>
        <time>2022-10-06T18:45:57Z</time>
      </trkpt>
      <trkpt lat="10.2668291" lon="-85.5868892">
        <ele>75.4</ele>
        <time>2022-10-06T18:45:58Z</time>
      </trkpt>
      <trkpt lat="10.2668291" lon="-85.5868892">
        <ele>75.3</ele>
        <time>2022-10-06T18:45:59Z</time>
      </trkpt>
      <trkpt lat="10.2668291" lon="-85.5868892">
        <ele>75.3</ele>
        <time>2022-10-06T18:46:00Z</time>
      </trkpt>
      <trkpt lat="10.2668291" lon="-85.5868892">
        <ele>75.3</ele>
        <time>2022-10-06T18:46:01Z</time>
      </trkpt>
      <trkpt lat="10.2668291" lon="-85.5868892">
        <ele>75.3</ele>
        <time>2022-10-06T18:46:02Z</time>
      </trkpt>
      <trkpt lat="10.2668291" lon="-85.5868892">
        <ele>75.2</ele>
        <time>2022-10-06T18:46:03Z</time>
      </trkpt>
      <trkpt lat="10.2668291" lon="-85.5868892">
        <ele>75.1</ele>
        <time>2022-10-06T18:46:04Z</time>
      </trkpt>
      <trkpt lat="10.2668338" lon="-85.5869059">
        <ele>75.0</ele>
        <time>2022-10-06T18:46:05Z</time>
      </trkpt>
      <trkpt lat="10.2668290" lon="-85.5869175">
        <ele>74.9</ele>
        <time>2022-10-06T18:46:06Z</time>
      </trkpt>
      <trkpt lat="10.2668210" lon="-85.5869280">
        <ele>75.0</ele>
        <time>2022-10-06T18:46:07Z</time>
      </trkpt>
      <trkpt lat="10.2668099" lon="-85.5869442">
        <ele>75.1</ele>
        <time>2022-10-06T18:46:08Z</time>
      </trkpt>
      <trkpt lat="10.2667890" lon="-85.5869529">
        <ele>75.2</ele>
        <time>2022-10-06T18:46:09Z</time>
      </trkpt>
      <trkpt lat="10.2667543" lon="-85.5869552">
        <ele>75.2</ele>
        <time>2022-10-06T18:46:10Z</time>
      </trkpt>
      <trkpt lat="10.2667208" lon="-85.5869550">
        <ele>75.2</ele>
        <time>2022-10-06T18:46:11Z</time>
      </trkpt>
      <trkpt lat="10.2666872" lon="-85.5869535">
        <ele>75.3</ele>
        <time>2022-10-06T18:46:12Z</time>
      </trkpt>
      <trkpt lat="10.2666546" lon="-85.5869465">
        <ele>75.4</ele>
        <time>2022-10-06T18:46:13Z</time>
      </trkpt>
      <trkpt lat="10.2666255" lon="-85.5869394">
        <ele>75.5</ele>
        <time>2022-10-06T18:46:14Z</time>
      </trkpt>
      <trkpt lat="10.2665994" lon="-85.5869317">
        <ele>75.5</ele>
        <time>2022-10-06T18:46:15Z</time>
      </trkpt>
      <trkpt lat="10.2665770" lon="-85.5869268">
        <ele>75.7</ele>
        <time>2022-10-06T18:46:16Z</time>
      </trkpt>
      <trkpt lat="10.2665562" lon="-85.5869208">
        <ele>75.9</ele>
        <time>2022-10-06T18:46:17Z</time>
      </trkpt>
      <trkpt lat="10.2665385" lon="-85.5869158">
        <ele>75.9</ele>
        <time>2022-10-06T18:46:18Z</time>
      </trkpt>
      <trkpt lat="10.2665208" lon="-85.5869073">
        <ele>75.8</ele>
        <time>2022-10-06T18:46:19Z</time>
      </trkpt>
      <trkpt lat="10.2665061" lon="-85.5868977">
        <ele>75.9</ele>
        <time>2022-10-06T18:46:20Z</time>
      </trkpt>
      <trkpt lat="10.2664904" lon="-85.5868881">
        <ele>76.3</ele>
        <time>2022-10-06T18:46:21Z</time>
      </trkpt>
      <trkpt lat="10.2664759" lon="-85.5868810">
        <ele>76.1</ele>
        <time>2022-10-06T18:46:22Z</time>
      </trkpt>
      <trkpt lat="10.2664648" lon="-85.5868812">
        <ele>76.6</ele>
        <time>2022-10-06T18:46:23Z</time>
      </trkpt>
      <trkpt lat="10.2664590" lon="-85.5868812">
        <ele>76.6</ele>
        <time>2022-10-06T18:46:24Z</time>
      </trkpt>
      <trkpt lat="10.2664590" lon="-85.5868812">
        <ele>76.6</ele>
        <time>2022-10-06T18:46:25Z</time>
      </trkpt>
      <trkpt lat="10.2664590" lon="-85.5868812">
        <ele>76.6</ele>
        <time>2022-10-06T18:46:26Z</time>
      </trkpt>
      <trkpt lat="10.2664590" lon="-85.5868812">
        <ele>76.6</ele>
        <time>2022-10-06T18:46:27Z</time>
      </trkpt>
      <trkpt lat="10.2664590" lon="-85.5868812">
        <ele>76.6</ele>
        <time>2022-10-06T18:46:28Z</time>
      </trkpt>
      <trkpt lat="10.2664590" lon="-85.5868812">
        <ele>76.6</ele>
        <time>2022-10-06T18:46:29Z</time>
      </trkpt>
      <trkpt lat="10.2664590" lon="-85.5868812">
        <ele>76.5</ele>
        <time>2022-10-06T18:46:30Z</time>
      </trkpt>
      <trkpt lat="10.2664590" lon="-85.5868812">
        <ele>76.6</ele>
        <time>2022-10-06T18:46:31Z</time>
      </trkpt>
      <trkpt lat="10.2664590" lon="-85.5868812">
        <ele>76.5</ele>
        <time>2022-10-06T18:46:32Z</time>
      </trkpt>
      <trkpt lat="10.2664590" lon="-85.5868812">
        <ele>76.5</ele>
        <time>2022-10-06T18:46:33Z</time>
      </trkpt>
      <trkpt lat="10.2664590" lon="-85.5868812">
        <ele>76.6</ele>
        <time>2022-10-06T18:46:34Z</time>
      </trkpt>
      <trkpt lat="10.2664590" lon="-85.5868812">
        <ele>76.6</ele>
        <time>2022-10-06T18:46:35Z</time>
      </trkpt>
      <trkpt lat="10.2664590" lon="-85.5868812">
        <ele>76.7</ele>
        <time>2022-10-06T18:46:36Z</time>
      </trkpt>
      <trkpt lat="10.2664590" lon="-85.5868812">
        <ele>76.7</ele>
        <time>2022-10-06T18:46:37Z</time>
      </trkpt>
      <trkpt lat="10.2664590" lon="-85.5868812">
        <ele>76.7</ele>
        <time>2022-10-06T18:46:38Z</time>
      </trkpt>
      <trkpt lat="10.2664590" lon="-85.5868812">
        <ele>76.6</ele>
        <time>2022-10-06T18:46:39Z</time>
      </trkpt>
      <trkpt lat="10.2664590" lon="-85.5868812">
        <ele>76.6</ele>
        <time>2022-10-06T18:46:40Z</time>
      </trkpt>
      <trkpt lat="10.2664590" lon="-85.5868812">
        <ele>76.5</ele>
        <time>2022-10-06T18:46:41Z</time>
      </trkpt>
      <trkpt lat="10.2664590" lon="-85.5868812">
        <ele>76.5</ele>
        <time>2022-10-06T18:46:42Z</time>
      </trkpt>
      <trkpt lat="10.2664590" lon="-85.5868812">
        <ele>76.5</ele>
        <time>2022-10-06T18:46:43Z</time>
      </trkpt>
      <trkpt lat="10.2664590" lon="-85.5868812">
        <ele>76.5</ele>
        <time>2022-10-06T18:46:44Z</time>
      </trkpt>
      <trkpt lat="10.2664590" lon="-85.5868812">
        <ele>76.4</ele>
        <time>2022-10-06T18:46:45Z</time>
      </trkpt>
      <trkpt lat="10.2664590" lon="-85.5868812">
        <ele>76.4</ele>
        <time>2022-10-06T18:46:46Z</time>
      </trkpt>
      <trkpt lat="10.2664590" lon="-85.5868812">
        <ele>76.4</ele>
        <time>2022-10-06T18:46:47Z</time>
      </trkpt>
      <trkpt lat="10.2664590" lon="-85.5868812">
        <ele>76.4</ele>
        <time>2022-10-06T18:46:48Z</time>
      </trkpt>
      <trkpt lat="10.2664590" lon="-85.5868812">
        <ele>76.5</ele>
        <time>2022-10-06T18:46:49Z</time>
      </trkpt>
      <trkpt lat="10.2664590" lon="-85.5868812">
        <ele>76.5</ele>
        <time>2022-10-06T18:46:50Z</time>
      </trkpt>
      <trkpt lat="10.2664590" lon="-85.5868812">
        <ele>76.5</ele>
        <time>2022-10-06T18:46:51Z</time>
      </trkpt>
      <trkpt lat="10.2664590" lon="-85.5868812">
        <ele>76.4</ele>
        <time>2022-10-06T18:46:52Z</time>
      </trkpt>
      <trkpt lat="10.2664590" lon="-85.5868812">
        <ele>76.4</ele>
        <time>2022-10-06T18:46:53Z</time>
      </trkpt>
      <trkpt lat="10.2664590" lon="-85.5868812">
        <ele>76.4</ele>
        <time>2022-10-06T18:46:54Z</time>
      </trkpt>
      <trkpt lat="10.2664590" lon="-85.5868812">
        <ele>76.4</ele>
        <time>2022-10-06T18:46:55Z</time>
      </trkpt>
      <trkpt lat="10.2664590" lon="-85.5868812">
        <ele>76.4</ele>
        <time>2022-10-06T18:46:56Z</time>
      </trkpt>
      <trkpt lat="10.2664590" lon="-85.5868812">
        <ele>76.3</ele>
        <time>2022-10-06T18:46:57Z</time>
      </trkpt>
      <trkpt lat="10.2664590" lon="-85.5868812">
        <ele>76.3</ele>
        <time>2022-10-06T18:46:58Z</time>
      </trkpt>
      <trkpt lat="10.2664590" lon="-85.5868812">
        <ele>76.3</ele>
        <time>2022-10-06T18:46:59Z</time>
      </trkpt>
      <trkpt lat="10.2664590" lon="-85.5868812">
        <ele>76.3</ele>
        <time>2022-10-06T18:47:00Z</time>
      </trkpt>
      <trkpt lat="10.2664590" lon="-85.5868812">
        <ele>76.3</ele>
        <time>2022-10-06T18:47:01Z</time>
      </trkpt>
      <trkpt lat="10.2664590" lon="-85.5868812">
        <ele>76.3</ele>
        <time>2022-10-06T18:47:02Z</time>
      </trkpt>
      <trkpt lat="10.2664590" lon="-85.5868812">
        <ele>76.3</ele>
        <time>2022-10-06T18:47:03Z</time>
      </trkpt>
      <trkpt lat="10.2664590" lon="-85.5868812">
        <ele>76.3</ele>
        <time>2022-10-06T18:47:04Z</time>
      </trkpt>
      <trkpt lat="10.2664590" lon="-85.5868812">
        <ele>76.3</ele>
        <time>2022-10-06T18:47:05Z</time>
      </trkpt>
      <trkpt lat="10.2664590" lon="-85.5868812">
        <ele>76.3</ele>
        <time>2022-10-06T18:47:06Z</time>
      </trkpt>
      <trkpt lat="10.2664590" lon="-85.5868812">
        <ele>76.2</ele>
        <time>2022-10-06T18:47:07Z</time>
      </trkpt>
      <trkpt lat="10.2664590" lon="-85.5868812">
        <ele>76.3</ele>
        <time>2022-10-06T18:47:08Z</time>
      </trkpt>
      <trkpt lat="10.2664590" lon="-85.5868812">
        <ele>76.2</ele>
        <time>2022-10-06T18:47:09Z</time>
      </trkpt>
      <trkpt lat="10.2664590" lon="-85.5868812">
        <ele>76.2</ele>
        <time>2022-10-06T18:47:10Z</time>
      </trkpt>
      <trkpt lat="10.2664590" lon="-85.5868812">
        <ele>76.2</ele>
        <time>2022-10-06T18:47:11Z</time>
      </trkpt>
      <trkpt lat="10.2664590" lon="-85.5868812">
        <ele>76.0</ele>
        <time>2022-10-06T18:47:12Z</time>
      </trkpt>
      <trkpt lat="10.2664590" lon="-85.5868812">
        <ele>76.0</ele>
        <time>2022-10-06T18:47:13Z</time>
      </trkpt>
      <trkpt lat="10.2664590" lon="-85.5868812">
        <ele>76.0</ele>
        <time>2022-10-06T18:47:14Z</time>
      </trkpt>
      <trkpt lat="10.2664590" lon="-85.5868812">
        <ele>76.0</ele>
        <time>2022-10-06T18:47:15Z</time>
      </trkpt>
      <trkpt lat="10.2664590" lon="-85.5868812">
        <ele>76.0</ele>
        <time>2022-10-06T18:47:16Z</time>
      </trkpt>
      <trkpt lat="10.2664590" lon="-85.5868812">
        <ele>76.0</ele>
        <time>2022-10-06T18:47:17Z</time>
      </trkpt>
      <trkpt lat="10.2664590" lon="-85.5868812">
        <ele>76.0</ele>
        <time>2022-10-06T18:47:18Z</time>
      </trkpt>
      <trkpt lat="10.2664590" lon="-85.5868812">
        <ele>76.0</ele>
        <time>2022-10-06T18:47:19Z</time>
      </trkpt>
      <trkpt lat="10.2664590" lon="-85.5868812">
        <ele>76.0</ele>
        <time>2022-10-06T18:47:20Z</time>
      </trkpt>
      <trkpt lat="10.2664590" lon="-85.5868812">
        <ele>76.1</ele>
        <time>2022-10-06T18:47:21Z</time>
      </trkpt>
      <trkpt lat="10.2664590" lon="-85.5868812">
        <ele>76.1</ele>
        <time>2022-10-06T18:47:22Z</time>
      </trkpt>
      <trkpt lat="10.2664590" lon="-85.5868812">
        <ele>76.1</ele>
        <time>2022-10-06T18:47:23Z</time>
      </trkpt>
      <trkpt lat="10.2664590" lon="-85.5868812">
        <ele>76.1</ele>
        <time>2022-10-06T18:47:24Z</time>
      </trkpt>
      <trkpt lat="10.2664590" lon="-85.5868812">
        <ele>76.2</ele>
        <time>2022-10-06T18:47:25Z</time>
      </trkpt>
      <trkpt lat="10.2664590" lon="-85.5868812">
        <ele>76.2</ele>
        <time>2022-10-06T18:47:26Z</time>
      </trkpt>
      <trkpt lat="10.2664590" lon="-85.5868812">
        <ele>76.2</ele>
        <time>2022-10-06T18:47:27Z</time>
      </trkpt>
      <trkpt lat="10.2664590" lon="-85.5868812">
        <ele>76.2</ele>
        <time>2022-10-06T18:47:28Z</time>
      </trkpt>
      <trkpt lat="10.2664590" lon="-85.5868812">
        <ele>76.2</ele>
        <time>2022-10-06T18:47:29Z</time>
      </trkpt>
      <trkpt lat="10.2664590" lon="-85.5868812">
        <ele>76.3</ele>
        <time>2022-10-06T18:47:30Z</time>
      </trkpt>
      <trkpt lat="10.2664590" lon="-85.5868812">
        <ele>76.3</ele>
        <time>2022-10-06T18:47:31Z</time>
      </trkpt>
      <trkpt lat="10.2664590" lon="-85.5868812">
        <ele>76.3</ele>
        <time>2022-10-06T18:47:32Z</time>
      </trkpt>
      <trkpt lat="10.2664590" lon="-85.5868812">
        <ele>76.3</ele>
        <time>2022-10-06T18:47:33Z</time>
      </trkpt>
      <trkpt lat="10.2664590" lon="-85.5868812">
        <ele>76.3</ele>
        <time>2022-10-06T18:47:34Z</time>
      </trkpt>
      <trkpt lat="10.2664590" lon="-85.5868812">
        <ele>76.3</ele>
        <time>2022-10-06T18:47:35Z</time>
      </trkpt>
      <trkpt lat="10.2664678" lon="-85.5868737">
        <ele>76.2</ele>
        <time>2022-10-06T18:47:36Z</time>
      </trkpt>
      <trkpt lat="10.2664709" lon="-85.5868740">
        <ele>76.2</ele>
        <time>2022-10-06T18:47:37Z</time>
      </trkpt>
      <trkpt lat="10.2664726" lon="-85.5868743">
        <ele>76.2</ele>
        <time>2022-10-06T18:47:38Z</time>
      </trkpt>
      <trkpt lat="10.2664747" lon="-85.5868757">
        <ele>76.1</ele>
        <time>2022-10-06T18:47:39Z</time>
      </trkpt>
      <trkpt lat="10.2664786" lon="-85.5868768">
        <ele>76.1</ele>
        <time>2022-10-06T18:47:40Z</time>
      </trkpt>
      <trkpt lat="10.2664828" lon="-85.5868777">
        <ele>76.0</ele>
        <time>2022-10-06T18:47:41Z</time>
      </trkpt>
      <trkpt lat="10.2664885" lon="-85.5868795">
        <ele>76.0</ele>
        <time>2022-10-06T18:47:42Z</time>
      </trkpt>
      <trkpt lat="10.2664885" lon="-85.5868795">
        <ele>76.0</ele>
        <time>2022-10-06T18:47:43Z</time>
      </trkpt>
      <trkpt lat="10.2664885" lon="-85.5868795">
        <ele>76.0</ele>
        <time>2022-10-06T18:47:44Z</time>
      </trkpt>
      <trkpt lat="10.2664885" lon="-85.5868795">
        <ele>76.0</ele>
        <time>2022-10-06T18:47:45Z</time>
      </trkpt>
      <trkpt lat="10.2664885" lon="-85.5868795">
        <ele>75.9</ele>
        <time>2022-10-06T18:47:46Z</time>
      </trkpt>
      <trkpt lat="10.2664885" lon="-85.5868795">
        <ele>75.9</ele>
        <time>2022-10-06T18:47:47Z</time>
      </trkpt>
      <trkpt lat="10.2664885" lon="-85.5868795">
        <ele>75.9</ele>
        <time>2022-10-06T18:47:48Z</time>
      </trkpt>
      <trkpt lat="10.2664885" lon="-85.5868795">
        <ele>75.8</ele>
        <time>2022-10-06T18:47:49Z</time>
      </trkpt>
      <trkpt lat="10.2664885" lon="-85.5868795">
        <ele>75.8</ele>
        <time>2022-10-06T18:47:50Z</time>
      </trkpt>
      <trkpt lat="10.2664885" lon="-85.5868795">
        <ele>75.8</ele>
        <time>2022-10-06T18:47:51Z</time>
      </trkpt>
      <trkpt lat="10.2664885" lon="-85.5868795">
        <ele>75.7</ele>
        <time>2022-10-06T18:47:52Z</time>
      </trkpt>
      <trkpt lat="10.2664885" lon="-85.5868795">
        <ele>75.7</ele>
        <time>2022-10-06T18:47:53Z</time>
      </trkpt>
      <trkpt lat="10.2664885" lon="-85.5868795">
        <ele>75.7</ele>
        <time>2022-10-06T18:47:54Z</time>
      </trkpt>
      <trkpt lat="10.2664885" lon="-85.5868795">
        <ele>75.7</ele>
        <time>2022-10-06T18:47:55Z</time>
      </trkpt>
      <trkpt lat="10.2664885" lon="-85.5868795">
        <ele>75.7</ele>
        <time>2022-10-06T18:47:56Z</time>
      </trkpt>
      <trkpt lat="10.2664885" lon="-85.5868795">
        <ele>75.6</ele>
        <time>2022-10-06T18:47:57Z</time>
      </trkpt>
      <trkpt lat="10.2664885" lon="-85.5868795">
        <ele>75.6</ele>
        <time>2022-10-06T18:47:58Z</time>
      </trkpt>
      <trkpt lat="10.2664885" lon="-85.5868795">
        <ele>75.6</ele>
        <time>2022-10-06T18:47:59Z</time>
      </trkpt>
      <trkpt lat="10.2664885" lon="-85.5868795">
        <ele>75.5</ele>
        <time>2022-10-06T18:48:00Z</time>
      </trkpt>
      <trkpt lat="10.2664885" lon="-85.5868795">
        <ele>75.5</ele>
        <time>2022-10-06T18:48:01Z</time>
      </trkpt>
      <trkpt lat="10.2664885" lon="-85.5868795">
        <ele>75.5</ele>
        <time>2022-10-06T18:48:02Z</time>
      </trkpt>
      <trkpt lat="10.2664885" lon="-85.5868795">
        <ele>75.5</ele>
        <time>2022-10-06T18:48:03Z</time>
      </trkpt>
      <trkpt lat="10.2664885" lon="-85.5868795">
        <ele>75.5</ele>
        <time>2022-10-06T18:48:04Z</time>
      </trkpt>
      <trkpt lat="10.2664885" lon="-85.5868795">
        <ele>75.5</ele>
        <time>2022-10-06T18:48:05Z</time>
      </trkpt>
      <trkpt lat="10.2664885" lon="-85.5868795">
        <ele>75.5</ele>
        <time>2022-10-06T18:48:06Z</time>
      </trkpt>
      <trkpt lat="10.2664885" lon="-85.5868795">
        <ele>75.5</ele>
        <time>2022-10-06T18:48:07Z</time>
      </trkpt>
      <trkpt lat="10.2664885" lon="-85.5868795">
        <ele>75.5</ele>
        <time>2022-10-06T18:48:08Z</time>
      </trkpt>
      <trkpt lat="10.2664885" lon="-85.5868795">
        <ele>75.5</ele>
        <time>2022-10-06T18:48:09Z</time>
      </trkpt>
      <trkpt lat="10.2664885" lon="-85.5868795">
        <ele>75.5</ele>
        <time>2022-10-06T18:48:10Z</time>
      </trkpt>
      <trkpt lat="10.2664885" lon="-85.5868795">
        <ele>75.5</ele>
        <time>2022-10-06T18:48:11Z</time>
      </trkpt>
      <trkpt lat="10.2664885" lon="-85.5868795">
        <ele>75.6</ele>
        <time>2022-10-06T18:48:12Z</time>
      </trkpt>
      <trkpt lat="10.2664885" lon="-85.5868795">
        <ele>75.6</ele>
        <time>2022-10-06T18:48:13Z</time>
      </trkpt>
      <trkpt lat="10.2664885" lon="-85.5868795">
        <ele>75.7</ele>
        <time>2022-10-06T18:48:14Z</time>
      </trkpt>
      <trkpt lat="10.2664885" lon="-85.5868795">
        <ele>75.7</ele>
        <time>2022-10-06T18:48:15Z</time>
      </trkpt>
      <trkpt lat="10.2664885" lon="-85.5868795">
        <ele>75.7</ele>
        <time>2022-10-06T18:48:16Z</time>
      </trkpt>
      <trkpt lat="10.2664885" lon="-85.5868795">
        <ele>75.7</ele>
        <time>2022-10-06T18:48:17Z</time>
      </trkpt>
      <trkpt lat="10.2664885" lon="-85.5868795">
        <ele>75.7</ele>
        <time>2022-10-06T18:48:18Z</time>
      </trkpt>
      <trkpt lat="10.2664885" lon="-85.5868795">
        <ele>75.7</ele>
        <time>2022-10-06T18:48:19Z</time>
      </trkpt>
      <trkpt lat="10.2664885" lon="-85.5868795">
        <ele>75.8</ele>
        <time>2022-10-06T18:48:20Z</time>
      </trkpt>
      <trkpt lat="10.2664885" lon="-85.5868795">
        <ele>75.8</ele>
        <time>2022-10-06T18:48:21Z</time>
      </trkpt>
      <trkpt lat="10.2664885" lon="-85.5868795">
        <ele>75.8</ele>
        <time>2022-10-06T18:48:22Z</time>
      </trkpt>
      <trkpt lat="10.2664885" lon="-85.5868795">
        <ele>75.8</ele>
        <time>2022-10-06T18:48:23Z</time>
      </trkpt>
      <trkpt lat="10.2664885" lon="-85.5868795">
        <ele>75.8</ele>
        <time>2022-10-06T18:48:24Z</time>
      </trkpt>
      <trkpt lat="10.2664885" lon="-85.5868795">
        <ele>75.8</ele>
        <time>2022-10-06T18:48:25Z</time>
      </trkpt>
      <trkpt lat="10.2664885" lon="-85.5868795">
        <ele>75.8</ele>
        <time>2022-10-06T18:48:26Z</time>
      </trkpt>
      <trkpt lat="10.2664885" lon="-85.5868795">
        <ele>75.8</ele>
        <time>2022-10-06T18:48:27Z</time>
      </trkpt>
      <trkpt lat="10.2664885" lon="-85.5868795">
        <ele>75.8</ele>
        <time>2022-10-06T18:48:28Z</time>
      </trkpt>
      <trkpt lat="10.2664885" lon="-85.5868795">
        <ele>75.8</ele>
        <time>2022-10-06T18:48:29Z</time>
      </trkpt>
      <trkpt lat="10.2664885" lon="-85.5868795">
        <ele>75.7</ele>
        <time>2022-10-06T18:48:30Z</time>
      </trkpt>
      <trkpt lat="10.2664885" lon="-85.5868795">
        <ele>75.8</ele>
        <time>2022-10-06T18:48:31Z</time>
      </trkpt>
      <trkpt lat="10.2664885" lon="-85.5868795">
        <ele>75.8</ele>
        <time>2022-10-06T18:48:32Z</time>
      </trkpt>
      <trkpt lat="10.2664885" lon="-85.5868795">
        <ele>75.8</ele>
        <time>2022-10-06T18:48:33Z</time>
      </trkpt>
      <trkpt lat="10.2664885" lon="-85.5868795">
        <ele>75.8</ele>
        <time>2022-10-06T18:48:34Z</time>
      </trkpt>
      <trkpt lat="10.2664885" lon="-85.5868795">
        <ele>75.8</ele>
        <time>2022-10-06T18:48:35Z</time>
      </trkpt>
      <trkpt lat="10.2664885" lon="-85.5868795">
        <ele>75.7</ele>
        <time>2022-10-06T18:48:36Z</time>
      </trkpt>
      <trkpt lat="10.2664885" lon="-85.5868795">
        <ele>75.7</ele>
        <time>2022-10-06T18:48:37Z</time>
      </trkpt>
      <trkpt lat="10.2664885" lon="-85.5868795">
        <ele>75.7</ele>
        <time>2022-10-06T18:48:38Z</time>
      </trkpt>
      <trkpt lat="10.2664885" lon="-85.5868795">
        <ele>75.7</ele>
        <time>2022-10-06T18:48:39Z</time>
      </trkpt>
      <trkpt lat="10.2664885" lon="-85.5868795">
        <ele>75.7</ele>
        <time>2022-10-06T18:48:40Z</time>
      </trkpt>
      <trkpt lat="10.2664885" lon="-85.5868795">
        <ele>75.7</ele>
        <time>2022-10-06T18:48:41Z</time>
      </trkpt>
      <trkpt lat="10.2664885" lon="-85.5868795">
        <ele>75.7</ele>
        <time>2022-10-06T18:48:42Z</time>
      </trkpt>
      <trkpt lat="10.2664885" lon="-85.5868795">
        <ele>75.7</ele>
        <time>2022-10-06T18:48:43Z</time>
      </trkpt>
      <trkpt lat="10.2664885" lon="-85.5868795">
        <ele>75.7</ele>
        <time>2022-10-06T18:48:44Z</time>
      </trkpt>
      <trkpt lat="10.2664885" lon="-85.5868795">
        <ele>75.7</ele>
        <time>2022-10-06T18:48:45Z</time>
      </trkpt>
      <trkpt lat="10.2664885" lon="-85.5868795">
        <ele>75.6</ele>
        <time>2022-10-06T18:48:46Z</time>
      </trkpt>
      <trkpt lat="10.2664885" lon="-85.5868795">
        <ele>75.6</ele>
        <time>2022-10-06T18:48:47Z</time>
      </trkpt>
      <trkpt lat="10.2664885" lon="-85.5868795">
        <ele>75.6</ele>
        <time>2022-10-06T18:48:48Z</time>
      </trkpt>
      <trkpt lat="10.2664885" lon="-85.5868795">
        <ele>75.6</ele>
        <time>2022-10-06T18:48:49Z</time>
      </trkpt>
      <trkpt lat="10.2664885" lon="-85.5868795">
        <ele>75.6</ele>
        <time>2022-10-06T18:48:50Z</time>
      </trkpt>
      <trkpt lat="10.2664885" lon="-85.5868795">
        <ele>75.7</ele>
        <time>2022-10-06T18:48:51Z</time>
      </trkpt>
      <trkpt lat="10.2664885" lon="-85.5868795">
        <ele>75.7</ele>
        <time>2022-10-06T18:48:52Z</time>
      </trkpt>
      <trkpt lat="10.2664885" lon="-85.5868795">
        <ele>75.7</ele>
        <time>2022-10-06T18:48:53Z</time>
      </trkpt>
      <trkpt lat="10.2664885" lon="-85.5868795">
        <ele>75.7</ele>
        <time>2022-10-06T18:48:54Z</time>
      </trkpt>
      <trkpt lat="10.2664885" lon="-85.5868795">
        <ele>75.7</ele>
        <time>2022-10-06T18:48:55Z</time>
      </trkpt>
      <trkpt lat="10.2664885" lon="-85.5868795">
        <ele>75.7</ele>
        <time>2022-10-06T18:48:56Z</time>
      </trkpt>
      <trkpt lat="10.2664885" lon="-85.5868795">
        <ele>75.7</ele>
        <time>2022-10-06T18:48:57Z</time>
      </trkpt>
      <trkpt lat="10.2664885" lon="-85.5868795">
        <ele>75.7</ele>
        <time>2022-10-06T18:48:58Z</time>
      </trkpt>
      <trkpt lat="10.2664885" lon="-85.5868795">
        <ele>75.7</ele>
        <time>2022-10-06T18:48:59Z</time>
      </trkpt>
      <trkpt lat="10.2664885" lon="-85.5868795">
        <ele>75.7</ele>
        <time>2022-10-06T18:49:00Z</time>
      </trkpt>
      <trkpt lat="10.2664885" lon="-85.5868795">
        <ele>75.7</ele>
        <time>2022-10-06T18:49:01Z</time>
      </trkpt>
      <trkpt lat="10.2664885" lon="-85.5868795">
        <ele>75.6</ele>
        <time>2022-10-06T18:49:02Z</time>
      </trkpt>
      <trkpt lat="10.2664885" lon="-85.5868795">
        <ele>75.7</ele>
        <time>2022-10-06T18:49:03Z</time>
      </trkpt>
      <trkpt lat="10.2664885" lon="-85.5868795">
        <ele>75.6</ele>
        <time>2022-10-06T18:49:04Z</time>
      </trkpt>
      <trkpt lat="10.2664885" lon="-85.5868795">
        <ele>75.6</ele>
        <time>2022-10-06T18:49:05Z</time>
      </trkpt>
      <trkpt lat="10.2664885" lon="-85.5868795">
        <ele>75.6</ele>
        <time>2022-10-06T18:49:06Z</time>
      </trkpt>
      <trkpt lat="10.2664885" lon="-85.5868795">
        <ele>75.6</ele>
        <time>2022-10-06T18:49:07Z</time>
      </trkpt>
      <trkpt lat="10.2664885" lon="-85.5868795">
        <ele>75.6</ele>
        <time>2022-10-06T18:49:08Z</time>
      </trkpt>
      <trkpt lat="10.2664885" lon="-85.5868795">
        <ele>75.6</ele>
        <time>2022-10-06T18:49:09Z</time>
      </trkpt>
      <trkpt lat="10.2664885" lon="-85.5868795">
        <ele>75.6</ele>
        <time>2022-10-06T18:49:10Z</time>
      </trkpt>
      <trkpt lat="10.2664885" lon="-85.5868795">
        <ele>75.6</ele>
        <time>2022-10-06T18:49:11Z</time>
      </trkpt>
      <trkpt lat="10.2664885" lon="-85.5868795">
        <ele>75.6</ele>
        <time>2022-10-06T18:49:12Z</time>
      </trkpt>
      <trkpt lat="10.2664885" lon="-85.5868795">
        <ele>75.6</ele>
        <time>2022-10-06T18:49:13Z</time>
      </trkpt>
      <trkpt lat="10.2664885" lon="-85.5868795">
        <ele>75.6</ele>
        <time>2022-10-06T18:49:14Z</time>
      </trkpt>
      <trkpt lat="10.2664885" lon="-85.5868795">
        <ele>75.6</ele>
        <time>2022-10-06T18:49:15Z</time>
      </trkpt>
      <trkpt lat="10.2664885" lon="-85.5868795">
        <ele>75.6</ele>
        <time>2022-10-06T18:49:16Z</time>
      </trkpt>
      <trkpt lat="10.2664885" lon="-85.5868795">
        <ele>75.6</ele>
        <time>2022-10-06T18:49:17Z</time>
      </trkpt>
      <trkpt lat="10.2664885" lon="-85.5868795">
        <ele>75.6</ele>
        <time>2022-10-06T18:49:18Z</time>
      </trkpt>
      <trkpt lat="10.2664885" lon="-85.5868795">
        <ele>75.6</ele>
        <time>2022-10-06T18:49:19Z</time>
      </trkpt>
      <trkpt lat="10.2664885" lon="-85.5868795">
        <ele>75.6</ele>
        <time>2022-10-06T18:49:20Z</time>
      </trkpt>
      <trkpt lat="10.2664885" lon="-85.5868795">
        <ele>75.6</ele>
        <time>2022-10-06T18:49:21Z</time>
      </trkpt>
      <trkpt lat="10.2664885" lon="-85.5868795">
        <ele>75.5</ele>
        <time>2022-10-06T18:49:22Z</time>
      </trkpt>
      <trkpt lat="10.2664885" lon="-85.5868795">
        <ele>75.6</ele>
        <time>2022-10-06T18:49:23Z</time>
      </trkpt>
      <trkpt lat="10.2664885" lon="-85.5868795">
        <ele>75.6</ele>
        <time>2022-10-06T18:49:24Z</time>
      </trkpt>
      <trkpt lat="10.2664885" lon="-85.5868795">
        <ele>75.6</ele>
        <time>2022-10-06T18:49:25Z</time>
      </trkpt>
      <trkpt lat="10.2664885" lon="-85.5868795">
        <ele>75.6</ele>
        <time>2022-10-06T18:49:26Z</time>
      </trkpt>
      <trkpt lat="10.2664885" lon="-85.5868795">
        <ele>75.6</ele>
        <time>2022-10-06T18:49:27Z</time>
      </trkpt>
      <trkpt lat="10.2664885" lon="-85.5868795">
        <ele>75.6</ele>
        <time>2022-10-06T18:49:28Z</time>
      </trkpt>
      <trkpt lat="10.2664885" lon="-85.5868795">
        <ele>75.6</ele>
        <time>2022-10-06T18:49:29Z</time>
      </trkpt>
      <trkpt lat="10.2664885" lon="-85.5868795">
        <ele>75.6</ele>
        <time>2022-10-06T18:49:30Z</time>
      </trkpt>
      <trkpt lat="10.2664885" lon="-85.5868795">
        <ele>75.6</ele>
        <time>2022-10-06T18:49:31Z</time>
      </trkpt>
      <trkpt lat="10.2664885" lon="-85.5868795">
        <ele>75.6</ele>
        <time>2022-10-06T18:49:32Z</time>
      </trkpt>
      <trkpt lat="10.2664885" lon="-85.5868795">
        <ele>75.6</ele>
        <time>2022-10-06T18:49:33Z</time>
      </trkpt>
      <trkpt lat="10.2664885" lon="-85.5868795">
        <ele>75.6</ele>
        <time>2022-10-06T18:49:34Z</time>
      </trkpt>
      <trkpt lat="10.2664885" lon="-85.5868795">
        <ele>75.5</ele>
        <time>2022-10-06T18:49:35Z</time>
      </trkpt>
      <trkpt lat="10.2664885" lon="-85.5868795">
        <ele>75.6</ele>
        <time>2022-10-06T18:49:36Z</time>
      </trkpt>
      <trkpt lat="10.2664885" lon="-85.5868795">
        <ele>75.6</ele>
        <time>2022-10-06T18:49:37Z</time>
      </trkpt>
      <trkpt lat="10.2664885" lon="-85.5868795">
        <ele>75.6</ele>
        <time>2022-10-06T18:49:38Z</time>
      </trkpt>
      <trkpt lat="10.2664885" lon="-85.5868795">
        <ele>75.6</ele>
        <time>2022-10-06T18:49:39Z</time>
      </trkpt>
      <trkpt lat="10.2664885" lon="-85.5868795">
        <ele>75.6</ele>
        <time>2022-10-06T18:49:40Z</time>
      </trkpt>
      <trkpt lat="10.2664885" lon="-85.5868795">
        <ele>75.6</ele>
        <time>2022-10-06T18:49:41Z</time>
      </trkpt>
      <trkpt lat="10.2664885" lon="-85.5868795">
        <ele>75.6</ele>
        <time>2022-10-06T18:49:42Z</time>
      </trkpt>
      <trkpt lat="10.2664885" lon="-85.5868795">
        <ele>75.6</ele>
        <time>2022-10-06T18:49:43Z</time>
      </trkpt>
      <trkpt lat="10.2664885" lon="-85.5868795">
        <ele>75.6</ele>
        <time>2022-10-06T18:49:44Z</time>
      </trkpt>
      <trkpt lat="10.2664885" lon="-85.5868795">
        <ele>75.6</ele>
        <time>2022-10-06T18:49:45Z</time>
      </trkpt>
      <trkpt lat="10.2664885" lon="-85.5868795">
        <ele>75.6</ele>
        <time>2022-10-06T18:49:46Z</time>
      </trkpt>
      <trkpt lat="10.2664885" lon="-85.5868795">
        <ele>75.7</ele>
        <time>2022-10-06T18:49:47Z</time>
      </trkpt>
      <trkpt lat="10.2664885" lon="-85.5868795">
        <ele>75.7</ele>
        <time>2022-10-06T18:49:48Z</time>
      </trkpt>
      <trkpt lat="10.2664885" lon="-85.5868795">
        <ele>75.6</ele>
        <time>2022-10-06T18:49:49Z</time>
      </trkpt>
      <trkpt lat="10.2664885" lon="-85.5868795">
        <ele>75.6</ele>
        <time>2022-10-06T18:49:50Z</time>
      </trkpt>
      <trkpt lat="10.2664885" lon="-85.5868795">
        <ele>75.6</ele>
        <time>2022-10-06T18:49:51Z</time>
      </trkpt>
      <trkpt lat="10.2664885" lon="-85.5868795">
        <ele>75.6</ele>
        <time>2022-10-06T18:49:52Z</time>
      </trkpt>
      <trkpt lat="10.2664885" lon="-85.5868795">
        <ele>75.6</ele>
        <time>2022-10-06T18:49:53Z</time>
      </trkpt>
      <trkpt lat="10.2664885" lon="-85.5868795">
        <ele>75.5</ele>
        <time>2022-10-06T18:49:54Z</time>
      </trkpt>
      <trkpt lat="10.2664885" lon="-85.5868795">
        <ele>75.6</ele>
        <time>2022-10-06T18:49:55Z</time>
      </trkpt>
      <trkpt lat="10.2664885" lon="-85.5868795">
        <ele>75.6</ele>
        <time>2022-10-06T18:49:56Z</time>
      </trkpt>
      <trkpt lat="10.2664885" lon="-85.5868795">
        <ele>75.6</ele>
        <time>2022-10-06T18:49:57Z</time>
      </trkpt>
      <trkpt lat="10.2664885" lon="-85.5868795">
        <ele>75.6</ele>
        <time>2022-10-06T18:49:58Z</time>
      </trkpt>
      <trkpt lat="10.2664885" lon="-85.5868795">
        <ele>75.6</ele>
        <time>2022-10-06T18:49:59Z</time>
      </trkpt>
      <trkpt lat="10.2664885" lon="-85.5868795">
        <ele>75.6</ele>
        <time>2022-10-06T18:50:00Z</time>
      </trkpt>
      <trkpt lat="10.2664885" lon="-85.5868795">
        <ele>75.6</ele>
        <time>2022-10-06T18:50:01Z</time>
      </trkpt>
      <trkpt lat="10.2664885" lon="-85.5868795">
        <ele>75.6</ele>
        <time>2022-10-06T18:50:02Z</time>
      </trkpt>
      <trkpt lat="10.2664885" lon="-85.5868795">
        <ele>75.7</ele>
        <time>2022-10-06T18:50:03Z</time>
      </trkpt>
      <trkpt lat="10.2664885" lon="-85.5868795">
        <ele>75.6</ele>
        <time>2022-10-06T18:50:04Z</time>
      </trkpt>
      <trkpt lat="10.2664885" lon="-85.5868795">
        <ele>75.6</ele>
        <time>2022-10-06T18:50:05Z</time>
      </trkpt>
      <trkpt lat="10.2664885" lon="-85.5868795">
        <ele>75.6</ele>
        <time>2022-10-06T18:50:06Z</time>
      </trkpt>
      <trkpt lat="10.2664885" lon="-85.5868795">
        <ele>75.6</ele>
        <time>2022-10-06T18:50:07Z</time>
      </trkpt>
      <trkpt lat="10.2664885" lon="-85.5868795">
        <ele>75.6</ele>
        <time>2022-10-06T18:50:08Z</time>
      </trkpt>
      <trkpt lat="10.2664885" lon="-85.5868795">
        <ele>75.6</ele>
        <time>2022-10-06T18:50:09Z</time>
      </trkpt>
      <trkpt lat="10.2664885" lon="-85.5868795">
        <ele>75.7</ele>
        <time>2022-10-06T18:50:10Z</time>
      </trkpt>
      <trkpt lat="10.2664885" lon="-85.5868795">
        <ele>75.7</ele>
        <time>2022-10-06T18:50:11Z</time>
      </trkpt>
      <trkpt lat="10.2664885" lon="-85.5868795">
        <ele>75.8</ele>
        <time>2022-10-06T18:50:12Z</time>
      </trkpt>
      <trkpt lat="10.2664885" lon="-85.5868795">
        <ele>75.8</ele>
        <time>2022-10-06T18:50:13Z</time>
      </trkpt>
      <trkpt lat="10.2664885" lon="-85.5868795">
        <ele>75.8</ele>
        <time>2022-10-06T18:50:14Z</time>
      </trkpt>
      <trkpt lat="10.2664885" lon="-85.5868795">
        <ele>75.8</ele>
        <time>2022-10-06T18:50:15Z</time>
      </trkpt>
      <trkpt lat="10.2664885" lon="-85.5868795">
        <ele>75.8</ele>
        <time>2022-10-06T18:50:16Z</time>
      </trkpt>
      <trkpt lat="10.2664885" lon="-85.5868795">
        <ele>75.8</ele>
        <time>2022-10-06T18:50:17Z</time>
      </trkpt>
      <trkpt lat="10.2664885" lon="-85.5868795">
        <ele>75.8</ele>
        <time>2022-10-06T18:50:18Z</time>
      </trkpt>
      <trkpt lat="10.2664885" lon="-85.5868795">
        <ele>75.8</ele>
        <time>2022-10-06T18:50:19Z</time>
      </trkpt>
      <trkpt lat="10.2664885" lon="-85.5868795">
        <ele>75.8</ele>
        <time>2022-10-06T18:50:20Z</time>
      </trkpt>
      <trkpt lat="10.2664885" lon="-85.5868795">
        <ele>75.7</ele>
        <time>2022-10-06T18:50:21Z</time>
      </trkpt>
      <trkpt lat="10.2664885" lon="-85.5868795">
        <ele>75.8</ele>
        <time>2022-10-06T18:50:22Z</time>
      </trkpt>
      <trkpt lat="10.2664885" lon="-85.5868795">
        <ele>75.8</ele>
        <time>2022-10-06T18:50:23Z</time>
      </trkpt>
      <trkpt lat="10.2664885" lon="-85.5868795">
        <ele>75.8</ele>
        <time>2022-10-06T18:50:24Z</time>
      </trkpt>
      <trkpt lat="10.2664885" lon="-85.5868795">
        <ele>75.8</ele>
        <time>2022-10-06T18:50:25Z</time>
      </trkpt>
      <trkpt lat="10.2664885" lon="-85.5868795">
        <ele>75.8</ele>
        <time>2022-10-06T18:50:26Z</time>
      </trkpt>
      <trkpt lat="10.2664885" lon="-85.5868795">
        <ele>75.8</ele>
        <time>2022-10-06T18:50:27Z</time>
      </trkpt>
      <trkpt lat="10.2664885" lon="-85.5868795">
        <ele>75.8</ele>
        <time>2022-10-06T18:50:28Z</time>
      </trkpt>
      <trkpt lat="10.2664885" lon="-85.5868795">
        <ele>75.8</ele>
        <time>2022-10-06T18:50:29Z</time>
      </trkpt>
      <trkpt lat="10.2664885" lon="-85.5868795">
        <ele>75.8</ele>
        <time>2022-10-06T18:50:30Z</time>
      </trkpt>
      <trkpt lat="10.2664885" lon="-85.5868795">
        <ele>75.9</ele>
        <time>2022-10-06T18:50:31Z</time>
      </trkpt>
      <trkpt lat="10.2664885" lon="-85.5868795">
        <ele>75.9</ele>
        <time>2022-10-06T18:50:32Z</time>
      </trkpt>
      <trkpt lat="10.2664885" lon="-85.5868795">
        <ele>75.8</ele>
        <time>2022-10-06T18:50:33Z</time>
      </trkpt>
      <trkpt lat="10.2664885" lon="-85.5868795">
        <ele>75.9</ele>
        <time>2022-10-06T18:50:34Z</time>
      </trkpt>
      <trkpt lat="10.2664885" lon="-85.5868795">
        <ele>75.8</ele>
        <time>2022-10-06T18:50:35Z</time>
      </trkpt>
      <trkpt lat="10.2664885" lon="-85.5868795">
        <ele>75.8</ele>
        <time>2022-10-06T18:50:36Z</time>
      </trkpt>
      <trkpt lat="10.2664885" lon="-85.5868795">
        <ele>75.8</ele>
        <time>2022-10-06T18:50:37Z</time>
      </trkpt>
      <trkpt lat="10.2664885" lon="-85.5868795">
        <ele>75.8</ele>
        <time>2022-10-06T18:50:38Z</time>
      </trkpt>
      <trkpt lat="10.2664885" lon="-85.5868795">
        <ele>75.8</ele>
        <time>2022-10-06T18:50:39Z</time>
      </trkpt>
      <trkpt lat="10.2664885" lon="-85.5868795">
        <ele>75.8</ele>
        <time>2022-10-06T18:50:40Z</time>
      </trkpt>
      <trkpt lat="10.2664885" lon="-85.5868795">
        <ele>75.9</ele>
        <time>2022-10-06T18:50:41Z</time>
      </trkpt>
      <trkpt lat="10.2664885" lon="-85.5868795">
        <ele>75.9</ele>
        <time>2022-10-06T18:50:42Z</time>
      </trkpt>
      <trkpt lat="10.2664885" lon="-85.5868795">
        <ele>75.9</ele>
        <time>2022-10-06T18:50:43Z</time>
      </trkpt>
      <trkpt lat="10.2664885" lon="-85.5868795">
        <ele>75.9</ele>
        <time>2022-10-06T18:50:44Z</time>
      </trkpt>
      <trkpt lat="10.2664885" lon="-85.5868795">
        <ele>75.9</ele>
        <time>2022-10-06T18:50:45Z</time>
      </trkpt>
      <trkpt lat="10.2664885" lon="-85.5868795">
        <ele>75.9</ele>
        <time>2022-10-06T18:50:46Z</time>
      </trkpt>
      <trkpt lat="10.2664885" lon="-85.5868795">
        <ele>75.9</ele>
        <time>2022-10-06T18:50:47Z</time>
      </trkpt>
      <trkpt lat="10.2664885" lon="-85.5868795">
        <ele>75.9</ele>
        <time>2022-10-06T18:50:48Z</time>
      </trkpt>
      <trkpt lat="10.2664885" lon="-85.5868795">
        <ele>75.9</ele>
        <time>2022-10-06T18:50:49Z</time>
      </trkpt>
      <trkpt lat="10.2664885" lon="-85.5868795">
        <ele>75.9</ele>
        <time>2022-10-06T18:50:50Z</time>
      </trkpt>
      <trkpt lat="10.2664885" lon="-85.5868795">
        <ele>75.9</ele>
        <time>2022-10-06T18:50:51Z</time>
      </trkpt>
      <trkpt lat="10.2664885" lon="-85.5868795">
        <ele>75.9</ele>
        <time>2022-10-06T18:50:52Z</time>
      </trkpt>
      <trkpt lat="10.2664885" lon="-85.5868795">
        <ele>75.9</ele>
        <time>2022-10-06T18:50:53Z</time>
      </trkpt>
      <trkpt lat="10.2664885" lon="-85.5868795">
        <ele>76.0</ele>
        <time>2022-10-06T18:50:54Z</time>
      </trkpt>
      <trkpt lat="10.2664885" lon="-85.5868795">
        <ele>76.0</ele>
        <time>2022-10-06T18:50:55Z</time>
      </trkpt>
      <trkpt lat="10.2664885" lon="-85.5868795">
        <ele>76.0</ele>
        <time>2022-10-06T18:50:56Z</time>
      </trkpt>
      <trkpt lat="10.2664885" lon="-85.5868795">
        <ele>76.0</ele>
        <time>2022-10-06T18:50:57Z</time>
      </trkpt>
      <trkpt lat="10.2664885" lon="-85.5868795">
        <ele>76.0</ele>
        <time>2022-10-06T18:50:58Z</time>
      </trkpt>
      <trkpt lat="10.2664885" lon="-85.5868795">
        <ele>76.0</ele>
        <time>2022-10-06T18:50:59Z</time>
      </trkpt>
      <trkpt lat="10.2664885" lon="-85.5868795">
        <ele>76.0</ele>
        <time>2022-10-06T18:51:00Z</time>
      </trkpt>
      <trkpt lat="10.2664885" lon="-85.5868795">
        <ele>76.1</ele>
        <time>2022-10-06T18:51:01Z</time>
      </trkpt>
      <trkpt lat="10.2664885" lon="-85.5868795">
        <ele>76.1</ele>
        <time>2022-10-06T18:51:02Z</time>
      </trkpt>
      <trkpt lat="10.2664885" lon="-85.5868795">
        <ele>76.1</ele>
        <time>2022-10-06T18:51:03Z</time>
      </trkpt>
      <trkpt lat="10.2664885" lon="-85.5868795">
        <ele>76.1</ele>
        <time>2022-10-06T18:51:04Z</time>
      </trkpt>
      <trkpt lat="10.2664885" lon="-85.5868795">
        <ele>76.1</ele>
        <time>2022-10-06T18:51:05Z</time>
      </trkpt>
      <trkpt lat="10.2664885" lon="-85.5868795">
        <ele>76.1</ele>
        <time>2022-10-06T18:51:06Z</time>
      </trkpt>
      <trkpt lat="10.2664885" lon="-85.5868795">
        <ele>76.2</ele>
        <time>2022-10-06T18:51:07Z</time>
      </trkpt>
      <trkpt lat="10.2664885" lon="-85.5868795">
        <ele>76.2</ele>
        <time>2022-10-06T18:51:08Z</time>
      </trkpt>
      <trkpt lat="10.2664885" lon="-85.5868795">
        <ele>76.2</ele>
        <time>2022-10-06T18:51:09Z</time>
      </trkpt>
      <trkpt lat="10.2664885" lon="-85.5868795">
        <ele>76.2</ele>
        <time>2022-10-06T18:51:10Z</time>
      </trkpt>
      <trkpt lat="10.2664885" lon="-85.5868795">
        <ele>76.2</ele>
        <time>2022-10-06T18:51:11Z</time>
      </trkpt>
      <trkpt lat="10.2664885" lon="-85.5868795">
        <ele>76.3</ele>
        <time>2022-10-06T18:51:12Z</time>
      </trkpt>
      <trkpt lat="10.2664885" lon="-85.5868795">
        <ele>76.4</ele>
        <time>2022-10-06T18:51:13Z</time>
      </trkpt>
      <trkpt lat="10.2664885" lon="-85.5868795">
        <ele>76.4</ele>
        <time>2022-10-06T18:51:14Z</time>
      </trkpt>
      <trkpt lat="10.2664885" lon="-85.5868795">
        <ele>76.4</ele>
        <time>2022-10-06T18:51:15Z</time>
      </trkpt>
      <trkpt lat="10.2664885" lon="-85.5868795">
        <ele>76.4</ele>
        <time>2022-10-06T18:51:16Z</time>
      </trkpt>
      <trkpt lat="10.2664885" lon="-85.5868795">
        <ele>76.4</ele>
        <time>2022-10-06T18:51:17Z</time>
      </trkpt>
      <trkpt lat="10.2664885" lon="-85.5868795">
        <ele>76.5</ele>
        <time>2022-10-06T18:51:18Z</time>
      </trkpt>
      <trkpt lat="10.2664885" lon="-85.5868795">
        <ele>76.4</ele>
        <time>2022-10-06T18:51:19Z</time>
      </trkpt>
      <trkpt lat="10.2664885" lon="-85.5868795">
        <ele>76.5</ele>
        <time>2022-10-06T18:51:20Z</time>
      </trkpt>
      <trkpt lat="10.2664885" lon="-85.5868795">
        <ele>76.5</ele>
        <time>2022-10-06T18:51:21Z</time>
      </trkpt>
      <trkpt lat="10.2664885" lon="-85.5868795">
        <ele>76.5</ele>
        <time>2022-10-06T18:51:22Z</time>
      </trkpt>
      <trkpt lat="10.2664885" lon="-85.5868795">
        <ele>76.5</ele>
        <time>2022-10-06T18:51:23Z</time>
      </trkpt>
      <trkpt lat="10.2664885" lon="-85.5868795">
        <ele>76.5</ele>
        <time>2022-10-06T18:51:24Z</time>
      </trkpt>
      <trkpt lat="10.2664885" lon="-85.5868795">
        <ele>76.5</ele>
        <time>2022-10-06T18:51:25Z</time>
      </trkpt>
      <trkpt lat="10.2664885" lon="-85.5868795">
        <ele>76.5</ele>
        <time>2022-10-06T18:51:26Z</time>
      </trkpt>
      <trkpt lat="10.2664885" lon="-85.5868795">
        <ele>76.6</ele>
        <time>2022-10-06T18:51:27Z</time>
      </trkpt>
      <trkpt lat="10.2664885" lon="-85.5868795">
        <ele>76.6</ele>
        <time>2022-10-06T18:51:28Z</time>
      </trkpt>
      <trkpt lat="10.2664885" lon="-85.5868795">
        <ele>76.6</ele>
        <time>2022-10-06T18:51:29Z</time>
      </trkpt>
      <trkpt lat="10.2664885" lon="-85.5868795">
        <ele>76.6</ele>
        <time>2022-10-06T18:51:30Z</time>
      </trkpt>
      <trkpt lat="10.2664885" lon="-85.5868795">
        <ele>76.6</ele>
        <time>2022-10-06T18:51:31Z</time>
      </trkpt>
      <trkpt lat="10.2664885" lon="-85.5868795">
        <ele>76.5</ele>
        <time>2022-10-06T18:51:32Z</time>
      </trkpt>
      <trkpt lat="10.2664885" lon="-85.5868795">
        <ele>76.5</ele>
        <time>2022-10-06T18:51:33Z</time>
      </trkpt>
      <trkpt lat="10.2664885" lon="-85.5868795">
        <ele>76.5</ele>
        <time>2022-10-06T18:51:34Z</time>
      </trkpt>
      <trkpt lat="10.2664885" lon="-85.5868795">
        <ele>76.5</ele>
        <time>2022-10-06T18:51:35Z</time>
      </trkpt>
      <trkpt lat="10.2664885" lon="-85.5868795">
        <ele>76.5</ele>
        <time>2022-10-06T18:51:36Z</time>
      </trkpt>
      <trkpt lat="10.2664885" lon="-85.5868795">
        <ele>76.5</ele>
        <time>2022-10-06T18:51:37Z</time>
      </trkpt>
      <trkpt lat="10.2664885" lon="-85.5868795">
        <ele>76.4</ele>
        <time>2022-10-06T18:51:38Z</time>
      </trkpt>
      <trkpt lat="10.2664885" lon="-85.5868795">
        <ele>76.4</ele>
        <time>2022-10-06T18:51:39Z</time>
      </trkpt>
      <trkpt lat="10.2664885" lon="-85.5868795">
        <ele>76.5</ele>
        <time>2022-10-06T18:51:40Z</time>
      </trkpt>
      <trkpt lat="10.2664885" lon="-85.5868795">
        <ele>76.5</ele>
        <time>2022-10-06T18:51:41Z</time>
      </trkpt>
      <trkpt lat="10.2664885" lon="-85.5868795">
        <ele>76.4</ele>
        <time>2022-10-06T18:51:42Z</time>
      </trkpt>
      <trkpt lat="10.2664885" lon="-85.5868795">
        <ele>76.5</ele>
        <time>2022-10-06T18:51:43Z</time>
      </trkpt>
      <trkpt lat="10.2664885" lon="-85.5868795">
        <ele>76.4</ele>
        <time>2022-10-06T18:51:44Z</time>
      </trkpt>
      <trkpt lat="10.2664885" lon="-85.5868795">
        <ele>76.4</ele>
        <time>2022-10-06T18:51:45Z</time>
      </trkpt>
      <trkpt lat="10.2664885" lon="-85.5868795">
        <ele>76.4</ele>
        <time>2022-10-06T18:51:46Z</time>
      </trkpt>
      <trkpt lat="10.2664885" lon="-85.5868795">
        <ele>76.4</ele>
        <time>2022-10-06T18:51:47Z</time>
      </trkpt>
      <trkpt lat="10.2664885" lon="-85.5868795">
        <ele>76.4</ele>
        <time>2022-10-06T18:51:48Z</time>
      </trkpt>
      <trkpt lat="10.2664885" lon="-85.5868795">
        <ele>76.4</ele>
        <time>2022-10-06T18:51:49Z</time>
      </trkpt>
      <trkpt lat="10.2664885" lon="-85.5868795">
        <ele>76.4</ele>
        <time>2022-10-06T18:51:50Z</time>
      </trkpt>
      <trkpt lat="10.2664885" lon="-85.5868795">
        <ele>76.4</ele>
        <time>2022-10-06T18:51:51Z</time>
      </trkpt>
      <trkpt lat="10.2664885" lon="-85.5868795">
        <ele>76.4</ele>
        <time>2022-10-06T18:51:52Z</time>
      </trkpt>
      <trkpt lat="10.2664885" lon="-85.5868795">
        <ele>76.5</ele>
        <time>2022-10-06T18:51:53Z</time>
      </trkpt>
      <trkpt lat="10.2664885" lon="-85.5868795">
        <ele>76.5</ele>
        <time>2022-10-06T18:51:54Z</time>
      </trkpt>
      <trkpt lat="10.2664885" lon="-85.5868795">
        <ele>76.5</ele>
        <time>2022-10-06T18:51:55Z</time>
      </trkpt>
      <trkpt lat="10.2664885" lon="-85.5868795">
        <ele>76.5</ele>
        <time>2022-10-06T18:51:56Z</time>
      </trkpt>
      <trkpt lat="10.2664885" lon="-85.5868795">
        <ele>76.5</ele>
        <time>2022-10-06T18:51:57Z</time>
      </trkpt>
      <trkpt lat="10.2664885" lon="-85.5868795">
        <ele>76.5</ele>
        <time>2022-10-06T18:51:58Z</time>
      </trkpt>
      <trkpt lat="10.2664885" lon="-85.5868795">
        <ele>76.5</ele>
        <time>2022-10-06T18:51:59Z</time>
      </trkpt>
      <trkpt lat="10.2664885" lon="-85.5868795">
        <ele>76.5</ele>
        <time>2022-10-06T18:52:00Z</time>
      </trkpt>
      <trkpt lat="10.2664885" lon="-85.5868795">
        <ele>76.5</ele>
        <time>2022-10-06T18:52:01Z</time>
      </trkpt>
      <trkpt lat="10.2664885" lon="-85.5868795">
        <ele>76.5</ele>
        <time>2022-10-06T18:52:02Z</time>
      </trkpt>
      <trkpt lat="10.2664885" lon="-85.5868795">
        <ele>76.5</ele>
        <time>2022-10-06T18:52:03Z</time>
      </trkpt>
      <trkpt lat="10.2664885" lon="-85.5868795">
        <ele>76.5</ele>
        <time>2022-10-06T18:52:04Z</time>
      </trkpt>
      <trkpt lat="10.2664885" lon="-85.5868795">
        <ele>76.5</ele>
        <time>2022-10-06T18:52:05Z</time>
      </trkpt>
      <trkpt lat="10.2664885" lon="-85.5868795">
        <ele>76.5</ele>
        <time>2022-10-06T18:52:06Z</time>
      </trkpt>
      <trkpt lat="10.2664885" lon="-85.5868795">
        <ele>76.5</ele>
        <time>2022-10-06T18:52:07Z</time>
      </trkpt>
      <trkpt lat="10.2664885" lon="-85.5868795">
        <ele>76.6</ele>
        <time>2022-10-06T18:52:08Z</time>
      </trkpt>
      <trkpt lat="10.2664885" lon="-85.5868795">
        <ele>76.6</ele>
        <time>2022-10-06T18:52:09Z</time>
      </trkpt>
      <trkpt lat="10.2664885" lon="-85.5868795">
        <ele>76.6</ele>
        <time>2022-10-06T18:52:10Z</time>
      </trkpt>
      <trkpt lat="10.2664885" lon="-85.5868795">
        <ele>76.6</ele>
        <time>2022-10-06T18:52:11Z</time>
      </trkpt>
      <trkpt lat="10.2664885" lon="-85.5868795">
        <ele>76.6</ele>
        <time>2022-10-06T18:52:12Z</time>
      </trkpt>
      <trkpt lat="10.2664885" lon="-85.5868795">
        <ele>76.6</ele>
        <time>2022-10-06T18:52:13Z</time>
      </trkpt>
      <trkpt lat="10.2664885" lon="-85.5868795">
        <ele>76.6</ele>
        <time>2022-10-06T18:52:14Z</time>
      </trkpt>
      <trkpt lat="10.2664885" lon="-85.5868795">
        <ele>76.5</ele>
        <time>2022-10-06T18:52:15Z</time>
      </trkpt>
      <trkpt lat="10.2664885" lon="-85.5868795">
        <ele>76.6</ele>
        <time>2022-10-06T18:52:16Z</time>
      </trkpt>
      <trkpt lat="10.2664885" lon="-85.5868795">
        <ele>76.5</ele>
        <time>2022-10-06T18:52:17Z</time>
      </trkpt>
      <trkpt lat="10.2664885" lon="-85.5868795">
        <ele>76.6</ele>
        <time>2022-10-06T18:52:18Z</time>
      </trkpt>
      <trkpt lat="10.2664885" lon="-85.5868795">
        <ele>76.6</ele>
        <time>2022-10-06T18:52:19Z</time>
      </trkpt>
      <trkpt lat="10.2664885" lon="-85.5868795">
        <ele>76.6</ele>
        <time>2022-10-06T18:52:20Z</time>
      </trkpt>
      <trkpt lat="10.2664885" lon="-85.5868795">
        <ele>76.5</ele>
        <time>2022-10-06T18:52:21Z</time>
      </trkpt>
      <trkpt lat="10.2664885" lon="-85.5868795">
        <ele>76.6</ele>
        <time>2022-10-06T18:52:22Z</time>
      </trkpt>
      <trkpt lat="10.2664885" lon="-85.5868795">
        <ele>76.6</ele>
        <time>2022-10-06T18:52:23Z</time>
      </trkpt>
      <trkpt lat="10.2664885" lon="-85.5868795">
        <ele>76.6</ele>
        <time>2022-10-06T18:52:24Z</time>
      </trkpt>
      <trkpt lat="10.2664885" lon="-85.5868795">
        <ele>76.6</ele>
        <time>2022-10-06T18:52:25Z</time>
      </trkpt>
      <trkpt lat="10.2664885" lon="-85.5868795">
        <ele>76.6</ele>
        <time>2022-10-06T18:52:26Z</time>
      </trkpt>
      <trkpt lat="10.2664885" lon="-85.5868795">
        <ele>76.6</ele>
        <time>2022-10-06T18:52:27Z</time>
      </trkpt>
      <trkpt lat="10.2664885" lon="-85.5868795">
        <ele>76.5</ele>
        <time>2022-10-06T18:52:28Z</time>
      </trkpt>
      <trkpt lat="10.2664885" lon="-85.5868795">
        <ele>76.6</ele>
        <time>2022-10-06T18:52:29Z</time>
      </trkpt>
      <trkpt lat="10.2664885" lon="-85.5868795">
        <ele>76.6</ele>
        <time>2022-10-06T18:52:30Z</time>
      </trkpt>
      <trkpt lat="10.2664885" lon="-85.5868795">
        <ele>76.6</ele>
        <time>2022-10-06T18:52:31Z</time>
      </trkpt>
      <trkpt lat="10.2664885" lon="-85.5868795">
        <ele>76.6</ele>
        <time>2022-10-06T18:52:32Z</time>
      </trkpt>
      <trkpt lat="10.2664885" lon="-85.5868795">
        <ele>76.6</ele>
        <time>2022-10-06T18:52:33Z</time>
      </trkpt>
      <trkpt lat="10.2664885" lon="-85.5868795">
        <ele>76.6</ele>
        <time>2022-10-06T18:52:34Z</time>
      </trkpt>
      <trkpt lat="10.2664885" lon="-85.5868795">
        <ele>76.6</ele>
        <time>2022-10-06T18:52:35Z</time>
      </trkpt>
      <trkpt lat="10.2664885" lon="-85.5868795">
        <ele>76.6</ele>
        <time>2022-10-06T18:52:36Z</time>
      </trkpt>
      <trkpt lat="10.2664885" lon="-85.5868795">
        <ele>76.6</ele>
        <time>2022-10-06T18:52:37Z</time>
      </trkpt>
      <trkpt lat="10.2664885" lon="-85.5868795">
        <ele>76.6</ele>
        <time>2022-10-06T18:52:38Z</time>
      </trkpt>
      <trkpt lat="10.2664885" lon="-85.5868795">
        <ele>76.6</ele>
        <time>2022-10-06T18:52:39Z</time>
      </trkpt>
      <trkpt lat="10.2664885" lon="-85.5868795">
        <ele>76.6</ele>
        <time>2022-10-06T18:52:40Z</time>
      </trkpt>
      <trkpt lat="10.2664885" lon="-85.5868795">
        <ele>76.6</ele>
        <time>2022-10-06T18:52:41Z</time>
      </trkpt>
      <trkpt lat="10.2664885" lon="-85.5868795">
        <ele>76.6</ele>
        <time>2022-10-06T18:52:42Z</time>
      </trkpt>
      <trkpt lat="10.2664885" lon="-85.5868795">
        <ele>76.6</ele>
        <time>2022-10-06T18:52:43Z</time>
      </trkpt>
      <trkpt lat="10.2664885" lon="-85.5868795">
        <ele>76.7</ele>
        <time>2022-10-06T18:52:44Z</time>
      </trkpt>
      <trkpt lat="10.2664885" lon="-85.5868795">
        <ele>76.7</ele>
        <time>2022-10-06T18:52:45Z</time>
      </trkpt>
      <trkpt lat="10.2664885" lon="-85.5868795">
        <ele>76.7</ele>
        <time>2022-10-06T18:52:46Z</time>
      </trkpt>
      <trkpt lat="10.2664885" lon="-85.5868795">
        <ele>76.7</ele>
        <time>2022-10-06T18:52:47Z</time>
      </trkpt>
      <trkpt lat="10.2664885" lon="-85.5868795">
        <ele>76.8</ele>
        <time>2022-10-06T18:52:48Z</time>
      </trkpt>
      <trkpt lat="10.2664885" lon="-85.5868795">
        <ele>76.8</ele>
        <time>2022-10-06T18:52:49Z</time>
      </trkpt>
      <trkpt lat="10.2664885" lon="-85.5868795">
        <ele>76.8</ele>
        <time>2022-10-06T18:52:50Z</time>
      </trkpt>
      <trkpt lat="10.2664885" lon="-85.5868795">
        <ele>76.9</ele>
        <time>2022-10-06T18:52:51Z</time>
      </trkpt>
      <trkpt lat="10.2664885" lon="-85.5868795">
        <ele>76.9</ele>
        <time>2022-10-06T18:52:52Z</time>
      </trkpt>
      <trkpt lat="10.2664885" lon="-85.5868795">
        <ele>76.9</ele>
        <time>2022-10-06T18:52:53Z</time>
      </trkpt>
      <trkpt lat="10.2664885" lon="-85.5868795">
        <ele>76.8</ele>
        <time>2022-10-06T18:52:54Z</time>
      </trkpt>
      <trkpt lat="10.2664885" lon="-85.5868795">
        <ele>76.8</ele>
        <time>2022-10-06T18:52:55Z</time>
      </trkpt>
      <trkpt lat="10.2664885" lon="-85.5868795">
        <ele>76.9</ele>
        <time>2022-10-06T18:52:56Z</time>
      </trkpt>
      <trkpt lat="10.2664885" lon="-85.5868795">
        <ele>76.8</ele>
        <time>2022-10-06T18:52:57Z</time>
      </trkpt>
      <trkpt lat="10.2664885" lon="-85.5868795">
        <ele>76.9</ele>
        <time>2022-10-06T18:52:58Z</time>
      </trkpt>
      <trkpt lat="10.2664885" lon="-85.5868795">
        <ele>76.9</ele>
        <time>2022-10-06T18:52:59Z</time>
      </trkpt>
      <trkpt lat="10.2664885" lon="-85.5868795">
        <ele>76.9</ele>
        <time>2022-10-06T18:53:00Z</time>
      </trkpt>
      <trkpt lat="10.2664885" lon="-85.5868795">
        <ele>76.9</ele>
        <time>2022-10-06T18:53:01Z</time>
      </trkpt>
      <trkpt lat="10.2664885" lon="-85.5868795">
        <ele>76.9</ele>
        <time>2022-10-06T18:53:02Z</time>
      </trkpt>
      <trkpt lat="10.2664885" lon="-85.5868795">
        <ele>77.0</ele>
        <time>2022-10-06T18:53:03Z</time>
      </trkpt>
      <trkpt lat="10.2664885" lon="-85.5868795">
        <ele>77.0</ele>
        <time>2022-10-06T18:53:04Z</time>
      </trkpt>
      <trkpt lat="10.2664885" lon="-85.5868795">
        <ele>77.0</ele>
        <time>2022-10-06T18:53:05Z</time>
      </trkpt>
      <trkpt lat="10.2664885" lon="-85.5868795">
        <ele>77.0</ele>
        <time>2022-10-06T18:53:06Z</time>
      </trkpt>
      <trkpt lat="10.2664885" lon="-85.5868795">
        <ele>77.0</ele>
        <time>2022-10-06T18:53:07Z</time>
      </trkpt>
      <trkpt lat="10.2664885" lon="-85.5868795">
        <ele>77.0</ele>
        <time>2022-10-06T18:53:08Z</time>
      </trkpt>
      <trkpt lat="10.2664885" lon="-85.5868795">
        <ele>77.1</ele>
        <time>2022-10-06T18:53:09Z</time>
      </trkpt>
      <trkpt lat="10.2664885" lon="-85.5868795">
        <ele>77.1</ele>
        <time>2022-10-06T18:53:10Z</time>
      </trkpt>
      <trkpt lat="10.2664885" lon="-85.5868795">
        <ele>77.1</ele>
        <time>2022-10-06T18:53:11Z</time>
      </trkpt>
      <trkpt lat="10.2664885" lon="-85.5868795">
        <ele>77.1</ele>
        <time>2022-10-06T18:53:12Z</time>
      </trkpt>
      <trkpt lat="10.2664885" lon="-85.5868795">
        <ele>77.1</ele>
        <time>2022-10-06T18:53:13Z</time>
      </trkpt>
      <trkpt lat="10.2664885" lon="-85.5868795">
        <ele>77.2</ele>
        <time>2022-10-06T18:53:14Z</time>
      </trkpt>
      <trkpt lat="10.2664885" lon="-85.5868795">
        <ele>77.2</ele>
        <time>2022-10-06T18:53:15Z</time>
      </trkpt>
      <trkpt lat="10.2664885" lon="-85.5868795">
        <ele>77.3</ele>
        <time>2022-10-06T18:53:16Z</time>
      </trkpt>
      <trkpt lat="10.2664885" lon="-85.5868795">
        <ele>77.3</ele>
        <time>2022-10-06T18:53:17Z</time>
      </trkpt>
      <trkpt lat="10.2664885" lon="-85.5868795">
        <ele>77.2</ele>
        <time>2022-10-06T18:53:18Z</time>
      </trkpt>
      <trkpt lat="10.2664885" lon="-85.5868795">
        <ele>77.3</ele>
        <time>2022-10-06T18:53:19Z</time>
      </trkpt>
      <trkpt lat="10.2664885" lon="-85.5868795">
        <ele>77.4</ele>
        <time>2022-10-06T18:53:20Z</time>
      </trkpt>
      <trkpt lat="10.2664885" lon="-85.5868795">
        <ele>77.4</ele>
        <time>2022-10-06T18:53:21Z</time>
      </trkpt>
      <trkpt lat="10.2664885" lon="-85.5868795">
        <ele>77.4</ele>
        <time>2022-10-06T18:53:22Z</time>
      </trkpt>
      <trkpt lat="10.2664885" lon="-85.5868795">
        <ele>77.5</ele>
        <time>2022-10-06T18:53:23Z</time>
      </trkpt>
      <trkpt lat="10.2664885" lon="-85.5868795">
        <ele>77.5</ele>
        <time>2022-10-06T18:53:24Z</time>
      </trkpt>
      <trkpt lat="10.2664885" lon="-85.5868795">
        <ele>77.5</ele>
        <time>2022-10-06T18:53:25Z</time>
      </trkpt>
      <trkpt lat="10.2664885" lon="-85.5868795">
        <ele>77.5</ele>
        <time>2022-10-06T18:53:26Z</time>
      </trkpt>
      <trkpt lat="10.2664885" lon="-85.5868795">
        <ele>77.4</ele>
        <time>2022-10-06T18:53:27Z</time>
      </trkpt>
      <trkpt lat="10.2664885" lon="-85.5868795">
        <ele>77.4</ele>
        <time>2022-10-06T18:53:28Z</time>
      </trkpt>
      <trkpt lat="10.2664885" lon="-85.5868795">
        <ele>77.4</ele>
        <time>2022-10-06T18:53:29Z</time>
      </trkpt>
      <trkpt lat="10.2664885" lon="-85.5868795">
        <ele>77.3</ele>
        <time>2022-10-06T18:53:30Z</time>
      </trkpt>
      <trkpt lat="10.2664885" lon="-85.5868795">
        <ele>77.2</ele>
        <time>2022-10-06T18:53:31Z</time>
      </trkpt>
      <trkpt lat="10.2664885" lon="-85.5868795">
        <ele>77.2</ele>
        <time>2022-10-06T18:53:32Z</time>
      </trkpt>
      <trkpt lat="10.2664885" lon="-85.5868795">
        <ele>77.2</ele>
        <time>2022-10-06T18:53:33Z</time>
      </trkpt>
      <trkpt lat="10.2664885" lon="-85.5868795">
        <ele>77.2</ele>
        <time>2022-10-06T18:53:34Z</time>
      </trkpt>
      <trkpt lat="10.2664885" lon="-85.5868795">
        <ele>77.1</ele>
        <time>2022-10-06T18:53:35Z</time>
      </trkpt>
      <trkpt lat="10.2664885" lon="-85.5868795">
        <ele>77.1</ele>
        <time>2022-10-06T18:53:36Z</time>
      </trkpt>
      <trkpt lat="10.2664885" lon="-85.5868795">
        <ele>77.1</ele>
        <time>2022-10-06T18:53:37Z</time>
      </trkpt>
      <trkpt lat="10.2664885" lon="-85.5868795">
        <ele>77.1</ele>
        <time>2022-10-06T18:53:38Z</time>
      </trkpt>
      <trkpt lat="10.2664885" lon="-85.5868795">
        <ele>77.0</ele>
        <time>2022-10-06T18:53:39Z</time>
      </trkpt>
      <trkpt lat="10.2664885" lon="-85.5868795">
        <ele>77.0</ele>
        <time>2022-10-06T18:53:40Z</time>
      </trkpt>
      <trkpt lat="10.2664885" lon="-85.5868795">
        <ele>76.9</ele>
        <time>2022-10-06T18:53:41Z</time>
      </trkpt>
      <trkpt lat="10.2664885" lon="-85.5868795">
        <ele>76.9</ele>
        <time>2022-10-06T18:53:42Z</time>
      </trkpt>
      <trkpt lat="10.2664885" lon="-85.5868795">
        <ele>76.9</ele>
        <time>2022-10-06T18:53:43Z</time>
      </trkpt>
      <trkpt lat="10.2664885" lon="-85.5868795">
        <ele>76.8</ele>
        <time>2022-10-06T18:53:44Z</time>
      </trkpt>
      <trkpt lat="10.2664885" lon="-85.5868795">
        <ele>76.8</ele>
        <time>2022-10-06T18:53:45Z</time>
      </trkpt>
      <trkpt lat="10.2664885" lon="-85.5868795">
        <ele>76.8</ele>
        <time>2022-10-06T18:53:46Z</time>
      </trkpt>
      <trkpt lat="10.2664885" lon="-85.5868795">
        <ele>76.8</ele>
        <time>2022-10-06T18:53:47Z</time>
      </trkpt>
      <trkpt lat="10.2664885" lon="-85.5868795">
        <ele>76.7</ele>
        <time>2022-10-06T18:53:48Z</time>
      </trkpt>
      <trkpt lat="10.2664885" lon="-85.5868795">
        <ele>76.8</ele>
        <time>2022-10-06T18:53:49Z</time>
      </trkpt>
      <trkpt lat="10.2664885" lon="-85.5868795">
        <ele>76.8</ele>
        <time>2022-10-06T18:53:50Z</time>
      </trkpt>
      <trkpt lat="10.2664885" lon="-85.5868795">
        <ele>76.7</ele>
        <time>2022-10-06T18:53:51Z</time>
      </trkpt>
      <trkpt lat="10.2664885" lon="-85.5868795">
        <ele>76.7</ele>
        <time>2022-10-06T18:53:52Z</time>
      </trkpt>
      <trkpt lat="10.2664885" lon="-85.5868795">
        <ele>76.7</ele>
        <time>2022-10-06T18:53:53Z</time>
      </trkpt>
      <trkpt lat="10.2664885" lon="-85.5868795">
        <ele>76.7</ele>
        <time>2022-10-06T18:53:54Z</time>
      </trkpt>
      <trkpt lat="10.2664885" lon="-85.5868795">
        <ele>76.8</ele>
        <time>2022-10-06T18:53:55Z</time>
      </trkpt>
      <trkpt lat="10.2664885" lon="-85.5868795">
        <ele>76.8</ele>
        <time>2022-10-06T18:53:56Z</time>
      </trkpt>
      <trkpt lat="10.2664885" lon="-85.5868795">
        <ele>76.8</ele>
        <time>2022-10-06T18:53:57Z</time>
      </trkpt>
      <trkpt lat="10.2664885" lon="-85.5868795">
        <ele>76.8</ele>
        <time>2022-10-06T18:53:58Z</time>
      </trkpt>
      <trkpt lat="10.2664885" lon="-85.5868795">
        <ele>76.8</ele>
        <time>2022-10-06T18:53:59Z</time>
      </trkpt>
      <trkpt lat="10.2664885" lon="-85.5868795">
        <ele>76.8</ele>
        <time>2022-10-06T18:54:00Z</time>
      </trkpt>
      <trkpt lat="10.2664885" lon="-85.5868795">
        <ele>76.8</ele>
        <time>2022-10-06T18:54:01Z</time>
      </trkpt>
      <trkpt lat="10.2664885" lon="-85.5868795">
        <ele>76.9</ele>
        <time>2022-10-06T18:54:02Z</time>
      </trkpt>
      <trkpt lat="10.2664885" lon="-85.5868795">
        <ele>76.8</ele>
        <time>2022-10-06T18:54:03Z</time>
      </trkpt>
      <trkpt lat="10.2664885" lon="-85.5868795">
        <ele>76.7</ele>
        <time>2022-10-06T18:54:04Z</time>
      </trkpt>
      <trkpt lat="10.2664885" lon="-85.5868795">
        <ele>76.7</ele>
        <time>2022-10-06T18:54:05Z</time>
      </trkpt>
      <trkpt lat="10.2664885" lon="-85.5868795">
        <ele>76.6</ele>
        <time>2022-10-06T18:54:06Z</time>
      </trkpt>
      <trkpt lat="10.2664885" lon="-85.5868795">
        <ele>76.6</ele>
        <time>2022-10-06T18:54:07Z</time>
      </trkpt>
      <trkpt lat="10.2664885" lon="-85.5868795">
        <ele>76.6</ele>
        <time>2022-10-06T18:54:08Z</time>
      </trkpt>
      <trkpt lat="10.2664885" lon="-85.5868795">
        <ele>76.6</ele>
        <time>2022-10-06T18:54:09Z</time>
      </trkpt>
      <trkpt lat="10.2664885" lon="-85.5868795">
        <ele>76.5</ele>
        <time>2022-10-06T18:54:10Z</time>
      </trkpt>
      <trkpt lat="10.2664885" lon="-85.5868795">
        <ele>76.5</ele>
        <time>2022-10-06T18:54:11Z</time>
      </trkpt>
      <trkpt lat="10.2664885" lon="-85.5868795">
        <ele>76.6</ele>
        <time>2022-10-06T18:54:12Z</time>
      </trkpt>
      <trkpt lat="10.2664885" lon="-85.5868795">
        <ele>76.5</ele>
        <time>2022-10-06T18:54:13Z</time>
      </trkpt>
      <trkpt lat="10.2664885" lon="-85.5868795">
        <ele>76.7</ele>
        <time>2022-10-06T18:54:14Z</time>
      </trkpt>
      <trkpt lat="10.2664885" lon="-85.5868795">
        <ele>76.8</ele>
        <time>2022-10-06T18:54:15Z</time>
      </trkpt>
      <trkpt lat="10.2664885" lon="-85.5868795">
        <ele>76.9</ele>
        <time>2022-10-06T18:54:16Z</time>
      </trkpt>
      <trkpt lat="10.2664885" lon="-85.5868795">
        <ele>76.9</ele>
        <time>2022-10-06T18:54:17Z</time>
      </trkpt>
      <trkpt lat="10.2664885" lon="-85.5868795">
        <ele>77.0</ele>
        <time>2022-10-06T18:54:18Z</time>
      </trkpt>
      <trkpt lat="10.2664885" lon="-85.5868795">
        <ele>77.0</ele>
        <time>2022-10-06T18:54:19Z</time>
      </trkpt>
      <trkpt lat="10.2664885" lon="-85.5868795">
        <ele>77.1</ele>
        <time>2022-10-06T18:54:20Z</time>
      </trkpt>
      <trkpt lat="10.2664885" lon="-85.5868795">
        <ele>77.1</ele>
        <time>2022-10-06T18:54:21Z</time>
      </trkpt>
      <trkpt lat="10.2664885" lon="-85.5868795">
        <ele>77.1</ele>
        <time>2022-10-06T18:54:22Z</time>
      </trkpt>
      <trkpt lat="10.2664885" lon="-85.5868795">
        <ele>77.2</ele>
        <time>2022-10-06T18:54:23Z</time>
      </trkpt>
      <trkpt lat="10.2664885" lon="-85.5868795">
        <ele>77.2</ele>
        <time>2022-10-06T18:54:24Z</time>
      </trkpt>
      <trkpt lat="10.2664885" lon="-85.5868795">
        <ele>77.1</ele>
        <time>2022-10-06T18:54:25Z</time>
      </trkpt>
      <trkpt lat="10.2664885" lon="-85.5868795">
        <ele>77.1</ele>
        <time>2022-10-06T18:54:26Z</time>
      </trkpt>
      <trkpt lat="10.2664885" lon="-85.5868795">
        <ele>77.1</ele>
        <time>2022-10-06T18:54:27Z</time>
      </trkpt>
      <trkpt lat="10.2664885" lon="-85.5868795">
        <ele>77.1</ele>
        <time>2022-10-06T18:54:28Z</time>
      </trkpt>
      <trkpt lat="10.2664885" lon="-85.5868795">
        <ele>77.2</ele>
        <time>2022-10-06T18:54:29Z</time>
      </trkpt>
      <trkpt lat="10.2664885" lon="-85.5868795">
        <ele>77.2</ele>
        <time>2022-10-06T18:54:30Z</time>
      </trkpt>
      <trkpt lat="10.2664885" lon="-85.5868795">
        <ele>77.2</ele>
        <time>2022-10-06T18:54:31Z</time>
      </trkpt>
      <trkpt lat="10.2665323" lon="-85.5868657">
        <ele>77.2</ele>
        <time>2022-10-06T18:54:32Z</time>
      </trkpt>
      <trkpt lat="10.2665323" lon="-85.5868657">
        <ele>77.2</ele>
        <time>2022-10-06T18:54:33Z</time>
      </trkpt>
      <trkpt lat="10.2665323" lon="-85.5868657">
        <ele>77.3</ele>
        <time>2022-10-06T18:54:34Z</time>
      </trkpt>
      <trkpt lat="10.2665323" lon="-85.5868657">
        <ele>77.3</ele>
        <time>2022-10-06T18:54:35Z</time>
      </trkpt>
      <trkpt lat="10.2665323" lon="-85.5868657">
        <ele>77.2</ele>
        <time>2022-10-06T18:54:36Z</time>
      </trkpt>
      <trkpt lat="10.2665323" lon="-85.5868657">
        <ele>77.2</ele>
        <time>2022-10-06T18:54:37Z</time>
      </trkpt>
      <trkpt lat="10.2665323" lon="-85.5868657">
        <ele>77.1</ele>
        <time>2022-10-06T18:54:38Z</time>
      </trkpt>
      <trkpt lat="10.2665323" lon="-85.5868657">
        <ele>77.1</ele>
        <time>2022-10-06T18:54:39Z</time>
      </trkpt>
      <trkpt lat="10.2665323" lon="-85.5868657">
        <ele>77.1</ele>
        <time>2022-10-06T18:54:40Z</time>
      </trkpt>
      <trkpt lat="10.2665323" lon="-85.5868657">
        <ele>77.0</ele>
        <time>2022-10-06T18:54:41Z</time>
      </trkpt>
      <trkpt lat="10.2665323" lon="-85.5868657">
        <ele>77.1</ele>
        <time>2022-10-06T18:54:42Z</time>
      </trkpt>
      <trkpt lat="10.2665323" lon="-85.5868657">
        <ele>77.0</ele>
        <time>2022-10-06T18:54:43Z</time>
      </trkpt>
      <trkpt lat="10.2665323" lon="-85.5868657">
        <ele>77.0</ele>
        <time>2022-10-06T18:54:44Z</time>
      </trkpt>
      <trkpt lat="10.2665323" lon="-85.5868657">
        <ele>77.0</ele>
        <time>2022-10-06T18:54:45Z</time>
      </trkpt>
      <trkpt lat="10.2665323" lon="-85.5868657">
        <ele>76.9</ele>
        <time>2022-10-06T18:54:46Z</time>
      </trkpt>
      <trkpt lat="10.2665323" lon="-85.5868657">
        <ele>76.9</ele>
        <time>2022-10-06T18:54:47Z</time>
      </trkpt>
      <trkpt lat="10.2665323" lon="-85.5868657">
        <ele>76.9</ele>
        <time>2022-10-06T18:54:48Z</time>
      </trkpt>
      <trkpt lat="10.2665323" lon="-85.5868657">
        <ele>77.0</ele>
        <time>2022-10-06T18:54:49Z</time>
      </trkpt>
      <trkpt lat="10.2665323" lon="-85.5868657">
        <ele>77.0</ele>
        <time>2022-10-06T18:54:50Z</time>
      </trkpt>
      <trkpt lat="10.2665323" lon="-85.5868657">
        <ele>77.0</ele>
        <time>2022-10-06T18:54:51Z</time>
      </trkpt>
      <trkpt lat="10.2665323" lon="-85.5868657">
        <ele>77.1</ele>
        <time>2022-10-06T18:54:52Z</time>
      </trkpt>
      <trkpt lat="10.2665323" lon="-85.5868657">
        <ele>77.0</ele>
        <time>2022-10-06T18:54:53Z</time>
      </trkpt>
      <trkpt lat="10.2665323" lon="-85.5868657">
        <ele>77.0</ele>
        <time>2022-10-06T18:54:54Z</time>
      </trkpt>
      <trkpt lat="10.2665323" lon="-85.5868657">
        <ele>77.0</ele>
        <time>2022-10-06T18:54:55Z</time>
      </trkpt>
      <trkpt lat="10.2665323" lon="-85.5868657">
        <ele>77.0</ele>
        <time>2022-10-06T18:54:56Z</time>
      </trkpt>
      <trkpt lat="10.2665323" lon="-85.5868657">
        <ele>76.9</ele>
        <time>2022-10-06T18:54:57Z</time>
      </trkpt>
      <trkpt lat="10.2665323" lon="-85.5868657">
        <ele>76.9</ele>
        <time>2022-10-06T18:54:58Z</time>
      </trkpt>
      <trkpt lat="10.2665323" lon="-85.5868657">
        <ele>76.9</ele>
        <time>2022-10-06T18:54:59Z</time>
      </trkpt>
      <trkpt lat="10.2665323" lon="-85.5868657">
        <ele>76.8</ele>
        <time>2022-10-06T18:55:00Z</time>
      </trkpt>
      <trkpt lat="10.2665323" lon="-85.5868657">
        <ele>76.8</ele>
        <time>2022-10-06T18:55:01Z</time>
      </trkpt>
      <trkpt lat="10.2665323" lon="-85.5868657">
        <ele>76.8</ele>
        <time>2022-10-06T18:55:02Z</time>
      </trkpt>
      <trkpt lat="10.2665323" lon="-85.5868657">
        <ele>76.7</ele>
        <time>2022-10-06T18:55:03Z</time>
      </trkpt>
      <trkpt lat="10.2665323" lon="-85.5868657">
        <ele>76.7</ele>
        <time>2022-10-06T18:55:04Z</time>
      </trkpt>
      <trkpt lat="10.2665323" lon="-85.5868657">
        <ele>76.7</ele>
        <time>2022-10-06T18:55:05Z</time>
      </trkpt>
      <trkpt lat="10.2665323" lon="-85.5868657">
        <ele>76.7</ele>
        <time>2022-10-06T18:55:06Z</time>
      </trkpt>
      <trkpt lat="10.2665323" lon="-85.5868657">
        <ele>76.7</ele>
        <time>2022-10-06T18:55:07Z</time>
      </trkpt>
      <trkpt lat="10.2664918" lon="-85.5868864">
        <ele>76.7</ele>
        <time>2022-10-06T18:55:08Z</time>
      </trkpt>
      <trkpt lat="10.2664918" lon="-85.5868864">
        <ele>76.7</ele>
        <time>2022-10-06T18:55:09Z</time>
      </trkpt>
      <trkpt lat="10.2664918" lon="-85.5868864">
        <ele>76.6</ele>
        <time>2022-10-06T18:55:10Z</time>
      </trkpt>
      <trkpt lat="10.2664918" lon="-85.5868864">
        <ele>76.6</ele>
        <time>2022-10-06T18:55:11Z</time>
      </trkpt>
      <trkpt lat="10.2664918" lon="-85.5868864">
        <ele>76.7</ele>
        <time>2022-10-06T18:55:12Z</time>
      </trkpt>
      <trkpt lat="10.2664918" lon="-85.5868864">
        <ele>76.7</ele>
        <time>2022-10-06T18:55:13Z</time>
      </trkpt>
      <trkpt lat="10.2664918" lon="-85.5868864">
        <ele>76.6</ele>
        <time>2022-10-06T18:55:14Z</time>
      </trkpt>
      <trkpt lat="10.2664918" lon="-85.5868864">
        <ele>76.6</ele>
        <time>2022-10-06T18:55:15Z</time>
      </trkpt>
      <trkpt lat="10.2664918" lon="-85.5868864">
        <ele>76.6</ele>
        <time>2022-10-06T18:55:16Z</time>
      </trkpt>
      <trkpt lat="10.2664918" lon="-85.5868864">
        <ele>76.6</ele>
        <time>2022-10-06T18:55:17Z</time>
      </trkpt>
      <trkpt lat="10.2664918" lon="-85.5868864">
        <ele>76.6</ele>
        <time>2022-10-06T18:55:18Z</time>
      </trkpt>
      <trkpt lat="10.2664918" lon="-85.5868864">
        <ele>76.6</ele>
        <time>2022-10-06T18:55:19Z</time>
      </trkpt>
      <trkpt lat="10.2664918" lon="-85.5868864">
        <ele>76.5</ele>
        <time>2022-10-06T18:55:20Z</time>
      </trkpt>
      <trkpt lat="10.2664918" lon="-85.5868864">
        <ele>76.5</ele>
        <time>2022-10-06T18:55:21Z</time>
      </trkpt>
      <trkpt lat="10.2664918" lon="-85.5868864">
        <ele>76.5</ele>
        <time>2022-10-06T18:55:22Z</time>
      </trkpt>
      <trkpt lat="10.2664918" lon="-85.5868864">
        <ele>76.5</ele>
        <time>2022-10-06T18:55:23Z</time>
      </trkpt>
      <trkpt lat="10.2664918" lon="-85.5868864">
        <ele>76.4</ele>
        <time>2022-10-06T18:55:24Z</time>
      </trkpt>
      <trkpt lat="10.2664918" lon="-85.5868864">
        <ele>76.4</ele>
        <time>2022-10-06T18:55:25Z</time>
      </trkpt>
      <trkpt lat="10.2664918" lon="-85.5868864">
        <ele>76.4</ele>
        <time>2022-10-06T18:55:26Z</time>
      </trkpt>
      <trkpt lat="10.2664918" lon="-85.5868864">
        <ele>76.4</ele>
        <time>2022-10-06T18:55:27Z</time>
      </trkpt>
      <trkpt lat="10.2664918" lon="-85.5868864">
        <ele>76.4</ele>
        <time>2022-10-06T18:55:28Z</time>
      </trkpt>
      <trkpt lat="10.2664918" lon="-85.5868864">
        <ele>76.4</ele>
        <time>2022-10-06T18:55:29Z</time>
      </trkpt>
      <trkpt lat="10.2664918" lon="-85.5868864">
        <ele>76.4</ele>
        <time>2022-10-06T18:55:30Z</time>
      </trkpt>
      <trkpt lat="10.2664918" lon="-85.5868864">
        <ele>76.4</ele>
        <time>2022-10-06T18:55:31Z</time>
      </trkpt>
      <trkpt lat="10.2664918" lon="-85.5868864">
        <ele>76.4</ele>
        <time>2022-10-06T18:55:32Z</time>
      </trkpt>
      <trkpt lat="10.2664918" lon="-85.5868864">
        <ele>76.4</ele>
        <time>2022-10-06T18:55:33Z</time>
      </trkpt>
      <trkpt lat="10.2664918" lon="-85.5868864">
        <ele>76.4</ele>
        <time>2022-10-06T18:55:34Z</time>
      </trkpt>
      <trkpt lat="10.2664918" lon="-85.5868864">
        <ele>76.4</ele>
        <time>2022-10-06T18:55:35Z</time>
      </trkpt>
      <trkpt lat="10.2664918" lon="-85.5868864">
        <ele>76.3</ele>
        <time>2022-10-06T18:55:36Z</time>
      </trkpt>
      <trkpt lat="10.2664918" lon="-85.5868864">
        <ele>76.3</ele>
        <time>2022-10-06T18:55:37Z</time>
      </trkpt>
      <trkpt lat="10.2664918" lon="-85.5868864">
        <ele>76.3</ele>
        <time>2022-10-06T18:55:38Z</time>
      </trkpt>
      <trkpt lat="10.2664918" lon="-85.5868864">
        <ele>76.3</ele>
        <time>2022-10-06T18:55:39Z</time>
      </trkpt>
      <trkpt lat="10.2664918" lon="-85.5868864">
        <ele>76.2</ele>
        <time>2022-10-06T18:55:40Z</time>
      </trkpt>
      <trkpt lat="10.2664918" lon="-85.5868864">
        <ele>76.2</ele>
        <time>2022-10-06T18:55:41Z</time>
      </trkpt>
      <trkpt lat="10.2664918" lon="-85.5868864">
        <ele>76.2</ele>
        <time>2022-10-06T18:55:42Z</time>
      </trkpt>
      <trkpt lat="10.2664918" lon="-85.5868864">
        <ele>76.3</ele>
        <time>2022-10-06T18:55:43Z</time>
      </trkpt>
      <trkpt lat="10.2664918" lon="-85.5868864">
        <ele>76.2</ele>
        <time>2022-10-06T18:55:44Z</time>
      </trkpt>
      <trkpt lat="10.2664918" lon="-85.5868864">
        <ele>76.3</ele>
        <time>2022-10-06T18:55:45Z</time>
      </trkpt>
      <trkpt lat="10.2664918" lon="-85.5868864">
        <ele>76.2</ele>
        <time>2022-10-06T18:55:46Z</time>
      </trkpt>
      <trkpt lat="10.2664918" lon="-85.5868864">
        <ele>76.2</ele>
        <time>2022-10-06T18:55:47Z</time>
      </trkpt>
      <trkpt lat="10.2664918" lon="-85.5868864">
        <ele>76.2</ele>
        <time>2022-10-06T18:55:48Z</time>
      </trkpt>
      <trkpt lat="10.2664918" lon="-85.5868864">
        <ele>76.2</ele>
        <time>2022-10-06T18:55:49Z</time>
      </trkpt>
      <trkpt lat="10.2664918" lon="-85.5868864">
        <ele>76.3</ele>
        <time>2022-10-06T18:55:50Z</time>
      </trkpt>
      <trkpt lat="10.2664918" lon="-85.5868864">
        <ele>76.1</ele>
        <time>2022-10-06T18:55:51Z</time>
      </trkpt>
      <trkpt lat="10.2664799" lon="-85.5868814">
        <ele>76.1</ele>
        <time>2022-10-06T18:55:52Z</time>
      </trkpt>
      <trkpt lat="10.2664701" lon="-85.5868798">
        <ele>76.1</ele>
        <time>2022-10-06T18:55:53Z</time>
      </trkpt>
      <trkpt lat="10.2664658" lon="-85.5868778">
        <ele>75.8</ele>
        <time>2022-10-06T18:55:54Z</time>
      </trkpt>
      <trkpt lat="10.2664658" lon="-85.5868778">
        <ele>75.8</ele>
        <time>2022-10-06T18:55:55Z</time>
      </trkpt>
      <trkpt lat="10.2664658" lon="-85.5868778">
        <ele>75.9</ele>
        <time>2022-10-06T18:55:56Z</time>
      </trkpt>
      <trkpt lat="10.2664658" lon="-85.5868778">
        <ele>75.9</ele>
        <time>2022-10-06T18:55:57Z</time>
      </trkpt>
      <trkpt lat="10.2664658" lon="-85.5868778">
        <ele>75.9</ele>
        <time>2022-10-06T18:55:58Z</time>
      </trkpt>
      <trkpt lat="10.2664658" lon="-85.5868778">
        <ele>75.9</ele>
        <time>2022-10-06T18:55:59Z</time>
      </trkpt>
      <trkpt lat="10.2664658" lon="-85.5868778">
        <ele>75.9</ele>
        <time>2022-10-06T18:56:00Z</time>
      </trkpt>
      <trkpt lat="10.2664658" lon="-85.5868778">
        <ele>76.0</ele>
        <time>2022-10-06T18:56:01Z</time>
      </trkpt>
      <trkpt lat="10.2664658" lon="-85.5868778">
        <ele>76.1</ele>
        <time>2022-10-06T18:56:02Z</time>
      </trkpt>
      <trkpt lat="10.2664658" lon="-85.5868778">
        <ele>76.2</ele>
        <time>2022-10-06T18:56:03Z</time>
      </trkpt>
      <trkpt lat="10.2664658" lon="-85.5868778">
        <ele>76.3</ele>
        <time>2022-10-06T18:56:04Z</time>
      </trkpt>
      <trkpt lat="10.2664658" lon="-85.5868778">
        <ele>76.4</ele>
        <time>2022-10-06T18:56:05Z</time>
      </trkpt>
      <trkpt lat="10.2664658" lon="-85.5868778">
        <ele>76.4</ele>
        <time>2022-10-06T18:56:06Z</time>
      </trkpt>
      <trkpt lat="10.2664658" lon="-85.5868778">
        <ele>76.5</ele>
        <time>2022-10-06T18:56:07Z</time>
      </trkpt>
      <trkpt lat="10.2664658" lon="-85.5868778">
        <ele>76.6</ele>
        <time>2022-10-06T18:56:08Z</time>
      </trkpt>
      <trkpt lat="10.2664658" lon="-85.5868778">
        <ele>76.6</ele>
        <time>2022-10-06T18:56:09Z</time>
      </trkpt>
      <trkpt lat="10.2664658" lon="-85.5868778">
        <ele>76.7</ele>
        <time>2022-10-06T18:56:10Z</time>
      </trkpt>
      <trkpt lat="10.2664658" lon="-85.5868778">
        <ele>76.7</ele>
        <time>2022-10-06T18:56:11Z</time>
      </trkpt>
      <trkpt lat="10.2664658" lon="-85.5868778">
        <ele>76.8</ele>
        <time>2022-10-06T18:56:12Z</time>
      </trkpt>
      <trkpt lat="10.2664658" lon="-85.5868778">
        <ele>77.1</ele>
        <time>2022-10-06T18:56:13Z</time>
      </trkpt>
      <trkpt lat="10.2664658" lon="-85.5868778">
        <ele>77.1</ele>
        <time>2022-10-06T18:56:14Z</time>
      </trkpt>
      <trkpt lat="10.2664658" lon="-85.5868778">
        <ele>77.1</ele>
        <time>2022-10-06T18:56:15Z</time>
      </trkpt>
      <trkpt lat="10.2664658" lon="-85.5868778">
        <ele>77.2</ele>
        <time>2022-10-06T18:56:16Z</time>
      </trkpt>
      <trkpt lat="10.2664658" lon="-85.5868778">
        <ele>77.2</ele>
        <time>2022-10-06T18:56:17Z</time>
      </trkpt>
      <trkpt lat="10.2664658" lon="-85.5868778">
        <ele>77.3</ele>
        <time>2022-10-06T18:56:18Z</time>
      </trkpt>
      <trkpt lat="10.2664658" lon="-85.5868778">
        <ele>77.3</ele>
        <time>2022-10-06T18:56:19Z</time>
      </trkpt>
      <trkpt lat="10.2664658" lon="-85.5868778">
        <ele>77.4</ele>
        <time>2022-10-06T18:56:20Z</time>
      </trkpt>
      <trkpt lat="10.2664658" lon="-85.5868778">
        <ele>77.3</ele>
        <time>2022-10-06T18:56:21Z</time>
      </trkpt>
      <trkpt lat="10.2664658" lon="-85.5868778">
        <ele>77.3</ele>
        <time>2022-10-06T18:56:22Z</time>
      </trkpt>
      <trkpt lat="10.2664658" lon="-85.5868778">
        <ele>77.3</ele>
        <time>2022-10-06T18:56:23Z</time>
      </trkpt>
      <trkpt lat="10.2664658" lon="-85.5868778">
        <ele>77.4</ele>
        <time>2022-10-06T18:56:24Z</time>
      </trkpt>
      <trkpt lat="10.2664658" lon="-85.5868778">
        <ele>77.4</ele>
        <time>2022-10-06T18:56:25Z</time>
      </trkpt>
      <trkpt lat="10.2664658" lon="-85.5868778">
        <ele>77.4</ele>
        <time>2022-10-06T18:56:26Z</time>
      </trkpt>
      <trkpt lat="10.2664658" lon="-85.5868778">
        <ele>77.4</ele>
        <time>2022-10-06T18:56:27Z</time>
      </trkpt>
      <trkpt lat="10.2664658" lon="-85.5868778">
        <ele>77.4</ele>
        <time>2022-10-06T18:56:28Z</time>
      </trkpt>
      <trkpt lat="10.2664658" lon="-85.5868778">
        <ele>77.4</ele>
        <time>2022-10-06T18:56:29Z</time>
      </trkpt>
      <trkpt lat="10.2664658" lon="-85.5868778">
        <ele>77.4</ele>
        <time>2022-10-06T18:56:30Z</time>
      </trkpt>
      <trkpt lat="10.2664658" lon="-85.5868778">
        <ele>77.4</ele>
        <time>2022-10-06T18:56:31Z</time>
      </trkpt>
      <trkpt lat="10.2664658" lon="-85.5868778">
        <ele>77.4</ele>
        <time>2022-10-06T18:56:32Z</time>
      </trkpt>
      <trkpt lat="10.2664658" lon="-85.5868778">
        <ele>77.5</ele>
        <time>2022-10-06T18:56:33Z</time>
      </trkpt>
      <trkpt lat="10.2664658" lon="-85.5868778">
        <ele>77.5</ele>
        <time>2022-10-06T18:56:34Z</time>
      </trkpt>
      <trkpt lat="10.2664658" lon="-85.5868778">
        <ele>77.6</ele>
        <time>2022-10-06T18:56:35Z</time>
      </trkpt>
      <trkpt lat="10.2664658" lon="-85.5868778">
        <ele>77.6</ele>
        <time>2022-10-06T18:56:36Z</time>
      </trkpt>
      <trkpt lat="10.2664658" lon="-85.5868778">
        <ele>77.6</ele>
        <time>2022-10-06T18:56:37Z</time>
      </trkpt>
      <trkpt lat="10.2664658" lon="-85.5868778">
        <ele>77.6</ele>
        <time>2022-10-06T18:56:38Z</time>
      </trkpt>
      <trkpt lat="10.2664658" lon="-85.5868778">
        <ele>77.6</ele>
        <time>2022-10-06T18:56:39Z</time>
      </trkpt>
      <trkpt lat="10.2664658" lon="-85.5868778">
        <ele>77.7</ele>
        <time>2022-10-06T18:56:40Z</time>
      </trkpt>
      <trkpt lat="10.2664658" lon="-85.5868778">
        <ele>77.7</ele>
        <time>2022-10-06T18:56:41Z</time>
      </trkpt>
      <trkpt lat="10.2664658" lon="-85.5868778">
        <ele>77.7</ele>
        <time>2022-10-06T18:56:42Z</time>
      </trkpt>
      <trkpt lat="10.2664658" lon="-85.5868778">
        <ele>77.7</ele>
        <time>2022-10-06T18:56:43Z</time>
      </trkpt>
      <trkpt lat="10.2664658" lon="-85.5868778">
        <ele>77.7</ele>
        <time>2022-10-06T18:56:44Z</time>
      </trkpt>
      <trkpt lat="10.2664658" lon="-85.5868778">
        <ele>77.8</ele>
        <time>2022-10-06T18:56:45Z</time>
      </trkpt>
      <trkpt lat="10.2664658" lon="-85.5868778">
        <ele>77.8</ele>
        <time>2022-10-06T18:56:46Z</time>
      </trkpt>
      <trkpt lat="10.2664658" lon="-85.5868778">
        <ele>77.8</ele>
        <time>2022-10-06T18:56:47Z</time>
      </trkpt>
      <trkpt lat="10.2664658" lon="-85.5868778">
        <ele>77.8</ele>
        <time>2022-10-06T18:56:48Z</time>
      </trkpt>
      <trkpt lat="10.2664658" lon="-85.5868778">
        <ele>77.8</ele>
        <time>2022-10-06T18:56:49Z</time>
      </trkpt>
      <trkpt lat="10.2664658" lon="-85.5868778">
        <ele>77.8</ele>
        <time>2022-10-06T18:56:50Z</time>
      </trkpt>
      <trkpt lat="10.2664658" lon="-85.5868778">
        <ele>77.9</ele>
        <time>2022-10-06T18:56:51Z</time>
      </trkpt>
      <trkpt lat="10.2664658" lon="-85.5868778">
        <ele>77.8</ele>
        <time>2022-10-06T18:56:52Z</time>
      </trkpt>
      <trkpt lat="10.2664658" lon="-85.5868778">
        <ele>77.8</ele>
        <time>2022-10-06T18:56:53Z</time>
      </trkpt>
      <trkpt lat="10.2664658" lon="-85.5868778">
        <ele>77.8</ele>
        <time>2022-10-06T18:56:54Z</time>
      </trkpt>
      <trkpt lat="10.2664658" lon="-85.5868778">
        <ele>77.8</ele>
        <time>2022-10-06T18:56:55Z</time>
      </trkpt>
      <trkpt lat="10.2664658" lon="-85.5868778">
        <ele>77.7</ele>
        <time>2022-10-06T18:56:56Z</time>
      </trkpt>
      <trkpt lat="10.2664658" lon="-85.5868778">
        <ele>77.9</ele>
        <time>2022-10-06T18:56:57Z</time>
      </trkpt>
      <trkpt lat="10.2664658" lon="-85.5868778">
        <ele>77.9</ele>
        <time>2022-10-06T18:56:58Z</time>
      </trkpt>
      <trkpt lat="10.2664658" lon="-85.5868778">
        <ele>77.8</ele>
        <time>2022-10-06T18:56:59Z</time>
      </trkpt>
      <trkpt lat="10.2664658" lon="-85.5868778">
        <ele>77.8</ele>
        <time>2022-10-06T18:57:00Z</time>
      </trkpt>
      <trkpt lat="10.2664658" lon="-85.5868778">
        <ele>77.9</ele>
        <time>2022-10-06T18:57:01Z</time>
      </trkpt>
      <trkpt lat="10.2664658" lon="-85.5868778">
        <ele>77.8</ele>
        <time>2022-10-06T18:57:02Z</time>
      </trkpt>
      <trkpt lat="10.2664658" lon="-85.5868778">
        <ele>77.8</ele>
        <time>2022-10-06T18:57:03Z</time>
      </trkpt>
      <trkpt lat="10.2664658" lon="-85.5868778">
        <ele>77.8</ele>
        <time>2022-10-06T18:57:04Z</time>
      </trkpt>
      <trkpt lat="10.2664658" lon="-85.5868778">
        <ele>77.8</ele>
        <time>2022-10-06T18:57:05Z</time>
      </trkpt>
      <trkpt lat="10.2664658" lon="-85.5868778">
        <ele>77.8</ele>
        <time>2022-10-06T18:57:06Z</time>
      </trkpt>
      <trkpt lat="10.2664658" lon="-85.5868778">
        <ele>77.8</ele>
        <time>2022-10-06T18:57:07Z</time>
      </trkpt>
      <trkpt lat="10.2664658" lon="-85.5868778">
        <ele>77.8</ele>
        <time>2022-10-06T18:57:08Z</time>
      </trkpt>
      <trkpt lat="10.2664658" lon="-85.5868778">
        <ele>77.8</ele>
        <time>2022-10-06T18:57:09Z</time>
      </trkpt>
      <trkpt lat="10.2664658" lon="-85.5868778">
        <ele>77.8</ele>
        <time>2022-10-06T18:57:10Z</time>
      </trkpt>
      <trkpt lat="10.2664658" lon="-85.5868778">
        <ele>77.9</ele>
        <time>2022-10-06T18:57:11Z</time>
      </trkpt>
      <trkpt lat="10.2664658" lon="-85.5868778">
        <ele>77.9</ele>
        <time>2022-10-06T18:57:12Z</time>
      </trkpt>
      <trkpt lat="10.2664658" lon="-85.5868778">
        <ele>77.9</ele>
        <time>2022-10-06T18:57:13Z</time>
      </trkpt>
      <trkpt lat="10.2664658" lon="-85.5868778">
        <ele>78.0</ele>
        <time>2022-10-06T18:57:14Z</time>
      </trkpt>
      <trkpt lat="10.2664658" lon="-85.5868778">
        <ele>78.0</ele>
        <time>2022-10-06T18:57:15Z</time>
      </trkpt>
      <trkpt lat="10.2664658" lon="-85.5868778">
        <ele>78.1</ele>
        <time>2022-10-06T18:57:16Z</time>
      </trkpt>
      <trkpt lat="10.2664658" lon="-85.5868778">
        <ele>78.1</ele>
        <time>2022-10-06T18:57:17Z</time>
      </trkpt>
      <trkpt lat="10.2664658" lon="-85.5868778">
        <ele>78.1</ele>
        <time>2022-10-06T18:57:18Z</time>
      </trkpt>
      <trkpt lat="10.2664658" lon="-85.5868778">
        <ele>78.1</ele>
        <time>2022-10-06T18:57:19Z</time>
      </trkpt>
      <trkpt lat="10.2664658" lon="-85.5868778">
        <ele>78.1</ele>
        <time>2022-10-06T18:57:20Z</time>
      </trkpt>
      <trkpt lat="10.2664658" lon="-85.5868778">
        <ele>78.0</ele>
        <time>2022-10-06T18:57:21Z</time>
      </trkpt>
      <trkpt lat="10.2664658" lon="-85.5868778">
        <ele>78.0</ele>
        <time>2022-10-06T18:57:22Z</time>
      </trkpt>
      <trkpt lat="10.2664658" lon="-85.5868778">
        <ele>78.0</ele>
        <time>2022-10-06T18:57:23Z</time>
      </trkpt>
      <trkpt lat="10.2664658" lon="-85.5868778">
        <ele>78.0</ele>
        <time>2022-10-06T18:57:24Z</time>
      </trkpt>
      <trkpt lat="10.2664658" lon="-85.5868778">
        <ele>78.0</ele>
        <time>2022-10-06T18:57:25Z</time>
      </trkpt>
      <trkpt lat="10.2664658" lon="-85.5868778">
        <ele>78.0</ele>
        <time>2022-10-06T18:57:26Z</time>
      </trkpt>
      <trkpt lat="10.2664658" lon="-85.5868778">
        <ele>78.0</ele>
        <time>2022-10-06T18:57:27Z</time>
      </trkpt>
      <trkpt lat="10.2664658" lon="-85.5868778">
        <ele>78.0</ele>
        <time>2022-10-06T18:57:28Z</time>
      </trkpt>
      <trkpt lat="10.2664658" lon="-85.5868778">
        <ele>78.0</ele>
        <time>2022-10-06T18:57:29Z</time>
      </trkpt>
      <trkpt lat="10.2664658" lon="-85.5868778">
        <ele>77.9</ele>
        <time>2022-10-06T18:57:30Z</time>
      </trkpt>
      <trkpt lat="10.2664658" lon="-85.5868778">
        <ele>77.9</ele>
        <time>2022-10-06T18:57:31Z</time>
      </trkpt>
      <trkpt lat="10.2664658" lon="-85.5868778">
        <ele>78.0</ele>
        <time>2022-10-06T18:57:32Z</time>
      </trkpt>
      <trkpt lat="10.2664658" lon="-85.5868778">
        <ele>78.0</ele>
        <time>2022-10-06T18:57:33Z</time>
      </trkpt>
      <trkpt lat="10.2664658" lon="-85.5868778">
        <ele>77.9</ele>
        <time>2022-10-06T18:57:34Z</time>
      </trkpt>
      <trkpt lat="10.2664658" lon="-85.5868778">
        <ele>77.9</ele>
        <time>2022-10-06T18:57:35Z</time>
      </trkpt>
      <trkpt lat="10.2664658" lon="-85.5868778">
        <ele>77.9</ele>
        <time>2022-10-06T18:57:36Z</time>
      </trkpt>
      <trkpt lat="10.2664658" lon="-85.5868778">
        <ele>78.0</ele>
        <time>2022-10-06T18:57:37Z</time>
      </trkpt>
      <trkpt lat="10.2664658" lon="-85.5868778">
        <ele>77.9</ele>
        <time>2022-10-06T18:57:38Z</time>
      </trkpt>
      <trkpt lat="10.2664658" lon="-85.5868778">
        <ele>78.0</ele>
        <time>2022-10-06T18:57:39Z</time>
      </trkpt>
      <trkpt lat="10.2664658" lon="-85.5868778">
        <ele>78.1</ele>
        <time>2022-10-06T18:57:40Z</time>
      </trkpt>
      <trkpt lat="10.2664658" lon="-85.5868778">
        <ele>78.0</ele>
        <time>2022-10-06T18:57:41Z</time>
      </trkpt>
      <trkpt lat="10.2664658" lon="-85.5868778">
        <ele>78.0</ele>
        <time>2022-10-06T18:57:42Z</time>
      </trkpt>
      <trkpt lat="10.2664658" lon="-85.5868778">
        <ele>78.0</ele>
        <time>2022-10-06T18:57:43Z</time>
      </trkpt>
      <trkpt lat="10.2664658" lon="-85.5868778">
        <ele>78.0</ele>
        <time>2022-10-06T18:57:44Z</time>
      </trkpt>
      <trkpt lat="10.2664658" lon="-85.5868778">
        <ele>78.0</ele>
        <time>2022-10-06T18:57:45Z</time>
      </trkpt>
      <trkpt lat="10.2664658" lon="-85.5868778">
        <ele>78.0</ele>
        <time>2022-10-06T18:57:46Z</time>
      </trkpt>
      <trkpt lat="10.2664658" lon="-85.5868778">
        <ele>78.0</ele>
        <time>2022-10-06T18:57:47Z</time>
      </trkpt>
      <trkpt lat="10.2664658" lon="-85.5868778">
        <ele>78.0</ele>
        <time>2022-10-06T18:57:48Z</time>
      </trkpt>
      <trkpt lat="10.2664658" lon="-85.5868778">
        <ele>78.0</ele>
        <time>2022-10-06T18:57:49Z</time>
      </trkpt>
      <trkpt lat="10.2664658" lon="-85.5868778">
        <ele>77.9</ele>
        <time>2022-10-06T18:57:50Z</time>
      </trkpt>
      <trkpt lat="10.2664658" lon="-85.5868778">
        <ele>77.9</ele>
        <time>2022-10-06T18:57:51Z</time>
      </trkpt>
      <trkpt lat="10.2664658" lon="-85.5868778">
        <ele>78.0</ele>
        <time>2022-10-06T18:57:52Z</time>
      </trkpt>
      <trkpt lat="10.2664658" lon="-85.5868778">
        <ele>78.0</ele>
        <time>2022-10-06T18:57:53Z</time>
      </trkpt>
      <trkpt lat="10.2664658" lon="-85.5868778">
        <ele>78.0</ele>
        <time>2022-10-06T18:57:54Z</time>
      </trkpt>
      <trkpt lat="10.2664658" lon="-85.5868778">
        <ele>78.0</ele>
        <time>2022-10-06T18:57:55Z</time>
      </trkpt>
      <trkpt lat="10.2664658" lon="-85.5868778">
        <ele>78.0</ele>
        <time>2022-10-06T18:57:56Z</time>
      </trkpt>
      <trkpt lat="10.2664658" lon="-85.5868778">
        <ele>78.1</ele>
        <time>2022-10-06T18:57:57Z</time>
      </trkpt>
      <trkpt lat="10.2664658" lon="-85.5868778">
        <ele>78.1</ele>
        <time>2022-10-06T18:57:58Z</time>
      </trkpt>
      <trkpt lat="10.2664658" lon="-85.5868778">
        <ele>78.1</ele>
        <time>2022-10-06T18:57:59Z</time>
      </trkpt>
      <trkpt lat="10.2664658" lon="-85.5868778">
        <ele>78.1</ele>
        <time>2022-10-06T18:58:00Z</time>
      </trkpt>
      <trkpt lat="10.2664658" lon="-85.5868778">
        <ele>78.0</ele>
        <time>2022-10-06T18:58:01Z</time>
      </trkpt>
      <trkpt lat="10.2664658" lon="-85.5868778">
        <ele>78.0</ele>
        <time>2022-10-06T18:58:02Z</time>
      </trkpt>
      <trkpt lat="10.2664658" lon="-85.5868778">
        <ele>78.0</ele>
        <time>2022-10-06T18:58:03Z</time>
      </trkpt>
      <trkpt lat="10.2664658" lon="-85.5868778">
        <ele>77.9</ele>
        <time>2022-10-06T18:58:04Z</time>
      </trkpt>
      <trkpt lat="10.2664658" lon="-85.5868778">
        <ele>77.9</ele>
        <time>2022-10-06T18:58:05Z</time>
      </trkpt>
      <trkpt lat="10.2664658" lon="-85.5868778">
        <ele>77.9</ele>
        <time>2022-10-06T18:58:06Z</time>
      </trkpt>
      <trkpt lat="10.2664658" lon="-85.5868778">
        <ele>77.9</ele>
        <time>2022-10-06T18:58:07Z</time>
      </trkpt>
      <trkpt lat="10.2664658" lon="-85.5868778">
        <ele>77.9</ele>
        <time>2022-10-06T18:58:08Z</time>
      </trkpt>
      <trkpt lat="10.2664658" lon="-85.5868778">
        <ele>77.9</ele>
        <time>2022-10-06T18:58:09Z</time>
      </trkpt>
      <trkpt lat="10.2664658" lon="-85.5868778">
        <ele>77.9</ele>
        <time>2022-10-06T18:58:10Z</time>
      </trkpt>
      <trkpt lat="10.2664658" lon="-85.5868778">
        <ele>77.9</ele>
        <time>2022-10-06T18:58:11Z</time>
      </trkpt>
      <trkpt lat="10.2664658" lon="-85.5868778">
        <ele>78.0</ele>
        <time>2022-10-06T18:58:12Z</time>
      </trkpt>
      <trkpt lat="10.2664658" lon="-85.5868778">
        <ele>77.9</ele>
        <time>2022-10-06T18:58:13Z</time>
      </trkpt>
      <trkpt lat="10.2664658" lon="-85.5868778">
        <ele>78.0</ele>
        <time>2022-10-06T18:58:14Z</time>
      </trkpt>
      <trkpt lat="10.2664658" lon="-85.5868778">
        <ele>78.0</ele>
        <time>2022-10-06T18:58:15Z</time>
      </trkpt>
      <trkpt lat="10.2664658" lon="-85.5868778">
        <ele>78.0</ele>
        <time>2022-10-06T18:58:16Z</time>
      </trkpt>
      <trkpt lat="10.2664658" lon="-85.5868778">
        <ele>78.0</ele>
        <time>2022-10-06T18:58:17Z</time>
      </trkpt>
      <trkpt lat="10.2664658" lon="-85.5868778">
        <ele>78.0</ele>
        <time>2022-10-06T18:58:18Z</time>
      </trkpt>
      <trkpt lat="10.2664658" lon="-85.5868778">
        <ele>78.0</ele>
        <time>2022-10-06T18:58:19Z</time>
      </trkpt>
      <trkpt lat="10.2664658" lon="-85.5868778">
        <ele>78.0</ele>
        <time>2022-10-06T18:58:20Z</time>
      </trkpt>
      <trkpt lat="10.2664658" lon="-85.5868778">
        <ele>78.0</ele>
        <time>2022-10-06T18:58:21Z</time>
      </trkpt>
      <trkpt lat="10.2664658" lon="-85.5868778">
        <ele>78.0</ele>
        <time>2022-10-06T18:58:22Z</time>
      </trkpt>
      <trkpt lat="10.2664658" lon="-85.5868778">
        <ele>78.0</ele>
        <time>2022-10-06T18:58:23Z</time>
      </trkpt>
      <trkpt lat="10.2664658" lon="-85.5868778">
        <ele>78.0</ele>
        <time>2022-10-06T18:58:24Z</time>
      </trkpt>
      <trkpt lat="10.2664658" lon="-85.5868778">
        <ele>78.0</ele>
        <time>2022-10-06T18:58:25Z</time>
      </trkpt>
      <trkpt lat="10.2664658" lon="-85.5868778">
        <ele>78.0</ele>
        <time>2022-10-06T18:58:26Z</time>
      </trkpt>
      <trkpt lat="10.2664658" lon="-85.5868778">
        <ele>78.0</ele>
        <time>2022-10-06T18:58:27Z</time>
      </trkpt>
      <trkpt lat="10.2664658" lon="-85.5868778">
        <ele>77.9</ele>
        <time>2022-10-06T18:58:28Z</time>
      </trkpt>
      <trkpt lat="10.2664658" lon="-85.5868778">
        <ele>78.0</ele>
        <time>2022-10-06T18:58:29Z</time>
      </trkpt>
      <trkpt lat="10.2664658" lon="-85.5868778">
        <ele>77.9</ele>
        <time>2022-10-06T18:58:30Z</time>
      </trkpt>
      <trkpt lat="10.2664658" lon="-85.5868778">
        <ele>77.9</ele>
        <time>2022-10-06T18:58:31Z</time>
      </trkpt>
      <trkpt lat="10.2664658" lon="-85.5868778">
        <ele>77.8</ele>
        <time>2022-10-06T18:58:32Z</time>
      </trkpt>
      <trkpt lat="10.2664658" lon="-85.5868778">
        <ele>77.7</ele>
        <time>2022-10-06T18:58:33Z</time>
      </trkpt>
      <trkpt lat="10.2664658" lon="-85.5868778">
        <ele>77.8</ele>
        <time>2022-10-06T18:58:34Z</time>
      </trkpt>
      <trkpt lat="10.2664658" lon="-85.5868778">
        <ele>77.8</ele>
        <time>2022-10-06T18:58:35Z</time>
      </trkpt>
      <trkpt lat="10.2664658" lon="-85.5868778">
        <ele>77.8</ele>
        <time>2022-10-06T18:58:36Z</time>
      </trkpt>
      <trkpt lat="10.2664658" lon="-85.5868778">
        <ele>77.7</ele>
        <time>2022-10-06T18:58:37Z</time>
      </trkpt>
      <trkpt lat="10.2664658" lon="-85.5868778">
        <ele>77.7</ele>
        <time>2022-10-06T18:58:38Z</time>
      </trkpt>
      <trkpt lat="10.2664658" lon="-85.5868778">
        <ele>77.7</ele>
        <time>2022-10-06T18:58:39Z</time>
      </trkpt>
      <trkpt lat="10.2664658" lon="-85.5868778">
        <ele>77.7</ele>
        <time>2022-10-06T18:58:40Z</time>
      </trkpt>
      <trkpt lat="10.2664658" lon="-85.5868778">
        <ele>77.6</ele>
        <time>2022-10-06T18:58:41Z</time>
      </trkpt>
      <trkpt lat="10.2664658" lon="-85.5868778">
        <ele>77.6</ele>
        <time>2022-10-06T18:58:42Z</time>
      </trkpt>
      <trkpt lat="10.2664658" lon="-85.5868778">
        <ele>77.6</ele>
        <time>2022-10-06T18:58:43Z</time>
      </trkpt>
      <trkpt lat="10.2664658" lon="-85.5868778">
        <ele>77.6</ele>
        <time>2022-10-06T18:58:44Z</time>
      </trkpt>
      <trkpt lat="10.2664658" lon="-85.5868778">
        <ele>77.6</ele>
        <time>2022-10-06T18:58:45Z</time>
      </trkpt>
      <trkpt lat="10.2664658" lon="-85.5868778">
        <ele>77.6</ele>
        <time>2022-10-06T18:58:46Z</time>
      </trkpt>
      <trkpt lat="10.2664658" lon="-85.5868778">
        <ele>77.6</ele>
        <time>2022-10-06T18:58:47Z</time>
      </trkpt>
      <trkpt lat="10.2664658" lon="-85.5868778">
        <ele>77.6</ele>
        <time>2022-10-06T18:58:48Z</time>
      </trkpt>
      <trkpt lat="10.2664658" lon="-85.5868778">
        <ele>77.6</ele>
        <time>2022-10-06T18:58:49Z</time>
      </trkpt>
      <trkpt lat="10.2664658" lon="-85.5868778">
        <ele>77.6</ele>
        <time>2022-10-06T18:58:50Z</time>
      </trkpt>
      <trkpt lat="10.2664658" lon="-85.5868778">
        <ele>77.6</ele>
        <time>2022-10-06T18:58:51Z</time>
      </trkpt>
      <trkpt lat="10.2664658" lon="-85.5868778">
        <ele>77.7</ele>
        <time>2022-10-06T18:58:52Z</time>
      </trkpt>
      <trkpt lat="10.2664658" lon="-85.5868778">
        <ele>77.7</ele>
        <time>2022-10-06T18:58:53Z</time>
      </trkpt>
      <trkpt lat="10.2664658" lon="-85.5868778">
        <ele>77.7</ele>
        <time>2022-10-06T18:58:54Z</time>
      </trkpt>
      <trkpt lat="10.2664658" lon="-85.5868778">
        <ele>77.7</ele>
        <time>2022-10-06T18:58:55Z</time>
      </trkpt>
      <trkpt lat="10.2664658" lon="-85.5868778">
        <ele>77.7</ele>
        <time>2022-10-06T18:58:56Z</time>
      </trkpt>
      <trkpt lat="10.2664658" lon="-85.5868778">
        <ele>77.8</ele>
        <time>2022-10-06T18:58:57Z</time>
      </trkpt>
      <trkpt lat="10.2664658" lon="-85.5868778">
        <ele>77.8</ele>
        <time>2022-10-06T18:58:58Z</time>
      </trkpt>
      <trkpt lat="10.2664658" lon="-85.5868778">
        <ele>77.8</ele>
        <time>2022-10-06T18:58:59Z</time>
      </trkpt>
      <trkpt lat="10.2664658" lon="-85.5868778">
        <ele>77.8</ele>
        <time>2022-10-06T18:59:00Z</time>
      </trkpt>
      <trkpt lat="10.2664658" lon="-85.5868778">
        <ele>77.8</ele>
        <time>2022-10-06T18:59:01Z</time>
      </trkpt>
      <trkpt lat="10.2664658" lon="-85.5868778">
        <ele>77.9</ele>
        <time>2022-10-06T18:59:02Z</time>
      </trkpt>
      <trkpt lat="10.2664658" lon="-85.5868778">
        <ele>77.9</ele>
        <time>2022-10-06T18:59:03Z</time>
      </trkpt>
      <trkpt lat="10.2664658" lon="-85.5868778">
        <ele>77.9</ele>
        <time>2022-10-06T18:59:04Z</time>
      </trkpt>
      <trkpt lat="10.2664658" lon="-85.5868778">
        <ele>77.9</ele>
        <time>2022-10-06T18:59:05Z</time>
      </trkpt>
      <trkpt lat="10.2664658" lon="-85.5868778">
        <ele>77.9</ele>
        <time>2022-10-06T18:59:06Z</time>
      </trkpt>
      <trkpt lat="10.2664658" lon="-85.5868778">
        <ele>77.9</ele>
        <time>2022-10-06T18:59:07Z</time>
      </trkpt>
      <trkpt lat="10.2664658" lon="-85.5868778">
        <ele>78.0</ele>
        <time>2022-10-06T18:59:08Z</time>
      </trkpt>
      <trkpt lat="10.2664658" lon="-85.5868778">
        <ele>78.0</ele>
        <time>2022-10-06T18:59:09Z</time>
      </trkpt>
      <trkpt lat="10.2664658" lon="-85.5868778">
        <ele>78.0</ele>
        <time>2022-10-06T18:59:10Z</time>
      </trkpt>
      <trkpt lat="10.2664658" lon="-85.5868778">
        <ele>78.0</ele>
        <time>2022-10-06T18:59:11Z</time>
      </trkpt>
      <trkpt lat="10.2664658" lon="-85.5868778">
        <ele>78.0</ele>
        <time>2022-10-06T18:59:12Z</time>
      </trkpt>
      <trkpt lat="10.2664658" lon="-85.5868778">
        <ele>78.1</ele>
        <time>2022-10-06T18:59:13Z</time>
      </trkpt>
      <trkpt lat="10.2664658" lon="-85.5868778">
        <ele>78.2</ele>
        <time>2022-10-06T18:59:14Z</time>
      </trkpt>
      <trkpt lat="10.2664658" lon="-85.5868778">
        <ele>78.2</ele>
        <time>2022-10-06T18:59:15Z</time>
      </trkpt>
      <trkpt lat="10.2664658" lon="-85.5868778">
        <ele>78.2</ele>
        <time>2022-10-06T18:59:16Z</time>
      </trkpt>
      <trkpt lat="10.2664658" lon="-85.5868778">
        <ele>78.2</ele>
        <time>2022-10-06T18:59:17Z</time>
      </trkpt>
      <trkpt lat="10.2664658" lon="-85.5868778">
        <ele>78.3</ele>
        <time>2022-10-06T18:59:18Z</time>
      </trkpt>
      <trkpt lat="10.2664658" lon="-85.5868778">
        <ele>78.3</ele>
        <time>2022-10-06T18:59:19Z</time>
      </trkpt>
      <trkpt lat="10.2664658" lon="-85.5868778">
        <ele>78.4</ele>
        <time>2022-10-06T18:59:20Z</time>
      </trkpt>
      <trkpt lat="10.2664658" lon="-85.5868778">
        <ele>78.2</ele>
        <time>2022-10-06T18:59:21Z</time>
      </trkpt>
      <trkpt lat="10.2664658" lon="-85.5868778">
        <ele>78.3</ele>
        <time>2022-10-06T18:59:22Z</time>
      </trkpt>
      <trkpt lat="10.2664658" lon="-85.5868778">
        <ele>78.3</ele>
        <time>2022-10-06T18:59:23Z</time>
      </trkpt>
      <trkpt lat="10.2664658" lon="-85.5868778">
        <ele>78.3</ele>
        <time>2022-10-06T18:59:24Z</time>
      </trkpt>
      <trkpt lat="10.2664658" lon="-85.5868778">
        <ele>78.3</ele>
        <time>2022-10-06T18:59:25Z</time>
      </trkpt>
      <trkpt lat="10.2664658" lon="-85.5868778">
        <ele>78.3</ele>
        <time>2022-10-06T18:59:26Z</time>
      </trkpt>
      <trkpt lat="10.2664658" lon="-85.5868778">
        <ele>78.3</ele>
        <time>2022-10-06T18:59:27Z</time>
      </trkpt>
      <trkpt lat="10.2664658" lon="-85.5868778">
        <ele>78.3</ele>
        <time>2022-10-06T18:59:28Z</time>
      </trkpt>
      <trkpt lat="10.2664658" lon="-85.5868778">
        <ele>78.3</ele>
        <time>2022-10-06T18:59:29Z</time>
      </trkpt>
      <trkpt lat="10.2664658" lon="-85.5868778">
        <ele>78.2</ele>
        <time>2022-10-06T18:59:30Z</time>
      </trkpt>
      <trkpt lat="10.2664658" lon="-85.5868778">
        <ele>78.2</ele>
        <time>2022-10-06T18:59:31Z</time>
      </trkpt>
      <trkpt lat="10.2664658" lon="-85.5868778">
        <ele>78.2</ele>
        <time>2022-10-06T18:59:32Z</time>
      </trkpt>
      <trkpt lat="10.2664658" lon="-85.5868778">
        <ele>78.0</ele>
        <time>2022-10-06T18:59:33Z</time>
      </trkpt>
      <trkpt lat="10.2664658" lon="-85.5868778">
        <ele>77.9</ele>
        <time>2022-10-06T18:59:34Z</time>
      </trkpt>
      <trkpt lat="10.2664658" lon="-85.5868778">
        <ele>78.0</ele>
        <time>2022-10-06T18:59:35Z</time>
      </trkpt>
      <trkpt lat="10.2664658" lon="-85.5868778">
        <ele>78.0</ele>
        <time>2022-10-06T18:59:36Z</time>
      </trkpt>
      <trkpt lat="10.2664658" lon="-85.5868778">
        <ele>78.0</ele>
        <time>2022-10-06T18:59:37Z</time>
      </trkpt>
      <trkpt lat="10.2664658" lon="-85.5868778">
        <ele>77.9</ele>
        <time>2022-10-06T18:59:38Z</time>
      </trkpt>
      <trkpt lat="10.2664658" lon="-85.5868778">
        <ele>78.0</ele>
        <time>2022-10-06T18:59:39Z</time>
      </trkpt>
      <trkpt lat="10.2664658" lon="-85.5868778">
        <ele>78.0</ele>
        <time>2022-10-06T18:59:40Z</time>
      </trkpt>
      <trkpt lat="10.2664658" lon="-85.5868778">
        <ele>78.0</ele>
        <time>2022-10-06T18:59:41Z</time>
      </trkpt>
      <trkpt lat="10.2664658" lon="-85.5868778">
        <ele>78.0</ele>
        <time>2022-10-06T18:59:42Z</time>
      </trkpt>
      <trkpt lat="10.2664658" lon="-85.5868778">
        <ele>78.0</ele>
        <time>2022-10-06T18:59:43Z</time>
      </trkpt>
      <trkpt lat="10.2664658" lon="-85.5868778">
        <ele>77.9</ele>
        <time>2022-10-06T18:59:44Z</time>
      </trkpt>
      <trkpt lat="10.2664658" lon="-85.5868778">
        <ele>77.9</ele>
        <time>2022-10-06T18:59:45Z</time>
      </trkpt>
      <trkpt lat="10.2664658" lon="-85.5868778">
        <ele>77.9</ele>
        <time>2022-10-06T18:59:46Z</time>
      </trkpt>
      <trkpt lat="10.2664658" lon="-85.5868778">
        <ele>78.0</ele>
        <time>2022-10-06T18:59:47Z</time>
      </trkpt>
      <trkpt lat="10.2664658" lon="-85.5868778">
        <ele>78.0</ele>
        <time>2022-10-06T18:59:48Z</time>
      </trkpt>
      <trkpt lat="10.2664658" lon="-85.5868778">
        <ele>78.1</ele>
        <time>2022-10-06T18:59:49Z</time>
      </trkpt>
      <trkpt lat="10.2664658" lon="-85.5868778">
        <ele>78.1</ele>
        <time>2022-10-06T18:59:50Z</time>
      </trkpt>
      <trkpt lat="10.2664658" lon="-85.5868778">
        <ele>78.3</ele>
        <time>2022-10-06T18:59:51Z</time>
      </trkpt>
      <trkpt lat="10.2664658" lon="-85.5868778">
        <ele>78.6</ele>
        <time>2022-10-06T18:59:52Z</time>
      </trkpt>
      <trkpt lat="10.2664658" lon="-85.5868778">
        <ele>78.5</ele>
        <time>2022-10-06T18:59:53Z</time>
      </trkpt>
      <trkpt lat="10.2664658" lon="-85.5868778">
        <ele>78.6</ele>
        <time>2022-10-06T18:59:54Z</time>
      </trkpt>
      <trkpt lat="10.2664658" lon="-85.5868778">
        <ele>78.6</ele>
        <time>2022-10-06T18:59:55Z</time>
      </trkpt>
      <trkpt lat="10.2664658" lon="-85.5868778">
        <ele>78.6</ele>
        <time>2022-10-06T18:59:56Z</time>
      </trkpt>
      <trkpt lat="10.2664658" lon="-85.5868778">
        <ele>78.6</ele>
        <time>2022-10-06T18:59:57Z</time>
      </trkpt>
      <trkpt lat="10.2664658" lon="-85.5868778">
        <ele>78.5</ele>
        <time>2022-10-06T18:59:58Z</time>
      </trkpt>
      <trkpt lat="10.2664658" lon="-85.5868778">
        <ele>78.5</ele>
        <time>2022-10-06T18:59:59Z</time>
      </trkpt>
      <trkpt lat="10.2664658" lon="-85.5868778">
        <ele>78.4</ele>
        <time>2022-10-06T19:00:00Z</time>
      </trkpt>
      <trkpt lat="10.2664658" lon="-85.5868778">
        <ele>78.4</ele>
        <time>2022-10-06T19:00:01Z</time>
      </trkpt>
      <trkpt lat="10.2664658" lon="-85.5868778">
        <ele>78.4</ele>
        <time>2022-10-06T19:00:02Z</time>
      </trkpt>
      <trkpt lat="10.2664658" lon="-85.5868778">
        <ele>78.4</ele>
        <time>2022-10-06T19:00:03Z</time>
      </trkpt>
      <trkpt lat="10.2664658" lon="-85.5868778">
        <ele>78.4</ele>
        <time>2022-10-06T19:00:04Z</time>
      </trkpt>
      <trkpt lat="10.2664658" lon="-85.5868778">
        <ele>78.4</ele>
        <time>2022-10-06T19:00:05Z</time>
      </trkpt>
      <trkpt lat="10.2664658" lon="-85.5868778">
        <ele>78.4</ele>
        <time>2022-10-06T19:00:06Z</time>
      </trkpt>
      <trkpt lat="10.2664658" lon="-85.5868778">
        <ele>78.3</ele>
        <time>2022-10-06T19:00:07Z</time>
      </trkpt>
      <trkpt lat="10.2664658" lon="-85.5868778">
        <ele>78.3</ele>
        <time>2022-10-06T19:00:08Z</time>
      </trkpt>
      <trkpt lat="10.2664658" lon="-85.5868778">
        <ele>78.3</ele>
        <time>2022-10-06T19:00:09Z</time>
      </trkpt>
      <trkpt lat="10.2664658" lon="-85.5868778">
        <ele>78.4</ele>
        <time>2022-10-06T19:00:10Z</time>
      </trkpt>
      <trkpt lat="10.2664658" lon="-85.5868778">
        <ele>78.4</ele>
        <time>2022-10-06T19:00:11Z</time>
      </trkpt>
      <trkpt lat="10.2664658" lon="-85.5868778">
        <ele>78.5</ele>
        <time>2022-10-06T19:00:12Z</time>
      </trkpt>
      <trkpt lat="10.2664658" lon="-85.5868778">
        <ele>78.4</ele>
        <time>2022-10-06T19:00:13Z</time>
      </trkpt>
      <trkpt lat="10.2664658" lon="-85.5868778">
        <ele>78.5</ele>
        <time>2022-10-06T19:00:14Z</time>
      </trkpt>
      <trkpt lat="10.2664658" lon="-85.5868778">
        <ele>78.5</ele>
        <time>2022-10-06T19:00:15Z</time>
      </trkpt>
      <trkpt lat="10.2664658" lon="-85.5868778">
        <ele>78.5</ele>
        <time>2022-10-06T19:00:16Z</time>
      </trkpt>
      <trkpt lat="10.2664658" lon="-85.5868778">
        <ele>78.5</ele>
        <time>2022-10-06T19:00:17Z</time>
      </trkpt>
      <trkpt lat="10.2664658" lon="-85.5868778">
        <ele>78.5</ele>
        <time>2022-10-06T19:00:18Z</time>
      </trkpt>
      <trkpt lat="10.2664658" lon="-85.5868778">
        <ele>78.6</ele>
        <time>2022-10-06T19:00:19Z</time>
      </trkpt>
      <trkpt lat="10.2664658" lon="-85.5868778">
        <ele>78.6</ele>
        <time>2022-10-06T19:00:20Z</time>
      </trkpt>
      <trkpt lat="10.2664658" lon="-85.5868778">
        <ele>78.6</ele>
        <time>2022-10-06T19:00:21Z</time>
      </trkpt>
      <trkpt lat="10.2664658" lon="-85.5868778">
        <ele>78.6</ele>
        <time>2022-10-06T19:00:22Z</time>
      </trkpt>
      <trkpt lat="10.2664658" lon="-85.5868778">
        <ele>78.6</ele>
        <time>2022-10-06T19:00:23Z</time>
      </trkpt>
      <trkpt lat="10.2664658" lon="-85.5868778">
        <ele>78.6</ele>
        <time>2022-10-06T19:00:24Z</time>
      </trkpt>
      <trkpt lat="10.2664658" lon="-85.5868778">
        <ele>78.4</ele>
        <time>2022-10-06T19:00:25Z</time>
      </trkpt>
      <trkpt lat="10.2664658" lon="-85.5868778">
        <ele>78.4</ele>
        <time>2022-10-06T19:00:26Z</time>
      </trkpt>
      <trkpt lat="10.2664658" lon="-85.5868778">
        <ele>78.4</ele>
        <time>2022-10-06T19:00:27Z</time>
      </trkpt>
      <trkpt lat="10.2664658" lon="-85.5868778">
        <ele>78.3</ele>
        <time>2022-10-06T19:00:28Z</time>
      </trkpt>
      <trkpt lat="10.2664658" lon="-85.5868778">
        <ele>78.2</ele>
        <time>2022-10-06T19:00:29Z</time>
      </trkpt>
      <trkpt lat="10.2664658" lon="-85.5868778">
        <ele>78.2</ele>
        <time>2022-10-06T19:00:30Z</time>
      </trkpt>
      <trkpt lat="10.2664658" lon="-85.5868778">
        <ele>78.3</ele>
        <time>2022-10-06T19:00:31Z</time>
      </trkpt>
      <trkpt lat="10.2664658" lon="-85.5868778">
        <ele>78.3</ele>
        <time>2022-10-06T19:00:32Z</time>
      </trkpt>
      <trkpt lat="10.2664658" lon="-85.5868778">
        <ele>78.4</ele>
        <time>2022-10-06T19:00:33Z</time>
      </trkpt>
      <trkpt lat="10.2664658" lon="-85.5868778">
        <ele>78.5</ele>
        <time>2022-10-06T19:00:34Z</time>
      </trkpt>
      <trkpt lat="10.2664658" lon="-85.5868778">
        <ele>78.4</ele>
        <time>2022-10-06T19:00:35Z</time>
      </trkpt>
      <trkpt lat="10.2664658" lon="-85.5868778">
        <ele>78.4</ele>
        <time>2022-10-06T19:00:36Z</time>
      </trkpt>
      <trkpt lat="10.2664658" lon="-85.5868778">
        <ele>78.3</ele>
        <time>2022-10-06T19:00:37Z</time>
      </trkpt>
      <trkpt lat="10.2664658" lon="-85.5868778">
        <ele>78.3</ele>
        <time>2022-10-06T19:00:38Z</time>
      </trkpt>
      <trkpt lat="10.2664658" lon="-85.5868778">
        <ele>78.4</ele>
        <time>2022-10-06T19:00:39Z</time>
      </trkpt>
      <trkpt lat="10.2664658" lon="-85.5868778">
        <ele>78.3</ele>
        <time>2022-10-06T19:00:40Z</time>
      </trkpt>
      <trkpt lat="10.2664658" lon="-85.5868778">
        <ele>78.3</ele>
        <time>2022-10-06T19:00:41Z</time>
      </trkpt>
      <trkpt lat="10.2664658" lon="-85.5868778">
        <ele>78.3</ele>
        <time>2022-10-06T19:00:42Z</time>
      </trkpt>
      <trkpt lat="10.2664658" lon="-85.5868778">
        <ele>78.4</ele>
        <time>2022-10-06T19:00:43Z</time>
      </trkpt>
      <trkpt lat="10.2664658" lon="-85.5868778">
        <ele>78.3</ele>
        <time>2022-10-06T19:00:44Z</time>
      </trkpt>
      <trkpt lat="10.2664658" lon="-85.5868778">
        <ele>78.2</ele>
        <time>2022-10-06T19:00:45Z</time>
      </trkpt>
      <trkpt lat="10.2664658" lon="-85.5868778">
        <ele>78.3</ele>
        <time>2022-10-06T19:00:46Z</time>
      </trkpt>
      <trkpt lat="10.2664658" lon="-85.5868778">
        <ele>78.3</ele>
        <time>2022-10-06T19:00:47Z</time>
      </trkpt>
      <trkpt lat="10.2664658" lon="-85.5868778">
        <ele>78.2</ele>
        <time>2022-10-06T19:00:48Z</time>
      </trkpt>
      <trkpt lat="10.2664658" lon="-85.5868778">
        <ele>78.2</ele>
        <time>2022-10-06T19:00:49Z</time>
      </trkpt>
      <trkpt lat="10.2664658" lon="-85.5868778">
        <ele>78.2</ele>
        <time>2022-10-06T19:00:50Z</time>
      </trkpt>
      <trkpt lat="10.2664658" lon="-85.5868778">
        <ele>78.2</ele>
        <time>2022-10-06T19:00:51Z</time>
      </trkpt>
      <trkpt lat="10.2664658" lon="-85.5868778">
        <ele>78.2</ele>
        <time>2022-10-06T19:00:52Z</time>
      </trkpt>
      <trkpt lat="10.2664658" lon="-85.5868778">
        <ele>78.2</ele>
        <time>2022-10-06T19:00:53Z</time>
      </trkpt>
      <trkpt lat="10.2664658" lon="-85.5868778">
        <ele>78.2</ele>
        <time>2022-10-06T19:00:54Z</time>
      </trkpt>
      <trkpt lat="10.2664658" lon="-85.5868778">
        <ele>78.1</ele>
        <time>2022-10-06T19:00:55Z</time>
      </trkpt>
      <trkpt lat="10.2664658" lon="-85.5868778">
        <ele>78.1</ele>
        <time>2022-10-06T19:00:56Z</time>
      </trkpt>
      <trkpt lat="10.2664658" lon="-85.5868778">
        <ele>78.1</ele>
        <time>2022-10-06T19:00:57Z</time>
      </trkpt>
      <trkpt lat="10.2664658" lon="-85.5868778">
        <ele>78.1</ele>
        <time>2022-10-06T19:00:58Z</time>
      </trkpt>
      <trkpt lat="10.2664658" lon="-85.5868778">
        <ele>78.2</ele>
        <time>2022-10-06T19:00:59Z</time>
      </trkpt>
      <trkpt lat="10.2664658" lon="-85.5868778">
        <ele>78.2</ele>
        <time>2022-10-06T19:01:00Z</time>
      </trkpt>
      <trkpt lat="10.2664658" lon="-85.5868778">
        <ele>78.2</ele>
        <time>2022-10-06T19:01:01Z</time>
      </trkpt>
      <trkpt lat="10.2664658" lon="-85.5868778">
        <ele>78.2</ele>
        <time>2022-10-06T19:01:02Z</time>
      </trkpt>
      <trkpt lat="10.2664658" lon="-85.5868778">
        <ele>78.2</ele>
        <time>2022-10-06T19:01:03Z</time>
      </trkpt>
      <trkpt lat="10.2664658" lon="-85.5868778">
        <ele>78.2</ele>
        <time>2022-10-06T19:01:04Z</time>
      </trkpt>
      <trkpt lat="10.2664658" lon="-85.5868778">
        <ele>78.2</ele>
        <time>2022-10-06T19:01:05Z</time>
      </trkpt>
      <trkpt lat="10.2664658" lon="-85.5868778">
        <ele>78.2</ele>
        <time>2022-10-06T19:01:06Z</time>
      </trkpt>
      <trkpt lat="10.2664658" lon="-85.5868778">
        <ele>78.2</ele>
        <time>2022-10-06T19:01:07Z</time>
      </trkpt>
      <trkpt lat="10.2664658" lon="-85.5868778">
        <ele>78.2</ele>
        <time>2022-10-06T19:01:08Z</time>
      </trkpt>
      <trkpt lat="10.2664658" lon="-85.5868778">
        <ele>78.2</ele>
        <time>2022-10-06T19:01:09Z</time>
      </trkpt>
      <trkpt lat="10.2664658" lon="-85.5868778">
        <ele>78.2</ele>
        <time>2022-10-06T19:01:10Z</time>
      </trkpt>
      <trkpt lat="10.2664658" lon="-85.5868778">
        <ele>78.3</ele>
        <time>2022-10-06T19:01:11Z</time>
      </trkpt>
      <trkpt lat="10.2664658" lon="-85.5868778">
        <ele>78.3</ele>
        <time>2022-10-06T19:01:12Z</time>
      </trkpt>
      <trkpt lat="10.2664658" lon="-85.5868778">
        <ele>78.4</ele>
        <time>2022-10-06T19:01:13Z</time>
      </trkpt>
      <trkpt lat="10.2664658" lon="-85.5868778">
        <ele>78.5</ele>
        <time>2022-10-06T19:01:14Z</time>
      </trkpt>
      <trkpt lat="10.2664658" lon="-85.5868778">
        <ele>78.5</ele>
        <time>2022-10-06T19:01:15Z</time>
      </trkpt>
      <trkpt lat="10.2664658" lon="-85.5868778">
        <ele>78.5</ele>
        <time>2022-10-06T19:01:16Z</time>
      </trkpt>
      <trkpt lat="10.2664658" lon="-85.5868778">
        <ele>78.5</ele>
        <time>2022-10-06T19:01:17Z</time>
      </trkpt>
      <trkpt lat="10.2664658" lon="-85.5868778">
        <ele>78.8</ele>
        <time>2022-10-06T19:01:18Z</time>
      </trkpt>
      <trkpt lat="10.2664658" lon="-85.5868778">
        <ele>78.8</ele>
        <time>2022-10-06T19:01:19Z</time>
      </trkpt>
      <trkpt lat="10.2664658" lon="-85.5868778">
        <ele>78.9</ele>
        <time>2022-10-06T19:01:20Z</time>
      </trkpt>
      <trkpt lat="10.2664658" lon="-85.5868778">
        <ele>78.7</ele>
        <time>2022-10-06T19:01:21Z</time>
      </trkpt>
      <trkpt lat="10.2664658" lon="-85.5868778">
        <ele>78.8</ele>
        <time>2022-10-06T19:01:22Z</time>
      </trkpt>
      <trkpt lat="10.2664658" lon="-85.5868778">
        <ele>78.9</ele>
        <time>2022-10-06T19:01:23Z</time>
      </trkpt>
      <trkpt lat="10.2664658" lon="-85.5868778">
        <ele>78.9</ele>
        <time>2022-10-06T19:01:24Z</time>
      </trkpt>
      <trkpt lat="10.2664658" lon="-85.5868778">
        <ele>78.9</ele>
        <time>2022-10-06T19:01:25Z</time>
      </trkpt>
      <trkpt lat="10.2664658" lon="-85.5868778">
        <ele>78.9</ele>
        <time>2022-10-06T19:01:26Z</time>
      </trkpt>
      <trkpt lat="10.2664658" lon="-85.5868778">
        <ele>78.9</ele>
        <time>2022-10-06T19:01:27Z</time>
      </trkpt>
      <trkpt lat="10.2664658" lon="-85.5868778">
        <ele>78.9</ele>
        <time>2022-10-06T19:01:28Z</time>
      </trkpt>
      <trkpt lat="10.2664658" lon="-85.5868778">
        <ele>78.9</ele>
        <time>2022-10-06T19:01:29Z</time>
      </trkpt>
      <trkpt lat="10.2664658" lon="-85.5868778">
        <ele>78.9</ele>
        <time>2022-10-06T19:01:30Z</time>
      </trkpt>
      <trkpt lat="10.2664658" lon="-85.5868778">
        <ele>79.0</ele>
        <time>2022-10-06T19:01:31Z</time>
      </trkpt>
      <trkpt lat="10.2664658" lon="-85.5868778">
        <ele>78.9</ele>
        <time>2022-10-06T19:01:32Z</time>
      </trkpt>
      <trkpt lat="10.2664658" lon="-85.5868778">
        <ele>78.9</ele>
        <time>2022-10-06T19:01:33Z</time>
      </trkpt>
      <trkpt lat="10.2664658" lon="-85.5868778">
        <ele>78.9</ele>
        <time>2022-10-06T19:01:34Z</time>
      </trkpt>
      <trkpt lat="10.2664658" lon="-85.5868778">
        <ele>78.9</ele>
        <time>2022-10-06T19:01:35Z</time>
      </trkpt>
      <trkpt lat="10.2664658" lon="-85.5868778">
        <ele>78.9</ele>
        <time>2022-10-06T19:01:36Z</time>
      </trkpt>
      <trkpt lat="10.2664658" lon="-85.5868778">
        <ele>79.0</ele>
        <time>2022-10-06T19:01:37Z</time>
      </trkpt>
      <trkpt lat="10.2664658" lon="-85.5868778">
        <ele>79.0</ele>
        <time>2022-10-06T19:01:38Z</time>
      </trkpt>
      <trkpt lat="10.2664658" lon="-85.5868778">
        <ele>79.0</ele>
        <time>2022-10-06T19:01:39Z</time>
      </trkpt>
      <trkpt lat="10.2664658" lon="-85.5868778">
        <ele>78.9</ele>
        <time>2022-10-06T19:01:40Z</time>
      </trkpt>
      <trkpt lat="10.2664658" lon="-85.5868778">
        <ele>78.9</ele>
        <time>2022-10-06T19:01:41Z</time>
      </trkpt>
      <trkpt lat="10.2664658" lon="-85.5868778">
        <ele>78.9</ele>
        <time>2022-10-06T19:01:42Z</time>
      </trkpt>
      <trkpt lat="10.2664658" lon="-85.5868778">
        <ele>78.9</ele>
        <time>2022-10-06T19:01:43Z</time>
      </trkpt>
      <trkpt lat="10.2664658" lon="-85.5868778">
        <ele>78.9</ele>
        <time>2022-10-06T19:01:44Z</time>
      </trkpt>
      <trkpt lat="10.2664658" lon="-85.5868778">
        <ele>78.9</ele>
        <time>2022-10-06T19:01:45Z</time>
      </trkpt>
      <trkpt lat="10.2664658" lon="-85.5868778">
        <ele>78.9</ele>
        <time>2022-10-06T19:01:46Z</time>
      </trkpt>
      <trkpt lat="10.2664658" lon="-85.5868778">
        <ele>78.9</ele>
        <time>2022-10-06T19:01:47Z</time>
      </trkpt>
      <trkpt lat="10.2664658" lon="-85.5868778">
        <ele>78.9</ele>
        <time>2022-10-06T19:01:48Z</time>
      </trkpt>
      <trkpt lat="10.2664658" lon="-85.5868778">
        <ele>79.0</ele>
        <time>2022-10-06T19:01:49Z</time>
      </trkpt>
      <trkpt lat="10.2664658" lon="-85.5868778">
        <ele>79.0</ele>
        <time>2022-10-06T19:01:50Z</time>
      </trkpt>
      <trkpt lat="10.2664658" lon="-85.5868778">
        <ele>79.0</ele>
        <time>2022-10-06T19:01:51Z</time>
      </trkpt>
      <trkpt lat="10.2664658" lon="-85.5868778">
        <ele>79.0</ele>
        <time>2022-10-06T19:01:52Z</time>
      </trkpt>
      <trkpt lat="10.2664658" lon="-85.5868778">
        <ele>79.0</ele>
        <time>2022-10-06T19:01:53Z</time>
      </trkpt>
      <trkpt lat="10.2664658" lon="-85.5868778">
        <ele>79.0</ele>
        <time>2022-10-06T19:01:54Z</time>
      </trkpt>
      <trkpt lat="10.2664658" lon="-85.5868778">
        <ele>79.1</ele>
        <time>2022-10-06T19:01:55Z</time>
      </trkpt>
      <trkpt lat="10.2664658" lon="-85.5868778">
        <ele>79.0</ele>
        <time>2022-10-06T19:01:56Z</time>
      </trkpt>
      <trkpt lat="10.2664658" lon="-85.5868778">
        <ele>79.1</ele>
        <time>2022-10-06T19:01:57Z</time>
      </trkpt>
      <trkpt lat="10.2664658" lon="-85.5868778">
        <ele>79.0</ele>
        <time>2022-10-06T19:01:58Z</time>
      </trkpt>
      <trkpt lat="10.2664658" lon="-85.5868778">
        <ele>79.0</ele>
        <time>2022-10-06T19:01:59Z</time>
      </trkpt>
      <trkpt lat="10.2664658" lon="-85.5868778">
        <ele>79.0</ele>
        <time>2022-10-06T19:02:00Z</time>
      </trkpt>
      <trkpt lat="10.2664658" lon="-85.5868778">
        <ele>78.9</ele>
        <time>2022-10-06T19:02:01Z</time>
      </trkpt>
      <trkpt lat="10.2664521" lon="-85.5868923">
        <ele>78.9</ele>
        <time>2022-10-06T19:02:02Z</time>
      </trkpt>
      <trkpt lat="10.2664372" lon="-85.5868883">
        <ele>78.9</ele>
        <time>2022-10-06T19:02:03Z</time>
      </trkpt>
      <trkpt lat="10.2664196" lon="-85.5868842">
        <ele>79.2</ele>
        <time>2022-10-06T19:02:04Z</time>
      </trkpt>
      <trkpt lat="10.2663963" lon="-85.5868789">
        <ele>79.4</ele>
        <time>2022-10-06T19:02:05Z</time>
      </trkpt>
      <trkpt lat="10.2663694" lon="-85.5868726">
        <ele>79.4</ele>
        <time>2022-10-06T19:02:06Z</time>
      </trkpt>
      <trkpt lat="10.2663464" lon="-85.5868666">
        <ele>79.3</ele>
        <time>2022-10-06T19:02:07Z</time>
      </trkpt>
      <trkpt lat="10.2663305" lon="-85.5868633">
        <ele>79.4</ele>
        <time>2022-10-06T19:02:08Z</time>
      </trkpt>
      <trkpt lat="10.2663219" lon="-85.5868594">
        <ele>79.3</ele>
        <time>2022-10-06T19:02:09Z</time>
      </trkpt>
      <trkpt lat="10.2663219" lon="-85.5868594">
        <ele>79.2</ele>
        <time>2022-10-06T19:02:10Z</time>
      </trkpt>
      <trkpt lat="10.2663219" lon="-85.5868594">
        <ele>79.2</ele>
        <time>2022-10-06T19:02:11Z</time>
      </trkpt>
      <trkpt lat="10.2663219" lon="-85.5868594">
        <ele>79.2</ele>
        <time>2022-10-06T19:02:12Z</time>
      </trkpt>
      <trkpt lat="10.2663219" lon="-85.5868594">
        <ele>79.3</ele>
        <time>2022-10-06T19:02:13Z</time>
      </trkpt>
      <trkpt lat="10.2663219" lon="-85.5868594">
        <ele>79.3</ele>
        <time>2022-10-06T19:02:14Z</time>
      </trkpt>
      <trkpt lat="10.2663219" lon="-85.5868594">
        <ele>79.3</ele>
        <time>2022-10-06T19:02:15Z</time>
      </trkpt>
      <trkpt lat="10.2663219" lon="-85.5868594">
        <ele>79.3</ele>
        <time>2022-10-06T19:02:16Z</time>
      </trkpt>
      <trkpt lat="10.2663219" lon="-85.5868594">
        <ele>79.3</ele>
        <time>2022-10-06T19:02:17Z</time>
      </trkpt>
      <trkpt lat="10.2663219" lon="-85.5868594">
        <ele>79.3</ele>
        <time>2022-10-06T19:02:18Z</time>
      </trkpt>
      <trkpt lat="10.2663219" lon="-85.5868594">
        <ele>79.3</ele>
        <time>2022-10-06T19:02:19Z</time>
      </trkpt>
      <trkpt lat="10.2663219" lon="-85.5868594">
        <ele>79.3</ele>
        <time>2022-10-06T19:02:20Z</time>
      </trkpt>
      <trkpt lat="10.2663219" lon="-85.5868594">
        <ele>79.4</ele>
        <time>2022-10-06T19:02:21Z</time>
      </trkpt>
      <trkpt lat="10.2663219" lon="-85.5868594">
        <ele>79.3</ele>
        <time>2022-10-06T19:02:22Z</time>
      </trkpt>
      <trkpt lat="10.2663219" lon="-85.5868594">
        <ele>79.2</ele>
        <time>2022-10-06T19:02:23Z</time>
      </trkpt>
      <trkpt lat="10.2663219" lon="-85.5868594">
        <ele>79.2</ele>
        <time>2022-10-06T19:02:24Z</time>
      </trkpt>
      <trkpt lat="10.2663219" lon="-85.5868594">
        <ele>79.2</ele>
        <time>2022-10-06T19:02:25Z</time>
      </trkpt>
      <trkpt lat="10.2663289" lon="-85.5868450">
        <ele>79.3</ele>
        <time>2022-10-06T19:02:26Z</time>
      </trkpt>
      <trkpt lat="10.2663130" lon="-85.5868438">
        <ele>79.3</ele>
        <time>2022-10-06T19:02:27Z</time>
      </trkpt>
      <trkpt lat="10.2662885" lon="-85.5868440">
        <ele>79.4</ele>
        <time>2022-10-06T19:02:28Z</time>
      </trkpt>
      <trkpt lat="10.2662602" lon="-85.5868423">
        <ele>79.5</ele>
        <time>2022-10-06T19:02:29Z</time>
      </trkpt>
      <trkpt lat="10.2662257" lon="-85.5868401">
        <ele>79.5</ele>
        <time>2022-10-06T19:02:30Z</time>
      </trkpt>
      <trkpt lat="10.2661892" lon="-85.5868353">
        <ele>79.6</ele>
        <time>2022-10-06T19:02:31Z</time>
      </trkpt>
      <trkpt lat="10.2661506" lon="-85.5868281">
        <ele>79.7</ele>
        <time>2022-10-06T19:02:32Z</time>
      </trkpt>
      <trkpt lat="10.2661116" lon="-85.5868245">
        <ele>79.8</ele>
        <time>2022-10-06T19:02:33Z</time>
      </trkpt>
      <trkpt lat="10.2660728" lon="-85.5868226">
        <ele>79.9</ele>
        <time>2022-10-06T19:02:34Z</time>
      </trkpt>
      <trkpt lat="10.2660341" lon="-85.5868196">
        <ele>80.0</ele>
        <time>2022-10-06T19:02:35Z</time>
      </trkpt>
      <trkpt lat="10.2659923" lon="-85.5868140">
        <ele>80.2</ele>
        <time>2022-10-06T19:02:36Z</time>
      </trkpt>
      <trkpt lat="10.2659498" lon="-85.5868086">
        <ele>80.3</ele>
        <time>2022-10-06T19:02:37Z</time>
      </trkpt>
      <trkpt lat="10.2659059" lon="-85.5868029">
        <ele>80.4</ele>
        <time>2022-10-06T19:02:38Z</time>
      </trkpt>
      <trkpt lat="10.2658616" lon="-85.5867975">
        <ele>80.6</ele>
        <time>2022-10-06T19:02:39Z</time>
      </trkpt>
      <trkpt lat="10.2658174" lon="-85.5867926">
        <ele>80.6</ele>
        <time>2022-10-06T19:02:40Z</time>
      </trkpt>
      <trkpt lat="10.2657723" lon="-85.5867860">
        <ele>80.6</ele>
        <time>2022-10-06T19:02:41Z</time>
      </trkpt>
      <trkpt lat="10.2657313" lon="-85.5867794">
        <ele>80.7</ele>
        <time>2022-10-06T19:02:42Z</time>
      </trkpt>
      <trkpt lat="10.2656932" lon="-85.5867740">
        <ele>80.7</ele>
        <time>2022-10-06T19:02:43Z</time>
      </trkpt>
      <trkpt lat="10.2656566" lon="-85.5867682">
        <ele>80.7</ele>
        <time>2022-10-06T19:02:44Z</time>
      </trkpt>
      <trkpt lat="10.2656242" lon="-85.5867623">
        <ele>80.7</ele>
        <time>2022-10-06T19:02:45Z</time>
      </trkpt>
      <trkpt lat="10.2655953" lon="-85.5867582">
        <ele>80.6</ele>
        <time>2022-10-06T19:02:46Z</time>
      </trkpt>
      <trkpt lat="10.2655675" lon="-85.5867544">
        <ele>80.5</ele>
        <time>2022-10-06T19:02:47Z</time>
      </trkpt>
      <trkpt lat="10.2655467" lon="-85.5867523">
        <ele>80.5</ele>
        <time>2022-10-06T19:02:48Z</time>
      </trkpt>
      <trkpt lat="10.2655298" lon="-85.5867500">
        <ele>80.5</ele>
        <time>2022-10-06T19:02:49Z</time>
      </trkpt>
      <trkpt lat="10.2655166" lon="-85.5867469">
        <ele>80.5</ele>
        <time>2022-10-06T19:02:50Z</time>
      </trkpt>
      <trkpt lat="10.2655085" lon="-85.5867435">
        <ele>80.4</ele>
        <time>2022-10-06T19:02:51Z</time>
      </trkpt>
      <trkpt lat="10.2655038" lon="-85.5867408">
        <ele>80.2</ele>
        <time>2022-10-06T19:02:52Z</time>
      </trkpt>
      <trkpt lat="10.2655038" lon="-85.5867408">
        <ele>80.2</ele>
        <time>2022-10-06T19:02:53Z</time>
      </trkpt>
      <trkpt lat="10.2655038" lon="-85.5867408">
        <ele>80.2</ele>
        <time>2022-10-06T19:02:54Z</time>
      </trkpt>
      <trkpt lat="10.2655038" lon="-85.5867408">
        <ele>80.2</ele>
        <time>2022-10-06T19:02:55Z</time>
      </trkpt>
      <trkpt lat="10.2655038" lon="-85.5867408">
        <ele>80.2</ele>
        <time>2022-10-06T19:02:56Z</time>
      </trkpt>
      <trkpt lat="10.2655038" lon="-85.5867408">
        <ele>80.3</ele>
        <time>2022-10-06T19:02:57Z</time>
      </trkpt>
      <trkpt lat="10.2655038" lon="-85.5867408">
        <ele>80.3</ele>
        <time>2022-10-06T19:02:58Z</time>
      </trkpt>
      <trkpt lat="10.2655038" lon="-85.5867408">
        <ele>80.3</ele>
        <time>2022-10-06T19:02:59Z</time>
      </trkpt>
      <trkpt lat="10.2655038" lon="-85.5867408">
        <ele>80.3</ele>
        <time>2022-10-06T19:03:00Z</time>
      </trkpt>
      <trkpt lat="10.2655038" lon="-85.5867408">
        <ele>80.3</ele>
        <time>2022-10-06T19:03:01Z</time>
      </trkpt>
      <trkpt lat="10.2655038" lon="-85.5867408">
        <ele>80.3</ele>
        <time>2022-10-06T19:03:02Z</time>
      </trkpt>
      <trkpt lat="10.2655038" lon="-85.5867408">
        <ele>80.4</ele>
        <time>2022-10-06T19:03:03Z</time>
      </trkpt>
      <trkpt lat="10.2655038" lon="-85.5867408">
        <ele>80.5</ele>
        <time>2022-10-06T19:03:04Z</time>
      </trkpt>
      <trkpt lat="10.2655038" lon="-85.5867408">
        <ele>80.5</ele>
        <time>2022-10-06T19:03:05Z</time>
      </trkpt>
      <trkpt lat="10.2655038" lon="-85.5867408">
        <ele>80.6</ele>
        <time>2022-10-06T19:03:06Z</time>
      </trkpt>
      <trkpt lat="10.2655038" lon="-85.5867408">
        <ele>80.6</ele>
        <time>2022-10-06T19:03:07Z</time>
      </trkpt>
      <trkpt lat="10.2655038" lon="-85.5867408">
        <ele>80.7</ele>
        <time>2022-10-06T19:03:08Z</time>
      </trkpt>
      <trkpt lat="10.2655038" lon="-85.5867408">
        <ele>80.7</ele>
        <time>2022-10-06T19:03:09Z</time>
      </trkpt>
      <trkpt lat="10.2655038" lon="-85.5867408">
        <ele>80.7</ele>
        <time>2022-10-06T19:03:10Z</time>
      </trkpt>
      <trkpt lat="10.2655038" lon="-85.5867408">
        <ele>80.7</ele>
        <time>2022-10-06T19:03:11Z</time>
      </trkpt>
      <trkpt lat="10.2655038" lon="-85.5867408">
        <ele>80.8</ele>
        <time>2022-10-06T19:03:12Z</time>
      </trkpt>
      <trkpt lat="10.2655038" lon="-85.5867408">
        <ele>80.9</ele>
        <time>2022-10-06T19:03:13Z</time>
      </trkpt>
      <trkpt lat="10.2655038" lon="-85.5867408">
        <ele>80.9</ele>
        <time>2022-10-06T19:03:14Z</time>
      </trkpt>
      <trkpt lat="10.2655038" lon="-85.5867408">
        <ele>81.0</ele>
        <time>2022-10-06T19:03:15Z</time>
      </trkpt>
      <trkpt lat="10.2655038" lon="-85.5867408">
        <ele>81.0</ele>
        <time>2022-10-06T19:03:16Z</time>
      </trkpt>
      <trkpt lat="10.2655038" lon="-85.5867408">
        <ele>81.0</ele>
        <time>2022-10-06T19:03:17Z</time>
      </trkpt>
      <trkpt lat="10.2655038" lon="-85.5867408">
        <ele>81.0</ele>
        <time>2022-10-06T19:03:18Z</time>
      </trkpt>
      <trkpt lat="10.2655038" lon="-85.5867408">
        <ele>81.1</ele>
        <time>2022-10-06T19:03:19Z</time>
      </trkpt>
      <trkpt lat="10.2655038" lon="-85.5867408">
        <ele>81.0</ele>
        <time>2022-10-06T19:03:20Z</time>
      </trkpt>
      <trkpt lat="10.2655038" lon="-85.5867408">
        <ele>81.0</ele>
        <time>2022-10-06T19:03:21Z</time>
      </trkpt>
      <trkpt lat="10.2655038" lon="-85.5867408">
        <ele>81.1</ele>
        <time>2022-10-06T19:03:22Z</time>
      </trkpt>
      <trkpt lat="10.2655038" lon="-85.5867408">
        <ele>81.2</ele>
        <time>2022-10-06T19:03:23Z</time>
      </trkpt>
      <trkpt lat="10.2655038" lon="-85.5867408">
        <ele>81.2</ele>
        <time>2022-10-06T19:03:24Z</time>
      </trkpt>
      <trkpt lat="10.2655038" lon="-85.5867408">
        <ele>81.4</ele>
        <time>2022-10-06T19:03:25Z</time>
      </trkpt>
      <trkpt lat="10.2655038" lon="-85.5867408">
        <ele>81.5</ele>
        <time>2022-10-06T19:03:26Z</time>
      </trkpt>
      <trkpt lat="10.2655038" lon="-85.5867408">
        <ele>81.5</ele>
        <time>2022-10-06T19:03:27Z</time>
      </trkpt>
      <trkpt lat="10.2655038" lon="-85.5867408">
        <ele>81.4</ele>
        <time>2022-10-06T19:03:28Z</time>
      </trkpt>
      <trkpt lat="10.2655038" lon="-85.5867408">
        <ele>81.5</ele>
        <time>2022-10-06T19:03:29Z</time>
      </trkpt>
      <trkpt lat="10.2655038" lon="-85.5867408">
        <ele>81.4</ele>
        <time>2022-10-06T19:03:30Z</time>
      </trkpt>
      <trkpt lat="10.2655038" lon="-85.5867408">
        <ele>81.4</ele>
        <time>2022-10-06T19:03:31Z</time>
      </trkpt>
      <trkpt lat="10.2655038" lon="-85.5867408">
        <ele>81.4</ele>
        <time>2022-10-06T19:03:32Z</time>
      </trkpt>
      <trkpt lat="10.2655038" lon="-85.5867408">
        <ele>81.4</ele>
        <time>2022-10-06T19:03:33Z</time>
      </trkpt>
      <trkpt lat="10.2655038" lon="-85.5867408">
        <ele>81.3</ele>
        <time>2022-10-06T19:03:34Z</time>
      </trkpt>
      <trkpt lat="10.2655038" lon="-85.5867408">
        <ele>81.3</ele>
        <time>2022-10-06T19:03:35Z</time>
      </trkpt>
      <trkpt lat="10.2654887" lon="-85.5867207">
        <ele>81.3</ele>
        <time>2022-10-06T19:03:36Z</time>
      </trkpt>
      <trkpt lat="10.2654836" lon="-85.5867208">
        <ele>81.8</ele>
        <time>2022-10-06T19:03:37Z</time>
      </trkpt>
      <trkpt lat="10.2654732" lon="-85.5867211">
        <ele>81.8</ele>
        <time>2022-10-06T19:03:38Z</time>
      </trkpt>
      <trkpt lat="10.2654620" lon="-85.5867195">
        <ele>81.8</ele>
        <time>2022-10-06T19:03:39Z</time>
      </trkpt>
      <trkpt lat="10.2654497" lon="-85.5867163">
        <ele>81.9</ele>
        <time>2022-10-06T19:03:40Z</time>
      </trkpt>
      <trkpt lat="10.2654338" lon="-85.5867135">
        <ele>82.0</ele>
        <time>2022-10-06T19:03:41Z</time>
      </trkpt>
      <trkpt lat="10.2654301" lon="-85.5867126">
        <ele>82.1</ele>
        <time>2022-10-06T19:03:42Z</time>
      </trkpt>
      <trkpt lat="10.2654155" lon="-85.5867098">
        <ele>82.1</ele>
        <time>2022-10-06T19:03:43Z</time>
      </trkpt>
      <trkpt lat="10.2654016" lon="-85.5867067">
        <ele>82.1</ele>
        <time>2022-10-06T19:03:44Z</time>
      </trkpt>
      <trkpt lat="10.2653883" lon="-85.5867036">
        <ele>82.2</ele>
        <time>2022-10-06T19:03:45Z</time>
      </trkpt>
      <trkpt lat="10.2653750" lon="-85.5867024">
        <ele>82.0</ele>
        <time>2022-10-06T19:03:46Z</time>
      </trkpt>
      <trkpt lat="10.2653584" lon="-85.5867011">
        <ele>82.1</ele>
        <time>2022-10-06T19:03:47Z</time>
      </trkpt>
      <trkpt lat="10.2653455" lon="-85.5866997">
        <ele>82.0</ele>
        <time>2022-10-06T19:03:48Z</time>
      </trkpt>
      <trkpt lat="10.2653407" lon="-85.5866990">
        <ele>81.9</ele>
        <time>2022-10-06T19:03:49Z</time>
      </trkpt>
      <trkpt lat="10.2653393" lon="-85.5866991">
        <ele>81.7</ele>
        <time>2022-10-06T19:03:50Z</time>
      </trkpt>
      <trkpt lat="10.2653344" lon="-85.5866996">
        <ele>81.5</ele>
        <time>2022-10-06T19:03:51Z</time>
      </trkpt>
      <trkpt lat="10.2653278" lon="-85.5867004">
        <ele>81.5</ele>
        <time>2022-10-06T19:03:52Z</time>
      </trkpt>
      <trkpt lat="10.2653173" lon="-85.5866996">
        <ele>81.5</ele>
        <time>2022-10-06T19:03:53Z</time>
      </trkpt>
      <trkpt lat="10.2653067" lon="-85.5866981">
        <ele>81.5</ele>
        <time>2022-10-06T19:03:54Z</time>
      </trkpt>
      <trkpt lat="10.2652996" lon="-85.5866979">
        <ele>81.6</ele>
        <time>2022-10-06T19:03:55Z</time>
      </trkpt>
      <trkpt lat="10.2652848" lon="-85.5866947">
        <ele>81.6</ele>
        <time>2022-10-06T19:03:56Z</time>
      </trkpt>
      <trkpt lat="10.2652707" lon="-85.5866927">
        <ele>81.6</ele>
        <time>2022-10-06T19:03:57Z</time>
      </trkpt>
      <trkpt lat="10.2652562" lon="-85.5866914">
        <ele>81.6</ele>
        <time>2022-10-06T19:03:58Z</time>
      </trkpt>
      <trkpt lat="10.2652505" lon="-85.5866904">
        <ele>81.7</ele>
        <time>2022-10-06T19:03:59Z</time>
      </trkpt>
      <trkpt lat="10.2652454" lon="-85.5866886">
        <ele>81.8</ele>
        <time>2022-10-06T19:04:00Z</time>
      </trkpt>
      <trkpt lat="10.2652454" lon="-85.5866886">
        <ele>81.7</ele>
        <time>2022-10-06T19:04:01Z</time>
      </trkpt>
      <trkpt lat="10.2652454" lon="-85.5866886">
        <ele>81.7</ele>
        <time>2022-10-06T19:04:02Z</time>
      </trkpt>
      <trkpt lat="10.2652454" lon="-85.5866886">
        <ele>81.6</ele>
        <time>2022-10-06T19:04:03Z</time>
      </trkpt>
      <trkpt lat="10.2652277" lon="-85.5866890">
        <ele>81.5</ele>
        <time>2022-10-06T19:04:04Z</time>
      </trkpt>
      <trkpt lat="10.2652277" lon="-85.5866890">
        <ele>81.6</ele>
        <time>2022-10-06T19:04:05Z</time>
      </trkpt>
      <trkpt lat="10.2652277" lon="-85.5866890">
        <ele>81.6</ele>
        <time>2022-10-06T19:04:06Z</time>
      </trkpt>
      <trkpt lat="10.2652277" lon="-85.5866890">
        <ele>81.7</ele>
        <time>2022-10-06T19:04:07Z</time>
      </trkpt>
      <trkpt lat="10.2651927" lon="-85.5866871">
        <ele>81.6</ele>
        <time>2022-10-06T19:04:08Z</time>
      </trkpt>
      <trkpt lat="10.2651811" lon="-85.5866854">
        <ele>81.6</ele>
        <time>2022-10-06T19:04:09Z</time>
      </trkpt>
      <trkpt lat="10.2651674" lon="-85.5866825">
        <ele>81.6</ele>
        <time>2022-10-06T19:04:10Z</time>
      </trkpt>
      <trkpt lat="10.2651557" lon="-85.5866809">
        <ele>81.5</ele>
        <time>2022-10-06T19:04:11Z</time>
      </trkpt>
      <trkpt lat="10.2651450" lon="-85.5866781">
        <ele>81.7</ele>
        <time>2022-10-06T19:04:12Z</time>
      </trkpt>
      <trkpt lat="10.2651275" lon="-85.5866720">
        <ele>81.8</ele>
        <time>2022-10-06T19:04:13Z</time>
      </trkpt>
      <trkpt lat="10.2651165" lon="-85.5866685">
        <ele>81.8</ele>
        <time>2022-10-06T19:04:14Z</time>
      </trkpt>
      <trkpt lat="10.2651012" lon="-85.5866654">
        <ele>81.8</ele>
        <time>2022-10-06T19:04:15Z</time>
      </trkpt>
      <trkpt lat="10.2650885" lon="-85.5866636">
        <ele>81.9</ele>
        <time>2022-10-06T19:04:16Z</time>
      </trkpt>
      <trkpt lat="10.2650803" lon="-85.5866626">
        <ele>81.9</ele>
        <time>2022-10-06T19:04:17Z</time>
      </trkpt>
      <trkpt lat="10.2650778" lon="-85.5866631">
        <ele>81.9</ele>
        <time>2022-10-06T19:04:18Z</time>
      </trkpt>
      <trkpt lat="10.2650746" lon="-85.5866641">
        <ele>82.0</ele>
        <time>2022-10-06T19:04:19Z</time>
      </trkpt>
      <trkpt lat="10.2650746" lon="-85.5866641">
        <ele>82.1</ele>
        <time>2022-10-06T19:04:20Z</time>
      </trkpt>
      <trkpt lat="10.2650746" lon="-85.5866641">
        <ele>82.0</ele>
        <time>2022-10-06T19:04:21Z</time>
      </trkpt>
      <trkpt lat="10.2650746" lon="-85.5866641">
        <ele>82.2</ele>
        <time>2022-10-06T19:04:22Z</time>
      </trkpt>
      <trkpt lat="10.2650746" lon="-85.5866641">
        <ele>82.1</ele>
        <time>2022-10-06T19:04:23Z</time>
      </trkpt>
      <trkpt lat="10.2650746" lon="-85.5866641">
        <ele>82.1</ele>
        <time>2022-10-06T19:04:24Z</time>
      </trkpt>
      <trkpt lat="10.2650746" lon="-85.5866641">
        <ele>82.1</ele>
        <time>2022-10-06T19:04:25Z</time>
      </trkpt>
      <trkpt lat="10.2650627" lon="-85.5866696">
        <ele>82.1</ele>
        <time>2022-10-06T19:04:26Z</time>
      </trkpt>
      <trkpt lat="10.2650543" lon="-85.5866685">
        <ele>82.5</ele>
        <time>2022-10-06T19:04:27Z</time>
      </trkpt>
      <trkpt lat="10.2650435" lon="-85.5866665">
        <ele>82.5</ele>
        <time>2022-10-06T19:04:28Z</time>
      </trkpt>
      <trkpt lat="10.2650308" lon="-85.5866646">
        <ele>82.6</ele>
        <time>2022-10-06T19:04:29Z</time>
      </trkpt>
      <trkpt lat="10.2650103" lon="-85.5866632">
        <ele>82.6</ele>
        <time>2022-10-06T19:04:30Z</time>
      </trkpt>
      <trkpt lat="10.2649816" lon="-85.5866600">
        <ele>82.7</ele>
        <time>2022-10-06T19:04:31Z</time>
      </trkpt>
      <trkpt lat="10.2649422" lon="-85.5866543">
        <ele>82.6</ele>
        <time>2022-10-06T19:04:32Z</time>
      </trkpt>
      <trkpt lat="10.2648953" lon="-85.5866477">
        <ele>82.6</ele>
        <time>2022-10-06T19:04:33Z</time>
      </trkpt>
      <trkpt lat="10.2648499" lon="-85.5866419">
        <ele>82.6</ele>
        <time>2022-10-06T19:04:34Z</time>
      </trkpt>
      <trkpt lat="10.2648057" lon="-85.5866361">
        <ele>82.7</ele>
        <time>2022-10-06T19:04:35Z</time>
      </trkpt>
      <trkpt lat="10.2647621" lon="-85.5866293">
        <ele>82.6</ele>
        <time>2022-10-06T19:04:36Z</time>
      </trkpt>
      <trkpt lat="10.2647173" lon="-85.5866219">
        <ele>82.7</ele>
        <time>2022-10-06T19:04:37Z</time>
      </trkpt>
      <trkpt lat="10.2646735" lon="-85.5866146">
        <ele>82.7</ele>
        <time>2022-10-06T19:04:38Z</time>
      </trkpt>
      <trkpt lat="10.2646253" lon="-85.5866059">
        <ele>82.6</ele>
        <time>2022-10-06T19:04:39Z</time>
      </trkpt>
      <trkpt lat="10.2645755" lon="-85.5865961">
        <ele>82.6</ele>
        <time>2022-10-06T19:04:40Z</time>
      </trkpt>
      <trkpt lat="10.2645247" lon="-85.5865836">
        <ele>82.5</ele>
        <time>2022-10-06T19:04:41Z</time>
      </trkpt>
      <trkpt lat="10.2644727" lon="-85.5865700">
        <ele>82.6</ele>
        <time>2022-10-06T19:04:42Z</time>
      </trkpt>
      <trkpt lat="10.2644283" lon="-85.5865590">
        <ele>82.5</ele>
        <time>2022-10-06T19:04:43Z</time>
      </trkpt>
      <trkpt lat="10.2643900" lon="-85.5865522">
        <ele>82.5</ele>
        <time>2022-10-06T19:04:44Z</time>
      </trkpt>
      <trkpt lat="10.2643496" lon="-85.5865463">
        <ele>82.5</ele>
        <time>2022-10-06T19:04:45Z</time>
      </trkpt>
      <trkpt lat="10.2643145" lon="-85.5865425">
        <ele>82.5</ele>
        <time>2022-10-06T19:04:46Z</time>
      </trkpt>
      <trkpt lat="10.2642854" lon="-85.5865375">
        <ele>82.6</ele>
        <time>2022-10-06T19:04:47Z</time>
      </trkpt>
      <trkpt lat="10.2642530" lon="-85.5865323">
        <ele>82.6</ele>
        <time>2022-10-06T19:04:48Z</time>
      </trkpt>
      <trkpt lat="10.2642128" lon="-85.5865239">
        <ele>82.6</ele>
        <time>2022-10-06T19:04:49Z</time>
      </trkpt>
      <trkpt lat="10.2641705" lon="-85.5865158">
        <ele>82.6</ele>
        <time>2022-10-06T19:04:50Z</time>
      </trkpt>
      <trkpt lat="10.2641257" lon="-85.5865067">
        <ele>82.2</ele>
        <time>2022-10-06T19:04:51Z</time>
      </trkpt>
      <trkpt lat="10.2640748" lon="-85.5865032">
        <ele>82.2</ele>
        <time>2022-10-06T19:04:52Z</time>
      </trkpt>
      <trkpt lat="10.2640183" lon="-85.5865013">
        <ele>82.3</ele>
        <time>2022-10-06T19:04:53Z</time>
      </trkpt>
      <trkpt lat="10.2639598" lon="-85.5864970">
        <ele>82.4</ele>
        <time>2022-10-06T19:04:54Z</time>
      </trkpt>
      <trkpt lat="10.2638971" lon="-85.5864869">
        <ele>82.3</ele>
        <time>2022-10-06T19:04:55Z</time>
      </trkpt>
      <trkpt lat="10.2638281" lon="-85.5864762">
        <ele>82.4</ele>
        <time>2022-10-06T19:04:56Z</time>
      </trkpt>
      <trkpt lat="10.2637594" lon="-85.5864643">
        <ele>82.3</ele>
        <time>2022-10-06T19:04:57Z</time>
      </trkpt>
      <trkpt lat="10.2636952" lon="-85.5864506">
        <ele>82.3</ele>
        <time>2022-10-06T19:04:58Z</time>
      </trkpt>
      <trkpt lat="10.2636312" lon="-85.5864406">
        <ele>82.4</ele>
        <time>2022-10-06T19:04:59Z</time>
      </trkpt>
      <trkpt lat="10.2635696" lon="-85.5864310">
        <ele>82.5</ele>
        <time>2022-10-06T19:05:00Z</time>
      </trkpt>
      <trkpt lat="10.2635120" lon="-85.5864223">
        <ele>82.5</ele>
        <time>2022-10-06T19:05:01Z</time>
      </trkpt>
      <trkpt lat="10.2634574" lon="-85.5864139">
        <ele>82.4</ele>
        <time>2022-10-06T19:05:02Z</time>
      </trkpt>
      <trkpt lat="10.2634108" lon="-85.5864049">
        <ele>82.6</ele>
        <time>2022-10-06T19:05:03Z</time>
      </trkpt>
      <trkpt lat="10.2633696" lon="-85.5863960">
        <ele>82.7</ele>
        <time>2022-10-06T19:05:04Z</time>
      </trkpt>
      <trkpt lat="10.2633288" lon="-85.5863848">
        <ele>82.7</ele>
        <time>2022-10-06T19:05:05Z</time>
      </trkpt>
      <trkpt lat="10.2632879" lon="-85.5863701">
        <ele>82.6</ele>
        <time>2022-10-06T19:05:06Z</time>
      </trkpt>
      <trkpt lat="10.2632412" lon="-85.5863547">
        <ele>82.6</ele>
        <time>2022-10-06T19:05:07Z</time>
      </trkpt>
      <trkpt lat="10.2631904" lon="-85.5863425">
        <ele>82.7</ele>
        <time>2022-10-06T19:05:08Z</time>
      </trkpt>
      <trkpt lat="10.2631307" lon="-85.5863343">
        <ele>82.8</ele>
        <time>2022-10-06T19:05:09Z</time>
      </trkpt>
      <trkpt lat="10.2630671" lon="-85.5863221">
        <ele>82.9</ele>
        <time>2022-10-06T19:05:10Z</time>
      </trkpt>
      <trkpt lat="10.2630014" lon="-85.5863085">
        <ele>82.9</ele>
        <time>2022-10-06T19:05:11Z</time>
      </trkpt>
      <trkpt lat="10.2629318" lon="-85.5862968">
        <ele>83.1</ele>
        <time>2022-10-06T19:05:12Z</time>
      </trkpt>
      <trkpt lat="10.2628647" lon="-85.5862864">
        <ele>83.2</ele>
        <time>2022-10-06T19:05:13Z</time>
      </trkpt>
      <trkpt lat="10.2628001" lon="-85.5862769">
        <ele>83.2</ele>
        <time>2022-10-06T19:05:14Z</time>
      </trkpt>
      <trkpt lat="10.2627397" lon="-85.5862697">
        <ele>83.3</ele>
        <time>2022-10-06T19:05:15Z</time>
      </trkpt>
      <trkpt lat="10.2626788" lon="-85.5862619">
        <ele>83.2</ele>
        <time>2022-10-06T19:05:16Z</time>
      </trkpt>
      <trkpt lat="10.2626178" lon="-85.5862544">
        <ele>83.3</ele>
        <time>2022-10-06T19:05:17Z</time>
      </trkpt>
      <trkpt lat="10.2625604" lon="-85.5862491">
        <ele>83.3</ele>
        <time>2022-10-06T19:05:18Z</time>
      </trkpt>
      <trkpt lat="10.2625071" lon="-85.5862431">
        <ele>83.2</ele>
        <time>2022-10-06T19:05:19Z</time>
      </trkpt>
      <trkpt lat="10.2624599" lon="-85.5862391">
        <ele>83.1</ele>
        <time>2022-10-06T19:05:20Z</time>
      </trkpt>
      <trkpt lat="10.2624163" lon="-85.5862346">
        <ele>83.5</ele>
        <time>2022-10-06T19:05:21Z</time>
      </trkpt>
      <trkpt lat="10.2623746" lon="-85.5862299">
        <ele>83.5</ele>
        <time>2022-10-06T19:05:22Z</time>
      </trkpt>
      <trkpt lat="10.2623333" lon="-85.5862241">
        <ele>83.4</ele>
        <time>2022-10-06T19:05:23Z</time>
      </trkpt>
      <trkpt lat="10.2622928" lon="-85.5862175">
        <ele>83.6</ele>
        <time>2022-10-06T19:05:24Z</time>
      </trkpt>
      <trkpt lat="10.2622507" lon="-85.5862099">
        <ele>83.7</ele>
        <time>2022-10-06T19:05:25Z</time>
      </trkpt>
      <trkpt lat="10.2622037" lon="-85.5862034">
        <ele>83.9</ele>
        <time>2022-10-06T19:05:26Z</time>
      </trkpt>
      <trkpt lat="10.2621574" lon="-85.5861975">
        <ele>84.1</ele>
        <time>2022-10-06T19:05:27Z</time>
      </trkpt>
      <trkpt lat="10.2621066" lon="-85.5861912">
        <ele>84.1</ele>
        <time>2022-10-06T19:05:28Z</time>
      </trkpt>
      <trkpt lat="10.2620575" lon="-85.5861847">
        <ele>84.2</ele>
        <time>2022-10-06T19:05:29Z</time>
      </trkpt>
      <trkpt lat="10.2620090" lon="-85.5861774">
        <ele>84.1</ele>
        <time>2022-10-06T19:05:30Z</time>
      </trkpt>
      <trkpt lat="10.2619633" lon="-85.5861705">
        <ele>84.2</ele>
        <time>2022-10-06T19:05:31Z</time>
      </trkpt>
      <trkpt lat="10.2619207" lon="-85.5861648">
        <ele>84.3</ele>
        <time>2022-10-06T19:05:32Z</time>
      </trkpt>
      <trkpt lat="10.2618851" lon="-85.5861598">
        <ele>84.4</ele>
        <time>2022-10-06T19:05:33Z</time>
      </trkpt>
      <trkpt lat="10.2618501" lon="-85.5861552">
        <ele>84.9</ele>
        <time>2022-10-06T19:05:34Z</time>
      </trkpt>
      <trkpt lat="10.2618132" lon="-85.5861500">
        <ele>85.0</ele>
        <time>2022-10-06T19:05:35Z</time>
      </trkpt>
      <trkpt lat="10.2617784" lon="-85.5861451">
        <ele>84.9</ele>
        <time>2022-10-06T19:05:36Z</time>
      </trkpt>
      <trkpt lat="10.2617491" lon="-85.5861407">
        <ele>84.8</ele>
        <time>2022-10-06T19:05:37Z</time>
      </trkpt>
      <trkpt lat="10.2617215" lon="-85.5861348">
        <ele>84.7</ele>
        <time>2022-10-06T19:05:38Z</time>
      </trkpt>
      <trkpt lat="10.2616984" lon="-85.5861308">
        <ele>84.6</ele>
        <time>2022-10-06T19:05:39Z</time>
      </trkpt>
      <trkpt lat="10.2616741" lon="-85.5861256">
        <ele>84.5</ele>
        <time>2022-10-06T19:05:40Z</time>
      </trkpt>
      <trkpt lat="10.2616526" lon="-85.5861212">
        <ele>84.4</ele>
        <time>2022-10-06T19:05:41Z</time>
      </trkpt>
      <trkpt lat="10.2616360" lon="-85.5861187">
        <ele>84.3</ele>
        <time>2022-10-06T19:05:42Z</time>
      </trkpt>
      <trkpt lat="10.2616205" lon="-85.5861151">
        <ele>84.0</ele>
        <time>2022-10-06T19:05:43Z</time>
      </trkpt>
      <trkpt lat="10.2616034" lon="-85.5861124">
        <ele>84.0</ele>
        <time>2022-10-06T19:05:44Z</time>
      </trkpt>
      <trkpt lat="10.2615896" lon="-85.5861077">
        <ele>84.0</ele>
        <time>2022-10-06T19:05:45Z</time>
      </trkpt>
      <trkpt lat="10.2615779" lon="-85.5861039">
        <ele>84.3</ele>
        <time>2022-10-06T19:05:46Z</time>
      </trkpt>
      <trkpt lat="10.2615688" lon="-85.5861016">
        <ele>84.3</ele>
        <time>2022-10-06T19:05:47Z</time>
      </trkpt>
      <trkpt lat="10.2615620" lon="-85.5860939">
        <ele>84.3</ele>
        <time>2022-10-06T19:05:48Z</time>
      </trkpt>
      <trkpt lat="10.2615496" lon="-85.5860741">
        <ele>84.4</ele>
        <time>2022-10-06T19:05:49Z</time>
      </trkpt>
      <trkpt lat="10.2615375" lon="-85.5860500">
        <ele>84.2</ele>
        <time>2022-10-06T19:05:50Z</time>
      </trkpt>
      <trkpt lat="10.2615538" lon="-85.5860063">
        <ele>84.3</ele>
        <time>2022-10-06T19:05:51Z</time>
      </trkpt>
      <trkpt lat="10.2615607" lon="-85.5859695">
        <ele>84.3</ele>
        <time>2022-10-06T19:05:52Z</time>
      </trkpt>
      <trkpt lat="10.2615696" lon="-85.5859294">
        <ele>84.2</ele>
        <time>2022-10-06T19:05:53Z</time>
      </trkpt>
      <trkpt lat="10.2615781" lon="-85.5858819">
        <ele>84.2</ele>
        <time>2022-10-06T19:05:54Z</time>
      </trkpt>
      <trkpt lat="10.2615872" lon="-85.5858288">
        <ele>84.1</ele>
        <time>2022-10-06T19:05:55Z</time>
      </trkpt>
      <trkpt lat="10.2615991" lon="-85.5857785">
        <ele>84.0</ele>
        <time>2022-10-06T19:05:56Z</time>
      </trkpt>
      <trkpt lat="10.2616092" lon="-85.5857287">
        <ele>83.9</ele>
        <time>2022-10-06T19:05:57Z</time>
      </trkpt>
      <trkpt lat="10.2616189" lon="-85.5856777">
        <ele>83.9</ele>
        <time>2022-10-06T19:05:58Z</time>
      </trkpt>
      <trkpt lat="10.2616262" lon="-85.5856322">
        <ele>83.9</ele>
        <time>2022-10-06T19:05:59Z</time>
      </trkpt>
      <trkpt lat="10.2616337" lon="-85.5855837">
        <ele>83.9</ele>
        <time>2022-10-06T19:06:00Z</time>
      </trkpt>
      <trkpt lat="10.2616403" lon="-85.5855377">
        <ele>84.0</ele>
        <time>2022-10-06T19:06:01Z</time>
      </trkpt>
      <trkpt lat="10.2616487" lon="-85.5854942">
        <ele>84.0</ele>
        <time>2022-10-06T19:06:02Z</time>
      </trkpt>
      <trkpt lat="10.2616566" lon="-85.5854531">
        <ele>84.0</ele>
        <time>2022-10-06T19:06:03Z</time>
      </trkpt>
      <trkpt lat="10.2616623" lon="-85.5854164">
        <ele>83.9</ele>
        <time>2022-10-06T19:06:04Z</time>
      </trkpt>
      <trkpt lat="10.2616643" lon="-85.5853813">
        <ele>83.9</ele>
        <time>2022-10-06T19:06:05Z</time>
      </trkpt>
      <trkpt lat="10.2616667" lon="-85.5853613">
        <ele>83.9</ele>
        <time>2022-10-06T19:06:06Z</time>
      </trkpt>
      <trkpt lat="10.2616689" lon="-85.5853552">
        <ele>83.9</ele>
        <time>2022-10-06T19:06:07Z</time>
      </trkpt>
      <trkpt lat="10.2616706" lon="-85.5853530">
        <ele>83.8</ele>
        <time>2022-10-06T19:06:08Z</time>
      </trkpt>
      <trkpt lat="10.2616742" lon="-85.5853399">
        <ele>83.7</ele>
        <time>2022-10-06T19:06:09Z</time>
      </trkpt>
      <trkpt lat="10.2616801" lon="-85.5853202">
        <ele>83.7</ele>
        <time>2022-10-06T19:06:10Z</time>
      </trkpt>
      <trkpt lat="10.2616877" lon="-85.5852880">
        <ele>83.8</ele>
        <time>2022-10-06T19:06:11Z</time>
      </trkpt>
      <trkpt lat="10.2616991" lon="-85.5852445">
        <ele>83.8</ele>
        <time>2022-10-06T19:06:12Z</time>
      </trkpt>
      <trkpt lat="10.2617087" lon="-85.5851961">
        <ele>83.9</ele>
        <time>2022-10-06T19:06:13Z</time>
      </trkpt>
      <trkpt lat="10.2617181" lon="-85.5851416">
        <ele>83.9</ele>
        <time>2022-10-06T19:06:14Z</time>
      </trkpt>
      <trkpt lat="10.2617243" lon="-85.5850854">
        <ele>83.9</ele>
        <time>2022-10-06T19:06:15Z</time>
      </trkpt>
      <trkpt lat="10.2617324" lon="-85.5850258">
        <ele>83.9</ele>
        <time>2022-10-06T19:06:16Z</time>
      </trkpt>
      <trkpt lat="10.2617422" lon="-85.5849618">
        <ele>83.8</ele>
        <time>2022-10-06T19:06:17Z</time>
      </trkpt>
      <trkpt lat="10.2617547" lon="-85.5848914">
        <ele>83.7</ele>
        <time>2022-10-06T19:06:18Z</time>
      </trkpt>
      <trkpt lat="10.2617672" lon="-85.5848195">
        <ele>83.7</ele>
        <time>2022-10-06T19:06:19Z</time>
      </trkpt>
      <trkpt lat="10.2617793" lon="-85.5847477">
        <ele>84.0</ele>
        <time>2022-10-06T19:06:20Z</time>
      </trkpt>
      <trkpt lat="10.2617873" lon="-85.5846782">
        <ele>83.8</ele>
        <time>2022-10-06T19:06:21Z</time>
      </trkpt>
      <trkpt lat="10.2617956" lon="-85.5846126">
        <ele>83.8</ele>
        <time>2022-10-06T19:06:22Z</time>
      </trkpt>
      <trkpt lat="10.2618005" lon="-85.5845579">
        <ele>83.8</ele>
        <time>2022-10-06T19:06:23Z</time>
      </trkpt>
      <trkpt lat="10.2618011" lon="-85.5845162">
        <ele>83.7</ele>
        <time>2022-10-06T19:06:24Z</time>
      </trkpt>
      <trkpt lat="10.2617954" lon="-85.5844940">
        <ele>83.7</ele>
        <time>2022-10-06T19:06:25Z</time>
      </trkpt>
      <trkpt lat="10.2617942" lon="-85.5844901">
        <ele>83.7</ele>
        <time>2022-10-06T19:06:26Z</time>
      </trkpt>
      <trkpt lat="10.2617942" lon="-85.5844901">
        <ele>83.6</ele>
        <time>2022-10-06T19:06:27Z</time>
      </trkpt>
      <trkpt lat="10.2617942" lon="-85.5844901">
        <ele>83.7</ele>
        <time>2022-10-06T19:06:28Z</time>
      </trkpt>
      <trkpt lat="10.2617942" lon="-85.5844901">
        <ele>83.6</ele>
        <time>2022-10-06T19:06:29Z</time>
      </trkpt>
      <trkpt lat="10.2617942" lon="-85.5844901">
        <ele>83.5</ele>
        <time>2022-10-06T19:06:30Z</time>
      </trkpt>
      <trkpt lat="10.2617942" lon="-85.5844901">
        <ele>83.4</ele>
        <time>2022-10-06T19:06:31Z</time>
      </trkpt>
      <trkpt lat="10.2617942" lon="-85.5844901">
        <ele>83.3</ele>
        <time>2022-10-06T19:06:32Z</time>
      </trkpt>
      <trkpt lat="10.2617942" lon="-85.5844901">
        <ele>83.2</ele>
        <time>2022-10-06T19:06:33Z</time>
      </trkpt>
      <trkpt lat="10.2617942" lon="-85.5844901">
        <ele>83.1</ele>
        <time>2022-10-06T19:06:34Z</time>
      </trkpt>
      <trkpt lat="10.2617942" lon="-85.5844901">
        <ele>83.1</ele>
        <time>2022-10-06T19:06:35Z</time>
      </trkpt>
      <trkpt lat="10.2617942" lon="-85.5844901">
        <ele>83.1</ele>
        <time>2022-10-06T19:06:36Z</time>
      </trkpt>
      <trkpt lat="10.2617942" lon="-85.5844901">
        <ele>83.0</ele>
        <time>2022-10-06T19:06:37Z</time>
      </trkpt>
      <trkpt lat="10.2617942" lon="-85.5844901">
        <ele>83.0</ele>
        <time>2022-10-06T19:06:38Z</time>
      </trkpt>
      <trkpt lat="10.2617942" lon="-85.5844901">
        <ele>83.0</ele>
        <time>2022-10-06T19:06:39Z</time>
      </trkpt>
      <trkpt lat="10.2617694" lon="-85.5844786">
        <ele>83.1</ele>
        <time>2022-10-06T19:06:40Z</time>
      </trkpt>
      <trkpt lat="10.2617632" lon="-85.5844685">
        <ele>83.0</ele>
        <time>2022-10-06T19:06:41Z</time>
      </trkpt>
      <trkpt lat="10.2617486" lon="-85.5844493">
        <ele>83.0</ele>
        <time>2022-10-06T19:06:42Z</time>
      </trkpt>
      <trkpt lat="10.2617205" lon="-85.5844351">
        <ele>83.1</ele>
        <time>2022-10-06T19:06:43Z</time>
      </trkpt>
      <trkpt lat="10.2616889" lon="-85.5844182">
        <ele>83.0</ele>
        <time>2022-10-06T19:06:44Z</time>
      </trkpt>
      <trkpt lat="10.2616498" lon="-85.5844150">
        <ele>83.2</ele>
        <time>2022-10-06T19:06:45Z</time>
      </trkpt>
      <trkpt lat="10.2616104" lon="-85.5844095">
        <ele>83.2</ele>
        <time>2022-10-06T19:06:46Z</time>
      </trkpt>
      <trkpt lat="10.2615783" lon="-85.5844064">
        <ele>83.2</ele>
        <time>2022-10-06T19:06:47Z</time>
      </trkpt>
      <trkpt lat="10.2615565" lon="-85.5844034">
        <ele>83.3</ele>
        <time>2022-10-06T19:06:48Z</time>
      </trkpt>
      <trkpt lat="10.2615408" lon="-85.5844014">
        <ele>83.2</ele>
        <time>2022-10-06T19:06:49Z</time>
      </trkpt>
      <trkpt lat="10.2615275" lon="-85.5844001">
        <ele>83.4</ele>
        <time>2022-10-06T19:06:50Z</time>
      </trkpt>
      <trkpt lat="10.2615159" lon="-85.5843976">
        <ele>83.4</ele>
        <time>2022-10-06T19:06:51Z</time>
      </trkpt>
      <trkpt lat="10.2615035" lon="-85.5843962">
        <ele>83.4</ele>
        <time>2022-10-06T19:06:52Z</time>
      </trkpt>
      <trkpt lat="10.2614869" lon="-85.5843932">
        <ele>83.5</ele>
        <time>2022-10-06T19:06:53Z</time>
      </trkpt>
      <trkpt lat="10.2614676" lon="-85.5843888">
        <ele>83.5</ele>
        <time>2022-10-06T19:06:54Z</time>
      </trkpt>
      <trkpt lat="10.2614472" lon="-85.5843848">
        <ele>83.6</ele>
        <time>2022-10-06T19:06:55Z</time>
      </trkpt>
      <trkpt lat="10.2614297" lon="-85.5843819">
        <ele>83.5</ele>
        <time>2022-10-06T19:06:56Z</time>
      </trkpt>
      <trkpt lat="10.2614103" lon="-85.5843772">
        <ele>83.7</ele>
        <time>2022-10-06T19:06:57Z</time>
      </trkpt>
      <trkpt lat="10.2613932" lon="-85.5843723">
        <ele>83.4</ele>
        <time>2022-10-06T19:06:58Z</time>
      </trkpt>
      <trkpt lat="10.2613776" lon="-85.5843682">
        <ele>83.4</ele>
        <time>2022-10-06T19:06:59Z</time>
      </trkpt>
      <trkpt lat="10.2613526" lon="-85.5843658">
        <ele>83.5</ele>
        <time>2022-10-06T19:07:00Z</time>
      </trkpt>
      <trkpt lat="10.2613251" lon="-85.5843598">
        <ele>83.7</ele>
        <time>2022-10-06T19:07:01Z</time>
      </trkpt>
      <trkpt lat="10.2612903" lon="-85.5843525">
        <ele>83.7</ele>
        <time>2022-10-06T19:07:02Z</time>
      </trkpt>
      <trkpt lat="10.2612540" lon="-85.5843444">
        <ele>83.6</ele>
        <time>2022-10-06T19:07:03Z</time>
      </trkpt>
      <trkpt lat="10.2612155" lon="-85.5843377">
        <ele>83.9</ele>
        <time>2022-10-06T19:07:04Z</time>
      </trkpt>
      <trkpt lat="10.2611807" lon="-85.5843328">
        <ele>83.9</ele>
        <time>2022-10-06T19:07:05Z</time>
      </trkpt>
      <trkpt lat="10.2611473" lon="-85.5843298">
        <ele>83.9</ele>
        <time>2022-10-06T19:07:06Z</time>
      </trkpt>
      <trkpt lat="10.2611117" lon="-85.5843267">
        <ele>84.0</ele>
        <time>2022-10-06T19:07:07Z</time>
      </trkpt>
      <trkpt lat="10.2610728" lon="-85.5843208">
        <ele>84.0</ele>
        <time>2022-10-06T19:07:08Z</time>
      </trkpt>
      <trkpt lat="10.2610240" lon="-85.5843126">
        <ele>84.0</ele>
        <time>2022-10-06T19:07:09Z</time>
      </trkpt>
      <trkpt lat="10.2609747" lon="-85.5843039">
        <ele>83.9</ele>
        <time>2022-10-06T19:07:10Z</time>
      </trkpt>
      <trkpt lat="10.2609259" lon="-85.5842958">
        <ele>84.0</ele>
        <time>2022-10-06T19:07:11Z</time>
      </trkpt>
      <trkpt lat="10.2608754" lon="-85.5842906">
        <ele>84.0</ele>
        <time>2022-10-06T19:07:12Z</time>
      </trkpt>
      <trkpt lat="10.2608216" lon="-85.5842820">
        <ele>83.9</ele>
        <time>2022-10-06T19:07:13Z</time>
      </trkpt>
      <trkpt lat="10.2607727" lon="-85.5842753">
        <ele>84.0</ele>
        <time>2022-10-06T19:07:14Z</time>
      </trkpt>
      <trkpt lat="10.2607231" lon="-85.5842682">
        <ele>84.1</ele>
        <time>2022-10-06T19:07:15Z</time>
      </trkpt>
      <trkpt lat="10.2606751" lon="-85.5842626">
        <ele>84.2</ele>
        <time>2022-10-06T19:07:16Z</time>
      </trkpt>
      <trkpt lat="10.2606283" lon="-85.5842585">
        <ele>84.2</ele>
        <time>2022-10-06T19:07:17Z</time>
      </trkpt>
      <trkpt lat="10.2605920" lon="-85.5842562">
        <ele>84.4</ele>
        <time>2022-10-06T19:07:18Z</time>
      </trkpt>
      <trkpt lat="10.2605608" lon="-85.5842555">
        <ele>84.5</ele>
        <time>2022-10-06T19:07:19Z</time>
      </trkpt>
      <trkpt lat="10.2605430" lon="-85.5842565">
        <ele>84.5</ele>
        <time>2022-10-06T19:07:20Z</time>
      </trkpt>
      <trkpt lat="10.2605310" lon="-85.5842562">
        <ele>84.7</ele>
        <time>2022-10-06T19:07:21Z</time>
      </trkpt>
      <trkpt lat="10.2605179" lon="-85.5842487">
        <ele>84.8</ele>
        <time>2022-10-06T19:07:22Z</time>
      </trkpt>
      <trkpt lat="10.2605041" lon="-85.5842307">
        <ele>84.9</ele>
        <time>2022-10-06T19:07:23Z</time>
      </trkpt>
      <trkpt lat="10.2604802" lon="-85.5842047">
        <ele>84.8</ele>
        <time>2022-10-06T19:07:24Z</time>
      </trkpt>
      <trkpt lat="10.2604912" lon="-85.5841494">
        <ele>84.4</ele>
        <time>2022-10-06T19:07:25Z</time>
      </trkpt>
      <trkpt lat="10.2605017" lon="-85.5841003">
        <ele>84.3</ele>
        <time>2022-10-06T19:07:26Z</time>
      </trkpt>
      <trkpt lat="10.2605159" lon="-85.5840421">
        <ele>84.3</ele>
        <time>2022-10-06T19:07:27Z</time>
      </trkpt>
      <trkpt lat="10.2605309" lon="-85.5839770">
        <ele>84.2</ele>
        <time>2022-10-06T19:07:28Z</time>
      </trkpt>
      <trkpt lat="10.2605445" lon="-85.5839074">
        <ele>84.2</ele>
        <time>2022-10-06T19:07:29Z</time>
      </trkpt>
      <trkpt lat="10.2605571" lon="-85.5838331">
        <ele>84.3</ele>
        <time>2022-10-06T19:07:30Z</time>
      </trkpt>
      <trkpt lat="10.2605692" lon="-85.5837546">
        <ele>84.3</ele>
        <time>2022-10-06T19:07:31Z</time>
      </trkpt>
      <trkpt lat="10.2605829" lon="-85.5836767">
        <ele>84.3</ele>
        <time>2022-10-06T19:07:32Z</time>
      </trkpt>
      <trkpt lat="10.2605974" lon="-85.5835961">
        <ele>84.3</ele>
        <time>2022-10-06T19:07:33Z</time>
      </trkpt>
      <trkpt lat="10.2606109" lon="-85.5835185">
        <ele>84.4</ele>
        <time>2022-10-06T19:07:34Z</time>
      </trkpt>
      <trkpt lat="10.2606264" lon="-85.5834389">
        <ele>84.3</ele>
        <time>2022-10-06T19:07:35Z</time>
      </trkpt>
      <trkpt lat="10.2606394" lon="-85.5833559">
        <ele>84.3</ele>
        <time>2022-10-06T19:07:36Z</time>
      </trkpt>
      <trkpt lat="10.2606547" lon="-85.5832773">
        <ele>84.4</ele>
        <time>2022-10-06T19:07:37Z</time>
      </trkpt>
      <trkpt lat="10.2606694" lon="-85.5831961">
        <ele>84.4</ele>
        <time>2022-10-06T19:07:38Z</time>
      </trkpt>
      <trkpt lat="10.2606814" lon="-85.5831163">
        <ele>84.3</ele>
        <time>2022-10-06T19:07:39Z</time>
      </trkpt>
      <trkpt lat="10.2606937" lon="-85.5830366">
        <ele>84.3</ele>
        <time>2022-10-06T19:07:40Z</time>
      </trkpt>
      <trkpt lat="10.2607044" lon="-85.5829693">
        <ele>84.3</ele>
        <time>2022-10-06T19:07:41Z</time>
      </trkpt>
      <trkpt lat="10.2607124" lon="-85.5829166">
        <ele>84.3</ele>
        <time>2022-10-06T19:07:42Z</time>
      </trkpt>
      <trkpt lat="10.2607207" lon="-85.5828764">
        <ele>84.3</ele>
        <time>2022-10-06T19:07:43Z</time>
      </trkpt>
      <trkpt lat="10.2607248" lon="-85.5828534">
        <ele>84.3</ele>
        <time>2022-10-06T19:07:44Z</time>
      </trkpt>
      <trkpt lat="10.2607281" lon="-85.5828353">
        <ele>84.3</ele>
        <time>2022-10-06T19:07:45Z</time>
      </trkpt>
      <trkpt lat="10.2607328" lon="-85.5828115">
        <ele>84.3</ele>
        <time>2022-10-06T19:07:46Z</time>
      </trkpt>
      <trkpt lat="10.2607376" lon="-85.5827781">
        <ele>84.3</ele>
        <time>2022-10-06T19:07:47Z</time>
      </trkpt>
      <trkpt lat="10.2607435" lon="-85.5827365">
        <ele>84.2</ele>
        <time>2022-10-06T19:07:48Z</time>
      </trkpt>
      <trkpt lat="10.2607526" lon="-85.5826822">
        <ele>84.3</ele>
        <time>2022-10-06T19:07:49Z</time>
      </trkpt>
      <trkpt lat="10.2607632" lon="-85.5826153">
        <ele>84.2</ele>
        <time>2022-10-06T19:07:50Z</time>
      </trkpt>
      <trkpt lat="10.2607741" lon="-85.5825460">
        <ele>84.3</ele>
        <time>2022-10-06T19:07:51Z</time>
      </trkpt>
      <trkpt lat="10.2607857" lon="-85.5824683">
        <ele>84.3</ele>
        <time>2022-10-06T19:07:52Z</time>
      </trkpt>
      <trkpt lat="10.2608002" lon="-85.5823830">
        <ele>84.3</ele>
        <time>2022-10-06T19:07:53Z</time>
      </trkpt>
      <trkpt lat="10.2608154" lon="-85.5822901">
        <ele>84.3</ele>
        <time>2022-10-06T19:07:54Z</time>
      </trkpt>
      <trkpt lat="10.2608318" lon="-85.5821890">
        <ele>84.2</ele>
        <time>2022-10-06T19:07:55Z</time>
      </trkpt>
      <trkpt lat="10.2608490" lon="-85.5820832">
        <ele>84.2</ele>
        <time>2022-10-06T19:07:56Z</time>
      </trkpt>
      <trkpt lat="10.2608664" lon="-85.5819778">
        <ele>84.1</ele>
        <time>2022-10-06T19:07:57Z</time>
      </trkpt>
      <trkpt lat="10.2608815" lon="-85.5818728">
        <ele>84.1</ele>
        <time>2022-10-06T19:07:58Z</time>
      </trkpt>
      <trkpt lat="10.2608938" lon="-85.5817713">
        <ele>84.0</ele>
        <time>2022-10-06T19:07:59Z</time>
      </trkpt>
      <trkpt lat="10.2609067" lon="-85.5816753">
        <ele>83.9</ele>
        <time>2022-10-06T19:08:00Z</time>
      </trkpt>
      <trkpt lat="10.2609212" lon="-85.5815815">
        <ele>83.8</ele>
        <time>2022-10-06T19:08:01Z</time>
      </trkpt>
      <trkpt lat="10.2609367" lon="-85.5814878">
        <ele>83.8</ele>
        <time>2022-10-06T19:08:02Z</time>
      </trkpt>
      <trkpt lat="10.2609558" lon="-85.5813917">
        <ele>83.8</ele>
        <time>2022-10-06T19:08:03Z</time>
      </trkpt>
      <trkpt lat="10.2609743" lon="-85.5812995">
        <ele>83.8</ele>
        <time>2022-10-06T19:08:04Z</time>
      </trkpt>
      <trkpt lat="10.2609930" lon="-85.5812084">
        <ele>83.7</ele>
        <time>2022-10-06T19:08:05Z</time>
      </trkpt>
      <trkpt lat="10.2610062" lon="-85.5811227">
        <ele>83.5</ele>
        <time>2022-10-06T19:08:06Z</time>
      </trkpt>
      <trkpt lat="10.2610170" lon="-85.5810357">
        <ele>83.5</ele>
        <time>2022-10-06T19:08:07Z</time>
      </trkpt>
      <trkpt lat="10.2610303" lon="-85.5809509">
        <ele>83.4</ele>
        <time>2022-10-06T19:08:08Z</time>
      </trkpt>
      <trkpt lat="10.2610429" lon="-85.5808683">
        <ele>83.5</ele>
        <time>2022-10-06T19:08:09Z</time>
      </trkpt>
      <trkpt lat="10.2610522" lon="-85.5807938">
        <ele>83.4</ele>
        <time>2022-10-06T19:08:10Z</time>
      </trkpt>
      <trkpt lat="10.2610609" lon="-85.5807274">
        <ele>83.4</ele>
        <time>2022-10-06T19:08:11Z</time>
      </trkpt>
      <trkpt lat="10.2610659" lon="-85.5806860">
        <ele>83.3</ele>
        <time>2022-10-06T19:08:12Z</time>
      </trkpt>
      <trkpt lat="10.2610683" lon="-85.5806627">
        <ele>83.3</ele>
        <time>2022-10-06T19:08:13Z</time>
      </trkpt>
      <trkpt lat="10.2610733" lon="-85.5806361">
        <ele>83.2</ele>
        <time>2022-10-06T19:08:14Z</time>
      </trkpt>
      <trkpt lat="10.2610786" lon="-85.5806087">
        <ele>83.0</ele>
        <time>2022-10-06T19:08:15Z</time>
      </trkpt>
      <trkpt lat="10.2610867" lon="-85.5805666">
        <ele>83.1</ele>
        <time>2022-10-06T19:08:16Z</time>
      </trkpt>
      <trkpt lat="10.2610973" lon="-85.5805053">
        <ele>83.0</ele>
        <time>2022-10-06T19:08:17Z</time>
      </trkpt>
      <trkpt lat="10.2611119" lon="-85.5804314">
        <ele>82.9</ele>
        <time>2022-10-06T19:08:18Z</time>
      </trkpt>
      <trkpt lat="10.2611303" lon="-85.5803468">
        <ele>82.9</ele>
        <time>2022-10-06T19:08:19Z</time>
      </trkpt>
      <trkpt lat="10.2611495" lon="-85.5802542">
        <ele>82.8</ele>
        <time>2022-10-06T19:08:20Z</time>
      </trkpt>
      <trkpt lat="10.2611668" lon="-85.5801538">
        <ele>82.8</ele>
        <time>2022-10-06T19:08:21Z</time>
      </trkpt>
      <trkpt lat="10.2611842" lon="-85.5800525">
        <ele>82.7</ele>
        <time>2022-10-06T19:08:22Z</time>
      </trkpt>
      <trkpt lat="10.2612025" lon="-85.5799465">
        <ele>82.7</ele>
        <time>2022-10-06T19:08:23Z</time>
      </trkpt>
      <trkpt lat="10.2612258" lon="-85.5798384">
        <ele>82.7</ele>
        <time>2022-10-06T19:08:24Z</time>
      </trkpt>
      <trkpt lat="10.2612512" lon="-85.5797302">
        <ele>82.6</ele>
        <time>2022-10-06T19:08:25Z</time>
      </trkpt>
      <trkpt lat="10.2612829" lon="-85.5796266">
        <ele>82.9</ele>
        <time>2022-10-06T19:08:26Z</time>
      </trkpt>
      <trkpt lat="10.2613257" lon="-85.5795284">
        <ele>82.6</ele>
        <time>2022-10-06T19:08:27Z</time>
      </trkpt>
      <trkpt lat="10.2613825" lon="-85.5794349">
        <ele>82.5</ele>
        <time>2022-10-06T19:08:28Z</time>
      </trkpt>
      <trkpt lat="10.2614509" lon="-85.5793507">
        <ele>82.5</ele>
        <time>2022-10-06T19:08:29Z</time>
      </trkpt>
      <trkpt lat="10.2615248" lon="-85.5792708">
        <ele>82.3</ele>
        <time>2022-10-06T19:08:30Z</time>
      </trkpt>
      <trkpt lat="10.2616016" lon="-85.5791901">
        <ele>82.3</ele>
        <time>2022-10-06T19:08:31Z</time>
      </trkpt>
      <trkpt lat="10.2616764" lon="-85.5791106">
        <ele>82.3</ele>
        <time>2022-10-06T19:08:32Z</time>
      </trkpt>
      <trkpt lat="10.2617492" lon="-85.5790280">
        <ele>82.2</ele>
        <time>2022-10-06T19:08:33Z</time>
      </trkpt>
      <trkpt lat="10.2618184" lon="-85.5789450">
        <ele>82.2</ele>
        <time>2022-10-06T19:08:34Z</time>
      </trkpt>
      <trkpt lat="10.2618846" lon="-85.5788637">
        <ele>82.1</ele>
        <time>2022-10-06T19:08:35Z</time>
      </trkpt>
      <trkpt lat="10.2619495" lon="-85.5787824">
        <ele>82.0</ele>
        <time>2022-10-06T19:08:36Z</time>
      </trkpt>
      <trkpt lat="10.2620064" lon="-85.5787078">
        <ele>82.0</ele>
        <time>2022-10-06T19:08:37Z</time>
      </trkpt>
      <trkpt lat="10.2620595" lon="-85.5786311">
        <ele>82.0</ele>
        <time>2022-10-06T19:08:38Z</time>
      </trkpt>
      <trkpt lat="10.2621098" lon="-85.5785582">
        <ele>81.9</ele>
        <time>2022-10-06T19:08:39Z</time>
      </trkpt>
      <trkpt lat="10.2621627" lon="-85.5784907">
        <ele>82.0</ele>
        <time>2022-10-06T19:08:40Z</time>
      </trkpt>
      <trkpt lat="10.2622147" lon="-85.5784283">
        <ele>82.1</ele>
        <time>2022-10-06T19:08:41Z</time>
      </trkpt>
      <trkpt lat="10.2622582" lon="-85.5783722">
        <ele>82.0</ele>
        <time>2022-10-06T19:08:42Z</time>
      </trkpt>
      <trkpt lat="10.2622882" lon="-85.5783314">
        <ele>81.9</ele>
        <time>2022-10-06T19:08:43Z</time>
      </trkpt>
      <trkpt lat="10.2623038" lon="-85.5783077">
        <ele>81.9</ele>
        <time>2022-10-06T19:08:44Z</time>
      </trkpt>
      <trkpt lat="10.2623164" lon="-85.5782910">
        <ele>81.8</ele>
        <time>2022-10-06T19:08:45Z</time>
      </trkpt>
      <trkpt lat="10.2623303" lon="-85.5782747">
        <ele>81.8</ele>
        <time>2022-10-06T19:08:46Z</time>
      </trkpt>
      <trkpt lat="10.2623466" lon="-85.5782507">
        <ele>81.9</ele>
        <time>2022-10-06T19:08:47Z</time>
      </trkpt>
      <trkpt lat="10.2623712" lon="-85.5782104">
        <ele>81.9</ele>
        <time>2022-10-06T19:08:48Z</time>
      </trkpt>
      <trkpt lat="10.2624040" lon="-85.5781592">
        <ele>82.0</ele>
        <time>2022-10-06T19:08:49Z</time>
      </trkpt>
      <trkpt lat="10.2624437" lon="-85.5780981">
        <ele>81.8</ele>
        <time>2022-10-06T19:08:50Z</time>
      </trkpt>
      <trkpt lat="10.2624889" lon="-85.5780316">
        <ele>81.7</ele>
        <time>2022-10-06T19:08:51Z</time>
      </trkpt>
      <trkpt lat="10.2625395" lon="-85.5779576">
        <ele>81.6</ele>
        <time>2022-10-06T19:08:52Z</time>
      </trkpt>
      <trkpt lat="10.2625952" lon="-85.5778794">
        <ele>81.6</ele>
        <time>2022-10-06T19:08:53Z</time>
      </trkpt>
      <trkpt lat="10.2626542" lon="-85.5777946">
        <ele>81.6</ele>
        <time>2022-10-06T19:08:54Z</time>
      </trkpt>
      <trkpt lat="10.2627146" lon="-85.5777047">
        <ele>81.6</ele>
        <time>2022-10-06T19:08:55Z</time>
      </trkpt>
      <trkpt lat="10.2627770" lon="-85.5776077">
        <ele>81.6</ele>
        <time>2022-10-06T19:08:56Z</time>
      </trkpt>
      <trkpt lat="10.2628394" lon="-85.5775067">
        <ele>81.7</ele>
        <time>2022-10-06T19:08:57Z</time>
      </trkpt>
      <trkpt lat="10.2628972" lon="-85.5773993">
        <ele>81.6</ele>
        <time>2022-10-06T19:08:58Z</time>
      </trkpt>
      <trkpt lat="10.2629472" lon="-85.5772853">
        <ele>81.6</ele>
        <time>2022-10-06T19:08:59Z</time>
      </trkpt>
      <trkpt lat="10.2629947" lon="-85.5771671">
        <ele>81.5</ele>
        <time>2022-10-06T19:09:00Z</time>
      </trkpt>
      <trkpt lat="10.2630372" lon="-85.5770454">
        <ele>81.6</ele>
        <time>2022-10-06T19:09:01Z</time>
      </trkpt>
      <trkpt lat="10.2630759" lon="-85.5769164">
        <ele>81.6</ele>
        <time>2022-10-06T19:09:02Z</time>
      </trkpt>
      <trkpt lat="10.2631124" lon="-85.5767848">
        <ele>81.6</ele>
        <time>2022-10-06T19:09:03Z</time>
      </trkpt>
      <trkpt lat="10.2631501" lon="-85.5766519">
        <ele>81.7</ele>
        <time>2022-10-06T19:09:04Z</time>
      </trkpt>
      <trkpt lat="10.2631870" lon="-85.5765232">
        <ele>81.7</ele>
        <time>2022-10-06T19:09:05Z</time>
      </trkpt>
      <trkpt lat="10.2632241" lon="-85.5763965">
        <ele>81.6</ele>
        <time>2022-10-06T19:09:06Z</time>
      </trkpt>
      <trkpt lat="10.2632577" lon="-85.5762813">
        <ele>81.6</ele>
        <time>2022-10-06T19:09:07Z</time>
      </trkpt>
      <trkpt lat="10.2632867" lon="-85.5761794">
        <ele>81.5</ele>
        <time>2022-10-06T19:09:08Z</time>
      </trkpt>
      <trkpt lat="10.2633113" lon="-85.5760965">
        <ele>81.3</ele>
        <time>2022-10-06T19:09:09Z</time>
      </trkpt>
      <trkpt lat="10.2633332" lon="-85.5760263">
        <ele>81.2</ele>
        <time>2022-10-06T19:09:10Z</time>
      </trkpt>
      <trkpt lat="10.2633473" lon="-85.5759781">
        <ele>81.2</ele>
        <time>2022-10-06T19:09:11Z</time>
      </trkpt>
      <trkpt lat="10.2633531" lon="-85.5759618">
        <ele>81.2</ele>
        <time>2022-10-06T19:09:12Z</time>
      </trkpt>
      <trkpt lat="10.2633577" lon="-85.5759454">
        <ele>81.1</ele>
        <time>2022-10-06T19:09:13Z</time>
      </trkpt>
      <trkpt lat="10.2633650" lon="-85.5759242">
        <ele>81.1</ele>
        <time>2022-10-06T19:09:14Z</time>
      </trkpt>
      <trkpt lat="10.2633755" lon="-85.5758912">
        <ele>81.1</ele>
        <time>2022-10-06T19:09:15Z</time>
      </trkpt>
      <trkpt lat="10.2633910" lon="-85.5758395">
        <ele>81.0</ele>
        <time>2022-10-06T19:09:16Z</time>
      </trkpt>
      <trkpt lat="10.2634100" lon="-85.5757754">
        <ele>81.0</ele>
        <time>2022-10-06T19:09:17Z</time>
      </trkpt>
      <trkpt lat="10.2634307" lon="-85.5757007">
        <ele>80.9</ele>
        <time>2022-10-06T19:09:18Z</time>
      </trkpt>
      <trkpt lat="10.2634526" lon="-85.5756152">
        <ele>80.9</ele>
        <time>2022-10-06T19:09:19Z</time>
      </trkpt>
      <trkpt lat="10.2634709" lon="-85.5755210">
        <ele>80.8</ele>
        <time>2022-10-06T19:09:20Z</time>
      </trkpt>
      <trkpt lat="10.2634887" lon="-85.5754216">
        <ele>80.8</ele>
        <time>2022-10-06T19:09:21Z</time>
      </trkpt>
      <trkpt lat="10.2635040" lon="-85.5753169">
        <ele>80.6</ele>
        <time>2022-10-06T19:09:22Z</time>
      </trkpt>
      <trkpt lat="10.2635176" lon="-85.5752065">
        <ele>80.4</ele>
        <time>2022-10-06T19:09:23Z</time>
      </trkpt>
      <trkpt lat="10.2635312" lon="-85.5750987">
        <ele>80.4</ele>
        <time>2022-10-06T19:09:24Z</time>
      </trkpt>
      <trkpt lat="10.2635457" lon="-85.5749859">
        <ele>79.7</ele>
        <time>2022-10-06T19:09:25Z</time>
      </trkpt>
      <trkpt lat="10.2635591" lon="-85.5748760">
        <ele>79.5</ele>
        <time>2022-10-06T19:09:26Z</time>
      </trkpt>
      <trkpt lat="10.2635664" lon="-85.5747666">
        <ele>79.4</ele>
        <time>2022-10-06T19:09:27Z</time>
      </trkpt>
      <trkpt lat="10.2635730" lon="-85.5746563">
        <ele>79.0</ele>
        <time>2022-10-06T19:09:28Z</time>
      </trkpt>
      <trkpt lat="10.2635800" lon="-85.5745471">
        <ele>78.8</ele>
        <time>2022-10-06T19:09:29Z</time>
      </trkpt>
      <trkpt lat="10.2635904" lon="-85.5744374">
        <ele>78.7</ele>
        <time>2022-10-06T19:09:30Z</time>
      </trkpt>
      <trkpt lat="10.2636054" lon="-85.5743285">
        <ele>79.0</ele>
        <time>2022-10-06T19:09:31Z</time>
      </trkpt>
      <trkpt lat="10.2636244" lon="-85.5742199">
        <ele>79.7</ele>
        <time>2022-10-06T19:09:32Z</time>
      </trkpt>
      <trkpt lat="10.2636496" lon="-85.5741098">
        <ele>80.4</ele>
        <time>2022-10-06T19:09:33Z</time>
      </trkpt>
      <trkpt lat="10.2636741" lon="-85.5740098">
        <ele>80.4</ele>
        <time>2022-10-06T19:09:34Z</time>
      </trkpt>
      <trkpt lat="10.2637046" lon="-85.5739101">
        <ele>81.2</ele>
        <time>2022-10-06T19:09:35Z</time>
      </trkpt>
      <trkpt lat="10.2637332" lon="-85.5738163">
        <ele>81.6</ele>
        <time>2022-10-06T19:09:36Z</time>
      </trkpt>
      <trkpt lat="10.2637506" lon="-85.5737224">
        <ele>81.8</ele>
        <time>2022-10-06T19:09:37Z</time>
      </trkpt>
      <trkpt lat="10.2637488" lon="-85.5736291">
        <ele>81.7</ele>
        <time>2022-10-06T19:09:38Z</time>
      </trkpt>
      <trkpt lat="10.2637383" lon="-85.5735317">
        <ele>81.5</ele>
        <time>2022-10-06T19:09:39Z</time>
      </trkpt>
      <trkpt lat="10.2637259" lon="-85.5734302">
        <ele>81.4</ele>
        <time>2022-10-06T19:09:40Z</time>
      </trkpt>
      <trkpt lat="10.2637142" lon="-85.5733298">
        <ele>81.5</ele>
        <time>2022-10-06T19:09:41Z</time>
      </trkpt>
      <trkpt lat="10.2637047" lon="-85.5732305">
        <ele>81.6</ele>
        <time>2022-10-06T19:09:42Z</time>
      </trkpt>
      <trkpt lat="10.2636962" lon="-85.5731253">
        <ele>81.5</ele>
        <time>2022-10-06T19:09:43Z</time>
      </trkpt>
      <trkpt lat="10.2636843" lon="-85.5730180">
        <ele>81.1</ele>
        <time>2022-10-06T19:09:44Z</time>
      </trkpt>
      <trkpt lat="10.2636708" lon="-85.5729061">
        <ele>80.4</ele>
        <time>2022-10-06T19:09:45Z</time>
      </trkpt>
      <trkpt lat="10.2636538" lon="-85.5727848">
        <ele>79.5</ele>
        <time>2022-10-06T19:09:46Z</time>
      </trkpt>
      <trkpt lat="10.2636372" lon="-85.5726621">
        <ele>79.5</ele>
        <time>2022-10-06T19:09:47Z</time>
      </trkpt>
      <trkpt lat="10.2636241" lon="-85.5725358">
        <ele>79.0</ele>
        <time>2022-10-06T19:09:48Z</time>
      </trkpt>
      <trkpt lat="10.2636120" lon="-85.5724103">
        <ele>78.7</ele>
        <time>2022-10-06T19:09:49Z</time>
      </trkpt>
      <trkpt lat="10.2636054" lon="-85.5722845">
        <ele>78.5</ele>
        <time>2022-10-06T19:09:50Z</time>
      </trkpt>
      <trkpt lat="10.2636120" lon="-85.5721595">
        <ele>78.6</ele>
        <time>2022-10-06T19:09:51Z</time>
      </trkpt>
      <trkpt lat="10.2636273" lon="-85.5720413">
        <ele>78.7</ele>
        <time>2022-10-06T19:09:52Z</time>
      </trkpt>
      <trkpt lat="10.2636483" lon="-85.5719353">
        <ele>78.7</ele>
        <time>2022-10-06T19:09:53Z</time>
      </trkpt>
      <trkpt lat="10.2636687" lon="-85.5718509">
        <ele>78.7</ele>
        <time>2022-10-06T19:09:54Z</time>
      </trkpt>
      <trkpt lat="10.2636833" lon="-85.5717925">
        <ele>78.7</ele>
        <time>2022-10-06T19:09:55Z</time>
      </trkpt>
      <trkpt lat="10.2636953" lon="-85.5717560">
        <ele>79.0</ele>
        <time>2022-10-06T19:09:56Z</time>
      </trkpt>
      <trkpt lat="10.2637022" lon="-85.5717293">
        <ele>78.9</ele>
        <time>2022-10-06T19:09:57Z</time>
      </trkpt>
      <trkpt lat="10.2637102" lon="-85.5717043">
        <ele>79.2</ele>
        <time>2022-10-06T19:09:58Z</time>
      </trkpt>
      <trkpt lat="10.2637194" lon="-85.5716707">
        <ele>79.1</ele>
        <time>2022-10-06T19:09:59Z</time>
      </trkpt>
      <trkpt lat="10.2637322" lon="-85.5716193">
        <ele>79.2</ele>
        <time>2022-10-06T19:10:00Z</time>
      </trkpt>
      <trkpt lat="10.2637490" lon="-85.5715493">
        <ele>79.3</ele>
        <time>2022-10-06T19:10:01Z</time>
      </trkpt>
      <trkpt lat="10.2637706" lon="-85.5714666">
        <ele>79.4</ele>
        <time>2022-10-06T19:10:02Z</time>
      </trkpt>
      <trkpt lat="10.2637924" lon="-85.5713763">
        <ele>79.5</ele>
        <time>2022-10-06T19:10:03Z</time>
      </trkpt>
      <trkpt lat="10.2638102" lon="-85.5712797">
        <ele>79.6</ele>
        <time>2022-10-06T19:10:04Z</time>
      </trkpt>
      <trkpt lat="10.2638218" lon="-85.5711725">
        <ele>79.7</ele>
        <time>2022-10-06T19:10:05Z</time>
      </trkpt>
      <trkpt lat="10.2638311" lon="-85.5710608">
        <ele>80.0</ele>
        <time>2022-10-06T19:10:06Z</time>
      </trkpt>
      <trkpt lat="10.2638427" lon="-85.5709431">
        <ele>80.3</ele>
        <time>2022-10-06T19:10:07Z</time>
      </trkpt>
      <trkpt lat="10.2638544" lon="-85.5708340">
        <ele>80.4</ele>
        <time>2022-10-06T19:10:08Z</time>
      </trkpt>
      <trkpt lat="10.2638642" lon="-85.5707460">
        <ele>80.3</ele>
        <time>2022-10-06T19:10:09Z</time>
      </trkpt>
      <trkpt lat="10.2638747" lon="-85.5706793">
        <ele>80.3</ele>
        <time>2022-10-06T19:10:10Z</time>
      </trkpt>
      <trkpt lat="10.2638819" lon="-85.5706402">
        <ele>80.3</ele>
        <time>2022-10-06T19:10:11Z</time>
      </trkpt>
      <trkpt lat="10.2638868" lon="-85.5706161">
        <ele>80.2</ele>
        <time>2022-10-06T19:10:12Z</time>
      </trkpt>
      <trkpt lat="10.2638909" lon="-85.5705895">
        <ele>80.2</ele>
        <time>2022-10-06T19:10:13Z</time>
      </trkpt>
      <trkpt lat="10.2638991" lon="-85.5705455">
        <ele>80.2</ele>
        <time>2022-10-06T19:10:14Z</time>
      </trkpt>
      <trkpt lat="10.2639075" lon="-85.5704881">
        <ele>80.3</ele>
        <time>2022-10-06T19:10:15Z</time>
      </trkpt>
      <trkpt lat="10.2639209" lon="-85.5704171">
        <ele>80.3</ele>
        <time>2022-10-06T19:10:16Z</time>
      </trkpt>
      <trkpt lat="10.2639412" lon="-85.5703364">
        <ele>80.4</ele>
        <time>2022-10-06T19:10:17Z</time>
      </trkpt>
      <trkpt lat="10.2639723" lon="-85.5702528">
        <ele>80.6</ele>
        <time>2022-10-06T19:10:18Z</time>
      </trkpt>
      <trkpt lat="10.2640095" lon="-85.5701666">
        <ele>80.6</ele>
        <time>2022-10-06T19:10:19Z</time>
      </trkpt>
      <trkpt lat="10.2640742" lon="-85.5700880">
        <ele>80.6</ele>
        <time>2022-10-06T19:10:20Z</time>
      </trkpt>
      <trkpt lat="10.2641466" lon="-85.5700145">
        <ele>80.8</ele>
        <time>2022-10-06T19:10:21Z</time>
      </trkpt>
      <trkpt lat="10.2642253" lon="-85.5699482">
        <ele>80.8</ele>
        <time>2022-10-06T19:10:22Z</time>
      </trkpt>
      <trkpt lat="10.2643032" lon="-85.5698835">
        <ele>80.9</ele>
        <time>2022-10-06T19:10:23Z</time>
      </trkpt>
      <trkpt lat="10.2643708" lon="-85.5698263">
        <ele>80.9</ele>
        <time>2022-10-06T19:10:24Z</time>
      </trkpt>
      <trkpt lat="10.2644238" lon="-85.5697820">
        <ele>81.0</ele>
        <time>2022-10-06T19:10:25Z</time>
      </trkpt>
      <trkpt lat="10.2644589" lon="-85.5697537">
        <ele>81.0</ele>
        <time>2022-10-06T19:10:26Z</time>
      </trkpt>
      <trkpt lat="10.2644796" lon="-85.5697367">
        <ele>81.1</ele>
        <time>2022-10-06T19:10:27Z</time>
      </trkpt>
      <trkpt lat="10.2645001" lon="-85.5697227">
        <ele>81.1</ele>
        <time>2022-10-06T19:10:28Z</time>
      </trkpt>
      <trkpt lat="10.2645300" lon="-85.5696991">
        <ele>81.1</ele>
        <time>2022-10-06T19:10:29Z</time>
      </trkpt>
      <trkpt lat="10.2645702" lon="-85.5696660">
        <ele>81.1</ele>
        <time>2022-10-06T19:10:30Z</time>
      </trkpt>
      <trkpt lat="10.2646206" lon="-85.5696257">
        <ele>81.3</ele>
        <time>2022-10-06T19:10:31Z</time>
      </trkpt>
      <trkpt lat="10.2646766" lon="-85.5695832">
        <ele>81.3</ele>
        <time>2022-10-06T19:10:32Z</time>
      </trkpt>
      <trkpt lat="10.2647322" lon="-85.5695409">
        <ele>81.3</ele>
        <time>2022-10-06T19:10:33Z</time>
      </trkpt>
      <trkpt lat="10.2647846" lon="-85.5694982">
        <ele>81.4</ele>
        <time>2022-10-06T19:10:34Z</time>
      </trkpt>
      <trkpt lat="10.2648316" lon="-85.5694504">
        <ele>81.5</ele>
        <time>2022-10-06T19:10:35Z</time>
      </trkpt>
      <trkpt lat="10.2648591" lon="-85.5694009">
        <ele>81.5</ele>
        <time>2022-10-06T19:10:36Z</time>
      </trkpt>
      <trkpt lat="10.2648741" lon="-85.5693644">
        <ele>81.6</ele>
        <time>2022-10-06T19:10:37Z</time>
      </trkpt>
      <trkpt lat="10.2648612" lon="-85.5693216">
        <ele>81.4</ele>
        <time>2022-10-06T19:10:38Z</time>
      </trkpt>
      <trkpt lat="10.2648451" lon="-85.5692905">
        <ele>81.5</ele>
        <time>2022-10-06T19:10:39Z</time>
      </trkpt>
      <trkpt lat="10.2648236" lon="-85.5692519">
        <ele>81.5</ele>
        <time>2022-10-06T19:10:40Z</time>
      </trkpt>
      <trkpt lat="10.2647774" lon="-85.5692205">
        <ele>81.3</ele>
        <time>2022-10-06T19:10:41Z</time>
      </trkpt>
      <trkpt lat="10.2647245" lon="-85.5691800">
        <ele>81.4</ele>
        <time>2022-10-06T19:10:42Z</time>
      </trkpt>
      <trkpt lat="10.2646565" lon="-85.5691422">
        <ele>81.4</ele>
        <time>2022-10-06T19:10:43Z</time>
      </trkpt>
      <trkpt lat="10.2645794" lon="-85.5690994">
        <ele>81.5</ele>
        <time>2022-10-06T19:10:44Z</time>
      </trkpt>
      <trkpt lat="10.2644966" lon="-85.5690541">
        <ele>81.7</ele>
        <time>2022-10-06T19:10:45Z</time>
      </trkpt>
      <trkpt lat="10.2644053" lon="-85.5690047">
        <ele>81.8</ele>
        <time>2022-10-06T19:10:46Z</time>
      </trkpt>
      <trkpt lat="10.2643063" lon="-85.5689505">
        <ele>82.0</ele>
        <time>2022-10-06T19:10:47Z</time>
      </trkpt>
      <trkpt lat="10.2641984" lon="-85.5688920">
        <ele>82.1</ele>
        <time>2022-10-06T19:10:48Z</time>
      </trkpt>
      <trkpt lat="10.2640858" lon="-85.5688325">
        <ele>82.1</ele>
        <time>2022-10-06T19:10:49Z</time>
      </trkpt>
      <trkpt lat="10.2639683" lon="-85.5687692">
        <ele>82.3</ele>
        <time>2022-10-06T19:10:50Z</time>
      </trkpt>
      <trkpt lat="10.2638491" lon="-85.5687060">
        <ele>82.4</ele>
        <time>2022-10-06T19:10:51Z</time>
      </trkpt>
      <trkpt lat="10.2637242" lon="-85.5686399">
        <ele>82.4</ele>
        <time>2022-10-06T19:10:52Z</time>
      </trkpt>
      <trkpt lat="10.2635952" lon="-85.5685689">
        <ele>82.5</ele>
        <time>2022-10-06T19:10:53Z</time>
      </trkpt>
      <trkpt lat="10.2634627" lon="-85.5684969">
        <ele>82.6</ele>
        <time>2022-10-06T19:10:54Z</time>
      </trkpt>
      <trkpt lat="10.2633263" lon="-85.5684219">
        <ele>82.6</ele>
        <time>2022-10-06T19:10:55Z</time>
      </trkpt>
      <trkpt lat="10.2631893" lon="-85.5683474">
        <ele>82.8</ele>
        <time>2022-10-06T19:10:56Z</time>
      </trkpt>
      <trkpt lat="10.2630460" lon="-85.5682712">
        <ele>82.9</ele>
        <time>2022-10-06T19:10:57Z</time>
      </trkpt>
      <trkpt lat="10.2629020" lon="-85.5681948">
        <ele>82.9</ele>
        <time>2022-10-06T19:10:58Z</time>
      </trkpt>
      <trkpt lat="10.2627578" lon="-85.5681168">
        <ele>83.1</ele>
        <time>2022-10-06T19:10:59Z</time>
      </trkpt>
      <trkpt lat="10.2626089" lon="-85.5680364">
        <ele>83.2</ele>
        <time>2022-10-06T19:11:00Z</time>
      </trkpt>
      <trkpt lat="10.2624581" lon="-85.5679542">
        <ele>83.3</ele>
        <time>2022-10-06T19:11:01Z</time>
      </trkpt>
      <trkpt lat="10.2623074" lon="-85.5678719">
        <ele>83.5</ele>
        <time>2022-10-06T19:11:02Z</time>
      </trkpt>
      <trkpt lat="10.2621558" lon="-85.5677891">
        <ele>83.5</ele>
        <time>2022-10-06T19:11:03Z</time>
      </trkpt>
      <trkpt lat="10.2620021" lon="-85.5677063">
        <ele>83.7</ele>
        <time>2022-10-06T19:11:04Z</time>
      </trkpt>
      <trkpt lat="10.2618480" lon="-85.5676230">
        <ele>83.8</ele>
        <time>2022-10-06T19:11:05Z</time>
      </trkpt>
      <trkpt lat="10.2616926" lon="-85.5675394">
        <ele>83.9</ele>
        <time>2022-10-06T19:11:06Z</time>
      </trkpt>
      <trkpt lat="10.2615354" lon="-85.5674560">
        <ele>84.0</ele>
        <time>2022-10-06T19:11:07Z</time>
      </trkpt>
      <trkpt lat="10.2613776" lon="-85.5673721">
        <ele>84.2</ele>
        <time>2022-10-06T19:11:08Z</time>
      </trkpt>
      <trkpt lat="10.2612200" lon="-85.5672887">
        <ele>84.4</ele>
        <time>2022-10-06T19:11:09Z</time>
      </trkpt>
      <trkpt lat="10.2610673" lon="-85.5672088">
        <ele>84.6</ele>
        <time>2022-10-06T19:11:10Z</time>
      </trkpt>
      <trkpt lat="10.2609304" lon="-85.5671362">
        <ele>84.7</ele>
        <time>2022-10-06T19:11:11Z</time>
      </trkpt>
      <trkpt lat="10.2608220" lon="-85.5670764">
        <ele>84.7</ele>
        <time>2022-10-06T19:11:12Z</time>
      </trkpt>
      <trkpt lat="10.2607202" lon="-85.5670226">
        <ele>84.7</ele>
        <time>2022-10-06T19:11:13Z</time>
      </trkpt>
      <trkpt lat="10.2606306" lon="-85.5669745">
        <ele>84.7</ele>
        <time>2022-10-06T19:11:14Z</time>
      </trkpt>
      <trkpt lat="10.2605401" lon="-85.5669261">
        <ele>84.7</ele>
        <time>2022-10-06T19:11:15Z</time>
      </trkpt>
      <trkpt lat="10.2604439" lon="-85.5668740">
        <ele>84.8</ele>
        <time>2022-10-06T19:11:16Z</time>
      </trkpt>
      <trkpt lat="10.2603413" lon="-85.5668193">
        <ele>84.8</ele>
        <time>2022-10-06T19:11:17Z</time>
      </trkpt>
      <trkpt lat="10.2602310" lon="-85.5667588">
        <ele>84.9</ele>
        <time>2022-10-06T19:11:18Z</time>
      </trkpt>
      <trkpt lat="10.2601154" lon="-85.5666955">
        <ele>85.3</ele>
        <time>2022-10-06T19:11:19Z</time>
      </trkpt>
      <trkpt lat="10.2599927" lon="-85.5666302">
        <ele>85.4</ele>
        <time>2022-10-06T19:11:20Z</time>
      </trkpt>
      <trkpt lat="10.2598647" lon="-85.5665605">
        <ele>85.5</ele>
        <time>2022-10-06T19:11:21Z</time>
      </trkpt>
      <trkpt lat="10.2597339" lon="-85.5664880">
        <ele>85.6</ele>
        <time>2022-10-06T19:11:22Z</time>
      </trkpt>
      <trkpt lat="10.2595983" lon="-85.5664133">
        <ele>85.8</ele>
        <time>2022-10-06T19:11:23Z</time>
      </trkpt>
      <trkpt lat="10.2594589" lon="-85.5663380">
        <ele>85.9</ele>
        <time>2022-10-06T19:11:24Z</time>
      </trkpt>
      <trkpt lat="10.2593174" lon="-85.5662619">
        <ele>86.1</ele>
        <time>2022-10-06T19:11:25Z</time>
      </trkpt>
      <trkpt lat="10.2591729" lon="-85.5661833">
        <ele>86.2</ele>
        <time>2022-10-06T19:11:26Z</time>
      </trkpt>
      <trkpt lat="10.2590261" lon="-85.5661033">
        <ele>86.4</ele>
        <time>2022-10-06T19:11:27Z</time>
      </trkpt>
      <trkpt lat="10.2588780" lon="-85.5660217">
        <ele>86.5</ele>
        <time>2022-10-06T19:11:28Z</time>
      </trkpt>
      <trkpt lat="10.2587272" lon="-85.5659389">
        <ele>86.6</ele>
        <time>2022-10-06T19:11:29Z</time>
      </trkpt>
      <trkpt lat="10.2585737" lon="-85.5658573">
        <ele>86.7</ele>
        <time>2022-10-06T19:11:30Z</time>
      </trkpt>
      <trkpt lat="10.2584200" lon="-85.5657744">
        <ele>86.6</ele>
        <time>2022-10-06T19:11:31Z</time>
      </trkpt>
      <trkpt lat="10.2582634" lon="-85.5656905">
        <ele>86.7</ele>
        <time>2022-10-06T19:11:32Z</time>
      </trkpt>
      <trkpt lat="10.2581033" lon="-85.5656047">
        <ele>86.8</ele>
        <time>2022-10-06T19:11:33Z</time>
      </trkpt>
      <trkpt lat="10.2579439" lon="-85.5655179">
        <ele>87.0</ele>
        <time>2022-10-06T19:11:34Z</time>
      </trkpt>
      <trkpt lat="10.2577826" lon="-85.5654314">
        <ele>87.0</ele>
        <time>2022-10-06T19:11:35Z</time>
      </trkpt>
      <trkpt lat="10.2576207" lon="-85.5653438">
        <ele>87.1</ele>
        <time>2022-10-06T19:11:36Z</time>
      </trkpt>
      <trkpt lat="10.2574593" lon="-85.5652554">
        <ele>86.7</ele>
        <time>2022-10-06T19:11:37Z</time>
      </trkpt>
      <trkpt lat="10.2572940" lon="-85.5651668">
        <ele>86.7</ele>
        <time>2022-10-06T19:11:38Z</time>
      </trkpt>
      <trkpt lat="10.2571295" lon="-85.5650777">
        <ele>86.8</ele>
        <time>2022-10-06T19:11:39Z</time>
      </trkpt>
      <trkpt lat="10.2569633" lon="-85.5649875">
        <ele>86.9</ele>
        <time>2022-10-06T19:11:40Z</time>
      </trkpt>
      <trkpt lat="10.2567980" lon="-85.5648980">
        <ele>87.1</ele>
        <time>2022-10-06T19:11:41Z</time>
      </trkpt>
      <trkpt lat="10.2566295" lon="-85.5648084">
        <ele>87.2</ele>
        <time>2022-10-06T19:11:42Z</time>
      </trkpt>
      <trkpt lat="10.2564598" lon="-85.5647181">
        <ele>87.4</ele>
        <time>2022-10-06T19:11:43Z</time>
      </trkpt>
      <trkpt lat="10.2562886" lon="-85.5646267">
        <ele>87.4</ele>
        <time>2022-10-06T19:11:44Z</time>
      </trkpt>
      <trkpt lat="10.2561185" lon="-85.5645340">
        <ele>87.5</ele>
        <time>2022-10-06T19:11:45Z</time>
      </trkpt>
      <trkpt lat="10.2559471" lon="-85.5644418">
        <ele>87.6</ele>
        <time>2022-10-06T19:11:46Z</time>
      </trkpt>
      <trkpt lat="10.2557759" lon="-85.5643503">
        <ele>87.6</ele>
        <time>2022-10-06T19:11:47Z</time>
      </trkpt>
      <trkpt lat="10.2556067" lon="-85.5642605">
        <ele>87.7</ele>
        <time>2022-10-06T19:11:48Z</time>
      </trkpt>
      <trkpt lat="10.2554362" lon="-85.5641691">
        <ele>87.9</ele>
        <time>2022-10-06T19:11:49Z</time>
      </trkpt>
      <trkpt lat="10.2552655" lon="-85.5640774">
        <ele>88.0</ele>
        <time>2022-10-06T19:11:50Z</time>
      </trkpt>
      <trkpt lat="10.2550962" lon="-85.5639859">
        <ele>88.1</ele>
        <time>2022-10-06T19:11:51Z</time>
      </trkpt>
      <trkpt lat="10.2549247" lon="-85.5638930">
        <ele>88.1</ele>
        <time>2022-10-06T19:11:52Z</time>
      </trkpt>
      <trkpt lat="10.2547516" lon="-85.5637994">
        <ele>88.1</ele>
        <time>2022-10-06T19:11:53Z</time>
      </trkpt>
      <trkpt lat="10.2545808" lon="-85.5637052">
        <ele>88.2</ele>
        <time>2022-10-06T19:11:54Z</time>
      </trkpt>
      <trkpt lat="10.2544088" lon="-85.5636110">
        <ele>88.3</ele>
        <time>2022-10-06T19:11:55Z</time>
      </trkpt>
      <trkpt lat="10.2542353" lon="-85.5635165">
        <ele>88.4</ele>
        <time>2022-10-06T19:11:56Z</time>
      </trkpt>
      <trkpt lat="10.2540575" lon="-85.5634190">
        <ele>88.6</ele>
        <time>2022-10-06T19:11:57Z</time>
      </trkpt>
      <trkpt lat="10.2538781" lon="-85.5633221">
        <ele>88.7</ele>
        <time>2022-10-06T19:11:58Z</time>
      </trkpt>
      <trkpt lat="10.2536996" lon="-85.5632263">
        <ele>88.7</ele>
        <time>2022-10-06T19:11:59Z</time>
      </trkpt>
      <trkpt lat="10.2535196" lon="-85.5631303">
        <ele>88.7</ele>
        <time>2022-10-06T19:12:00Z</time>
      </trkpt>
      <trkpt lat="10.2533385" lon="-85.5630331">
        <ele>88.9</ele>
        <time>2022-10-06T19:12:01Z</time>
      </trkpt>
      <trkpt lat="10.2531576" lon="-85.5629360">
        <ele>89.0</ele>
        <time>2022-10-06T19:12:02Z</time>
      </trkpt>
      <trkpt lat="10.2529773" lon="-85.5628390">
        <ele>89.1</ele>
        <time>2022-10-06T19:12:03Z</time>
      </trkpt>
      <trkpt lat="10.2527954" lon="-85.5627424">
        <ele>89.2</ele>
        <time>2022-10-06T19:12:04Z</time>
      </trkpt>
      <trkpt lat="10.2526140" lon="-85.5626438">
        <ele>89.3</ele>
        <time>2022-10-06T19:12:05Z</time>
      </trkpt>
      <trkpt lat="10.2524328" lon="-85.5625456">
        <ele>89.4</ele>
        <time>2022-10-06T19:12:06Z</time>
      </trkpt>
      <trkpt lat="10.2522495" lon="-85.5624475">
        <ele>89.8</ele>
        <time>2022-10-06T19:12:07Z</time>
      </trkpt>
      <trkpt lat="10.2520658" lon="-85.5623479">
        <ele>89.9</ele>
        <time>2022-10-06T19:12:08Z</time>
      </trkpt>
      <trkpt lat="10.2518840" lon="-85.5622454">
        <ele>90.0</ele>
        <time>2022-10-06T19:12:09Z</time>
      </trkpt>
      <trkpt lat="10.2517041" lon="-85.5621374">
        <ele>90.2</ele>
        <time>2022-10-06T19:12:10Z</time>
      </trkpt>
      <trkpt lat="10.2515289" lon="-85.5620217">
        <ele>90.4</ele>
        <time>2022-10-06T19:12:11Z</time>
      </trkpt>
      <trkpt lat="10.2513573" lon="-85.5619030">
        <ele>90.3</ele>
        <time>2022-10-06T19:12:12Z</time>
      </trkpt>
      <trkpt lat="10.2511902" lon="-85.5617740">
        <ele>90.5</ele>
        <time>2022-10-06T19:12:13Z</time>
      </trkpt>
      <trkpt lat="10.2510236" lon="-85.5616392">
        <ele>90.7</ele>
        <time>2022-10-06T19:12:14Z</time>
      </trkpt>
      <trkpt lat="10.2508587" lon="-85.5615025">
        <ele>90.8</ele>
        <time>2022-10-06T19:12:15Z</time>
      </trkpt>
      <trkpt lat="10.2506937" lon="-85.5613626">
        <ele>90.9</ele>
        <time>2022-10-06T19:12:16Z</time>
      </trkpt>
      <trkpt lat="10.2505291" lon="-85.5612213">
        <ele>90.9</ele>
        <time>2022-10-06T19:12:17Z</time>
      </trkpt>
      <trkpt lat="10.2503625" lon="-85.5610779">
        <ele>91.1</ele>
        <time>2022-10-06T19:12:18Z</time>
      </trkpt>
      <trkpt lat="10.2501970" lon="-85.5609338">
        <ele>91.3</ele>
        <time>2022-10-06T19:12:19Z</time>
      </trkpt>
      <trkpt lat="10.2500298" lon="-85.5607893">
        <ele>91.4</ele>
        <time>2022-10-06T19:12:20Z</time>
      </trkpt>
      <trkpt lat="10.2498617" lon="-85.5606430">
        <ele>91.6</ele>
        <time>2022-10-06T19:12:21Z</time>
      </trkpt>
      <trkpt lat="10.2496935" lon="-85.5604959">
        <ele>91.7</ele>
        <time>2022-10-06T19:12:22Z</time>
      </trkpt>
      <trkpt lat="10.2495257" lon="-85.5603504">
        <ele>91.8</ele>
        <time>2022-10-06T19:12:23Z</time>
      </trkpt>
      <trkpt lat="10.2493575" lon="-85.5602056">
        <ele>91.9</ele>
        <time>2022-10-06T19:12:24Z</time>
      </trkpt>
      <trkpt lat="10.2491890" lon="-85.5600598">
        <ele>92.0</ele>
        <time>2022-10-06T19:12:25Z</time>
      </trkpt>
      <trkpt lat="10.2490207" lon="-85.5599131">
        <ele>92.2</ele>
        <time>2022-10-06T19:12:26Z</time>
      </trkpt>
      <trkpt lat="10.2488524" lon="-85.5597668">
        <ele>92.4</ele>
        <time>2022-10-06T19:12:27Z</time>
      </trkpt>
      <trkpt lat="10.2486847" lon="-85.5596204">
        <ele>92.5</ele>
        <time>2022-10-06T19:12:28Z</time>
      </trkpt>
      <trkpt lat="10.2485159" lon="-85.5594728">
        <ele>92.6</ele>
        <time>2022-10-06T19:12:29Z</time>
      </trkpt>
      <trkpt lat="10.2483465" lon="-85.5593250">
        <ele>92.8</ele>
        <time>2022-10-06T19:12:30Z</time>
      </trkpt>
      <trkpt lat="10.2481787" lon="-85.5591761">
        <ele>93.0</ele>
        <time>2022-10-06T19:12:31Z</time>
      </trkpt>
      <trkpt lat="10.2480117" lon="-85.5590288">
        <ele>93.1</ele>
        <time>2022-10-06T19:12:32Z</time>
      </trkpt>
      <trkpt lat="10.2478441" lon="-85.5588814">
        <ele>93.1</ele>
        <time>2022-10-06T19:12:33Z</time>
      </trkpt>
      <trkpt lat="10.2476745" lon="-85.5587338">
        <ele>93.3</ele>
        <time>2022-10-06T19:12:34Z</time>
      </trkpt>
      <trkpt lat="10.2475068" lon="-85.5585882">
        <ele>93.3</ele>
        <time>2022-10-06T19:12:35Z</time>
      </trkpt>
      <trkpt lat="10.2473374" lon="-85.5584416">
        <ele>93.5</ele>
        <time>2022-10-06T19:12:36Z</time>
      </trkpt>
      <trkpt lat="10.2471679" lon="-85.5582943">
        <ele>93.6</ele>
        <time>2022-10-06T19:12:37Z</time>
      </trkpt>
      <trkpt lat="10.2469993" lon="-85.5581458">
        <ele>93.7</ele>
        <time>2022-10-06T19:12:38Z</time>
      </trkpt>
      <trkpt lat="10.2468302" lon="-85.5579978">
        <ele>93.7</ele>
        <time>2022-10-06T19:12:39Z</time>
      </trkpt>
      <trkpt lat="10.2466603" lon="-85.5578491">
        <ele>93.7</ele>
        <time>2022-10-06T19:12:40Z</time>
      </trkpt>
      <trkpt lat="10.2464904" lon="-85.5576988">
        <ele>93.8</ele>
        <time>2022-10-06T19:12:41Z</time>
      </trkpt>
      <trkpt lat="10.2463194" lon="-85.5575481">
        <ele>93.8</ele>
        <time>2022-10-06T19:12:42Z</time>
      </trkpt>
      <trkpt lat="10.2461489" lon="-85.5573984">
        <ele>93.7</ele>
        <time>2022-10-06T19:12:43Z</time>
      </trkpt>
      <trkpt lat="10.2459769" lon="-85.5572491">
        <ele>93.7</ele>
        <time>2022-10-06T19:12:44Z</time>
      </trkpt>
      <trkpt lat="10.2458029" lon="-85.5570982">
        <ele>93.7</ele>
        <time>2022-10-06T19:12:45Z</time>
      </trkpt>
      <trkpt lat="10.2456290" lon="-85.5569487">
        <ele>93.8</ele>
        <time>2022-10-06T19:12:46Z</time>
      </trkpt>
      <trkpt lat="10.2454581" lon="-85.5568016">
        <ele>93.7</ele>
        <time>2022-10-06T19:12:47Z</time>
      </trkpt>
      <trkpt lat="10.2452899" lon="-85.5566558">
        <ele>93.8</ele>
        <time>2022-10-06T19:12:48Z</time>
      </trkpt>
      <trkpt lat="10.2451231" lon="-85.5565087">
        <ele>94.0</ele>
        <time>2022-10-06T19:12:49Z</time>
      </trkpt>
      <trkpt lat="10.2449562" lon="-85.5563622">
        <ele>93.9</ele>
        <time>2022-10-06T19:12:50Z</time>
      </trkpt>
      <trkpt lat="10.2447899" lon="-85.5562144">
        <ele>94.0</ele>
        <time>2022-10-06T19:12:51Z</time>
      </trkpt>
      <trkpt lat="10.2446220" lon="-85.5560667">
        <ele>93.9</ele>
        <time>2022-10-06T19:12:52Z</time>
      </trkpt>
      <trkpt lat="10.2444546" lon="-85.5559202">
        <ele>94.0</ele>
        <time>2022-10-06T19:12:53Z</time>
      </trkpt>
      <trkpt lat="10.2442874" lon="-85.5557735">
        <ele>93.9</ele>
        <time>2022-10-06T19:12:54Z</time>
      </trkpt>
      <trkpt lat="10.2441235" lon="-85.5556294">
        <ele>93.9</ele>
        <time>2022-10-06T19:12:55Z</time>
      </trkpt>
      <trkpt lat="10.2439552" lon="-85.5554843">
        <ele>94.0</ele>
        <time>2022-10-06T19:12:56Z</time>
      </trkpt>
      <trkpt lat="10.2437883" lon="-85.5553406">
        <ele>94.0</ele>
        <time>2022-10-06T19:12:57Z</time>
      </trkpt>
      <trkpt lat="10.2436210" lon="-85.5551963">
        <ele>94.0</ele>
        <time>2022-10-06T19:12:58Z</time>
      </trkpt>
      <trkpt lat="10.2434560" lon="-85.5550522">
        <ele>94.1</ele>
        <time>2022-10-06T19:12:59Z</time>
      </trkpt>
      <trkpt lat="10.2432902" lon="-85.5549070">
        <ele>94.3</ele>
        <time>2022-10-06T19:13:00Z</time>
      </trkpt>
      <trkpt lat="10.2431239" lon="-85.5547607">
        <ele>94.8</ele>
        <time>2022-10-06T19:13:01Z</time>
      </trkpt>
      <trkpt lat="10.2429589" lon="-85.5546162">
        <ele>95.3</ele>
        <time>2022-10-06T19:13:02Z</time>
      </trkpt>
      <trkpt lat="10.2427962" lon="-85.5544730">
        <ele>95.9</ele>
        <time>2022-10-06T19:13:03Z</time>
      </trkpt>
      <trkpt lat="10.2426326" lon="-85.5543297">
        <ele>96.7</ele>
        <time>2022-10-06T19:13:04Z</time>
      </trkpt>
      <trkpt lat="10.2424681" lon="-85.5541868">
        <ele>97.6</ele>
        <time>2022-10-06T19:13:05Z</time>
      </trkpt>
      <trkpt lat="10.2423054" lon="-85.5540449">
        <ele>98.7</ele>
        <time>2022-10-06T19:13:06Z</time>
      </trkpt>
      <trkpt lat="10.2421426" lon="-85.5539051">
        <ele>99.8</ele>
        <time>2022-10-06T19:13:07Z</time>
      </trkpt>
      <trkpt lat="10.2419843" lon="-85.5537688">
        <ele>100.9</ele>
        <time>2022-10-06T19:13:08Z</time>
      </trkpt>
      <trkpt lat="10.2418262" lon="-85.5536330">
        <ele>102.0</ele>
        <time>2022-10-06T19:13:09Z</time>
      </trkpt>
      <trkpt lat="10.2416704" lon="-85.5534988">
        <ele>103.0</ele>
        <time>2022-10-06T19:13:10Z</time>
      </trkpt>
      <trkpt lat="10.2415169" lon="-85.5533672">
        <ele>104.0</ele>
        <time>2022-10-06T19:13:11Z</time>
      </trkpt>
      <trkpt lat="10.2413650" lon="-85.5532344">
        <ele>104.8</ele>
        <time>2022-10-06T19:13:12Z</time>
      </trkpt>
      <trkpt lat="10.2412150" lon="-85.5531040">
        <ele>105.6</ele>
        <time>2022-10-06T19:13:13Z</time>
      </trkpt>
      <trkpt lat="10.2410672" lon="-85.5529763">
        <ele>106.3</ele>
        <time>2022-10-06T19:13:14Z</time>
      </trkpt>
      <trkpt lat="10.2409186" lon="-85.5528454">
        <ele>106.8</ele>
        <time>2022-10-06T19:13:15Z</time>
      </trkpt>
      <trkpt lat="10.2407691" lon="-85.5527156">
        <ele>107.2</ele>
        <time>2022-10-06T19:13:16Z</time>
      </trkpt>
      <trkpt lat="10.2406194" lon="-85.5525841">
        <ele>107.4</ele>
        <time>2022-10-06T19:13:17Z</time>
      </trkpt>
      <trkpt lat="10.2404672" lon="-85.5524521">
        <ele>107.6</ele>
        <time>2022-10-06T19:13:18Z</time>
      </trkpt>
      <trkpt lat="10.2403140" lon="-85.5523208">
        <ele>107.7</ele>
        <time>2022-10-06T19:13:19Z</time>
      </trkpt>
      <trkpt lat="10.2401607" lon="-85.5521895">
        <ele>107.6</ele>
        <time>2022-10-06T19:13:20Z</time>
      </trkpt>
      <trkpt lat="10.2400058" lon="-85.5520551">
        <ele>107.3</ele>
        <time>2022-10-06T19:13:21Z</time>
      </trkpt>
      <trkpt lat="10.2398491" lon="-85.5519187">
        <ele>107.0</ele>
        <time>2022-10-06T19:13:22Z</time>
      </trkpt>
      <trkpt lat="10.2396916" lon="-85.5517818">
        <ele>106.5</ele>
        <time>2022-10-06T19:13:23Z</time>
      </trkpt>
      <trkpt lat="10.2395340" lon="-85.5516431">
        <ele>105.9</ele>
        <time>2022-10-06T19:13:24Z</time>
      </trkpt>
      <trkpt lat="10.2393725" lon="-85.5515050">
        <ele>105.1</ele>
        <time>2022-10-06T19:13:25Z</time>
      </trkpt>
      <trkpt lat="10.2392108" lon="-85.5513655">
        <ele>104.3</ele>
        <time>2022-10-06T19:13:26Z</time>
      </trkpt>
      <trkpt lat="10.2390519" lon="-85.5512278">
        <ele>104.2</ele>
        <time>2022-10-06T19:13:27Z</time>
      </trkpt>
      <trkpt lat="10.2388911" lon="-85.5510937">
        <ele>103.7</ele>
        <time>2022-10-06T19:13:28Z</time>
      </trkpt>
      <trkpt lat="10.2387319" lon="-85.5509684">
        <ele>102.8</ele>
        <time>2022-10-06T19:13:29Z</time>
      </trkpt>
      <trkpt lat="10.2385766" lon="-85.5508502">
        <ele>102.0</ele>
        <time>2022-10-06T19:13:30Z</time>
      </trkpt>
      <trkpt lat="10.2384237" lon="-85.5507373">
        <ele>101.2</ele>
        <time>2022-10-06T19:13:31Z</time>
      </trkpt>
      <trkpt lat="10.2382715" lon="-85.5506293">
        <ele>100.6</ele>
        <time>2022-10-06T19:13:32Z</time>
      </trkpt>
      <trkpt lat="10.2381162" lon="-85.5505237">
        <ele>100.2</ele>
        <time>2022-10-06T19:13:33Z</time>
      </trkpt>
      <trkpt lat="10.2379599" lon="-85.5504216">
        <ele>99.9</ele>
        <time>2022-10-06T19:13:34Z</time>
      </trkpt>
      <trkpt lat="10.2377974" lon="-85.5503228">
        <ele>99.7</ele>
        <time>2022-10-06T19:13:35Z</time>
      </trkpt>
      <trkpt lat="10.2376328" lon="-85.5502290">
        <ele>99.6</ele>
        <time>2022-10-06T19:13:36Z</time>
      </trkpt>
      <trkpt lat="10.2374663" lon="-85.5501398">
        <ele>99.4</ele>
        <time>2022-10-06T19:13:37Z</time>
      </trkpt>
      <trkpt lat="10.2372991" lon="-85.5500545">
        <ele>99.3</ele>
        <time>2022-10-06T19:13:38Z</time>
      </trkpt>
      <trkpt lat="10.2371331" lon="-85.5499742">
        <ele>99.3</ele>
        <time>2022-10-06T19:13:39Z</time>
      </trkpt>
      <trkpt lat="10.2369681" lon="-85.5498957">
        <ele>99.3</ele>
        <time>2022-10-06T19:13:40Z</time>
      </trkpt>
      <trkpt lat="10.2368045" lon="-85.5498188">
        <ele>99.2</ele>
        <time>2022-10-06T19:13:41Z</time>
      </trkpt>
      <trkpt lat="10.2366416" lon="-85.5497480">
        <ele>99.2</ele>
        <time>2022-10-06T19:13:42Z</time>
      </trkpt>
      <trkpt lat="10.2364760" lon="-85.5496829">
        <ele>98.9</ele>
        <time>2022-10-06T19:13:43Z</time>
      </trkpt>
      <trkpt lat="10.2363086" lon="-85.5496223">
        <ele>98.8</ele>
        <time>2022-10-06T19:13:44Z</time>
      </trkpt>
      <trkpt lat="10.2361468" lon="-85.5495659">
        <ele>98.7</ele>
        <time>2022-10-06T19:13:45Z</time>
      </trkpt>
      <trkpt lat="10.2359926" lon="-85.5495149">
        <ele>98.7</ele>
        <time>2022-10-06T19:13:46Z</time>
      </trkpt>
      <trkpt lat="10.2358417" lon="-85.5494688">
        <ele>98.7</ele>
        <time>2022-10-06T19:13:47Z</time>
      </trkpt>
      <trkpt lat="10.2356932" lon="-85.5494231">
        <ele>98.8</ele>
        <time>2022-10-06T19:13:48Z</time>
      </trkpt>
      <trkpt lat="10.2355410" lon="-85.5493782">
        <ele>98.9</ele>
        <time>2022-10-06T19:13:49Z</time>
      </trkpt>
      <trkpt lat="10.2353885" lon="-85.5493324">
        <ele>99.0</ele>
        <time>2022-10-06T19:13:50Z</time>
      </trkpt>
      <trkpt lat="10.2352313" lon="-85.5492865">
        <ele>99.1</ele>
        <time>2022-10-06T19:13:51Z</time>
      </trkpt>
      <trkpt lat="10.2350748" lon="-85.5492411">
        <ele>99.3</ele>
        <time>2022-10-06T19:13:52Z</time>
      </trkpt>
      <trkpt lat="10.2349189" lon="-85.5491926">
        <ele>99.3</ele>
        <time>2022-10-06T19:13:53Z</time>
      </trkpt>
      <trkpt lat="10.2347596" lon="-85.5491454">
        <ele>99.4</ele>
        <time>2022-10-06T19:13:54Z</time>
      </trkpt>
      <trkpt lat="10.2346010" lon="-85.5490983">
        <ele>99.6</ele>
        <time>2022-10-06T19:13:55Z</time>
      </trkpt>
      <trkpt lat="10.2344427" lon="-85.5490534">
        <ele>99.7</ele>
        <time>2022-10-06T19:13:56Z</time>
      </trkpt>
      <trkpt lat="10.2342905" lon="-85.5490095">
        <ele>99.9</ele>
        <time>2022-10-06T19:13:57Z</time>
      </trkpt>
      <trkpt lat="10.2341420" lon="-85.5489649">
        <ele>100.1</ele>
        <time>2022-10-06T19:13:58Z</time>
      </trkpt>
      <trkpt lat="10.2339997" lon="-85.5489218">
        <ele>100.3</ele>
        <time>2022-10-06T19:13:59Z</time>
      </trkpt>
      <trkpt lat="10.2338616" lon="-85.5488796">
        <ele>100.6</ele>
        <time>2022-10-06T19:14:00Z</time>
      </trkpt>
      <trkpt lat="10.2337334" lon="-85.5488399">
        <ele>100.7</ele>
        <time>2022-10-06T19:14:01Z</time>
      </trkpt>
      <trkpt lat="10.2336041" lon="-85.5488026">
        <ele>100.8</ele>
        <time>2022-10-06T19:14:02Z</time>
      </trkpt>
      <trkpt lat="10.2334746" lon="-85.5487637">
        <ele>101.0</ele>
        <time>2022-10-06T19:14:03Z</time>
      </trkpt>
      <trkpt lat="10.2333431" lon="-85.5487252">
        <ele>101.2</ele>
        <time>2022-10-06T19:14:04Z</time>
      </trkpt>
      <trkpt lat="10.2332111" lon="-85.5486867">
        <ele>101.4</ele>
        <time>2022-10-06T19:14:05Z</time>
      </trkpt>
      <trkpt lat="10.2330771" lon="-85.5486461">
        <ele>101.5</ele>
        <time>2022-10-06T19:14:06Z</time>
      </trkpt>
      <trkpt lat="10.2329436" lon="-85.5486062">
        <ele>101.7</ele>
        <time>2022-10-06T19:14:07Z</time>
      </trkpt>
      <trkpt lat="10.2328112" lon="-85.5485660">
        <ele>101.9</ele>
        <time>2022-10-06T19:14:08Z</time>
      </trkpt>
      <trkpt lat="10.2326772" lon="-85.5485272">
        <ele>102.0</ele>
        <time>2022-10-06T19:14:09Z</time>
      </trkpt>
      <trkpt lat="10.2325462" lon="-85.5484909">
        <ele>102.1</ele>
        <time>2022-10-06T19:14:10Z</time>
      </trkpt>
      <trkpt lat="10.2324109" lon="-85.5484535">
        <ele>102.3</ele>
        <time>2022-10-06T19:14:11Z</time>
      </trkpt>
      <trkpt lat="10.2322781" lon="-85.5484148">
        <ele>102.1</ele>
        <time>2022-10-06T19:14:12Z</time>
      </trkpt>
      <trkpt lat="10.2321432" lon="-85.5483746">
        <ele>102.2</ele>
        <time>2022-10-06T19:14:13Z</time>
      </trkpt>
      <trkpt lat="10.2320085" lon="-85.5483353">
        <ele>102.2</ele>
        <time>2022-10-06T19:14:14Z</time>
      </trkpt>
      <trkpt lat="10.2318703" lon="-85.5482956">
        <ele>102.5</ele>
        <time>2022-10-06T19:14:15Z</time>
      </trkpt>
      <trkpt lat="10.2317323" lon="-85.5482558">
        <ele>102.6</ele>
        <time>2022-10-06T19:14:16Z</time>
      </trkpt>
      <trkpt lat="10.2315935" lon="-85.5482144">
        <ele>102.8</ele>
        <time>2022-10-06T19:14:17Z</time>
      </trkpt>
      <trkpt lat="10.2314566" lon="-85.5481729">
        <ele>103.0</ele>
        <time>2022-10-06T19:14:18Z</time>
      </trkpt>
      <trkpt lat="10.2313205" lon="-85.5481315">
        <ele>103.2</ele>
        <time>2022-10-06T19:14:19Z</time>
      </trkpt>
      <trkpt lat="10.2311841" lon="-85.5480908">
        <ele>103.3</ele>
        <time>2022-10-06T19:14:20Z</time>
      </trkpt>
      <trkpt lat="10.2310478" lon="-85.5480515">
        <ele>103.5</ele>
        <time>2022-10-06T19:14:21Z</time>
      </trkpt>
      <trkpt lat="10.2309133" lon="-85.5480118">
        <ele>103.6</ele>
        <time>2022-10-06T19:14:22Z</time>
      </trkpt>
      <trkpt lat="10.2307782" lon="-85.5479698">
        <ele>103.7</ele>
        <time>2022-10-06T19:14:23Z</time>
      </trkpt>
      <trkpt lat="10.2306374" lon="-85.5479277">
        <ele>103.8</ele>
        <time>2022-10-06T19:14:24Z</time>
      </trkpt>
      <trkpt lat="10.2304881" lon="-85.5478835">
        <ele>104.0</ele>
        <time>2022-10-06T19:14:25Z</time>
      </trkpt>
      <trkpt lat="10.2303341" lon="-85.5478387">
        <ele>104.0</ele>
        <time>2022-10-06T19:14:26Z</time>
      </trkpt>
      <trkpt lat="10.2301776" lon="-85.5477934">
        <ele>104.3</ele>
        <time>2022-10-06T19:14:27Z</time>
      </trkpt>
      <trkpt lat="10.2300180" lon="-85.5477475">
        <ele>104.4</ele>
        <time>2022-10-06T19:14:28Z</time>
      </trkpt>
      <trkpt lat="10.2298541" lon="-85.5476999">
        <ele>104.6</ele>
        <time>2022-10-06T19:14:29Z</time>
      </trkpt>
      <trkpt lat="10.2296896" lon="-85.5476529">
        <ele>104.8</ele>
        <time>2022-10-06T19:14:30Z</time>
      </trkpt>
      <trkpt lat="10.2295214" lon="-85.5476046">
        <ele>105.0</ele>
        <time>2022-10-06T19:14:31Z</time>
      </trkpt>
      <trkpt lat="10.2293566" lon="-85.5475570">
        <ele>105.1</ele>
        <time>2022-10-06T19:14:32Z</time>
      </trkpt>
      <trkpt lat="10.2291929" lon="-85.5475096">
        <ele>105.5</ele>
        <time>2022-10-06T19:14:33Z</time>
      </trkpt>
      <trkpt lat="10.2290309" lon="-85.5474630">
        <ele>105.7</ele>
        <time>2022-10-06T19:14:34Z</time>
      </trkpt>
      <trkpt lat="10.2288680" lon="-85.5474141">
        <ele>105.8</ele>
        <time>2022-10-06T19:14:35Z</time>
      </trkpt>
      <trkpt lat="10.2287035" lon="-85.5473657">
        <ele>106.3</ele>
        <time>2022-10-06T19:14:36Z</time>
      </trkpt>
      <trkpt lat="10.2285387" lon="-85.5473166">
        <ele>106.5</ele>
        <time>2022-10-06T19:14:37Z</time>
      </trkpt>
      <trkpt lat="10.2283729" lon="-85.5472664">
        <ele>106.8</ele>
        <time>2022-10-06T19:14:38Z</time>
      </trkpt>
      <trkpt lat="10.2282060" lon="-85.5472133">
        <ele>107.1</ele>
        <time>2022-10-06T19:14:39Z</time>
      </trkpt>
      <trkpt lat="10.2280403" lon="-85.5471572">
        <ele>107.3</ele>
        <time>2022-10-06T19:14:40Z</time>
      </trkpt>
      <trkpt lat="10.2278738" lon="-85.5470950">
        <ele>107.5</ele>
        <time>2022-10-06T19:14:41Z</time>
      </trkpt>
      <trkpt lat="10.2277074" lon="-85.5470267">
        <ele>107.9</ele>
        <time>2022-10-06T19:14:42Z</time>
      </trkpt>
      <trkpt lat="10.2275412" lon="-85.5469492">
        <ele>108.2</ele>
        <time>2022-10-06T19:14:43Z</time>
      </trkpt>
      <trkpt lat="10.2273765" lon="-85.5468641">
        <ele>108.5</ele>
        <time>2022-10-06T19:14:44Z</time>
      </trkpt>
      <trkpt lat="10.2272174" lon="-85.5467729">
        <ele>108.9</ele>
        <time>2022-10-06T19:14:45Z</time>
      </trkpt>
      <trkpt lat="10.2270623" lon="-85.5466758">
        <ele>109.2</ele>
        <time>2022-10-06T19:14:46Z</time>
      </trkpt>
      <trkpt lat="10.2269103" lon="-85.5465694">
        <ele>109.6</ele>
        <time>2022-10-06T19:14:47Z</time>
      </trkpt>
      <trkpt lat="10.2267639" lon="-85.5464559">
        <ele>109.9</ele>
        <time>2022-10-06T19:14:48Z</time>
      </trkpt>
      <trkpt lat="10.2266222" lon="-85.5463362">
        <ele>110.2</ele>
        <time>2022-10-06T19:14:49Z</time>
      </trkpt>
      <trkpt lat="10.2264838" lon="-85.5462127">
        <ele>110.5</ele>
        <time>2022-10-06T19:14:50Z</time>
      </trkpt>
      <trkpt lat="10.2263480" lon="-85.5460835">
        <ele>110.8</ele>
        <time>2022-10-06T19:14:51Z</time>
      </trkpt>
      <trkpt lat="10.2262162" lon="-85.5459492">
        <ele>111.1</ele>
        <time>2022-10-06T19:14:52Z</time>
      </trkpt>
      <trkpt lat="10.2260915" lon="-85.5458108">
        <ele>111.4</ele>
        <time>2022-10-06T19:14:53Z</time>
      </trkpt>
      <trkpt lat="10.2259753" lon="-85.5456699">
        <ele>111.7</ele>
        <time>2022-10-06T19:14:54Z</time>
      </trkpt>
      <trkpt lat="10.2258651" lon="-85.5455231">
        <ele>112.0</ele>
        <time>2022-10-06T19:14:55Z</time>
      </trkpt>
      <trkpt lat="10.2257597" lon="-85.5453706">
        <ele>112.3</ele>
        <time>2022-10-06T19:14:56Z</time>
      </trkpt>
      <trkpt lat="10.2256639" lon="-85.5452163">
        <ele>112.7</ele>
        <time>2022-10-06T19:14:57Z</time>
      </trkpt>
      <trkpt lat="10.2255745" lon="-85.5450591">
        <ele>113.0</ele>
        <time>2022-10-06T19:14:58Z</time>
      </trkpt>
      <trkpt lat="10.2254909" lon="-85.5448971">
        <ele>113.1</ele>
        <time>2022-10-06T19:14:59Z</time>
      </trkpt>
      <trkpt lat="10.2254093" lon="-85.5447321">
        <ele>113.1</ele>
        <time>2022-10-06T19:15:00Z</time>
      </trkpt>
      <trkpt lat="10.2253366" lon="-85.5445630">
        <ele>113.7</ele>
        <time>2022-10-06T19:15:01Z</time>
      </trkpt>
      <trkpt lat="10.2252696" lon="-85.5443936">
        <ele>113.9</ele>
        <time>2022-10-06T19:15:02Z</time>
      </trkpt>
      <trkpt lat="10.2252094" lon="-85.5442251">
        <ele>114.0</ele>
        <time>2022-10-06T19:15:03Z</time>
      </trkpt>
      <trkpt lat="10.2251547" lon="-85.5440537">
        <ele>114.1</ele>
        <time>2022-10-06T19:15:04Z</time>
      </trkpt>
      <trkpt lat="10.2251150" lon="-85.5438779">
        <ele>114.8</ele>
        <time>2022-10-06T19:15:05Z</time>
      </trkpt>
      <trkpt lat="10.2250826" lon="-85.5436992">
        <ele>115.5</ele>
        <time>2022-10-06T19:15:06Z</time>
      </trkpt>
      <trkpt lat="10.2250532" lon="-85.5435188">
        <ele>116.1</ele>
        <time>2022-10-06T19:15:07Z</time>
      </trkpt>
      <trkpt lat="10.2250288" lon="-85.5433407">
        <ele>116.7</ele>
        <time>2022-10-06T19:15:08Z</time>
      </trkpt>
      <trkpt lat="10.2250067" lon="-85.5431597">
        <ele>117.2</ele>
        <time>2022-10-06T19:15:09Z</time>
      </trkpt>
      <trkpt lat="10.2249873" lon="-85.5429809">
        <ele>118.0</ele>
        <time>2022-10-06T19:15:10Z</time>
      </trkpt>
      <trkpt lat="10.2249710" lon="-85.5428057">
        <ele>118.8</ele>
        <time>2022-10-06T19:15:11Z</time>
      </trkpt>
      <trkpt lat="10.2249545" lon="-85.5426363">
        <ele>118.9</ele>
        <time>2022-10-06T19:15:12Z</time>
      </trkpt>
      <trkpt lat="10.2249394" lon="-85.5424726">
        <ele>119.9</ele>
        <time>2022-10-06T19:15:13Z</time>
      </trkpt>
      <trkpt lat="10.2249259" lon="-85.5423162">
        <ele>120.6</ele>
        <time>2022-10-06T19:15:14Z</time>
      </trkpt>
      <trkpt lat="10.2249101" lon="-85.5421647">
        <ele>121.4</ele>
        <time>2022-10-06T19:15:15Z</time>
      </trkpt>
      <trkpt lat="10.2248958" lon="-85.5420185">
        <ele>122.2</ele>
        <time>2022-10-06T19:15:16Z</time>
      </trkpt>
      <trkpt lat="10.2248819" lon="-85.5418778">
        <ele>122.9</ele>
        <time>2022-10-06T19:15:17Z</time>
      </trkpt>
      <trkpt lat="10.2248675" lon="-85.5417362">
        <ele>123.6</ele>
        <time>2022-10-06T19:15:18Z</time>
      </trkpt>
      <trkpt lat="10.2248530" lon="-85.5415923">
        <ele>124.3</ele>
        <time>2022-10-06T19:15:19Z</time>
      </trkpt>
      <trkpt lat="10.2248393" lon="-85.5414442">
        <ele>124.9</ele>
        <time>2022-10-06T19:15:20Z</time>
      </trkpt>
      <trkpt lat="10.2248237" lon="-85.5412929">
        <ele>125.6</ele>
        <time>2022-10-06T19:15:21Z</time>
      </trkpt>
      <trkpt lat="10.2248081" lon="-85.5411388">
        <ele>126.2</ele>
        <time>2022-10-06T19:15:22Z</time>
      </trkpt>
      <trkpt lat="10.2247910" lon="-85.5409836">
        <ele>126.5</ele>
        <time>2022-10-06T19:15:23Z</time>
      </trkpt>
      <trkpt lat="10.2247744" lon="-85.5408255">
        <ele>127.0</ele>
        <time>2022-10-06T19:15:24Z</time>
      </trkpt>
      <trkpt lat="10.2247572" lon="-85.5406674">
        <ele>127.4</ele>
        <time>2022-10-06T19:15:25Z</time>
      </trkpt>
      <trkpt lat="10.2247402" lon="-85.5405097">
        <ele>127.7</ele>
        <time>2022-10-06T19:15:26Z</time>
      </trkpt>
      <trkpt lat="10.2247230" lon="-85.5403548">
        <ele>128.0</ele>
        <time>2022-10-06T19:15:27Z</time>
      </trkpt>
      <trkpt lat="10.2247057" lon="-85.5402030">
        <ele>128.1</ele>
        <time>2022-10-06T19:15:28Z</time>
      </trkpt>
      <trkpt lat="10.2246895" lon="-85.5400513">
        <ele>128.3</ele>
        <time>2022-10-06T19:15:29Z</time>
      </trkpt>
      <trkpt lat="10.2246742" lon="-85.5399047">
        <ele>128.5</ele>
        <time>2022-10-06T19:15:30Z</time>
      </trkpt>
      <trkpt lat="10.2246600" lon="-85.5397591">
        <ele>128.6</ele>
        <time>2022-10-06T19:15:31Z</time>
      </trkpt>
      <trkpt lat="10.2246459" lon="-85.5396134">
        <ele>128.7</ele>
        <time>2022-10-06T19:15:32Z</time>
      </trkpt>
      <trkpt lat="10.2246321" lon="-85.5394672">
        <ele>128.8</ele>
        <time>2022-10-06T19:15:33Z</time>
      </trkpt>
      <trkpt lat="10.2246182" lon="-85.5393177">
        <ele>128.8</ele>
        <time>2022-10-06T19:15:34Z</time>
      </trkpt>
      <trkpt lat="10.2246027" lon="-85.5391642">
        <ele>128.9</ele>
        <time>2022-10-06T19:15:35Z</time>
      </trkpt>
      <trkpt lat="10.2245885" lon="-85.5390091">
        <ele>129.1</ele>
        <time>2022-10-06T19:15:36Z</time>
      </trkpt>
      <trkpt lat="10.2245723" lon="-85.5388533">
        <ele>129.0</ele>
        <time>2022-10-06T19:15:37Z</time>
      </trkpt>
      <trkpt lat="10.2245540" lon="-85.5386925">
        <ele>129.1</ele>
        <time>2022-10-06T19:15:38Z</time>
      </trkpt>
      <trkpt lat="10.2245365" lon="-85.5385292">
        <ele>129.3</ele>
        <time>2022-10-06T19:15:39Z</time>
      </trkpt>
      <trkpt lat="10.2245190" lon="-85.5383608">
        <ele>129.4</ele>
        <time>2022-10-06T19:15:40Z</time>
      </trkpt>
      <trkpt lat="10.2245033" lon="-85.5381881">
        <ele>129.8</ele>
        <time>2022-10-06T19:15:41Z</time>
      </trkpt>
      <trkpt lat="10.2244857" lon="-85.5380139">
        <ele>130.0</ele>
        <time>2022-10-06T19:15:42Z</time>
      </trkpt>
      <trkpt lat="10.2244697" lon="-85.5378438">
        <ele>130.1</ele>
        <time>2022-10-06T19:15:43Z</time>
      </trkpt>
      <trkpt lat="10.2244510" lon="-85.5376708">
        <ele>130.0</ele>
        <time>2022-10-06T19:15:44Z</time>
      </trkpt>
      <trkpt lat="10.2244349" lon="-85.5374979">
        <ele>130.2</ele>
        <time>2022-10-06T19:15:45Z</time>
      </trkpt>
      <trkpt lat="10.2244212" lon="-85.5373265">
        <ele>130.4</ele>
        <time>2022-10-06T19:15:46Z</time>
      </trkpt>
      <trkpt lat="10.2244059" lon="-85.5371550">
        <ele>130.4</ele>
        <time>2022-10-06T19:15:47Z</time>
      </trkpt>
      <trkpt lat="10.2243900" lon="-85.5369831">
        <ele>130.5</ele>
        <time>2022-10-06T19:15:48Z</time>
      </trkpt>
      <trkpt lat="10.2243730" lon="-85.5368125">
        <ele>130.5</ele>
        <time>2022-10-06T19:15:49Z</time>
      </trkpt>
      <trkpt lat="10.2243560" lon="-85.5366434">
        <ele>130.4</ele>
        <time>2022-10-06T19:15:50Z</time>
      </trkpt>
      <trkpt lat="10.2243368" lon="-85.5364739">
        <ele>130.5</ele>
        <time>2022-10-06T19:15:51Z</time>
      </trkpt>
      <trkpt lat="10.2243151" lon="-85.5363032">
        <ele>130.4</ele>
        <time>2022-10-06T19:15:52Z</time>
      </trkpt>
      <trkpt lat="10.2242940" lon="-85.5361285">
        <ele>130.5</ele>
        <time>2022-10-06T19:15:53Z</time>
      </trkpt>
      <trkpt lat="10.2242755" lon="-85.5359550">
        <ele>130.5</ele>
        <time>2022-10-06T19:15:54Z</time>
      </trkpt>
      <trkpt lat="10.2242565" lon="-85.5357783">
        <ele>130.6</ele>
        <time>2022-10-06T19:15:55Z</time>
      </trkpt>
      <trkpt lat="10.2242375" lon="-85.5355980">
        <ele>130.7</ele>
        <time>2022-10-06T19:15:56Z</time>
      </trkpt>
      <trkpt lat="10.2242190" lon="-85.5354166">
        <ele>131.0</ele>
        <time>2022-10-06T19:15:57Z</time>
      </trkpt>
      <trkpt lat="10.2242001" lon="-85.5352391">
        <ele>131.2</ele>
        <time>2022-10-06T19:15:58Z</time>
      </trkpt>
      <trkpt lat="10.2241816" lon="-85.5350648">
        <ele>131.6</ele>
        <time>2022-10-06T19:15:59Z</time>
      </trkpt>
      <trkpt lat="10.2241644" lon="-85.5348903">
        <ele>132.1</ele>
        <time>2022-10-06T19:16:00Z</time>
      </trkpt>
      <trkpt lat="10.2241473" lon="-85.5347188">
        <ele>132.6</ele>
        <time>2022-10-06T19:16:01Z</time>
      </trkpt>
      <trkpt lat="10.2241275" lon="-85.5345476">
        <ele>133.1</ele>
        <time>2022-10-06T19:16:02Z</time>
      </trkpt>
      <trkpt lat="10.2241082" lon="-85.5343755">
        <ele>133.7</ele>
        <time>2022-10-06T19:16:03Z</time>
      </trkpt>
      <trkpt lat="10.2240886" lon="-85.5342055">
        <ele>134.4</ele>
        <time>2022-10-06T19:16:04Z</time>
      </trkpt>
      <trkpt lat="10.2240671" lon="-85.5340360">
        <ele>135.0</ele>
        <time>2022-10-06T19:16:05Z</time>
      </trkpt>
      <trkpt lat="10.2240461" lon="-85.5338721">
        <ele>135.5</ele>
        <time>2022-10-06T19:16:06Z</time>
      </trkpt>
      <trkpt lat="10.2240266" lon="-85.5337113">
        <ele>136.2</ele>
        <time>2022-10-06T19:16:07Z</time>
      </trkpt>
      <trkpt lat="10.2240046" lon="-85.5335512">
        <ele>136.8</ele>
        <time>2022-10-06T19:16:08Z</time>
      </trkpt>
      <trkpt lat="10.2239826" lon="-85.5333914">
        <ele>137.2</ele>
        <time>2022-10-06T19:16:09Z</time>
      </trkpt>
      <trkpt lat="10.2239599" lon="-85.5332256">
        <ele>137.2</ele>
        <time>2022-10-06T19:16:10Z</time>
      </trkpt>
      <trkpt lat="10.2239389" lon="-85.5330593">
        <ele>137.5</ele>
        <time>2022-10-06T19:16:11Z</time>
      </trkpt>
      <trkpt lat="10.2239170" lon="-85.5328929">
        <ele>137.5</ele>
        <time>2022-10-06T19:16:12Z</time>
      </trkpt>
      <trkpt lat="10.2238954" lon="-85.5327266">
        <ele>137.8</ele>
        <time>2022-10-06T19:16:13Z</time>
      </trkpt>
      <trkpt lat="10.2238726" lon="-85.5325602">
        <ele>137.8</ele>
        <time>2022-10-06T19:16:14Z</time>
      </trkpt>
      <trkpt lat="10.2238512" lon="-85.5323944">
        <ele>137.9</ele>
        <time>2022-10-06T19:16:15Z</time>
      </trkpt>
      <trkpt lat="10.2238291" lon="-85.5322237">
        <ele>137.9</ele>
        <time>2022-10-06T19:16:16Z</time>
      </trkpt>
      <trkpt lat="10.2238043" lon="-85.5320568">
        <ele>137.9</ele>
        <time>2022-10-06T19:16:17Z</time>
      </trkpt>
      <trkpt lat="10.2237793" lon="-85.5318921">
        <ele>137.7</ele>
        <time>2022-10-06T19:16:18Z</time>
      </trkpt>
      <trkpt lat="10.2237547" lon="-85.5317248">
        <ele>137.6</ele>
        <time>2022-10-06T19:16:19Z</time>
      </trkpt>
      <trkpt lat="10.2237294" lon="-85.5315595">
        <ele>137.3</ele>
        <time>2022-10-06T19:16:20Z</time>
      </trkpt>
      <trkpt lat="10.2237011" lon="-85.5313947">
        <ele>137.0</ele>
        <time>2022-10-06T19:16:21Z</time>
      </trkpt>
      <trkpt lat="10.2236685" lon="-85.5312332">
        <ele>136.6</ele>
        <time>2022-10-06T19:16:22Z</time>
      </trkpt>
      <trkpt lat="10.2236344" lon="-85.5310729">
        <ele>136.2</ele>
        <time>2022-10-06T19:16:23Z</time>
      </trkpt>
      <trkpt lat="10.2235950" lon="-85.5309145">
        <ele>135.6</ele>
        <time>2022-10-06T19:16:24Z</time>
      </trkpt>
      <trkpt lat="10.2235494" lon="-85.5307536">
        <ele>135.6</ele>
        <time>2022-10-06T19:16:25Z</time>
      </trkpt>
      <trkpt lat="10.2234944" lon="-85.5305967">
        <ele>135.1</ele>
        <time>2022-10-06T19:16:26Z</time>
      </trkpt>
      <trkpt lat="10.2234336" lon="-85.5304406">
        <ele>135.0</ele>
        <time>2022-10-06T19:16:27Z</time>
      </trkpt>
      <trkpt lat="10.2233630" lon="-85.5302853">
        <ele>134.2</ele>
        <time>2022-10-06T19:16:28Z</time>
      </trkpt>
      <trkpt lat="10.2232851" lon="-85.5301282">
        <ele>133.4</ele>
        <time>2022-10-06T19:16:29Z</time>
      </trkpt>
      <trkpt lat="10.2232061" lon="-85.5299718">
        <ele>132.5</ele>
        <time>2022-10-06T19:16:30Z</time>
      </trkpt>
      <trkpt lat="10.2231265" lon="-85.5298138">
        <ele>131.6</ele>
        <time>2022-10-06T19:16:31Z</time>
      </trkpt>
      <trkpt lat="10.2230448" lon="-85.5296536">
        <ele>130.6</ele>
        <time>2022-10-06T19:16:32Z</time>
      </trkpt>
      <trkpt lat="10.2229632" lon="-85.5294927">
        <ele>129.7</ele>
        <time>2022-10-06T19:16:33Z</time>
      </trkpt>
      <trkpt lat="10.2228817" lon="-85.5293293">
        <ele>128.9</ele>
        <time>2022-10-06T19:16:34Z</time>
      </trkpt>
      <trkpt lat="10.2227996" lon="-85.5291689">
        <ele>128.0</ele>
        <time>2022-10-06T19:16:35Z</time>
      </trkpt>
      <trkpt lat="10.2227238" lon="-85.5290175">
        <ele>128.0</ele>
        <time>2022-10-06T19:16:36Z</time>
      </trkpt>
      <trkpt lat="10.2226524" lon="-85.5288690">
        <ele>126.9</ele>
        <time>2022-10-06T19:16:37Z</time>
      </trkpt>
      <trkpt lat="10.2225885" lon="-85.5287308">
        <ele>126.0</ele>
        <time>2022-10-06T19:16:38Z</time>
      </trkpt>
      <trkpt lat="10.2225376" lon="-85.5286030">
        <ele>125.4</ele>
        <time>2022-10-06T19:16:39Z</time>
      </trkpt>
      <trkpt lat="10.2224942" lon="-85.5284864">
        <ele>125.1</ele>
        <time>2022-10-06T19:16:40Z</time>
      </trkpt>
      <trkpt lat="10.2224593" lon="-85.5283841">
        <ele>124.6</ele>
        <time>2022-10-06T19:16:41Z</time>
      </trkpt>
      <trkpt lat="10.2224285" lon="-85.5282955">
        <ele>124.2</ele>
        <time>2022-10-06T19:16:42Z</time>
      </trkpt>
      <trkpt lat="10.2224011" lon="-85.5282198">
        <ele>124.1</ele>
        <time>2022-10-06T19:16:43Z</time>
      </trkpt>
      <trkpt lat="10.2223779" lon="-85.5281509">
        <ele>124.0</ele>
        <time>2022-10-06T19:16:44Z</time>
      </trkpt>
      <trkpt lat="10.2223582" lon="-85.5280918">
        <ele>123.8</ele>
        <time>2022-10-06T19:16:45Z</time>
      </trkpt>
      <trkpt lat="10.2223372" lon="-85.5280298">
        <ele>123.5</ele>
        <time>2022-10-06T19:16:46Z</time>
      </trkpt>
      <trkpt lat="10.2223183" lon="-85.5279716">
        <ele>123.5</ele>
        <time>2022-10-06T19:16:47Z</time>
      </trkpt>
      <trkpt lat="10.2223008" lon="-85.5279163">
        <ele>123.3</ele>
        <time>2022-10-06T19:16:48Z</time>
      </trkpt>
      <trkpt lat="10.2222821" lon="-85.5278626">
        <ele>123.0</ele>
        <time>2022-10-06T19:16:49Z</time>
      </trkpt>
      <trkpt lat="10.2222633" lon="-85.5278073">
        <ele>122.8</ele>
        <time>2022-10-06T19:16:50Z</time>
      </trkpt>
      <trkpt lat="10.2222410" lon="-85.5277458">
        <ele>122.7</ele>
        <time>2022-10-06T19:16:51Z</time>
      </trkpt>
      <trkpt lat="10.2222162" lon="-85.5276755">
        <ele>122.7</ele>
        <time>2022-10-06T19:16:52Z</time>
      </trkpt>
      <trkpt lat="10.2221883" lon="-85.5275979">
        <ele>122.7</ele>
        <time>2022-10-06T19:16:53Z</time>
      </trkpt>
      <trkpt lat="10.2221611" lon="-85.5275178">
        <ele>122.5</ele>
        <time>2022-10-06T19:16:54Z</time>
      </trkpt>
      <trkpt lat="10.2221329" lon="-85.5274327">
        <ele>122.4</ele>
        <time>2022-10-06T19:16:55Z</time>
      </trkpt>
      <trkpt lat="10.2221045" lon="-85.5273404">
        <ele>122.4</ele>
        <time>2022-10-06T19:16:56Z</time>
      </trkpt>
      <trkpt lat="10.2220733" lon="-85.5272419">
        <ele>122.5</ele>
        <time>2022-10-06T19:16:57Z</time>
      </trkpt>
      <trkpt lat="10.2220407" lon="-85.5271383">
        <ele>122.5</ele>
        <time>2022-10-06T19:16:58Z</time>
      </trkpt>
      <trkpt lat="10.2220078" lon="-85.5270286">
        <ele>122.5</ele>
        <time>2022-10-06T19:16:59Z</time>
      </trkpt>
      <trkpt lat="10.2219713" lon="-85.5269144">
        <ele>122.4</ele>
        <time>2022-10-06T19:17:00Z</time>
      </trkpt>
      <trkpt lat="10.2219347" lon="-85.5267923">
        <ele>122.3</ele>
        <time>2022-10-06T19:17:01Z</time>
      </trkpt>
      <trkpt lat="10.2218957" lon="-85.5266667">
        <ele>122.3</ele>
        <time>2022-10-06T19:17:02Z</time>
      </trkpt>
      <trkpt lat="10.2218538" lon="-85.5265379">
        <ele>122.2</ele>
        <time>2022-10-06T19:17:03Z</time>
      </trkpt>
      <trkpt lat="10.2218120" lon="-85.5264078">
        <ele>122.2</ele>
        <time>2022-10-06T19:17:04Z</time>
      </trkpt>
      <trkpt lat="10.2217714" lon="-85.5262692">
        <ele>122.2</ele>
        <time>2022-10-06T19:17:05Z</time>
      </trkpt>
      <trkpt lat="10.2217342" lon="-85.5261257">
        <ele>122.3</ele>
        <time>2022-10-06T19:17:06Z</time>
      </trkpt>
      <trkpt lat="10.2217010" lon="-85.5259794">
        <ele>122.1</ele>
        <time>2022-10-06T19:17:07Z</time>
      </trkpt>
      <trkpt lat="10.2216691" lon="-85.5258266">
        <ele>122.2</ele>
        <time>2022-10-06T19:17:08Z</time>
      </trkpt>
      <trkpt lat="10.2216395" lon="-85.5256695">
        <ele>122.4</ele>
        <time>2022-10-06T19:17:09Z</time>
      </trkpt>
      <trkpt lat="10.2216138" lon="-85.5255107">
        <ele>122.5</ele>
        <time>2022-10-06T19:17:10Z</time>
      </trkpt>
      <trkpt lat="10.2215888" lon="-85.5253467">
        <ele>122.7</ele>
        <time>2022-10-06T19:17:11Z</time>
      </trkpt>
      <trkpt lat="10.2215668" lon="-85.5251815">
        <ele>122.9</ele>
        <time>2022-10-06T19:17:12Z</time>
      </trkpt>
      <trkpt lat="10.2215469" lon="-85.5250142">
        <ele>123.1</ele>
        <time>2022-10-06T19:17:13Z</time>
      </trkpt>
      <trkpt lat="10.2215280" lon="-85.5248487">
        <ele>123.4</ele>
        <time>2022-10-06T19:17:14Z</time>
      </trkpt>
      <trkpt lat="10.2215094" lon="-85.5246838">
        <ele>123.6</ele>
        <time>2022-10-06T19:17:15Z</time>
      </trkpt>
      <trkpt lat="10.2214887" lon="-85.5245201">
        <ele>124.0</ele>
        <time>2022-10-06T19:17:16Z</time>
      </trkpt>
      <trkpt lat="10.2214689" lon="-85.5243553">
        <ele>124.2</ele>
        <time>2022-10-06T19:17:17Z</time>
      </trkpt>
      <trkpt lat="10.2214489" lon="-85.5241876">
        <ele>124.5</ele>
        <time>2022-10-06T19:17:18Z</time>
      </trkpt>
      <trkpt lat="10.2214297" lon="-85.5240170">
        <ele>124.7</ele>
        <time>2022-10-06T19:17:19Z</time>
      </trkpt>
      <trkpt lat="10.2214104" lon="-85.5238458">
        <ele>124.9</ele>
        <time>2022-10-06T19:17:20Z</time>
      </trkpt>
      <trkpt lat="10.2213909" lon="-85.5236716">
        <ele>125.2</ele>
        <time>2022-10-06T19:17:21Z</time>
      </trkpt>
      <trkpt lat="10.2213701" lon="-85.5234938">
        <ele>125.5</ele>
        <time>2022-10-06T19:17:22Z</time>
      </trkpt>
      <trkpt lat="10.2213479" lon="-85.5233161">
        <ele>125.8</ele>
        <time>2022-10-06T19:17:23Z</time>
      </trkpt>
      <trkpt lat="10.2213262" lon="-85.5231392">
        <ele>126.2</ele>
        <time>2022-10-06T19:17:24Z</time>
      </trkpt>
      <trkpt lat="10.2213041" lon="-85.5229625">
        <ele>126.2</ele>
        <time>2022-10-06T19:17:25Z</time>
      </trkpt>
      <trkpt lat="10.2212819" lon="-85.5227848">
        <ele>126.7</ele>
        <time>2022-10-06T19:17:26Z</time>
      </trkpt>
      <trkpt lat="10.2212599" lon="-85.5226087">
        <ele>126.8</ele>
        <time>2022-10-06T19:17:27Z</time>
      </trkpt>
      <trkpt lat="10.2212376" lon="-85.5224348">
        <ele>127.2</ele>
        <time>2022-10-06T19:17:28Z</time>
      </trkpt>
      <trkpt lat="10.2212166" lon="-85.5222614">
        <ele>127.6</ele>
        <time>2022-10-06T19:17:29Z</time>
      </trkpt>
      <trkpt lat="10.2211940" lon="-85.5220850">
        <ele>128.0</ele>
        <time>2022-10-06T19:17:30Z</time>
      </trkpt>
      <trkpt lat="10.2211741" lon="-85.5219098">
        <ele>128.1</ele>
        <time>2022-10-06T19:17:31Z</time>
      </trkpt>
      <trkpt lat="10.2211603" lon="-85.5217354">
        <ele>128.5</ele>
        <time>2022-10-06T19:17:32Z</time>
      </trkpt>
      <trkpt lat="10.2211597" lon="-85.5215593">
        <ele>128.9</ele>
        <time>2022-10-06T19:17:33Z</time>
      </trkpt>
      <trkpt lat="10.2211779" lon="-85.5213810">
        <ele>129.4</ele>
        <time>2022-10-06T19:17:34Z</time>
      </trkpt>
      <trkpt lat="10.2212155" lon="-85.5212058">
        <ele>130.2</ele>
        <time>2022-10-06T19:17:35Z</time>
      </trkpt>
      <trkpt lat="10.2212645" lon="-85.5210340">
        <ele>130.6</ele>
        <time>2022-10-06T19:17:36Z</time>
      </trkpt>
      <trkpt lat="10.2213201" lon="-85.5208662">
        <ele>131.0</ele>
        <time>2022-10-06T19:17:37Z</time>
      </trkpt>
      <trkpt lat="10.2213799" lon="-85.5207004">
        <ele>131.4</ele>
        <time>2022-10-06T19:17:38Z</time>
      </trkpt>
      <trkpt lat="10.2214409" lon="-85.5205373">
        <ele>132.1</ele>
        <time>2022-10-06T19:17:39Z</time>
      </trkpt>
      <trkpt lat="10.2215008" lon="-85.5203704">
        <ele>132.6</ele>
        <time>2022-10-06T19:17:40Z</time>
      </trkpt>
      <trkpt lat="10.2215548" lon="-85.5202073">
        <ele>133.1</ele>
        <time>2022-10-06T19:17:41Z</time>
      </trkpt>
      <trkpt lat="10.2215971" lon="-85.5200462">
        <ele>133.6</ele>
        <time>2022-10-06T19:17:42Z</time>
      </trkpt>
      <trkpt lat="10.2216208" lon="-85.5198872">
        <ele>134.0</ele>
        <time>2022-10-06T19:17:43Z</time>
      </trkpt>
      <trkpt lat="10.2216355" lon="-85.5197257">
        <ele>134.1</ele>
        <time>2022-10-06T19:17:44Z</time>
      </trkpt>
      <trkpt lat="10.2216291" lon="-85.5195668">
        <ele>134.4</ele>
        <time>2022-10-06T19:17:45Z</time>
      </trkpt>
      <trkpt lat="10.2215992" lon="-85.5194101">
        <ele>134.4</ele>
        <time>2022-10-06T19:17:46Z</time>
      </trkpt>
      <trkpt lat="10.2215468" lon="-85.5192560">
        <ele>133.9</ele>
        <time>2022-10-06T19:17:47Z</time>
      </trkpt>
      <trkpt lat="10.2214659" lon="-85.5191136">
        <ele>134.5</ele>
        <time>2022-10-06T19:17:48Z</time>
      </trkpt>
      <trkpt lat="10.2213771" lon="-85.5189810">
        <ele>135.5</ele>
        <time>2022-10-06T19:17:49Z</time>
      </trkpt>
      <trkpt lat="10.2212760" lon="-85.5188589">
        <ele>136.2</ele>
        <time>2022-10-06T19:17:50Z</time>
      </trkpt>
      <trkpt lat="10.2211690" lon="-85.5187393">
        <ele>136.3</ele>
        <time>2022-10-06T19:17:51Z</time>
      </trkpt>
      <trkpt lat="10.2210463" lon="-85.5186405">
        <ele>136.9</ele>
        <time>2022-10-06T19:17:52Z</time>
      </trkpt>
      <trkpt lat="10.2209154" lon="-85.5185590">
        <ele>137.6</ele>
        <time>2022-10-06T19:17:53Z</time>
      </trkpt>
      <trkpt lat="10.2207768" lon="-85.5184957">
        <ele>138.4</ele>
        <time>2022-10-06T19:17:54Z</time>
      </trkpt>
      <trkpt lat="10.2206300" lon="-85.5184471">
        <ele>139.3</ele>
        <time>2022-10-06T19:17:55Z</time>
      </trkpt>
      <trkpt lat="10.2204769" lon="-85.5184105">
        <ele>139.5</ele>
        <time>2022-10-06T19:17:56Z</time>
      </trkpt>
      <trkpt lat="10.2203195" lon="-85.5183943">
        <ele>140.3</ele>
        <time>2022-10-06T19:17:57Z</time>
      </trkpt>
      <trkpt lat="10.2201597" lon="-85.5183941">
        <ele>141.3</ele>
        <time>2022-10-06T19:17:58Z</time>
      </trkpt>
      <trkpt lat="10.2200013" lon="-85.5183996">
        <ele>142.0</ele>
        <time>2022-10-06T19:17:59Z</time>
      </trkpt>
      <trkpt lat="10.2198426" lon="-85.5184059">
        <ele>142.8</ele>
        <time>2022-10-06T19:18:00Z</time>
      </trkpt>
      <trkpt lat="10.2196857" lon="-85.5184129">
        <ele>143.6</ele>
        <time>2022-10-06T19:18:01Z</time>
      </trkpt>
      <trkpt lat="10.2195261" lon="-85.5184194">
        <ele>144.4</ele>
        <time>2022-10-06T19:18:02Z</time>
      </trkpt>
      <trkpt lat="10.2193668" lon="-85.5184248">
        <ele>145.2</ele>
        <time>2022-10-06T19:18:03Z</time>
      </trkpt>
      <trkpt lat="10.2192076" lon="-85.5184303">
        <ele>146.1</ele>
        <time>2022-10-06T19:18:04Z</time>
      </trkpt>
      <trkpt lat="10.2190507" lon="-85.5184342">
        <ele>146.9</ele>
        <time>2022-10-06T19:18:05Z</time>
      </trkpt>
      <trkpt lat="10.2188961" lon="-85.5184352">
        <ele>147.8</ele>
        <time>2022-10-06T19:18:06Z</time>
      </trkpt>
      <trkpt lat="10.2187411" lon="-85.5184354">
        <ele>147.9</ele>
        <time>2022-10-06T19:18:07Z</time>
      </trkpt>
      <trkpt lat="10.2185855" lon="-85.5184187">
        <ele>148.7</ele>
        <time>2022-10-06T19:18:08Z</time>
      </trkpt>
      <trkpt lat="10.2184283" lon="-85.5183952">
        <ele>148.6</ele>
        <time>2022-10-06T19:18:09Z</time>
      </trkpt>
      <trkpt lat="10.2182715" lon="-85.5183384">
        <ele>149.4</ele>
        <time>2022-10-06T19:18:10Z</time>
      </trkpt>
      <trkpt lat="10.2181182" lon="-85.5182705">
        <ele>150.0</ele>
        <time>2022-10-06T19:18:11Z</time>
      </trkpt>
      <trkpt lat="10.2179707" lon="-85.5181860">
        <ele>150.3</ele>
        <time>2022-10-06T19:18:12Z</time>
      </trkpt>
      <trkpt lat="10.2178366" lon="-85.5180866">
        <ele>150.7</ele>
        <time>2022-10-06T19:18:13Z</time>
      </trkpt>
      <trkpt lat="10.2177166" lon="-85.5179672">
        <ele>151.7</ele>
        <time>2022-10-06T19:18:14Z</time>
      </trkpt>
      <trkpt lat="10.2176130" lon="-85.5178371">
        <ele>152.3</ele>
        <time>2022-10-06T19:18:15Z</time>
      </trkpt>
      <trkpt lat="10.2175231" lon="-85.5177058">
        <ele>152.3</ele>
        <time>2022-10-06T19:18:16Z</time>
      </trkpt>
      <trkpt lat="10.2174603" lon="-85.5175496">
        <ele>152.7</ele>
        <time>2022-10-06T19:18:17Z</time>
      </trkpt>
      <trkpt lat="10.2174069" lon="-85.5173980">
        <ele>153.1</ele>
        <time>2022-10-06T19:18:18Z</time>
      </trkpt>
      <trkpt lat="10.2173721" lon="-85.5172378">
        <ele>152.9</ele>
        <time>2022-10-06T19:18:19Z</time>
      </trkpt>
      <trkpt lat="10.2173590" lon="-85.5170759">
        <ele>153.1</ele>
        <time>2022-10-06T19:18:20Z</time>
      </trkpt>
      <trkpt lat="10.2173717" lon="-85.5169148">
        <ele>153.7</ele>
        <time>2022-10-06T19:18:21Z</time>
      </trkpt>
      <trkpt lat="10.2174128" lon="-85.5167497">
        <ele>153.8</ele>
        <time>2022-10-06T19:18:22Z</time>
      </trkpt>
      <trkpt lat="10.2174564" lon="-85.5165835">
        <ele>154.1</ele>
        <time>2022-10-06T19:18:23Z</time>
      </trkpt>
      <trkpt lat="10.2175028" lon="-85.5164203">
        <ele>154.1</ele>
        <time>2022-10-06T19:18:24Z</time>
      </trkpt>
      <trkpt lat="10.2175493" lon="-85.5162572">
        <ele>154.0</ele>
        <time>2022-10-06T19:18:25Z</time>
      </trkpt>
      <trkpt lat="10.2175972" lon="-85.5160963">
        <ele>154.4</ele>
        <time>2022-10-06T19:18:26Z</time>
      </trkpt>
      <trkpt lat="10.2176432" lon="-85.5159311">
        <ele>154.1</ele>
        <time>2022-10-06T19:18:27Z</time>
      </trkpt>
      <trkpt lat="10.2176834" lon="-85.5157674">
        <ele>153.6</ele>
        <time>2022-10-06T19:18:28Z</time>
      </trkpt>
      <trkpt lat="10.2177114" lon="-85.5156016">
        <ele>153.3</ele>
        <time>2022-10-06T19:18:29Z</time>
      </trkpt>
      <trkpt lat="10.2177254" lon="-85.5154352">
        <ele>153.0</ele>
        <time>2022-10-06T19:18:30Z</time>
      </trkpt>
      <trkpt lat="10.2177219" lon="-85.5152690">
        <ele>152.3</ele>
        <time>2022-10-06T19:18:31Z</time>
      </trkpt>
      <trkpt lat="10.2177044" lon="-85.5151027">
        <ele>152.4</ele>
        <time>2022-10-06T19:18:32Z</time>
      </trkpt>
      <trkpt lat="10.2176677" lon="-85.5149371">
        <ele>151.8</ele>
        <time>2022-10-06T19:18:33Z</time>
      </trkpt>
      <trkpt lat="10.2176113" lon="-85.5147713">
        <ele>151.5</ele>
        <time>2022-10-06T19:18:34Z</time>
      </trkpt>
      <trkpt lat="10.2175372" lon="-85.5146110">
        <ele>151.0</ele>
        <time>2022-10-06T19:18:35Z</time>
      </trkpt>
      <trkpt lat="10.2174453" lon="-85.5144609">
        <ele>150.5</ele>
        <time>2022-10-06T19:18:36Z</time>
      </trkpt>
      <trkpt lat="10.2173395" lon="-85.5143074">
        <ele>150.6</ele>
        <time>2022-10-06T19:18:37Z</time>
      </trkpt>
      <trkpt lat="10.2172179" lon="-85.5141801">
        <ele>149.8</ele>
        <time>2022-10-06T19:18:38Z</time>
      </trkpt>
      <trkpt lat="10.2170843" lon="-85.5140644">
        <ele>149.5</ele>
        <time>2022-10-06T19:18:39Z</time>
      </trkpt>
      <trkpt lat="10.2169428" lon="-85.5139667">
        <ele>148.9</ele>
        <time>2022-10-06T19:18:40Z</time>
      </trkpt>
      <trkpt lat="10.2167957" lon="-85.5138857">
        <ele>148.4</ele>
        <time>2022-10-06T19:18:41Z</time>
      </trkpt>
      <trkpt lat="10.2166415" lon="-85.5138061">
        <ele>148.4</ele>
        <time>2022-10-06T19:18:42Z</time>
      </trkpt>
      <trkpt lat="10.2164984" lon="-85.5137359">
        <ele>147.9</ele>
        <time>2022-10-06T19:18:43Z</time>
      </trkpt>
      <trkpt lat="10.2163562" lon="-85.5136677">
        <ele>147.3</ele>
        <time>2022-10-06T19:18:44Z</time>
      </trkpt>
      <trkpt lat="10.2162130" lon="-85.5136012">
        <ele>147.4</ele>
        <time>2022-10-06T19:18:45Z</time>
      </trkpt>
      <trkpt lat="10.2160745" lon="-85.5135272">
        <ele>146.9</ele>
        <time>2022-10-06T19:18:46Z</time>
      </trkpt>
      <trkpt lat="10.2159355" lon="-85.5134430">
        <ele>146.4</ele>
        <time>2022-10-06T19:18:47Z</time>
      </trkpt>
      <trkpt lat="10.2157941" lon="-85.5133493">
        <ele>146.3</ele>
        <time>2022-10-06T19:18:48Z</time>
      </trkpt>
      <trkpt lat="10.2156610" lon="-85.5132373">
        <ele>146.2</ele>
        <time>2022-10-06T19:18:49Z</time>
      </trkpt>
      <trkpt lat="10.2155360" lon="-85.5131110">
        <ele>145.6</ele>
        <time>2022-10-06T19:18:50Z</time>
      </trkpt>
      <trkpt lat="10.2154182" lon="-85.5129736">
        <ele>145.1</ele>
        <time>2022-10-06T19:18:51Z</time>
      </trkpt>
      <trkpt lat="10.2153052" lon="-85.5128319">
        <ele>144.6</ele>
        <time>2022-10-06T19:18:52Z</time>
      </trkpt>
      <trkpt lat="10.2151945" lon="-85.5126889">
        <ele>144.3</ele>
        <time>2022-10-06T19:18:53Z</time>
      </trkpt>
      <trkpt lat="10.2150835" lon="-85.5125479">
        <ele>144.1</ele>
        <time>2022-10-06T19:18:54Z</time>
      </trkpt>
      <trkpt lat="10.2149739" lon="-85.5124081">
        <ele>144.0</ele>
        <time>2022-10-06T19:18:55Z</time>
      </trkpt>
      <trkpt lat="10.2148642" lon="-85.5122673">
        <ele>144.1</ele>
        <time>2022-10-06T19:18:56Z</time>
      </trkpt>
      <trkpt lat="10.2147545" lon="-85.5121292">
        <ele>144.3</ele>
        <time>2022-10-06T19:18:57Z</time>
      </trkpt>
      <trkpt lat="10.2146455" lon="-85.5119894">
        <ele>144.7</ele>
        <time>2022-10-06T19:18:58Z</time>
      </trkpt>
      <trkpt lat="10.2145377" lon="-85.5118503">
        <ele>145.2</ele>
        <time>2022-10-06T19:18:59Z</time>
      </trkpt>
      <trkpt lat="10.2144327" lon="-85.5117117">
        <ele>145.7</ele>
        <time>2022-10-06T19:19:00Z</time>
      </trkpt>
      <trkpt lat="10.2143279" lon="-85.5115722">
        <ele>146.4</ele>
        <time>2022-10-06T19:19:01Z</time>
      </trkpt>
      <trkpt lat="10.2142194" lon="-85.5114278">
        <ele>147.0</ele>
        <time>2022-10-06T19:19:02Z</time>
      </trkpt>
      <trkpt lat="10.2141121" lon="-85.5112839">
        <ele>147.6</ele>
        <time>2022-10-06T19:19:03Z</time>
      </trkpt>
      <trkpt lat="10.2140083" lon="-85.5111405">
        <ele>148.2</ele>
        <time>2022-10-06T19:19:04Z</time>
      </trkpt>
      <trkpt lat="10.2139062" lon="-85.5109961">
        <ele>148.9</ele>
        <time>2022-10-06T19:19:05Z</time>
      </trkpt>
      <trkpt lat="10.2138107" lon="-85.5108564">
        <ele>149.6</ele>
        <time>2022-10-06T19:19:06Z</time>
      </trkpt>
      <trkpt lat="10.2137155" lon="-85.5107165">
        <ele>150.2</ele>
        <time>2022-10-06T19:19:07Z</time>
      </trkpt>
      <trkpt lat="10.2136230" lon="-85.5105775">
        <ele>150.7</ele>
        <time>2022-10-06T19:19:08Z</time>
      </trkpt>
      <trkpt lat="10.2135343" lon="-85.5104396">
        <ele>151.2</ele>
        <time>2022-10-06T19:19:09Z</time>
      </trkpt>
      <trkpt lat="10.2134451" lon="-85.5103023">
        <ele>151.7</ele>
        <time>2022-10-06T19:19:10Z</time>
      </trkpt>
      <trkpt lat="10.2133560" lon="-85.5101638">
        <ele>152.2</ele>
        <time>2022-10-06T19:19:11Z</time>
      </trkpt>
      <trkpt lat="10.2132686" lon="-85.5100270">
        <ele>152.2</ele>
        <time>2022-10-06T19:19:12Z</time>
      </trkpt>
      <trkpt lat="10.2131818" lon="-85.5098885">
        <ele>152.8</ele>
        <time>2022-10-06T19:19:13Z</time>
      </trkpt>
      <trkpt lat="10.2130939" lon="-85.5097505">
        <ele>153.2</ele>
        <time>2022-10-06T19:19:14Z</time>
      </trkpt>
      <trkpt lat="10.2130069" lon="-85.5096156">
        <ele>153.8</ele>
        <time>2022-10-06T19:19:15Z</time>
      </trkpt>
      <trkpt lat="10.2129223" lon="-85.5094843">
        <ele>154.3</ele>
        <time>2022-10-06T19:19:16Z</time>
      </trkpt>
      <trkpt lat="10.2128391" lon="-85.5093532">
        <ele>154.8</ele>
        <time>2022-10-06T19:19:17Z</time>
      </trkpt>
      <trkpt lat="10.2127584" lon="-85.5092223">
        <ele>155.3</ele>
        <time>2022-10-06T19:19:18Z</time>
      </trkpt>
      <trkpt lat="10.2126765" lon="-85.5090913">
        <ele>155.8</ele>
        <time>2022-10-06T19:19:19Z</time>
      </trkpt>
      <trkpt lat="10.2125943" lon="-85.5089613">
        <ele>156.2</ele>
        <time>2022-10-06T19:19:20Z</time>
      </trkpt>
      <trkpt lat="10.2125133" lon="-85.5088293">
        <ele>156.7</ele>
        <time>2022-10-06T19:19:21Z</time>
      </trkpt>
      <trkpt lat="10.2124294" lon="-85.5086952">
        <ele>157.1</ele>
        <time>2022-10-06T19:19:22Z</time>
      </trkpt>
      <trkpt lat="10.2123455" lon="-85.5085600">
        <ele>157.5</ele>
        <time>2022-10-06T19:19:23Z</time>
      </trkpt>
      <trkpt lat="10.2122609" lon="-85.5084254">
        <ele>157.8</ele>
        <time>2022-10-06T19:19:24Z</time>
      </trkpt>
      <trkpt lat="10.2121773" lon="-85.5082917">
        <ele>158.0</ele>
        <time>2022-10-06T19:19:25Z</time>
      </trkpt>
      <trkpt lat="10.2120968" lon="-85.5081615">
        <ele>158.3</ele>
        <time>2022-10-06T19:19:26Z</time>
      </trkpt>
      <trkpt lat="10.2120179" lon="-85.5080344">
        <ele>158.6</ele>
        <time>2022-10-06T19:19:27Z</time>
      </trkpt>
      <trkpt lat="10.2119409" lon="-85.5079104">
        <ele>158.7</ele>
        <time>2022-10-06T19:19:28Z</time>
      </trkpt>
      <trkpt lat="10.2118659" lon="-85.5077914">
        <ele>158.8</ele>
        <time>2022-10-06T19:19:29Z</time>
      </trkpt>
      <trkpt lat="10.2117929" lon="-85.5076768">
        <ele>158.8</ele>
        <time>2022-10-06T19:19:30Z</time>
      </trkpt>
      <trkpt lat="10.2117227" lon="-85.5075646">
        <ele>158.8</ele>
        <time>2022-10-06T19:19:31Z</time>
      </trkpt>
      <trkpt lat="10.2116566" lon="-85.5074612">
        <ele>158.8</ele>
        <time>2022-10-06T19:19:32Z</time>
      </trkpt>
      <trkpt lat="10.2115942" lon="-85.5073625">
        <ele>158.9</ele>
        <time>2022-10-06T19:19:33Z</time>
      </trkpt>
      <trkpt lat="10.2115333" lon="-85.5072632">
        <ele>159.0</ele>
        <time>2022-10-06T19:19:34Z</time>
      </trkpt>
      <trkpt lat="10.2114721" lon="-85.5071630">
        <ele>159.2</ele>
        <time>2022-10-06T19:19:35Z</time>
      </trkpt>
      <trkpt lat="10.2114119" lon="-85.5070644">
        <ele>159.1</ele>
        <time>2022-10-06T19:19:36Z</time>
      </trkpt>
      <trkpt lat="10.2113513" lon="-85.5069679">
        <ele>159.2</ele>
        <time>2022-10-06T19:19:37Z</time>
      </trkpt>
      <trkpt lat="10.2112884" lon="-85.5068659">
        <ele>159.2</ele>
        <time>2022-10-06T19:19:38Z</time>
      </trkpt>
      <trkpt lat="10.2112229" lon="-85.5067610">
        <ele>159.3</ele>
        <time>2022-10-06T19:19:39Z</time>
      </trkpt>
      <trkpt lat="10.2111539" lon="-85.5066527">
        <ele>159.4</ele>
        <time>2022-10-06T19:19:40Z</time>
      </trkpt>
      <trkpt lat="10.2110841" lon="-85.5065415">
        <ele>159.3</ele>
        <time>2022-10-06T19:19:41Z</time>
      </trkpt>
      <trkpt lat="10.2110109" lon="-85.5064250">
        <ele>159.5</ele>
        <time>2022-10-06T19:19:42Z</time>
      </trkpt>
      <trkpt lat="10.2109371" lon="-85.5063059">
        <ele>159.6</ele>
        <time>2022-10-06T19:19:43Z</time>
      </trkpt>
      <trkpt lat="10.2108612" lon="-85.5061849">
        <ele>159.7</ele>
        <time>2022-10-06T19:19:44Z</time>
      </trkpt>
      <trkpt lat="10.2107845" lon="-85.5060639">
        <ele>159.8</ele>
        <time>2022-10-06T19:19:45Z</time>
      </trkpt>
      <trkpt lat="10.2107087" lon="-85.5059416">
        <ele>159.8</ele>
        <time>2022-10-06T19:19:46Z</time>
      </trkpt>
      <trkpt lat="10.2106323" lon="-85.5058207">
        <ele>159.9</ele>
        <time>2022-10-06T19:19:47Z</time>
      </trkpt>
      <trkpt lat="10.2105579" lon="-85.5057046">
        <ele>160.0</ele>
        <time>2022-10-06T19:19:48Z</time>
      </trkpt>
      <trkpt lat="10.2104851" lon="-85.5055946">
        <ele>160.0</ele>
        <time>2022-10-06T19:19:49Z</time>
      </trkpt>
      <trkpt lat="10.2104176" lon="-85.5054886">
        <ele>160.2</ele>
        <time>2022-10-06T19:19:50Z</time>
      </trkpt>
      <trkpt lat="10.2103479" lon="-85.5053808">
        <ele>160.2</ele>
        <time>2022-10-06T19:19:51Z</time>
      </trkpt>
      <trkpt lat="10.2102764" lon="-85.5052681">
        <ele>160.1</ele>
        <time>2022-10-06T19:19:52Z</time>
      </trkpt>
      <trkpt lat="10.2102061" lon="-85.5051547">
        <ele>160.1</ele>
        <time>2022-10-06T19:19:53Z</time>
      </trkpt>
      <trkpt lat="10.2101347" lon="-85.5050396">
        <ele>160.1</ele>
        <time>2022-10-06T19:19:54Z</time>
      </trkpt>
      <trkpt lat="10.2100645" lon="-85.5049265">
        <ele>160.1</ele>
        <time>2022-10-06T19:19:55Z</time>
      </trkpt>
      <trkpt lat="10.2099923" lon="-85.5048113">
        <ele>160.1</ele>
        <time>2022-10-06T19:19:56Z</time>
      </trkpt>
      <trkpt lat="10.2099165" lon="-85.5046898">
        <ele>160.3</ele>
        <time>2022-10-06T19:19:57Z</time>
      </trkpt>
      <trkpt lat="10.2098375" lon="-85.5045660">
        <ele>160.3</ele>
        <time>2022-10-06T19:19:58Z</time>
      </trkpt>
      <trkpt lat="10.2097563" lon="-85.5044382">
        <ele>160.6</ele>
        <time>2022-10-06T19:19:59Z</time>
      </trkpt>
      <trkpt lat="10.2096739" lon="-85.5043090">
        <ele>160.8</ele>
        <time>2022-10-06T19:20:00Z</time>
      </trkpt>
      <trkpt lat="10.2095900" lon="-85.5041771">
        <ele>161.0</ele>
        <time>2022-10-06T19:20:01Z</time>
      </trkpt>
      <trkpt lat="10.2095039" lon="-85.5040406">
        <ele>161.2</ele>
        <time>2022-10-06T19:20:02Z</time>
      </trkpt>
      <trkpt lat="10.2094182" lon="-85.5039040">
        <ele>161.6</ele>
        <time>2022-10-06T19:20:03Z</time>
      </trkpt>
      <trkpt lat="10.2093313" lon="-85.5037636">
        <ele>161.9</ele>
        <time>2022-10-06T19:20:04Z</time>
      </trkpt>
      <trkpt lat="10.2092447" lon="-85.5036225">
        <ele>162.2</ele>
        <time>2022-10-06T19:20:05Z</time>
      </trkpt>
      <trkpt lat="10.2091593" lon="-85.5034833">
        <ele>162.6</ele>
        <time>2022-10-06T19:20:06Z</time>
      </trkpt>
      <trkpt lat="10.2090756" lon="-85.5033476">
        <ele>162.6</ele>
        <time>2022-10-06T19:20:07Z</time>
      </trkpt>
      <trkpt lat="10.2089915" lon="-85.5032147">
        <ele>162.9</ele>
        <time>2022-10-06T19:20:08Z</time>
      </trkpt>
      <trkpt lat="10.2089064" lon="-85.5030846">
        <ele>163.3</ele>
        <time>2022-10-06T19:20:09Z</time>
      </trkpt>
      <trkpt lat="10.2088207" lon="-85.5029506">
        <ele>163.6</ele>
        <time>2022-10-06T19:20:10Z</time>
      </trkpt>
      <trkpt lat="10.2087367" lon="-85.5028156">
        <ele>163.8</ele>
        <time>2022-10-06T19:20:11Z</time>
      </trkpt>
      <trkpt lat="10.2086524" lon="-85.5026792">
        <ele>163.8</ele>
        <time>2022-10-06T19:20:12Z</time>
      </trkpt>
      <trkpt lat="10.2085686" lon="-85.5025442">
        <ele>164.3</ele>
        <time>2022-10-06T19:20:13Z</time>
      </trkpt>
      <trkpt lat="10.2084877" lon="-85.5024178">
        <ele>164.6</ele>
        <time>2022-10-06T19:20:14Z</time>
      </trkpt>
      <trkpt lat="10.2084071" lon="-85.5022909">
        <ele>164.9</ele>
        <time>2022-10-06T19:20:15Z</time>
      </trkpt>
      <trkpt lat="10.2083289" lon="-85.5021665">
        <ele>165.3</ele>
        <time>2022-10-06T19:20:16Z</time>
      </trkpt>
      <trkpt lat="10.2082491" lon="-85.5020423">
        <ele>165.5</ele>
        <time>2022-10-06T19:20:17Z</time>
      </trkpt>
      <trkpt lat="10.2081698" lon="-85.5019164">
        <ele>165.8</ele>
        <time>2022-10-06T19:20:18Z</time>
      </trkpt>
      <trkpt lat="10.2080912" lon="-85.5017901">
        <ele>166.2</ele>
        <time>2022-10-06T19:20:19Z</time>
      </trkpt>
      <trkpt lat="10.2080158" lon="-85.5016653">
        <ele>166.4</ele>
        <time>2022-10-06T19:20:20Z</time>
      </trkpt>
      <trkpt lat="10.2079428" lon="-85.5015467">
        <ele>166.7</ele>
        <time>2022-10-06T19:20:21Z</time>
      </trkpt>
      <trkpt lat="10.2078694" lon="-85.5014288">
        <ele>167.0</ele>
        <time>2022-10-06T19:20:22Z</time>
      </trkpt>
      <trkpt lat="10.2077936" lon="-85.5013082">
        <ele>167.3</ele>
        <time>2022-10-06T19:20:23Z</time>
      </trkpt>
      <trkpt lat="10.2077149" lon="-85.5011867">
        <ele>167.6</ele>
        <time>2022-10-06T19:20:24Z</time>
      </trkpt>
      <trkpt lat="10.2076387" lon="-85.5010685">
        <ele>167.4</ele>
        <time>2022-10-06T19:20:25Z</time>
      </trkpt>
      <trkpt lat="10.2075627" lon="-85.5009520">
        <ele>167.8</ele>
        <time>2022-10-06T19:20:26Z</time>
      </trkpt>
      <trkpt lat="10.2074905" lon="-85.5008380">
        <ele>168.1</ele>
        <time>2022-10-06T19:20:27Z</time>
      </trkpt>
      <trkpt lat="10.2074217" lon="-85.5007284">
        <ele>168.4</ele>
        <time>2022-10-06T19:20:28Z</time>
      </trkpt>
      <trkpt lat="10.2073515" lon="-85.5006155">
        <ele>168.6</ele>
        <time>2022-10-06T19:20:29Z</time>
      </trkpt>
      <trkpt lat="10.2072801" lon="-85.5004993">
        <ele>168.8</ele>
        <time>2022-10-06T19:20:30Z</time>
      </trkpt>
      <trkpt lat="10.2072093" lon="-85.5003847">
        <ele>169.0</ele>
        <time>2022-10-06T19:20:31Z</time>
      </trkpt>
      <trkpt lat="10.2071393" lon="-85.5002725">
        <ele>169.0</ele>
        <time>2022-10-06T19:20:32Z</time>
      </trkpt>
      <trkpt lat="10.2070709" lon="-85.5001648">
        <ele>169.1</ele>
        <time>2022-10-06T19:20:33Z</time>
      </trkpt>
      <trkpt lat="10.2070033" lon="-85.5000593">
        <ele>169.2</ele>
        <time>2022-10-06T19:20:34Z</time>
      </trkpt>
      <trkpt lat="10.2069340" lon="-85.4999479">
        <ele>169.3</ele>
        <time>2022-10-06T19:20:35Z</time>
      </trkpt>
      <trkpt lat="10.2068644" lon="-85.4998326">
        <ele>169.3</ele>
        <time>2022-10-06T19:20:36Z</time>
      </trkpt>
      <trkpt lat="10.2067929" lon="-85.4997091">
        <ele>169.4</ele>
        <time>2022-10-06T19:20:37Z</time>
      </trkpt>
      <trkpt lat="10.2067184" lon="-85.4995811">
        <ele>169.5</ele>
        <time>2022-10-06T19:20:38Z</time>
      </trkpt>
      <trkpt lat="10.2066407" lon="-85.4994465">
        <ele>169.5</ele>
        <time>2022-10-06T19:20:39Z</time>
      </trkpt>
      <trkpt lat="10.2065573" lon="-85.4993052">
        <ele>169.5</ele>
        <time>2022-10-06T19:20:40Z</time>
      </trkpt>
      <trkpt lat="10.2064688" lon="-85.4991600">
        <ele>169.6</ele>
        <time>2022-10-06T19:20:41Z</time>
      </trkpt>
      <trkpt lat="10.2063740" lon="-85.4990116">
        <ele>169.6</ele>
        <time>2022-10-06T19:20:42Z</time>
      </trkpt>
      <trkpt lat="10.2062767" lon="-85.4988621">
        <ele>169.6</ele>
        <time>2022-10-06T19:20:43Z</time>
      </trkpt>
      <trkpt lat="10.2061765" lon="-85.4987100">
        <ele>169.5</ele>
        <time>2022-10-06T19:20:44Z</time>
      </trkpt>
      <trkpt lat="10.2060749" lon="-85.4985568">
        <ele>169.5</ele>
        <time>2022-10-06T19:20:45Z</time>
      </trkpt>
      <trkpt lat="10.2059739" lon="-85.4984015">
        <ele>169.5</ele>
        <time>2022-10-06T19:20:46Z</time>
      </trkpt>
      <trkpt lat="10.2058743" lon="-85.4982469">
        <ele>169.5</ele>
        <time>2022-10-06T19:20:47Z</time>
      </trkpt>
      <trkpt lat="10.2057751" lon="-85.4980910">
        <ele>169.5</ele>
        <time>2022-10-06T19:20:48Z</time>
      </trkpt>
      <trkpt lat="10.2056757" lon="-85.4979366">
        <ele>169.5</ele>
        <time>2022-10-06T19:20:49Z</time>
      </trkpt>
      <trkpt lat="10.2055771" lon="-85.4977827">
        <ele>169.4</ele>
        <time>2022-10-06T19:20:50Z</time>
      </trkpt>
      <trkpt lat="10.2054799" lon="-85.4976282">
        <ele>169.4</ele>
        <time>2022-10-06T19:20:51Z</time>
      </trkpt>
      <trkpt lat="10.2053830" lon="-85.4974739">
        <ele>169.4</ele>
        <time>2022-10-06T19:20:52Z</time>
      </trkpt>
      <trkpt lat="10.2052845" lon="-85.4973197">
        <ele>169.4</ele>
        <time>2022-10-06T19:20:53Z</time>
      </trkpt>
      <trkpt lat="10.2051870" lon="-85.4971664">
        <ele>169.3</ele>
        <time>2022-10-06T19:20:54Z</time>
      </trkpt>
      <trkpt lat="10.2050877" lon="-85.4970086">
        <ele>169.4</ele>
        <time>2022-10-06T19:20:55Z</time>
      </trkpt>
      <trkpt lat="10.2049891" lon="-85.4968514">
        <ele>169.4</ele>
        <time>2022-10-06T19:20:56Z</time>
      </trkpt>
      <trkpt lat="10.2048905" lon="-85.4966957">
        <ele>169.4</ele>
        <time>2022-10-06T19:20:57Z</time>
      </trkpt>
      <trkpt lat="10.2047911" lon="-85.4965379">
        <ele>169.4</ele>
        <time>2022-10-06T19:20:58Z</time>
      </trkpt>
      <trkpt lat="10.2046907" lon="-85.4963773">
        <ele>169.3</ele>
        <time>2022-10-06T19:20:59Z</time>
      </trkpt>
      <trkpt lat="10.2045915" lon="-85.4962180">
        <ele>169.3</ele>
        <time>2022-10-06T19:21:00Z</time>
      </trkpt>
      <trkpt lat="10.2044903" lon="-85.4960572">
        <ele>169.3</ele>
        <time>2022-10-06T19:21:01Z</time>
      </trkpt>
      <trkpt lat="10.2043889" lon="-85.4958943">
        <ele>169.4</ele>
        <time>2022-10-06T19:21:02Z</time>
      </trkpt>
      <trkpt lat="10.2042880" lon="-85.4957329">
        <ele>169.3</ele>
        <time>2022-10-06T19:21:03Z</time>
      </trkpt>
      <trkpt lat="10.2041857" lon="-85.4955711">
        <ele>169.4</ele>
        <time>2022-10-06T19:21:04Z</time>
      </trkpt>
      <trkpt lat="10.2040830" lon="-85.4954067">
        <ele>169.4</ele>
        <time>2022-10-06T19:21:05Z</time>
      </trkpt>
      <trkpt lat="10.2039782" lon="-85.4952414">
        <ele>169.4</ele>
        <time>2022-10-06T19:21:06Z</time>
      </trkpt>
      <trkpt lat="10.2038743" lon="-85.4950774">
        <ele>169.4</ele>
        <time>2022-10-06T19:21:07Z</time>
      </trkpt>
      <trkpt lat="10.2037723" lon="-85.4949150">
        <ele>169.5</ele>
        <time>2022-10-06T19:21:08Z</time>
      </trkpt>
      <trkpt lat="10.2036678" lon="-85.4947519">
        <ele>169.5</ele>
        <time>2022-10-06T19:21:09Z</time>
      </trkpt>
      <trkpt lat="10.2035641" lon="-85.4945865">
        <ele>169.5</ele>
        <time>2022-10-06T19:21:10Z</time>
      </trkpt>
      <trkpt lat="10.2034591" lon="-85.4944198">
        <ele>169.5</ele>
        <time>2022-10-06T19:21:11Z</time>
      </trkpt>
      <trkpt lat="10.2033535" lon="-85.4942501">
        <ele>169.6</ele>
        <time>2022-10-06T19:21:12Z</time>
      </trkpt>
      <trkpt lat="10.2032476" lon="-85.4940822">
        <ele>169.6</ele>
        <time>2022-10-06T19:21:13Z</time>
      </trkpt>
      <trkpt lat="10.2031412" lon="-85.4939129">
        <ele>169.6</ele>
        <time>2022-10-06T19:21:14Z</time>
      </trkpt>
      <trkpt lat="10.2030342" lon="-85.4937441">
        <ele>169.8</ele>
        <time>2022-10-06T19:21:15Z</time>
      </trkpt>
      <trkpt lat="10.2029258" lon="-85.4935743">
        <ele>169.8</ele>
        <time>2022-10-06T19:21:16Z</time>
      </trkpt>
      <trkpt lat="10.2028171" lon="-85.4934034">
        <ele>169.8</ele>
        <time>2022-10-06T19:21:17Z</time>
      </trkpt>
      <trkpt lat="10.2027060" lon="-85.4932305">
        <ele>169.8</ele>
        <time>2022-10-06T19:21:18Z</time>
      </trkpt>
      <trkpt lat="10.2025935" lon="-85.4930548">
        <ele>169.8</ele>
        <time>2022-10-06T19:21:19Z</time>
      </trkpt>
      <trkpt lat="10.2024818" lon="-85.4928782">
        <ele>169.9</ele>
        <time>2022-10-06T19:21:20Z</time>
      </trkpt>
      <trkpt lat="10.2023687" lon="-85.4927001">
        <ele>169.9</ele>
        <time>2022-10-06T19:21:21Z</time>
      </trkpt>
      <trkpt lat="10.2022547" lon="-85.4925183">
        <ele>170.0</ele>
        <time>2022-10-06T19:21:22Z</time>
      </trkpt>
      <trkpt lat="10.2021428" lon="-85.4923347">
        <ele>170.1</ele>
        <time>2022-10-06T19:21:23Z</time>
      </trkpt>
      <trkpt lat="10.2020304" lon="-85.4921512">
        <ele>170.3</ele>
        <time>2022-10-06T19:21:24Z</time>
      </trkpt>
      <trkpt lat="10.2019170" lon="-85.4919701">
        <ele>170.3</ele>
        <time>2022-10-06T19:21:25Z</time>
      </trkpt>
      <trkpt lat="10.2018037" lon="-85.4917882">
        <ele>170.5</ele>
        <time>2022-10-06T19:21:26Z</time>
      </trkpt>
      <trkpt lat="10.2016905" lon="-85.4916089">
        <ele>170.7</ele>
        <time>2022-10-06T19:21:27Z</time>
      </trkpt>
      <trkpt lat="10.2015772" lon="-85.4914287">
        <ele>170.8</ele>
        <time>2022-10-06T19:21:28Z</time>
      </trkpt>
      <trkpt lat="10.2014659" lon="-85.4912515">
        <ele>171.0</ele>
        <time>2022-10-06T19:21:29Z</time>
      </trkpt>
      <trkpt lat="10.2013565" lon="-85.4910759">
        <ele>171.1</ele>
        <time>2022-10-06T19:21:30Z</time>
      </trkpt>
      <trkpt lat="10.2012505" lon="-85.4909034">
        <ele>171.3</ele>
        <time>2022-10-06T19:21:31Z</time>
      </trkpt>
      <trkpt lat="10.2011477" lon="-85.4907308">
        <ele>171.5</ele>
        <time>2022-10-06T19:21:32Z</time>
      </trkpt>
      <trkpt lat="10.2010443" lon="-85.4905615">
        <ele>171.7</ele>
        <time>2022-10-06T19:21:33Z</time>
      </trkpt>
      <trkpt lat="10.2009367" lon="-85.4903953">
        <ele>171.9</ele>
        <time>2022-10-06T19:21:34Z</time>
      </trkpt>
      <trkpt lat="10.2008280" lon="-85.4902305">
        <ele>172.4</ele>
        <time>2022-10-06T19:21:35Z</time>
      </trkpt>
      <trkpt lat="10.2007212" lon="-85.4900671">
        <ele>172.9</ele>
        <time>2022-10-06T19:21:36Z</time>
      </trkpt>
      <trkpt lat="10.2006162" lon="-85.4899007">
        <ele>173.6</ele>
        <time>2022-10-06T19:21:37Z</time>
      </trkpt>
      <trkpt lat="10.2005103" lon="-85.4897350">
        <ele>174.5</ele>
        <time>2022-10-06T19:21:38Z</time>
      </trkpt>
      <trkpt lat="10.2004051" lon="-85.4895697">
        <ele>175.4</ele>
        <time>2022-10-06T19:21:39Z</time>
      </trkpt>
      <trkpt lat="10.2002973" lon="-85.4894013">
        <ele>176.4</ele>
        <time>2022-10-06T19:21:40Z</time>
      </trkpt>
      <trkpt lat="10.2001887" lon="-85.4892324">
        <ele>177.5</ele>
        <time>2022-10-06T19:21:41Z</time>
      </trkpt>
      <trkpt lat="10.2000814" lon="-85.4890628">
        <ele>178.5</ele>
        <time>2022-10-06T19:21:42Z</time>
      </trkpt>
      <trkpt lat="10.1999758" lon="-85.4888923">
        <ele>179.6</ele>
        <time>2022-10-06T19:21:43Z</time>
      </trkpt>
      <trkpt lat="10.1998708" lon="-85.4887190">
        <ele>180.4</ele>
        <time>2022-10-06T19:21:44Z</time>
      </trkpt>
      <trkpt lat="10.1997650" lon="-85.4885473">
        <ele>180.3</ele>
        <time>2022-10-06T19:21:45Z</time>
      </trkpt>
      <trkpt lat="10.1996603" lon="-85.4883743">
        <ele>180.9</ele>
        <time>2022-10-06T19:21:46Z</time>
      </trkpt>
      <trkpt lat="10.1995567" lon="-85.4882027">
        <ele>181.1</ele>
        <time>2022-10-06T19:21:47Z</time>
      </trkpt>
      <trkpt lat="10.1994524" lon="-85.4880290">
        <ele>181.3</ele>
        <time>2022-10-06T19:21:48Z</time>
      </trkpt>
      <trkpt lat="10.1993492" lon="-85.4878551">
        <ele>181.6</ele>
        <time>2022-10-06T19:21:49Z</time>
      </trkpt>
      <trkpt lat="10.1992471" lon="-85.4876812">
        <ele>182.0</ele>
        <time>2022-10-06T19:21:50Z</time>
      </trkpt>
      <trkpt lat="10.1991461" lon="-85.4875076">
        <ele>182.1</ele>
        <time>2022-10-06T19:21:51Z</time>
      </trkpt>
      <trkpt lat="10.1990446" lon="-85.4873295">
        <ele>182.0</ele>
        <time>2022-10-06T19:21:52Z</time>
      </trkpt>
      <trkpt lat="10.1989406" lon="-85.4871479">
        <ele>181.9</ele>
        <time>2022-10-06T19:21:53Z</time>
      </trkpt>
      <trkpt lat="10.1988386" lon="-85.4869676">
        <ele>181.8</ele>
        <time>2022-10-06T19:21:54Z</time>
      </trkpt>
      <trkpt lat="10.1987364" lon="-85.4867877">
        <ele>181.6</ele>
        <time>2022-10-06T19:21:55Z</time>
      </trkpt>
      <trkpt lat="10.1986360" lon="-85.4866072">
        <ele>181.6</ele>
        <time>2022-10-06T19:21:56Z</time>
      </trkpt>
      <trkpt lat="10.1985343" lon="-85.4864261">
        <ele>181.5</ele>
        <time>2022-10-06T19:21:57Z</time>
      </trkpt>
      <trkpt lat="10.1984324" lon="-85.4862473">
        <ele>181.3</ele>
        <time>2022-10-06T19:21:58Z</time>
      </trkpt>
      <trkpt lat="10.1983290" lon="-85.4860673">
        <ele>181.2</ele>
        <time>2022-10-06T19:21:59Z</time>
      </trkpt>
      <trkpt lat="10.1982260" lon="-85.4858856">
        <ele>181.0</ele>
        <time>2022-10-06T19:22:00Z</time>
      </trkpt>
      <trkpt lat="10.1981244" lon="-85.4857059">
        <ele>180.9</ele>
        <time>2022-10-06T19:22:01Z</time>
      </trkpt>
      <trkpt lat="10.1980219" lon="-85.4855246">
        <ele>180.7</ele>
        <time>2022-10-06T19:22:02Z</time>
      </trkpt>
      <trkpt lat="10.1979188" lon="-85.4853426">
        <ele>180.4</ele>
        <time>2022-10-06T19:22:03Z</time>
      </trkpt>
      <trkpt lat="10.1978163" lon="-85.4851625">
        <ele>180.3</ele>
        <time>2022-10-06T19:22:04Z</time>
      </trkpt>
      <trkpt lat="10.1977129" lon="-85.4849797">
        <ele>180.0</ele>
        <time>2022-10-06T19:22:05Z</time>
      </trkpt>
      <trkpt lat="10.1976093" lon="-85.4847977">
        <ele>179.9</ele>
        <time>2022-10-06T19:22:06Z</time>
      </trkpt>
      <trkpt lat="10.1975051" lon="-85.4846154">
        <ele>179.7</ele>
        <time>2022-10-06T19:22:07Z</time>
      </trkpt>
      <trkpt lat="10.1974012" lon="-85.4844310">
        <ele>179.5</ele>
        <time>2022-10-06T19:22:08Z</time>
      </trkpt>
      <trkpt lat="10.1972972" lon="-85.4842441">
        <ele>179.5</ele>
        <time>2022-10-06T19:22:09Z</time>
      </trkpt>
      <trkpt lat="10.1971921" lon="-85.4840581">
        <ele>179.5</ele>
        <time>2022-10-06T19:22:10Z</time>
      </trkpt>
      <trkpt lat="10.1970847" lon="-85.4838696">
        <ele>179.5</ele>
        <time>2022-10-06T19:22:11Z</time>
      </trkpt>
      <trkpt lat="10.1969776" lon="-85.4836820">
        <ele>179.6</ele>
        <time>2022-10-06T19:22:12Z</time>
      </trkpt>
      <trkpt lat="10.1968699" lon="-85.4834933">
        <ele>179.8</ele>
        <time>2022-10-06T19:22:13Z</time>
      </trkpt>
      <trkpt lat="10.1967615" lon="-85.4833043">
        <ele>179.8</ele>
        <time>2022-10-06T19:22:14Z</time>
      </trkpt>
      <trkpt lat="10.1966524" lon="-85.4831142">
        <ele>179.9</ele>
        <time>2022-10-06T19:22:15Z</time>
      </trkpt>
      <trkpt lat="10.1965446" lon="-85.4829263">
        <ele>180.1</ele>
        <time>2022-10-06T19:22:16Z</time>
      </trkpt>
      <trkpt lat="10.1964386" lon="-85.4827417">
        <ele>180.1</ele>
        <time>2022-10-06T19:22:17Z</time>
      </trkpt>
      <trkpt lat="10.1963342" lon="-85.4825591">
        <ele>180.2</ele>
        <time>2022-10-06T19:22:18Z</time>
      </trkpt>
      <trkpt lat="10.1962310" lon="-85.4823787">
        <ele>180.4</ele>
        <time>2022-10-06T19:22:19Z</time>
      </trkpt>
      <trkpt lat="10.1961304" lon="-85.4822026">
        <ele>180.5</ele>
        <time>2022-10-06T19:22:20Z</time>
      </trkpt>
      <trkpt lat="10.1960324" lon="-85.4820294">
        <ele>180.5</ele>
        <time>2022-10-06T19:22:21Z</time>
      </trkpt>
      <trkpt lat="10.1959338" lon="-85.4818590">
        <ele>180.7</ele>
        <time>2022-10-06T19:22:22Z</time>
      </trkpt>
      <trkpt lat="10.1958380" lon="-85.4816948">
        <ele>180.7</ele>
        <time>2022-10-06T19:22:23Z</time>
      </trkpt>
      <trkpt lat="10.1957464" lon="-85.4815336">
        <ele>180.8</ele>
        <time>2022-10-06T19:22:24Z</time>
      </trkpt>
      <trkpt lat="10.1956552" lon="-85.4813728">
        <ele>180.8</ele>
        <time>2022-10-06T19:22:25Z</time>
      </trkpt>
      <trkpt lat="10.1955659" lon="-85.4812167">
        <ele>180.8</ele>
        <time>2022-10-06T19:22:26Z</time>
      </trkpt>
      <trkpt lat="10.1954768" lon="-85.4810608">
        <ele>180.9</ele>
        <time>2022-10-06T19:22:27Z</time>
      </trkpt>
      <trkpt lat="10.1953875" lon="-85.4809062">
        <ele>180.9</ele>
        <time>2022-10-06T19:22:28Z</time>
      </trkpt>
      <trkpt lat="10.1952986" lon="-85.4807515">
        <ele>180.8</ele>
        <time>2022-10-06T19:22:29Z</time>
      </trkpt>
      <trkpt lat="10.1952106" lon="-85.4805981">
        <ele>180.8</ele>
        <time>2022-10-06T19:22:30Z</time>
      </trkpt>
      <trkpt lat="10.1951247" lon="-85.4804475">
        <ele>180.8</ele>
        <time>2022-10-06T19:22:31Z</time>
      </trkpt>
      <trkpt lat="10.1950382" lon="-85.4802974">
        <ele>180.7</ele>
        <time>2022-10-06T19:22:32Z</time>
      </trkpt>
      <trkpt lat="10.1949511" lon="-85.4801482">
        <ele>180.7</ele>
        <time>2022-10-06T19:22:33Z</time>
      </trkpt>
      <trkpt lat="10.1948647" lon="-85.4799970">
        <ele>180.7</ele>
        <time>2022-10-06T19:22:34Z</time>
      </trkpt>
      <trkpt lat="10.1947773" lon="-85.4798439">
        <ele>180.6</ele>
        <time>2022-10-06T19:22:35Z</time>
      </trkpt>
      <trkpt lat="10.1946894" lon="-85.4796873">
        <ele>180.6</ele>
        <time>2022-10-06T19:22:36Z</time>
      </trkpt>
      <trkpt lat="10.1945985" lon="-85.4795255">
        <ele>180.7</ele>
        <time>2022-10-06T19:22:37Z</time>
      </trkpt>
      <trkpt lat="10.1945061" lon="-85.4793618">
        <ele>180.6</ele>
        <time>2022-10-06T19:22:38Z</time>
      </trkpt>
      <trkpt lat="10.1944132" lon="-85.4791963">
        <ele>180.5</ele>
        <time>2022-10-06T19:22:39Z</time>
      </trkpt>
      <trkpt lat="10.1943205" lon="-85.4790338">
        <ele>180.4</ele>
        <time>2022-10-06T19:22:40Z</time>
      </trkpt>
      <trkpt lat="10.1942279" lon="-85.4788711">
        <ele>180.4</ele>
        <time>2022-10-06T19:22:41Z</time>
      </trkpt>
      <trkpt lat="10.1941374" lon="-85.4787103">
        <ele>180.3</ele>
        <time>2022-10-06T19:22:42Z</time>
      </trkpt>
      <trkpt lat="10.1940441" lon="-85.4785487">
        <ele>180.2</ele>
        <time>2022-10-06T19:22:43Z</time>
      </trkpt>
      <trkpt lat="10.1939487" lon="-85.4783851">
        <ele>180.0</ele>
        <time>2022-10-06T19:22:44Z</time>
      </trkpt>
      <trkpt lat="10.1938546" lon="-85.4782195">
        <ele>180.0</ele>
        <time>2022-10-06T19:22:45Z</time>
      </trkpt>
      <trkpt lat="10.1937594" lon="-85.4780500">
        <ele>179.8</ele>
        <time>2022-10-06T19:22:46Z</time>
      </trkpt>
      <trkpt lat="10.1936645" lon="-85.4778822">
        <ele>179.7</ele>
        <time>2022-10-06T19:22:47Z</time>
      </trkpt>
      <trkpt lat="10.1935712" lon="-85.4777154">
        <ele>179.5</ele>
        <time>2022-10-06T19:22:48Z</time>
      </trkpt>
      <trkpt lat="10.1934775" lon="-85.4775528">
        <ele>179.4</ele>
        <time>2022-10-06T19:22:49Z</time>
      </trkpt>
      <trkpt lat="10.1933852" lon="-85.4773943">
        <ele>179.3</ele>
        <time>2022-10-06T19:22:50Z</time>
      </trkpt>
      <trkpt lat="10.1932950" lon="-85.4772392">
        <ele>179.2</ele>
        <time>2022-10-06T19:22:51Z</time>
      </trkpt>
      <trkpt lat="10.1932064" lon="-85.4770847">
        <ele>179.0</ele>
        <time>2022-10-06T19:22:52Z</time>
      </trkpt>
      <trkpt lat="10.1931160" lon="-85.4769252">
        <ele>178.9</ele>
        <time>2022-10-06T19:22:53Z</time>
      </trkpt>
      <trkpt lat="10.1930261" lon="-85.4767669">
        <ele>178.8</ele>
        <time>2022-10-06T19:22:54Z</time>
      </trkpt>
      <trkpt lat="10.1929347" lon="-85.4766081">
        <ele>178.6</ele>
        <time>2022-10-06T19:22:55Z</time>
      </trkpt>
      <trkpt lat="10.1928447" lon="-85.4764506">
        <ele>178.7</ele>
        <time>2022-10-06T19:22:56Z</time>
      </trkpt>
      <trkpt lat="10.1927551" lon="-85.4762935">
        <ele>178.7</ele>
        <time>2022-10-06T19:22:57Z</time>
      </trkpt>
      <trkpt lat="10.1926672" lon="-85.4761392">
        <ele>178.7</ele>
        <time>2022-10-06T19:22:58Z</time>
      </trkpt>
      <trkpt lat="10.1925794" lon="-85.4759870">
        <ele>178.8</ele>
        <time>2022-10-06T19:22:59Z</time>
      </trkpt>
      <trkpt lat="10.1924923" lon="-85.4758360">
        <ele>178.9</ele>
        <time>2022-10-06T19:23:00Z</time>
      </trkpt>
      <trkpt lat="10.1924063" lon="-85.4756881">
        <ele>178.8</ele>
        <time>2022-10-06T19:23:01Z</time>
      </trkpt>
      <trkpt lat="10.1923218" lon="-85.4755399">
        <ele>178.9</ele>
        <time>2022-10-06T19:23:02Z</time>
      </trkpt>
      <trkpt lat="10.1922382" lon="-85.4753935">
        <ele>179.1</ele>
        <time>2022-10-06T19:23:03Z</time>
      </trkpt>
      <trkpt lat="10.1921537" lon="-85.4752457">
        <ele>179.2</ele>
        <time>2022-10-06T19:23:04Z</time>
      </trkpt>
      <trkpt lat="10.1920697" lon="-85.4751004">
        <ele>179.3</ele>
        <time>2022-10-06T19:23:05Z</time>
      </trkpt>
      <trkpt lat="10.1919859" lon="-85.4749560">
        <ele>179.3</ele>
        <time>2022-10-06T19:23:06Z</time>
      </trkpt>
      <trkpt lat="10.1919000" lon="-85.4748148">
        <ele>179.3</ele>
        <time>2022-10-06T19:23:07Z</time>
      </trkpt>
      <trkpt lat="10.1918118" lon="-85.4746752">
        <ele>179.4</ele>
        <time>2022-10-06T19:23:08Z</time>
      </trkpt>
      <trkpt lat="10.1917234" lon="-85.4745387">
        <ele>179.4</ele>
        <time>2022-10-06T19:23:09Z</time>
      </trkpt>
      <trkpt lat="10.1916415" lon="-85.4744123">
        <ele>179.6</ele>
        <time>2022-10-06T19:23:10Z</time>
      </trkpt>
      <trkpt lat="10.1915682" lon="-85.4742994">
        <ele>179.7</ele>
        <time>2022-10-06T19:23:11Z</time>
      </trkpt>
      <trkpt lat="10.1914992" lon="-85.4741962">
        <ele>179.6</ele>
        <time>2022-10-06T19:23:12Z</time>
      </trkpt>
      <trkpt lat="10.1914339" lon="-85.4740991">
        <ele>179.6</ele>
        <time>2022-10-06T19:23:13Z</time>
      </trkpt>
      <trkpt lat="10.1913685" lon="-85.4740052">
        <ele>179.7</ele>
        <time>2022-10-06T19:23:14Z</time>
      </trkpt>
      <trkpt lat="10.1913037" lon="-85.4739136">
        <ele>179.6</ele>
        <time>2022-10-06T19:23:15Z</time>
      </trkpt>
      <trkpt lat="10.1912367" lon="-85.4738214">
        <ele>179.7</ele>
        <time>2022-10-06T19:23:16Z</time>
      </trkpt>
      <trkpt lat="10.1911670" lon="-85.4737281">
        <ele>179.8</ele>
        <time>2022-10-06T19:23:17Z</time>
      </trkpt>
      <trkpt lat="10.1910965" lon="-85.4736341">
        <ele>179.8</ele>
        <time>2022-10-06T19:23:18Z</time>
      </trkpt>
      <trkpt lat="10.1910241" lon="-85.4735394">
        <ele>179.9</ele>
        <time>2022-10-06T19:23:19Z</time>
      </trkpt>
      <trkpt lat="10.1909487" lon="-85.4734432">
        <ele>179.9</ele>
        <time>2022-10-06T19:23:20Z</time>
      </trkpt>
      <trkpt lat="10.1908713" lon="-85.4733456">
        <ele>179.9</ele>
        <time>2022-10-06T19:23:21Z</time>
      </trkpt>
      <trkpt lat="10.1907922" lon="-85.4732487">
        <ele>179.9</ele>
        <time>2022-10-06T19:23:22Z</time>
      </trkpt>
      <trkpt lat="10.1907115" lon="-85.4731518">
        <ele>179.9</ele>
        <time>2022-10-06T19:23:23Z</time>
      </trkpt>
      <trkpt lat="10.1906278" lon="-85.4730538">
        <ele>180.1</ele>
        <time>2022-10-06T19:23:24Z</time>
      </trkpt>
      <trkpt lat="10.1905436" lon="-85.4729572">
        <ele>180.1</ele>
        <time>2022-10-06T19:23:25Z</time>
      </trkpt>
      <trkpt lat="10.1904604" lon="-85.4728638">
        <ele>180.1</ele>
        <time>2022-10-06T19:23:26Z</time>
      </trkpt>
      <trkpt lat="10.1903791" lon="-85.4727726">
        <ele>180.2</ele>
        <time>2022-10-06T19:23:27Z</time>
      </trkpt>
      <trkpt lat="10.1902979" lon="-85.4726851">
        <ele>180.2</ele>
        <time>2022-10-06T19:23:28Z</time>
      </trkpt>
      <trkpt lat="10.1902152" lon="-85.4725983">
        <ele>180.2</ele>
        <time>2022-10-06T19:23:29Z</time>
      </trkpt>
      <trkpt lat="10.1901335" lon="-85.4725128">
        <ele>180.3</ele>
        <time>2022-10-06T19:23:30Z</time>
      </trkpt>
      <trkpt lat="10.1900507" lon="-85.4724262">
        <ele>180.4</ele>
        <time>2022-10-06T19:23:31Z</time>
      </trkpt>
      <trkpt lat="10.1899652" lon="-85.4723384">
        <ele>180.4</ele>
        <time>2022-10-06T19:23:32Z</time>
      </trkpt>
      <trkpt lat="10.1898736" lon="-85.4722482">
        <ele>180.5</ele>
        <time>2022-10-06T19:23:33Z</time>
      </trkpt>
      <trkpt lat="10.1897830" lon="-85.4721606">
        <ele>180.5</ele>
        <time>2022-10-06T19:23:34Z</time>
      </trkpt>
      <trkpt lat="10.1896915" lon="-85.4720727">
        <ele>180.5</ele>
        <time>2022-10-06T19:23:35Z</time>
      </trkpt>
      <trkpt lat="10.1896016" lon="-85.4719875">
        <ele>180.5</ele>
        <time>2022-10-06T19:23:36Z</time>
      </trkpt>
      <trkpt lat="10.1895090" lon="-85.4719011">
        <ele>180.5</ele>
        <time>2022-10-06T19:23:37Z</time>
      </trkpt>
      <trkpt lat="10.1894178" lon="-85.4718185">
        <ele>180.5</ele>
        <time>2022-10-06T19:23:38Z</time>
      </trkpt>
      <trkpt lat="10.1893276" lon="-85.4717395">
        <ele>180.4</ele>
        <time>2022-10-06T19:23:39Z</time>
      </trkpt>
      <trkpt lat="10.1892332" lon="-85.4716576">
        <ele>180.4</ele>
        <time>2022-10-06T19:23:40Z</time>
      </trkpt>
      <trkpt lat="10.1891385" lon="-85.4715759">
        <ele>180.3</ele>
        <time>2022-10-06T19:23:41Z</time>
      </trkpt>
      <trkpt lat="10.1890423" lon="-85.4714948">
        <ele>180.1</ele>
        <time>2022-10-06T19:23:42Z</time>
      </trkpt>
      <trkpt lat="10.1889467" lon="-85.4714163">
        <ele>180.0</ele>
        <time>2022-10-06T19:23:43Z</time>
      </trkpt>
      <trkpt lat="10.1888546" lon="-85.4713399">
        <ele>179.9</ele>
        <time>2022-10-06T19:23:44Z</time>
      </trkpt>
      <trkpt lat="10.1887670" lon="-85.4712684">
        <ele>179.8</ele>
        <time>2022-10-06T19:23:45Z</time>
      </trkpt>
      <trkpt lat="10.1886853" lon="-85.4712021">
        <ele>179.7</ele>
        <time>2022-10-06T19:23:46Z</time>
      </trkpt>
      <trkpt lat="10.1886055" lon="-85.4711362">
        <ele>179.5</ele>
        <time>2022-10-06T19:23:47Z</time>
      </trkpt>
      <trkpt lat="10.1885215" lon="-85.4710707">
        <ele>179.4</ele>
        <time>2022-10-06T19:23:48Z</time>
      </trkpt>
      <trkpt lat="10.1884355" lon="-85.4710023">
        <ele>179.3</ele>
        <time>2022-10-06T19:23:49Z</time>
      </trkpt>
      <trkpt lat="10.1883499" lon="-85.4709343">
        <ele>179.2</ele>
        <time>2022-10-06T19:23:50Z</time>
      </trkpt>
      <trkpt lat="10.1882604" lon="-85.4708632">
        <ele>179.1</ele>
        <time>2022-10-06T19:23:51Z</time>
      </trkpt>
      <trkpt lat="10.1881704" lon="-85.4707927">
        <ele>178.9</ele>
        <time>2022-10-06T19:23:52Z</time>
      </trkpt>
      <trkpt lat="10.1880763" lon="-85.4707185">
        <ele>178.8</ele>
        <time>2022-10-06T19:23:53Z</time>
      </trkpt>
      <trkpt lat="10.1879786" lon="-85.4706402">
        <ele>178.8</ele>
        <time>2022-10-06T19:23:54Z</time>
      </trkpt>
      <trkpt lat="10.1878788" lon="-85.4705609">
        <ele>178.8</ele>
        <time>2022-10-06T19:23:55Z</time>
      </trkpt>
      <trkpt lat="10.1877764" lon="-85.4704809">
        <ele>178.6</ele>
        <time>2022-10-06T19:23:56Z</time>
      </trkpt>
      <trkpt lat="10.1876730" lon="-85.4704007">
        <ele>178.5</ele>
        <time>2022-10-06T19:23:57Z</time>
      </trkpt>
      <trkpt lat="10.1875679" lon="-85.4703191">
        <ele>178.4</ele>
        <time>2022-10-06T19:23:58Z</time>
      </trkpt>
      <trkpt lat="10.1874614" lon="-85.4702359">
        <ele>178.1</ele>
        <time>2022-10-06T19:23:59Z</time>
      </trkpt>
      <trkpt lat="10.1873550" lon="-85.4701508">
        <ele>177.9</ele>
        <time>2022-10-06T19:24:00Z</time>
      </trkpt>
      <trkpt lat="10.1872480" lon="-85.4700653">
        <ele>177.8</ele>
        <time>2022-10-06T19:24:01Z</time>
      </trkpt>
      <trkpt lat="10.1871393" lon="-85.4699792">
        <ele>177.6</ele>
        <time>2022-10-06T19:24:02Z</time>
      </trkpt>
      <trkpt lat="10.1870287" lon="-85.4698915">
        <ele>177.4</ele>
        <time>2022-10-06T19:24:03Z</time>
      </trkpt>
      <trkpt lat="10.1869164" lon="-85.4698035">
        <ele>177.2</ele>
        <time>2022-10-06T19:24:04Z</time>
      </trkpt>
      <trkpt lat="10.1868054" lon="-85.4697132">
        <ele>177.0</ele>
        <time>2022-10-06T19:24:05Z</time>
      </trkpt>
      <trkpt lat="10.1866933" lon="-85.4696235">
        <ele>176.9</ele>
        <time>2022-10-06T19:24:06Z</time>
      </trkpt>
      <trkpt lat="10.1865804" lon="-85.4695347">
        <ele>176.8</ele>
        <time>2022-10-06T19:24:07Z</time>
      </trkpt>
      <trkpt lat="10.1864656" lon="-85.4694447">
        <ele>176.6</ele>
        <time>2022-10-06T19:24:08Z</time>
      </trkpt>
      <trkpt lat="10.1863501" lon="-85.4693558">
        <ele>176.5</ele>
        <time>2022-10-06T19:24:09Z</time>
      </trkpt>
      <trkpt lat="10.1862340" lon="-85.4692663">
        <ele>176.5</ele>
        <time>2022-10-06T19:24:10Z</time>
      </trkpt>
      <trkpt lat="10.1861183" lon="-85.4691755">
        <ele>176.5</ele>
        <time>2022-10-06T19:24:11Z</time>
      </trkpt>
      <trkpt lat="10.1860057" lon="-85.4690858">
        <ele>176.6</ele>
        <time>2022-10-06T19:24:12Z</time>
      </trkpt>
      <trkpt lat="10.1858927" lon="-85.4689936">
        <ele>176.7</ele>
        <time>2022-10-06T19:24:13Z</time>
      </trkpt>
      <trkpt lat="10.1857796" lon="-85.4689017">
        <ele>176.8</ele>
        <time>2022-10-06T19:24:14Z</time>
      </trkpt>
      <trkpt lat="10.1856680" lon="-85.4688112">
        <ele>176.9</ele>
        <time>2022-10-06T19:24:15Z</time>
      </trkpt>
      <trkpt lat="10.1855542" lon="-85.4687212">
        <ele>177.2</ele>
        <time>2022-10-06T19:24:16Z</time>
      </trkpt>
      <trkpt lat="10.1854411" lon="-85.4686302">
        <ele>177.3</ele>
        <time>2022-10-06T19:24:17Z</time>
      </trkpt>
      <trkpt lat="10.1853266" lon="-85.4685402">
        <ele>177.5</ele>
        <time>2022-10-06T19:24:18Z</time>
      </trkpt>
      <trkpt lat="10.1852091" lon="-85.4684485">
        <ele>177.6</ele>
        <time>2022-10-06T19:24:19Z</time>
      </trkpt>
      <trkpt lat="10.1850933" lon="-85.4683564">
        <ele>177.7</ele>
        <time>2022-10-06T19:24:20Z</time>
      </trkpt>
      <trkpt lat="10.1849755" lon="-85.4682630">
        <ele>177.9</ele>
        <time>2022-10-06T19:24:21Z</time>
      </trkpt>
      <trkpt lat="10.1848561" lon="-85.4681679">
        <ele>178.0</ele>
        <time>2022-10-06T19:24:22Z</time>
      </trkpt>
      <trkpt lat="10.1847377" lon="-85.4680719">
        <ele>178.1</ele>
        <time>2022-10-06T19:24:23Z</time>
      </trkpt>
      <trkpt lat="10.1846173" lon="-85.4679784">
        <ele>178.3</ele>
        <time>2022-10-06T19:24:24Z</time>
      </trkpt>
      <trkpt lat="10.1844947" lon="-85.4678836">
        <ele>178.4</ele>
        <time>2022-10-06T19:24:25Z</time>
      </trkpt>
      <trkpt lat="10.1843735" lon="-85.4677893">
        <ele>178.6</ele>
        <time>2022-10-06T19:24:26Z</time>
      </trkpt>
      <trkpt lat="10.1842521" lon="-85.4676929">
        <ele>178.7</ele>
        <time>2022-10-06T19:24:27Z</time>
      </trkpt>
      <trkpt lat="10.1841303" lon="-85.4675945">
        <ele>178.8</ele>
        <time>2022-10-06T19:24:28Z</time>
      </trkpt>
      <trkpt lat="10.1840091" lon="-85.4674956">
        <ele>178.8</ele>
        <time>2022-10-06T19:24:29Z</time>
      </trkpt>
      <trkpt lat="10.1838872" lon="-85.4673983">
        <ele>178.8</ele>
        <time>2022-10-06T19:24:30Z</time>
      </trkpt>
      <trkpt lat="10.1837661" lon="-85.4673003">
        <ele>178.7</ele>
        <time>2022-10-06T19:24:31Z</time>
      </trkpt>
      <trkpt lat="10.1836445" lon="-85.4672030">
        <ele>178.6</ele>
        <time>2022-10-06T19:24:32Z</time>
      </trkpt>
      <trkpt lat="10.1835222" lon="-85.4671053">
        <ele>178.5</ele>
        <time>2022-10-06T19:24:33Z</time>
      </trkpt>
      <trkpt lat="10.1834003" lon="-85.4670058">
        <ele>178.4</ele>
        <time>2022-10-06T19:24:34Z</time>
      </trkpt>
      <trkpt lat="10.1832791" lon="-85.4669082">
        <ele>178.2</ele>
        <time>2022-10-06T19:24:35Z</time>
      </trkpt>
      <trkpt lat="10.1831571" lon="-85.4668097">
        <ele>178.0</ele>
        <time>2022-10-06T19:24:36Z</time>
      </trkpt>
      <trkpt lat="10.1830349" lon="-85.4667124">
        <ele>177.7</ele>
        <time>2022-10-06T19:24:37Z</time>
      </trkpt>
      <trkpt lat="10.1829129" lon="-85.4666154">
        <ele>177.5</ele>
        <time>2022-10-06T19:24:38Z</time>
      </trkpt>
      <trkpt lat="10.1827913" lon="-85.4665185">
        <ele>177.3</ele>
        <time>2022-10-06T19:24:39Z</time>
      </trkpt>
      <trkpt lat="10.1826686" lon="-85.4664198">
        <ele>177.1</ele>
        <time>2022-10-06T19:24:40Z</time>
      </trkpt>
      <trkpt lat="10.1825454" lon="-85.4663226">
        <ele>176.8</ele>
        <time>2022-10-06T19:24:41Z</time>
      </trkpt>
      <trkpt lat="10.1824227" lon="-85.4662271">
        <ele>176.6</ele>
        <time>2022-10-06T19:24:42Z</time>
      </trkpt>
      <trkpt lat="10.1822989" lon="-85.4661304">
        <ele>176.3</ele>
        <time>2022-10-06T19:24:43Z</time>
      </trkpt>
      <trkpt lat="10.1821754" lon="-85.4660338">
        <ele>176.1</ele>
        <time>2022-10-06T19:24:44Z</time>
      </trkpt>
      <trkpt lat="10.1820533" lon="-85.4659381">
        <ele>175.9</ele>
        <time>2022-10-06T19:24:45Z</time>
      </trkpt>
      <trkpt lat="10.1819300" lon="-85.4658400">
        <ele>175.6</ele>
        <time>2022-10-06T19:24:46Z</time>
      </trkpt>
      <trkpt lat="10.1818058" lon="-85.4657412">
        <ele>175.3</ele>
        <time>2022-10-06T19:24:47Z</time>
      </trkpt>
      <trkpt lat="10.1816804" lon="-85.4656436">
        <ele>175.1</ele>
        <time>2022-10-06T19:24:48Z</time>
      </trkpt>
      <trkpt lat="10.1815517" lon="-85.4655427">
        <ele>174.9</ele>
        <time>2022-10-06T19:24:49Z</time>
      </trkpt>
      <trkpt lat="10.1814213" lon="-85.4654385">
        <ele>174.6</ele>
        <time>2022-10-06T19:24:50Z</time>
      </trkpt>
      <trkpt lat="10.1812895" lon="-85.4653334">
        <ele>174.4</ele>
        <time>2022-10-06T19:24:51Z</time>
      </trkpt>
      <trkpt lat="10.1811554" lon="-85.4652269">
        <ele>174.1</ele>
        <time>2022-10-06T19:24:52Z</time>
      </trkpt>
      <trkpt lat="10.1810183" lon="-85.4651169">
        <ele>173.9</ele>
        <time>2022-10-06T19:24:53Z</time>
      </trkpt>
      <trkpt lat="10.1808806" lon="-85.4650069">
        <ele>173.6</ele>
        <time>2022-10-06T19:24:54Z</time>
      </trkpt>
      <trkpt lat="10.1807417" lon="-85.4648956">
        <ele>173.4</ele>
        <time>2022-10-06T19:24:55Z</time>
      </trkpt>
      <trkpt lat="10.1806004" lon="-85.4647837">
        <ele>173.1</ele>
        <time>2022-10-06T19:24:56Z</time>
      </trkpt>
      <trkpt lat="10.1804590" lon="-85.4646710">
        <ele>172.9</ele>
        <time>2022-10-06T19:24:57Z</time>
      </trkpt>
      <trkpt lat="10.1803123" lon="-85.4645548">
        <ele>173.0</ele>
        <time>2022-10-06T19:24:58Z</time>
      </trkpt>
      <trkpt lat="10.1801681" lon="-85.4644391">
        <ele>172.8</ele>
        <time>2022-10-06T19:24:59Z</time>
      </trkpt>
      <trkpt lat="10.1800203" lon="-85.4643233">
        <ele>172.7</ele>
        <time>2022-10-06T19:25:00Z</time>
      </trkpt>
      <trkpt lat="10.1798733" lon="-85.4642064">
        <ele>172.5</ele>
        <time>2022-10-06T19:25:01Z</time>
      </trkpt>
      <trkpt lat="10.1797285" lon="-85.4640899">
        <ele>172.4</ele>
        <time>2022-10-06T19:25:02Z</time>
      </trkpt>
      <trkpt lat="10.1795854" lon="-85.4639735">
        <ele>172.2</ele>
        <time>2022-10-06T19:25:03Z</time>
      </trkpt>
      <trkpt lat="10.1794420" lon="-85.4638596">
        <ele>172.1</ele>
        <time>2022-10-06T19:25:04Z</time>
      </trkpt>
      <trkpt lat="10.1793005" lon="-85.4637473">
        <ele>172.1</ele>
        <time>2022-10-06T19:25:05Z</time>
      </trkpt>
      <trkpt lat="10.1791601" lon="-85.4636347">
        <ele>172.0</ele>
        <time>2022-10-06T19:25:06Z</time>
      </trkpt>
      <trkpt lat="10.1790221" lon="-85.4635247">
        <ele>172.0</ele>
        <time>2022-10-06T19:25:07Z</time>
      </trkpt>
      <trkpt lat="10.1788843" lon="-85.4634178">
        <ele>171.7</ele>
        <time>2022-10-06T19:25:08Z</time>
      </trkpt>
      <trkpt lat="10.1787515" lon="-85.4633104">
        <ele>171.6</ele>
        <time>2022-10-06T19:25:09Z</time>
      </trkpt>
      <trkpt lat="10.1786198" lon="-85.4632048">
        <ele>171.5</ele>
        <time>2022-10-06T19:25:10Z</time>
      </trkpt>
      <trkpt lat="10.1784905" lon="-85.4631017">
        <ele>171.5</ele>
        <time>2022-10-06T19:25:11Z</time>
      </trkpt>
      <trkpt lat="10.1783628" lon="-85.4630006">
        <ele>171.5</ele>
        <time>2022-10-06T19:25:12Z</time>
      </trkpt>
      <trkpt lat="10.1782346" lon="-85.4628973">
        <ele>171.4</ele>
        <time>2022-10-06T19:25:13Z</time>
      </trkpt>
      <trkpt lat="10.1781099" lon="-85.4627981">
        <ele>171.3</ele>
        <time>2022-10-06T19:25:14Z</time>
      </trkpt>
      <trkpt lat="10.1779857" lon="-85.4626976">
        <ele>171.2</ele>
        <time>2022-10-06T19:25:15Z</time>
      </trkpt>
      <trkpt lat="10.1778626" lon="-85.4625992">
        <ele>171.2</ele>
        <time>2022-10-06T19:25:16Z</time>
      </trkpt>
      <trkpt lat="10.1777378" lon="-85.4625002">
        <ele>171.1</ele>
        <time>2022-10-06T19:25:17Z</time>
      </trkpt>
      <trkpt lat="10.1776122" lon="-85.4623992">
        <ele>171.0</ele>
        <time>2022-10-06T19:25:18Z</time>
      </trkpt>
      <trkpt lat="10.1774870" lon="-85.4622989">
        <ele>170.9</ele>
        <time>2022-10-06T19:25:19Z</time>
      </trkpt>
      <trkpt lat="10.1773595" lon="-85.4621975">
        <ele>170.6</ele>
        <time>2022-10-06T19:25:20Z</time>
      </trkpt>
      <trkpt lat="10.1772301" lon="-85.4620949">
        <ele>170.5</ele>
        <time>2022-10-06T19:25:21Z</time>
      </trkpt>
      <trkpt lat="10.1770998" lon="-85.4619924">
        <ele>170.2</ele>
        <time>2022-10-06T19:25:22Z</time>
      </trkpt>
      <trkpt lat="10.1769693" lon="-85.4618887">
        <ele>170.0</ele>
        <time>2022-10-06T19:25:23Z</time>
      </trkpt>
      <trkpt lat="10.1768431" lon="-85.4617882">
        <ele>169.8</ele>
        <time>2022-10-06T19:25:24Z</time>
      </trkpt>
      <trkpt lat="10.1767174" lon="-85.4616877">
        <ele>169.7</ele>
        <time>2022-10-06T19:25:25Z</time>
      </trkpt>
      <trkpt lat="10.1765966" lon="-85.4615912">
        <ele>169.4</ele>
        <time>2022-10-06T19:25:26Z</time>
      </trkpt>
      <trkpt lat="10.1764784" lon="-85.4614971">
        <ele>169.3</ele>
        <time>2022-10-06T19:25:27Z</time>
      </trkpt>
      <trkpt lat="10.1763645" lon="-85.4614071">
        <ele>169.1</ele>
        <time>2022-10-06T19:25:28Z</time>
      </trkpt>
      <trkpt lat="10.1762518" lon="-85.4613160">
        <ele>169.0</ele>
        <time>2022-10-06T19:25:29Z</time>
      </trkpt>
      <trkpt lat="10.1761381" lon="-85.4612243">
        <ele>168.8</ele>
        <time>2022-10-06T19:25:30Z</time>
      </trkpt>
      <trkpt lat="10.1760256" lon="-85.4611354">
        <ele>168.6</ele>
        <time>2022-10-06T19:25:31Z</time>
      </trkpt>
      <trkpt lat="10.1759122" lon="-85.4610464">
        <ele>168.3</ele>
        <time>2022-10-06T19:25:32Z</time>
      </trkpt>
      <trkpt lat="10.1757975" lon="-85.4609560">
        <ele>168.1</ele>
        <time>2022-10-06T19:25:33Z</time>
      </trkpt>
      <trkpt lat="10.1756807" lon="-85.4608635">
        <ele>168.0</ele>
        <time>2022-10-06T19:25:34Z</time>
      </trkpt>
      <trkpt lat="10.1755628" lon="-85.4607691">
        <ele>167.7</ele>
        <time>2022-10-06T19:25:35Z</time>
      </trkpt>
      <trkpt lat="10.1754446" lon="-85.4606762">
        <ele>167.5</ele>
        <time>2022-10-06T19:25:36Z</time>
      </trkpt>
      <trkpt lat="10.1753282" lon="-85.4605815">
        <ele>167.4</ele>
        <time>2022-10-06T19:25:37Z</time>
      </trkpt>
      <trkpt lat="10.1752117" lon="-85.4604867">
        <ele>167.1</ele>
        <time>2022-10-06T19:25:38Z</time>
      </trkpt>
      <trkpt lat="10.1750912" lon="-85.4603908">
        <ele>167.0</ele>
        <time>2022-10-06T19:25:39Z</time>
      </trkpt>
      <trkpt lat="10.1749672" lon="-85.4602922">
        <ele>166.8</ele>
        <time>2022-10-06T19:25:40Z</time>
      </trkpt>
      <trkpt lat="10.1748415" lon="-85.4601917">
        <ele>166.5</ele>
        <time>2022-10-06T19:25:41Z</time>
      </trkpt>
      <trkpt lat="10.1747139" lon="-85.4600898">
        <ele>166.3</ele>
        <time>2022-10-06T19:25:42Z</time>
      </trkpt>
      <trkpt lat="10.1745876" lon="-85.4599885">
        <ele>166.0</ele>
        <time>2022-10-06T19:25:43Z</time>
      </trkpt>
      <trkpt lat="10.1744604" lon="-85.4598866">
        <ele>165.7</ele>
        <time>2022-10-06T19:25:44Z</time>
      </trkpt>
      <trkpt lat="10.1743316" lon="-85.4597840">
        <ele>165.5</ele>
        <time>2022-10-06T19:25:45Z</time>
      </trkpt>
      <trkpt lat="10.1742006" lon="-85.4596802">
        <ele>165.2</ele>
        <time>2022-10-06T19:25:46Z</time>
      </trkpt>
      <trkpt lat="10.1740695" lon="-85.4595760">
        <ele>165.0</ele>
        <time>2022-10-06T19:25:47Z</time>
      </trkpt>
      <trkpt lat="10.1739379" lon="-85.4594706">
        <ele>164.7</ele>
        <time>2022-10-06T19:25:48Z</time>
      </trkpt>
      <trkpt lat="10.1738079" lon="-85.4593672">
        <ele>164.7</ele>
        <time>2022-10-06T19:25:49Z</time>
      </trkpt>
      <trkpt lat="10.1736792" lon="-85.4592635">
        <ele>164.4</ele>
        <time>2022-10-06T19:25:50Z</time>
      </trkpt>
      <trkpt lat="10.1735518" lon="-85.4591598">
        <ele>164.1</ele>
        <time>2022-10-06T19:25:51Z</time>
      </trkpt>
      <trkpt lat="10.1734223" lon="-85.4590570">
        <ele>163.7</ele>
        <time>2022-10-06T19:25:52Z</time>
      </trkpt>
      <trkpt lat="10.1732897" lon="-85.4589530">
        <ele>163.4</ele>
        <time>2022-10-06T19:25:53Z</time>
      </trkpt>
      <trkpt lat="10.1731564" lon="-85.4588485">
        <ele>163.1</ele>
        <time>2022-10-06T19:25:54Z</time>
      </trkpt>
      <trkpt lat="10.1730226" lon="-85.4587423">
        <ele>162.8</ele>
        <time>2022-10-06T19:25:55Z</time>
      </trkpt>
      <trkpt lat="10.1728893" lon="-85.4586366">
        <ele>162.4</ele>
        <time>2022-10-06T19:25:56Z</time>
      </trkpt>
      <trkpt lat="10.1727567" lon="-85.4585319">
        <ele>162.1</ele>
        <time>2022-10-06T19:25:57Z</time>
      </trkpt>
      <trkpt lat="10.1726263" lon="-85.4584279">
        <ele>161.8</ele>
        <time>2022-10-06T19:25:58Z</time>
      </trkpt>
      <trkpt lat="10.1725011" lon="-85.4583281">
        <ele>161.7</ele>
        <time>2022-10-06T19:25:59Z</time>
      </trkpt>
      <trkpt lat="10.1723759" lon="-85.4582291">
        <ele>161.5</ele>
        <time>2022-10-06T19:26:00Z</time>
      </trkpt>
      <trkpt lat="10.1722540" lon="-85.4581315">
        <ele>161.2</ele>
        <time>2022-10-06T19:26:01Z</time>
      </trkpt>
      <trkpt lat="10.1721383" lon="-85.4580383">
        <ele>161.0</ele>
        <time>2022-10-06T19:26:02Z</time>
      </trkpt>
      <trkpt lat="10.1720262" lon="-85.4579488">
        <ele>160.7</ele>
        <time>2022-10-06T19:26:03Z</time>
      </trkpt>
      <trkpt lat="10.1719198" lon="-85.4578652">
        <ele>160.8</ele>
        <time>2022-10-06T19:26:04Z</time>
      </trkpt>
      <trkpt lat="10.1718133" lon="-85.4577804">
        <ele>160.8</ele>
        <time>2022-10-06T19:26:05Z</time>
      </trkpt>
      <trkpt lat="10.1717071" lon="-85.4576976">
        <ele>160.6</ele>
        <time>2022-10-06T19:26:06Z</time>
      </trkpt>
      <trkpt lat="10.1715958" lon="-85.4576096">
        <ele>160.7</ele>
        <time>2022-10-06T19:26:07Z</time>
      </trkpt>
      <trkpt lat="10.1714852" lon="-85.4575214">
        <ele>160.6</ele>
        <time>2022-10-06T19:26:08Z</time>
      </trkpt>
      <trkpt lat="10.1713737" lon="-85.4574323">
        <ele>160.6</ele>
        <time>2022-10-06T19:26:09Z</time>
      </trkpt>
      <trkpt lat="10.1712625" lon="-85.4573430">
        <ele>160.6</ele>
        <time>2022-10-06T19:26:10Z</time>
      </trkpt>
      <trkpt lat="10.1711500" lon="-85.4572538">
        <ele>160.6</ele>
        <time>2022-10-06T19:26:11Z</time>
      </trkpt>
      <trkpt lat="10.1710318" lon="-85.4571629">
        <ele>160.8</ele>
        <time>2022-10-06T19:26:12Z</time>
      </trkpt>
      <trkpt lat="10.1709154" lon="-85.4570709">
        <ele>160.7</ele>
        <time>2022-10-06T19:26:13Z</time>
      </trkpt>
      <trkpt lat="10.1707997" lon="-85.4569771">
        <ele>160.6</ele>
        <time>2022-10-06T19:26:14Z</time>
      </trkpt>
      <trkpt lat="10.1706844" lon="-85.4568848">
        <ele>160.5</ele>
        <time>2022-10-06T19:26:15Z</time>
      </trkpt>
      <trkpt lat="10.1705694" lon="-85.4567925">
        <ele>160.7</ele>
        <time>2022-10-06T19:26:16Z</time>
      </trkpt>
      <trkpt lat="10.1704537" lon="-85.4567000">
        <ele>160.5</ele>
        <time>2022-10-06T19:26:17Z</time>
      </trkpt>
      <trkpt lat="10.1703348" lon="-85.4566065">
        <ele>160.5</ele>
        <time>2022-10-06T19:26:18Z</time>
      </trkpt>
      <trkpt lat="10.1702140" lon="-85.4565119">
        <ele>160.4</ele>
        <time>2022-10-06T19:26:19Z</time>
      </trkpt>
      <trkpt lat="10.1700941" lon="-85.4564162">
        <ele>160.3</ele>
        <time>2022-10-06T19:26:20Z</time>
      </trkpt>
      <trkpt lat="10.1699736" lon="-85.4563205">
        <ele>160.3</ele>
        <time>2022-10-06T19:26:21Z</time>
      </trkpt>
      <trkpt lat="10.1698536" lon="-85.4562274">
        <ele>160.2</ele>
        <time>2022-10-06T19:26:22Z</time>
      </trkpt>
      <trkpt lat="10.1697353" lon="-85.4561352">
        <ele>160.2</ele>
        <time>2022-10-06T19:26:23Z</time>
      </trkpt>
      <trkpt lat="10.1696175" lon="-85.4560402">
        <ele>160.0</ele>
        <time>2022-10-06T19:26:24Z</time>
      </trkpt>
      <trkpt lat="10.1695001" lon="-85.4559461">
        <ele>160.0</ele>
        <time>2022-10-06T19:26:25Z</time>
      </trkpt>
      <trkpt lat="10.1693819" lon="-85.4558529">
        <ele>160.0</ele>
        <time>2022-10-06T19:26:26Z</time>
      </trkpt>
      <trkpt lat="10.1692653" lon="-85.4557601">
        <ele>160.0</ele>
        <time>2022-10-06T19:26:27Z</time>
      </trkpt>
      <trkpt lat="10.1691470" lon="-85.4556669">
        <ele>159.9</ele>
        <time>2022-10-06T19:26:28Z</time>
      </trkpt>
      <trkpt lat="10.1690289" lon="-85.4555731">
        <ele>159.8</ele>
        <time>2022-10-06T19:26:29Z</time>
      </trkpt>
      <trkpt lat="10.1689089" lon="-85.4554787">
        <ele>159.7</ele>
        <time>2022-10-06T19:26:30Z</time>
      </trkpt>
      <trkpt lat="10.1687905" lon="-85.4553848">
        <ele>159.7</ele>
        <time>2022-10-06T19:26:31Z</time>
      </trkpt>
      <trkpt lat="10.1686745" lon="-85.4552925">
        <ele>159.6</ele>
        <time>2022-10-06T19:26:32Z</time>
      </trkpt>
      <trkpt lat="10.1685616" lon="-85.4552031">
        <ele>159.5</ele>
        <time>2022-10-06T19:26:33Z</time>
      </trkpt>
      <trkpt lat="10.1684509" lon="-85.4551164">
        <ele>159.4</ele>
        <time>2022-10-06T19:26:34Z</time>
      </trkpt>
      <trkpt lat="10.1683428" lon="-85.4550294">
        <ele>159.3</ele>
        <time>2022-10-06T19:26:35Z</time>
      </trkpt>
      <trkpt lat="10.1682383" lon="-85.4549453">
        <ele>159.2</ele>
        <time>2022-10-06T19:26:36Z</time>
      </trkpt>
      <trkpt lat="10.1681328" lon="-85.4548604">
        <ele>159.3</ele>
        <time>2022-10-06T19:26:37Z</time>
      </trkpt>
      <trkpt lat="10.1680283" lon="-85.4547775">
        <ele>159.0</ele>
        <time>2022-10-06T19:26:38Z</time>
      </trkpt>
      <trkpt lat="10.1679191" lon="-85.4546922">
        <ele>158.9</ele>
        <time>2022-10-06T19:26:39Z</time>
      </trkpt>
      <trkpt lat="10.1678094" lon="-85.4546063">
        <ele>158.6</ele>
        <time>2022-10-06T19:26:40Z</time>
      </trkpt>
      <trkpt lat="10.1676952" lon="-85.4545164">
        <ele>158.4</ele>
        <time>2022-10-06T19:26:41Z</time>
      </trkpt>
      <trkpt lat="10.1675837" lon="-85.4544276">
        <ele>158.2</ele>
        <time>2022-10-06T19:26:42Z</time>
      </trkpt>
      <trkpt lat="10.1674727" lon="-85.4543398">
        <ele>157.9</ele>
        <time>2022-10-06T19:26:43Z</time>
      </trkpt>
      <trkpt lat="10.1673636" lon="-85.4542524">
        <ele>157.8</ele>
        <time>2022-10-06T19:26:44Z</time>
      </trkpt>
      <trkpt lat="10.1672554" lon="-85.4541661">
        <ele>157.5</ele>
        <time>2022-10-06T19:26:45Z</time>
      </trkpt>
      <trkpt lat="10.1671473" lon="-85.4540803">
        <ele>157.3</ele>
        <time>2022-10-06T19:26:46Z</time>
      </trkpt>
      <trkpt lat="10.1670396" lon="-85.4539930">
        <ele>157.1</ele>
        <time>2022-10-06T19:26:47Z</time>
      </trkpt>
      <trkpt lat="10.1669284" lon="-85.4539031">
        <ele>156.9</ele>
        <time>2022-10-06T19:26:48Z</time>
      </trkpt>
      <trkpt lat="10.1668145" lon="-85.4538138">
        <ele>156.8</ele>
        <time>2022-10-06T19:26:49Z</time>
      </trkpt>
      <trkpt lat="10.1666997" lon="-85.4537244">
        <ele>156.5</ele>
        <time>2022-10-06T19:26:50Z</time>
      </trkpt>
      <trkpt lat="10.1665877" lon="-85.4536373">
        <ele>156.5</ele>
        <time>2022-10-06T19:26:51Z</time>
      </trkpt>
      <trkpt lat="10.1664760" lon="-85.4535494">
        <ele>156.3</ele>
        <time>2022-10-06T19:26:52Z</time>
      </trkpt>
      <trkpt lat="10.1663687" lon="-85.4534647">
        <ele>156.1</ele>
        <time>2022-10-06T19:26:53Z</time>
      </trkpt>
      <trkpt lat="10.1662641" lon="-85.4533822">
        <ele>156.0</ele>
        <time>2022-10-06T19:26:54Z</time>
      </trkpt>
      <trkpt lat="10.1661617" lon="-85.4533027">
        <ele>156.0</ele>
        <time>2022-10-06T19:26:55Z</time>
      </trkpt>
      <trkpt lat="10.1660605" lon="-85.4532232">
        <ele>155.9</ele>
        <time>2022-10-06T19:26:56Z</time>
      </trkpt>
      <trkpt lat="10.1659556" lon="-85.4531410">
        <ele>155.8</ele>
        <time>2022-10-06T19:26:57Z</time>
      </trkpt>
      <trkpt lat="10.1658548" lon="-85.4530592">
        <ele>155.7</ele>
        <time>2022-10-06T19:26:58Z</time>
      </trkpt>
      <trkpt lat="10.1657524" lon="-85.4529781">
        <ele>155.5</ele>
        <time>2022-10-06T19:26:59Z</time>
      </trkpt>
      <trkpt lat="10.1656538" lon="-85.4528996">
        <ele>155.4</ele>
        <time>2022-10-06T19:27:00Z</time>
      </trkpt>
      <trkpt lat="10.1655575" lon="-85.4528230">
        <ele>155.4</ele>
        <time>2022-10-06T19:27:01Z</time>
      </trkpt>
      <trkpt lat="10.1654654" lon="-85.4527489">
        <ele>155.2</ele>
        <time>2022-10-06T19:27:02Z</time>
      </trkpt>
      <trkpt lat="10.1653768" lon="-85.4526786">
        <ele>155.2</ele>
        <time>2022-10-06T19:27:03Z</time>
      </trkpt>
      <trkpt lat="10.1652888" lon="-85.4526087">
        <ele>155.0</ele>
        <time>2022-10-06T19:27:04Z</time>
      </trkpt>
      <trkpt lat="10.1652026" lon="-85.4525415">
        <ele>155.3</ele>
        <time>2022-10-06T19:27:05Z</time>
      </trkpt>
      <trkpt lat="10.1651192" lon="-85.4524754">
        <ele>155.2</ele>
        <time>2022-10-06T19:27:06Z</time>
      </trkpt>
      <trkpt lat="10.1650368" lon="-85.4524082">
        <ele>155.1</ele>
        <time>2022-10-06T19:27:07Z</time>
      </trkpt>
      <trkpt lat="10.1649544" lon="-85.4523406">
        <ele>154.9</ele>
        <time>2022-10-06T19:27:08Z</time>
      </trkpt>
      <trkpt lat="10.1648746" lon="-85.4522755">
        <ele>154.9</ele>
        <time>2022-10-06T19:27:09Z</time>
      </trkpt>
      <trkpt lat="10.1647941" lon="-85.4522127">
        <ele>154.8</ele>
        <time>2022-10-06T19:27:10Z</time>
      </trkpt>
      <trkpt lat="10.1647127" lon="-85.4521482">
        <ele>154.7</ele>
        <time>2022-10-06T19:27:11Z</time>
      </trkpt>
      <trkpt lat="10.1646286" lon="-85.4520836">
        <ele>154.7</ele>
        <time>2022-10-06T19:27:12Z</time>
      </trkpt>
      <trkpt lat="10.1645493" lon="-85.4520200">
        <ele>154.7</ele>
        <time>2022-10-06T19:27:13Z</time>
      </trkpt>
      <trkpt lat="10.1644706" lon="-85.4519573">
        <ele>154.6</ele>
        <time>2022-10-06T19:27:14Z</time>
      </trkpt>
      <trkpt lat="10.1643919" lon="-85.4518947">
        <ele>154.5</ele>
        <time>2022-10-06T19:27:15Z</time>
      </trkpt>
      <trkpt lat="10.1643132" lon="-85.4518307">
        <ele>154.5</ele>
        <time>2022-10-06T19:27:16Z</time>
      </trkpt>
      <trkpt lat="10.1642335" lon="-85.4517663">
        <ele>154.4</ele>
        <time>2022-10-06T19:27:17Z</time>
      </trkpt>
      <trkpt lat="10.1641565" lon="-85.4517039">
        <ele>154.3</ele>
        <time>2022-10-06T19:27:18Z</time>
      </trkpt>
      <trkpt lat="10.1640828" lon="-85.4516435">
        <ele>154.2</ele>
        <time>2022-10-06T19:27:19Z</time>
      </trkpt>
      <trkpt lat="10.1640092" lon="-85.4515851">
        <ele>153.8</ele>
        <time>2022-10-06T19:27:20Z</time>
      </trkpt>
      <trkpt lat="10.1639371" lon="-85.4515281">
        <ele>153.8</ele>
        <time>2022-10-06T19:27:21Z</time>
      </trkpt>
      <trkpt lat="10.1638672" lon="-85.4514746">
        <ele>153.6</ele>
        <time>2022-10-06T19:27:22Z</time>
      </trkpt>
      <trkpt lat="10.1637965" lon="-85.4514199">
        <ele>153.5</ele>
        <time>2022-10-06T19:27:23Z</time>
      </trkpt>
      <trkpt lat="10.1637230" lon="-85.4513622">
        <ele>153.5</ele>
        <time>2022-10-06T19:27:24Z</time>
      </trkpt>
      <trkpt lat="10.1636509" lon="-85.4513057">
        <ele>153.4</ele>
        <time>2022-10-06T19:27:25Z</time>
      </trkpt>
      <trkpt lat="10.1635838" lon="-85.4512528">
        <ele>153.3</ele>
        <time>2022-10-06T19:27:26Z</time>
      </trkpt>
      <trkpt lat="10.1635234" lon="-85.4512064">
        <ele>153.2</ele>
        <time>2022-10-06T19:27:27Z</time>
      </trkpt>
      <trkpt lat="10.1634644" lon="-85.4511625">
        <ele>153.2</ele>
        <time>2022-10-06T19:27:28Z</time>
      </trkpt>
      <trkpt lat="10.1634109" lon="-85.4511198">
        <ele>153.0</ele>
        <time>2022-10-06T19:27:29Z</time>
      </trkpt>
      <trkpt lat="10.1633587" lon="-85.4510794">
        <ele>152.9</ele>
        <time>2022-10-06T19:27:30Z</time>
      </trkpt>
      <trkpt lat="10.1633084" lon="-85.4510390">
        <ele>152.9</ele>
        <time>2022-10-06T19:27:31Z</time>
      </trkpt>
      <trkpt lat="10.1632569" lon="-85.4509984">
        <ele>152.7</ele>
        <time>2022-10-06T19:27:32Z</time>
      </trkpt>
      <trkpt lat="10.1632010" lon="-85.4509536">
        <ele>152.7</ele>
        <time>2022-10-06T19:27:33Z</time>
      </trkpt>
      <trkpt lat="10.1631422" lon="-85.4509084">
        <ele>152.6</ele>
        <time>2022-10-06T19:27:34Z</time>
      </trkpt>
      <trkpt lat="10.1630754" lon="-85.4508579">
        <ele>152.5</ele>
        <time>2022-10-06T19:27:35Z</time>
      </trkpt>
      <trkpt lat="10.1630014" lon="-85.4508007">
        <ele>152.5</ele>
        <time>2022-10-06T19:27:36Z</time>
      </trkpt>
      <trkpt lat="10.1629253" lon="-85.4507406">
        <ele>152.4</ele>
        <time>2022-10-06T19:27:37Z</time>
      </trkpt>
      <trkpt lat="10.1628440" lon="-85.4506758">
        <ele>152.3</ele>
        <time>2022-10-06T19:27:38Z</time>
      </trkpt>
      <trkpt lat="10.1627590" lon="-85.4506092">
        <ele>152.3</ele>
        <time>2022-10-06T19:27:39Z</time>
      </trkpt>
      <trkpt lat="10.1626716" lon="-85.4505378">
        <ele>152.1</ele>
        <time>2022-10-06T19:27:40Z</time>
      </trkpt>
      <trkpt lat="10.1625832" lon="-85.4504650">
        <ele>152.1</ele>
        <time>2022-10-06T19:27:41Z</time>
      </trkpt>
      <trkpt lat="10.1624879" lon="-85.4503870">
        <ele>152.0</ele>
        <time>2022-10-06T19:27:42Z</time>
      </trkpt>
      <trkpt lat="10.1623901" lon="-85.4503074">
        <ele>151.9</ele>
        <time>2022-10-06T19:27:43Z</time>
      </trkpt>
      <trkpt lat="10.1622920" lon="-85.4502312">
        <ele>151.8</ele>
        <time>2022-10-06T19:27:44Z</time>
      </trkpt>
      <trkpt lat="10.1621987" lon="-85.4501582">
        <ele>151.7</ele>
        <time>2022-10-06T19:27:45Z</time>
      </trkpt>
      <trkpt lat="10.1621141" lon="-85.4500921">
        <ele>151.6</ele>
        <time>2022-10-06T19:27:46Z</time>
      </trkpt>
      <trkpt lat="10.1620354" lon="-85.4500308">
        <ele>151.5</ele>
        <time>2022-10-06T19:27:47Z</time>
      </trkpt>
      <trkpt lat="10.1619600" lon="-85.4499692">
        <ele>151.4</ele>
        <time>2022-10-06T19:27:48Z</time>
      </trkpt>
      <trkpt lat="10.1618885" lon="-85.4499124">
        <ele>151.2</ele>
        <time>2022-10-06T19:27:49Z</time>
      </trkpt>
      <trkpt lat="10.1618173" lon="-85.4498545">
        <ele>151.2</ele>
        <time>2022-10-06T19:27:50Z</time>
      </trkpt>
      <trkpt lat="10.1617423" lon="-85.4497945">
        <ele>151.2</ele>
        <time>2022-10-06T19:27:51Z</time>
      </trkpt>
      <trkpt lat="10.1616649" lon="-85.4497327">
        <ele>151.1</ele>
        <time>2022-10-06T19:27:52Z</time>
      </trkpt>
      <trkpt lat="10.1615847" lon="-85.4496664">
        <ele>151.0</ele>
        <time>2022-10-06T19:27:53Z</time>
      </trkpt>
      <trkpt lat="10.1615043" lon="-85.4496010">
        <ele>150.9</ele>
        <time>2022-10-06T19:27:54Z</time>
      </trkpt>
      <trkpt lat="10.1614242" lon="-85.4495367">
        <ele>150.8</ele>
        <time>2022-10-06T19:27:55Z</time>
      </trkpt>
      <trkpt lat="10.1613482" lon="-85.4494771">
        <ele>150.8</ele>
        <time>2022-10-06T19:27:56Z</time>
      </trkpt>
      <trkpt lat="10.1612738" lon="-85.4494193">
        <ele>150.7</ele>
        <time>2022-10-06T19:27:57Z</time>
      </trkpt>
      <trkpt lat="10.1611943" lon="-85.4493597">
        <ele>150.5</ele>
        <time>2022-10-06T19:27:58Z</time>
      </trkpt>
      <trkpt lat="10.1611092" lon="-85.4492957">
        <ele>150.4</ele>
        <time>2022-10-06T19:27:59Z</time>
      </trkpt>
      <trkpt lat="10.1610204" lon="-85.4492314">
        <ele>150.4</ele>
        <time>2022-10-06T19:28:00Z</time>
      </trkpt>
      <trkpt lat="10.1609278" lon="-85.4491684">
        <ele>150.3</ele>
        <time>2022-10-06T19:28:01Z</time>
      </trkpt>
      <trkpt lat="10.1608287" lon="-85.4491038">
        <ele>150.2</ele>
        <time>2022-10-06T19:28:02Z</time>
      </trkpt>
      <trkpt lat="10.1607226" lon="-85.4490400">
        <ele>150.1</ele>
        <time>2022-10-06T19:28:03Z</time>
      </trkpt>
      <trkpt lat="10.1606129" lon="-85.4489785">
        <ele>149.9</ele>
        <time>2022-10-06T19:28:04Z</time>
      </trkpt>
      <trkpt lat="10.1605003" lon="-85.4489206">
        <ele>149.8</ele>
        <time>2022-10-06T19:28:05Z</time>
      </trkpt>
      <trkpt lat="10.1603840" lon="-85.4488651">
        <ele>149.7</ele>
        <time>2022-10-06T19:28:06Z</time>
      </trkpt>
      <trkpt lat="10.1602627" lon="-85.4488174">
        <ele>150.0</ele>
        <time>2022-10-06T19:28:07Z</time>
      </trkpt>
      <trkpt lat="10.1601376" lon="-85.4487732">
        <ele>150.0</ele>
        <time>2022-10-06T19:28:08Z</time>
      </trkpt>
      <trkpt lat="10.1600087" lon="-85.4487338">
        <ele>149.9</ele>
        <time>2022-10-06T19:28:09Z</time>
      </trkpt>
      <trkpt lat="10.1598784" lon="-85.4486979">
        <ele>149.8</ele>
        <time>2022-10-06T19:28:10Z</time>
      </trkpt>
      <trkpt lat="10.1597469" lon="-85.4486673">
        <ele>149.7</ele>
        <time>2022-10-06T19:28:11Z</time>
      </trkpt>
      <trkpt lat="10.1596137" lon="-85.4486385">
        <ele>149.7</ele>
        <time>2022-10-06T19:28:12Z</time>
      </trkpt>
      <trkpt lat="10.1594772" lon="-85.4486177">
        <ele>149.7</ele>
        <time>2022-10-06T19:28:13Z</time>
      </trkpt>
      <trkpt lat="10.1593424" lon="-85.4486032">
        <ele>149.6</ele>
        <time>2022-10-06T19:28:14Z</time>
      </trkpt>
      <trkpt lat="10.1592135" lon="-85.4485926">
        <ele>149.4</ele>
        <time>2022-10-06T19:28:15Z</time>
      </trkpt>
      <trkpt lat="10.1590969" lon="-85.4485869">
        <ele>149.3</ele>
        <time>2022-10-06T19:28:16Z</time>
      </trkpt>
      <trkpt lat="10.1589921" lon="-85.4485860">
        <ele>149.2</ele>
        <time>2022-10-06T19:28:17Z</time>
      </trkpt>
      <trkpt lat="10.1588903" lon="-85.4485876">
        <ele>149.0</ele>
        <time>2022-10-06T19:28:18Z</time>
      </trkpt>
      <trkpt lat="10.1587806" lon="-85.4485943">
        <ele>148.8</ele>
        <time>2022-10-06T19:28:19Z</time>
      </trkpt>
      <trkpt lat="10.1586671" lon="-85.4486035">
        <ele>148.7</ele>
        <time>2022-10-06T19:28:20Z</time>
      </trkpt>
      <trkpt lat="10.1585500" lon="-85.4486190">
        <ele>148.5</ele>
        <time>2022-10-06T19:28:21Z</time>
      </trkpt>
      <trkpt lat="10.1584317" lon="-85.4486386">
        <ele>148.3</ele>
        <time>2022-10-06T19:28:22Z</time>
      </trkpt>
      <trkpt lat="10.1583102" lon="-85.4486614">
        <ele>148.0</ele>
        <time>2022-10-06T19:28:23Z</time>
      </trkpt>
      <trkpt lat="10.1581857" lon="-85.4486885">
        <ele>147.8</ele>
        <time>2022-10-06T19:28:24Z</time>
      </trkpt>
      <trkpt lat="10.1580637" lon="-85.4487179">
        <ele>147.5</ele>
        <time>2022-10-06T19:28:25Z</time>
      </trkpt>
      <trkpt lat="10.1579430" lon="-85.4487536">
        <ele>147.3</ele>
        <time>2022-10-06T19:28:26Z</time>
      </trkpt>
      <trkpt lat="10.1578179" lon="-85.4487929">
        <ele>147.1</ele>
        <time>2022-10-06T19:28:27Z</time>
      </trkpt>
      <trkpt lat="10.1576976" lon="-85.4488381">
        <ele>146.9</ele>
        <time>2022-10-06T19:28:28Z</time>
      </trkpt>
      <trkpt lat="10.1575808" lon="-85.4488881">
        <ele>146.6</ele>
        <time>2022-10-06T19:28:29Z</time>
      </trkpt>
      <trkpt lat="10.1574645" lon="-85.4489434">
        <ele>146.4</ele>
        <time>2022-10-06T19:28:30Z</time>
      </trkpt>
      <trkpt lat="10.1573460" lon="-85.4490009">
        <ele>146.2</ele>
        <time>2022-10-06T19:28:31Z</time>
      </trkpt>
      <trkpt lat="10.1572291" lon="-85.4490604">
        <ele>146.0</ele>
        <time>2022-10-06T19:28:32Z</time>
      </trkpt>
      <trkpt lat="10.1571107" lon="-85.4491217">
        <ele>145.8</ele>
        <time>2022-10-06T19:28:33Z</time>
      </trkpt>
      <trkpt lat="10.1569940" lon="-85.4491826">
        <ele>145.6</ele>
        <time>2022-10-06T19:28:34Z</time>
      </trkpt>
      <trkpt lat="10.1568789" lon="-85.4492444">
        <ele>145.5</ele>
        <time>2022-10-06T19:28:35Z</time>
      </trkpt>
      <trkpt lat="10.1567695" lon="-85.4493031">
        <ele>145.5</ele>
        <time>2022-10-06T19:28:36Z</time>
      </trkpt>
      <trkpt lat="10.1566616" lon="-85.4493593">
        <ele>145.5</ele>
        <time>2022-10-06T19:28:37Z</time>
      </trkpt>
      <trkpt lat="10.1565550" lon="-85.4494149">
        <ele>145.5</ele>
        <time>2022-10-06T19:28:38Z</time>
      </trkpt>
      <trkpt lat="10.1564445" lon="-85.4494721">
        <ele>145.4</ele>
        <time>2022-10-06T19:28:39Z</time>
      </trkpt>
      <trkpt lat="10.1563353" lon="-85.4495288">
        <ele>145.5</ele>
        <time>2022-10-06T19:28:40Z</time>
      </trkpt>
      <trkpt lat="10.1562290" lon="-85.4495839">
        <ele>145.4</ele>
        <time>2022-10-06T19:28:41Z</time>
      </trkpt>
      <trkpt lat="10.1561244" lon="-85.4496359">
        <ele>145.5</ele>
        <time>2022-10-06T19:28:42Z</time>
      </trkpt>
      <trkpt lat="10.1560262" lon="-85.4496834">
        <ele>145.5</ele>
        <time>2022-10-06T19:28:43Z</time>
      </trkpt>
      <trkpt lat="10.1559396" lon="-85.4497229">
        <ele>145.6</ele>
        <time>2022-10-06T19:28:44Z</time>
      </trkpt>
      <trkpt lat="10.1558685" lon="-85.4497516">
        <ele>145.8</ele>
        <time>2022-10-06T19:28:45Z</time>
      </trkpt>
      <trkpt lat="10.1558027" lon="-85.4497746">
        <ele>145.8</ele>
        <time>2022-10-06T19:28:46Z</time>
      </trkpt>
      <trkpt lat="10.1557374" lon="-85.4497971">
        <ele>145.9</ele>
        <time>2022-10-06T19:28:47Z</time>
      </trkpt>
      <trkpt lat="10.1556777" lon="-85.4498269">
        <ele>145.9</ele>
        <time>2022-10-06T19:28:48Z</time>
      </trkpt>
      <trkpt lat="10.1556227" lon="-85.4498600">
        <ele>146.0</ele>
        <time>2022-10-06T19:28:49Z</time>
      </trkpt>
      <trkpt lat="10.1555733" lon="-85.4498890">
        <ele>146.0</ele>
        <time>2022-10-06T19:28:50Z</time>
      </trkpt>
      <trkpt lat="10.1555270" lon="-85.4499139">
        <ele>146.0</ele>
        <time>2022-10-06T19:28:51Z</time>
      </trkpt>
      <trkpt lat="10.1554833" lon="-85.4499367">
        <ele>146.0</ele>
        <time>2022-10-06T19:28:52Z</time>
      </trkpt>
      <trkpt lat="10.1554407" lon="-85.4499558">
        <ele>146.1</ele>
        <time>2022-10-06T19:28:53Z</time>
      </trkpt>
      <trkpt lat="10.1554012" lon="-85.4499749">
        <ele>146.1</ele>
        <time>2022-10-06T19:28:54Z</time>
      </trkpt>
      <trkpt lat="10.1553621" lon="-85.4499950">
        <ele>146.1</ele>
        <time>2022-10-06T19:28:55Z</time>
      </trkpt>
      <trkpt lat="10.1553210" lon="-85.4500154">
        <ele>146.1</ele>
        <time>2022-10-06T19:28:56Z</time>
      </trkpt>
      <trkpt lat="10.1552784" lon="-85.4500361">
        <ele>146.2</ele>
        <time>2022-10-06T19:28:57Z</time>
      </trkpt>
      <trkpt lat="10.1552326" lon="-85.4500601">
        <ele>146.2</ele>
        <time>2022-10-06T19:28:58Z</time>
      </trkpt>
      <trkpt lat="10.1551815" lon="-85.4500860">
        <ele>146.3</ele>
        <time>2022-10-06T19:28:59Z</time>
      </trkpt>
      <trkpt lat="10.1551248" lon="-85.4501125">
        <ele>146.4</ele>
        <time>2022-10-06T19:29:00Z</time>
      </trkpt>
      <trkpt lat="10.1550650" lon="-85.4501424">
        <ele>146.5</ele>
        <time>2022-10-06T19:29:01Z</time>
      </trkpt>
      <trkpt lat="10.1550044" lon="-85.4501735">
        <ele>146.5</ele>
        <time>2022-10-06T19:29:02Z</time>
      </trkpt>
      <trkpt lat="10.1549450" lon="-85.4502050">
        <ele>146.6</ele>
        <time>2022-10-06T19:29:03Z</time>
      </trkpt>
      <trkpt lat="10.1548846" lon="-85.4502352">
        <ele>146.8</ele>
        <time>2022-10-06T19:29:04Z</time>
      </trkpt>
      <trkpt lat="10.1548259" lon="-85.4502655">
        <ele>146.9</ele>
        <time>2022-10-06T19:29:05Z</time>
      </trkpt>
      <trkpt lat="10.1547707" lon="-85.4502941">
        <ele>147.0</ele>
        <time>2022-10-06T19:29:06Z</time>
      </trkpt>
      <trkpt lat="10.1547241" lon="-85.4503196">
        <ele>147.0</ele>
        <time>2022-10-06T19:29:07Z</time>
      </trkpt>
      <trkpt lat="10.1546804" lon="-85.4503418">
        <ele>147.1</ele>
        <time>2022-10-06T19:29:08Z</time>
      </trkpt>
      <trkpt lat="10.1546444" lon="-85.4503613">
        <ele>147.1</ele>
        <time>2022-10-06T19:29:09Z</time>
      </trkpt>
      <trkpt lat="10.1546184" lon="-85.4503796">
        <ele>147.2</ele>
        <time>2022-10-06T19:29:10Z</time>
      </trkpt>
      <trkpt lat="10.1546007" lon="-85.4503963">
        <ele>147.2</ele>
        <time>2022-10-06T19:29:11Z</time>
      </trkpt>
      <trkpt lat="10.1545803" lon="-85.4504132">
        <ele>147.1</ele>
        <time>2022-10-06T19:29:12Z</time>
      </trkpt>
      <trkpt lat="10.1545562" lon="-85.4504324">
        <ele>147.3</ele>
        <time>2022-10-06T19:29:13Z</time>
      </trkpt>
      <trkpt lat="10.1545320" lon="-85.4504510">
        <ele>147.4</ele>
        <time>2022-10-06T19:29:14Z</time>
      </trkpt>
      <trkpt lat="10.1545101" lon="-85.4504696">
        <ele>147.4</ele>
        <time>2022-10-06T19:29:15Z</time>
      </trkpt>
      <trkpt lat="10.1544909" lon="-85.4504868">
        <ele>147.4</ele>
        <time>2022-10-06T19:29:16Z</time>
      </trkpt>
      <trkpt lat="10.1544752" lon="-85.4505042">
        <ele>147.5</ele>
        <time>2022-10-06T19:29:17Z</time>
      </trkpt>
      <trkpt lat="10.1544608" lon="-85.4505198">
        <ele>147.5</ele>
        <time>2022-10-06T19:29:18Z</time>
      </trkpt>
      <trkpt lat="10.1544521" lon="-85.4505333">
        <ele>147.6</ele>
        <time>2022-10-06T19:29:19Z</time>
      </trkpt>
      <trkpt lat="10.1544491" lon="-85.4505520">
        <ele>147.4</ele>
        <time>2022-10-06T19:29:20Z</time>
      </trkpt>
      <trkpt lat="10.1544450" lon="-85.4505676">
        <ele>147.6</ele>
        <time>2022-10-06T19:29:21Z</time>
      </trkpt>
      <trkpt lat="10.1544427" lon="-85.4505717">
        <ele>147.7</ele>
        <time>2022-10-06T19:29:22Z</time>
      </trkpt>
      <trkpt lat="10.1544408" lon="-85.4505769">
        <ele>147.7</ele>
        <time>2022-10-06T19:29:23Z</time>
      </trkpt>
      <trkpt lat="10.1544408" lon="-85.4505769">
        <ele>147.9</ele>
        <time>2022-10-06T19:29:24Z</time>
      </trkpt>
      <trkpt lat="10.1544408" lon="-85.4505769">
        <ele>147.9</ele>
        <time>2022-10-06T19:29:25Z</time>
      </trkpt>
      <trkpt lat="10.1544408" lon="-85.4505769">
        <ele>147.9</ele>
        <time>2022-10-06T19:29:26Z</time>
      </trkpt>
      <trkpt lat="10.1544408" lon="-85.4505769">
        <ele>147.9</ele>
        <time>2022-10-06T19:29:27Z</time>
      </trkpt>
      <trkpt lat="10.1544408" lon="-85.4505769">
        <ele>147.9</ele>
        <time>2022-10-06T19:29:28Z</time>
      </trkpt>
      <trkpt lat="10.1544408" lon="-85.4505769">
        <ele>147.8</ele>
        <time>2022-10-06T19:29:29Z</time>
      </trkpt>
      <trkpt lat="10.1544408" lon="-85.4505769">
        <ele>147.8</ele>
        <time>2022-10-06T19:29:30Z</time>
      </trkpt>
      <trkpt lat="10.1544408" lon="-85.4505769">
        <ele>147.9</ele>
        <time>2022-10-06T19:29:31Z</time>
      </trkpt>
      <trkpt lat="10.1544408" lon="-85.4505769">
        <ele>147.9</ele>
        <time>2022-10-06T19:29:32Z</time>
      </trkpt>
      <trkpt lat="10.1544408" lon="-85.4505769">
        <ele>147.9</ele>
        <time>2022-10-06T19:29:33Z</time>
      </trkpt>
      <trkpt lat="10.1544408" lon="-85.4505769">
        <ele>147.8</ele>
        <time>2022-10-06T19:29:34Z</time>
      </trkpt>
      <trkpt lat="10.1544408" lon="-85.4505769">
        <ele>147.8</ele>
        <time>2022-10-06T19:29:35Z</time>
      </trkpt>
      <trkpt lat="10.1544408" lon="-85.4505769">
        <ele>147.8</ele>
        <time>2022-10-06T19:29:36Z</time>
      </trkpt>
      <trkpt lat="10.1544408" lon="-85.4505769">
        <ele>147.8</ele>
        <time>2022-10-06T19:29:37Z</time>
      </trkpt>
      <trkpt lat="10.1543907" lon="-85.4505333">
        <ele>147.1</ele>
        <time>2022-10-06T20:15:08.363Z</time>
      </trkpt>
      <trkpt lat="10.1543854" lon="-85.4505474">
        <ele>145.7</ele>
        <time>2022-10-06T20:15:09Z</time>
      </trkpt>
      <trkpt lat="10.1543893" lon="-85.4505527">
        <ele>145.2</ele>
        <time>2022-10-06T20:15:10Z</time>
      </trkpt>
      <trkpt lat="10.1543981" lon="-85.4505512">
        <ele>144.3</ele>
        <time>2022-10-06T20:15:11Z</time>
      </trkpt>
      <trkpt lat="10.1544122" lon="-85.4505412">
        <ele>141.2</ele>
        <time>2022-10-06T20:15:12Z</time>
      </trkpt>
      <trkpt lat="10.1544150" lon="-85.4505329">
        <ele>140.6</ele>
        <time>2022-10-06T20:15:13Z</time>
      </trkpt>
      <trkpt lat="10.1544133" lon="-85.4505281">
        <ele>139.0</ele>
        <time>2022-10-06T20:15:14Z</time>
      </trkpt>
      <trkpt lat="10.1544133" lon="-85.4505279">
        <ele>138.4</ele>
        <time>2022-10-06T20:15:15Z</time>
      </trkpt>
      <trkpt lat="10.1544133" lon="-85.4505278">
        <ele>137.9</ele>
        <time>2022-10-06T20:15:16Z</time>
      </trkpt>
      <trkpt lat="10.1544133" lon="-85.4505275">
        <ele>137.5</ele>
        <time>2022-10-06T20:15:17Z</time>
      </trkpt>
      <trkpt lat="10.1544133" lon="-85.4505271">
        <ele>137.2</ele>
        <time>2022-10-06T20:15:18Z</time>
      </trkpt>
      <trkpt lat="10.1544134" lon="-85.4505267">
        <ele>136.9</ele>
        <time>2022-10-06T20:15:19Z</time>
      </trkpt>
      <trkpt lat="10.1544134" lon="-85.4505263">
        <ele>136.6</ele>
        <time>2022-10-06T20:15:20Z</time>
      </trkpt>
      <trkpt lat="10.1544134" lon="-85.4505261">
        <ele>136.3</ele>
        <time>2022-10-06T20:15:21Z</time>
      </trkpt>
      <trkpt lat="10.1544134" lon="-85.4505261">
        <ele>135.9</ele>
        <time>2022-10-06T20:15:22Z</time>
      </trkpt>
      <trkpt lat="10.1544136" lon="-85.4505261">
        <ele>135.6</ele>
        <time>2022-10-06T20:15:23Z</time>
      </trkpt>
      <trkpt lat="10.1544137" lon="-85.4505261">
        <ele>135.4</ele>
        <time>2022-10-06T20:15:24Z</time>
      </trkpt>
      <trkpt lat="10.1544138" lon="-85.4505261">
        <ele>135.0</ele>
        <time>2022-10-06T20:15:25Z</time>
      </trkpt>
      <trkpt lat="10.1544138" lon="-85.4505261">
        <ele>134.8</ele>
        <time>2022-10-06T20:15:26Z</time>
      </trkpt>
      <trkpt lat="10.1544137" lon="-85.4505260">
        <ele>134.7</ele>
        <time>2022-10-06T20:15:27Z</time>
      </trkpt>
      <trkpt lat="10.1544137" lon="-85.4505257">
        <ele>134.6</ele>
        <time>2022-10-06T20:15:28Z</time>
      </trkpt>
      <trkpt lat="10.1544137" lon="-85.4505256">
        <ele>134.5</ele>
        <time>2022-10-06T20:15:29Z</time>
      </trkpt>
      <trkpt lat="10.1544137" lon="-85.4505254">
        <ele>134.3</ele>
        <time>2022-10-06T20:15:30Z</time>
      </trkpt>
      <trkpt lat="10.1544137" lon="-85.4505251">
        <ele>134.2</ele>
        <time>2022-10-06T20:15:31Z</time>
      </trkpt>
      <trkpt lat="10.1544136" lon="-85.4505188">
        <ele>134.1</ele>
        <time>2022-10-06T20:15:32Z</time>
      </trkpt>
      <trkpt lat="10.1544139" lon="-85.4505158">
        <ele>134.1</ele>
        <time>2022-10-06T20:15:33Z</time>
      </trkpt>
      <trkpt lat="10.1544145" lon="-85.4505137">
        <ele>133.9</ele>
        <time>2022-10-06T20:15:34Z</time>
      </trkpt>
      <trkpt lat="10.1544142" lon="-85.4505116">
        <ele>133.9</ele>
        <time>2022-10-06T20:15:35Z</time>
      </trkpt>
      <trkpt lat="10.1544142" lon="-85.4505116">
        <ele>133.9</ele>
        <time>2022-10-06T20:15:36Z</time>
      </trkpt>
      <trkpt lat="10.1544142" lon="-85.4505116">
        <ele>133.8</ele>
        <time>2022-10-06T20:15:37Z</time>
      </trkpt>
      <trkpt lat="10.1544142" lon="-85.4505116">
        <ele>133.8</ele>
        <time>2022-10-06T20:15:38Z</time>
      </trkpt>
      <trkpt lat="10.1544142" lon="-85.4505116">
        <ele>133.7</ele>
        <time>2022-10-06T20:15:39Z</time>
      </trkpt>
      <trkpt lat="10.1544142" lon="-85.4505116">
        <ele>133.7</ele>
        <time>2022-10-06T20:15:40Z</time>
      </trkpt>
      <trkpt lat="10.1544142" lon="-85.4505116">
        <ele>133.8</ele>
        <time>2022-10-06T20:15:41Z</time>
      </trkpt>
      <trkpt lat="10.1544142" lon="-85.4505116">
        <ele>133.8</ele>
        <time>2022-10-06T20:15:42Z</time>
      </trkpt>
      <trkpt lat="10.1544142" lon="-85.4505116">
        <ele>133.9</ele>
        <time>2022-10-06T20:15:43Z</time>
      </trkpt>
      <trkpt lat="10.1544142" lon="-85.4505116">
        <ele>134.0</ele>
        <time>2022-10-06T20:15:44Z</time>
      </trkpt>
      <trkpt lat="10.1544142" lon="-85.4505116">
        <ele>134.1</ele>
        <time>2022-10-06T20:15:45Z</time>
      </trkpt>
      <trkpt lat="10.1544142" lon="-85.4505116">
        <ele>134.2</ele>
        <time>2022-10-06T20:15:46Z</time>
      </trkpt>
      <trkpt lat="10.1544142" lon="-85.4505116">
        <ele>134.2</ele>
        <time>2022-10-06T20:15:47Z</time>
      </trkpt>
      <trkpt lat="10.1544142" lon="-85.4505116">
        <ele>134.2</ele>
        <time>2022-10-06T20:15:48Z</time>
      </trkpt>
      <trkpt lat="10.1544142" lon="-85.4505116">
        <ele>134.3</ele>
        <time>2022-10-06T20:15:49Z</time>
      </trkpt>
      <trkpt lat="10.1544142" lon="-85.4505116">
        <ele>134.4</ele>
        <time>2022-10-06T20:15:50Z</time>
      </trkpt>
      <trkpt lat="10.1544142" lon="-85.4505116">
        <ele>134.4</ele>
        <time>2022-10-06T20:15:51Z</time>
      </trkpt>
      <trkpt lat="10.1544142" lon="-85.4505116">
        <ele>134.5</ele>
        <time>2022-10-06T20:15:52Z</time>
      </trkpt>
      <trkpt lat="10.1544142" lon="-85.4505116">
        <ele>134.6</ele>
        <time>2022-10-06T20:15:53Z</time>
      </trkpt>
      <trkpt lat="10.1544142" lon="-85.4505116">
        <ele>134.6</ele>
        <time>2022-10-06T20:15:54Z</time>
      </trkpt>
      <trkpt lat="10.1544142" lon="-85.4505116">
        <ele>134.8</ele>
        <time>2022-10-06T20:15:55Z</time>
      </trkpt>
      <trkpt lat="10.1544142" lon="-85.4505116">
        <ele>134.8</ele>
        <time>2022-10-06T20:15:56Z</time>
      </trkpt>
      <trkpt lat="10.1544142" lon="-85.4505116">
        <ele>134.9</ele>
        <time>2022-10-06T20:15:57Z</time>
      </trkpt>
      <trkpt lat="10.1544142" lon="-85.4505116">
        <ele>135.0</ele>
        <time>2022-10-06T20:15:58Z</time>
      </trkpt>
      <trkpt lat="10.1544142" lon="-85.4505116">
        <ele>135.0</ele>
        <time>2022-10-06T20:15:59Z</time>
      </trkpt>
      <trkpt lat="10.1544142" lon="-85.4505116">
        <ele>135.0</ele>
        <time>2022-10-06T20:16:00Z</time>
      </trkpt>
      <trkpt lat="10.1544142" lon="-85.4505116">
        <ele>135.1</ele>
        <time>2022-10-06T20:16:01Z</time>
      </trkpt>
      <trkpt lat="10.1544142" lon="-85.4505116">
        <ele>135.1</ele>
        <time>2022-10-06T20:16:02Z</time>
      </trkpt>
      <trkpt lat="10.1544142" lon="-85.4505116">
        <ele>135.1</ele>
        <time>2022-10-06T20:16:03Z</time>
      </trkpt>
      <trkpt lat="10.1544142" lon="-85.4505116">
        <ele>135.2</ele>
        <time>2022-10-06T20:16:04Z</time>
      </trkpt>
      <trkpt lat="10.1544142" lon="-85.4505116">
        <ele>135.2</ele>
        <time>2022-10-06T20:16:05Z</time>
      </trkpt>
      <trkpt lat="10.1544142" lon="-85.4505116">
        <ele>135.2</ele>
        <time>2022-10-06T20:16:06Z</time>
      </trkpt>
      <trkpt lat="10.1544142" lon="-85.4505116">
        <ele>135.2</ele>
        <time>2022-10-06T20:16:07Z</time>
      </trkpt>
      <trkpt lat="10.1544071" lon="-85.4504946">
        <ele>135.3</ele>
        <time>2022-10-06T20:16:08Z</time>
      </trkpt>
      <trkpt lat="10.1544039" lon="-85.4504780">
        <ele>135.6</ele>
        <time>2022-10-06T20:16:09Z</time>
      </trkpt>
      <trkpt lat="10.1544116" lon="-85.4504502">
        <ele>135.3</ele>
        <time>2022-10-06T20:16:10Z</time>
      </trkpt>
      <trkpt lat="10.1544331" lon="-85.4504164">
        <ele>135.1</ele>
        <time>2022-10-06T20:16:11Z</time>
      </trkpt>
      <trkpt lat="10.1544606" lon="-85.4503852">
        <ele>134.9</ele>
        <time>2022-10-06T20:16:12Z</time>
      </trkpt>
      <trkpt lat="10.1545061" lon="-85.4503622">
        <ele>134.9</ele>
        <time>2022-10-06T20:16:13Z</time>
      </trkpt>
      <trkpt lat="10.1545630" lon="-85.4503316">
        <ele>134.8</ele>
        <time>2022-10-06T20:16:14Z</time>
      </trkpt>
      <trkpt lat="10.1546225" lon="-85.4502980">
        <ele>134.6</ele>
        <time>2022-10-06T20:16:15Z</time>
      </trkpt>
      <trkpt lat="10.1546849" lon="-85.4502630">
        <ele>134.4</ele>
        <time>2022-10-06T20:16:16Z</time>
      </trkpt>
      <trkpt lat="10.1547548" lon="-85.4502277">
        <ele>134.3</ele>
        <time>2022-10-06T20:16:17Z</time>
      </trkpt>
      <trkpt lat="10.1548288" lon="-85.4501925">
        <ele>134.0</ele>
        <time>2022-10-06T20:16:18Z</time>
      </trkpt>
      <trkpt lat="10.1549041" lon="-85.4501557">
        <ele>133.9</ele>
        <time>2022-10-06T20:16:19Z</time>
      </trkpt>
      <trkpt lat="10.1549817" lon="-85.4501203">
        <ele>133.6</ele>
        <time>2022-10-06T20:16:20Z</time>
      </trkpt>
      <trkpt lat="10.1550586" lon="-85.4500827">
        <ele>133.3</ele>
        <time>2022-10-06T20:16:21Z</time>
      </trkpt>
      <trkpt lat="10.1551376" lon="-85.4500453">
        <ele>133.0</ele>
        <time>2022-10-06T20:16:22Z</time>
      </trkpt>
      <trkpt lat="10.1552201" lon="-85.4500078">
        <ele>132.7</ele>
        <time>2022-10-06T20:16:23Z</time>
      </trkpt>
      <trkpt lat="10.1553004" lon="-85.4499682">
        <ele>132.3</ele>
        <time>2022-10-06T20:16:24Z</time>
      </trkpt>
      <trkpt lat="10.1553810" lon="-85.4499292">
        <ele>132.1</ele>
        <time>2022-10-06T20:16:25Z</time>
      </trkpt>
      <trkpt lat="10.1554604" lon="-85.4498901">
        <ele>131.9</ele>
        <time>2022-10-06T20:16:26Z</time>
      </trkpt>
      <trkpt lat="10.1555376" lon="-85.4498517">
        <ele>131.8</ele>
        <time>2022-10-06T20:16:27Z</time>
      </trkpt>
      <trkpt lat="10.1556120" lon="-85.4498107">
        <ele>131.6</ele>
        <time>2022-10-06T20:16:28Z</time>
      </trkpt>
      <trkpt lat="10.1556851" lon="-85.4497682">
        <ele>131.3</ele>
        <time>2022-10-06T20:16:29Z</time>
      </trkpt>
      <trkpt lat="10.1557602" lon="-85.4497275">
        <ele>131.2</ele>
        <time>2022-10-06T20:16:30Z</time>
      </trkpt>
      <trkpt lat="10.1558354" lon="-85.4496901">
        <ele>131.2</ele>
        <time>2022-10-06T20:16:31Z</time>
      </trkpt>
      <trkpt lat="10.1559133" lon="-85.4496527">
        <ele>131.1</ele>
        <time>2022-10-06T20:16:32Z</time>
      </trkpt>
      <trkpt lat="10.1559937" lon="-85.4496143">
        <ele>131.0</ele>
        <time>2022-10-06T20:16:33Z</time>
      </trkpt>
      <trkpt lat="10.1560750" lon="-85.4495743">
        <ele>130.9</ele>
        <time>2022-10-06T20:16:34Z</time>
      </trkpt>
      <trkpt lat="10.1561553" lon="-85.4495336">
        <ele>130.8</ele>
        <time>2022-10-06T20:16:35Z</time>
      </trkpt>
      <trkpt lat="10.1562375" lon="-85.4494927">
        <ele>130.7</ele>
        <time>2022-10-06T20:16:36Z</time>
      </trkpt>
      <trkpt lat="10.1563189" lon="-85.4494528">
        <ele>130.6</ele>
        <time>2022-10-06T20:16:37Z</time>
      </trkpt>
      <trkpt lat="10.1563982" lon="-85.4494131">
        <ele>130.6</ele>
        <time>2022-10-06T20:16:38Z</time>
      </trkpt>
      <trkpt lat="10.1564763" lon="-85.4493746">
        <ele>130.3</ele>
        <time>2022-10-06T20:16:39Z</time>
      </trkpt>
      <trkpt lat="10.1565541" lon="-85.4493352">
        <ele>130.3</ele>
        <time>2022-10-06T20:16:40Z</time>
      </trkpt>
      <trkpt lat="10.1566329" lon="-85.4492955">
        <ele>130.3</ele>
        <time>2022-10-06T20:16:41Z</time>
      </trkpt>
      <trkpt lat="10.1567120" lon="-85.4492556">
        <ele>130.2</ele>
        <time>2022-10-06T20:16:42Z</time>
      </trkpt>
      <trkpt lat="10.1567926" lon="-85.4492155">
        <ele>130.5</ele>
        <time>2022-10-06T20:16:43Z</time>
      </trkpt>
      <trkpt lat="10.1568719" lon="-85.4491748">
        <ele>130.4</ele>
        <time>2022-10-06T20:16:44Z</time>
      </trkpt>
      <trkpt lat="10.1569496" lon="-85.4491351">
        <ele>130.5</ele>
        <time>2022-10-06T20:16:45Z</time>
      </trkpt>
      <trkpt lat="10.1570229" lon="-85.4490965">
        <ele>130.5</ele>
        <time>2022-10-06T20:16:46Z</time>
      </trkpt>
      <trkpt lat="10.1570923" lon="-85.4490607">
        <ele>130.6</ele>
        <time>2022-10-06T20:16:47Z</time>
      </trkpt>
      <trkpt lat="10.1571576" lon="-85.4490273">
        <ele>130.8</ele>
        <time>2022-10-06T20:16:48Z</time>
      </trkpt>
      <trkpt lat="10.1572183" lon="-85.4489974">
        <ele>130.8</ele>
        <time>2022-10-06T20:16:49Z</time>
      </trkpt>
      <trkpt lat="10.1572738" lon="-85.4489711">
        <ele>130.9</ele>
        <time>2022-10-06T20:16:50Z</time>
      </trkpt>
      <trkpt lat="10.1573224" lon="-85.4489494">
        <ele>131.2</ele>
        <time>2022-10-06T20:16:51Z</time>
      </trkpt>
      <trkpt lat="10.1573659" lon="-85.4489286">
        <ele>131.2</ele>
        <time>2022-10-06T20:16:52Z</time>
      </trkpt>
      <trkpt lat="10.1574051" lon="-85.4489100">
        <ele>131.3</ele>
        <time>2022-10-06T20:16:53Z</time>
      </trkpt>
      <trkpt lat="10.1574392" lon="-85.4488945">
        <ele>131.5</ele>
        <time>2022-10-06T20:16:54Z</time>
      </trkpt>
      <trkpt lat="10.1574679" lon="-85.4488816">
        <ele>131.4</ele>
        <time>2022-10-06T20:16:55Z</time>
      </trkpt>
      <trkpt lat="10.1574912" lon="-85.4488711">
        <ele>131.4</ele>
        <time>2022-10-06T20:16:56Z</time>
      </trkpt>
      <trkpt lat="10.1575103" lon="-85.4488623">
        <ele>131.3</ele>
        <time>2022-10-06T20:16:57Z</time>
      </trkpt>
      <trkpt lat="10.1575267" lon="-85.4488550">
        <ele>131.1</ele>
        <time>2022-10-06T20:16:58Z</time>
      </trkpt>
      <trkpt lat="10.1575408" lon="-85.4488486">
        <ele>131.1</ele>
        <time>2022-10-06T20:16:59Z</time>
      </trkpt>
      <trkpt lat="10.1575558" lon="-85.4488430">
        <ele>131.1</ele>
        <time>2022-10-06T20:17:00Z</time>
      </trkpt>
      <trkpt lat="10.1575693" lon="-85.4488373">
        <ele>130.8</ele>
        <time>2022-10-06T20:17:01Z</time>
      </trkpt>
      <trkpt lat="10.1575809" lon="-85.4488322">
        <ele>130.7</ele>
        <time>2022-10-06T20:17:02Z</time>
      </trkpt>
      <trkpt lat="10.1575898" lon="-85.4488291">
        <ele>130.8</ele>
        <time>2022-10-06T20:17:03Z</time>
      </trkpt>
      <trkpt lat="10.1575953" lon="-85.4488268">
        <ele>130.7</ele>
        <time>2022-10-06T20:17:04Z</time>
      </trkpt>
      <trkpt lat="10.1575953" lon="-85.4488268">
        <ele>130.5</ele>
        <time>2022-10-06T20:17:05Z</time>
      </trkpt>
      <trkpt lat="10.1575953" lon="-85.4488268">
        <ele>130.4</ele>
        <time>2022-10-06T20:17:06Z</time>
      </trkpt>
      <trkpt lat="10.1575953" lon="-85.4488268">
        <ele>130.3</ele>
        <time>2022-10-06T20:17:07Z</time>
      </trkpt>
      <trkpt lat="10.1575953" lon="-85.4488268">
        <ele>130.2</ele>
        <time>2022-10-06T20:17:08Z</time>
      </trkpt>
      <trkpt lat="10.1575953" lon="-85.4488268">
        <ele>130.0</ele>
        <time>2022-10-06T20:17:09Z</time>
      </trkpt>
      <trkpt lat="10.1575953" lon="-85.4488268">
        <ele>130.0</ele>
        <time>2022-10-06T20:17:10Z</time>
      </trkpt>
      <trkpt lat="10.1575953" lon="-85.4488268">
        <ele>129.9</ele>
        <time>2022-10-06T20:17:11Z</time>
      </trkpt>
      <trkpt lat="10.1575953" lon="-85.4488268">
        <ele>129.8</ele>
        <time>2022-10-06T20:17:12Z</time>
      </trkpt>
      <trkpt lat="10.1575953" lon="-85.4488268">
        <ele>129.7</ele>
        <time>2022-10-06T20:17:13Z</time>
      </trkpt>
      <trkpt lat="10.1575953" lon="-85.4488268">
        <ele>129.5</ele>
        <time>2022-10-06T20:17:14Z</time>
      </trkpt>
      <trkpt lat="10.1575953" lon="-85.4488268">
        <ele>129.4</ele>
        <time>2022-10-06T20:17:15Z</time>
      </trkpt>
      <trkpt lat="10.1575953" lon="-85.4488268">
        <ele>129.2</ele>
        <time>2022-10-06T20:17:16Z</time>
      </trkpt>
      <trkpt lat="10.1575953" lon="-85.4488268">
        <ele>129.1</ele>
        <time>2022-10-06T20:17:17Z</time>
      </trkpt>
      <trkpt lat="10.1575953" lon="-85.4488268">
        <ele>129.1</ele>
        <time>2022-10-06T20:17:18Z</time>
      </trkpt>
      <trkpt lat="10.1575953" lon="-85.4488268">
        <ele>129.1</ele>
        <time>2022-10-06T20:17:19Z</time>
      </trkpt>
      <trkpt lat="10.1575953" lon="-85.4488268">
        <ele>129.0</ele>
        <time>2022-10-06T20:17:20Z</time>
      </trkpt>
      <trkpt lat="10.1575953" lon="-85.4488268">
        <ele>129.0</ele>
        <time>2022-10-06T20:17:21Z</time>
      </trkpt>
      <trkpt lat="10.1576020" lon="-85.4488153">
        <ele>128.9</ele>
        <time>2022-10-06T20:17:22Z</time>
      </trkpt>
      <trkpt lat="10.1576171" lon="-85.4488081">
        <ele>129.1</ele>
        <time>2022-10-06T20:17:23Z</time>
      </trkpt>
      <trkpt lat="10.1576386" lon="-85.4487987">
        <ele>129.1</ele>
        <time>2022-10-06T20:17:24Z</time>
      </trkpt>
      <trkpt lat="10.1576581" lon="-85.4487906">
        <ele>129.0</ele>
        <time>2022-10-06T20:17:25Z</time>
      </trkpt>
      <trkpt lat="10.1576792" lon="-85.4487818">
        <ele>129.0</ele>
        <time>2022-10-06T20:17:26Z</time>
      </trkpt>
      <trkpt lat="10.1576999" lon="-85.4487732">
        <ele>129.0</ele>
        <time>2022-10-06T20:17:27Z</time>
      </trkpt>
      <trkpt lat="10.1577202" lon="-85.4487661">
        <ele>128.8</ele>
        <time>2022-10-06T20:17:28Z</time>
      </trkpt>
      <trkpt lat="10.1577401" lon="-85.4487595">
        <ele>128.7</ele>
        <time>2022-10-06T20:17:29Z</time>
      </trkpt>
      <trkpt lat="10.1577616" lon="-85.4487528">
        <ele>128.7</ele>
        <time>2022-10-06T20:17:30Z</time>
      </trkpt>
      <trkpt lat="10.1577843" lon="-85.4487489">
        <ele>128.6</ele>
        <time>2022-10-06T20:17:31Z</time>
      </trkpt>
      <trkpt lat="10.1578063" lon="-85.4487439">
        <ele>128.6</ele>
        <time>2022-10-06T20:17:32Z</time>
      </trkpt>
      <trkpt lat="10.1578347" lon="-85.4487377">
        <ele>128.7</ele>
        <time>2022-10-06T20:17:33Z</time>
      </trkpt>
      <trkpt lat="10.1578672" lon="-85.4487307">
        <ele>128.8</ele>
        <time>2022-10-06T20:17:34Z</time>
      </trkpt>
      <trkpt lat="10.1579027" lon="-85.4487210">
        <ele>128.9</ele>
        <time>2022-10-06T20:17:35Z</time>
      </trkpt>
      <trkpt lat="10.1579383" lon="-85.4487113">
        <ele>129.0</ele>
        <time>2022-10-06T20:17:36Z</time>
      </trkpt>
      <trkpt lat="10.1579810" lon="-85.4486981">
        <ele>129.2</ele>
        <time>2022-10-06T20:17:37Z</time>
      </trkpt>
      <trkpt lat="10.1580248" lon="-85.4486862">
        <ele>129.4</ele>
        <time>2022-10-06T20:17:38Z</time>
      </trkpt>
      <trkpt lat="10.1580678" lon="-85.4486743">
        <ele>129.6</ele>
        <time>2022-10-06T20:17:39Z</time>
      </trkpt>
      <trkpt lat="10.1581139" lon="-85.4486598">
        <ele>129.7</ele>
        <time>2022-10-06T20:17:40Z</time>
      </trkpt>
      <trkpt lat="10.1581596" lon="-85.4486492">
        <ele>129.8</ele>
        <time>2022-10-06T20:17:41Z</time>
      </trkpt>
      <trkpt lat="10.1582055" lon="-85.4486385">
        <ele>129.9</ele>
        <time>2022-10-06T20:17:42Z</time>
      </trkpt>
      <trkpt lat="10.1582505" lon="-85.4486283">
        <ele>130.0</ele>
        <time>2022-10-06T20:17:43Z</time>
      </trkpt>
      <trkpt lat="10.1582976" lon="-85.4486173">
        <ele>130.2</ele>
        <time>2022-10-06T20:17:44Z</time>
      </trkpt>
      <trkpt lat="10.1583441" lon="-85.4486064">
        <ele>130.1</ele>
        <time>2022-10-06T20:17:45Z</time>
      </trkpt>
      <trkpt lat="10.1583899" lon="-85.4485969">
        <ele>130.1</ele>
        <time>2022-10-06T20:17:46Z</time>
      </trkpt>
      <trkpt lat="10.1584285" lon="-85.4485888">
        <ele>130.1</ele>
        <time>2022-10-06T20:17:47Z</time>
      </trkpt>
      <trkpt lat="10.1584613" lon="-85.4485820">
        <ele>130.1</ele>
        <time>2022-10-06T20:17:48Z</time>
      </trkpt>
      <trkpt lat="10.1584855" lon="-85.4485775">
        <ele>130.2</ele>
        <time>2022-10-06T20:17:49Z</time>
      </trkpt>
      <trkpt lat="10.1584941" lon="-85.4485754">
        <ele>130.1</ele>
        <time>2022-10-06T20:17:50Z</time>
      </trkpt>
      <trkpt lat="10.1584993" lon="-85.4485751">
        <ele>130.7</ele>
        <time>2022-10-06T20:17:51Z</time>
      </trkpt>
      <trkpt lat="10.1585025" lon="-85.4485743">
        <ele>130.7</ele>
        <time>2022-10-06T20:17:52Z</time>
      </trkpt>
      <trkpt lat="10.1585025" lon="-85.4485743">
        <ele>130.6</ele>
        <time>2022-10-06T20:17:53Z</time>
      </trkpt>
      <trkpt lat="10.1585025" lon="-85.4485743">
        <ele>130.5</ele>
        <time>2022-10-06T20:17:54Z</time>
      </trkpt>
      <trkpt lat="10.1585025" lon="-85.4485743">
        <ele>130.5</ele>
        <time>2022-10-06T20:17:55Z</time>
      </trkpt>
      <trkpt lat="10.1585025" lon="-85.4485743">
        <ele>130.6</ele>
        <time>2022-10-06T20:17:56Z</time>
      </trkpt>
      <trkpt lat="10.1585025" lon="-85.4485743">
        <ele>130.5</ele>
        <time>2022-10-06T20:17:57Z</time>
      </trkpt>
      <trkpt lat="10.1585025" lon="-85.4485743">
        <ele>130.5</ele>
        <time>2022-10-06T20:17:58Z</time>
      </trkpt>
      <trkpt lat="10.1585025" lon="-85.4485743">
        <ele>130.5</ele>
        <time>2022-10-06T20:17:59Z</time>
      </trkpt>
      <trkpt lat="10.1585025" lon="-85.4485743">
        <ele>130.5</ele>
        <time>2022-10-06T20:18:00Z</time>
      </trkpt>
      <trkpt lat="10.1585025" lon="-85.4485743">
        <ele>130.5</ele>
        <time>2022-10-06T20:18:01Z</time>
      </trkpt>
      <trkpt lat="10.1585025" lon="-85.4485743">
        <ele>130.5</ele>
        <time>2022-10-06T20:18:02Z</time>
      </trkpt>
      <trkpt lat="10.1585025" lon="-85.4485743">
        <ele>130.4</ele>
        <time>2022-10-06T20:18:03Z</time>
      </trkpt>
      <trkpt lat="10.1585025" lon="-85.4485743">
        <ele>130.5</ele>
        <time>2022-10-06T20:18:04Z</time>
      </trkpt>
      <trkpt lat="10.1585025" lon="-85.4485743">
        <ele>130.4</ele>
        <time>2022-10-06T20:18:05Z</time>
      </trkpt>
      <trkpt lat="10.1585025" lon="-85.4485743">
        <ele>130.5</ele>
        <time>2022-10-06T20:18:06Z</time>
      </trkpt>
      <trkpt lat="10.1585025" lon="-85.4485743">
        <ele>130.4</ele>
        <time>2022-10-06T20:18:07Z</time>
      </trkpt>
      <trkpt lat="10.1585025" lon="-85.4485743">
        <ele>130.4</ele>
        <time>2022-10-06T20:18:08Z</time>
      </trkpt>
      <trkpt lat="10.1585025" lon="-85.4485743">
        <ele>130.4</ele>
        <time>2022-10-06T20:18:09Z</time>
      </trkpt>
      <trkpt lat="10.1585025" lon="-85.4485743">
        <ele>130.5</ele>
        <time>2022-10-06T20:18:10Z</time>
      </trkpt>
      <trkpt lat="10.1585025" lon="-85.4485743">
        <ele>130.5</ele>
        <time>2022-10-06T20:18:11Z</time>
      </trkpt>
      <trkpt lat="10.1585025" lon="-85.4485743">
        <ele>130.5</ele>
        <time>2022-10-06T20:18:12Z</time>
      </trkpt>
      <trkpt lat="10.1585241" lon="-85.4485715">
        <ele>130.6</ele>
        <time>2022-10-06T20:18:13Z</time>
      </trkpt>
      <trkpt lat="10.1585241" lon="-85.4485715">
        <ele>130.7</ele>
        <time>2022-10-06T20:18:14Z</time>
      </trkpt>
      <trkpt lat="10.1585241" lon="-85.4485715">
        <ele>130.7</ele>
        <time>2022-10-06T20:18:15Z</time>
      </trkpt>
      <trkpt lat="10.1585241" lon="-85.4485715">
        <ele>130.7</ele>
        <time>2022-10-06T20:18:16Z</time>
      </trkpt>
      <trkpt lat="10.1585241" lon="-85.4485715">
        <ele>130.6</ele>
        <time>2022-10-06T20:18:17Z</time>
      </trkpt>
      <trkpt lat="10.1585241" lon="-85.4485715">
        <ele>130.6</ele>
        <time>2022-10-06T20:18:18Z</time>
      </trkpt>
      <trkpt lat="10.1585241" lon="-85.4485715">
        <ele>130.6</ele>
        <time>2022-10-06T20:18:19Z</time>
      </trkpt>
      <trkpt lat="10.1585241" lon="-85.4485715">
        <ele>130.6</ele>
        <time>2022-10-06T20:18:20Z</time>
      </trkpt>
      <trkpt lat="10.1585241" lon="-85.4485715">
        <ele>130.6</ele>
        <time>2022-10-06T20:18:21Z</time>
      </trkpt>
      <trkpt lat="10.1585241" lon="-85.4485715">
        <ele>130.6</ele>
        <time>2022-10-06T20:18:22Z</time>
      </trkpt>
      <trkpt lat="10.1585241" lon="-85.4485715">
        <ele>130.6</ele>
        <time>2022-10-06T20:18:23Z</time>
      </trkpt>
      <trkpt lat="10.1585241" lon="-85.4485715">
        <ele>130.5</ele>
        <time>2022-10-06T20:18:24Z</time>
      </trkpt>
      <trkpt lat="10.1585241" lon="-85.4485715">
        <ele>130.5</ele>
        <time>2022-10-06T20:18:25Z</time>
      </trkpt>
      <trkpt lat="10.1585241" lon="-85.4485715">
        <ele>130.5</ele>
        <time>2022-10-06T20:18:26Z</time>
      </trkpt>
      <trkpt lat="10.1585241" lon="-85.4485715">
        <ele>130.5</ele>
        <time>2022-10-06T20:18:27Z</time>
      </trkpt>
      <trkpt lat="10.1585241" lon="-85.4485715">
        <ele>130.5</ele>
        <time>2022-10-06T20:18:28Z</time>
      </trkpt>
      <trkpt lat="10.1585241" lon="-85.4485715">
        <ele>130.5</ele>
        <time>2022-10-06T20:18:29Z</time>
      </trkpt>
      <trkpt lat="10.1585191" lon="-85.4485701">
        <ele>130.8</ele>
        <time>2022-10-06T20:18:30Z</time>
      </trkpt>
      <trkpt lat="10.1585261" lon="-85.4485697">
        <ele>130.8</ele>
        <time>2022-10-06T20:18:31Z</time>
      </trkpt>
      <trkpt lat="10.1585392" lon="-85.4485688">
        <ele>131.0</ele>
        <time>2022-10-06T20:18:32Z</time>
      </trkpt>
      <trkpt lat="10.1585570" lon="-85.4485652">
        <ele>131.0</ele>
        <time>2022-10-06T20:18:33Z</time>
      </trkpt>
      <trkpt lat="10.1585729" lon="-85.4485629">
        <ele>131.1</ele>
        <time>2022-10-06T20:18:34Z</time>
      </trkpt>
      <trkpt lat="10.1585839" lon="-85.4485604">
        <ele>131.1</ele>
        <time>2022-10-06T20:18:35Z</time>
      </trkpt>
      <trkpt lat="10.1585973" lon="-85.4485580">
        <ele>131.0</ele>
        <time>2022-10-06T20:18:36Z</time>
      </trkpt>
      <trkpt lat="10.1586093" lon="-85.4485541">
        <ele>131.1</ele>
        <time>2022-10-06T20:18:37Z</time>
      </trkpt>
      <trkpt lat="10.1586271" lon="-85.4485485">
        <ele>131.2</ele>
        <time>2022-10-06T20:18:38Z</time>
      </trkpt>
      <trkpt lat="10.1586566" lon="-85.4485409">
        <ele>131.2</ele>
        <time>2022-10-06T20:18:39Z</time>
      </trkpt>
      <trkpt lat="10.1586910" lon="-85.4485323">
        <ele>131.2</ele>
        <time>2022-10-06T20:18:40Z</time>
      </trkpt>
      <trkpt lat="10.1587342" lon="-85.4485220">
        <ele>131.3</ele>
        <time>2022-10-06T20:18:41Z</time>
      </trkpt>
      <trkpt lat="10.1587844" lon="-85.4485043">
        <ele>131.3</ele>
        <time>2022-10-06T20:18:42Z</time>
      </trkpt>
      <trkpt lat="10.1588386" lon="-85.4484838">
        <ele>131.4</ele>
        <time>2022-10-06T20:18:43Z</time>
      </trkpt>
      <trkpt lat="10.1589031" lon="-85.4484545">
        <ele>131.4</ele>
        <time>2022-10-06T20:18:44Z</time>
      </trkpt>
      <trkpt lat="10.1589723" lon="-85.4484196">
        <ele>131.7</ele>
        <time>2022-10-06T20:18:45Z</time>
      </trkpt>
      <trkpt lat="10.1590451" lon="-85.4483831">
        <ele>131.9</ele>
        <time>2022-10-06T20:18:46Z</time>
      </trkpt>
      <trkpt lat="10.1591174" lon="-85.4483433">
        <ele>132.1</ele>
        <time>2022-10-06T20:18:47Z</time>
      </trkpt>
      <trkpt lat="10.1591817" lon="-85.4483049">
        <ele>132.4</ele>
        <time>2022-10-06T20:18:48Z</time>
      </trkpt>
      <trkpt lat="10.1592438" lon="-85.4482652">
        <ele>132.7</ele>
        <time>2022-10-06T20:18:49Z</time>
      </trkpt>
      <trkpt lat="10.1592966" lon="-85.4482293">
        <ele>132.8</ele>
        <time>2022-10-06T20:18:50Z</time>
      </trkpt>
      <trkpt lat="10.1593403" lon="-85.4481956">
        <ele>133.0</ele>
        <time>2022-10-06T20:18:51Z</time>
      </trkpt>
      <trkpt lat="10.1593740" lon="-85.4481622">
        <ele>133.3</ele>
        <time>2022-10-06T20:18:52Z</time>
      </trkpt>
      <trkpt lat="10.1593954" lon="-85.4481283">
        <ele>133.7</ele>
        <time>2022-10-06T20:18:53Z</time>
      </trkpt>
      <trkpt lat="10.1594063" lon="-85.4480973">
        <ele>134.0</ele>
        <time>2022-10-06T20:18:54Z</time>
      </trkpt>
      <trkpt lat="10.1594161" lon="-85.4480708">
        <ele>134.1</ele>
        <time>2022-10-06T20:18:55Z</time>
      </trkpt>
      <trkpt lat="10.1594152" lon="-85.4480422">
        <ele>134.2</ele>
        <time>2022-10-06T20:18:56Z</time>
      </trkpt>
      <trkpt lat="10.1594078" lon="-85.4480156">
        <ele>134.5</ele>
        <time>2022-10-06T20:18:57Z</time>
      </trkpt>
      <trkpt lat="10.1593984" lon="-85.4479777">
        <ele>134.4</ele>
        <time>2022-10-06T20:18:58Z</time>
      </trkpt>
      <trkpt lat="10.1593635" lon="-85.4479456">
        <ele>134.6</ele>
        <time>2022-10-06T20:18:59Z</time>
      </trkpt>
      <trkpt lat="10.1593227" lon="-85.4479094">
        <ele>135.0</ele>
        <time>2022-10-06T20:19:00Z</time>
      </trkpt>
      <trkpt lat="10.1592776" lon="-85.4478724">
        <ele>135.3</ele>
        <time>2022-10-06T20:19:01Z</time>
      </trkpt>
      <trkpt lat="10.1592325" lon="-85.4478351">
        <ele>135.6</ele>
        <time>2022-10-06T20:19:02Z</time>
      </trkpt>
      <trkpt lat="10.1591826" lon="-85.4477947">
        <ele>135.9</ele>
        <time>2022-10-06T20:19:03Z</time>
      </trkpt>
      <trkpt lat="10.1591284" lon="-85.4477487">
        <ele>136.3</ele>
        <time>2022-10-06T20:19:04Z</time>
      </trkpt>
      <trkpt lat="10.1590713" lon="-85.4476976">
        <ele>136.8</ele>
        <time>2022-10-06T20:19:05Z</time>
      </trkpt>
      <trkpt lat="10.1590093" lon="-85.4476408">
        <ele>136.9</ele>
        <time>2022-10-06T20:19:06Z</time>
      </trkpt>
      <trkpt lat="10.1589433" lon="-85.4475813">
        <ele>137.5</ele>
        <time>2022-10-06T20:19:07Z</time>
      </trkpt>
      <trkpt lat="10.1588735" lon="-85.4475199">
        <ele>138.0</ele>
        <time>2022-10-06T20:19:08Z</time>
      </trkpt>
      <trkpt lat="10.1588002" lon="-85.4474595">
        <ele>138.5</ele>
        <time>2022-10-06T20:19:09Z</time>
      </trkpt>
      <trkpt lat="10.1587241" lon="-85.4473988">
        <ele>139.2</ele>
        <time>2022-10-06T20:19:10Z</time>
      </trkpt>
      <trkpt lat="10.1586430" lon="-85.4473342">
        <ele>139.8</ele>
        <time>2022-10-06T20:19:11Z</time>
      </trkpt>
      <trkpt lat="10.1585582" lon="-85.4472676">
        <ele>140.4</ele>
        <time>2022-10-06T20:19:12Z</time>
      </trkpt>
      <trkpt lat="10.1584702" lon="-85.4471983">
        <ele>141.1</ele>
        <time>2022-10-06T20:19:13Z</time>
      </trkpt>
      <trkpt lat="10.1583759" lon="-85.4471259">
        <ele>141.2</ele>
        <time>2022-10-06T20:19:14Z</time>
      </trkpt>
      <trkpt lat="10.1582823" lon="-85.4470504">
        <ele>142.0</ele>
        <time>2022-10-06T20:19:15Z</time>
      </trkpt>
      <trkpt lat="10.1581863" lon="-85.4469747">
        <ele>142.6</ele>
        <time>2022-10-06T20:19:16Z</time>
      </trkpt>
      <trkpt lat="10.1580866" lon="-85.4468973">
        <ele>142.7</ele>
        <time>2022-10-06T20:19:17Z</time>
      </trkpt>
      <trkpt lat="10.1579863" lon="-85.4468156">
        <ele>143.3</ele>
        <time>2022-10-06T20:19:18Z</time>
      </trkpt>
      <trkpt lat="10.1578835" lon="-85.4467317">
        <ele>143.9</ele>
        <time>2022-10-06T20:19:19Z</time>
      </trkpt>
      <trkpt lat="10.1577770" lon="-85.4466465">
        <ele>144.3</ele>
        <time>2022-10-06T20:19:20Z</time>
      </trkpt>
      <trkpt lat="10.1576651" lon="-85.4465591">
        <ele>144.6</ele>
        <time>2022-10-06T20:19:21Z</time>
      </trkpt>
      <trkpt lat="10.1575534" lon="-85.4464699">
        <ele>144.9</ele>
        <time>2022-10-06T20:19:22Z</time>
      </trkpt>
      <trkpt lat="10.1574374" lon="-85.4463786">
        <ele>144.8</ele>
        <time>2022-10-06T20:19:23Z</time>
      </trkpt>
      <trkpt lat="10.1573165" lon="-85.4462867">
        <ele>144.6</ele>
        <time>2022-10-06T20:19:24Z</time>
      </trkpt>
      <trkpt lat="10.1571950" lon="-85.4461911">
        <ele>144.3</ele>
        <time>2022-10-06T20:19:25Z</time>
      </trkpt>
      <trkpt lat="10.1570674" lon="-85.4460892">
        <ele>144.0</ele>
        <time>2022-10-06T20:19:26Z</time>
      </trkpt>
      <trkpt lat="10.1569400" lon="-85.4459849">
        <ele>143.3</ele>
        <time>2022-10-06T20:19:27Z</time>
      </trkpt>
      <trkpt lat="10.1568112" lon="-85.4458791">
        <ele>142.8</ele>
        <time>2022-10-06T20:19:28Z</time>
      </trkpt>
      <trkpt lat="10.1566799" lon="-85.4457728">
        <ele>142.9</ele>
        <time>2022-10-06T20:19:29Z</time>
      </trkpt>
      <trkpt lat="10.1565458" lon="-85.4456651">
        <ele>142.9</ele>
        <time>2022-10-06T20:19:30Z</time>
      </trkpt>
      <trkpt lat="10.1564114" lon="-85.4455538">
        <ele>141.8</ele>
        <time>2022-10-06T20:19:31Z</time>
      </trkpt>
      <trkpt lat="10.1562749" lon="-85.4454420">
        <ele>141.5</ele>
        <time>2022-10-06T20:19:32Z</time>
      </trkpt>
      <trkpt lat="10.1561352" lon="-85.4453272">
        <ele>141.6</ele>
        <time>2022-10-06T20:19:33Z</time>
      </trkpt>
      <trkpt lat="10.1559906" lon="-85.4452117">
        <ele>141.5</ele>
        <time>2022-10-06T20:19:34Z</time>
      </trkpt>
      <trkpt lat="10.1558470" lon="-85.4450927">
        <ele>140.6</ele>
        <time>2022-10-06T20:19:35Z</time>
      </trkpt>
      <trkpt lat="10.1557007" lon="-85.4449692">
        <ele>140.0</ele>
        <time>2022-10-06T20:19:36Z</time>
      </trkpt>
      <trkpt lat="10.1555572" lon="-85.4448396">
        <ele>139.4</ele>
        <time>2022-10-06T20:19:37Z</time>
      </trkpt>
      <trkpt lat="10.1554152" lon="-85.4447051">
        <ele>139.6</ele>
        <time>2022-10-06T20:19:38Z</time>
      </trkpt>
      <trkpt lat="10.1552765" lon="-85.4445655">
        <ele>138.8</ele>
        <time>2022-10-06T20:19:39Z</time>
      </trkpt>
      <trkpt lat="10.1551370" lon="-85.4444240">
        <ele>138.2</ele>
        <time>2022-10-06T20:19:40Z</time>
      </trkpt>
      <trkpt lat="10.1549987" lon="-85.4442800">
        <ele>137.5</ele>
        <time>2022-10-06T20:19:41Z</time>
      </trkpt>
      <trkpt lat="10.1548589" lon="-85.4441365">
        <ele>136.8</ele>
        <time>2022-10-06T20:19:42Z</time>
      </trkpt>
      <trkpt lat="10.1547163" lon="-85.4439934">
        <ele>136.4</ele>
        <time>2022-10-06T20:19:43Z</time>
      </trkpt>
      <trkpt lat="10.1545734" lon="-85.4438499">
        <ele>136.2</ele>
        <time>2022-10-06T20:19:44Z</time>
      </trkpt>
      <trkpt lat="10.1544263" lon="-85.4437029">
        <ele>135.8</ele>
        <time>2022-10-06T20:19:45Z</time>
      </trkpt>
      <trkpt lat="10.1542827" lon="-85.4435535">
        <ele>135.4</ele>
        <time>2022-10-06T20:19:46Z</time>
      </trkpt>
      <trkpt lat="10.1541362" lon="-85.4434022">
        <ele>134.9</ele>
        <time>2022-10-06T20:19:47Z</time>
      </trkpt>
      <trkpt lat="10.1539888" lon="-85.4432487">
        <ele>134.4</ele>
        <time>2022-10-06T20:19:48Z</time>
      </trkpt>
      <trkpt lat="10.1538394" lon="-85.4430953">
        <ele>133.9</ele>
        <time>2022-10-06T20:19:49Z</time>
      </trkpt>
      <trkpt lat="10.1536905" lon="-85.4429437">
        <ele>133.5</ele>
        <time>2022-10-06T20:19:50Z</time>
      </trkpt>
      <trkpt lat="10.1535429" lon="-85.4427923">
        <ele>133.4</ele>
        <time>2022-10-06T20:19:51Z</time>
      </trkpt>
      <trkpt lat="10.1533960" lon="-85.4426421">
        <ele>133.5</ele>
        <time>2022-10-06T20:19:52Z</time>
      </trkpt>
      <trkpt lat="10.1532504" lon="-85.4424913">
        <ele>133.6</ele>
        <time>2022-10-06T20:19:53Z</time>
      </trkpt>
      <trkpt lat="10.1531064" lon="-85.4423429">
        <ele>133.9</ele>
        <time>2022-10-06T20:19:54Z</time>
      </trkpt>
      <trkpt lat="10.1529640" lon="-85.4421965">
        <ele>134.3</ele>
        <time>2022-10-06T20:19:55Z</time>
      </trkpt>
      <trkpt lat="10.1528246" lon="-85.4420519">
        <ele>134.8</ele>
        <time>2022-10-06T20:19:56Z</time>
      </trkpt>
      <trkpt lat="10.1526875" lon="-85.4419099">
        <ele>135.2</ele>
        <time>2022-10-06T20:19:57Z</time>
      </trkpt>
      <trkpt lat="10.1525504" lon="-85.4417692">
        <ele>135.6</ele>
        <time>2022-10-06T20:19:58Z</time>
      </trkpt>
      <trkpt lat="10.1524127" lon="-85.4416266">
        <ele>135.9</ele>
        <time>2022-10-06T20:19:59Z</time>
      </trkpt>
      <trkpt lat="10.1522761" lon="-85.4414840">
        <ele>136.1</ele>
        <time>2022-10-06T20:20:00Z</time>
      </trkpt>
      <trkpt lat="10.1521374" lon="-85.4413398">
        <ele>136.2</ele>
        <time>2022-10-06T20:20:01Z</time>
      </trkpt>
      <trkpt lat="10.1520002" lon="-85.4411969">
        <ele>136.2</ele>
        <time>2022-10-06T20:20:02Z</time>
      </trkpt>
      <trkpt lat="10.1518616" lon="-85.4410527">
        <ele>136.0</ele>
        <time>2022-10-06T20:20:03Z</time>
      </trkpt>
      <trkpt lat="10.1517196" lon="-85.4409088">
        <ele>135.9</ele>
        <time>2022-10-06T20:20:04Z</time>
      </trkpt>
      <trkpt lat="10.1515774" lon="-85.4407646">
        <ele>135.6</ele>
        <time>2022-10-06T20:20:05Z</time>
      </trkpt>
      <trkpt lat="10.1514392" lon="-85.4406211">
        <ele>135.6</ele>
        <time>2022-10-06T20:20:06Z</time>
      </trkpt>
      <trkpt lat="10.1512992" lon="-85.4404779">
        <ele>135.1</ele>
        <time>2022-10-06T20:20:07Z</time>
      </trkpt>
      <trkpt lat="10.1511591" lon="-85.4403338">
        <ele>134.6</ele>
        <time>2022-10-06T20:20:08Z</time>
      </trkpt>
      <trkpt lat="10.1510206" lon="-85.4401909">
        <ele>134.1</ele>
        <time>2022-10-06T20:20:09Z</time>
      </trkpt>
      <trkpt lat="10.1508825" lon="-85.4400475">
        <ele>133.6</ele>
        <time>2022-10-06T20:20:10Z</time>
      </trkpt>
      <trkpt lat="10.1507446" lon="-85.4399054">
        <ele>133.1</ele>
        <time>2022-10-06T20:20:11Z</time>
      </trkpt>
      <trkpt lat="10.1506072" lon="-85.4397645">
        <ele>132.8</ele>
        <time>2022-10-06T20:20:12Z</time>
      </trkpt>
      <trkpt lat="10.1504698" lon="-85.4396237">
        <ele>132.4</ele>
        <time>2022-10-06T20:20:13Z</time>
      </trkpt>
      <trkpt lat="10.1503326" lon="-85.4394829">
        <ele>132.1</ele>
        <time>2022-10-06T20:20:14Z</time>
      </trkpt>
      <trkpt lat="10.1501949" lon="-85.4393408">
        <ele>131.8</ele>
        <time>2022-10-06T20:20:15Z</time>
      </trkpt>
      <trkpt lat="10.1500574" lon="-85.4391997">
        <ele>131.6</ele>
        <time>2022-10-06T20:20:16Z</time>
      </trkpt>
      <trkpt lat="10.1499208" lon="-85.4390595">
        <ele>131.4</ele>
        <time>2022-10-06T20:20:17Z</time>
      </trkpt>
      <trkpt lat="10.1497828" lon="-85.4389172">
        <ele>131.2</ele>
        <time>2022-10-06T20:20:18Z</time>
      </trkpt>
      <trkpt lat="10.1496460" lon="-85.4387766">
        <ele>131.1</ele>
        <time>2022-10-06T20:20:19Z</time>
      </trkpt>
      <trkpt lat="10.1495081" lon="-85.4386347">
        <ele>130.8</ele>
        <time>2022-10-06T20:20:20Z</time>
      </trkpt>
      <trkpt lat="10.1493700" lon="-85.4384937">
        <ele>130.5</ele>
        <time>2022-10-06T20:20:21Z</time>
      </trkpt>
      <trkpt lat="10.1492319" lon="-85.4383531">
        <ele>130.3</ele>
        <time>2022-10-06T20:20:22Z</time>
      </trkpt>
      <trkpt lat="10.1490934" lon="-85.4382128">
        <ele>130.1</ele>
        <time>2022-10-06T20:20:23Z</time>
      </trkpt>
      <trkpt lat="10.1489552" lon="-85.4380705">
        <ele>129.9</ele>
        <time>2022-10-06T20:20:24Z</time>
      </trkpt>
      <trkpt lat="10.1488177" lon="-85.4379285">
        <ele>129.6</ele>
        <time>2022-10-06T20:20:25Z</time>
      </trkpt>
      <trkpt lat="10.1486804" lon="-85.4377854">
        <ele>129.3</ele>
        <time>2022-10-06T20:20:26Z</time>
      </trkpt>
      <trkpt lat="10.1485420" lon="-85.4376416">
        <ele>129.1</ele>
        <time>2022-10-06T20:20:27Z</time>
      </trkpt>
      <trkpt lat="10.1484046" lon="-85.4374987">
        <ele>128.9</ele>
        <time>2022-10-06T20:20:28Z</time>
      </trkpt>
      <trkpt lat="10.1482661" lon="-85.4373568">
        <ele>128.7</ele>
        <time>2022-10-06T20:20:29Z</time>
      </trkpt>
      <trkpt lat="10.1481276" lon="-85.4372163">
        <ele>128.4</ele>
        <time>2022-10-06T20:20:30Z</time>
      </trkpt>
      <trkpt lat="10.1479891" lon="-85.4370747">
        <ele>128.2</ele>
        <time>2022-10-06T20:20:31Z</time>
      </trkpt>
      <trkpt lat="10.1478513" lon="-85.4369317">
        <ele>128.0</ele>
        <time>2022-10-06T20:20:32Z</time>
      </trkpt>
      <trkpt lat="10.1477127" lon="-85.4367891">
        <ele>127.9</ele>
        <time>2022-10-06T20:20:33Z</time>
      </trkpt>
      <trkpt lat="10.1475748" lon="-85.4366457">
        <ele>127.7</ele>
        <time>2022-10-06T20:20:34Z</time>
      </trkpt>
      <trkpt lat="10.1474355" lon="-85.4365031">
        <ele>127.6</ele>
        <time>2022-10-06T20:20:35Z</time>
      </trkpt>
      <trkpt lat="10.1472973" lon="-85.4363614">
        <ele>127.4</ele>
        <time>2022-10-06T20:20:36Z</time>
      </trkpt>
      <trkpt lat="10.1471576" lon="-85.4362195">
        <ele>127.2</ele>
        <time>2022-10-06T20:20:37Z</time>
      </trkpt>
      <trkpt lat="10.1470187" lon="-85.4360783">
        <ele>127.0</ele>
        <time>2022-10-06T20:20:38Z</time>
      </trkpt>
      <trkpt lat="10.1468791" lon="-85.4359372">
        <ele>126.8</ele>
        <time>2022-10-06T20:20:39Z</time>
      </trkpt>
      <trkpt lat="10.1467409" lon="-85.4357943">
        <ele>126.6</ele>
        <time>2022-10-06T20:20:40Z</time>
      </trkpt>
      <trkpt lat="10.1466036" lon="-85.4356524">
        <ele>126.4</ele>
        <time>2022-10-06T20:20:41Z</time>
      </trkpt>
      <trkpt lat="10.1464658" lon="-85.4355088">
        <ele>126.2</ele>
        <time>2022-10-06T20:20:42Z</time>
      </trkpt>
      <trkpt lat="10.1463281" lon="-85.4353666">
        <ele>126.0</ele>
        <time>2022-10-06T20:20:43Z</time>
      </trkpt>
      <trkpt lat="10.1461892" lon="-85.4352239">
        <ele>125.8</ele>
        <time>2022-10-06T20:20:44Z</time>
      </trkpt>
      <trkpt lat="10.1460505" lon="-85.4350803">
        <ele>125.5</ele>
        <time>2022-10-06T20:20:45Z</time>
      </trkpt>
      <trkpt lat="10.1459128" lon="-85.4349378">
        <ele>125.3</ele>
        <time>2022-10-06T20:20:46Z</time>
      </trkpt>
      <trkpt lat="10.1457760" lon="-85.4347958">
        <ele>125.2</ele>
        <time>2022-10-06T20:20:47Z</time>
      </trkpt>
      <trkpt lat="10.1456373" lon="-85.4346543">
        <ele>125.0</ele>
        <time>2022-10-06T20:20:48Z</time>
      </trkpt>
      <trkpt lat="10.1454991" lon="-85.4345144">
        <ele>124.8</ele>
        <time>2022-10-06T20:20:49Z</time>
      </trkpt>
      <trkpt lat="10.1453615" lon="-85.4343735">
        <ele>124.5</ele>
        <time>2022-10-06T20:20:50Z</time>
      </trkpt>
      <trkpt lat="10.1452246" lon="-85.4342290">
        <ele>124.4</ele>
        <time>2022-10-06T20:20:51Z</time>
      </trkpt>
      <trkpt lat="10.1450925" lon="-85.4340795">
        <ele>124.0</ele>
        <time>2022-10-06T20:20:52Z</time>
      </trkpt>
      <trkpt lat="10.1449693" lon="-85.4339226">
        <ele>123.6</ele>
        <time>2022-10-06T20:20:53Z</time>
      </trkpt>
      <trkpt lat="10.1448562" lon="-85.4337599">
        <ele>123.2</ele>
        <time>2022-10-06T20:20:54Z</time>
      </trkpt>
      <trkpt lat="10.1447510" lon="-85.4335914">
        <ele>122.8</ele>
        <time>2022-10-06T20:20:55Z</time>
      </trkpt>
      <trkpt lat="10.1446519" lon="-85.4334203">
        <ele>122.4</ele>
        <time>2022-10-06T20:20:56Z</time>
      </trkpt>
      <trkpt lat="10.1445565" lon="-85.4332465">
        <ele>121.9</ele>
        <time>2022-10-06T20:20:57Z</time>
      </trkpt>
      <trkpt lat="10.1444636" lon="-85.4330739">
        <ele>121.9</ele>
        <time>2022-10-06T20:20:58Z</time>
      </trkpt>
      <trkpt lat="10.1443721" lon="-85.4329001">
        <ele>121.5</ele>
        <time>2022-10-06T20:20:59Z</time>
      </trkpt>
      <trkpt lat="10.1442806" lon="-85.4327250">
        <ele>121.1</ele>
        <time>2022-10-06T20:21:00Z</time>
      </trkpt>
      <trkpt lat="10.1441892" lon="-85.4325507">
        <ele>120.6</ele>
        <time>2022-10-06T20:21:01Z</time>
      </trkpt>
      <trkpt lat="10.1440989" lon="-85.4323761">
        <ele>120.2</ele>
        <time>2022-10-06T20:21:02Z</time>
      </trkpt>
      <trkpt lat="10.1440090" lon="-85.4322005">
        <ele>119.7</ele>
        <time>2022-10-06T20:21:03Z</time>
      </trkpt>
      <trkpt lat="10.1439165" lon="-85.4320243">
        <ele>119.3</ele>
        <time>2022-10-06T20:21:04Z</time>
      </trkpt>
      <trkpt lat="10.1438255" lon="-85.4318502">
        <ele>119.0</ele>
        <time>2022-10-06T20:21:05Z</time>
      </trkpt>
      <trkpt lat="10.1437338" lon="-85.4316754">
        <ele>119.0</ele>
        <time>2022-10-06T20:21:06Z</time>
      </trkpt>
      <trkpt lat="10.1436418" lon="-85.4315022">
        <ele>118.8</ele>
        <time>2022-10-06T20:21:07Z</time>
      </trkpt>
      <trkpt lat="10.1435494" lon="-85.4313271">
        <ele>118.5</ele>
        <time>2022-10-06T20:21:08Z</time>
      </trkpt>
      <trkpt lat="10.1434568" lon="-85.4311542">
        <ele>118.6</ele>
        <time>2022-10-06T20:21:09Z</time>
      </trkpt>
      <trkpt lat="10.1433650" lon="-85.4309802">
        <ele>118.9</ele>
        <time>2022-10-06T20:21:10Z</time>
      </trkpt>
      <trkpt lat="10.1432730" lon="-85.4308103">
        <ele>118.9</ele>
        <time>2022-10-06T20:21:11Z</time>
      </trkpt>
      <trkpt lat="10.1431809" lon="-85.4306375">
        <ele>119.2</ele>
        <time>2022-10-06T20:21:12Z</time>
      </trkpt>
      <trkpt lat="10.1430876" lon="-85.4304617">
        <ele>119.2</ele>
        <time>2022-10-06T20:21:13Z</time>
      </trkpt>
      <trkpt lat="10.1429939" lon="-85.4302859">
        <ele>119.5</ele>
        <time>2022-10-06T20:21:14Z</time>
      </trkpt>
      <trkpt lat="10.1428999" lon="-85.4301127">
        <ele>119.9</ele>
        <time>2022-10-06T20:21:15Z</time>
      </trkpt>
      <trkpt lat="10.1428066" lon="-85.4299370">
        <ele>120.2</ele>
        <time>2022-10-06T20:21:16Z</time>
      </trkpt>
      <trkpt lat="10.1427131" lon="-85.4297586">
        <ele>120.4</ele>
        <time>2022-10-06T20:21:17Z</time>
      </trkpt>
      <trkpt lat="10.1426201" lon="-85.4295833">
        <ele>120.8</ele>
        <time>2022-10-06T20:21:18Z</time>
      </trkpt>
      <trkpt lat="10.1425277" lon="-85.4294087">
        <ele>121.1</ele>
        <time>2022-10-06T20:21:19Z</time>
      </trkpt>
      <trkpt lat="10.1424360" lon="-85.4292351">
        <ele>121.3</ele>
        <time>2022-10-06T20:21:20Z</time>
      </trkpt>
      <trkpt lat="10.1423431" lon="-85.4290615">
        <ele>121.5</ele>
        <time>2022-10-06T20:21:21Z</time>
      </trkpt>
      <trkpt lat="10.1422483" lon="-85.4288863">
        <ele>121.7</ele>
        <time>2022-10-06T20:21:22Z</time>
      </trkpt>
      <trkpt lat="10.1421544" lon="-85.4287099">
        <ele>121.9</ele>
        <time>2022-10-06T20:21:23Z</time>
      </trkpt>
      <trkpt lat="10.1420613" lon="-85.4285332">
        <ele>122.2</ele>
        <time>2022-10-06T20:21:24Z</time>
      </trkpt>
      <trkpt lat="10.1419690" lon="-85.4283572">
        <ele>122.6</ele>
        <time>2022-10-06T20:21:25Z</time>
      </trkpt>
      <trkpt lat="10.1418772" lon="-85.4281825">
        <ele>122.9</ele>
        <time>2022-10-06T20:21:26Z</time>
      </trkpt>
      <trkpt lat="10.1417848" lon="-85.4280104">
        <ele>122.9</ele>
        <time>2022-10-06T20:21:27Z</time>
      </trkpt>
      <trkpt lat="10.1416907" lon="-85.4278377">
        <ele>123.2</ele>
        <time>2022-10-06T20:21:28Z</time>
      </trkpt>
      <trkpt lat="10.1415980" lon="-85.4276623">
        <ele>123.5</ele>
        <time>2022-10-06T20:21:29Z</time>
      </trkpt>
      <trkpt lat="10.1415051" lon="-85.4274859">
        <ele>123.6</ele>
        <time>2022-10-06T20:21:30Z</time>
      </trkpt>
      <trkpt lat="10.1414110" lon="-85.4273108">
        <ele>124.2</ele>
        <time>2022-10-06T20:21:31Z</time>
      </trkpt>
      <trkpt lat="10.1413174" lon="-85.4271358">
        <ele>124.2</ele>
        <time>2022-10-06T20:21:32Z</time>
      </trkpt>
      <trkpt lat="10.1412241" lon="-85.4269615">
        <ele>124.4</ele>
        <time>2022-10-06T20:21:33Z</time>
      </trkpt>
      <trkpt lat="10.1411307" lon="-85.4267848">
        <ele>124.5</ele>
        <time>2022-10-06T20:21:34Z</time>
      </trkpt>
      <trkpt lat="10.1410368" lon="-85.4266079">
        <ele>124.3</ele>
        <time>2022-10-06T20:21:35Z</time>
      </trkpt>
      <trkpt lat="10.1409422" lon="-85.4264304">
        <ele>124.1</ele>
        <time>2022-10-06T20:21:36Z</time>
      </trkpt>
      <trkpt lat="10.1408491" lon="-85.4262537">
        <ele>124.1</ele>
        <time>2022-10-06T20:21:37Z</time>
      </trkpt>
      <trkpt lat="10.1407533" lon="-85.4260781">
        <ele>124.0</ele>
        <time>2022-10-06T20:21:38Z</time>
      </trkpt>
      <trkpt lat="10.1406597" lon="-85.4259020">
        <ele>123.8</ele>
        <time>2022-10-06T20:21:39Z</time>
      </trkpt>
      <trkpt lat="10.1405678" lon="-85.4257271">
        <ele>123.6</ele>
        <time>2022-10-06T20:21:40Z</time>
      </trkpt>
      <trkpt lat="10.1404747" lon="-85.4255526">
        <ele>123.4</ele>
        <time>2022-10-06T20:21:41Z</time>
      </trkpt>
      <trkpt lat="10.1403803" lon="-85.4253784">
        <ele>123.2</ele>
        <time>2022-10-06T20:21:42Z</time>
      </trkpt>
      <trkpt lat="10.1402864" lon="-85.4252034">
        <ele>123.3</ele>
        <time>2022-10-06T20:21:43Z</time>
      </trkpt>
      <trkpt lat="10.1401930" lon="-85.4250272">
        <ele>123.1</ele>
        <time>2022-10-06T20:21:44Z</time>
      </trkpt>
      <trkpt lat="10.1401003" lon="-85.4248534">
        <ele>122.9</ele>
        <time>2022-10-06T20:21:45Z</time>
      </trkpt>
      <trkpt lat="10.1400062" lon="-85.4246779">
        <ele>123.1</ele>
        <time>2022-10-06T20:21:46Z</time>
      </trkpt>
      <trkpt lat="10.1399155" lon="-85.4245014">
        <ele>123.1</ele>
        <time>2022-10-06T20:21:47Z</time>
      </trkpt>
      <trkpt lat="10.1398240" lon="-85.4243247">
        <ele>123.2</ele>
        <time>2022-10-06T20:21:48Z</time>
      </trkpt>
      <trkpt lat="10.1397311" lon="-85.4241501">
        <ele>123.4</ele>
        <time>2022-10-06T20:21:49Z</time>
      </trkpt>
      <trkpt lat="10.1396409" lon="-85.4239762">
        <ele>123.7</ele>
        <time>2022-10-06T20:21:50Z</time>
      </trkpt>
      <trkpt lat="10.1395492" lon="-85.4238021">
        <ele>124.1</ele>
        <time>2022-10-06T20:21:51Z</time>
      </trkpt>
      <trkpt lat="10.1394574" lon="-85.4236300">
        <ele>124.6</ele>
        <time>2022-10-06T20:21:52Z</time>
      </trkpt>
      <trkpt lat="10.1393665" lon="-85.4234561">
        <ele>124.9</ele>
        <time>2022-10-06T20:21:53Z</time>
      </trkpt>
      <trkpt lat="10.1392782" lon="-85.4232904">
        <ele>125.2</ele>
        <time>2022-10-06T20:21:54Z</time>
      </trkpt>
      <trkpt lat="10.1391944" lon="-85.4231354">
        <ele>125.6</ele>
        <time>2022-10-06T20:21:55Z</time>
      </trkpt>
      <trkpt lat="10.1391166" lon="-85.4229922">
        <ele>125.9</ele>
        <time>2022-10-06T20:21:56Z</time>
      </trkpt>
      <trkpt lat="10.1390425" lon="-85.4228528">
        <ele>126.2</ele>
        <time>2022-10-06T20:21:57Z</time>
      </trkpt>
      <trkpt lat="10.1389715" lon="-85.4227170">
        <ele>126.5</ele>
        <time>2022-10-06T20:21:58Z</time>
      </trkpt>
      <trkpt lat="10.1389013" lon="-85.4225834">
        <ele>126.8</ele>
        <time>2022-10-06T20:21:59Z</time>
      </trkpt>
      <trkpt lat="10.1388308" lon="-85.4224533">
        <ele>127.1</ele>
        <time>2022-10-06T20:22:00Z</time>
      </trkpt>
      <trkpt lat="10.1387627" lon="-85.4223283">
        <ele>127.3</ele>
        <time>2022-10-06T20:22:01Z</time>
      </trkpt>
      <trkpt lat="10.1386959" lon="-85.4222058">
        <ele>127.6</ele>
        <time>2022-10-06T20:22:02Z</time>
      </trkpt>
      <trkpt lat="10.1386322" lon="-85.4220870">
        <ele>127.9</ele>
        <time>2022-10-06T20:22:03Z</time>
      </trkpt>
      <trkpt lat="10.1385697" lon="-85.4219703">
        <ele>128.5</ele>
        <time>2022-10-06T20:22:04Z</time>
      </trkpt>
      <trkpt lat="10.1385090" lon="-85.4218560">
        <ele>128.5</ele>
        <time>2022-10-06T20:22:05Z</time>
      </trkpt>
      <trkpt lat="10.1384484" lon="-85.4217422">
        <ele>128.3</ele>
        <time>2022-10-06T20:22:06Z</time>
      </trkpt>
      <trkpt lat="10.1383890" lon="-85.4216305">
        <ele>128.4</ele>
        <time>2022-10-06T20:22:07Z</time>
      </trkpt>
      <trkpt lat="10.1383296" lon="-85.4215189">
        <ele>128.4</ele>
        <time>2022-10-06T20:22:08Z</time>
      </trkpt>
      <trkpt lat="10.1382683" lon="-85.4214024">
        <ele>128.4</ele>
        <time>2022-10-06T20:22:09Z</time>
      </trkpt>
      <trkpt lat="10.1382067" lon="-85.4212843">
        <ele>128.5</ele>
        <time>2022-10-06T20:22:10Z</time>
      </trkpt>
      <trkpt lat="10.1381436" lon="-85.4211644">
        <ele>128.5</ele>
        <time>2022-10-06T20:22:11Z</time>
      </trkpt>
      <trkpt lat="10.1380798" lon="-85.4210444">
        <ele>128.6</ele>
        <time>2022-10-06T20:22:12Z</time>
      </trkpt>
      <trkpt lat="10.1380151" lon="-85.4209245">
        <ele>128.6</ele>
        <time>2022-10-06T20:22:13Z</time>
      </trkpt>
      <trkpt lat="10.1379506" lon="-85.4208035">
        <ele>128.6</ele>
        <time>2022-10-06T20:22:14Z</time>
      </trkpt>
      <trkpt lat="10.1378878" lon="-85.4206843">
        <ele>128.5</ele>
        <time>2022-10-06T20:22:15Z</time>
      </trkpt>
      <trkpt lat="10.1378280" lon="-85.4205740">
        <ele>128.3</ele>
        <time>2022-10-06T20:22:16Z</time>
      </trkpt>
      <trkpt lat="10.1377705" lon="-85.4204660">
        <ele>128.1</ele>
        <time>2022-10-06T20:22:17Z</time>
      </trkpt>
      <trkpt lat="10.1377120" lon="-85.4203522">
        <ele>127.8</ele>
        <time>2022-10-06T20:22:18Z</time>
      </trkpt>
      <trkpt lat="10.1376557" lon="-85.4202292">
        <ele>127.7</ele>
        <time>2022-10-06T20:22:19Z</time>
      </trkpt>
      <trkpt lat="10.1375948" lon="-85.4201007">
        <ele>127.5</ele>
        <time>2022-10-06T20:22:20Z</time>
      </trkpt>
      <trkpt lat="10.1375278" lon="-85.4199626">
        <ele>127.3</ele>
        <time>2022-10-06T20:22:21Z</time>
      </trkpt>
      <trkpt lat="10.1374545" lon="-85.4198167">
        <ele>127.4</ele>
        <time>2022-10-06T20:22:22Z</time>
      </trkpt>
      <trkpt lat="10.1373783" lon="-85.4196693">
        <ele>127.1</ele>
        <time>2022-10-06T20:22:23Z</time>
      </trkpt>
      <trkpt lat="10.1372978" lon="-85.4195212">
        <ele>126.9</ele>
        <time>2022-10-06T20:22:24Z</time>
      </trkpt>
      <trkpt lat="10.1372155" lon="-85.4193738">
        <ele>126.7</ele>
        <time>2022-10-06T20:22:25Z</time>
      </trkpt>
      <trkpt lat="10.1371392" lon="-85.4192389">
        <ele>126.8</ele>
        <time>2022-10-06T20:22:26Z</time>
      </trkpt>
      <trkpt lat="10.1370641" lon="-85.4191090">
        <ele>126.7</ele>
        <time>2022-10-06T20:22:27Z</time>
      </trkpt>
      <trkpt lat="10.1369971" lon="-85.4189895">
        <ele>126.5</ele>
        <time>2022-10-06T20:22:28Z</time>
      </trkpt>
      <trkpt lat="10.1369322" lon="-85.4188742">
        <ele>126.2</ele>
        <time>2022-10-06T20:22:29Z</time>
      </trkpt>
      <trkpt lat="10.1368724" lon="-85.4187667">
        <ele>126.0</ele>
        <time>2022-10-06T20:22:30Z</time>
      </trkpt>
      <trkpt lat="10.1368184" lon="-85.4186647">
        <ele>125.7</ele>
        <time>2022-10-06T20:22:31Z</time>
      </trkpt>
      <trkpt lat="10.1367654" lon="-85.4185669">
        <ele>125.6</ele>
        <time>2022-10-06T20:22:32Z</time>
      </trkpt>
      <trkpt lat="10.1367150" lon="-85.4184720">
        <ele>125.5</ele>
        <time>2022-10-06T20:22:33Z</time>
      </trkpt>
      <trkpt lat="10.1366643" lon="-85.4183752">
        <ele>125.4</ele>
        <time>2022-10-06T20:22:34Z</time>
      </trkpt>
      <trkpt lat="10.1366125" lon="-85.4182772">
        <ele>125.4</ele>
        <time>2022-10-06T20:22:35Z</time>
      </trkpt>
      <trkpt lat="10.1365576" lon="-85.4181727">
        <ele>125.4</ele>
        <time>2022-10-06T20:22:36Z</time>
      </trkpt>
      <trkpt lat="10.1365007" lon="-85.4180672">
        <ele>125.4</ele>
        <time>2022-10-06T20:22:37Z</time>
      </trkpt>
      <trkpt lat="10.1364403" lon="-85.4179561">
        <ele>125.4</ele>
        <time>2022-10-06T20:22:38Z</time>
      </trkpt>
      <trkpt lat="10.1363802" lon="-85.4178448">
        <ele>125.4</ele>
        <time>2022-10-06T20:22:39Z</time>
      </trkpt>
      <trkpt lat="10.1363190" lon="-85.4177333">
        <ele>125.5</ele>
        <time>2022-10-06T20:22:40Z</time>
      </trkpt>
      <trkpt lat="10.1362563" lon="-85.4176172">
        <ele>125.7</ele>
        <time>2022-10-06T20:22:41Z</time>
      </trkpt>
      <trkpt lat="10.1361929" lon="-85.4174989">
        <ele>125.9</ele>
        <time>2022-10-06T20:22:42Z</time>
      </trkpt>
      <trkpt lat="10.1361303" lon="-85.4173789">
        <ele>126.0</ele>
        <time>2022-10-06T20:22:43Z</time>
      </trkpt>
      <trkpt lat="10.1360635" lon="-85.4172538">
        <ele>126.2</ele>
        <time>2022-10-06T20:22:44Z</time>
      </trkpt>
      <trkpt lat="10.1359963" lon="-85.4171291">
        <ele>126.2</ele>
        <time>2022-10-06T20:22:45Z</time>
      </trkpt>
      <trkpt lat="10.1359281" lon="-85.4170019">
        <ele>126.3</ele>
        <time>2022-10-06T20:22:46Z</time>
      </trkpt>
      <trkpt lat="10.1358607" lon="-85.4168758">
        <ele>126.3</ele>
        <time>2022-10-06T20:22:47Z</time>
      </trkpt>
      <trkpt lat="10.1357940" lon="-85.4167509">
        <ele>126.5</ele>
        <time>2022-10-06T20:22:48Z</time>
      </trkpt>
      <trkpt lat="10.1357271" lon="-85.4166247">
        <ele>126.8</ele>
        <time>2022-10-06T20:22:49Z</time>
      </trkpt>
      <trkpt lat="10.1356614" lon="-85.4165003">
        <ele>126.9</ele>
        <time>2022-10-06T20:22:50Z</time>
      </trkpt>
      <trkpt lat="10.1355958" lon="-85.4163765">
        <ele>127.1</ele>
        <time>2022-10-06T20:22:51Z</time>
      </trkpt>
      <trkpt lat="10.1355297" lon="-85.4162535">
        <ele>127.2</ele>
        <time>2022-10-06T20:22:52Z</time>
      </trkpt>
      <trkpt lat="10.1354638" lon="-85.4161312">
        <ele>127.3</ele>
        <time>2022-10-06T20:22:53Z</time>
      </trkpt>
      <trkpt lat="10.1353977" lon="-85.4160061">
        <ele>127.3</ele>
        <time>2022-10-06T20:22:54Z</time>
      </trkpt>
      <trkpt lat="10.1353305" lon="-85.4158842">
        <ele>127.4</ele>
        <time>2022-10-06T20:22:55Z</time>
      </trkpt>
      <trkpt lat="10.1352638" lon="-85.4157606">
        <ele>127.3</ele>
        <time>2022-10-06T20:22:56Z</time>
      </trkpt>
      <trkpt lat="10.1351985" lon="-85.4156398">
        <ele>127.4</ele>
        <time>2022-10-06T20:22:57Z</time>
      </trkpt>
      <trkpt lat="10.1351344" lon="-85.4155203">
        <ele>127.3</ele>
        <time>2022-10-06T20:22:58Z</time>
      </trkpt>
      <trkpt lat="10.1350717" lon="-85.4154011">
        <ele>127.1</ele>
        <time>2022-10-06T20:22:59Z</time>
      </trkpt>
      <trkpt lat="10.1350096" lon="-85.4152812">
        <ele>127.0</ele>
        <time>2022-10-06T20:23:00Z</time>
      </trkpt>
      <trkpt lat="10.1349456" lon="-85.4151618">
        <ele>126.7</ele>
        <time>2022-10-06T20:23:01Z</time>
      </trkpt>
      <trkpt lat="10.1348816" lon="-85.4150426">
        <ele>126.4</ele>
        <time>2022-10-06T20:23:02Z</time>
      </trkpt>
      <trkpt lat="10.1348197" lon="-85.4149249">
        <ele>126.2</ele>
        <time>2022-10-06T20:23:03Z</time>
      </trkpt>
      <trkpt lat="10.1347589" lon="-85.4148067">
        <ele>125.9</ele>
        <time>2022-10-06T20:23:04Z</time>
      </trkpt>
      <trkpt lat="10.1346942" lon="-85.4146829">
        <ele>125.7</ele>
        <time>2022-10-06T20:23:05Z</time>
      </trkpt>
      <trkpt lat="10.1346294" lon="-85.4145587">
        <ele>125.8</ele>
        <time>2022-10-06T20:23:06Z</time>
      </trkpt>
      <trkpt lat="10.1345643" lon="-85.4144337">
        <ele>126.0</ele>
        <time>2022-10-06T20:23:07Z</time>
      </trkpt>
      <trkpt lat="10.1344980" lon="-85.4143066">
        <ele>125.6</ele>
        <time>2022-10-06T20:23:08Z</time>
      </trkpt>
      <trkpt lat="10.1344316" lon="-85.4141822">
        <ele>125.7</ele>
        <time>2022-10-06T20:23:09Z</time>
      </trkpt>
      <trkpt lat="10.1343656" lon="-85.4140552">
        <ele>125.4</ele>
        <time>2022-10-06T20:23:10Z</time>
      </trkpt>
      <trkpt lat="10.1342986" lon="-85.4139257">
        <ele>125.1</ele>
        <time>2022-10-06T20:23:11Z</time>
      </trkpt>
      <trkpt lat="10.1342284" lon="-85.4137972">
        <ele>124.8</ele>
        <time>2022-10-06T20:23:12Z</time>
      </trkpt>
      <trkpt lat="10.1341572" lon="-85.4136656">
        <ele>124.5</ele>
        <time>2022-10-06T20:23:13Z</time>
      </trkpt>
      <trkpt lat="10.1340851" lon="-85.4135306">
        <ele>124.3</ele>
        <time>2022-10-06T20:23:14Z</time>
      </trkpt>
      <trkpt lat="10.1340110" lon="-85.4133956">
        <ele>124.3</ele>
        <time>2022-10-06T20:23:15Z</time>
      </trkpt>
      <trkpt lat="10.1339368" lon="-85.4132587">
        <ele>124.2</ele>
        <time>2022-10-06T20:23:16Z</time>
      </trkpt>
      <trkpt lat="10.1338646" lon="-85.4131227">
        <ele>124.0</ele>
        <time>2022-10-06T20:23:17Z</time>
      </trkpt>
      <trkpt lat="10.1337916" lon="-85.4129848">
        <ele>124.0</ele>
        <time>2022-10-06T20:23:18Z</time>
      </trkpt>
      <trkpt lat="10.1337219" lon="-85.4128511">
        <ele>124.0</ele>
        <time>2022-10-06T20:23:19Z</time>
      </trkpt>
      <trkpt lat="10.1336533" lon="-85.4127215">
        <ele>124.0</ele>
        <time>2022-10-06T20:23:20Z</time>
      </trkpt>
      <trkpt lat="10.1335839" lon="-85.4125905">
        <ele>124.0</ele>
        <time>2022-10-06T20:23:21Z</time>
      </trkpt>
      <trkpt lat="10.1335145" lon="-85.4124606">
        <ele>124.0</ele>
        <time>2022-10-06T20:23:22Z</time>
      </trkpt>
      <trkpt lat="10.1334452" lon="-85.4123312">
        <ele>124.4</ele>
        <time>2022-10-06T20:23:23Z</time>
      </trkpt>
      <trkpt lat="10.1333761" lon="-85.4122020">
        <ele>124.4</ele>
        <time>2022-10-06T20:23:24Z</time>
      </trkpt>
      <trkpt lat="10.1333061" lon="-85.4120730">
        <ele>124.2</ele>
        <time>2022-10-06T20:23:25Z</time>
      </trkpt>
      <trkpt lat="10.1332363" lon="-85.4119433">
        <ele>124.5</ele>
        <time>2022-10-06T20:23:26Z</time>
      </trkpt>
      <trkpt lat="10.1331679" lon="-85.4118133">
        <ele>124.7</ele>
        <time>2022-10-06T20:23:27Z</time>
      </trkpt>
      <trkpt lat="10.1331007" lon="-85.4116863">
        <ele>124.8</ele>
        <time>2022-10-06T20:23:28Z</time>
      </trkpt>
      <trkpt lat="10.1330337" lon="-85.4115638">
        <ele>124.9</ele>
        <time>2022-10-06T20:23:29Z</time>
      </trkpt>
      <trkpt lat="10.1329687" lon="-85.4114418">
        <ele>125.0</ele>
        <time>2022-10-06T20:23:30Z</time>
      </trkpt>
      <trkpt lat="10.1329041" lon="-85.4113188">
        <ele>125.2</ele>
        <time>2022-10-06T20:23:31Z</time>
      </trkpt>
      <trkpt lat="10.1328386" lon="-85.4111953">
        <ele>125.3</ele>
        <time>2022-10-06T20:23:32Z</time>
      </trkpt>
      <trkpt lat="10.1327746" lon="-85.4110728">
        <ele>125.4</ele>
        <time>2022-10-06T20:23:33Z</time>
      </trkpt>
      <trkpt lat="10.1327088" lon="-85.4109519">
        <ele>125.5</ele>
        <time>2022-10-06T20:23:34Z</time>
      </trkpt>
      <trkpt lat="10.1326447" lon="-85.4108338">
        <ele>125.6</ele>
        <time>2022-10-06T20:23:35Z</time>
      </trkpt>
      <trkpt lat="10.1325835" lon="-85.4107162">
        <ele>125.5</ele>
        <time>2022-10-06T20:23:36Z</time>
      </trkpt>
      <trkpt lat="10.1325189" lon="-85.4105960">
        <ele>125.5</ele>
        <time>2022-10-06T20:23:37Z</time>
      </trkpt>
      <trkpt lat="10.1324547" lon="-85.4104782">
        <ele>125.6</ele>
        <time>2022-10-06T20:23:38Z</time>
      </trkpt>
      <trkpt lat="10.1323897" lon="-85.4103581">
        <ele>125.5</ele>
        <time>2022-10-06T20:23:39Z</time>
      </trkpt>
      <trkpt lat="10.1323250" lon="-85.4102350">
        <ele>125.7</ele>
        <time>2022-10-06T20:23:40Z</time>
      </trkpt>
      <trkpt lat="10.1322576" lon="-85.4101068">
        <ele>125.9</ele>
        <time>2022-10-06T20:23:41Z</time>
      </trkpt>
      <trkpt lat="10.1321896" lon="-85.4099756">
        <ele>126.1</ele>
        <time>2022-10-06T20:23:42Z</time>
      </trkpt>
      <trkpt lat="10.1321213" lon="-85.4098457">
        <ele>126.2</ele>
        <time>2022-10-06T20:23:43Z</time>
      </trkpt>
      <trkpt lat="10.1320525" lon="-85.4097165">
        <ele>126.3</ele>
        <time>2022-10-06T20:23:44Z</time>
      </trkpt>
      <trkpt lat="10.1319854" lon="-85.4095888">
        <ele>126.3</ele>
        <time>2022-10-06T20:23:45Z</time>
      </trkpt>
      <trkpt lat="10.1319186" lon="-85.4094619">
        <ele>126.3</ele>
        <time>2022-10-06T20:23:46Z</time>
      </trkpt>
      <trkpt lat="10.1318530" lon="-85.4093366">
        <ele>126.3</ele>
        <time>2022-10-06T20:23:47Z</time>
      </trkpt>
      <trkpt lat="10.1317879" lon="-85.4092135">
        <ele>126.1</ele>
        <time>2022-10-06T20:23:48Z</time>
      </trkpt>
      <trkpt lat="10.1317250" lon="-85.4090923">
        <ele>126.0</ele>
        <time>2022-10-06T20:23:49Z</time>
      </trkpt>
      <trkpt lat="10.1316638" lon="-85.4089752">
        <ele>125.7</ele>
        <time>2022-10-06T20:23:50Z</time>
      </trkpt>
      <trkpt lat="10.1316013" lon="-85.4088579">
        <ele>125.5</ele>
        <time>2022-10-06T20:23:51Z</time>
      </trkpt>
      <trkpt lat="10.1315381" lon="-85.4087397">
        <ele>125.2</ele>
        <time>2022-10-06T20:23:52Z</time>
      </trkpt>
      <trkpt lat="10.1314761" lon="-85.4086237">
        <ele>124.9</ele>
        <time>2022-10-06T20:23:53Z</time>
      </trkpt>
      <trkpt lat="10.1314123" lon="-85.4085067">
        <ele>125.0</ele>
        <time>2022-10-06T20:23:54Z</time>
      </trkpt>
      <trkpt lat="10.1313490" lon="-85.4083859">
        <ele>124.8</ele>
        <time>2022-10-06T20:23:55Z</time>
      </trkpt>
      <trkpt lat="10.1312855" lon="-85.4082648">
        <ele>124.4</ele>
        <time>2022-10-06T20:23:56Z</time>
      </trkpt>
      <trkpt lat="10.1312195" lon="-85.4081419">
        <ele>124.1</ele>
        <time>2022-10-06T20:23:57Z</time>
      </trkpt>
      <trkpt lat="10.1311521" lon="-85.4080146">
        <ele>123.7</ele>
        <time>2022-10-06T20:23:58Z</time>
      </trkpt>
      <trkpt lat="10.1310851" lon="-85.4078864">
        <ele>123.5</ele>
        <time>2022-10-06T20:23:59Z</time>
      </trkpt>
      <trkpt lat="10.1310179" lon="-85.4077572">
        <ele>123.1</ele>
        <time>2022-10-06T20:24:00Z</time>
      </trkpt>
      <trkpt lat="10.1309512" lon="-85.4076295">
        <ele>123.3</ele>
        <time>2022-10-06T20:24:01Z</time>
      </trkpt>
      <trkpt lat="10.1308834" lon="-85.4075013">
        <ele>122.9</ele>
        <time>2022-10-06T20:24:02Z</time>
      </trkpt>
      <trkpt lat="10.1308150" lon="-85.4073705">
        <ele>122.7</ele>
        <time>2022-10-06T20:24:03Z</time>
      </trkpt>
      <trkpt lat="10.1307483" lon="-85.4072425">
        <ele>122.6</ele>
        <time>2022-10-06T20:24:04Z</time>
      </trkpt>
      <trkpt lat="10.1306800" lon="-85.4071129">
        <ele>122.6</ele>
        <time>2022-10-06T20:24:05Z</time>
      </trkpt>
      <trkpt lat="10.1306081" lon="-85.4069818">
        <ele>122.8</ele>
        <time>2022-10-06T20:24:06Z</time>
      </trkpt>
      <trkpt lat="10.1305363" lon="-85.4068502">
        <ele>122.8</ele>
        <time>2022-10-06T20:24:07Z</time>
      </trkpt>
      <trkpt lat="10.1304637" lon="-85.4067189">
        <ele>122.7</ele>
        <time>2022-10-06T20:24:08Z</time>
      </trkpt>
      <trkpt lat="10.1303932" lon="-85.4065850">
        <ele>122.0</ele>
        <time>2022-10-06T20:24:09Z</time>
      </trkpt>
      <trkpt lat="10.1303242" lon="-85.4064502">
        <ele>121.7</ele>
        <time>2022-10-06T20:24:10Z</time>
      </trkpt>
      <trkpt lat="10.1302534" lon="-85.4063161">
        <ele>121.3</ele>
        <time>2022-10-06T20:24:11Z</time>
      </trkpt>
      <trkpt lat="10.1301834" lon="-85.4061806">
        <ele>120.9</ele>
        <time>2022-10-06T20:24:12Z</time>
      </trkpt>
      <trkpt lat="10.1301111" lon="-85.4060449">
        <ele>120.5</ele>
        <time>2022-10-06T20:24:13Z</time>
      </trkpt>
      <trkpt lat="10.1300385" lon="-85.4059066">
        <ele>120.2</ele>
        <time>2022-10-06T20:24:14Z</time>
      </trkpt>
      <trkpt lat="10.1299635" lon="-85.4057664">
        <ele>120.2</ele>
        <time>2022-10-06T20:24:15Z</time>
      </trkpt>
      <trkpt lat="10.1298874" lon="-85.4056277">
        <ele>120.2</ele>
        <time>2022-10-06T20:24:16Z</time>
      </trkpt>
      <trkpt lat="10.1298143" lon="-85.4054888">
        <ele>120.2</ele>
        <time>2022-10-06T20:24:17Z</time>
      </trkpt>
      <trkpt lat="10.1297429" lon="-85.4053520">
        <ele>120.5</ele>
        <time>2022-10-06T20:24:18Z</time>
      </trkpt>
      <trkpt lat="10.1296693" lon="-85.4052149">
        <ele>120.4</ele>
        <time>2022-10-06T20:24:19Z</time>
      </trkpt>
      <trkpt lat="10.1295963" lon="-85.4050800">
        <ele>120.4</ele>
        <time>2022-10-06T20:24:20Z</time>
      </trkpt>
      <trkpt lat="10.1295235" lon="-85.4049443">
        <ele>120.6</ele>
        <time>2022-10-06T20:24:21Z</time>
      </trkpt>
      <trkpt lat="10.1294500" lon="-85.4048104">
        <ele>120.5</ele>
        <time>2022-10-06T20:24:22Z</time>
      </trkpt>
      <trkpt lat="10.1293772" lon="-85.4046762">
        <ele>120.7</ele>
        <time>2022-10-06T20:24:23Z</time>
      </trkpt>
      <trkpt lat="10.1293085" lon="-85.4045455">
        <ele>120.9</ele>
        <time>2022-10-06T20:24:24Z</time>
      </trkpt>
      <trkpt lat="10.1292387" lon="-85.4044181">
        <ele>121.1</ele>
        <time>2022-10-06T20:24:25Z</time>
      </trkpt>
      <trkpt lat="10.1291720" lon="-85.4042946">
        <ele>121.4</ele>
        <time>2022-10-06T20:24:26Z</time>
      </trkpt>
      <trkpt lat="10.1291047" lon="-85.4041706">
        <ele>121.7</ele>
        <time>2022-10-06T20:24:27Z</time>
      </trkpt>
      <trkpt lat="10.1290379" lon="-85.4040473">
        <ele>121.9</ele>
        <time>2022-10-06T20:24:28Z</time>
      </trkpt>
      <trkpt lat="10.1289703" lon="-85.4039222">
        <ele>122.0</ele>
        <time>2022-10-06T20:24:29Z</time>
      </trkpt>
      <trkpt lat="10.1289018" lon="-85.4037959">
        <ele>122.3</ele>
        <time>2022-10-06T20:24:30Z</time>
      </trkpt>
      <trkpt lat="10.1288363" lon="-85.4036747">
        <ele>122.3</ele>
        <time>2022-10-06T20:24:31Z</time>
      </trkpt>
      <trkpt lat="10.1287715" lon="-85.4035555">
        <ele>122.8</ele>
        <time>2022-10-06T20:24:32Z</time>
      </trkpt>
      <trkpt lat="10.1287035" lon="-85.4034358">
        <ele>123.1</ele>
        <time>2022-10-06T20:24:33Z</time>
      </trkpt>
      <trkpt lat="10.1286337" lon="-85.4033116">
        <ele>123.1</ele>
        <time>2022-10-06T20:24:34Z</time>
      </trkpt>
      <trkpt lat="10.1285648" lon="-85.4031873">
        <ele>123.2</ele>
        <time>2022-10-06T20:24:35Z</time>
      </trkpt>
      <trkpt lat="10.1284950" lon="-85.4030614">
        <ele>123.4</ele>
        <time>2022-10-06T20:24:36Z</time>
      </trkpt>
      <trkpt lat="10.1284246" lon="-85.4029350">
        <ele>123.4</ele>
        <time>2022-10-06T20:24:37Z</time>
      </trkpt>
      <trkpt lat="10.1283527" lon="-85.4028126">
        <ele>124.1</ele>
        <time>2022-10-06T20:24:38Z</time>
      </trkpt>
      <trkpt lat="10.1282828" lon="-85.4026905">
        <ele>124.2</ele>
        <time>2022-10-06T20:24:39Z</time>
      </trkpt>
      <trkpt lat="10.1282132" lon="-85.4025655">
        <ele>124.6</ele>
        <time>2022-10-06T20:24:40Z</time>
      </trkpt>
      <trkpt lat="10.1281436" lon="-85.4024389">
        <ele>125.1</ele>
        <time>2022-10-06T20:24:41Z</time>
      </trkpt>
      <trkpt lat="10.1280717" lon="-85.4023141">
        <ele>125.3</ele>
        <time>2022-10-06T20:24:42Z</time>
      </trkpt>
      <trkpt lat="10.1280004" lon="-85.4021897">
        <ele>125.4</ele>
        <time>2022-10-06T20:24:43Z</time>
      </trkpt>
      <trkpt lat="10.1279304" lon="-85.4020661">
        <ele>125.5</ele>
        <time>2022-10-06T20:24:44Z</time>
      </trkpt>
      <trkpt lat="10.1278589" lon="-85.4019450">
        <ele>125.5</ele>
        <time>2022-10-06T20:24:45Z</time>
      </trkpt>
      <trkpt lat="10.1277910" lon="-85.4018266">
        <ele>125.6</ele>
        <time>2022-10-06T20:24:46Z</time>
      </trkpt>
      <trkpt lat="10.1277255" lon="-85.4017105">
        <ele>126.0</ele>
        <time>2022-10-06T20:24:47Z</time>
      </trkpt>
      <trkpt lat="10.1276639" lon="-85.4016027">
        <ele>126.2</ele>
        <time>2022-10-06T20:24:48Z</time>
      </trkpt>
      <trkpt lat="10.1276019" lon="-85.4014955">
        <ele>126.4</ele>
        <time>2022-10-06T20:24:49Z</time>
      </trkpt>
      <trkpt lat="10.1275425" lon="-85.4013889">
        <ele>126.3</ele>
        <time>2022-10-06T20:24:50Z</time>
      </trkpt>
      <trkpt lat="10.1274826" lon="-85.4012819">
        <ele>126.3</ele>
        <time>2022-10-06T20:24:51Z</time>
      </trkpt>
      <trkpt lat="10.1274190" lon="-85.4011722">
        <ele>126.1</ele>
        <time>2022-10-06T20:24:52Z</time>
      </trkpt>
      <trkpt lat="10.1273567" lon="-85.4010629">
        <ele>126.1</ele>
        <time>2022-10-06T20:24:53Z</time>
      </trkpt>
      <trkpt lat="10.1272953" lon="-85.4009521">
        <ele>126.0</ele>
        <time>2022-10-06T20:24:54Z</time>
      </trkpt>
      <trkpt lat="10.1272327" lon="-85.4008405">
        <ele>126.1</ele>
        <time>2022-10-06T20:24:55Z</time>
      </trkpt>
      <trkpt lat="10.1271692" lon="-85.4007254">
        <ele>126.2</ele>
        <time>2022-10-06T20:24:56Z</time>
      </trkpt>
      <trkpt lat="10.1271008" lon="-85.4006086">
        <ele>126.5</ele>
        <time>2022-10-06T20:24:57Z</time>
      </trkpt>
      <trkpt lat="10.1270303" lon="-85.4004838">
        <ele>126.4</ele>
        <time>2022-10-06T20:24:58Z</time>
      </trkpt>
      <trkpt lat="10.1269586" lon="-85.4003571">
        <ele>125.4</ele>
        <time>2022-10-06T20:24:59Z</time>
      </trkpt>
      <trkpt lat="10.1268833" lon="-85.4002211">
        <ele>124.8</ele>
        <time>2022-10-06T20:25:00Z</time>
      </trkpt>
      <trkpt lat="10.1268088" lon="-85.4000883">
        <ele>124.8</ele>
        <time>2022-10-06T20:25:01Z</time>
      </trkpt>
      <trkpt lat="10.1267308" lon="-85.3999528">
        <ele>124.4</ele>
        <time>2022-10-06T20:25:02Z</time>
      </trkpt>
      <trkpt lat="10.1266558" lon="-85.3998171">
        <ele>123.5</ele>
        <time>2022-10-06T20:25:03Z</time>
      </trkpt>
      <trkpt lat="10.1265799" lon="-85.3996825">
        <ele>123.2</ele>
        <time>2022-10-06T20:25:04Z</time>
      </trkpt>
      <trkpt lat="10.1265026" lon="-85.3995444">
        <ele>122.7</ele>
        <time>2022-10-06T20:25:05Z</time>
      </trkpt>
      <trkpt lat="10.1264246" lon="-85.3994012">
        <ele>122.2</ele>
        <time>2022-10-06T20:25:06Z</time>
      </trkpt>
      <trkpt lat="10.1263489" lon="-85.3992563">
        <ele>122.0</ele>
        <time>2022-10-06T20:25:07Z</time>
      </trkpt>
      <trkpt lat="10.1262776" lon="-85.3991103">
        <ele>121.7</ele>
        <time>2022-10-06T20:25:08Z</time>
      </trkpt>
      <trkpt lat="10.1262098" lon="-85.3989589">
        <ele>121.0</ele>
        <time>2022-10-06T20:25:09Z</time>
      </trkpt>
      <trkpt lat="10.1261425" lon="-85.3988148">
        <ele>120.9</ele>
        <time>2022-10-06T20:25:11Z</time>
      </trkpt>
      <trkpt lat="10.1260772" lon="-85.3986668">
        <ele>120.7</ele>
        <time>2022-10-06T20:25:11Z</time>
      </trkpt>
      <trkpt lat="10.1260120" lon="-85.3985179">
        <ele>120.4</ele>
        <time>2022-10-06T20:25:12Z</time>
      </trkpt>
      <trkpt lat="10.1259471" lon="-85.3983687">
        <ele>119.8</ele>
        <time>2022-10-06T20:25:13Z</time>
      </trkpt>
      <trkpt lat="10.1258820" lon="-85.3982159">
        <ele>120.0</ele>
        <time>2022-10-06T20:25:14Z</time>
      </trkpt>
      <trkpt lat="10.1258184" lon="-85.3980671">
        <ele>119.8</ele>
        <time>2022-10-06T20:25:15Z</time>
      </trkpt>
      <trkpt lat="10.1257588" lon="-85.3979279">
        <ele>119.7</ele>
        <time>2022-10-06T20:25:16Z</time>
      </trkpt>
      <trkpt lat="10.1257015" lon="-85.3977943">
        <ele>119.8</ele>
        <time>2022-10-06T20:25:17Z</time>
      </trkpt>
      <trkpt lat="10.1256449" lon="-85.3976581">
        <ele>120.1</ele>
        <time>2022-10-06T20:25:18Z</time>
      </trkpt>
      <trkpt lat="10.1255910" lon="-85.3975248">
        <ele>120.2</ele>
        <time>2022-10-06T20:25:19Z</time>
      </trkpt>
      <trkpt lat="10.1255363" lon="-85.3973906">
        <ele>120.2</ele>
        <time>2022-10-06T20:25:20Z</time>
      </trkpt>
      <trkpt lat="10.1254794" lon="-85.3972564">
        <ele>120.3</ele>
        <time>2022-10-06T20:25:21Z</time>
      </trkpt>
      <trkpt lat="10.1254233" lon="-85.3971202">
        <ele>120.4</ele>
        <time>2022-10-06T20:25:22Z</time>
      </trkpt>
      <trkpt lat="10.1253672" lon="-85.3969846">
        <ele>120.8</ele>
        <time>2022-10-06T20:25:23Z</time>
      </trkpt>
      <trkpt lat="10.1253085" lon="-85.3968452">
        <ele>120.7</ele>
        <time>2022-10-06T20:25:24Z</time>
      </trkpt>
      <trkpt lat="10.1252495" lon="-85.3967054">
        <ele>120.7</ele>
        <time>2022-10-06T20:25:25Z</time>
      </trkpt>
      <trkpt lat="10.1251932" lon="-85.3965686">
        <ele>120.8</ele>
        <time>2022-10-06T20:25:26Z</time>
      </trkpt>
      <trkpt lat="10.1251349" lon="-85.3964280">
        <ele>121.0</ele>
        <time>2022-10-06T20:25:27Z</time>
      </trkpt>
      <trkpt lat="10.1250768" lon="-85.3962855">
        <ele>121.3</ele>
        <time>2022-10-06T20:25:28Z</time>
      </trkpt>
      <trkpt lat="10.1250169" lon="-85.3961428">
        <ele>121.3</ele>
        <time>2022-10-06T20:25:29Z</time>
      </trkpt>
      <trkpt lat="10.1249579" lon="-85.3959995">
        <ele>121.4</ele>
        <time>2022-10-06T20:25:30Z</time>
      </trkpt>
      <trkpt lat="10.1248969" lon="-85.3958557">
        <ele>121.3</ele>
        <time>2022-10-06T20:25:31Z</time>
      </trkpt>
      <trkpt lat="10.1248346" lon="-85.3957076">
        <ele>121.6</ele>
        <time>2022-10-06T20:25:32Z</time>
      </trkpt>
      <trkpt lat="10.1247720" lon="-85.3955609">
        <ele>121.5</ele>
        <time>2022-10-06T20:25:33Z</time>
      </trkpt>
      <trkpt lat="10.1247103" lon="-85.3954112">
        <ele>121.8</ele>
        <time>2022-10-06T20:25:34Z</time>
      </trkpt>
      <trkpt lat="10.1246470" lon="-85.3952569">
        <ele>122.0</ele>
        <time>2022-10-06T20:25:35Z</time>
      </trkpt>
      <trkpt lat="10.1245822" lon="-85.3950961">
        <ele>122.2</ele>
        <time>2022-10-06T20:25:36Z</time>
      </trkpt>
      <trkpt lat="10.1245166" lon="-85.3949320">
        <ele>122.4</ele>
        <time>2022-10-06T20:25:37Z</time>
      </trkpt>
      <trkpt lat="10.1244502" lon="-85.3947623">
        <ele>122.6</ele>
        <time>2022-10-06T20:25:38Z</time>
      </trkpt>
      <trkpt lat="10.1243798" lon="-85.3945907">
        <ele>122.9</ele>
        <time>2022-10-06T20:25:39Z</time>
      </trkpt>
      <trkpt lat="10.1243079" lon="-85.3944125">
        <ele>123.2</ele>
        <time>2022-10-06T20:25:40Z</time>
      </trkpt>
      <trkpt lat="10.1242336" lon="-85.3942299">
        <ele>123.6</ele>
        <time>2022-10-06T20:25:41Z</time>
      </trkpt>
      <trkpt lat="10.1241564" lon="-85.3940421">
        <ele>124.0</ele>
        <time>2022-10-06T20:25:42Z</time>
      </trkpt>
      <trkpt lat="10.1240746" lon="-85.3938473">
        <ele>124.0</ele>
        <time>2022-10-06T20:25:43Z</time>
      </trkpt>
      <trkpt lat="10.1239927" lon="-85.3936502">
        <ele>124.5</ele>
        <time>2022-10-06T20:25:44Z</time>
      </trkpt>
      <trkpt lat="10.1239096" lon="-85.3934527">
        <ele>124.9</ele>
        <time>2022-10-06T20:25:45Z</time>
      </trkpt>
      <trkpt lat="10.1238236" lon="-85.3932574">
        <ele>125.3</ele>
        <time>2022-10-06T20:25:46Z</time>
      </trkpt>
      <trkpt lat="10.1237371" lon="-85.3930633">
        <ele>125.7</ele>
        <time>2022-10-06T20:25:47Z</time>
      </trkpt>
      <trkpt lat="10.1236490" lon="-85.3928690">
        <ele>126.1</ele>
        <time>2022-10-06T20:25:48Z</time>
      </trkpt>
      <trkpt lat="10.1235636" lon="-85.3926768">
        <ele>126.3</ele>
        <time>2022-10-06T20:25:49Z</time>
      </trkpt>
      <trkpt lat="10.1234793" lon="-85.3924839">
        <ele>126.7</ele>
        <time>2022-10-06T20:25:50Z</time>
      </trkpt>
      <trkpt lat="10.1233968" lon="-85.3922940">
        <ele>127.2</ele>
        <time>2022-10-06T20:25:51Z</time>
      </trkpt>
      <trkpt lat="10.1233169" lon="-85.3921086">
        <ele>127.3</ele>
        <time>2022-10-06T20:25:52Z</time>
      </trkpt>
      <trkpt lat="10.1232368" lon="-85.3919261">
        <ele>127.6</ele>
        <time>2022-10-06T20:25:53Z</time>
      </trkpt>
      <trkpt lat="10.1231614" lon="-85.3917501">
        <ele>127.6</ele>
        <time>2022-10-06T20:25:54Z</time>
      </trkpt>
      <trkpt lat="10.1230885" lon="-85.3915790">
        <ele>127.6</ele>
        <time>2022-10-06T20:25:55Z</time>
      </trkpt>
      <trkpt lat="10.1230141" lon="-85.3914071">
        <ele>127.9</ele>
        <time>2022-10-06T20:25:56Z</time>
      </trkpt>
      <trkpt lat="10.1229410" lon="-85.3912383">
        <ele>128.1</ele>
        <time>2022-10-06T20:25:57Z</time>
      </trkpt>
      <trkpt lat="10.1228711" lon="-85.3910757">
        <ele>128.8</ele>
        <time>2022-10-06T20:25:58Z</time>
      </trkpt>
      <trkpt lat="10.1228068" lon="-85.3909223">
        <ele>128.7</ele>
        <time>2022-10-06T20:25:59Z</time>
      </trkpt>
      <trkpt lat="10.1227453" lon="-85.3907748">
        <ele>128.3</ele>
        <time>2022-10-06T20:26:00Z</time>
      </trkpt>
      <trkpt lat="10.1226835" lon="-85.3906297">
        <ele>127.9</ele>
        <time>2022-10-06T20:26:01Z</time>
      </trkpt>
      <trkpt lat="10.1226241" lon="-85.3904905">
        <ele>127.9</ele>
        <time>2022-10-06T20:26:02Z</time>
      </trkpt>
      <trkpt lat="10.1225666" lon="-85.3903525">
        <ele>127.9</ele>
        <time>2022-10-06T20:26:03Z</time>
      </trkpt>
      <trkpt lat="10.1225084" lon="-85.3902184">
        <ele>128.3</ele>
        <time>2022-10-06T20:26:04Z</time>
      </trkpt>
      <trkpt lat="10.1224517" lon="-85.3900860">
        <ele>128.6</ele>
        <time>2022-10-06T20:26:05Z</time>
      </trkpt>
      <trkpt lat="10.1223957" lon="-85.3899576">
        <ele>128.6</ele>
        <time>2022-10-06T20:26:06Z</time>
      </trkpt>
      <trkpt lat="10.1223408" lon="-85.3898299">
        <ele>128.3</ele>
        <time>2022-10-06T20:26:07Z</time>
      </trkpt>
      <trkpt lat="10.1222855" lon="-85.3896967">
        <ele>128.1</ele>
        <time>2022-10-06T20:26:08Z</time>
      </trkpt>
      <trkpt lat="10.1222312" lon="-85.3895675">
        <ele>128.0</ele>
        <time>2022-10-06T20:26:09Z</time>
      </trkpt>
      <trkpt lat="10.1221748" lon="-85.3894368">
        <ele>128.0</ele>
        <time>2022-10-06T20:26:10Z</time>
      </trkpt>
      <trkpt lat="10.1221190" lon="-85.3893068">
        <ele>127.8</ele>
        <time>2022-10-06T20:26:11Z</time>
      </trkpt>
      <trkpt lat="10.1220656" lon="-85.3891743">
        <ele>127.2</ele>
        <time>2022-10-06T20:26:12Z</time>
      </trkpt>
      <trkpt lat="10.1220108" lon="-85.3890425">
        <ele>127.2</ele>
        <time>2022-10-06T20:26:13Z</time>
      </trkpt>
      <trkpt lat="10.1219536" lon="-85.3889127">
        <ele>126.7</ele>
        <time>2022-10-06T20:26:14Z</time>
      </trkpt>
      <trkpt lat="10.1218987" lon="-85.3887828">
        <ele>126.1</ele>
        <time>2022-10-06T20:26:15Z</time>
      </trkpt>
      <trkpt lat="10.1218430" lon="-85.3886514">
        <ele>125.7</ele>
        <time>2022-10-06T20:26:16Z</time>
      </trkpt>
      <trkpt lat="10.1217865" lon="-85.3885208">
        <ele>125.3</ele>
        <time>2022-10-06T20:26:17Z</time>
      </trkpt>
      <trkpt lat="10.1217278" lon="-85.3883875">
        <ele>125.2</ele>
        <time>2022-10-06T20:26:18Z</time>
      </trkpt>
      <trkpt lat="10.1216697" lon="-85.3882546">
        <ele>124.5</ele>
        <time>2022-10-06T20:26:19Z</time>
      </trkpt>
      <trkpt lat="10.1216122" lon="-85.3881209">
        <ele>124.5</ele>
        <time>2022-10-06T20:26:20Z</time>
      </trkpt>
      <trkpt lat="10.1215560" lon="-85.3879889">
        <ele>124.0</ele>
        <time>2022-10-06T20:26:21Z</time>
      </trkpt>
      <trkpt lat="10.1214995" lon="-85.3878595">
        <ele>123.5</ele>
        <time>2022-10-06T20:26:22Z</time>
      </trkpt>
      <trkpt lat="10.1214428" lon="-85.3877340">
        <ele>122.9</ele>
        <time>2022-10-06T20:26:23Z</time>
      </trkpt>
      <trkpt lat="10.1213890" lon="-85.3876093">
        <ele>122.4</ele>
        <time>2022-10-06T20:26:24Z</time>
      </trkpt>
      <trkpt lat="10.1213349" lon="-85.3874859">
        <ele>121.8</ele>
        <time>2022-10-06T20:26:25Z</time>
      </trkpt>
      <trkpt lat="10.1212786" lon="-85.3873586">
        <ele>121.7</ele>
        <time>2022-10-06T20:26:26Z</time>
      </trkpt>
      <trkpt lat="10.1212193" lon="-85.3872334">
        <ele>121.2</ele>
        <time>2022-10-06T20:26:27Z</time>
      </trkpt>
      <trkpt lat="10.1211591" lon="-85.3871042">
        <ele>120.7</ele>
        <time>2022-10-06T20:26:28Z</time>
      </trkpt>
      <trkpt lat="10.1210984" lon="-85.3869701">
        <ele>120.3</ele>
        <time>2022-10-06T20:26:29Z</time>
      </trkpt>
      <trkpt lat="10.1210325" lon="-85.3868293">
        <ele>119.7</ele>
        <time>2022-10-06T20:26:30Z</time>
      </trkpt>
      <trkpt lat="10.1209640" lon="-85.3866799">
        <ele>119.2</ele>
        <time>2022-10-06T20:26:31Z</time>
      </trkpt>
      <trkpt lat="10.1208959" lon="-85.3865284">
        <ele>118.7</ele>
        <time>2022-10-06T20:26:32Z</time>
      </trkpt>
      <trkpt lat="10.1208225" lon="-85.3863685">
        <ele>118.0</ele>
        <time>2022-10-06T20:26:33Z</time>
      </trkpt>
      <trkpt lat="10.1207473" lon="-85.3862000">
        <ele>118.1</ele>
        <time>2022-10-06T20:26:34Z</time>
      </trkpt>
      <trkpt lat="10.1206707" lon="-85.3860269">
        <ele>117.6</ele>
        <time>2022-10-06T20:26:35Z</time>
      </trkpt>
      <trkpt lat="10.1205921" lon="-85.3858460">
        <ele>117.2</ele>
        <time>2022-10-06T20:26:36Z</time>
      </trkpt>
      <trkpt lat="10.1205093" lon="-85.3856585">
        <ele>116.7</ele>
        <time>2022-10-06T20:26:37Z</time>
      </trkpt>
      <trkpt lat="10.1204236" lon="-85.3854708">
        <ele>116.7</ele>
        <time>2022-10-06T20:26:38Z</time>
      </trkpt>
      <trkpt lat="10.1203366" lon="-85.3852829">
        <ele>116.5</ele>
        <time>2022-10-06T20:26:39Z</time>
      </trkpt>
      <trkpt lat="10.1202492" lon="-85.3850979">
        <ele>116.7</ele>
        <time>2022-10-06T20:26:40Z</time>
      </trkpt>
      <trkpt lat="10.1201608" lon="-85.3849124">
        <ele>116.7</ele>
        <time>2022-10-06T20:26:41Z</time>
      </trkpt>
      <trkpt lat="10.1200718" lon="-85.3847295">
        <ele>116.4</ele>
        <time>2022-10-06T20:26:42Z</time>
      </trkpt>
      <trkpt lat="10.1199782" lon="-85.3845446">
        <ele>116.8</ele>
        <time>2022-10-06T20:26:43Z</time>
      </trkpt>
      <trkpt lat="10.1198827" lon="-85.3843616">
        <ele>116.4</ele>
        <time>2022-10-06T20:26:44Z</time>
      </trkpt>
      <trkpt lat="10.1197861" lon="-85.3841818">
        <ele>116.3</ele>
        <time>2022-10-06T20:26:45Z</time>
      </trkpt>
      <trkpt lat="10.1196906" lon="-85.3840039">
        <ele>116.1</ele>
        <time>2022-10-06T20:26:46Z</time>
      </trkpt>
      <trkpt lat="10.1196021" lon="-85.3838277">
        <ele>115.9</ele>
        <time>2022-10-06T20:26:47Z</time>
      </trkpt>
      <trkpt lat="10.1195185" lon="-85.3836514">
        <ele>115.9</ele>
        <time>2022-10-06T20:26:48Z</time>
      </trkpt>
      <trkpt lat="10.1194348" lon="-85.3834757">
        <ele>115.9</ele>
        <time>2022-10-06T20:26:49Z</time>
      </trkpt>
      <trkpt lat="10.1193511" lon="-85.3832975">
        <ele>115.7</ele>
        <time>2022-10-06T20:26:50Z</time>
      </trkpt>
      <trkpt lat="10.1192675" lon="-85.3831212">
        <ele>115.6</ele>
        <time>2022-10-06T20:26:51Z</time>
      </trkpt>
      <trkpt lat="10.1191848" lon="-85.3829454">
        <ele>115.5</ele>
        <time>2022-10-06T20:26:52Z</time>
      </trkpt>
      <trkpt lat="10.1191031" lon="-85.3827709">
        <ele>115.7</ele>
        <time>2022-10-06T20:26:53Z</time>
      </trkpt>
      <trkpt lat="10.1190215" lon="-85.3825981">
        <ele>115.6</ele>
        <time>2022-10-06T20:26:54Z</time>
      </trkpt>
      <trkpt lat="10.1189401" lon="-85.3824273">
        <ele>115.8</ele>
        <time>2022-10-06T20:26:55Z</time>
      </trkpt>
      <trkpt lat="10.1188592" lon="-85.3822591">
        <ele>115.9</ele>
        <time>2022-10-06T20:26:56Z</time>
      </trkpt>
      <trkpt lat="10.1187801" lon="-85.3820905">
        <ele>116.0</ele>
        <time>2022-10-06T20:26:57Z</time>
      </trkpt>
      <trkpt lat="10.1187006" lon="-85.3819188">
        <ele>116.1</ele>
        <time>2022-10-06T20:26:58Z</time>
      </trkpt>
      <trkpt lat="10.1186202" lon="-85.3817514">
        <ele>116.2</ele>
        <time>2022-10-06T20:26:59Z</time>
      </trkpt>
      <trkpt lat="10.1185403" lon="-85.3815842">
        <ele>116.6</ele>
        <time>2022-10-06T20:27:00Z</time>
      </trkpt>
      <trkpt lat="10.1184615" lon="-85.3814199">
        <ele>116.9</ele>
        <time>2022-10-06T20:27:01Z</time>
      </trkpt>
      <trkpt lat="10.1183832" lon="-85.3812567">
        <ele>117.2</ele>
        <time>2022-10-06T20:27:02Z</time>
      </trkpt>
      <trkpt lat="10.1183043" lon="-85.3810921">
        <ele>117.1</ele>
        <time>2022-10-06T20:27:03Z</time>
      </trkpt>
      <trkpt lat="10.1182234" lon="-85.3809281">
        <ele>117.3</ele>
        <time>2022-10-06T20:27:04Z</time>
      </trkpt>
      <trkpt lat="10.1181431" lon="-85.3807657">
        <ele>117.4</ele>
        <time>2022-10-06T20:27:05Z</time>
      </trkpt>
      <trkpt lat="10.1180651" lon="-85.3806043">
        <ele>117.9</ele>
        <time>2022-10-06T20:27:06Z</time>
      </trkpt>
      <trkpt lat="10.1179868" lon="-85.3804413">
        <ele>118.1</ele>
        <time>2022-10-06T20:27:07Z</time>
      </trkpt>
      <trkpt lat="10.1179132" lon="-85.3802775">
        <ele>118.0</ele>
        <time>2022-10-06T20:27:08Z</time>
      </trkpt>
      <trkpt lat="10.1178455" lon="-85.3801125">
        <ele>117.8</ele>
        <time>2022-10-06T20:27:09Z</time>
      </trkpt>
      <trkpt lat="10.1177823" lon="-85.3799465">
        <ele>117.9</ele>
        <time>2022-10-06T20:27:10Z</time>
      </trkpt>
      <trkpt lat="10.1177252" lon="-85.3797802">
        <ele>117.9</ele>
        <time>2022-10-06T20:27:11Z</time>
      </trkpt>
      <trkpt lat="10.1176752" lon="-85.3796137">
        <ele>118.2</ele>
        <time>2022-10-06T20:27:12Z</time>
      </trkpt>
      <trkpt lat="10.1176301" lon="-85.3794458">
        <ele>118.3</ele>
        <time>2022-10-06T20:27:13Z</time>
      </trkpt>
      <trkpt lat="10.1175910" lon="-85.3792762">
        <ele>118.6</ele>
        <time>2022-10-06T20:27:14Z</time>
      </trkpt>
      <trkpt lat="10.1175551" lon="-85.3791070">
        <ele>118.7</ele>
        <time>2022-10-06T20:27:15Z</time>
      </trkpt>
      <trkpt lat="10.1175265" lon="-85.3789387">
        <ele>118.8</ele>
        <time>2022-10-06T20:27:16Z</time>
      </trkpt>
      <trkpt lat="10.1175028" lon="-85.3787717">
        <ele>119.0</ele>
        <time>2022-10-06T20:27:17Z</time>
      </trkpt>
      <trkpt lat="10.1174831" lon="-85.3786038">
        <ele>118.9</ele>
        <time>2022-10-06T20:27:18Z</time>
      </trkpt>
      <trkpt lat="10.1174692" lon="-85.3784267">
        <ele>119.1</ele>
        <time>2022-10-06T20:27:19Z</time>
      </trkpt>
      <trkpt lat="10.1174577" lon="-85.3782591">
        <ele>119.1</ele>
        <time>2022-10-06T20:27:20Z</time>
      </trkpt>
      <trkpt lat="10.1174448" lon="-85.3780907">
        <ele>119.3</ele>
        <time>2022-10-06T20:27:21Z</time>
      </trkpt>
      <trkpt lat="10.1174348" lon="-85.3779202">
        <ele>119.7</ele>
        <time>2022-10-06T20:27:22Z</time>
      </trkpt>
      <trkpt lat="10.1174264" lon="-85.3777496">
        <ele>120.0</ele>
        <time>2022-10-06T20:27:23Z</time>
      </trkpt>
      <trkpt lat="10.1174153" lon="-85.3775784">
        <ele>120.2</ele>
        <time>2022-10-06T20:27:24Z</time>
      </trkpt>
      <trkpt lat="10.1174045" lon="-85.3774070">
        <ele>120.8</ele>
        <time>2022-10-06T20:27:25Z</time>
      </trkpt>
      <trkpt lat="10.1173935" lon="-85.3772370">
        <ele>121.2</ele>
        <time>2022-10-06T20:27:26Z</time>
      </trkpt>
      <trkpt lat="10.1173811" lon="-85.3770657">
        <ele>121.2</ele>
        <time>2022-10-06T20:27:27Z</time>
      </trkpt>
      <trkpt lat="10.1173715" lon="-85.3768897">
        <ele>121.7</ele>
        <time>2022-10-06T20:27:28Z</time>
      </trkpt>
      <trkpt lat="10.1173583" lon="-85.3767133">
        <ele>122.2</ele>
        <time>2022-10-06T20:27:29Z</time>
      </trkpt>
      <trkpt lat="10.1173426" lon="-85.3765341">
        <ele>122.7</ele>
        <time>2022-10-06T20:27:30Z</time>
      </trkpt>
      <trkpt lat="10.1173287" lon="-85.3763541">
        <ele>122.8</ele>
        <time>2022-10-06T20:27:31Z</time>
      </trkpt>
      <trkpt lat="10.1173135" lon="-85.3761724">
        <ele>122.9</ele>
        <time>2022-10-06T20:27:32Z</time>
      </trkpt>
      <trkpt lat="10.1172969" lon="-85.3759928">
        <ele>124.0</ele>
        <time>2022-10-06T20:27:33Z</time>
      </trkpt>
      <trkpt lat="10.1172804" lon="-85.3758099">
        <ele>124.1</ele>
        <time>2022-10-06T20:27:34Z</time>
      </trkpt>
      <trkpt lat="10.1172652" lon="-85.3756224">
        <ele>124.0</ele>
        <time>2022-10-06T20:27:35Z</time>
      </trkpt>
      <trkpt lat="10.1172530" lon="-85.3754346">
        <ele>124.0</ele>
        <time>2022-10-06T20:27:36Z</time>
      </trkpt>
      <trkpt lat="10.1172417" lon="-85.3752499">
        <ele>124.1</ele>
        <time>2022-10-06T20:27:37Z</time>
      </trkpt>
      <trkpt lat="10.1172285" lon="-85.3750633">
        <ele>124.2</ele>
        <time>2022-10-06T20:27:38Z</time>
      </trkpt>
      <trkpt lat="10.1172155" lon="-85.3748788">
        <ele>124.4</ele>
        <time>2022-10-06T20:27:39Z</time>
      </trkpt>
      <trkpt lat="10.1172016" lon="-85.3746950">
        <ele>125.2</ele>
        <time>2022-10-06T20:27:40Z</time>
      </trkpt>
      <trkpt lat="10.1171865" lon="-85.3745100">
        <ele>125.6</ele>
        <time>2022-10-06T20:27:41Z</time>
      </trkpt>
      <trkpt lat="10.1171689" lon="-85.3743241">
        <ele>126.5</ele>
        <time>2022-10-06T20:27:42Z</time>
      </trkpt>
      <trkpt lat="10.1171489" lon="-85.3741379">
        <ele>127.3</ele>
        <time>2022-10-06T20:27:43Z</time>
      </trkpt>
      <trkpt lat="10.1171269" lon="-85.3739520">
        <ele>128.0</ele>
        <time>2022-10-06T20:27:44Z</time>
      </trkpt>
      <trkpt lat="10.1171016" lon="-85.3737674">
        <ele>128.6</ele>
        <time>2022-10-06T20:27:45Z</time>
      </trkpt>
      <trkpt lat="10.1170718" lon="-85.3735802">
        <ele>129.0</ele>
        <time>2022-10-06T20:27:46Z</time>
      </trkpt>
      <trkpt lat="10.1170439" lon="-85.3733934">
        <ele>129.6</ele>
        <time>2022-10-06T20:27:47Z</time>
      </trkpt>
      <trkpt lat="10.1170085" lon="-85.3732057">
        <ele>130.2</ele>
        <time>2022-10-06T20:27:48Z</time>
      </trkpt>
      <trkpt lat="10.1169701" lon="-85.3730178">
        <ele>130.5</ele>
        <time>2022-10-06T20:27:49Z</time>
      </trkpt>
      <trkpt lat="10.1169279" lon="-85.3728298">
        <ele>130.6</ele>
        <time>2022-10-06T20:27:50Z</time>
      </trkpt>
      <trkpt lat="10.1168810" lon="-85.3726437">
        <ele>131.0</ele>
        <time>2022-10-06T20:27:51Z</time>
      </trkpt>
      <trkpt lat="10.1168341" lon="-85.3724571">
        <ele>131.4</ele>
        <time>2022-10-06T20:27:52Z</time>
      </trkpt>
      <trkpt lat="10.1167868" lon="-85.3722714">
        <ele>131.5</ele>
        <time>2022-10-06T20:27:53Z</time>
      </trkpt>
      <trkpt lat="10.1167381" lon="-85.3720818">
        <ele>131.7</ele>
        <time>2022-10-06T20:27:54Z</time>
      </trkpt>
      <trkpt lat="10.1166875" lon="-85.3718916">
        <ele>132.0</ele>
        <time>2022-10-06T20:27:55Z</time>
      </trkpt>
      <trkpt lat="10.1166383" lon="-85.3716983">
        <ele>131.7</ele>
        <time>2022-10-06T20:27:56Z</time>
      </trkpt>
      <trkpt lat="10.1165883" lon="-85.3715068">
        <ele>131.3</ele>
        <time>2022-10-06T20:27:57Z</time>
      </trkpt>
      <trkpt lat="10.1165415" lon="-85.3713140">
        <ele>131.2</ele>
        <time>2022-10-06T20:27:58Z</time>
      </trkpt>
      <trkpt lat="10.1164911" lon="-85.3711191">
        <ele>131.2</ele>
        <time>2022-10-06T20:27:59Z</time>
      </trkpt>
      <trkpt lat="10.1164411" lon="-85.3709231">
        <ele>131.1</ele>
        <time>2022-10-06T20:28:00Z</time>
      </trkpt>
      <trkpt lat="10.1163914" lon="-85.3707261">
        <ele>130.8</ele>
        <time>2022-10-06T20:28:01Z</time>
      </trkpt>
      <trkpt lat="10.1163398" lon="-85.3705285">
        <ele>130.7</ele>
        <time>2022-10-06T20:28:02Z</time>
      </trkpt>
      <trkpt lat="10.1162880" lon="-85.3703285">
        <ele>129.1</ele>
        <time>2022-10-06T20:28:03Z</time>
      </trkpt>
      <trkpt lat="10.1162371" lon="-85.3701287">
        <ele>129.1</ele>
        <time>2022-10-06T20:28:04Z</time>
      </trkpt>
      <trkpt lat="10.1161862" lon="-85.3699288">
        <ele>128.8</ele>
        <time>2022-10-06T20:28:05Z</time>
      </trkpt>
      <trkpt lat="10.1161342" lon="-85.3697278">
        <ele>128.5</ele>
        <time>2022-10-06T20:28:07Z</time>
      </trkpt>
      <trkpt lat="10.1160804" lon="-85.3695235">
        <ele>127.0</ele>
        <time>2022-10-06T20:28:07Z</time>
      </trkpt>
      <trkpt lat="10.1160275" lon="-85.3693205">
        <ele>125.2</ele>
        <time>2022-10-06T20:28:08Z</time>
      </trkpt>
      <trkpt lat="10.1159746" lon="-85.3691154">
        <ele>123.5</ele>
        <time>2022-10-06T20:28:09Z</time>
      </trkpt>
      <trkpt lat="10.1159219" lon="-85.3689075">
        <ele>121.9</ele>
        <time>2022-10-06T20:28:10Z</time>
      </trkpt>
      <trkpt lat="10.1158677" lon="-85.3686993">
        <ele>120.5</ele>
        <time>2022-10-06T20:28:11Z</time>
      </trkpt>
      <trkpt lat="10.1158143" lon="-85.3684903">
        <ele>119.0</ele>
        <time>2022-10-06T20:28:12Z</time>
      </trkpt>
      <trkpt lat="10.1157614" lon="-85.3682786">
        <ele>117.6</ele>
        <time>2022-10-06T20:28:13Z</time>
      </trkpt>
      <trkpt lat="10.1157070" lon="-85.3680636">
        <ele>116.1</ele>
        <time>2022-10-06T20:28:14Z</time>
      </trkpt>
      <trkpt lat="10.1156525" lon="-85.3678491">
        <ele>114.5</ele>
        <time>2022-10-06T20:28:15Z</time>
      </trkpt>
      <trkpt lat="10.1155963" lon="-85.3676351">
        <ele>113.0</ele>
        <time>2022-10-06T20:28:16Z</time>
      </trkpt>
      <trkpt lat="10.1155409" lon="-85.3674190">
        <ele>112.9</ele>
        <time>2022-10-06T20:28:17Z</time>
      </trkpt>
      <trkpt lat="10.1154857" lon="-85.3672012">
        <ele>112.7</ele>
        <time>2022-10-06T20:28:18Z</time>
      </trkpt>
      <trkpt lat="10.1154308" lon="-85.3669825">
        <ele>112.4</ele>
        <time>2022-10-06T20:28:19Z</time>
      </trkpt>
      <trkpt lat="10.1153739" lon="-85.3667611">
        <ele>110.5</ele>
        <time>2022-10-06T20:28:20Z</time>
      </trkpt>
      <trkpt lat="10.1153174" lon="-85.3665406">
        <ele>108.9</ele>
        <time>2022-10-06T20:28:21Z</time>
      </trkpt>
      <trkpt lat="10.1152619" lon="-85.3663219">
        <ele>107.2</ele>
        <time>2022-10-06T20:28:22Z</time>
      </trkpt>
      <trkpt lat="10.1152048" lon="-85.3661026">
        <ele>105.4</ele>
        <time>2022-10-06T20:28:23Z</time>
      </trkpt>
      <trkpt lat="10.1151495" lon="-85.3658872">
        <ele>103.8</ele>
        <time>2022-10-06T20:28:24Z</time>
      </trkpt>
      <trkpt lat="10.1150948" lon="-85.3656742">
        <ele>102.3</ele>
        <time>2022-10-06T20:28:25Z</time>
      </trkpt>
      <trkpt lat="10.1150397" lon="-85.3654646">
        <ele>102.1</ele>
        <time>2022-10-06T20:28:26Z</time>
      </trkpt>
      <trkpt lat="10.1149830" lon="-85.3652556">
        <ele>100.4</ele>
        <time>2022-10-06T20:28:27Z</time>
      </trkpt>
      <trkpt lat="10.1149275" lon="-85.3650489">
        <ele>98.9</ele>
        <time>2022-10-06T20:28:28Z</time>
      </trkpt>
      <trkpt lat="10.1148720" lon="-85.3648412">
        <ele>97.3</ele>
        <time>2022-10-06T20:28:29Z</time>
      </trkpt>
      <trkpt lat="10.1148131" lon="-85.3646364">
        <ele>96.1</ele>
        <time>2022-10-06T20:28:30Z</time>
      </trkpt>
      <trkpt lat="10.1147509" lon="-85.3644331">
        <ele>95.1</ele>
        <time>2022-10-06T20:28:31Z</time>
      </trkpt>
      <trkpt lat="10.1146852" lon="-85.3642303">
        <ele>94.2</ele>
        <time>2022-10-06T20:28:32Z</time>
      </trkpt>
      <trkpt lat="10.1146142" lon="-85.3640330">
        <ele>93.5</ele>
        <time>2022-10-06T20:28:33Z</time>
      </trkpt>
      <trkpt lat="10.1145399" lon="-85.3638361">
        <ele>92.9</ele>
        <time>2022-10-06T20:28:34Z</time>
      </trkpt>
      <trkpt lat="10.1144609" lon="-85.3636416">
        <ele>92.3</ele>
        <time>2022-10-06T20:28:35Z</time>
      </trkpt>
      <trkpt lat="10.1143747" lon="-85.3634532">
        <ele>91.7</ele>
        <time>2022-10-06T20:28:36Z</time>
      </trkpt>
      <trkpt lat="10.1142844" lon="-85.3632668">
        <ele>91.2</ele>
        <time>2022-10-06T20:28:37Z</time>
      </trkpt>
      <trkpt lat="10.1141926" lon="-85.3630839">
        <ele>90.6</ele>
        <time>2022-10-06T20:28:38Z</time>
      </trkpt>
      <trkpt lat="10.1140997" lon="-85.3629017">
        <ele>90.1</ele>
        <time>2022-10-06T20:28:39Z</time>
      </trkpt>
      <trkpt lat="10.1140069" lon="-85.3627235">
        <ele>89.6</ele>
        <time>2022-10-06T20:28:40Z</time>
      </trkpt>
      <trkpt lat="10.1139135" lon="-85.3625477">
        <ele>89.0</ele>
        <time>2022-10-06T20:28:42Z</time>
      </trkpt>
      <trkpt lat="10.1138199" lon="-85.3623734">
        <ele>88.7</ele>
        <time>2022-10-06T20:28:42Z</time>
      </trkpt>
      <trkpt lat="10.1137277" lon="-85.3621967">
        <ele>88.2</ele>
        <time>2022-10-06T20:28:43Z</time>
      </trkpt>
      <trkpt lat="10.1136368" lon="-85.3620219">
        <ele>87.6</ele>
        <time>2022-10-06T20:28:44Z</time>
      </trkpt>
      <trkpt lat="10.1135445" lon="-85.3618469">
        <ele>87.1</ele>
        <time>2022-10-06T20:28:45Z</time>
      </trkpt>
      <trkpt lat="10.1134522" lon="-85.3616688">
        <ele>86.6</ele>
        <time>2022-10-06T20:28:46Z</time>
      </trkpt>
      <trkpt lat="10.1133595" lon="-85.3614948">
        <ele>86.1</ele>
        <time>2022-10-06T20:28:47Z</time>
      </trkpt>
      <trkpt lat="10.1132664" lon="-85.3613185">
        <ele>85.6</ele>
        <time>2022-10-06T20:28:48Z</time>
      </trkpt>
      <trkpt lat="10.1131736" lon="-85.3611421">
        <ele>85.0</ele>
        <time>2022-10-06T20:28:49Z</time>
      </trkpt>
      <trkpt lat="10.1130810" lon="-85.3609640">
        <ele>84.6</ele>
        <time>2022-10-06T20:28:50Z</time>
      </trkpt>
      <trkpt lat="10.1129891" lon="-85.3607850">
        <ele>84.3</ele>
        <time>2022-10-06T20:28:51Z</time>
      </trkpt>
      <trkpt lat="10.1128962" lon="-85.3606075">
        <ele>83.6</ele>
        <time>2022-10-06T20:28:52Z</time>
      </trkpt>
      <trkpt lat="10.1128030" lon="-85.3604292">
        <ele>83.6</ele>
        <time>2022-10-06T20:28:53Z</time>
      </trkpt>
      <trkpt lat="10.1127093" lon="-85.3602506">
        <ele>83.5</ele>
        <time>2022-10-06T20:28:54Z</time>
      </trkpt>
      <trkpt lat="10.1126166" lon="-85.3600709">
        <ele>83.4</ele>
        <time>2022-10-06T20:28:55Z</time>
      </trkpt>
      <trkpt lat="10.1125241" lon="-85.3598920">
        <ele>83.2</ele>
        <time>2022-10-06T20:28:56Z</time>
      </trkpt>
      <trkpt lat="10.1124317" lon="-85.3597131">
        <ele>83.2</ele>
        <time>2022-10-06T20:28:57Z</time>
      </trkpt>
      <trkpt lat="10.1123400" lon="-85.3595331">
        <ele>83.0</ele>
        <time>2022-10-06T20:28:58Z</time>
      </trkpt>
      <trkpt lat="10.1122488" lon="-85.3593560">
        <ele>82.9</ele>
        <time>2022-10-06T20:28:59Z</time>
      </trkpt>
      <trkpt lat="10.1121587" lon="-85.3591795">
        <ele>82.8</ele>
        <time>2022-10-06T20:29:00Z</time>
      </trkpt>
      <trkpt lat="10.1120702" lon="-85.3590046">
        <ele>82.8</ele>
        <time>2022-10-06T20:29:01Z</time>
      </trkpt>
      <trkpt lat="10.1119824" lon="-85.3588310">
        <ele>82.7</ele>
        <time>2022-10-06T20:29:02Z</time>
      </trkpt>
      <trkpt lat="10.1118957" lon="-85.3586531">
        <ele>82.5</ele>
        <time>2022-10-06T20:29:03Z</time>
      </trkpt>
      <trkpt lat="10.1118119" lon="-85.3584735">
        <ele>82.6</ele>
        <time>2022-10-06T20:29:04Z</time>
      </trkpt>
      <trkpt lat="10.1117332" lon="-85.3582917">
        <ele>82.4</ele>
        <time>2022-10-06T20:29:05Z</time>
      </trkpt>
      <trkpt lat="10.1116579" lon="-85.3581108">
        <ele>82.5</ele>
        <time>2022-10-06T20:29:06Z</time>
      </trkpt>
      <trkpt lat="10.1115874" lon="-85.3579281">
        <ele>82.3</ele>
        <time>2022-10-06T20:29:07Z</time>
      </trkpt>
      <trkpt lat="10.1115212" lon="-85.3577445">
        <ele>82.1</ele>
        <time>2022-10-06T20:29:08Z</time>
      </trkpt>
      <trkpt lat="10.1114605" lon="-85.3575619">
        <ele>81.9</ele>
        <time>2022-10-06T20:29:09Z</time>
      </trkpt>
      <trkpt lat="10.1114039" lon="-85.3573758">
        <ele>81.8</ele>
        <time>2022-10-06T20:29:10Z</time>
      </trkpt>
      <trkpt lat="10.1113493" lon="-85.3571874">
        <ele>81.6</ele>
        <time>2022-10-06T20:29:11Z</time>
      </trkpt>
      <trkpt lat="10.1112970" lon="-85.3570023">
        <ele>81.4</ele>
        <time>2022-10-06T20:29:12Z</time>
      </trkpt>
      <trkpt lat="10.1112484" lon="-85.3568196">
        <ele>81.4</ele>
        <time>2022-10-06T20:29:13Z</time>
      </trkpt>
      <trkpt lat="10.1112064" lon="-85.3566357">
        <ele>81.2</ele>
        <time>2022-10-06T20:29:14Z</time>
      </trkpt>
      <trkpt lat="10.1111682" lon="-85.3564562">
        <ele>81.2</ele>
        <time>2022-10-06T20:29:15Z</time>
      </trkpt>
      <trkpt lat="10.1111358" lon="-85.3562751">
        <ele>81.0</ele>
        <time>2022-10-06T20:29:16Z</time>
      </trkpt>
      <trkpt lat="10.1111068" lon="-85.3560975">
        <ele>80.9</ele>
        <time>2022-10-06T20:29:17Z</time>
      </trkpt>
      <trkpt lat="10.1110814" lon="-85.3559256">
        <ele>80.8</ele>
        <time>2022-10-06T20:29:18Z</time>
      </trkpt>
      <trkpt lat="10.1110589" lon="-85.3557546">
        <ele>80.7</ele>
        <time>2022-10-06T20:29:19Z</time>
      </trkpt>
      <trkpt lat="10.1110362" lon="-85.3555875">
        <ele>80.7</ele>
        <time>2022-10-06T20:29:20Z</time>
      </trkpt>
      <trkpt lat="10.1110114" lon="-85.3554220">
        <ele>80.8</ele>
        <time>2022-10-06T20:29:21Z</time>
      </trkpt>
      <trkpt lat="10.1109895" lon="-85.3552537">
        <ele>80.9</ele>
        <time>2022-10-06T20:29:22Z</time>
      </trkpt>
      <trkpt lat="10.1109669" lon="-85.3550835">
        <ele>81.2</ele>
        <time>2022-10-06T20:29:23Z</time>
      </trkpt>
      <trkpt lat="10.1109436" lon="-85.3549115">
        <ele>80.8</ele>
        <time>2022-10-06T20:29:24Z</time>
      </trkpt>
      <trkpt lat="10.1109223" lon="-85.3547400">
        <ele>80.8</ele>
        <time>2022-10-06T20:29:25Z</time>
      </trkpt>
      <trkpt lat="10.1108990" lon="-85.3545660">
        <ele>80.8</ele>
        <time>2022-10-06T20:29:26Z</time>
      </trkpt>
      <trkpt lat="10.1108751" lon="-85.3543943">
        <ele>80.9</ele>
        <time>2022-10-06T20:29:27Z</time>
      </trkpt>
      <trkpt lat="10.1108531" lon="-85.3542248">
        <ele>80.8</ele>
        <time>2022-10-06T20:29:28Z</time>
      </trkpt>
      <trkpt lat="10.1108308" lon="-85.3540568">
        <ele>80.8</ele>
        <time>2022-10-06T20:29:29Z</time>
      </trkpt>
      <trkpt lat="10.1108093" lon="-85.3538908">
        <ele>80.8</ele>
        <time>2022-10-06T20:29:30Z</time>
      </trkpt>
      <trkpt lat="10.1107886" lon="-85.3537238">
        <ele>80.9</ele>
        <time>2022-10-06T20:29:31Z</time>
      </trkpt>
      <trkpt lat="10.1107703" lon="-85.3535572">
        <ele>80.9</ele>
        <time>2022-10-06T20:29:32Z</time>
      </trkpt>
      <trkpt lat="10.1107482" lon="-85.3533930">
        <ele>81.0</ele>
        <time>2022-10-06T20:29:33Z</time>
      </trkpt>
      <trkpt lat="10.1107271" lon="-85.3532293">
        <ele>81.0</ele>
        <time>2022-10-06T20:29:34Z</time>
      </trkpt>
      <trkpt lat="10.1107060" lon="-85.3530660">
        <ele>81.1</ele>
        <time>2022-10-06T20:29:35Z</time>
      </trkpt>
      <trkpt lat="10.1106857" lon="-85.3528999">
        <ele>81.1</ele>
        <time>2022-10-06T20:29:36Z</time>
      </trkpt>
      <trkpt lat="10.1106639" lon="-85.3527285">
        <ele>81.0</ele>
        <time>2022-10-06T20:29:37Z</time>
      </trkpt>
      <trkpt lat="10.1106424" lon="-85.3525552">
        <ele>81.2</ele>
        <time>2022-10-06T20:29:38Z</time>
      </trkpt>
      <trkpt lat="10.1106215" lon="-85.3523792">
        <ele>81.2</ele>
        <time>2022-10-06T20:29:39Z</time>
      </trkpt>
      <trkpt lat="10.1106000" lon="-85.3522007">
        <ele>81.3</ele>
        <time>2022-10-06T20:29:40Z</time>
      </trkpt>
      <trkpt lat="10.1105769" lon="-85.3520228">
        <ele>81.3</ele>
        <time>2022-10-06T20:29:41Z</time>
      </trkpt>
      <trkpt lat="10.1105537" lon="-85.3518468">
        <ele>81.4</ele>
        <time>2022-10-06T20:29:42Z</time>
      </trkpt>
      <trkpt lat="10.1105320" lon="-85.3516680">
        <ele>81.3</ele>
        <time>2022-10-06T20:29:43Z</time>
      </trkpt>
      <trkpt lat="10.1105086" lon="-85.3514848">
        <ele>81.3</ele>
        <time>2022-10-06T20:29:44Z</time>
      </trkpt>
      <trkpt lat="10.1104835" lon="-85.3513043">
        <ele>81.2</ele>
        <time>2022-10-06T20:29:45Z</time>
      </trkpt>
      <trkpt lat="10.1104592" lon="-85.3511236">
        <ele>81.2</ele>
        <time>2022-10-06T20:29:46Z</time>
      </trkpt>
      <trkpt lat="10.1104356" lon="-85.3509418">
        <ele>81.3</ele>
        <time>2022-10-06T20:29:47Z</time>
      </trkpt>
      <trkpt lat="10.1104111" lon="-85.3507597">
        <ele>81.4</ele>
        <time>2022-10-06T20:29:48Z</time>
      </trkpt>
      <trkpt lat="10.1103854" lon="-85.3505791">
        <ele>81.3</ele>
        <time>2022-10-06T20:29:49Z</time>
      </trkpt>
      <trkpt lat="10.1103570" lon="-85.3503977">
        <ele>81.1</ele>
        <time>2022-10-06T20:29:50Z</time>
      </trkpt>
      <trkpt lat="10.1103322" lon="-85.3502159">
        <ele>81.1</ele>
        <time>2022-10-06T20:29:51Z</time>
      </trkpt>
      <trkpt lat="10.1103057" lon="-85.3500317">
        <ele>81.3</ele>
        <time>2022-10-06T20:29:52Z</time>
      </trkpt>
      <trkpt lat="10.1102828" lon="-85.3498524">
        <ele>81.5</ele>
        <time>2022-10-06T20:29:54Z</time>
      </trkpt>
      <trkpt lat="10.1102590" lon="-85.3496718">
        <ele>81.5</ele>
        <time>2022-10-06T20:29:54Z</time>
      </trkpt>
      <trkpt lat="10.1102336" lon="-85.3494886">
        <ele>81.4</ele>
        <time>2022-10-06T20:29:55Z</time>
      </trkpt>
      <trkpt lat="10.1102092" lon="-85.3493026">
        <ele>81.6</ele>
        <time>2022-10-06T20:29:56Z</time>
      </trkpt>
      <trkpt lat="10.1101853" lon="-85.3491163">
        <ele>81.7</ele>
        <time>2022-10-06T20:29:57Z</time>
      </trkpt>
      <trkpt lat="10.1101669" lon="-85.3489326">
        <ele>81.7</ele>
        <time>2022-10-06T20:29:58Z</time>
      </trkpt>
      <trkpt lat="10.1101531" lon="-85.3487494">
        <ele>81.8</ele>
        <time>2022-10-06T20:29:59Z</time>
      </trkpt>
      <trkpt lat="10.1101453" lon="-85.3485666">
        <ele>81.7</ele>
        <time>2022-10-06T20:30:00Z</time>
      </trkpt>
      <trkpt lat="10.1101442" lon="-85.3483869">
        <ele>81.6</ele>
        <time>2022-10-06T20:30:01Z</time>
      </trkpt>
      <trkpt lat="10.1101527" lon="-85.3482079">
        <ele>81.4</ele>
        <time>2022-10-06T20:30:02Z</time>
      </trkpt>
      <trkpt lat="10.1101622" lon="-85.3480280">
        <ele>81.6</ele>
        <time>2022-10-06T20:30:03Z</time>
      </trkpt>
      <trkpt lat="10.1101811" lon="-85.3478578">
        <ele>81.7</ele>
        <time>2022-10-06T20:30:04Z</time>
      </trkpt>
      <trkpt lat="10.1102085" lon="-85.3476953">
        <ele>81.7</ele>
        <time>2022-10-06T20:30:05Z</time>
      </trkpt>
      <trkpt lat="10.1102401" lon="-85.3475441">
        <ele>81.3</ele>
        <time>2022-10-06T20:30:06Z</time>
      </trkpt>
      <trkpt lat="10.1102792" lon="-85.3474027">
        <ele>81.7</ele>
        <time>2022-10-06T20:30:07Z</time>
      </trkpt>
      <trkpt lat="10.1103141" lon="-85.3472707">
        <ele>81.5</ele>
        <time>2022-10-06T20:30:08Z</time>
      </trkpt>
      <trkpt lat="10.1103458" lon="-85.3471531">
        <ele>81.4</ele>
        <time>2022-10-06T20:30:09Z</time>
      </trkpt>
      <trkpt lat="10.1103739" lon="-85.3470443">
        <ele>81.3</ele>
        <time>2022-10-06T20:30:10Z</time>
      </trkpt>
      <trkpt lat="10.1104017" lon="-85.3469363">
        <ele>81.3</ele>
        <time>2022-10-06T20:30:11Z</time>
      </trkpt>
      <trkpt lat="10.1104307" lon="-85.3468264">
        <ele>81.3</ele>
        <time>2022-10-06T20:30:12Z</time>
      </trkpt>
      <trkpt lat="10.1104608" lon="-85.3467126">
        <ele>81.5</ele>
        <time>2022-10-06T20:30:13Z</time>
      </trkpt>
      <trkpt lat="10.1104934" lon="-85.3465944">
        <ele>81.4</ele>
        <time>2022-10-06T20:30:14Z</time>
      </trkpt>
      <trkpt lat="10.1105276" lon="-85.3464725">
        <ele>81.6</ele>
        <time>2022-10-06T20:30:15Z</time>
      </trkpt>
      <trkpt lat="10.1105625" lon="-85.3463439">
        <ele>81.4</ele>
        <time>2022-10-06T20:30:16Z</time>
      </trkpt>
      <trkpt lat="10.1105979" lon="-85.3462082">
        <ele>81.2</ele>
        <time>2022-10-06T20:30:17Z</time>
      </trkpt>
      <trkpt lat="10.1106334" lon="-85.3460658">
        <ele>81.1</ele>
        <time>2022-10-06T20:30:18Z</time>
      </trkpt>
      <trkpt lat="10.1106674" lon="-85.3459163">
        <ele>81.0</ele>
        <time>2022-10-06T20:30:19Z</time>
      </trkpt>
      <trkpt lat="10.1107010" lon="-85.3457651">
        <ele>81.0</ele>
        <time>2022-10-06T20:30:20Z</time>
      </trkpt>
      <trkpt lat="10.1107314" lon="-85.3456109">
        <ele>80.9</ele>
        <time>2022-10-06T20:30:21Z</time>
      </trkpt>
      <trkpt lat="10.1107523" lon="-85.3454520">
        <ele>81.3</ele>
        <time>2022-10-06T20:30:22Z</time>
      </trkpt>
      <trkpt lat="10.1107659" lon="-85.3452876">
        <ele>81.1</ele>
        <time>2022-10-06T20:30:23Z</time>
      </trkpt>
      <trkpt lat="10.1107748" lon="-85.3451153">
        <ele>80.9</ele>
        <time>2022-10-06T20:30:24Z</time>
      </trkpt>
      <trkpt lat="10.1107796" lon="-85.3449450">
        <ele>80.9</ele>
        <time>2022-10-06T20:30:25Z</time>
      </trkpt>
      <trkpt lat="10.1107706" lon="-85.3447671">
        <ele>80.7</ele>
        <time>2022-10-06T20:30:26Z</time>
      </trkpt>
      <trkpt lat="10.1107553" lon="-85.3445934">
        <ele>80.7</ele>
        <time>2022-10-06T20:30:27Z</time>
      </trkpt>
      <trkpt lat="10.1107320" lon="-85.3444165">
        <ele>80.7</ele>
        <time>2022-10-06T20:30:28Z</time>
      </trkpt>
      <trkpt lat="10.1107004" lon="-85.3442347">
        <ele>80.6</ele>
        <time>2022-10-06T20:30:29Z</time>
      </trkpt>
      <trkpt lat="10.1106669" lon="-85.3440497">
        <ele>80.4</ele>
        <time>2022-10-06T20:30:30Z</time>
      </trkpt>
      <trkpt lat="10.1106312" lon="-85.3438642">
        <ele>80.4</ele>
        <time>2022-10-06T20:30:31Z</time>
      </trkpt>
      <trkpt lat="10.1105943" lon="-85.3436777">
        <ele>80.5</ele>
        <time>2022-10-06T20:30:32Z</time>
      </trkpt>
      <trkpt lat="10.1105538" lon="-85.3434897">
        <ele>80.2</ele>
        <time>2022-10-06T20:30:33Z</time>
      </trkpt>
      <trkpt lat="10.1105127" lon="-85.3432954">
        <ele>80.1</ele>
        <time>2022-10-06T20:30:34Z</time>
      </trkpt>
      <trkpt lat="10.1104719" lon="-85.3431013">
        <ele>80.1</ele>
        <time>2022-10-06T20:30:35Z</time>
      </trkpt>
      <trkpt lat="10.1104289" lon="-85.3429059">
        <ele>79.9</ele>
        <time>2022-10-06T20:30:36Z</time>
      </trkpt>
      <trkpt lat="10.1103861" lon="-85.3427115">
        <ele>80.2</ele>
        <time>2022-10-06T20:30:37Z</time>
      </trkpt>
      <trkpt lat="10.1103420" lon="-85.3425165">
        <ele>80.0</ele>
        <time>2022-10-06T20:30:38Z</time>
      </trkpt>
      <trkpt lat="10.1102993" lon="-85.3423204">
        <ele>79.9</ele>
        <time>2022-10-06T20:30:39Z</time>
      </trkpt>
      <trkpt lat="10.1102593" lon="-85.3421214">
        <ele>79.9</ele>
        <time>2022-10-06T20:30:40Z</time>
      </trkpt>
      <trkpt lat="10.1102199" lon="-85.3419227">
        <ele>79.9</ele>
        <time>2022-10-06T20:30:41Z</time>
      </trkpt>
      <trkpt lat="10.1101809" lon="-85.3417236">
        <ele>79.6</ele>
        <time>2022-10-06T20:30:42Z</time>
      </trkpt>
      <trkpt lat="10.1101432" lon="-85.3415239">
        <ele>79.5</ele>
        <time>2022-10-06T20:30:43Z</time>
      </trkpt>
      <trkpt lat="10.1101145" lon="-85.3413241">
        <ele>80.0</ele>
        <time>2022-10-06T20:30:44Z</time>
      </trkpt>
      <trkpt lat="10.1100883" lon="-85.3411245">
        <ele>80.2</ele>
        <time>2022-10-06T20:30:45Z</time>
      </trkpt>
      <trkpt lat="10.1100623" lon="-85.3409282">
        <ele>80.5</ele>
        <time>2022-10-06T20:30:46Z</time>
      </trkpt>
      <trkpt lat="10.1100389" lon="-85.3407303">
        <ele>80.8</ele>
        <time>2022-10-06T20:30:47Z</time>
      </trkpt>
      <trkpt lat="10.1100179" lon="-85.3405315">
        <ele>81.2</ele>
        <time>2022-10-06T20:30:48Z</time>
      </trkpt>
      <trkpt lat="10.1099975" lon="-85.3403324">
        <ele>81.5</ele>
        <time>2022-10-06T20:30:49Z</time>
      </trkpt>
      <trkpt lat="10.1099773" lon="-85.3401337">
        <ele>82.0</ele>
        <time>2022-10-06T20:30:50Z</time>
      </trkpt>
      <trkpt lat="10.1099593" lon="-85.3399349">
        <ele>82.5</ele>
        <time>2022-10-06T20:30:51Z</time>
      </trkpt>
      <trkpt lat="10.1099460" lon="-85.3397367">
        <ele>82.9</ele>
        <time>2022-10-06T20:30:52Z</time>
      </trkpt>
      <trkpt lat="10.1099313" lon="-85.3395353">
        <ele>83.4</ele>
        <time>2022-10-06T20:30:53Z</time>
      </trkpt>
      <trkpt lat="10.1099174" lon="-85.3393349">
        <ele>84.1</ele>
        <time>2022-10-06T20:30:54Z</time>
      </trkpt>
      <trkpt lat="10.1099021" lon="-85.3391334">
        <ele>84.6</ele>
        <time>2022-10-06T20:30:55Z</time>
      </trkpt>
      <trkpt lat="10.1098865" lon="-85.3389315">
        <ele>85.1</ele>
        <time>2022-10-06T20:30:56Z</time>
      </trkpt>
      <trkpt lat="10.1098725" lon="-85.3387311">
        <ele>85.8</ele>
        <time>2022-10-06T20:30:57Z</time>
      </trkpt>
      <trkpt lat="10.1098576" lon="-85.3385287">
        <ele>85.8</ele>
        <time>2022-10-06T20:30:58Z</time>
      </trkpt>
      <trkpt lat="10.1098407" lon="-85.3383248">
        <ele>86.3</ele>
        <time>2022-10-06T20:30:59Z</time>
      </trkpt>
      <trkpt lat="10.1098227" lon="-85.3381206">
        <ele>86.8</ele>
        <time>2022-10-06T20:31:00Z</time>
      </trkpt>
      <trkpt lat="10.1098073" lon="-85.3379197">
        <ele>86.9</ele>
        <time>2022-10-06T20:31:01Z</time>
      </trkpt>
      <trkpt lat="10.1097916" lon="-85.3377173">
        <ele>87.6</ele>
        <time>2022-10-06T20:31:02Z</time>
      </trkpt>
      <trkpt lat="10.1097787" lon="-85.3375149">
        <ele>87.7</ele>
        <time>2022-10-06T20:31:03Z</time>
      </trkpt>
      <trkpt lat="10.1097654" lon="-85.3373113">
        <ele>87.5</ele>
        <time>2022-10-06T20:31:04Z</time>
      </trkpt>
      <trkpt lat="10.1097505" lon="-85.3371059">
        <ele>87.7</ele>
        <time>2022-10-06T20:31:05Z</time>
      </trkpt>
      <trkpt lat="10.1097340" lon="-85.3369006">
        <ele>88.1</ele>
        <time>2022-10-06T20:31:06Z</time>
      </trkpt>
      <trkpt lat="10.1097162" lon="-85.3366958">
        <ele>88.1</ele>
        <time>2022-10-06T20:31:07Z</time>
      </trkpt>
      <trkpt lat="10.1097000" lon="-85.3364918">
        <ele>88.1</ele>
        <time>2022-10-06T20:31:08Z</time>
      </trkpt>
      <trkpt lat="10.1096850" lon="-85.3362901">
        <ele>88.3</ele>
        <time>2022-10-06T20:31:09Z</time>
      </trkpt>
      <trkpt lat="10.1096702" lon="-85.3360877">
        <ele>88.6</ele>
        <time>2022-10-06T20:31:10Z</time>
      </trkpt>
      <trkpt lat="10.1096552" lon="-85.3358889">
        <ele>88.6</ele>
        <time>2022-10-06T20:31:11Z</time>
      </trkpt>
      <trkpt lat="10.1096389" lon="-85.3356898">
        <ele>88.7</ele>
        <time>2022-10-06T20:31:12Z</time>
      </trkpt>
      <trkpt lat="10.1096231" lon="-85.3354942">
        <ele>88.9</ele>
        <time>2022-10-06T20:31:13Z</time>
      </trkpt>
      <trkpt lat="10.1096081" lon="-85.3352990">
        <ele>89.0</ele>
        <time>2022-10-06T20:31:14Z</time>
      </trkpt>
      <trkpt lat="10.1095939" lon="-85.3351062">
        <ele>89.1</ele>
        <time>2022-10-06T20:31:15Z</time>
      </trkpt>
      <trkpt lat="10.1095803" lon="-85.3349162">
        <ele>89.1</ele>
        <time>2022-10-06T20:31:16Z</time>
      </trkpt>
      <trkpt lat="10.1095681" lon="-85.3347256">
        <ele>89.2</ele>
        <time>2022-10-06T20:31:17Z</time>
      </trkpt>
      <trkpt lat="10.1095574" lon="-85.3345365">
        <ele>89.3</ele>
        <time>2022-10-06T20:31:18Z</time>
      </trkpt>
      <trkpt lat="10.1095502" lon="-85.3343459">
        <ele>89.5</ele>
        <time>2022-10-06T20:31:19Z</time>
      </trkpt>
      <trkpt lat="10.1095442" lon="-85.3341564">
        <ele>89.5</ele>
        <time>2022-10-06T20:31:20Z</time>
      </trkpt>
      <trkpt lat="10.1095401" lon="-85.3339687">
        <ele>89.7</ele>
        <time>2022-10-06T20:31:21Z</time>
      </trkpt>
      <trkpt lat="10.1095408" lon="-85.3337810">
        <ele>90.1</ele>
        <time>2022-10-06T20:31:22Z</time>
      </trkpt>
      <trkpt lat="10.1095453" lon="-85.3335929">
        <ele>90.2</ele>
        <time>2022-10-06T20:31:23Z</time>
      </trkpt>
      <trkpt lat="10.1095537" lon="-85.3334069">
        <ele>90.1</ele>
        <time>2022-10-06T20:31:24Z</time>
      </trkpt>
      <trkpt lat="10.1095666" lon="-85.3332217">
        <ele>89.6</ele>
        <time>2022-10-06T20:31:25Z</time>
      </trkpt>
      <trkpt lat="10.1095839" lon="-85.3330383">
        <ele>90.0</ele>
        <time>2022-10-06T20:31:26Z</time>
      </trkpt>
      <trkpt lat="10.1096049" lon="-85.3328531">
        <ele>89.7</ele>
        <time>2022-10-06T20:31:27Z</time>
      </trkpt>
      <trkpt lat="10.1096309" lon="-85.3326672">
        <ele>90.3</ele>
        <time>2022-10-06T20:31:28Z</time>
      </trkpt>
      <trkpt lat="10.1096584" lon="-85.3324732">
        <ele>90.4</ele>
        <time>2022-10-06T20:31:29Z</time>
      </trkpt>
      <trkpt lat="10.1096878" lon="-85.3322824">
        <ele>90.5</ele>
        <time>2022-10-06T20:31:30Z</time>
      </trkpt>
      <trkpt lat="10.1097181" lon="-85.3320887">
        <ele>90.8</ele>
        <time>2022-10-06T20:31:31Z</time>
      </trkpt>
      <trkpt lat="10.1097485" lon="-85.3318952">
        <ele>90.7</ele>
        <time>2022-10-06T20:31:32Z</time>
      </trkpt>
      <trkpt lat="10.1097773" lon="-85.3316998">
        <ele>90.7</ele>
        <time>2022-10-06T20:31:33Z</time>
      </trkpt>
      <trkpt lat="10.1098043" lon="-85.3315022">
        <ele>90.3</ele>
        <time>2022-10-06T20:31:34Z</time>
      </trkpt>
      <trkpt lat="10.1098324" lon="-85.3313020">
        <ele>90.3</ele>
        <time>2022-10-06T20:31:35Z</time>
      </trkpt>
      <trkpt lat="10.1098621" lon="-85.3310982">
        <ele>89.8</ele>
        <time>2022-10-06T20:31:36Z</time>
      </trkpt>
      <trkpt lat="10.1098929" lon="-85.3308943">
        <ele>89.0</ele>
        <time>2022-10-06T20:31:37Z</time>
      </trkpt>
      <trkpt lat="10.1099241" lon="-85.3306886">
        <ele>89.0</ele>
        <time>2022-10-06T20:31:38Z</time>
      </trkpt>
      <trkpt lat="10.1099582" lon="-85.3304802">
        <ele>88.0</ele>
        <time>2022-10-06T20:31:39Z</time>
      </trkpt>
      <trkpt lat="10.1099896" lon="-85.3302696">
        <ele>87.0</ele>
        <time>2022-10-06T20:31:40Z</time>
      </trkpt>
      <trkpt lat="10.1100223" lon="-85.3300573">
        <ele>87.0</ele>
        <time>2022-10-06T20:31:41Z</time>
      </trkpt>
      <trkpt lat="10.1100541" lon="-85.3298438">
        <ele>87.1</ele>
        <time>2022-10-06T20:31:42Z</time>
      </trkpt>
      <trkpt lat="10.1100865" lon="-85.3296290">
        <ele>86.6</ele>
        <time>2022-10-06T20:31:43Z</time>
      </trkpt>
      <trkpt lat="10.1101191" lon="-85.3294136">
        <ele>86.3</ele>
        <time>2022-10-06T20:31:44Z</time>
      </trkpt>
      <trkpt lat="10.1101504" lon="-85.3291984">
        <ele>86.1</ele>
        <time>2022-10-06T20:31:45Z</time>
      </trkpt>
      <trkpt lat="10.1101787" lon="-85.3289797">
        <ele>86.2</ele>
        <time>2022-10-06T20:31:46Z</time>
      </trkpt>
      <trkpt lat="10.1101979" lon="-85.3287628">
        <ele>86.2</ele>
        <time>2022-10-06T20:31:47Z</time>
      </trkpt>
      <trkpt lat="10.1102037" lon="-85.3285539">
        <ele>86.6</ele>
        <time>2022-10-06T20:31:48Z</time>
      </trkpt>
      <trkpt lat="10.1102041" lon="-85.3283406">
        <ele>86.6</ele>
        <time>2022-10-06T20:31:49Z</time>
      </trkpt>
      <trkpt lat="10.1101930" lon="-85.3281294">
        <ele>87.0</ele>
        <time>2022-10-06T20:31:50Z</time>
      </trkpt>
      <trkpt lat="10.1101771" lon="-85.3279190">
        <ele>87.6</ele>
        <time>2022-10-06T20:31:51Z</time>
      </trkpt>
      <trkpt lat="10.1101571" lon="-85.3277095">
        <ele>88.3</ele>
        <time>2022-10-06T20:31:52Z</time>
      </trkpt>
      <trkpt lat="10.1101369" lon="-85.3275011">
        <ele>88.3</ele>
        <time>2022-10-06T20:31:53Z</time>
      </trkpt>
      <trkpt lat="10.1101172" lon="-85.3272948">
        <ele>88.3</ele>
        <time>2022-10-06T20:31:54Z</time>
      </trkpt>
      <trkpt lat="10.1100969" lon="-85.3270901">
        <ele>89.0</ele>
        <time>2022-10-06T20:31:55Z</time>
      </trkpt>
      <trkpt lat="10.1100762" lon="-85.3268912">
        <ele>88.9</ele>
        <time>2022-10-06T20:31:56Z</time>
      </trkpt>
      <trkpt lat="10.1100544" lon="-85.3266938">
        <ele>88.8</ele>
        <time>2022-10-06T20:31:57Z</time>
      </trkpt>
      <trkpt lat="10.1100330" lon="-85.3264948">
        <ele>88.8</ele>
        <time>2022-10-06T20:31:58Z</time>
      </trkpt>
      <trkpt lat="10.1100146" lon="-85.3262981">
        <ele>88.6</ele>
        <time>2022-10-06T20:31:59Z</time>
      </trkpt>
      <trkpt lat="10.1099967" lon="-85.3260973">
        <ele>88.2</ele>
        <time>2022-10-06T20:32:00Z</time>
      </trkpt>
      <trkpt lat="10.1099767" lon="-85.3258945">
        <ele>87.7</ele>
        <time>2022-10-06T20:32:01Z</time>
      </trkpt>
      <trkpt lat="10.1099570" lon="-85.3256914">
        <ele>87.2</ele>
        <time>2022-10-06T20:32:02Z</time>
      </trkpt>
      <trkpt lat="10.1099374" lon="-85.3254831">
        <ele>86.8</ele>
        <time>2022-10-06T20:32:03Z</time>
      </trkpt>
      <trkpt lat="10.1099158" lon="-85.3252734">
        <ele>86.4</ele>
        <time>2022-10-06T20:32:04Z</time>
      </trkpt>
      <trkpt lat="10.1098954" lon="-85.3250636">
        <ele>86.5</ele>
        <time>2022-10-06T20:32:05Z</time>
      </trkpt>
      <trkpt lat="10.1098738" lon="-85.3248511">
        <ele>86.5</ele>
        <time>2022-10-06T20:32:06Z</time>
      </trkpt>
      <trkpt lat="10.1098498" lon="-85.3246386">
        <ele>85.8</ele>
        <time>2022-10-06T20:32:07Z</time>
      </trkpt>
      <trkpt lat="10.1098256" lon="-85.3244232">
        <ele>85.3</ele>
        <time>2022-10-06T20:32:08Z</time>
      </trkpt>
      <trkpt lat="10.1098014" lon="-85.3242086">
        <ele>84.9</ele>
        <time>2022-10-06T20:32:09Z</time>
      </trkpt>
      <trkpt lat="10.1097770" lon="-85.3239922">
        <ele>84.5</ele>
        <time>2022-10-06T20:32:10Z</time>
      </trkpt>
      <trkpt lat="10.1097542" lon="-85.3237789">
        <ele>84.3</ele>
        <time>2022-10-06T20:32:11Z</time>
      </trkpt>
      <trkpt lat="10.1097305" lon="-85.3235634">
        <ele>84.0</ele>
        <time>2022-10-06T20:32:12Z</time>
      </trkpt>
      <trkpt lat="10.1097085" lon="-85.3233466">
        <ele>84.0</ele>
        <time>2022-10-06T20:32:13Z</time>
      </trkpt>
      <trkpt lat="10.1096873" lon="-85.3231316">
        <ele>84.0</ele>
        <time>2022-10-06T20:32:14Z</time>
      </trkpt>
      <trkpt lat="10.1096642" lon="-85.3229158">
        <ele>84.3</ele>
        <time>2022-10-06T20:32:15Z</time>
      </trkpt>
      <trkpt lat="10.1096419" lon="-85.3227009">
        <ele>84.9</ele>
        <time>2022-10-06T20:32:16Z</time>
      </trkpt>
      <trkpt lat="10.1096198" lon="-85.3224885">
        <ele>85.0</ele>
        <time>2022-10-06T20:32:17Z</time>
      </trkpt>
      <trkpt lat="10.1095983" lon="-85.3222772">
        <ele>85.0</ele>
        <time>2022-10-06T20:32:18Z</time>
      </trkpt>
      <trkpt lat="10.1095767" lon="-85.3220681">
        <ele>85.6</ele>
        <time>2022-10-06T20:32:19Z</time>
      </trkpt>
      <trkpt lat="10.1095578" lon="-85.3218609">
        <ele>86.2</ele>
        <time>2022-10-06T20:32:20Z</time>
      </trkpt>
      <trkpt lat="10.1095361" lon="-85.3216527">
        <ele>86.7</ele>
        <time>2022-10-06T20:32:21Z</time>
      </trkpt>
      <trkpt lat="10.1095144" lon="-85.3214432">
        <ele>87.3</ele>
        <time>2022-10-06T20:32:22Z</time>
      </trkpt>
      <trkpt lat="10.1094896" lon="-85.3212340">
        <ele>88.1</ele>
        <time>2022-10-06T20:32:23Z</time>
      </trkpt>
      <trkpt lat="10.1094641" lon="-85.3210288">
        <ele>88.6</ele>
        <time>2022-10-06T20:32:24Z</time>
      </trkpt>
      <trkpt lat="10.1094334" lon="-85.3208288">
        <ele>89.1</ele>
        <time>2022-10-06T20:32:25Z</time>
      </trkpt>
      <trkpt lat="10.1094032" lon="-85.3206273">
        <ele>89.7</ele>
        <time>2022-10-06T20:32:26Z</time>
      </trkpt>
      <trkpt lat="10.1093694" lon="-85.3204263">
        <ele>90.2</ele>
        <time>2022-10-06T20:32:27Z</time>
      </trkpt>
      <trkpt lat="10.1093340" lon="-85.3202280">
        <ele>90.8</ele>
        <time>2022-10-06T20:32:28Z</time>
      </trkpt>
      <trkpt lat="10.1092961" lon="-85.3200286">
        <ele>91.3</ele>
        <time>2022-10-06T20:32:29Z</time>
      </trkpt>
      <trkpt lat="10.1092599" lon="-85.3198309">
        <ele>91.4</ele>
        <time>2022-10-06T20:32:30Z</time>
      </trkpt>
      <trkpt lat="10.1092231" lon="-85.3196368">
        <ele>92.0</ele>
        <time>2022-10-06T20:32:31Z</time>
      </trkpt>
      <trkpt lat="10.1091893" lon="-85.3194389">
        <ele>92.2</ele>
        <time>2022-10-06T20:32:32Z</time>
      </trkpt>
      <trkpt lat="10.1091653" lon="-85.3192422">
        <ele>92.4</ele>
        <time>2022-10-06T20:32:33Z</time>
      </trkpt>
      <trkpt lat="10.1091461" lon="-85.3190450">
        <ele>92.4</ele>
        <time>2022-10-06T20:32:34Z</time>
      </trkpt>
      <trkpt lat="10.1091393" lon="-85.3188441">
        <ele>92.3</ele>
        <time>2022-10-06T20:32:35Z</time>
      </trkpt>
      <trkpt lat="10.1091525" lon="-85.3186458">
        <ele>91.7</ele>
        <time>2022-10-06T20:32:36Z</time>
      </trkpt>
      <trkpt lat="10.1091730" lon="-85.3184488">
        <ele>91.1</ele>
        <time>2022-10-06T20:32:37Z</time>
      </trkpt>
      <trkpt lat="10.1092043" lon="-85.3182520">
        <ele>90.2</ele>
        <time>2022-10-06T20:32:38Z</time>
      </trkpt>
      <trkpt lat="10.1092452" lon="-85.3180544">
        <ele>89.5</ele>
        <time>2022-10-06T20:32:39Z</time>
      </trkpt>
      <trkpt lat="10.1092958" lon="-85.3178593">
        <ele>88.7</ele>
        <time>2022-10-06T20:32:40Z</time>
      </trkpt>
      <trkpt lat="10.1093566" lon="-85.3176681">
        <ele>87.8</ele>
        <time>2022-10-06T20:32:41Z</time>
      </trkpt>
      <trkpt lat="10.1094243" lon="-85.3174823">
        <ele>87.0</ele>
        <time>2022-10-06T20:32:42Z</time>
      </trkpt>
      <trkpt lat="10.1094949" lon="-85.3173013">
        <ele>86.2</ele>
        <time>2022-10-06T20:32:43Z</time>
      </trkpt>
      <trkpt lat="10.1095666" lon="-85.3171202">
        <ele>86.1</ele>
        <time>2022-10-06T20:32:44Z</time>
      </trkpt>
      <trkpt lat="10.1096397" lon="-85.3169393">
        <ele>85.3</ele>
        <time>2022-10-06T20:32:45Z</time>
      </trkpt>
      <trkpt lat="10.1097142" lon="-85.3167579">
        <ele>84.5</ele>
        <time>2022-10-06T20:32:46Z</time>
      </trkpt>
      <trkpt lat="10.1097876" lon="-85.3165789">
        <ele>83.6</ele>
        <time>2022-10-06T20:32:47Z</time>
      </trkpt>
      <trkpt lat="10.1098612" lon="-85.3163988">
        <ele>82.7</ele>
        <time>2022-10-06T20:32:48Z</time>
      </trkpt>
      <trkpt lat="10.1099329" lon="-85.3162205">
        <ele>81.8</ele>
        <time>2022-10-06T20:32:49Z</time>
      </trkpt>
      <trkpt lat="10.1100024" lon="-85.3160414">
        <ele>80.9</ele>
        <time>2022-10-06T20:32:50Z</time>
      </trkpt>
      <trkpt lat="10.1100697" lon="-85.3158581">
        <ele>80.1</ele>
        <time>2022-10-06T20:32:51Z</time>
      </trkpt>
      <trkpt lat="10.1101314" lon="-85.3156745">
        <ele>79.4</ele>
        <time>2022-10-06T20:32:52Z</time>
      </trkpt>
      <trkpt lat="10.1101897" lon="-85.3154892">
        <ele>78.6</ele>
        <time>2022-10-06T20:32:53Z</time>
      </trkpt>
      <trkpt lat="10.1102433" lon="-85.3152997">
        <ele>78.0</ele>
        <time>2022-10-06T20:32:54Z</time>
      </trkpt>
      <trkpt lat="10.1102907" lon="-85.3151105">
        <ele>77.5</ele>
        <time>2022-10-06T20:32:55Z</time>
      </trkpt>
      <trkpt lat="10.1103310" lon="-85.3149235">
        <ele>77.1</ele>
        <time>2022-10-06T20:32:56Z</time>
      </trkpt>
      <trkpt lat="10.1103629" lon="-85.3147402">
        <ele>76.8</ele>
        <time>2022-10-06T20:32:57Z</time>
      </trkpt>
      <trkpt lat="10.1103883" lon="-85.3145634">
        <ele>76.2</ele>
        <time>2022-10-06T20:32:58Z</time>
      </trkpt>
      <trkpt lat="10.1104075" lon="-85.3143922">
        <ele>75.8</ele>
        <time>2022-10-06T20:32:59Z</time>
      </trkpt>
      <trkpt lat="10.1104227" lon="-85.3142292">
        <ele>75.5</ele>
        <time>2022-10-06T20:33:00Z</time>
      </trkpt>
      <trkpt lat="10.1104343" lon="-85.3140901">
        <ele>75.6</ele>
        <time>2022-10-06T20:33:01Z</time>
      </trkpt>
      <trkpt lat="10.1104414" lon="-85.3139564">
        <ele>75.4</ele>
        <time>2022-10-06T20:33:02Z</time>
      </trkpt>
      <trkpt lat="10.1104466" lon="-85.3138365">
        <ele>75.2</ele>
        <time>2022-10-06T20:33:03Z</time>
      </trkpt>
      <trkpt lat="10.1104500" lon="-85.3137348">
        <ele>75.1</ele>
        <time>2022-10-06T20:33:04Z</time>
      </trkpt>
      <trkpt lat="10.1104513" lon="-85.3136420">
        <ele>74.9</ele>
        <time>2022-10-06T20:33:05Z</time>
      </trkpt>
      <trkpt lat="10.1104526" lon="-85.3135662">
        <ele>74.8</ele>
        <time>2022-10-06T20:33:06Z</time>
      </trkpt>
      <trkpt lat="10.1104535" lon="-85.3134923">
        <ele>74.6</ele>
        <time>2022-10-06T20:33:07Z</time>
      </trkpt>
      <trkpt lat="10.1104530" lon="-85.3134147">
        <ele>74.4</ele>
        <time>2022-10-06T20:33:08Z</time>
      </trkpt>
      <trkpt lat="10.1104499" lon="-85.3133268">
        <ele>74.1</ele>
        <time>2022-10-06T20:33:09Z</time>
      </trkpt>
      <trkpt lat="10.1104455" lon="-85.3132273">
        <ele>73.9</ele>
        <time>2022-10-06T20:33:10Z</time>
      </trkpt>
      <trkpt lat="10.1104385" lon="-85.3131188">
        <ele>73.7</ele>
        <time>2022-10-06T20:33:11Z</time>
      </trkpt>
      <trkpt lat="10.1104300" lon="-85.3130034">
        <ele>73.5</ele>
        <time>2022-10-06T20:33:12Z</time>
      </trkpt>
      <trkpt lat="10.1104189" lon="-85.3128797">
        <ele>73.5</ele>
        <time>2022-10-06T20:33:13Z</time>
      </trkpt>
      <trkpt lat="10.1104038" lon="-85.3127536">
        <ele>73.2</ele>
        <time>2022-10-06T20:33:14Z</time>
      </trkpt>
      <trkpt lat="10.1103842" lon="-85.3126318">
        <ele>73.0</ele>
        <time>2022-10-06T20:33:15Z</time>
      </trkpt>
      <trkpt lat="10.1103674" lon="-85.3125242">
        <ele>73.1</ele>
        <time>2022-10-06T20:33:16Z</time>
      </trkpt>
      <trkpt lat="10.1103512" lon="-85.3124327">
        <ele>72.9</ele>
        <time>2022-10-06T20:33:17Z</time>
      </trkpt>
      <trkpt lat="10.1103364" lon="-85.3123576">
        <ele>72.7</ele>
        <time>2022-10-06T20:33:18Z</time>
      </trkpt>
      <trkpt lat="10.1103245" lon="-85.3122969">
        <ele>72.7</ele>
        <time>2022-10-06T20:33:19Z</time>
      </trkpt>
      <trkpt lat="10.1103131" lon="-85.3122407">
        <ele>72.5</ele>
        <time>2022-10-06T20:33:20Z</time>
      </trkpt>
      <trkpt lat="10.1103019" lon="-85.3121781">
        <ele>72.3</ele>
        <time>2022-10-06T20:33:21Z</time>
      </trkpt>
      <trkpt lat="10.1102843" lon="-85.3121032">
        <ele>72.1</ele>
        <time>2022-10-06T20:33:22Z</time>
      </trkpt>
      <trkpt lat="10.1102625" lon="-85.3120178">
        <ele>71.9</ele>
        <time>2022-10-06T20:33:23Z</time>
      </trkpt>
      <trkpt lat="10.1102381" lon="-85.3119214">
        <ele>71.7</ele>
        <time>2022-10-06T20:33:24Z</time>
      </trkpt>
      <trkpt lat="10.1102107" lon="-85.3118175">
        <ele>71.5</ele>
        <time>2022-10-06T20:33:25Z</time>
      </trkpt>
      <trkpt lat="10.1101796" lon="-85.3117122">
        <ele>71.3</ele>
        <time>2022-10-06T20:33:26Z</time>
      </trkpt>
      <trkpt lat="10.1101458" lon="-85.3115992">
        <ele>71.1</ele>
        <time>2022-10-06T20:33:27Z</time>
      </trkpt>
      <trkpt lat="10.1101085" lon="-85.3114828">
        <ele>70.9</ele>
        <time>2022-10-06T20:33:28Z</time>
      </trkpt>
      <trkpt lat="10.1100691" lon="-85.3113627">
        <ele>70.7</ele>
        <time>2022-10-06T20:33:29Z</time>
      </trkpt>
      <trkpt lat="10.1100264" lon="-85.3112411">
        <ele>70.6</ele>
        <time>2022-10-06T20:33:30Z</time>
      </trkpt>
      <trkpt lat="10.1099811" lon="-85.3111162">
        <ele>70.4</ele>
        <time>2022-10-06T20:33:31Z</time>
      </trkpt>
      <trkpt lat="10.1099293" lon="-85.3109934">
        <ele>70.3</ele>
        <time>2022-10-06T20:33:32Z</time>
      </trkpt>
      <trkpt lat="10.1098746" lon="-85.3108721">
        <ele>70.1</ele>
        <time>2022-10-06T20:33:33Z</time>
      </trkpt>
      <trkpt lat="10.1098192" lon="-85.3107582">
        <ele>70.0</ele>
        <time>2022-10-06T20:33:34Z</time>
      </trkpt>
      <trkpt lat="10.1097713" lon="-85.3106647">
        <ele>69.9</ele>
        <time>2022-10-06T20:33:35Z</time>
      </trkpt>
      <trkpt lat="10.1097321" lon="-85.3105914">
        <ele>69.8</ele>
        <time>2022-10-06T20:33:36Z</time>
      </trkpt>
      <trkpt lat="10.1097038" lon="-85.3105386">
        <ele>69.7</ele>
        <time>2022-10-06T20:33:37Z</time>
      </trkpt>
      <trkpt lat="10.1096849" lon="-85.3105038">
        <ele>69.6</ele>
        <time>2022-10-06T20:33:38Z</time>
      </trkpt>
      <trkpt lat="10.1096617" lon="-85.3104612">
        <ele>69.5</ele>
        <time>2022-10-06T20:33:39Z</time>
      </trkpt>
      <trkpt lat="10.1096291" lon="-85.3104018">
        <ele>69.4</ele>
        <time>2022-10-06T20:33:40Z</time>
      </trkpt>
      <trkpt lat="10.1095890" lon="-85.3103277">
        <ele>69.3</ele>
        <time>2022-10-06T20:33:41Z</time>
      </trkpt>
      <trkpt lat="10.1095426" lon="-85.3102464">
        <ele>69.3</ele>
        <time>2022-10-06T20:33:42Z</time>
      </trkpt>
      <trkpt lat="10.1094891" lon="-85.3101547">
        <ele>69.2</ele>
        <time>2022-10-06T20:33:43Z</time>
      </trkpt>
      <trkpt lat="10.1094286" lon="-85.3100558">
        <ele>69.0</ele>
        <time>2022-10-06T20:33:44Z</time>
      </trkpt>
      <trkpt lat="10.1093632" lon="-85.3099515">
        <ele>69.3</ele>
        <time>2022-10-06T20:33:45Z</time>
      </trkpt>
      <trkpt lat="10.1092890" lon="-85.3098411">
        <ele>69.2</ele>
        <time>2022-10-06T20:33:46Z</time>
      </trkpt>
      <trkpt lat="10.1092071" lon="-85.3097242">
        <ele>69.1</ele>
        <time>2022-10-06T20:33:47Z</time>
      </trkpt>
      <trkpt lat="10.1091177" lon="-85.3096002">
        <ele>68.9</ele>
        <time>2022-10-06T20:33:48Z</time>
      </trkpt>
      <trkpt lat="10.1090218" lon="-85.3094738">
        <ele>68.9</ele>
        <time>2022-10-06T20:33:49Z</time>
      </trkpt>
      <trkpt lat="10.1089183" lon="-85.3093487">
        <ele>68.7</ele>
        <time>2022-10-06T20:33:50Z</time>
      </trkpt>
      <trkpt lat="10.1088054" lon="-85.3092185">
        <ele>68.5</ele>
        <time>2022-10-06T20:33:51Z</time>
      </trkpt>
      <trkpt lat="10.1086872" lon="-85.3090902">
        <ele>68.4</ele>
        <time>2022-10-06T20:33:52Z</time>
      </trkpt>
      <trkpt lat="10.1085595" lon="-85.3089615">
        <ele>68.2</ele>
        <time>2022-10-06T20:33:53Z</time>
      </trkpt>
      <trkpt lat="10.1084277" lon="-85.3088322">
        <ele>68.1</ele>
        <time>2022-10-06T20:33:54Z</time>
      </trkpt>
      <trkpt lat="10.1082946" lon="-85.3087010">
        <ele>68.2</ele>
        <time>2022-10-06T20:33:55Z</time>
      </trkpt>
      <trkpt lat="10.1081594" lon="-85.3085708">
        <ele>68.3</ele>
        <time>2022-10-06T20:33:56Z</time>
      </trkpt>
      <trkpt lat="10.1080236" lon="-85.3084427">
        <ele>68.5</ele>
        <time>2022-10-06T20:33:57Z</time>
      </trkpt>
      <trkpt lat="10.1078859" lon="-85.3083130">
        <ele>68.9</ele>
        <time>2022-10-06T20:33:58Z</time>
      </trkpt>
      <trkpt lat="10.1077470" lon="-85.3081816">
        <ele>69.1</ele>
        <time>2022-10-06T20:33:59Z</time>
      </trkpt>
      <trkpt lat="10.1076053" lon="-85.3080490">
        <ele>69.9</ele>
        <time>2022-10-06T20:34:00Z</time>
      </trkpt>
      <trkpt lat="10.1074628" lon="-85.3079149">
        <ele>70.9</ele>
        <time>2022-10-06T20:34:01Z</time>
      </trkpt>
      <trkpt lat="10.1073215" lon="-85.3077794">
        <ele>72.2</ele>
        <time>2022-10-06T20:34:02Z</time>
      </trkpt>
      <trkpt lat="10.1071803" lon="-85.3076439">
        <ele>73.7</ele>
        <time>2022-10-06T20:34:03Z</time>
      </trkpt>
      <trkpt lat="10.1070414" lon="-85.3075067">
        <ele>75.0</ele>
        <time>2022-10-06T20:34:04Z</time>
      </trkpt>
      <trkpt lat="10.1069047" lon="-85.3073682">
        <ele>76.2</ele>
        <time>2022-10-06T20:34:05Z</time>
      </trkpt>
      <trkpt lat="10.1067732" lon="-85.3072234">
        <ele>77.7</ele>
        <time>2022-10-06T20:34:06Z</time>
      </trkpt>
      <trkpt lat="10.1066507" lon="-85.3070759">
        <ele>79.0</ele>
        <time>2022-10-06T20:34:07Z</time>
      </trkpt>
      <trkpt lat="10.1065376" lon="-85.3069192">
        <ele>80.1</ele>
        <time>2022-10-06T20:34:08Z</time>
      </trkpt>
      <trkpt lat="10.1064347" lon="-85.3067570">
        <ele>81.1</ele>
        <time>2022-10-06T20:34:09Z</time>
      </trkpt>
      <trkpt lat="10.1063427" lon="-85.3065910">
        <ele>81.9</ele>
        <time>2022-10-06T20:34:10Z</time>
      </trkpt>
      <trkpt lat="10.1062593" lon="-85.3064201">
        <ele>82.6</ele>
        <time>2022-10-06T20:34:11Z</time>
      </trkpt>
      <trkpt lat="10.1061830" lon="-85.3062445">
        <ele>83.3</ele>
        <time>2022-10-06T20:34:12Z</time>
      </trkpt>
      <trkpt lat="10.1061180" lon="-85.3060655">
        <ele>83.8</ele>
        <time>2022-10-06T20:34:13Z</time>
      </trkpt>
      <trkpt lat="10.1060620" lon="-85.3058867">
        <ele>84.1</ele>
        <time>2022-10-06T20:34:14Z</time>
      </trkpt>
      <trkpt lat="10.1060139" lon="-85.3057067">
        <ele>84.3</ele>
        <time>2022-10-06T20:34:15Z</time>
      </trkpt>
      <trkpt lat="10.1059730" lon="-85.3055224">
        <ele>84.4</ele>
        <time>2022-10-06T20:34:16Z</time>
      </trkpt>
      <trkpt lat="10.1059437" lon="-85.3053373">
        <ele>84.4</ele>
        <time>2022-10-06T20:34:17Z</time>
      </trkpt>
      <trkpt lat="10.1059236" lon="-85.3051480">
        <ele>84.3</ele>
        <time>2022-10-06T20:34:18Z</time>
      </trkpt>
      <trkpt lat="10.1059067" lon="-85.3049540">
        <ele>84.1</ele>
        <time>2022-10-06T20:34:19Z</time>
      </trkpt>
      <trkpt lat="10.1059001" lon="-85.3047592">
        <ele>84.0</ele>
        <time>2022-10-06T20:34:20Z</time>
      </trkpt>
      <trkpt lat="10.1059036" lon="-85.3045592">
        <ele>84.2</ele>
        <time>2022-10-06T20:34:21Z</time>
      </trkpt>
      <trkpt lat="10.1059153" lon="-85.3043585">
        <ele>83.6</ele>
        <time>2022-10-06T20:34:22Z</time>
      </trkpt>
      <trkpt lat="10.1059266" lon="-85.3041546">
        <ele>82.7</ele>
        <time>2022-10-06T20:34:23Z</time>
      </trkpt>
      <trkpt lat="10.1059398" lon="-85.3039467">
        <ele>82.0</ele>
        <time>2022-10-06T20:34:24Z</time>
      </trkpt>
      <trkpt lat="10.1059525" lon="-85.3037361">
        <ele>81.1</ele>
        <time>2022-10-06T20:34:25Z</time>
      </trkpt>
      <trkpt lat="10.1059645" lon="-85.3035250">
        <ele>80.3</ele>
        <time>2022-10-06T20:34:26Z</time>
      </trkpt>
      <trkpt lat="10.1059775" lon="-85.3033106">
        <ele>79.5</ele>
        <time>2022-10-06T20:34:27Z</time>
      </trkpt>
      <trkpt lat="10.1059903" lon="-85.3030946">
        <ele>78.8</ele>
        <time>2022-10-06T20:34:28Z</time>
      </trkpt>
      <trkpt lat="10.1060020" lon="-85.3028751">
        <ele>78.2</ele>
        <time>2022-10-06T20:34:29Z</time>
      </trkpt>
      <trkpt lat="10.1060127" lon="-85.3026544">
        <ele>77.7</ele>
        <time>2022-10-06T20:34:30Z</time>
      </trkpt>
      <trkpt lat="10.1060241" lon="-85.3024338">
        <ele>77.4</ele>
        <time>2022-10-06T20:34:31Z</time>
      </trkpt>
      <trkpt lat="10.1060363" lon="-85.3022139">
        <ele>77.1</ele>
        <time>2022-10-06T20:34:32Z</time>
      </trkpt>
      <trkpt lat="10.1060481" lon="-85.3019927">
        <ele>76.6</ele>
        <time>2022-10-06T20:34:33Z</time>
      </trkpt>
      <trkpt lat="10.1060598" lon="-85.3017707">
        <ele>76.2</ele>
        <time>2022-10-06T20:34:34Z</time>
      </trkpt>
      <trkpt lat="10.1060704" lon="-85.3015476">
        <ele>75.7</ele>
        <time>2022-10-06T20:34:35Z</time>
      </trkpt>
      <trkpt lat="10.1060829" lon="-85.3013229">
        <ele>75.3</ele>
        <time>2022-10-06T20:34:36Z</time>
      </trkpt>
      <trkpt lat="10.1060970" lon="-85.3010978">
        <ele>75.2</ele>
        <time>2022-10-06T20:34:37Z</time>
      </trkpt>
      <trkpt lat="10.1061109" lon="-85.3008726">
        <ele>75.0</ele>
        <time>2022-10-06T20:34:38Z</time>
      </trkpt>
      <trkpt lat="10.1061242" lon="-85.3006454">
        <ele>75.0</ele>
        <time>2022-10-06T20:34:39Z</time>
      </trkpt>
      <trkpt lat="10.1061360" lon="-85.3004210">
        <ele>75.1</ele>
        <time>2022-10-06T20:34:40Z</time>
      </trkpt>
      <trkpt lat="10.1061463" lon="-85.3001966">
        <ele>75.0</ele>
        <time>2022-10-06T20:34:41Z</time>
      </trkpt>
      <trkpt lat="10.1061567" lon="-85.2999745">
        <ele>74.8</ele>
        <time>2022-10-06T20:34:42Z</time>
      </trkpt>
      <trkpt lat="10.1061692" lon="-85.2997549">
        <ele>74.9</ele>
        <time>2022-10-06T20:34:43Z</time>
      </trkpt>
      <trkpt lat="10.1061805" lon="-85.2995409">
        <ele>74.8</ele>
        <time>2022-10-06T20:34:44Z</time>
      </trkpt>
      <trkpt lat="10.1061911" lon="-85.2993248">
        <ele>74.7</ele>
        <time>2022-10-06T20:34:45Z</time>
      </trkpt>
      <trkpt lat="10.1062019" lon="-85.2991097">
        <ele>74.6</ele>
        <time>2022-10-06T20:34:46Z</time>
      </trkpt>
      <trkpt lat="10.1062127" lon="-85.2988934">
        <ele>74.5</ele>
        <time>2022-10-06T20:34:47Z</time>
      </trkpt>
      <trkpt lat="10.1062232" lon="-85.2986765">
        <ele>74.3</ele>
        <time>2022-10-06T20:34:48Z</time>
      </trkpt>
      <trkpt lat="10.1062340" lon="-85.2984605">
        <ele>74.2</ele>
        <time>2022-10-06T20:34:49Z</time>
      </trkpt>
      <trkpt lat="10.1062446" lon="-85.2982462">
        <ele>73.9</ele>
        <time>2022-10-06T20:34:50Z</time>
      </trkpt>
      <trkpt lat="10.1062541" lon="-85.2980324">
        <ele>73.4</ele>
        <time>2022-10-06T20:34:51Z</time>
      </trkpt>
      <trkpt lat="10.1062643" lon="-85.2978199">
        <ele>72.9</ele>
        <time>2022-10-06T20:34:52Z</time>
      </trkpt>
      <trkpt lat="10.1062742" lon="-85.2976085">
        <ele>72.9</ele>
        <time>2022-10-06T20:34:53Z</time>
      </trkpt>
      <trkpt lat="10.1062832" lon="-85.2973956">
        <ele>72.4</ele>
        <time>2022-10-06T20:34:54Z</time>
      </trkpt>
      <trkpt lat="10.1062881" lon="-85.2971826">
        <ele>72.0</ele>
        <time>2022-10-06T20:34:55Z</time>
      </trkpt>
      <trkpt lat="10.1062864" lon="-85.2969705">
        <ele>71.4</ele>
        <time>2022-10-06T20:34:56Z</time>
      </trkpt>
      <trkpt lat="10.1062792" lon="-85.2967594">
        <ele>71.1</ele>
        <time>2022-10-06T20:34:57Z</time>
      </trkpt>
      <trkpt lat="10.1062691" lon="-85.2965498">
        <ele>71.1</ele>
        <time>2022-10-06T20:34:58Z</time>
      </trkpt>
      <trkpt lat="10.1062522" lon="-85.2963401">
        <ele>70.6</ele>
        <time>2022-10-06T20:34:59Z</time>
      </trkpt>
      <trkpt lat="10.1062321" lon="-85.2961304">
        <ele>70.2</ele>
        <time>2022-10-06T20:35:00Z</time>
      </trkpt>
      <trkpt lat="10.1062133" lon="-85.2959234">
        <ele>70.3</ele>
        <time>2022-10-06T20:35:01Z</time>
      </trkpt>
      <trkpt lat="10.1061945" lon="-85.2957167">
        <ele>70.3</ele>
        <time>2022-10-06T20:35:02Z</time>
      </trkpt>
      <trkpt lat="10.1061756" lon="-85.2955102">
        <ele>70.0</ele>
        <time>2022-10-06T20:35:03Z</time>
      </trkpt>
      <trkpt lat="10.1061540" lon="-85.2952992">
        <ele>69.8</ele>
        <time>2022-10-06T20:35:04Z</time>
      </trkpt>
      <trkpt lat="10.1061339" lon="-85.2950878">
        <ele>69.4</ele>
        <time>2022-10-06T20:35:05Z</time>
      </trkpt>
      <trkpt lat="10.1061135" lon="-85.2948732">
        <ele>69.6</ele>
        <time>2022-10-06T20:35:06Z</time>
      </trkpt>
      <trkpt lat="10.1060950" lon="-85.2946596">
        <ele>69.5</ele>
        <time>2022-10-06T20:35:07Z</time>
      </trkpt>
      <trkpt lat="10.1060757" lon="-85.2944452">
        <ele>69.4</ele>
        <time>2022-10-06T20:35:08Z</time>
      </trkpt>
      <trkpt lat="10.1060537" lon="-85.2942281">
        <ele>69.2</ele>
        <time>2022-10-06T20:35:09Z</time>
      </trkpt>
      <trkpt lat="10.1060309" lon="-85.2940097">
        <ele>68.9</ele>
        <time>2022-10-06T20:35:10Z</time>
      </trkpt>
      <trkpt lat="10.1060074" lon="-85.2937893">
        <ele>68.8</ele>
        <time>2022-10-06T20:35:11Z</time>
      </trkpt>
      <trkpt lat="10.1059774" lon="-85.2935724">
        <ele>69.1</ele>
        <time>2022-10-06T20:35:12Z</time>
      </trkpt>
      <trkpt lat="10.1059391" lon="-85.2933564">
        <ele>69.2</ele>
        <time>2022-10-06T20:35:13Z</time>
      </trkpt>
      <trkpt lat="10.1058860" lon="-85.2931450">
        <ele>69.2</ele>
        <time>2022-10-06T20:35:14Z</time>
      </trkpt>
      <trkpt lat="10.1058172" lon="-85.2929366">
        <ele>69.7</ele>
        <time>2022-10-06T20:35:15Z</time>
      </trkpt>
      <trkpt lat="10.1057397" lon="-85.2927311">
        <ele>69.9</ele>
        <time>2022-10-06T20:35:16Z</time>
      </trkpt>
      <trkpt lat="10.1056440" lon="-85.2925314">
        <ele>71.2</ele>
        <time>2022-10-06T20:35:17Z</time>
      </trkpt>
      <trkpt lat="10.1055447" lon="-85.2923418">
        <ele>71.8</ele>
        <time>2022-10-06T20:35:18Z</time>
      </trkpt>
      <trkpt lat="10.1054380" lon="-85.2921590">
        <ele>72.0</ele>
        <time>2022-10-06T20:35:19Z</time>
      </trkpt>
      <trkpt lat="10.1053172" lon="-85.2919840">
        <ele>72.1</ele>
        <time>2022-10-06T20:35:20Z</time>
      </trkpt>
      <trkpt lat="10.1051908" lon="-85.2918148">
        <ele>72.5</ele>
        <time>2022-10-06T20:35:21Z</time>
      </trkpt>
      <trkpt lat="10.1050509" lon="-85.2916538">
        <ele>74.3</ele>
        <time>2022-10-06T20:35:22Z</time>
      </trkpt>
      <trkpt lat="10.1049018" lon="-85.2915061">
        <ele>75.8</ele>
        <time>2022-10-06T20:35:23Z</time>
      </trkpt>
      <trkpt lat="10.1047426" lon="-85.2913695">
        <ele>77.0</ele>
        <time>2022-10-06T20:35:24Z</time>
      </trkpt>
      <trkpt lat="10.1045816" lon="-85.2912369">
        <ele>76.9</ele>
        <time>2022-10-06T20:35:25Z</time>
      </trkpt>
      <trkpt lat="10.1044125" lon="-85.2911157">
        <ele>77.3</ele>
        <time>2022-10-06T20:35:26Z</time>
      </trkpt>
      <trkpt lat="10.1042406" lon="-85.2909916">
        <ele>77.3</ele>
        <time>2022-10-06T20:35:27Z</time>
      </trkpt>
      <trkpt lat="10.1040658" lon="-85.2908713">
        <ele>77.0</ele>
        <time>2022-10-06T20:35:28Z</time>
      </trkpt>
      <trkpt lat="10.1038894" lon="-85.2907503">
        <ele>76.5</ele>
        <time>2022-10-06T20:35:29Z</time>
      </trkpt>
      <trkpt lat="10.1037122" lon="-85.2906274">
        <ele>75.9</ele>
        <time>2022-10-06T20:35:30Z</time>
      </trkpt>
      <trkpt lat="10.1035325" lon="-85.2905035">
        <ele>74.8</ele>
        <time>2022-10-06T20:35:31Z</time>
      </trkpt>
      <trkpt lat="10.1033512" lon="-85.2903785">
        <ele>73.5</ele>
        <time>2022-10-06T20:35:32Z</time>
      </trkpt>
      <trkpt lat="10.1031705" lon="-85.2902503">
        <ele>73.5</ele>
        <time>2022-10-06T20:35:33Z</time>
      </trkpt>
      <trkpt lat="10.1029855" lon="-85.2901208">
        <ele>71.9</ele>
        <time>2022-10-06T20:35:34Z</time>
      </trkpt>
      <trkpt lat="10.1028002" lon="-85.2899912">
        <ele>70.6</ele>
        <time>2022-10-06T20:35:35Z</time>
      </trkpt>
      <trkpt lat="10.1026135" lon="-85.2898609">
        <ele>69.5</ele>
        <time>2022-10-06T20:35:36Z</time>
      </trkpt>
      <trkpt lat="10.1024284" lon="-85.2897325">
        <ele>68.7</ele>
        <time>2022-10-06T20:35:37Z</time>
      </trkpt>
      <trkpt lat="10.1022441" lon="-85.2896027">
        <ele>68.1</ele>
        <time>2022-10-06T20:35:38Z</time>
      </trkpt>
      <trkpt lat="10.1020576" lon="-85.2894760">
        <ele>67.4</ele>
        <time>2022-10-06T20:35:39Z</time>
      </trkpt>
      <trkpt lat="10.1018748" lon="-85.2893485">
        <ele>67.3</ele>
        <time>2022-10-06T20:35:40Z</time>
      </trkpt>
      <trkpt lat="10.1016919" lon="-85.2892226">
        <ele>67.6</ele>
        <time>2022-10-06T20:35:41Z</time>
      </trkpt>
      <trkpt lat="10.1015087" lon="-85.2890950">
        <ele>67.2</ele>
        <time>2022-10-06T20:35:42Z</time>
      </trkpt>
      <trkpt lat="10.1013276" lon="-85.2889661">
        <ele>66.9</ele>
        <time>2022-10-06T20:35:43Z</time>
      </trkpt>
      <trkpt lat="10.1011453" lon="-85.2888388">
        <ele>66.3</ele>
        <time>2022-10-06T20:35:44Z</time>
      </trkpt>
      <trkpt lat="10.1009665" lon="-85.2887117">
        <ele>66.4</ele>
        <time>2022-10-06T20:35:45Z</time>
      </trkpt>
      <trkpt lat="10.1007884" lon="-85.2885858">
        <ele>65.8</ele>
        <time>2022-10-06T20:35:46Z</time>
      </trkpt>
      <trkpt lat="10.1006095" lon="-85.2884604">
        <ele>65.3</ele>
        <time>2022-10-06T20:35:47Z</time>
      </trkpt>
      <trkpt lat="10.1004341" lon="-85.2883361">
        <ele>64.9</ele>
        <time>2022-10-06T20:35:48Z</time>
      </trkpt>
      <trkpt lat="10.1002609" lon="-85.2882133">
        <ele>64.8</ele>
        <time>2022-10-06T20:35:49Z</time>
      </trkpt>
      <trkpt lat="10.1000891" lon="-85.2880914">
        <ele>64.4</ele>
        <time>2022-10-06T20:35:50Z</time>
      </trkpt>
      <trkpt lat="10.0999161" lon="-85.2879724">
        <ele>63.8</ele>
        <time>2022-10-06T20:35:51Z</time>
      </trkpt>
      <trkpt lat="10.0997462" lon="-85.2878549">
        <ele>63.6</ele>
        <time>2022-10-06T20:35:52Z</time>
      </trkpt>
      <trkpt lat="10.0995793" lon="-85.2877404">
        <ele>63.6</ele>
        <time>2022-10-06T20:35:53Z</time>
      </trkpt>
      <trkpt lat="10.0994173" lon="-85.2876255">
        <ele>63.8</ele>
        <time>2022-10-06T20:35:54Z</time>
      </trkpt>
      <trkpt lat="10.0992557" lon="-85.2875126">
        <ele>64.0</ele>
        <time>2022-10-06T20:35:55Z</time>
      </trkpt>
      <trkpt lat="10.0990966" lon="-85.2874012">
        <ele>64.3</ele>
        <time>2022-10-06T20:35:56Z</time>
      </trkpt>
      <trkpt lat="10.0989395" lon="-85.2872918">
        <ele>64.5</ele>
        <time>2022-10-06T20:35:57Z</time>
      </trkpt>
      <trkpt lat="10.0987796" lon="-85.2871810">
        <ele>64.4</ele>
        <time>2022-10-06T20:35:58Z</time>
      </trkpt>
      <trkpt lat="10.0986197" lon="-85.2870809">
        <ele>64.8</ele>
        <time>2022-10-06T20:35:59Z</time>
      </trkpt>
      <trkpt lat="10.0984523" lon="-85.2869810">
        <ele>64.7</ele>
        <time>2022-10-06T20:36:00Z</time>
      </trkpt>
      <trkpt lat="10.0982848" lon="-85.2868955">
        <ele>65.2</ele>
        <time>2022-10-06T20:36:01Z</time>
      </trkpt>
      <trkpt lat="10.0981118" lon="-85.2868199">
        <ele>65.5</ele>
        <time>2022-10-06T20:36:02Z</time>
      </trkpt>
      <trkpt lat="10.0979382" lon="-85.2867567">
        <ele>65.7</ele>
        <time>2022-10-06T20:36:03Z</time>
      </trkpt>
      <trkpt lat="10.0977629" lon="-85.2867039">
        <ele>65.9</ele>
        <time>2022-10-06T20:36:04Z</time>
      </trkpt>
      <trkpt lat="10.0975929" lon="-85.2866587">
        <ele>66.2</ele>
        <time>2022-10-06T20:36:05Z</time>
      </trkpt>
      <trkpt lat="10.0974242" lon="-85.2866172">
        <ele>66.2</ele>
        <time>2022-10-06T20:36:06Z</time>
      </trkpt>
      <trkpt lat="10.0972575" lon="-85.2865870">
        <ele>66.5</ele>
        <time>2022-10-06T20:36:07Z</time>
      </trkpt>
      <trkpt lat="10.0970943" lon="-85.2865653">
        <ele>66.9</ele>
        <time>2022-10-06T20:36:08Z</time>
      </trkpt>
      <trkpt lat="10.0969339" lon="-85.2865478">
        <ele>67.3</ele>
        <time>2022-10-06T20:36:09Z</time>
      </trkpt>
      <trkpt lat="10.0967740" lon="-85.2865335">
        <ele>67.6</ele>
        <time>2022-10-06T20:36:10Z</time>
      </trkpt>
      <trkpt lat="10.0966130" lon="-85.2865180">
        <ele>67.9</ele>
        <time>2022-10-06T20:36:11Z</time>
      </trkpt>
      <trkpt lat="10.0964499" lon="-85.2865021">
        <ele>68.0</ele>
        <time>2022-10-06T20:36:12Z</time>
      </trkpt>
      <trkpt lat="10.0962909" lon="-85.2864790">
        <ele>68.3</ele>
        <time>2022-10-06T20:36:13Z</time>
      </trkpt>
      <trkpt lat="10.0961323" lon="-85.2864504">
        <ele>68.5</ele>
        <time>2022-10-06T20:36:14Z</time>
      </trkpt>
      <trkpt lat="10.0959766" lon="-85.2864169">
        <ele>68.4</ele>
        <time>2022-10-06T20:36:15Z</time>
      </trkpt>
      <trkpt lat="10.0958261" lon="-85.2863747">
        <ele>68.8</ele>
        <time>2022-10-06T20:36:16Z</time>
      </trkpt>
      <trkpt lat="10.0956822" lon="-85.2863240">
        <ele>69.0</ele>
        <time>2022-10-06T20:36:17Z</time>
      </trkpt>
      <trkpt lat="10.0955417" lon="-85.2862698">
        <ele>69.2</ele>
        <time>2022-10-06T20:36:18Z</time>
      </trkpt>
      <trkpt lat="10.0954057" lon="-85.2862122">
        <ele>69.5</ele>
        <time>2022-10-06T20:36:19Z</time>
      </trkpt>
      <trkpt lat="10.0952745" lon="-85.2861511">
        <ele>69.9</ele>
        <time>2022-10-06T20:36:20Z</time>
      </trkpt>
      <trkpt lat="10.0951483" lon="-85.2860866">
        <ele>70.2</ele>
        <time>2022-10-06T20:36:21Z</time>
      </trkpt>
      <trkpt lat="10.0950224" lon="-85.2860169">
        <ele>70.3</ele>
        <time>2022-10-06T20:36:22Z</time>
      </trkpt>
      <trkpt lat="10.0949027" lon="-85.2859425">
        <ele>70.4</ele>
        <time>2022-10-06T20:36:23Z</time>
      </trkpt>
      <trkpt lat="10.0947871" lon="-85.2858639">
        <ele>70.5</ele>
        <time>2022-10-06T20:36:24Z</time>
      </trkpt>
      <trkpt lat="10.0946694" lon="-85.2857792">
        <ele>70.5</ele>
        <time>2022-10-06T20:36:25Z</time>
      </trkpt>
      <trkpt lat="10.0945572" lon="-85.2856890">
        <ele>70.7</ele>
        <time>2022-10-06T20:36:26Z</time>
      </trkpt>
      <trkpt lat="10.0944469" lon="-85.2855933">
        <ele>71.0</ele>
        <time>2022-10-06T20:36:27Z</time>
      </trkpt>
      <trkpt lat="10.0943429" lon="-85.2854940">
        <ele>71.2</ele>
        <time>2022-10-06T20:36:28Z</time>
      </trkpt>
      <trkpt lat="10.0942429" lon="-85.2853913">
        <ele>71.6</ele>
        <time>2022-10-06T20:36:29Z</time>
      </trkpt>
      <trkpt lat="10.0941456" lon="-85.2852861">
        <ele>72.2</ele>
        <time>2022-10-06T20:36:30Z</time>
      </trkpt>
      <trkpt lat="10.0940525" lon="-85.2851784">
        <ele>72.6</ele>
        <time>2022-10-06T20:36:31Z</time>
      </trkpt>
      <trkpt lat="10.0939595" lon="-85.2850700">
        <ele>73.0</ele>
        <time>2022-10-06T20:36:32Z</time>
      </trkpt>
      <trkpt lat="10.0938676" lon="-85.2849587">
        <ele>73.3</ele>
        <time>2022-10-06T20:36:33Z</time>
      </trkpt>
      <trkpt lat="10.0937783" lon="-85.2848494">
        <ele>73.7</ele>
        <time>2022-10-06T20:36:34Z</time>
      </trkpt>
      <trkpt lat="10.0936899" lon="-85.2847422">
        <ele>74.2</ele>
        <time>2022-10-06T20:36:35Z</time>
      </trkpt>
      <trkpt lat="10.0936013" lon="-85.2846349">
        <ele>74.7</ele>
        <time>2022-10-06T20:36:36Z</time>
      </trkpt>
      <trkpt lat="10.0935102" lon="-85.2845255">
        <ele>75.2</ele>
        <time>2022-10-06T20:36:37Z</time>
      </trkpt>
      <trkpt lat="10.0934203" lon="-85.2844166">
        <ele>75.6</ele>
        <time>2022-10-06T20:36:38Z</time>
      </trkpt>
      <trkpt lat="10.0933306" lon="-85.2843081">
        <ele>76.0</ele>
        <time>2022-10-06T20:36:39Z</time>
      </trkpt>
      <trkpt lat="10.0932425" lon="-85.2841993">
        <ele>76.4</ele>
        <time>2022-10-06T20:36:40Z</time>
      </trkpt>
      <trkpt lat="10.0931523" lon="-85.2840907">
        <ele>76.9</ele>
        <time>2022-10-06T20:36:41Z</time>
      </trkpt>
      <trkpt lat="10.0930623" lon="-85.2839822">
        <ele>77.4</ele>
        <time>2022-10-06T20:36:42Z</time>
      </trkpt>
      <trkpt lat="10.0929740" lon="-85.2838740">
        <ele>78.0</ele>
        <time>2022-10-06T20:36:43Z</time>
      </trkpt>
      <trkpt lat="10.0928875" lon="-85.2837680">
        <ele>78.4</ele>
        <time>2022-10-06T20:36:44Z</time>
      </trkpt>
      <trkpt lat="10.0928016" lon="-85.2836642">
        <ele>78.7</ele>
        <time>2022-10-06T20:36:45Z</time>
      </trkpt>
      <trkpt lat="10.0927176" lon="-85.2835614">
        <ele>78.7</ele>
        <time>2022-10-06T20:36:46Z</time>
      </trkpt>
      <trkpt lat="10.0926316" lon="-85.2834591">
        <ele>78.8</ele>
        <time>2022-10-06T20:36:47Z</time>
      </trkpt>
      <trkpt lat="10.0925472" lon="-85.2833554">
        <ele>78.9</ele>
        <time>2022-10-06T20:36:48Z</time>
      </trkpt>
      <trkpt lat="10.0924594" lon="-85.2832483">
        <ele>78.8</ele>
        <time>2022-10-06T20:36:49Z</time>
      </trkpt>
      <trkpt lat="10.0923682" lon="-85.2831390">
        <ele>78.7</ele>
        <time>2022-10-06T20:36:50Z</time>
      </trkpt>
      <trkpt lat="10.0922749" lon="-85.2830256">
        <ele>78.6</ele>
        <time>2022-10-06T20:36:51Z</time>
      </trkpt>
      <trkpt lat="10.0921794" lon="-85.2829110">
        <ele>78.4</ele>
        <time>2022-10-06T20:36:52Z</time>
      </trkpt>
      <trkpt lat="10.0920819" lon="-85.2827962">
        <ele>78.4</ele>
        <time>2022-10-06T20:36:53Z</time>
      </trkpt>
      <trkpt lat="10.0919838" lon="-85.2826807">
        <ele>77.9</ele>
        <time>2022-10-06T20:36:54Z</time>
      </trkpt>
      <trkpt lat="10.0918864" lon="-85.2825634">
        <ele>77.4</ele>
        <time>2022-10-06T20:36:55Z</time>
      </trkpt>
      <trkpt lat="10.0917900" lon="-85.2824469">
        <ele>76.8</ele>
        <time>2022-10-06T20:36:56Z</time>
      </trkpt>
      <trkpt lat="10.0916976" lon="-85.2823345">
        <ele>76.2</ele>
        <time>2022-10-06T20:36:57Z</time>
      </trkpt>
      <trkpt lat="10.0916095" lon="-85.2822288">
        <ele>75.6</ele>
        <time>2022-10-06T20:36:58Z</time>
      </trkpt>
      <trkpt lat="10.0915213" lon="-85.2821232">
        <ele>75.0</ele>
        <time>2022-10-06T20:36:59Z</time>
      </trkpt>
      <trkpt lat="10.0914347" lon="-85.2820197">
        <ele>74.4</ele>
        <time>2022-10-06T20:37:00Z</time>
      </trkpt>
      <trkpt lat="10.0913476" lon="-85.2819169">
        <ele>73.8</ele>
        <time>2022-10-06T20:37:01Z</time>
      </trkpt>
      <trkpt lat="10.0912612" lon="-85.2818154">
        <ele>73.2</ele>
        <time>2022-10-06T20:37:02Z</time>
      </trkpt>
      <trkpt lat="10.0911773" lon="-85.2817152">
        <ele>72.6</ele>
        <time>2022-10-06T20:37:03Z</time>
      </trkpt>
      <trkpt lat="10.0910965" lon="-85.2816188">
        <ele>72.1</ele>
        <time>2022-10-06T20:37:04Z</time>
      </trkpt>
      <trkpt lat="10.0910150" lon="-85.2815236">
        <ele>71.7</ele>
        <time>2022-10-06T20:37:05Z</time>
      </trkpt>
      <trkpt lat="10.0909353" lon="-85.2814275">
        <ele>71.7</ele>
        <time>2022-10-06T20:37:06Z</time>
      </trkpt>
      <trkpt lat="10.0908540" lon="-85.2813285">
        <ele>71.3</ele>
        <time>2022-10-06T20:37:07Z</time>
      </trkpt>
      <trkpt lat="10.0907669" lon="-85.2812270">
        <ele>71.0</ele>
        <time>2022-10-06T20:37:08Z</time>
      </trkpt>
      <trkpt lat="10.0906787" lon="-85.2811272">
        <ele>70.7</ele>
        <time>2022-10-06T20:37:09Z</time>
      </trkpt>
      <trkpt lat="10.0905892" lon="-85.2810270">
        <ele>70.5</ele>
        <time>2022-10-06T20:37:10Z</time>
      </trkpt>
      <trkpt lat="10.0904952" lon="-85.2809279">
        <ele>70.1</ele>
        <time>2022-10-06T20:37:11Z</time>
      </trkpt>
      <trkpt lat="10.0904002" lon="-85.2808307">
        <ele>69.8</ele>
        <time>2022-10-06T20:37:12Z</time>
      </trkpt>
      <trkpt lat="10.0903000" lon="-85.2807281">
        <ele>69.9</ele>
        <time>2022-10-06T20:37:13Z</time>
      </trkpt>
      <trkpt lat="10.0901966" lon="-85.2806273">
        <ele>69.4</ele>
        <time>2022-10-06T20:37:14Z</time>
      </trkpt>
      <trkpt lat="10.0900901" lon="-85.2805285">
        <ele>69.1</ele>
        <time>2022-10-06T20:37:15Z</time>
      </trkpt>
      <trkpt lat="10.0899800" lon="-85.2804266">
        <ele>69.1</ele>
        <time>2022-10-06T20:37:16Z</time>
      </trkpt>
      <trkpt lat="10.0898665" lon="-85.2803231">
        <ele>68.8</ele>
        <time>2022-10-06T20:37:17Z</time>
      </trkpt>
      <trkpt lat="10.0897469" lon="-85.2802204">
        <ele>68.5</ele>
        <time>2022-10-06T20:37:18Z</time>
      </trkpt>
      <trkpt lat="10.0896241" lon="-85.2801182">
        <ele>68.3</ele>
        <time>2022-10-06T20:37:19Z</time>
      </trkpt>
      <trkpt lat="10.0894974" lon="-85.2800185">
        <ele>68.0</ele>
        <time>2022-10-06T20:37:20Z</time>
      </trkpt>
      <trkpt lat="10.0893699" lon="-85.2799245">
        <ele>67.6</ele>
        <time>2022-10-06T20:37:21Z</time>
      </trkpt>
      <trkpt lat="10.0892405" lon="-85.2798329">
        <ele>67.3</ele>
        <time>2022-10-06T20:37:22Z</time>
      </trkpt>
      <trkpt lat="10.0891110" lon="-85.2797409">
        <ele>66.9</ele>
        <time>2022-10-06T20:37:23Z</time>
      </trkpt>
      <trkpt lat="10.0889814" lon="-85.2796486">
        <ele>66.6</ele>
        <time>2022-10-06T20:37:24Z</time>
      </trkpt>
      <trkpt lat="10.0888509" lon="-85.2795538">
        <ele>66.3</ele>
        <time>2022-10-06T20:37:25Z</time>
      </trkpt>
      <trkpt lat="10.0887176" lon="-85.2794574">
        <ele>66.0</ele>
        <time>2022-10-06T20:37:26Z</time>
      </trkpt>
      <trkpt lat="10.0885810" lon="-85.2793521">
        <ele>65.6</ele>
        <time>2022-10-06T20:37:27Z</time>
      </trkpt>
      <trkpt lat="10.0884373" lon="-85.2792389">
        <ele>65.3</ele>
        <time>2022-10-06T20:37:28Z</time>
      </trkpt>
      <trkpt lat="10.0882886" lon="-85.2791246">
        <ele>64.9</ele>
        <time>2022-10-06T20:37:29Z</time>
      </trkpt>
      <trkpt lat="10.0881317" lon="-85.2790070">
        <ele>64.8</ele>
        <time>2022-10-06T20:37:30Z</time>
      </trkpt>
      <trkpt lat="10.0879729" lon="-85.2788901">
        <ele>64.5</ele>
        <time>2022-10-06T20:37:31Z</time>
      </trkpt>
      <trkpt lat="10.0878073" lon="-85.2787708">
        <ele>64.1</ele>
        <time>2022-10-06T20:37:32Z</time>
      </trkpt>
      <trkpt lat="10.0876395" lon="-85.2786535">
        <ele>63.7</ele>
        <time>2022-10-06T20:37:33Z</time>
      </trkpt>
      <trkpt lat="10.0874657" lon="-85.2785293">
        <ele>63.5</ele>
        <time>2022-10-06T20:37:34Z</time>
      </trkpt>
      <trkpt lat="10.0872829" lon="-85.2784034">
        <ele>63.4</ele>
        <time>2022-10-06T20:37:35Z</time>
      </trkpt>
      <trkpt lat="10.0870952" lon="-85.2782769">
        <ele>63.3</ele>
        <time>2022-10-06T20:37:36Z</time>
      </trkpt>
      <trkpt lat="10.0869011" lon="-85.2781448">
        <ele>63.4</ele>
        <time>2022-10-06T20:37:37Z</time>
      </trkpt>
      <trkpt lat="10.0867068" lon="-85.2780135">
        <ele>63.5</ele>
        <time>2022-10-06T20:37:38Z</time>
      </trkpt>
      <trkpt lat="10.0865132" lon="-85.2778823">
        <ele>63.5</ele>
        <time>2022-10-06T20:37:39Z</time>
      </trkpt>
      <trkpt lat="10.0863190" lon="-85.2777545">
        <ele>63.7</ele>
        <time>2022-10-06T20:37:40Z</time>
      </trkpt>
      <trkpt lat="10.0861239" lon="-85.2776333">
        <ele>64.0</ele>
        <time>2022-10-06T20:37:41Z</time>
      </trkpt>
      <trkpt lat="10.0859283" lon="-85.2775242">
        <ele>64.3</ele>
        <time>2022-10-06T20:37:42Z</time>
      </trkpt>
      <trkpt lat="10.0857305" lon="-85.2774268">
        <ele>64.7</ele>
        <time>2022-10-06T20:37:43Z</time>
      </trkpt>
      <trkpt lat="10.0855323" lon="-85.2773351">
        <ele>64.9</ele>
        <time>2022-10-06T20:37:44Z</time>
      </trkpt>
      <trkpt lat="10.0853362" lon="-85.2772580">
        <ele>65.1</ele>
        <time>2022-10-06T20:37:45Z</time>
      </trkpt>
      <trkpt lat="10.0851378" lon="-85.2771848">
        <ele>65.3</ele>
        <time>2022-10-06T20:37:46Z</time>
      </trkpt>
      <trkpt lat="10.0849424" lon="-85.2771143">
        <ele>65.4</ele>
        <time>2022-10-06T20:37:47Z</time>
      </trkpt>
      <trkpt lat="10.0847506" lon="-85.2770474">
        <ele>65.3</ele>
        <time>2022-10-06T20:37:48Z</time>
      </trkpt>
      <trkpt lat="10.0845612" lon="-85.2769805">
        <ele>65.4</ele>
        <time>2022-10-06T20:37:49Z</time>
      </trkpt>
      <trkpt lat="10.0843670" lon="-85.2769142">
        <ele>65.2</ele>
        <time>2022-10-06T20:37:50Z</time>
      </trkpt>
      <trkpt lat="10.0841764" lon="-85.2768487">
        <ele>65.1</ele>
        <time>2022-10-06T20:37:51Z</time>
      </trkpt>
      <trkpt lat="10.0839842" lon="-85.2767815">
        <ele>64.9</ele>
        <time>2022-10-06T20:37:52Z</time>
      </trkpt>
      <trkpt lat="10.0837911" lon="-85.2767132">
        <ele>64.7</ele>
        <time>2022-10-06T20:37:53Z</time>
      </trkpt>
      <trkpt lat="10.0835956" lon="-85.2766457">
        <ele>64.5</ele>
        <time>2022-10-06T20:37:54Z</time>
      </trkpt>
      <trkpt lat="10.0833980" lon="-85.2765766">
        <ele>64.6</ele>
        <time>2022-10-06T20:37:55Z</time>
      </trkpt>
      <trkpt lat="10.0832018" lon="-85.2765069">
        <ele>64.3</ele>
        <time>2022-10-06T20:37:56Z</time>
      </trkpt>
      <trkpt lat="10.0830037" lon="-85.2764361">
        <ele>64.1</ele>
        <time>2022-10-06T20:37:57Z</time>
      </trkpt>
      <trkpt lat="10.0828045" lon="-85.2763645">
        <ele>63.9</ele>
        <time>2022-10-06T20:37:58Z</time>
      </trkpt>
      <trkpt lat="10.0826063" lon="-85.2762948">
        <ele>63.7</ele>
        <time>2022-10-06T20:37:59Z</time>
      </trkpt>
      <trkpt lat="10.0824079" lon="-85.2762242">
        <ele>63.4</ele>
        <time>2022-10-06T20:38:00Z</time>
      </trkpt>
      <trkpt lat="10.0822105" lon="-85.2761530">
        <ele>63.2</ele>
        <time>2022-10-06T20:38:01Z</time>
      </trkpt>
      <trkpt lat="10.0820193" lon="-85.2760855">
        <ele>62.9</ele>
        <time>2022-10-06T20:38:02Z</time>
      </trkpt>
      <trkpt lat="10.0818324" lon="-85.2760184">
        <ele>62.4</ele>
        <time>2022-10-06T20:38:03Z</time>
      </trkpt>
      <trkpt lat="10.0816498" lon="-85.2759490">
        <ele>61.8</ele>
        <time>2022-10-06T20:38:04Z</time>
      </trkpt>
      <trkpt lat="10.0814689" lon="-85.2758742">
        <ele>61.2</ele>
        <time>2022-10-06T20:38:05Z</time>
      </trkpt>
      <trkpt lat="10.0812943" lon="-85.2757922">
        <ele>60.9</ele>
        <time>2022-10-06T20:38:06Z</time>
      </trkpt>
      <trkpt lat="10.0811203" lon="-85.2757047">
        <ele>60.4</ele>
        <time>2022-10-06T20:38:07Z</time>
      </trkpt>
      <trkpt lat="10.0809521" lon="-85.2756126">
        <ele>59.7</ele>
        <time>2022-10-06T20:38:08Z</time>
      </trkpt>
      <trkpt lat="10.0807883" lon="-85.2755148">
        <ele>59.0</ele>
        <time>2022-10-06T20:38:09Z</time>
      </trkpt>
      <trkpt lat="10.0806362" lon="-85.2754175">
        <ele>58.3</ele>
        <time>2022-10-06T20:38:10Z</time>
      </trkpt>
      <trkpt lat="10.0804979" lon="-85.2753263">
        <ele>57.8</ele>
        <time>2022-10-06T20:38:11Z</time>
      </trkpt>
      <trkpt lat="10.0803707" lon="-85.2752424">
        <ele>57.1</ele>
        <time>2022-10-06T20:38:12Z</time>
      </trkpt>
      <trkpt lat="10.0802521" lon="-85.2751623">
        <ele>56.5</ele>
        <time>2022-10-06T20:38:13Z</time>
      </trkpt>
      <trkpt lat="10.0801403" lon="-85.2750880">
        <ele>55.9</ele>
        <time>2022-10-06T20:38:14Z</time>
      </trkpt>
      <trkpt lat="10.0800401" lon="-85.2750214">
        <ele>55.9</ele>
        <time>2022-10-06T20:38:15Z</time>
      </trkpt>
      <trkpt lat="10.0799429" lon="-85.2749577">
        <ele>55.5</ele>
        <time>2022-10-06T20:38:16Z</time>
      </trkpt>
      <trkpt lat="10.0798615" lon="-85.2749024">
        <ele>55.3</ele>
        <time>2022-10-06T20:38:17Z</time>
      </trkpt>
      <trkpt lat="10.0797893" lon="-85.2748526">
        <ele>55.0</ele>
        <time>2022-10-06T20:38:18Z</time>
      </trkpt>
      <trkpt lat="10.0797154" lon="-85.2748041">
        <ele>54.9</ele>
        <time>2022-10-06T20:38:19Z</time>
      </trkpt>
      <trkpt lat="10.0796338" lon="-85.2747490">
        <ele>54.8</ele>
        <time>2022-10-06T20:38:20Z</time>
      </trkpt>
      <trkpt lat="10.0795468" lon="-85.2746869">
        <ele>54.7</ele>
        <time>2022-10-06T20:38:21Z</time>
      </trkpt>
      <trkpt lat="10.0794518" lon="-85.2746204">
        <ele>54.6</ele>
        <time>2022-10-06T20:38:22Z</time>
      </trkpt>
      <trkpt lat="10.0793541" lon="-85.2745514">
        <ele>54.6</ele>
        <time>2022-10-06T20:38:23Z</time>
      </trkpt>
      <trkpt lat="10.0792484" lon="-85.2744787">
        <ele>54.5</ele>
        <time>2022-10-06T20:38:24Z</time>
      </trkpt>
      <trkpt lat="10.0791369" lon="-85.2744016">
        <ele>54.4</ele>
        <time>2022-10-06T20:38:25Z</time>
      </trkpt>
      <trkpt lat="10.0790232" lon="-85.2743219">
        <ele>54.3</ele>
        <time>2022-10-06T20:38:26Z</time>
      </trkpt>
      <trkpt lat="10.0789027" lon="-85.2742375">
        <ele>54.2</ele>
        <time>2022-10-06T20:38:27Z</time>
      </trkpt>
      <trkpt lat="10.0787798" lon="-85.2741526">
        <ele>54.1</ele>
        <time>2022-10-06T20:38:28Z</time>
      </trkpt>
      <trkpt lat="10.0786547" lon="-85.2740655">
        <ele>54.0</ele>
        <time>2022-10-06T20:38:29Z</time>
      </trkpt>
      <trkpt lat="10.0785251" lon="-85.2739781">
        <ele>54.0</ele>
        <time>2022-10-06T20:38:30Z</time>
      </trkpt>
      <trkpt lat="10.0783950" lon="-85.2738883">
        <ele>53.9</ele>
        <time>2022-10-06T20:38:31Z</time>
      </trkpt>
      <trkpt lat="10.0782632" lon="-85.2738010">
        <ele>53.8</ele>
        <time>2022-10-06T20:38:32Z</time>
      </trkpt>
      <trkpt lat="10.0781326" lon="-85.2737176">
        <ele>53.6</ele>
        <time>2022-10-06T20:38:33Z</time>
      </trkpt>
      <trkpt lat="10.0780004" lon="-85.2736362">
        <ele>53.5</ele>
        <time>2022-10-06T20:38:34Z</time>
      </trkpt>
      <trkpt lat="10.0778720" lon="-85.2735599">
        <ele>53.2</ele>
        <time>2022-10-06T20:38:35Z</time>
      </trkpt>
      <trkpt lat="10.0777526" lon="-85.2734882">
        <ele>53.1</ele>
        <time>2022-10-06T20:38:36Z</time>
      </trkpt>
      <trkpt lat="10.0776570" lon="-85.2734299">
        <ele>52.9</ele>
        <time>2022-10-06T20:38:37Z</time>
      </trkpt>
      <trkpt lat="10.0775853" lon="-85.2733872">
        <ele>52.8</ele>
        <time>2022-10-06T20:38:38Z</time>
      </trkpt>
      <trkpt lat="10.0775272" lon="-85.2733538">
        <ele>52.8</ele>
        <time>2022-10-06T20:38:39Z</time>
      </trkpt>
      <trkpt lat="10.0774703" lon="-85.2733204">
        <ele>52.7</ele>
        <time>2022-10-06T20:38:40Z</time>
      </trkpt>
      <trkpt lat="10.0774125" lon="-85.2732878">
        <ele>52.6</ele>
        <time>2022-10-06T20:38:41Z</time>
      </trkpt>
      <trkpt lat="10.0773567" lon="-85.2732560">
        <ele>52.6</ele>
        <time>2022-10-06T20:38:42Z</time>
      </trkpt>
      <trkpt lat="10.0772993" lon="-85.2732265">
        <ele>52.6</ele>
        <time>2022-10-06T20:38:43Z</time>
      </trkpt>
      <trkpt lat="10.0772309" lon="-85.2731926">
        <ele>52.5</ele>
        <time>2022-10-06T20:38:44Z</time>
      </trkpt>
      <trkpt lat="10.0771523" lon="-85.2731518">
        <ele>52.4</ele>
        <time>2022-10-06T20:38:45Z</time>
      </trkpt>
      <trkpt lat="10.0770632" lon="-85.2731076">
        <ele>52.5</ele>
        <time>2022-10-06T20:38:46Z</time>
      </trkpt>
      <trkpt lat="10.0769688" lon="-85.2730593">
        <ele>52.3</ele>
        <time>2022-10-06T20:38:47Z</time>
      </trkpt>
      <trkpt lat="10.0768655" lon="-85.2730072">
        <ele>52.2</ele>
        <time>2022-10-06T20:38:48Z</time>
      </trkpt>
      <trkpt lat="10.0767517" lon="-85.2729510">
        <ele>52.1</ele>
        <time>2022-10-06T20:38:49Z</time>
      </trkpt>
      <trkpt lat="10.0766276" lon="-85.2728920">
        <ele>51.9</ele>
        <time>2022-10-06T20:38:50Z</time>
      </trkpt>
      <trkpt lat="10.0764977" lon="-85.2728308">
        <ele>51.8</ele>
        <time>2022-10-06T20:38:51Z</time>
      </trkpt>
      <trkpt lat="10.0763606" lon="-85.2727712">
        <ele>51.7</ele>
        <time>2022-10-06T20:38:52Z</time>
      </trkpt>
      <trkpt lat="10.0762179" lon="-85.2727099">
        <ele>51.9</ele>
        <time>2022-10-06T20:38:53Z</time>
      </trkpt>
      <trkpt lat="10.0760688" lon="-85.2726490">
        <ele>51.8</ele>
        <time>2022-10-06T20:38:54Z</time>
      </trkpt>
      <trkpt lat="10.0759149" lon="-85.2725876">
        <ele>51.7</ele>
        <time>2022-10-06T20:38:55Z</time>
      </trkpt>
      <trkpt lat="10.0757549" lon="-85.2725262">
        <ele>51.9</ele>
        <time>2022-10-06T20:38:56Z</time>
      </trkpt>
      <trkpt lat="10.0755913" lon="-85.2724632">
        <ele>52.1</ele>
        <time>2022-10-06T20:38:57Z</time>
      </trkpt>
      <trkpt lat="10.0754228" lon="-85.2724020">
        <ele>52.0</ele>
        <time>2022-10-06T20:38:58Z</time>
      </trkpt>
      <trkpt lat="10.0752466" lon="-85.2723416">
        <ele>51.8</ele>
        <time>2022-10-06T20:38:59Z</time>
      </trkpt>
      <trkpt lat="10.0750670" lon="-85.2722841">
        <ele>51.7</ele>
        <time>2022-10-06T20:39:00Z</time>
      </trkpt>
      <trkpt lat="10.0748830" lon="-85.2722279">
        <ele>51.7</ele>
        <time>2022-10-06T20:39:01Z</time>
      </trkpt>
      <trkpt lat="10.0746914" lon="-85.2721742">
        <ele>51.5</ele>
        <time>2022-10-06T20:39:02Z</time>
      </trkpt>
      <trkpt lat="10.0744952" lon="-85.2721225">
        <ele>51.4</ele>
        <time>2022-10-06T20:39:03Z</time>
      </trkpt>
      <trkpt lat="10.0742945" lon="-85.2720750">
        <ele>51.3</ele>
        <time>2022-10-06T20:39:04Z</time>
      </trkpt>
      <trkpt lat="10.0740908" lon="-85.2720262">
        <ele>51.1</ele>
        <time>2022-10-06T20:39:05Z</time>
      </trkpt>
      <trkpt lat="10.0738875" lon="-85.2719779">
        <ele>51.2</ele>
        <time>2022-10-06T20:39:06Z</time>
      </trkpt>
      <trkpt lat="10.0736806" lon="-85.2719299">
        <ele>50.9</ele>
        <time>2022-10-06T20:39:07Z</time>
      </trkpt>
      <trkpt lat="10.0734736" lon="-85.2718820">
        <ele>50.6</ele>
        <time>2022-10-06T20:39:08Z</time>
      </trkpt>
      <trkpt lat="10.0732635" lon="-85.2718333">
        <ele>50.3</ele>
        <time>2022-10-06T20:39:09Z</time>
      </trkpt>
      <trkpt lat="10.0730530" lon="-85.2717849">
        <ele>50.0</ele>
        <time>2022-10-06T20:39:10Z</time>
      </trkpt>
      <trkpt lat="10.0728415" lon="-85.2717356">
        <ele>49.6</ele>
        <time>2022-10-06T20:39:11Z</time>
      </trkpt>
      <trkpt lat="10.0726306" lon="-85.2716884">
        <ele>49.2</ele>
        <time>2022-10-06T20:39:12Z</time>
      </trkpt>
      <trkpt lat="10.0724194" lon="-85.2716407">
        <ele>48.8</ele>
        <time>2022-10-06T20:39:13Z</time>
      </trkpt>
      <trkpt lat="10.0722072" lon="-85.2715931">
        <ele>48.4</ele>
        <time>2022-10-06T20:39:14Z</time>
      </trkpt>
      <trkpt lat="10.0719961" lon="-85.2715483">
        <ele>48.0</ele>
        <time>2022-10-06T20:39:15Z</time>
      </trkpt>
      <trkpt lat="10.0717873" lon="-85.2715069">
        <ele>47.5</ele>
        <time>2022-10-06T20:39:16Z</time>
      </trkpt>
      <trkpt lat="10.0715711" lon="-85.2714711">
        <ele>47.0</ele>
        <time>2022-10-06T20:39:17Z</time>
      </trkpt>
      <trkpt lat="10.0713536" lon="-85.2714414">
        <ele>46.7</ele>
        <time>2022-10-06T20:39:18Z</time>
      </trkpt>
      <trkpt lat="10.0711320" lon="-85.2714152">
        <ele>46.5</ele>
        <time>2022-10-06T20:39:19Z</time>
      </trkpt>
      <trkpt lat="10.0709059" lon="-85.2713902">
        <ele>46.4</ele>
        <time>2022-10-06T20:39:20Z</time>
      </trkpt>
      <trkpt lat="10.0706819" lon="-85.2713653">
        <ele>46.3</ele>
        <time>2022-10-06T20:39:21Z</time>
      </trkpt>
      <trkpt lat="10.0704594" lon="-85.2713380">
        <ele>46.5</ele>
        <time>2022-10-06T20:39:22Z</time>
      </trkpt>
      <trkpt lat="10.0702378" lon="-85.2713092">
        <ele>46.9</ele>
        <time>2022-10-06T20:39:23Z</time>
      </trkpt>
      <trkpt lat="10.0700202" lon="-85.2712753">
        <ele>47.4</ele>
        <time>2022-10-06T20:39:24Z</time>
      </trkpt>
      <trkpt lat="10.0698039" lon="-85.2712314">
        <ele>48.2</ele>
        <time>2022-10-06T20:39:25Z</time>
      </trkpt>
      <trkpt lat="10.0695913" lon="-85.2711798">
        <ele>48.9</ele>
        <time>2022-10-06T20:39:26Z</time>
      </trkpt>
      <trkpt lat="10.0693812" lon="-85.2711253">
        <ele>49.0</ele>
        <time>2022-10-06T20:39:27Z</time>
      </trkpt>
      <trkpt lat="10.0691735" lon="-85.2710549">
        <ele>49.6</ele>
        <time>2022-10-06T20:39:28Z</time>
      </trkpt>
      <trkpt lat="10.0689706" lon="-85.2709772">
        <ele>50.2</ele>
        <time>2022-10-06T20:39:29Z</time>
      </trkpt>
      <trkpt lat="10.0687736" lon="-85.2708917">
        <ele>50.5</ele>
        <time>2022-10-06T20:39:30Z</time>
      </trkpt>
      <trkpt lat="10.0685799" lon="-85.2707986">
        <ele>50.5</ele>
        <time>2022-10-06T20:39:31Z</time>
      </trkpt>
      <trkpt lat="10.0683919" lon="-85.2707035">
        <ele>50.5</ele>
        <time>2022-10-06T20:39:32Z</time>
      </trkpt>
      <trkpt lat="10.0682049" lon="-85.2705960">
        <ele>50.0</ele>
        <time>2022-10-06T20:39:33Z</time>
      </trkpt>
      <trkpt lat="10.0680251" lon="-85.2704818">
        <ele>49.3</ele>
        <time>2022-10-06T20:39:34Z</time>
      </trkpt>
      <trkpt lat="10.0678479" lon="-85.2703606">
        <ele>48.6</ele>
        <time>2022-10-06T20:39:35Z</time>
      </trkpt>
      <trkpt lat="10.0676756" lon="-85.2702308">
        <ele>47.9</ele>
        <time>2022-10-06T20:39:36Z</time>
      </trkpt>
      <trkpt lat="10.0675091" lon="-85.2700934">
        <ele>47.3</ele>
        <time>2022-10-06T20:39:37Z</time>
      </trkpt>
      <trkpt lat="10.0673476" lon="-85.2699487">
        <ele>46.5</ele>
        <time>2022-10-06T20:39:38Z</time>
      </trkpt>
      <trkpt lat="10.0671893" lon="-85.2697971">
        <ele>45.9</ele>
        <time>2022-10-06T20:39:39Z</time>
      </trkpt>
      <trkpt lat="10.0670368" lon="-85.2696422">
        <ele>45.2</ele>
        <time>2022-10-06T20:39:40Z</time>
      </trkpt>
      <trkpt lat="10.0668855" lon="-85.2694810">
        <ele>44.6</ele>
        <time>2022-10-06T20:39:41Z</time>
      </trkpt>
      <trkpt lat="10.0667364" lon="-85.2693133">
        <ele>44.0</ele>
        <time>2022-10-06T20:39:42Z</time>
      </trkpt>
      <trkpt lat="10.0665874" lon="-85.2691427">
        <ele>43.9</ele>
        <time>2022-10-06T20:39:43Z</time>
      </trkpt>
      <trkpt lat="10.0664404" lon="-85.2689755">
        <ele>43.6</ele>
        <time>2022-10-06T20:39:44Z</time>
      </trkpt>
      <trkpt lat="10.0662915" lon="-85.2688078">
        <ele>43.5</ele>
        <time>2022-10-06T20:39:45Z</time>
      </trkpt>
      <trkpt lat="10.0661432" lon="-85.2686419">
        <ele>43.6</ele>
        <time>2022-10-06T20:39:46Z</time>
      </trkpt>
      <trkpt lat="10.0659935" lon="-85.2684748">
        <ele>43.6</ele>
        <time>2022-10-06T20:39:47Z</time>
      </trkpt>
      <trkpt lat="10.0658435" lon="-85.2683081">
        <ele>43.7</ele>
        <time>2022-10-06T20:39:48Z</time>
      </trkpt>
      <trkpt lat="10.0656961" lon="-85.2681446">
        <ele>44.1</ele>
        <time>2022-10-06T20:39:49Z</time>
      </trkpt>
      <trkpt lat="10.0655520" lon="-85.2679834">
        <ele>44.3</ele>
        <time>2022-10-06T20:39:50Z</time>
      </trkpt>
      <trkpt lat="10.0654059" lon="-85.2678216">
        <ele>44.5</ele>
        <time>2022-10-06T20:39:51Z</time>
      </trkpt>
      <trkpt lat="10.0652640" lon="-85.2676617">
        <ele>44.7</ele>
        <time>2022-10-06T20:39:52Z</time>
      </trkpt>
      <trkpt lat="10.0651228" lon="-85.2675039">
        <ele>44.8</ele>
        <time>2022-10-06T20:39:53Z</time>
      </trkpt>
      <trkpt lat="10.0649830" lon="-85.2673480">
        <ele>45.0</ele>
        <time>2022-10-06T20:39:54Z</time>
      </trkpt>
      <trkpt lat="10.0648437" lon="-85.2671924">
        <ele>45.5</ele>
        <time>2022-10-06T20:39:55Z</time>
      </trkpt>
      <trkpt lat="10.0647057" lon="-85.2670386">
        <ele>46.0</ele>
        <time>2022-10-06T20:39:56Z</time>
      </trkpt>
      <trkpt lat="10.0645662" lon="-85.2668870">
        <ele>46.6</ele>
        <time>2022-10-06T20:39:57Z</time>
      </trkpt>
      <trkpt lat="10.0644283" lon="-85.2667349">
        <ele>47.1</ele>
        <time>2022-10-06T20:39:58Z</time>
      </trkpt>
      <trkpt lat="10.0642905" lon="-85.2665852">
        <ele>47.0</ele>
        <time>2022-10-06T20:39:59Z</time>
      </trkpt>
      <trkpt lat="10.0641557" lon="-85.2664358">
        <ele>47.1</ele>
        <time>2022-10-06T20:40:00Z</time>
      </trkpt>
      <trkpt lat="10.0640203" lon="-85.2662842">
        <ele>47.0</ele>
        <time>2022-10-06T20:40:01Z</time>
      </trkpt>
      <trkpt lat="10.0638842" lon="-85.2661318">
        <ele>46.9</ele>
        <time>2022-10-06T20:40:02Z</time>
      </trkpt>
      <trkpt lat="10.0637472" lon="-85.2659779">
        <ele>46.7</ele>
        <time>2022-10-06T20:40:03Z</time>
      </trkpt>
      <trkpt lat="10.0636114" lon="-85.2658250">
        <ele>46.3</ele>
        <time>2022-10-06T20:40:04Z</time>
      </trkpt>
      <trkpt lat="10.0634739" lon="-85.2656727">
        <ele>46.0</ele>
        <time>2022-10-06T20:40:05Z</time>
      </trkpt>
      <trkpt lat="10.0633388" lon="-85.2655235">
        <ele>46.1</ele>
        <time>2022-10-06T20:40:06Z</time>
      </trkpt>
      <trkpt lat="10.0632014" lon="-85.2653701">
        <ele>46.0</ele>
        <time>2022-10-06T20:40:07Z</time>
      </trkpt>
      <trkpt lat="10.0630641" lon="-85.2652169">
        <ele>45.4</ele>
        <time>2022-10-06T20:40:08Z</time>
      </trkpt>
      <trkpt lat="10.0629282" lon="-85.2650648">
        <ele>44.9</ele>
        <time>2022-10-06T20:40:09Z</time>
      </trkpt>
      <trkpt lat="10.0627905" lon="-85.2649110">
        <ele>45.1</ele>
        <time>2022-10-06T20:40:10Z</time>
      </trkpt>
      <trkpt lat="10.0626522" lon="-85.2647571">
        <ele>43.9</ele>
        <time>2022-10-06T20:40:11Z</time>
      </trkpt>
      <trkpt lat="10.0625130" lon="-85.2646030">
        <ele>43.6</ele>
        <time>2022-10-06T20:40:12Z</time>
      </trkpt>
      <trkpt lat="10.0623750" lon="-85.2644487">
        <ele>43.6</ele>
        <time>2022-10-06T20:40:13Z</time>
      </trkpt>
      <trkpt lat="10.0622354" lon="-85.2642928">
        <ele>43.5</ele>
        <time>2022-10-06T20:40:14Z</time>
      </trkpt>
      <trkpt lat="10.0620957" lon="-85.2641376">
        <ele>43.2</ele>
        <time>2022-10-06T20:40:15Z</time>
      </trkpt>
      <trkpt lat="10.0619554" lon="-85.2639822">
        <ele>43.1</ele>
        <time>2022-10-06T20:40:16Z</time>
      </trkpt>
      <trkpt lat="10.0618161" lon="-85.2638258">
        <ele>43.0</ele>
        <time>2022-10-06T20:40:17Z</time>
      </trkpt>
      <trkpt lat="10.0616784" lon="-85.2636723">
        <ele>43.0</ele>
        <time>2022-10-06T20:40:18Z</time>
      </trkpt>
      <trkpt lat="10.0615380" lon="-85.2635241">
        <ele>42.8</ele>
        <time>2022-10-06T20:40:19Z</time>
      </trkpt>
      <trkpt lat="10.0613922" lon="-85.2633766">
        <ele>42.6</ele>
        <time>2022-10-06T20:40:20Z</time>
      </trkpt>
      <trkpt lat="10.0612402" lon="-85.2632376">
        <ele>42.5</ele>
        <time>2022-10-06T20:40:21Z</time>
      </trkpt>
      <trkpt lat="10.0610792" lon="-85.2631113">
        <ele>42.3</ele>
        <time>2022-10-06T20:40:22Z</time>
      </trkpt>
      <trkpt lat="10.0609153" lon="-85.2629881">
        <ele>42.3</ele>
        <time>2022-10-06T20:40:23Z</time>
      </trkpt>
      <trkpt lat="10.0607476" lon="-85.2628764">
        <ele>42.3</ele>
        <time>2022-10-06T20:40:24Z</time>
      </trkpt>
      <trkpt lat="10.0605741" lon="-85.2627755">
        <ele>42.3</ele>
        <time>2022-10-06T20:40:25Z</time>
      </trkpt>
      <trkpt lat="10.0603971" lon="-85.2626838">
        <ele>42.1</ele>
        <time>2022-10-06T20:40:26Z</time>
      </trkpt>
      <trkpt lat="10.0602224" lon="-85.2626002">
        <ele>42.0</ele>
        <time>2022-10-06T20:40:27Z</time>
      </trkpt>
      <trkpt lat="10.0600445" lon="-85.2625306">
        <ele>42.0</ele>
        <time>2022-10-06T20:40:28Z</time>
      </trkpt>
      <trkpt lat="10.0598641" lon="-85.2624760">
        <ele>42.4</ele>
        <time>2022-10-06T20:40:29Z</time>
      </trkpt>
      <trkpt lat="10.0596918" lon="-85.2624279">
        <ele>42.3</ele>
        <time>2022-10-06T20:40:30Z</time>
      </trkpt>
      <trkpt lat="10.0595323" lon="-85.2623840">
        <ele>42.3</ele>
        <time>2022-10-06T20:40:31Z</time>
      </trkpt>
      <trkpt lat="10.0593779" lon="-85.2623459">
        <ele>42.4</ele>
        <time>2022-10-06T20:40:32Z</time>
      </trkpt>
      <trkpt lat="10.0592247" lon="-85.2623087">
        <ele>42.3</ele>
        <time>2022-10-06T20:40:33Z</time>
      </trkpt>
      <trkpt lat="10.0590714" lon="-85.2622706">
        <ele>42.3</ele>
        <time>2022-10-06T20:40:34Z</time>
      </trkpt>
      <trkpt lat="10.0589196" lon="-85.2622330">
        <ele>42.3</ele>
        <time>2022-10-06T20:40:35Z</time>
      </trkpt>
      <trkpt lat="10.0587680" lon="-85.2621928">
        <ele>42.2</ele>
        <time>2022-10-06T20:40:36Z</time>
      </trkpt>
      <trkpt lat="10.0586145" lon="-85.2621547">
        <ele>42.1</ele>
        <time>2022-10-06T20:40:37Z</time>
      </trkpt>
      <trkpt lat="10.0584610" lon="-85.2621139">
        <ele>42.1</ele>
        <time>2022-10-06T20:40:38Z</time>
      </trkpt>
      <trkpt lat="10.0583023" lon="-85.2620709">
        <ele>42.1</ele>
        <time>2022-10-06T20:40:39Z</time>
      </trkpt>
      <trkpt lat="10.0581423" lon="-85.2620274">
        <ele>42.1</ele>
        <time>2022-10-06T20:40:40Z</time>
      </trkpt>
      <trkpt lat="10.0579789" lon="-85.2619825">
        <ele>42.0</ele>
        <time>2022-10-06T20:40:41Z</time>
      </trkpt>
      <trkpt lat="10.0578115" lon="-85.2619402">
        <ele>41.9</ele>
        <time>2022-10-06T20:40:42Z</time>
      </trkpt>
      <trkpt lat="10.0576414" lon="-85.2618980">
        <ele>42.0</ele>
        <time>2022-10-06T20:40:43Z</time>
      </trkpt>
      <trkpt lat="10.0574685" lon="-85.2618552">
        <ele>42.0</ele>
        <time>2022-10-06T20:40:44Z</time>
      </trkpt>
      <trkpt lat="10.0572938" lon="-85.2618093">
        <ele>41.9</ele>
        <time>2022-10-06T20:40:45Z</time>
      </trkpt>
      <trkpt lat="10.0571158" lon="-85.2617618">
        <ele>41.7</ele>
        <time>2022-10-06T20:40:46Z</time>
      </trkpt>
      <trkpt lat="10.0569360" lon="-85.2617144">
        <ele>41.7</ele>
        <time>2022-10-06T20:40:47Z</time>
      </trkpt>
      <trkpt lat="10.0567537" lon="-85.2616673">
        <ele>41.6</ele>
        <time>2022-10-06T20:40:48Z</time>
      </trkpt>
      <trkpt lat="10.0565665" lon="-85.2616198">
        <ele>41.6</ele>
        <time>2022-10-06T20:40:49Z</time>
      </trkpt>
      <trkpt lat="10.0563798" lon="-85.2615718">
        <ele>41.7</ele>
        <time>2022-10-06T20:40:50Z</time>
      </trkpt>
      <trkpt lat="10.0561934" lon="-85.2615232">
        <ele>41.6</ele>
        <time>2022-10-06T20:40:51Z</time>
      </trkpt>
      <trkpt lat="10.0560051" lon="-85.2614769">
        <ele>41.5</ele>
        <time>2022-10-06T20:40:52Z</time>
      </trkpt>
      <trkpt lat="10.0558159" lon="-85.2614278">
        <ele>41.3</ele>
        <time>2022-10-06T20:40:53Z</time>
      </trkpt>
      <trkpt lat="10.0556285" lon="-85.2613763">
        <ele>41.3</ele>
        <time>2022-10-06T20:40:54Z</time>
      </trkpt>
      <trkpt lat="10.0554401" lon="-85.2613218">
        <ele>41.1</ele>
        <time>2022-10-06T20:40:55Z</time>
      </trkpt>
      <trkpt lat="10.0552530" lon="-85.2612670">
        <ele>40.9</ele>
        <time>2022-10-06T20:40:56Z</time>
      </trkpt>
      <trkpt lat="10.0550646" lon="-85.2612084">
        <ele>40.9</ele>
        <time>2022-10-06T20:40:57Z</time>
      </trkpt>
      <trkpt lat="10.0548783" lon="-85.2611540">
        <ele>40.9</ele>
        <time>2022-10-06T20:40:58Z</time>
      </trkpt>
      <trkpt lat="10.0546920" lon="-85.2610937">
        <ele>40.7</ele>
        <time>2022-10-06T20:40:59Z</time>
      </trkpt>
      <trkpt lat="10.0545073" lon="-85.2610335">
        <ele>40.5</ele>
        <time>2022-10-06T20:41:00Z</time>
      </trkpt>
      <trkpt lat="10.0543245" lon="-85.2609717">
        <ele>40.4</ele>
        <time>2022-10-06T20:41:01Z</time>
      </trkpt>
      <trkpt lat="10.0541433" lon="-85.2609102">
        <ele>40.3</ele>
        <time>2022-10-06T20:41:02Z</time>
      </trkpt>
      <trkpt lat="10.0539631" lon="-85.2608460">
        <ele>40.2</ele>
        <time>2022-10-06T20:41:03Z</time>
      </trkpt>
      <trkpt lat="10.0537866" lon="-85.2607842">
        <ele>40.2</ele>
        <time>2022-10-06T20:41:04Z</time>
      </trkpt>
      <trkpt lat="10.0536124" lon="-85.2607223">
        <ele>40.1</ele>
        <time>2022-10-06T20:41:05Z</time>
      </trkpt>
      <trkpt lat="10.0534428" lon="-85.2606611">
        <ele>40.1</ele>
        <time>2022-10-06T20:41:06Z</time>
      </trkpt>
      <trkpt lat="10.0532770" lon="-85.2606003">
        <ele>40.2</ele>
        <time>2022-10-06T20:41:07Z</time>
      </trkpt>
      <trkpt lat="10.0531145" lon="-85.2605424">
        <ele>40.0</ele>
        <time>2022-10-06T20:41:08Z</time>
      </trkpt>
      <trkpt lat="10.0529543" lon="-85.2604865">
        <ele>40.1</ele>
        <time>2022-10-06T20:41:09Z</time>
      </trkpt>
      <trkpt lat="10.0527919" lon="-85.2604321">
        <ele>40.1</ele>
        <time>2022-10-06T20:41:10Z</time>
      </trkpt>
      <trkpt lat="10.0526278" lon="-85.2603774">
        <ele>40.1</ele>
        <time>2022-10-06T20:41:11Z</time>
      </trkpt>
      <trkpt lat="10.0524620" lon="-85.2603208">
        <ele>40.2</ele>
        <time>2022-10-06T20:41:12Z</time>
      </trkpt>
      <trkpt lat="10.0522926" lon="-85.2602619">
        <ele>40.2</ele>
        <time>2022-10-06T20:41:13Z</time>
      </trkpt>
      <trkpt lat="10.0521204" lon="-85.2601999">
        <ele>40.3</ele>
        <time>2022-10-06T20:41:14Z</time>
      </trkpt>
      <trkpt lat="10.0519477" lon="-85.2601367">
        <ele>40.5</ele>
        <time>2022-10-06T20:41:15Z</time>
      </trkpt>
      <trkpt lat="10.0517736" lon="-85.2600728">
        <ele>40.6</ele>
        <time>2022-10-06T20:41:16Z</time>
      </trkpt>
      <trkpt lat="10.0515986" lon="-85.2600093">
        <ele>40.8</ele>
        <time>2022-10-06T20:41:17Z</time>
      </trkpt>
      <trkpt lat="10.0514212" lon="-85.2599466">
        <ele>41.1</ele>
        <time>2022-10-06T20:41:18Z</time>
      </trkpt>
      <trkpt lat="10.0512428" lon="-85.2598846">
        <ele>41.3</ele>
        <time>2022-10-06T20:41:19Z</time>
      </trkpt>
      <trkpt lat="10.0510625" lon="-85.2598192">
        <ele>41.4</ele>
        <time>2022-10-06T20:41:20Z</time>
      </trkpt>
      <trkpt lat="10.0508799" lon="-85.2597530">
        <ele>41.6</ele>
        <time>2022-10-06T20:41:21Z</time>
      </trkpt>
      <trkpt lat="10.0506977" lon="-85.2596858">
        <ele>41.6</ele>
        <time>2022-10-06T20:41:22Z</time>
      </trkpt>
      <trkpt lat="10.0505133" lon="-85.2596176">
        <ele>42.0</ele>
        <time>2022-10-06T20:41:23Z</time>
      </trkpt>
      <trkpt lat="10.0503280" lon="-85.2595502">
        <ele>42.1</ele>
        <time>2022-10-06T20:41:24Z</time>
      </trkpt>
      <trkpt lat="10.0501447" lon="-85.2594849">
        <ele>42.2</ele>
        <time>2022-10-06T20:41:25Z</time>
      </trkpt>
      <trkpt lat="10.0499614" lon="-85.2594172">
        <ele>42.4</ele>
        <time>2022-10-06T20:41:26Z</time>
      </trkpt>
      <trkpt lat="10.0497804" lon="-85.2593505">
        <ele>42.5</ele>
        <time>2022-10-06T20:41:27Z</time>
      </trkpt>
      <trkpt lat="10.0495993" lon="-85.2592836">
        <ele>42.7</ele>
        <time>2022-10-06T20:41:28Z</time>
      </trkpt>
      <trkpt lat="10.0494169" lon="-85.2592166">
        <ele>42.9</ele>
        <time>2022-10-06T20:41:29Z</time>
      </trkpt>
      <trkpt lat="10.0492342" lon="-85.2591504">
        <ele>43.0</ele>
        <time>2022-10-06T20:41:30Z</time>
      </trkpt>
      <trkpt lat="10.0490518" lon="-85.2590836">
        <ele>43.3</ele>
        <time>2022-10-06T20:41:31Z</time>
      </trkpt>
      <trkpt lat="10.0488660" lon="-85.2590170">
        <ele>43.5</ele>
        <time>2022-10-06T20:41:32Z</time>
      </trkpt>
      <trkpt lat="10.0486801" lon="-85.2589504">
        <ele>43.5</ele>
        <time>2022-10-06T20:41:33Z</time>
      </trkpt>
      <trkpt lat="10.0484927" lon="-85.2588819">
        <ele>43.7</ele>
        <time>2022-10-06T20:41:34Z</time>
      </trkpt>
      <trkpt lat="10.0483057" lon="-85.2588124">
        <ele>43.9</ele>
        <time>2022-10-06T20:41:35Z</time>
      </trkpt>
      <trkpt lat="10.0481203" lon="-85.2587444">
        <ele>44.1</ele>
        <time>2022-10-06T20:41:36Z</time>
      </trkpt>
      <trkpt lat="10.0479377" lon="-85.2586780">
        <ele>44.3</ele>
        <time>2022-10-06T20:41:37Z</time>
      </trkpt>
      <trkpt lat="10.0477522" lon="-85.2586119">
        <ele>44.5</ele>
        <time>2022-10-06T20:41:38Z</time>
      </trkpt>
      <trkpt lat="10.0475668" lon="-85.2585452">
        <ele>44.5</ele>
        <time>2022-10-06T20:41:39Z</time>
      </trkpt>
      <trkpt lat="10.0473806" lon="-85.2584782">
        <ele>44.7</ele>
        <time>2022-10-06T20:41:40Z</time>
      </trkpt>
      <trkpt lat="10.0471966" lon="-85.2584117">
        <ele>44.9</ele>
        <time>2022-10-06T20:41:41Z</time>
      </trkpt>
      <trkpt lat="10.0470126" lon="-85.2583434">
        <ele>45.1</ele>
        <time>2022-10-06T20:41:42Z</time>
      </trkpt>
      <trkpt lat="10.0468271" lon="-85.2582765">
        <ele>45.3</ele>
        <time>2022-10-06T20:41:43Z</time>
      </trkpt>
      <trkpt lat="10.0466438" lon="-85.2582088">
        <ele>45.5</ele>
        <time>2022-10-06T20:41:44Z</time>
      </trkpt>
      <trkpt lat="10.0464611" lon="-85.2581409">
        <ele>45.7</ele>
        <time>2022-10-06T20:41:45Z</time>
      </trkpt>
      <trkpt lat="10.0462775" lon="-85.2580722">
        <ele>45.9</ele>
        <time>2022-10-06T20:41:46Z</time>
      </trkpt>
      <trkpt lat="10.0460934" lon="-85.2580043">
        <ele>46.1</ele>
        <time>2022-10-06T20:41:47Z</time>
      </trkpt>
      <trkpt lat="10.0459058" lon="-85.2579350">
        <ele>46.2</ele>
        <time>2022-10-06T20:41:48Z</time>
      </trkpt>
      <trkpt lat="10.0457189" lon="-85.2578667">
        <ele>46.3</ele>
        <time>2022-10-06T20:41:49Z</time>
      </trkpt>
      <trkpt lat="10.0455341" lon="-85.2577985">
        <ele>46.5</ele>
        <time>2022-10-06T20:41:50Z</time>
      </trkpt>
      <trkpt lat="10.0453508" lon="-85.2577315">
        <ele>46.4</ele>
        <time>2022-10-06T20:41:51Z</time>
      </trkpt>
      <trkpt lat="10.0451652" lon="-85.2576628">
        <ele>46.3</ele>
        <time>2022-10-06T20:41:52Z</time>
      </trkpt>
      <trkpt lat="10.0449823" lon="-85.2575943">
        <ele>46.3</ele>
        <time>2022-10-06T20:41:53Z</time>
      </trkpt>
      <trkpt lat="10.0447974" lon="-85.2575254">
        <ele>46.7</ele>
        <time>2022-10-06T20:41:54Z</time>
      </trkpt>
      <trkpt lat="10.0446129" lon="-85.2574577">
        <ele>46.8</ele>
        <time>2022-10-06T20:41:55Z</time>
      </trkpt>
      <trkpt lat="10.0444278" lon="-85.2573923">
        <ele>47.1</ele>
        <time>2022-10-06T20:41:56Z</time>
      </trkpt>
      <trkpt lat="10.0442442" lon="-85.2573306">
        <ele>47.4</ele>
        <time>2022-10-06T20:41:57Z</time>
      </trkpt>
      <trkpt lat="10.0440583" lon="-85.2572701">
        <ele>47.7</ele>
        <time>2022-10-06T20:41:58Z</time>
      </trkpt>
      <trkpt lat="10.0438687" lon="-85.2572144">
        <ele>48.0</ele>
        <time>2022-10-06T20:41:59Z</time>
      </trkpt>
      <trkpt lat="10.0436781" lon="-85.2571667">
        <ele>48.3</ele>
        <time>2022-10-06T20:42:00Z</time>
      </trkpt>
      <trkpt lat="10.0434872" lon="-85.2571240">
        <ele>48.1</ele>
        <time>2022-10-06T20:42:01Z</time>
      </trkpt>
      <trkpt lat="10.0432949" lon="-85.2570923">
        <ele>48.6</ele>
        <time>2022-10-06T20:42:02Z</time>
      </trkpt>
      <trkpt lat="10.0431024" lon="-85.2570645">
        <ele>49.2</ele>
        <time>2022-10-06T20:42:03Z</time>
      </trkpt>
      <trkpt lat="10.0429053" lon="-85.2570427">
        <ele>49.5</ele>
        <time>2022-10-06T20:42:04Z</time>
      </trkpt>
      <trkpt lat="10.0427105" lon="-85.2570255">
        <ele>50.2</ele>
        <time>2022-10-06T20:42:05Z</time>
      </trkpt>
      <trkpt lat="10.0425160" lon="-85.2570084">
        <ele>50.2</ele>
        <time>2022-10-06T20:42:06Z</time>
      </trkpt>
      <trkpt lat="10.0423209" lon="-85.2569940">
        <ele>50.4</ele>
        <time>2022-10-06T20:42:07Z</time>
      </trkpt>
      <trkpt lat="10.0421250" lon="-85.2569791">
        <ele>50.6</ele>
        <time>2022-10-06T20:42:08Z</time>
      </trkpt>
      <trkpt lat="10.0419280" lon="-85.2569656">
        <ele>50.9</ele>
        <time>2022-10-06T20:42:09Z</time>
      </trkpt>
      <trkpt lat="10.0417313" lon="-85.2569533">
        <ele>51.1</ele>
        <time>2022-10-06T20:42:10Z</time>
      </trkpt>
      <trkpt lat="10.0415367" lon="-85.2569405">
        <ele>51.3</ele>
        <time>2022-10-06T20:42:11Z</time>
      </trkpt>
      <trkpt lat="10.0413401" lon="-85.2569270">
        <ele>51.6</ele>
        <time>2022-10-06T20:42:12Z</time>
      </trkpt>
      <trkpt lat="10.0411471" lon="-85.2569145">
        <ele>51.8</ele>
        <time>2022-10-06T20:42:13Z</time>
      </trkpt>
      <trkpt lat="10.0409513" lon="-85.2569017">
        <ele>52.1</ele>
        <time>2022-10-06T20:42:14Z</time>
      </trkpt>
      <trkpt lat="10.0407567" lon="-85.2568903">
        <ele>52.4</ele>
        <time>2022-10-06T20:42:15Z</time>
      </trkpt>
      <trkpt lat="10.0405617" lon="-85.2568768">
        <ele>52.7</ele>
        <time>2022-10-06T20:42:16Z</time>
      </trkpt>
      <trkpt lat="10.0403668" lon="-85.2568626">
        <ele>52.7</ele>
        <time>2022-10-06T20:42:17Z</time>
      </trkpt>
      <trkpt lat="10.0401706" lon="-85.2568493">
        <ele>53.0</ele>
        <time>2022-10-06T20:42:18Z</time>
      </trkpt>
      <trkpt lat="10.0399749" lon="-85.2568364">
        <ele>53.2</ele>
        <time>2022-10-06T20:42:19Z</time>
      </trkpt>
      <trkpt lat="10.0397825" lon="-85.2568242">
        <ele>53.5</ele>
        <time>2022-10-06T20:42:20Z</time>
      </trkpt>
      <trkpt lat="10.0395936" lon="-85.2568103">
        <ele>53.7</ele>
        <time>2022-10-06T20:42:21Z</time>
      </trkpt>
      <trkpt lat="10.0394086" lon="-85.2567976">
        <ele>53.9</ele>
        <time>2022-10-06T20:42:22Z</time>
      </trkpt>
      <trkpt lat="10.0392280" lon="-85.2567881">
        <ele>54.0</ele>
        <time>2022-10-06T20:42:23Z</time>
      </trkpt>
      <trkpt lat="10.0390540" lon="-85.2567815">
        <ele>54.3</ele>
        <time>2022-10-06T20:42:24Z</time>
      </trkpt>
      <trkpt lat="10.0388886" lon="-85.2567800">
        <ele>54.5</ele>
        <time>2022-10-06T20:42:25Z</time>
      </trkpt>
      <trkpt lat="10.0387327" lon="-85.2567836">
        <ele>54.6</ele>
        <time>2022-10-06T20:42:26Z</time>
      </trkpt>
      <trkpt lat="10.0385843" lon="-85.2567924">
        <ele>54.8</ele>
        <time>2022-10-06T20:42:27Z</time>
      </trkpt>
      <trkpt lat="10.0384431" lon="-85.2568033">
        <ele>54.9</ele>
        <time>2022-10-06T20:42:28Z</time>
      </trkpt>
      <trkpt lat="10.0383058" lon="-85.2568167">
        <ele>55.1</ele>
        <time>2022-10-06T20:42:29Z</time>
      </trkpt>
      <trkpt lat="10.0381722" lon="-85.2568328">
        <ele>55.2</ele>
        <time>2022-10-06T20:42:30Z</time>
      </trkpt>
      <trkpt lat="10.0380477" lon="-85.2568513">
        <ele>55.3</ele>
        <time>2022-10-06T20:42:31Z</time>
      </trkpt>
      <trkpt lat="10.0379342" lon="-85.2568691">
        <ele>55.2</ele>
        <time>2022-10-06T20:42:32Z</time>
      </trkpt>
      <trkpt lat="10.0378254" lon="-85.2568896">
        <ele>55.5</ele>
        <time>2022-10-06T20:42:33Z</time>
      </trkpt>
      <trkpt lat="10.0377256" lon="-85.2569112">
        <ele>55.6</ele>
        <time>2022-10-06T20:42:34Z</time>
      </trkpt>
      <trkpt lat="10.0376319" lon="-85.2569310">
        <ele>55.6</ele>
        <time>2022-10-06T20:42:35Z</time>
      </trkpt>
      <trkpt lat="10.0375483" lon="-85.2569495">
        <ele>55.7</ele>
        <time>2022-10-06T20:42:36Z</time>
      </trkpt>
      <trkpt lat="10.0374820" lon="-85.2569622">
        <ele>55.8</ele>
        <time>2022-10-06T20:42:37Z</time>
      </trkpt>
      <trkpt lat="10.0374317" lon="-85.2569716">
        <ele>55.8</ele>
        <time>2022-10-06T20:42:38Z</time>
      </trkpt>
      <trkpt lat="10.0373962" lon="-85.2569775">
        <ele>55.8</ele>
        <time>2022-10-06T20:42:39Z</time>
      </trkpt>
      <trkpt lat="10.0373682" lon="-85.2569821">
        <ele>55.8</ele>
        <time>2022-10-06T20:42:40Z</time>
      </trkpt>
      <trkpt lat="10.0373437" lon="-85.2569855">
        <ele>55.7</ele>
        <time>2022-10-06T20:42:41Z</time>
      </trkpt>
      <trkpt lat="10.0373165" lon="-85.2569888">
        <ele>55.8</ele>
        <time>2022-10-06T20:42:42Z</time>
      </trkpt>
      <trkpt lat="10.0372837" lon="-85.2569808">
        <ele>55.7</ele>
        <time>2022-10-06T20:42:43Z</time>
      </trkpt>
      <trkpt lat="10.0372345" lon="-85.2569651">
        <ele>55.9</ele>
        <time>2022-10-06T20:42:44Z</time>
      </trkpt>
      <trkpt lat="10.0371945" lon="-85.2569153">
        <ele>55.3</ele>
        <time>2022-10-06T20:42:45Z</time>
      </trkpt>
      <trkpt lat="10.0371530" lon="-85.2568644">
        <ele>55.0</ele>
        <time>2022-10-06T20:42:46Z</time>
      </trkpt>
      <trkpt lat="10.0371111" lon="-85.2568055">
        <ele>54.9</ele>
        <time>2022-10-06T20:42:47Z</time>
      </trkpt>
      <trkpt lat="10.0370649" lon="-85.2567388">
        <ele>55.0</ele>
        <time>2022-10-06T20:42:48Z</time>
      </trkpt>
      <trkpt lat="10.0370139" lon="-85.2566625">
        <ele>55.1</ele>
        <time>2022-10-06T20:42:49Z</time>
      </trkpt>
      <trkpt lat="10.0369595" lon="-85.2565779">
        <ele>55.1</ele>
        <time>2022-10-06T20:42:50Z</time>
      </trkpt>
      <trkpt lat="10.0369006" lon="-85.2564842">
        <ele>55.1</ele>
        <time>2022-10-06T20:42:51Z</time>
      </trkpt>
      <trkpt lat="10.0368376" lon="-85.2563844">
        <ele>55.1</ele>
        <time>2022-10-06T20:42:52Z</time>
      </trkpt>
      <trkpt lat="10.0367733" lon="-85.2562788">
        <ele>55.2</ele>
        <time>2022-10-06T20:42:53Z</time>
      </trkpt>
      <trkpt lat="10.0367077" lon="-85.2561673">
        <ele>55.1</ele>
        <time>2022-10-06T20:42:54Z</time>
      </trkpt>
      <trkpt lat="10.0366458" lon="-85.2560502">
        <ele>55.0</ele>
        <time>2022-10-06T20:42:55Z</time>
      </trkpt>
      <trkpt lat="10.0365863" lon="-85.2559259">
        <ele>55.0</ele>
        <time>2022-10-06T20:42:56Z</time>
      </trkpt>
      <trkpt lat="10.0365292" lon="-85.2557935">
        <ele>55.1</ele>
        <time>2022-10-06T20:42:57Z</time>
      </trkpt>
      <trkpt lat="10.0364720" lon="-85.2556514">
        <ele>55.0</ele>
        <time>2022-10-06T20:42:58Z</time>
      </trkpt>
      <trkpt lat="10.0364153" lon="-85.2555052">
        <ele>55.0</ele>
        <time>2022-10-06T20:42:59Z</time>
      </trkpt>
      <trkpt lat="10.0363607" lon="-85.2553528">
        <ele>55.0</ele>
        <time>2022-10-06T20:43:00Z</time>
      </trkpt>
      <trkpt lat="10.0363060" lon="-85.2551977">
        <ele>54.9</ele>
        <time>2022-10-06T20:43:01Z</time>
      </trkpt>
      <trkpt lat="10.0362534" lon="-85.2550407">
        <ele>54.8</ele>
        <time>2022-10-06T20:43:02Z</time>
      </trkpt>
      <trkpt lat="10.0361981" lon="-85.2548831">
        <ele>54.7</ele>
        <time>2022-10-06T20:43:03Z</time>
      </trkpt>
      <trkpt lat="10.0361424" lon="-85.2547183">
        <ele>54.6</ele>
        <time>2022-10-06T20:43:04Z</time>
      </trkpt>
      <trkpt lat="10.0360866" lon="-85.2545499">
        <ele>54.4</ele>
        <time>2022-10-06T20:43:05Z</time>
      </trkpt>
      <trkpt lat="10.0360262" lon="-85.2543780">
        <ele>54.6</ele>
        <time>2022-10-06T20:43:06Z</time>
      </trkpt>
      <trkpt lat="10.0359656" lon="-85.2542030">
        <ele>54.8</ele>
        <time>2022-10-06T20:43:07Z</time>
      </trkpt>
      <trkpt lat="10.0359041" lon="-85.2540260">
        <ele>54.7</ele>
        <time>2022-10-06T20:43:08Z</time>
      </trkpt>
      <trkpt lat="10.0358437" lon="-85.2538476">
        <ele>54.7</ele>
        <time>2022-10-06T20:43:09Z</time>
      </trkpt>
      <trkpt lat="10.0357831" lon="-85.2536695">
        <ele>54.6</ele>
        <time>2022-10-06T20:43:10Z</time>
      </trkpt>
      <trkpt lat="10.0357216" lon="-85.2534900">
        <ele>54.5</ele>
        <time>2022-10-06T20:43:11Z</time>
      </trkpt>
      <trkpt lat="10.0356586" lon="-85.2533096">
        <ele>54.3</ele>
        <time>2022-10-06T20:43:12Z</time>
      </trkpt>
      <trkpt lat="10.0355951" lon="-85.2531263">
        <ele>54.2</ele>
        <time>2022-10-06T20:43:13Z</time>
      </trkpt>
      <trkpt lat="10.0355334" lon="-85.2529426">
        <ele>54.3</ele>
        <time>2022-10-06T20:43:14Z</time>
      </trkpt>
      <trkpt lat="10.0354704" lon="-85.2527646">
        <ele>54.4</ele>
        <time>2022-10-06T20:43:15Z</time>
      </trkpt>
      <trkpt lat="10.0354098" lon="-85.2525929">
        <ele>54.6</ele>
        <time>2022-10-06T20:43:16Z</time>
      </trkpt>
      <trkpt lat="10.0353521" lon="-85.2524324">
        <ele>54.5</ele>
        <time>2022-10-06T20:43:17Z</time>
      </trkpt>
      <trkpt lat="10.0353009" lon="-85.2522857">
        <ele>54.3</ele>
        <time>2022-10-06T20:43:18Z</time>
      </trkpt>
      <trkpt lat="10.0352551" lon="-85.2521509">
        <ele>54.3</ele>
        <time>2022-10-06T20:43:19Z</time>
      </trkpt>
      <trkpt lat="10.0352134" lon="-85.2520262">
        <ele>54.1</ele>
        <time>2022-10-06T20:43:20Z</time>
      </trkpt>
      <trkpt lat="10.0351799" lon="-85.2519197">
        <ele>54.2</ele>
        <time>2022-10-06T20:43:21Z</time>
      </trkpt>
      <trkpt lat="10.0351537" lon="-85.2518383">
        <ele>54.1</ele>
        <time>2022-10-06T20:43:22Z</time>
      </trkpt>
      <trkpt lat="10.0351332" lon="-85.2517823">
        <ele>54.1</ele>
        <time>2022-10-06T20:43:23Z</time>
      </trkpt>
      <trkpt lat="10.0351193" lon="-85.2517439">
        <ele>54.1</ele>
        <time>2022-10-06T20:43:24Z</time>
      </trkpt>
      <trkpt lat="10.0351069" lon="-85.2517102">
        <ele>54.3</ele>
        <time>2022-10-06T20:43:25Z</time>
      </trkpt>
      <trkpt lat="10.0350944" lon="-85.2516731">
        <ele>54.3</ele>
        <time>2022-10-06T20:43:26Z</time>
      </trkpt>
      <trkpt lat="10.0350746" lon="-85.2516217">
        <ele>54.1</ele>
        <time>2022-10-06T20:43:27Z</time>
      </trkpt>
      <trkpt lat="10.0350525" lon="-85.2515593">
        <ele>54.2</ele>
        <time>2022-10-06T20:43:28Z</time>
      </trkpt>
      <trkpt lat="10.0350278" lon="-85.2514869">
        <ele>54.1</ele>
        <time>2022-10-06T20:43:29Z</time>
      </trkpt>
      <trkpt lat="10.0350000" lon="-85.2514082">
        <ele>54.1</ele>
        <time>2022-10-06T20:43:30Z</time>
      </trkpt>
      <trkpt lat="10.0349693" lon="-85.2513199">
        <ele>54.1</ele>
        <time>2022-10-06T20:43:31Z</time>
      </trkpt>
      <trkpt lat="10.0349354" lon="-85.2512228">
        <ele>54.0</ele>
        <time>2022-10-06T20:43:32Z</time>
      </trkpt>
      <trkpt lat="10.0349012" lon="-85.2511191">
        <ele>53.9</ele>
        <time>2022-10-06T20:43:33Z</time>
      </trkpt>
      <trkpt lat="10.0348648" lon="-85.2510085">
        <ele>53.9</ele>
        <time>2022-10-06T20:43:34Z</time>
      </trkpt>
      <trkpt lat="10.0348251" lon="-85.2508923">
        <ele>53.9</ele>
        <time>2022-10-06T20:43:35Z</time>
      </trkpt>
      <trkpt lat="10.0347828" lon="-85.2507713">
        <ele>53.8</ele>
        <time>2022-10-06T20:43:36Z</time>
      </trkpt>
      <trkpt lat="10.0347398" lon="-85.2506452">
        <ele>53.8</ele>
        <time>2022-10-06T20:43:37Z</time>
      </trkpt>
      <trkpt lat="10.0346949" lon="-85.2505151">
        <ele>53.6</ele>
        <time>2022-10-06T20:43:38Z</time>
      </trkpt>
      <trkpt lat="10.0346489" lon="-85.2503794">
        <ele>53.6</ele>
        <time>2022-10-06T20:43:39Z</time>
      </trkpt>
      <trkpt lat="10.0345999" lon="-85.2502365">
        <ele>53.6</ele>
        <time>2022-10-06T20:43:40Z</time>
      </trkpt>
      <trkpt lat="10.0345503" lon="-85.2500908">
        <ele>53.6</ele>
        <time>2022-10-06T20:43:41Z</time>
      </trkpt>
      <trkpt lat="10.0344987" lon="-85.2499383">
        <ele>53.4</ele>
        <time>2022-10-06T20:43:42Z</time>
      </trkpt>
      <trkpt lat="10.0344444" lon="-85.2497806">
        <ele>53.3</ele>
        <time>2022-10-06T20:43:43Z</time>
      </trkpt>
      <trkpt lat="10.0343907" lon="-85.2496206">
        <ele>53.0</ele>
        <time>2022-10-06T20:43:44Z</time>
      </trkpt>
      <trkpt lat="10.0343332" lon="-85.2494580">
        <ele>52.8</ele>
        <time>2022-10-06T20:43:45Z</time>
      </trkpt>
      <trkpt lat="10.0342747" lon="-85.2492950">
        <ele>52.5</ele>
        <time>2022-10-06T20:43:46Z</time>
      </trkpt>
      <trkpt lat="10.0342171" lon="-85.2491324">
        <ele>52.6</ele>
        <time>2022-10-06T20:43:47Z</time>
      </trkpt>
      <trkpt lat="10.0341585" lon="-85.2489672">
        <ele>52.4</ele>
        <time>2022-10-06T20:43:48Z</time>
      </trkpt>
      <trkpt lat="10.0341001" lon="-85.2487995">
        <ele>52.2</ele>
        <time>2022-10-06T20:43:49Z</time>
      </trkpt>
      <trkpt lat="10.0340419" lon="-85.2486335">
        <ele>52.1</ele>
        <time>2022-10-06T20:43:50Z</time>
      </trkpt>
      <trkpt lat="10.0339851" lon="-85.2484666">
        <ele>52.1</ele>
        <time>2022-10-06T20:43:51Z</time>
      </trkpt>
      <trkpt lat="10.0339310" lon="-85.2483016">
        <ele>52.0</ele>
        <time>2022-10-06T20:43:52Z</time>
      </trkpt>
      <trkpt lat="10.0338763" lon="-85.2481413">
        <ele>51.7</ele>
        <time>2022-10-06T20:43:53Z</time>
      </trkpt>
      <trkpt lat="10.0338216" lon="-85.2479899">
        <ele>51.5</ele>
        <time>2022-10-06T20:43:54Z</time>
      </trkpt>
      <trkpt lat="10.0337637" lon="-85.2478474">
        <ele>51.3</ele>
        <time>2022-10-06T20:43:55Z</time>
      </trkpt>
      <trkpt lat="10.0337041" lon="-85.2477200">
        <ele>51.1</ele>
        <time>2022-10-06T20:43:56Z</time>
      </trkpt>
      <trkpt lat="10.0336450" lon="-85.2476088">
        <ele>50.8</ele>
        <time>2022-10-06T20:43:57Z</time>
      </trkpt>
      <trkpt lat="10.0335943" lon="-85.2475231">
        <ele>50.5</ele>
        <time>2022-10-06T20:43:58Z</time>
      </trkpt>
      <trkpt lat="10.0335546" lon="-85.2474671">
        <ele>51.0</ele>
        <time>2022-10-06T20:43:59Z</time>
      </trkpt>
      <trkpt lat="10.0335315" lon="-85.2474361">
        <ele>50.9</ele>
        <time>2022-10-06T20:44:00Z</time>
      </trkpt>
      <trkpt lat="10.0335248" lon="-85.2474269">
        <ele>50.9</ele>
        <time>2022-10-06T20:44:01Z</time>
      </trkpt>
      <trkpt lat="10.0335248" lon="-85.2474269">
        <ele>50.8</ele>
        <time>2022-10-06T20:44:02Z</time>
      </trkpt>
      <trkpt lat="10.0335248" lon="-85.2474269">
        <ele>50.7</ele>
        <time>2022-10-06T20:44:03Z</time>
      </trkpt>
      <trkpt lat="10.0335248" lon="-85.2474269">
        <ele>50.6</ele>
        <time>2022-10-06T20:44:04Z</time>
      </trkpt>
      <trkpt lat="10.0335176" lon="-85.2474217">
        <ele>50.5</ele>
        <time>2022-10-06T20:44:05Z</time>
      </trkpt>
      <trkpt lat="10.0335065" lon="-85.2474051">
        <ele>50.3</ele>
        <time>2022-10-06T20:44:06Z</time>
      </trkpt>
      <trkpt lat="10.0334871" lon="-85.2473719">
        <ele>50.0</ele>
        <time>2022-10-06T20:44:07Z</time>
      </trkpt>
      <trkpt lat="10.0334650" lon="-85.2473299">
        <ele>50.1</ele>
        <time>2022-10-06T20:44:08Z</time>
      </trkpt>
      <trkpt lat="10.0334348" lon="-85.2472806">
        <ele>49.9</ele>
        <time>2022-10-06T20:44:09Z</time>
      </trkpt>
      <trkpt lat="10.0333984" lon="-85.2472205">
        <ele>49.8</ele>
        <time>2022-10-06T20:44:10Z</time>
      </trkpt>
      <trkpt lat="10.0333513" lon="-85.2471595">
        <ele>50.0</ele>
        <time>2022-10-06T20:44:11Z</time>
      </trkpt>
      <trkpt lat="10.0332874" lon="-85.2471014">
        <ele>50.2</ele>
        <time>2022-10-06T20:44:12Z</time>
      </trkpt>
      <trkpt lat="10.0332099" lon="-85.2470353">
        <ele>50.3</ele>
        <time>2022-10-06T20:44:13Z</time>
      </trkpt>
      <trkpt lat="10.0331227" lon="-85.2469658">
        <ele>50.4</ele>
        <time>2022-10-06T20:44:14Z</time>
      </trkpt>
      <trkpt lat="10.0330304" lon="-85.2468963">
        <ele>50.5</ele>
        <time>2022-10-06T20:44:15Z</time>
      </trkpt>
      <trkpt lat="10.0329331" lon="-85.2468229">
        <ele>50.6</ele>
        <time>2022-10-06T20:44:16Z</time>
      </trkpt>
      <trkpt lat="10.0328300" lon="-85.2467452">
        <ele>50.8</ele>
        <time>2022-10-06T20:44:17Z</time>
      </trkpt>
      <trkpt lat="10.0327233" lon="-85.2466621">
        <ele>50.8</ele>
        <time>2022-10-06T20:44:18Z</time>
      </trkpt>
      <trkpt lat="10.0326124" lon="-85.2465732">
        <ele>50.7</ele>
        <time>2022-10-06T20:44:19Z</time>
      </trkpt>
      <trkpt lat="10.0325022" lon="-85.2464742">
        <ele>50.8</ele>
        <time>2022-10-06T20:44:20Z</time>
      </trkpt>
      <trkpt lat="10.0323967" lon="-85.2463671">
        <ele>50.9</ele>
        <time>2022-10-06T20:44:21Z</time>
      </trkpt>
      <trkpt lat="10.0322918" lon="-85.2462491">
        <ele>51.0</ele>
        <time>2022-10-06T20:44:22Z</time>
      </trkpt>
      <trkpt lat="10.0321900" lon="-85.2461235">
        <ele>51.1</ele>
        <time>2022-10-06T20:44:23Z</time>
      </trkpt>
      <trkpt lat="10.0320942" lon="-85.2459943">
        <ele>51.3</ele>
        <time>2022-10-06T20:44:24Z</time>
      </trkpt>
      <trkpt lat="10.0319945" lon="-85.2458548">
        <ele>51.6</ele>
        <time>2022-10-06T20:44:25Z</time>
      </trkpt>
      <trkpt lat="10.0319007" lon="-85.2457085">
        <ele>51.5</ele>
        <time>2022-10-06T20:44:26Z</time>
      </trkpt>
      <trkpt lat="10.0318086" lon="-85.2455550">
        <ele>51.6</ele>
        <time>2022-10-06T20:44:27Z</time>
      </trkpt>
      <trkpt lat="10.0317191" lon="-85.2453961">
        <ele>51.7</ele>
        <time>2022-10-06T20:44:28Z</time>
      </trkpt>
      <trkpt lat="10.0316327" lon="-85.2452320">
        <ele>51.6</ele>
        <time>2022-10-06T20:44:29Z</time>
      </trkpt>
      <trkpt lat="10.0315512" lon="-85.2450636">
        <ele>51.9</ele>
        <time>2022-10-06T20:44:30Z</time>
      </trkpt>
      <trkpt lat="10.0314725" lon="-85.2448906">
        <ele>51.9</ele>
        <time>2022-10-06T20:44:31Z</time>
      </trkpt>
      <trkpt lat="10.0313994" lon="-85.2447155">
        <ele>52.2</ele>
        <time>2022-10-06T20:44:32Z</time>
      </trkpt>
      <trkpt lat="10.0313256" lon="-85.2445374">
        <ele>52.2</ele>
        <time>2022-10-06T20:44:33Z</time>
      </trkpt>
      <trkpt lat="10.0312522" lon="-85.2443570">
        <ele>52.2</ele>
        <time>2022-10-06T20:44:34Z</time>
      </trkpt>
      <trkpt lat="10.0311782" lon="-85.2441747">
        <ele>52.2</ele>
        <time>2022-10-06T20:44:35Z</time>
      </trkpt>
      <trkpt lat="10.0311027" lon="-85.2439927">
        <ele>52.1</ele>
        <time>2022-10-06T20:44:36Z</time>
      </trkpt>
      <trkpt lat="10.0310261" lon="-85.2438080">
        <ele>52.0</ele>
        <time>2022-10-06T20:44:37Z</time>
      </trkpt>
      <trkpt lat="10.0309494" lon="-85.2436232">
        <ele>52.0</ele>
        <time>2022-10-06T20:44:38Z</time>
      </trkpt>
      <trkpt lat="10.0308728" lon="-85.2434388">
        <ele>51.8</ele>
        <time>2022-10-06T20:44:39Z</time>
      </trkpt>
      <trkpt lat="10.0307950" lon="-85.2432524">
        <ele>51.8</ele>
        <time>2022-10-06T20:44:40Z</time>
      </trkpt>
      <trkpt lat="10.0307162" lon="-85.2430656">
        <ele>52.0</ele>
        <time>2022-10-06T20:44:41Z</time>
      </trkpt>
      <trkpt lat="10.0306412" lon="-85.2428808">
        <ele>52.0</ele>
        <time>2022-10-06T20:44:42Z</time>
      </trkpt>
      <trkpt lat="10.0305652" lon="-85.2426954">
        <ele>51.9</ele>
        <time>2022-10-06T20:44:43Z</time>
      </trkpt>
      <trkpt lat="10.0304886" lon="-85.2425108">
        <ele>51.9</ele>
        <time>2022-10-06T20:44:44Z</time>
      </trkpt>
      <trkpt lat="10.0304137" lon="-85.2423251">
        <ele>51.9</ele>
        <time>2022-10-06T20:44:45Z</time>
      </trkpt>
      <trkpt lat="10.0303391" lon="-85.2421398">
        <ele>51.8</ele>
        <time>2022-10-06T20:44:46Z</time>
      </trkpt>
      <trkpt lat="10.0302623" lon="-85.2419571">
        <ele>51.8</ele>
        <time>2022-10-06T20:44:47Z</time>
      </trkpt>
      <trkpt lat="10.0301881" lon="-85.2417723">
        <ele>51.8</ele>
        <time>2022-10-06T20:44:48Z</time>
      </trkpt>
      <trkpt lat="10.0301132" lon="-85.2415911">
        <ele>51.8</ele>
        <time>2022-10-06T20:44:49Z</time>
      </trkpt>
      <trkpt lat="10.0300389" lon="-85.2414076">
        <ele>51.8</ele>
        <time>2022-10-06T20:44:50Z</time>
      </trkpt>
      <trkpt lat="10.0299634" lon="-85.2412199">
        <ele>51.8</ele>
        <time>2022-10-06T20:44:51Z</time>
      </trkpt>
      <trkpt lat="10.0298866" lon="-85.2410321">
        <ele>51.7</ele>
        <time>2022-10-06T20:44:52Z</time>
      </trkpt>
      <trkpt lat="10.0298092" lon="-85.2408447">
        <ele>51.7</ele>
        <time>2022-10-06T20:44:53Z</time>
      </trkpt>
      <trkpt lat="10.0297308" lon="-85.2406565">
        <ele>51.6</ele>
        <time>2022-10-06T20:44:54Z</time>
      </trkpt>
      <trkpt lat="10.0296532" lon="-85.2404681">
        <ele>51.5</ele>
        <time>2022-10-06T20:44:55Z</time>
      </trkpt>
      <trkpt lat="10.0295750" lon="-85.2402798">
        <ele>51.5</ele>
        <time>2022-10-06T20:44:56Z</time>
      </trkpt>
      <trkpt lat="10.0294980" lon="-85.2400928">
        <ele>51.4</ele>
        <time>2022-10-06T20:44:57Z</time>
      </trkpt>
      <trkpt lat="10.0294204" lon="-85.2399048">
        <ele>51.4</ele>
        <time>2022-10-06T20:44:58Z</time>
      </trkpt>
      <trkpt lat="10.0293418" lon="-85.2397158">
        <ele>51.3</ele>
        <time>2022-10-06T20:44:59Z</time>
      </trkpt>
      <trkpt lat="10.0292639" lon="-85.2395272">
        <ele>51.4</ele>
        <time>2022-10-06T20:45:00Z</time>
      </trkpt>
      <trkpt lat="10.0291861" lon="-85.2393392">
        <ele>51.4</ele>
        <time>2022-10-06T20:45:01Z</time>
      </trkpt>
      <trkpt lat="10.0291088" lon="-85.2391519">
        <ele>51.4</ele>
        <time>2022-10-06T20:45:02Z</time>
      </trkpt>
      <trkpt lat="10.0290358" lon="-85.2389635">
        <ele>51.5</ele>
        <time>2022-10-06T20:45:03Z</time>
      </trkpt>
      <trkpt lat="10.0289637" lon="-85.2387780">
        <ele>51.3</ele>
        <time>2022-10-06T20:45:04Z</time>
      </trkpt>
      <trkpt lat="10.0288923" lon="-85.2385927">
        <ele>51.1</ele>
        <time>2022-10-06T20:45:05Z</time>
      </trkpt>
      <trkpt lat="10.0288193" lon="-85.2384124">
        <ele>51.0</ele>
        <time>2022-10-06T20:45:06Z</time>
      </trkpt>
      <trkpt lat="10.0287426" lon="-85.2382340">
        <ele>50.9</ele>
        <time>2022-10-06T20:45:07Z</time>
      </trkpt>
      <trkpt lat="10.0286656" lon="-85.2380575">
        <ele>50.7</ele>
        <time>2022-10-06T20:45:08Z</time>
      </trkpt>
      <trkpt lat="10.0285885" lon="-85.2378799">
        <ele>50.6</ele>
        <time>2022-10-06T20:45:09Z</time>
      </trkpt>
      <trkpt lat="10.0285137" lon="-85.2377004">
        <ele>50.6</ele>
        <time>2022-10-06T20:45:10Z</time>
      </trkpt>
      <trkpt lat="10.0284396" lon="-85.2375198">
        <ele>50.4</ele>
        <time>2022-10-06T20:45:11Z</time>
      </trkpt>
      <trkpt lat="10.0283659" lon="-85.2373399">
        <ele>50.3</ele>
        <time>2022-10-06T20:45:12Z</time>
      </trkpt>
      <trkpt lat="10.0282932" lon="-85.2371582">
        <ele>50.0</ele>
        <time>2022-10-06T20:45:13Z</time>
      </trkpt>
      <trkpt lat="10.0282196" lon="-85.2369788">
        <ele>49.9</ele>
        <time>2022-10-06T20:45:14Z</time>
      </trkpt>
      <trkpt lat="10.0281439" lon="-85.2367983">
        <ele>49.9</ele>
        <time>2022-10-06T20:45:15Z</time>
      </trkpt>
      <trkpt lat="10.0280685" lon="-85.2366199">
        <ele>49.6</ele>
        <time>2022-10-06T20:45:16Z</time>
      </trkpt>
      <trkpt lat="10.0279953" lon="-85.2364424">
        <ele>49.4</ele>
        <time>2022-10-06T20:45:17Z</time>
      </trkpt>
      <trkpt lat="10.0279217" lon="-85.2362668">
        <ele>49.2</ele>
        <time>2022-10-06T20:45:18Z</time>
      </trkpt>
      <trkpt lat="10.0278503" lon="-85.2360931">
        <ele>49.1</ele>
        <time>2022-10-06T20:45:19Z</time>
      </trkpt>
      <trkpt lat="10.0277777" lon="-85.2359196">
        <ele>48.8</ele>
        <time>2022-10-06T20:45:20Z</time>
      </trkpt>
      <trkpt lat="10.0277102" lon="-85.2357548">
        <ele>48.8</ele>
        <time>2022-10-06T20:45:21Z</time>
      </trkpt>
      <trkpt lat="10.0276436" lon="-85.2355932">
        <ele>48.8</ele>
        <time>2022-10-06T20:45:22Z</time>
      </trkpt>
      <trkpt lat="10.0275776" lon="-85.2354329">
        <ele>49.1</ele>
        <time>2022-10-06T20:45:23Z</time>
      </trkpt>
      <trkpt lat="10.0275153" lon="-85.2352780">
        <ele>48.9</ele>
        <time>2022-10-06T20:45:24Z</time>
      </trkpt>
      <trkpt lat="10.0274559" lon="-85.2351261">
        <ele>48.7</ele>
        <time>2022-10-06T20:45:25Z</time>
      </trkpt>
      <trkpt lat="10.0274070" lon="-85.2349860">
        <ele>48.8</ele>
        <time>2022-10-06T20:45:26Z</time>
      </trkpt>
      <trkpt lat="10.0273737" lon="-85.2348502">
        <ele>48.8</ele>
        <time>2022-10-06T20:45:27Z</time>
      </trkpt>
      <trkpt lat="10.0273683" lon="-85.2347246">
        <ele>48.6</ele>
        <time>2022-10-06T20:45:28Z</time>
      </trkpt>
      <trkpt lat="10.0273914" lon="-85.2346034">
        <ele>48.4</ele>
        <time>2022-10-06T20:45:29Z</time>
      </trkpt>
      <trkpt lat="10.0274423" lon="-85.2344816">
        <ele>48.7</ele>
        <time>2022-10-06T20:45:30Z</time>
      </trkpt>
      <trkpt lat="10.0275070" lon="-85.2343660">
        <ele>48.4</ele>
        <time>2022-10-06T20:45:31Z</time>
      </trkpt>
      <trkpt lat="10.0275803" lon="-85.2342472">
        <ele>48.4</ele>
        <time>2022-10-06T20:45:32Z</time>
      </trkpt>
      <trkpt lat="10.0276612" lon="-85.2341228">
        <ele>48.0</ele>
        <time>2022-10-06T20:45:33Z</time>
      </trkpt>
      <trkpt lat="10.0277473" lon="-85.2339963">
        <ele>48.0</ele>
        <time>2022-10-06T20:45:34Z</time>
      </trkpt>
      <trkpt lat="10.0278373" lon="-85.2338709">
        <ele>48.0</ele>
        <time>2022-10-06T20:45:35Z</time>
      </trkpt>
      <trkpt lat="10.0279298" lon="-85.2337529">
        <ele>48.0</ele>
        <time>2022-10-06T20:45:36Z</time>
      </trkpt>
      <trkpt lat="10.0280244" lon="-85.2336363">
        <ele>47.8</ele>
        <time>2022-10-06T20:45:37Z</time>
      </trkpt>
      <trkpt lat="10.0281196" lon="-85.2335200">
        <ele>47.7</ele>
        <time>2022-10-06T20:45:38Z</time>
      </trkpt>
      <trkpt lat="10.0282149" lon="-85.2334054">
        <ele>47.4</ele>
        <time>2022-10-06T20:45:39Z</time>
      </trkpt>
      <trkpt lat="10.0283103" lon="-85.2332982">
        <ele>47.2</ele>
        <time>2022-10-06T20:45:40Z</time>
      </trkpt>
      <trkpt lat="10.0284072" lon="-85.2331913">
        <ele>47.0</ele>
        <time>2022-10-06T20:45:41Z</time>
      </trkpt>
      <trkpt lat="10.0285069" lon="-85.2330842">
        <ele>46.7</ele>
        <time>2022-10-06T20:45:42Z</time>
      </trkpt>
      <trkpt lat="10.0286045" lon="-85.2329785">
        <ele>46.6</ele>
        <time>2022-10-06T20:45:43Z</time>
      </trkpt>
      <trkpt lat="10.0287031" lon="-85.2328678">
        <ele>46.5</ele>
        <time>2022-10-06T20:45:44Z</time>
      </trkpt>
      <trkpt lat="10.0288004" lon="-85.2327597">
        <ele>46.5</ele>
        <time>2022-10-06T20:45:45Z</time>
      </trkpt>
      <trkpt lat="10.0288967" lon="-85.2326508">
        <ele>46.3</ele>
        <time>2022-10-06T20:45:46Z</time>
      </trkpt>
      <trkpt lat="10.0289890" lon="-85.2325444">
        <ele>46.3</ele>
        <time>2022-10-06T20:45:47Z</time>
      </trkpt>
      <trkpt lat="10.0290770" lon="-85.2324402">
        <ele>46.4</ele>
        <time>2022-10-06T20:45:48Z</time>
      </trkpt>
      <trkpt lat="10.0291637" lon="-85.2323369">
        <ele>46.4</ele>
        <time>2022-10-06T20:45:49Z</time>
      </trkpt>
      <trkpt lat="10.0292481" lon="-85.2322341">
        <ele>46.4</ele>
        <time>2022-10-06T20:45:50Z</time>
      </trkpt>
      <trkpt lat="10.0293257" lon="-85.2321293">
        <ele>46.1</ele>
        <time>2022-10-06T20:45:51Z</time>
      </trkpt>
      <trkpt lat="10.0294006" lon="-85.2320259">
        <ele>45.8</ele>
        <time>2022-10-06T20:45:52Z</time>
      </trkpt>
      <trkpt lat="10.0294687" lon="-85.2319311">
        <ele>45.5</ele>
        <time>2022-10-06T20:45:53Z</time>
      </trkpt>
      <trkpt lat="10.0295290" lon="-85.2318461">
        <ele>45.2</ele>
        <time>2022-10-06T20:45:54Z</time>
      </trkpt>
      <trkpt lat="10.0295801" lon="-85.2317734">
        <ele>45.0</ele>
        <time>2022-10-06T20:45:55Z</time>
      </trkpt>
      <trkpt lat="10.0296232" lon="-85.2317150">
        <ele>44.8</ele>
        <time>2022-10-06T20:45:56Z</time>
      </trkpt>
      <trkpt lat="10.0296553" lon="-85.2316728">
        <ele>44.9</ele>
        <time>2022-10-06T20:45:57Z</time>
      </trkpt>
      <trkpt lat="10.0296854" lon="-85.2316334">
        <ele>44.7</ele>
        <time>2022-10-06T20:45:58Z</time>
      </trkpt>
      <trkpt lat="10.0297204" lon="-85.2315862">
        <ele>44.5</ele>
        <time>2022-10-06T20:45:59Z</time>
      </trkpt>
      <trkpt lat="10.0297653" lon="-85.2315264">
        <ele>44.3</ele>
        <time>2022-10-06T20:46:00Z</time>
      </trkpt>
      <trkpt lat="10.0298178" lon="-85.2314562">
        <ele>44.2</ele>
        <time>2022-10-06T20:46:01Z</time>
      </trkpt>
      <trkpt lat="10.0298726" lon="-85.2313818">
        <ele>43.9</ele>
        <time>2022-10-06T20:46:02Z</time>
      </trkpt>
      <trkpt lat="10.0299304" lon="-85.2313013">
        <ele>43.8</ele>
        <time>2022-10-06T20:46:03Z</time>
      </trkpt>
      <trkpt lat="10.0299906" lon="-85.2312192">
        <ele>43.7</ele>
        <time>2022-10-06T20:46:04Z</time>
      </trkpt>
      <trkpt lat="10.0300466" lon="-85.2311336">
        <ele>43.5</ele>
        <time>2022-10-06T20:46:05Z</time>
      </trkpt>
      <trkpt lat="10.0300995" lon="-85.2310537">
        <ele>43.4</ele>
        <time>2022-10-06T20:46:06Z</time>
      </trkpt>
      <trkpt lat="10.0301560" lon="-85.2309767">
        <ele>43.1</ele>
        <time>2022-10-06T20:46:07Z</time>
      </trkpt>
      <trkpt lat="10.0302183" lon="-85.2308971">
        <ele>42.8</ele>
        <time>2022-10-06T20:46:08Z</time>
      </trkpt>
      <trkpt lat="10.0302861" lon="-85.2308137">
        <ele>42.6</ele>
        <time>2022-10-06T20:46:09Z</time>
      </trkpt>
      <trkpt lat="10.0303524" lon="-85.2307272">
        <ele>42.4</ele>
        <time>2022-10-06T20:46:10Z</time>
      </trkpt>
      <trkpt lat="10.0304117" lon="-85.2306422">
        <ele>42.1</ele>
        <time>2022-10-06T20:46:11Z</time>
      </trkpt>
      <trkpt lat="10.0304709" lon="-85.2305535">
        <ele>41.9</ele>
        <time>2022-10-06T20:46:12Z</time>
      </trkpt>
      <trkpt lat="10.0305287" lon="-85.2304560">
        <ele>41.7</ele>
        <time>2022-10-06T20:46:13Z</time>
      </trkpt>
      <trkpt lat="10.0305823" lon="-85.2303554">
        <ele>41.6</ele>
        <time>2022-10-06T20:46:14Z</time>
      </trkpt>
      <trkpt lat="10.0306318" lon="-85.2302474">
        <ele>41.6</ele>
        <time>2022-10-06T20:46:15Z</time>
      </trkpt>
      <trkpt lat="10.0306692" lon="-85.2301323">
        <ele>41.5</ele>
        <time>2022-10-06T20:46:16Z</time>
      </trkpt>
      <trkpt lat="10.0306987" lon="-85.2300092">
        <ele>41.4</ele>
        <time>2022-10-06T20:46:17Z</time>
      </trkpt>
      <trkpt lat="10.0307174" lon="-85.2298803">
        <ele>41.4</ele>
        <time>2022-10-06T20:46:18Z</time>
      </trkpt>
      <trkpt lat="10.0307271" lon="-85.2297471">
        <ele>41.4</ele>
        <time>2022-10-06T20:46:19Z</time>
      </trkpt>
      <trkpt lat="10.0307196" lon="-85.2296085">
        <ele>41.4</ele>
        <time>2022-10-06T20:46:20Z</time>
      </trkpt>
      <trkpt lat="10.0306982" lon="-85.2294717">
        <ele>41.5</ele>
        <time>2022-10-06T20:46:21Z</time>
      </trkpt>
      <trkpt lat="10.0306660" lon="-85.2293346">
        <ele>41.5</ele>
        <time>2022-10-06T20:46:22Z</time>
      </trkpt>
      <trkpt lat="10.0306196" lon="-85.2291996">
        <ele>41.9</ele>
        <time>2022-10-06T20:46:23Z</time>
      </trkpt>
      <trkpt lat="10.0305564" lon="-85.2290706">
        <ele>42.0</ele>
        <time>2022-10-06T20:46:24Z</time>
      </trkpt>
      <trkpt lat="10.0304789" lon="-85.2289431">
        <ele>42.1</ele>
        <time>2022-10-06T20:46:25Z</time>
      </trkpt>
      <trkpt lat="10.0303968" lon="-85.2288271">
        <ele>42.1</ele>
        <time>2022-10-06T20:46:26Z</time>
      </trkpt>
      <trkpt lat="10.0303295" lon="-85.2287351">
        <ele>42.1</ele>
        <time>2022-10-06T20:46:27Z</time>
      </trkpt>
      <trkpt lat="10.0302828" lon="-85.2286756">
        <ele>42.1</ele>
        <time>2022-10-06T20:46:28Z</time>
      </trkpt>
      <trkpt lat="10.0302535" lon="-85.2286318">
        <ele>42.1</ele>
        <time>2022-10-06T20:46:29Z</time>
      </trkpt>
      <trkpt lat="10.0302333" lon="-85.2286006">
        <ele>42.1</ele>
        <time>2022-10-06T20:46:30Z</time>
      </trkpt>
      <trkpt lat="10.0302101" lon="-85.2285653">
        <ele>42.3</ele>
        <time>2022-10-06T20:46:31Z</time>
      </trkpt>
      <trkpt lat="10.0301744" lon="-85.2285140">
        <ele>42.3</ele>
        <time>2022-10-06T20:46:32Z</time>
      </trkpt>
      <trkpt lat="10.0301312" lon="-85.2284513">
        <ele>42.3</ele>
        <time>2022-10-06T20:46:33Z</time>
      </trkpt>
      <trkpt lat="10.0300796" lon="-85.2283757">
        <ele>42.4</ele>
        <time>2022-10-06T20:46:34Z</time>
      </trkpt>
      <trkpt lat="10.0300187" lon="-85.2282918">
        <ele>42.4</ele>
        <time>2022-10-06T20:46:35Z</time>
      </trkpt>
      <trkpt lat="10.0299523" lon="-85.2282014">
        <ele>42.5</ele>
        <time>2022-10-06T20:46:36Z</time>
      </trkpt>
      <trkpt lat="10.0298820" lon="-85.2281045">
        <ele>42.6</ele>
        <time>2022-10-06T20:46:37Z</time>
      </trkpt>
      <trkpt lat="10.0298094" lon="-85.2280068">
        <ele>42.4</ele>
        <time>2022-10-06T20:46:38Z</time>
      </trkpt>
      <trkpt lat="10.0297392" lon="-85.2279076">
        <ele>42.5</ele>
        <time>2022-10-06T20:46:39Z</time>
      </trkpt>
      <trkpt lat="10.0296722" lon="-85.2278076">
        <ele>42.4</ele>
        <time>2022-10-06T20:46:40Z</time>
      </trkpt>
      <trkpt lat="10.0296088" lon="-85.2277155">
        <ele>42.3</ele>
        <time>2022-10-06T20:46:41Z</time>
      </trkpt>
      <trkpt lat="10.0295519" lon="-85.2276313">
        <ele>42.1</ele>
        <time>2022-10-06T20:46:42Z</time>
      </trkpt>
      <trkpt lat="10.0295000" lon="-85.2275492">
        <ele>42.1</ele>
        <time>2022-10-06T20:46:43Z</time>
      </trkpt>
      <trkpt lat="10.0294510" lon="-85.2274736">
        <ele>42.0</ele>
        <time>2022-10-06T20:46:44Z</time>
      </trkpt>
      <trkpt lat="10.0294022" lon="-85.2274025">
        <ele>42.1</ele>
        <time>2022-10-06T20:46:45Z</time>
      </trkpt>
      <trkpt lat="10.0293568" lon="-85.2273321">
        <ele>41.9</ele>
        <time>2022-10-06T20:46:46Z</time>
      </trkpt>
      <trkpt lat="10.0293018" lon="-85.2272617">
        <ele>42.0</ele>
        <time>2022-10-06T20:46:47Z</time>
      </trkpt>
      <trkpt lat="10.0292448" lon="-85.2271881">
        <ele>41.9</ele>
        <time>2022-10-06T20:46:48Z</time>
      </trkpt>
      <trkpt lat="10.0291832" lon="-85.2271066">
        <ele>41.9</ele>
        <time>2022-10-06T20:46:49Z</time>
      </trkpt>
      <trkpt lat="10.0291210" lon="-85.2270224">
        <ele>41.7</ele>
        <time>2022-10-06T20:46:50Z</time>
      </trkpt>
      <trkpt lat="10.0290562" lon="-85.2269344">
        <ele>41.5</ele>
        <time>2022-10-06T20:46:51Z</time>
      </trkpt>
      <trkpt lat="10.0289859" lon="-85.2268370">
        <ele>41.6</ele>
        <time>2022-10-06T20:46:52Z</time>
      </trkpt>
      <trkpt lat="10.0289129" lon="-85.2267355">
        <ele>41.5</ele>
        <time>2022-10-06T20:46:53Z</time>
      </trkpt>
      <trkpt lat="10.0288377" lon="-85.2266307">
        <ele>41.3</ele>
        <time>2022-10-06T20:46:54Z</time>
      </trkpt>
      <trkpt lat="10.0287612" lon="-85.2265240">
        <ele>41.0</ele>
        <time>2022-10-06T20:46:55Z</time>
      </trkpt>
      <trkpt lat="10.0286798" lon="-85.2264130">
        <ele>40.7</ele>
        <time>2022-10-06T20:46:56Z</time>
      </trkpt>
      <trkpt lat="10.0285994" lon="-85.2263018">
        <ele>40.4</ele>
        <time>2022-10-06T20:46:57Z</time>
      </trkpt>
      <trkpt lat="10.0285209" lon="-85.2261902">
        <ele>40.2</ele>
        <time>2022-10-06T20:46:58Z</time>
      </trkpt>
      <trkpt lat="10.0284429" lon="-85.2260781">
        <ele>40.1</ele>
        <time>2022-10-06T20:46:59Z</time>
      </trkpt>
      <trkpt lat="10.0283633" lon="-85.2259631">
        <ele>40.1</ele>
        <time>2022-10-06T20:47:00Z</time>
      </trkpt>
      <trkpt lat="10.0282898" lon="-85.2258427">
        <ele>40.1</ele>
        <time>2022-10-06T20:47:01Z</time>
      </trkpt>
      <trkpt lat="10.0282286" lon="-85.2257099">
        <ele>39.7</ele>
        <time>2022-10-06T20:47:02Z</time>
      </trkpt>
      <trkpt lat="10.0281811" lon="-85.2255683">
        <ele>39.3</ele>
        <time>2022-10-06T20:47:03Z</time>
      </trkpt>
      <trkpt lat="10.0281466" lon="-85.2254233">
        <ele>39.5</ele>
        <time>2022-10-06T20:47:04Z</time>
      </trkpt>
      <trkpt lat="10.0281325" lon="-85.2252714">
        <ele>39.4</ele>
        <time>2022-10-06T20:47:05Z</time>
      </trkpt>
      <trkpt lat="10.0281285" lon="-85.2251123">
        <ele>39.4</ele>
        <time>2022-10-06T20:47:06Z</time>
      </trkpt>
      <trkpt lat="10.0281412" lon="-85.2249518">
        <ele>39.3</ele>
        <time>2022-10-06T20:47:07Z</time>
      </trkpt>
      <trkpt lat="10.0281648" lon="-85.2247887">
        <ele>39.2</ele>
        <time>2022-10-06T20:47:08Z</time>
      </trkpt>
      <trkpt lat="10.0281924" lon="-85.2246224">
        <ele>38.9</ele>
        <time>2022-10-06T20:47:09Z</time>
      </trkpt>
      <trkpt lat="10.0282240" lon="-85.2244530">
        <ele>38.9</ele>
        <time>2022-10-06T20:47:10Z</time>
      </trkpt>
      <trkpt lat="10.0282577" lon="-85.2242812">
        <ele>38.8</ele>
        <time>2022-10-06T20:47:11Z</time>
      </trkpt>
      <trkpt lat="10.0282929" lon="-85.2241080">
        <ele>38.7</ele>
        <time>2022-10-06T20:47:12Z</time>
      </trkpt>
      <trkpt lat="10.0283276" lon="-85.2239329">
        <ele>38.7</ele>
        <time>2022-10-06T20:47:13Z</time>
      </trkpt>
      <trkpt lat="10.0283608" lon="-85.2237581">
        <ele>38.7</ele>
        <time>2022-10-06T20:47:14Z</time>
      </trkpt>
      <trkpt lat="10.0283835" lon="-85.2235844">
        <ele>38.8</ele>
        <time>2022-10-06T20:47:15Z</time>
      </trkpt>
      <trkpt lat="10.0283971" lon="-85.2234088">
        <ele>38.8</ele>
        <time>2022-10-06T20:47:16Z</time>
      </trkpt>
      <trkpt lat="10.0283972" lon="-85.2232356">
        <ele>38.7</ele>
        <time>2022-10-06T20:47:17Z</time>
      </trkpt>
      <trkpt lat="10.0283818" lon="-85.2230632">
        <ele>38.6</ele>
        <time>2022-10-06T20:47:18Z</time>
      </trkpt>
      <trkpt lat="10.0283596" lon="-85.2228901">
        <ele>38.6</ele>
        <time>2022-10-06T20:47:19Z</time>
      </trkpt>
      <trkpt lat="10.0283135" lon="-85.2227188">
        <ele>38.4</ele>
        <time>2022-10-06T20:47:20Z</time>
      </trkpt>
      <trkpt lat="10.0282559" lon="-85.2225483">
        <ele>38.3</ele>
        <time>2022-10-06T20:47:21Z</time>
      </trkpt>
      <trkpt lat="10.0281898" lon="-85.2223779">
        <ele>38.2</ele>
        <time>2022-10-06T20:47:22Z</time>
      </trkpt>
      <trkpt lat="10.0281182" lon="-85.2222076">
        <ele>38.2</ele>
        <time>2022-10-06T20:47:23Z</time>
      </trkpt>
      <trkpt lat="10.0280441" lon="-85.2220338">
        <ele>38.0</ele>
        <time>2022-10-06T20:47:24Z</time>
      </trkpt>
      <trkpt lat="10.0279693" lon="-85.2218586">
        <ele>38.0</ele>
        <time>2022-10-06T20:47:25Z</time>
      </trkpt>
      <trkpt lat="10.0278921" lon="-85.2216801">
        <ele>37.8</ele>
        <time>2022-10-06T20:47:26Z</time>
      </trkpt>
      <trkpt lat="10.0278164" lon="-85.2215009">
        <ele>37.7</ele>
        <time>2022-10-06T20:47:27Z</time>
      </trkpt>
      <trkpt lat="10.0277408" lon="-85.2213195">
        <ele>37.6</ele>
        <time>2022-10-06T20:47:28Z</time>
      </trkpt>
      <trkpt lat="10.0276667" lon="-85.2211381">
        <ele>37.4</ele>
        <time>2022-10-06T20:47:29Z</time>
      </trkpt>
      <trkpt lat="10.0275900" lon="-85.2209574">
        <ele>37.3</ele>
        <time>2022-10-06T20:47:30Z</time>
      </trkpt>
      <trkpt lat="10.0275141" lon="-85.2207773">
        <ele>37.0</ele>
        <time>2022-10-06T20:47:31Z</time>
      </trkpt>
      <trkpt lat="10.0274400" lon="-85.2205967">
        <ele>36.8</ele>
        <time>2022-10-06T20:47:32Z</time>
      </trkpt>
      <trkpt lat="10.0273658" lon="-85.2204148">
        <ele>36.6</ele>
        <time>2022-10-06T20:47:33Z</time>
      </trkpt>
      <trkpt lat="10.0272909" lon="-85.2202350">
        <ele>36.4</ele>
        <time>2022-10-06T20:47:34Z</time>
      </trkpt>
      <trkpt lat="10.0272163" lon="-85.2200571">
        <ele>36.2</ele>
        <time>2022-10-06T20:47:35Z</time>
      </trkpt>
      <trkpt lat="10.0271425" lon="-85.2198822">
        <ele>36.1</ele>
        <time>2022-10-06T20:47:36Z</time>
      </trkpt>
      <trkpt lat="10.0270688" lon="-85.2197080">
        <ele>35.9</ele>
        <time>2022-10-06T20:47:37Z</time>
      </trkpt>
      <trkpt lat="10.0269968" lon="-85.2195374">
        <ele>35.6</ele>
        <time>2022-10-06T20:47:38Z</time>
      </trkpt>
      <trkpt lat="10.0269269" lon="-85.2193696">
        <ele>35.5</ele>
        <time>2022-10-06T20:47:39Z</time>
      </trkpt>
      <trkpt lat="10.0268568" lon="-85.2192012">
        <ele>35.4</ele>
        <time>2022-10-06T20:47:40Z</time>
      </trkpt>
      <trkpt lat="10.0267855" lon="-85.2190351">
        <ele>35.5</ele>
        <time>2022-10-06T20:47:41Z</time>
      </trkpt>
      <trkpt lat="10.0267147" lon="-85.2188694">
        <ele>35.7</ele>
        <time>2022-10-06T20:47:42Z</time>
      </trkpt>
      <trkpt lat="10.0266439" lon="-85.2187025">
        <ele>35.8</ele>
        <time>2022-10-06T20:47:43Z</time>
      </trkpt>
      <trkpt lat="10.0265727" lon="-85.2185332">
        <ele>35.8</ele>
        <time>2022-10-06T20:47:44Z</time>
      </trkpt>
      <trkpt lat="10.0265006" lon="-85.2183651">
        <ele>35.7</ele>
        <time>2022-10-06T20:47:45Z</time>
      </trkpt>
      <trkpt lat="10.0264281" lon="-85.2181973">
        <ele>35.8</ele>
        <time>2022-10-06T20:47:46Z</time>
      </trkpt>
      <trkpt lat="10.0263554" lon="-85.2180283">
        <ele>35.7</ele>
        <time>2022-10-06T20:47:47Z</time>
      </trkpt>
      <trkpt lat="10.0262859" lon="-85.2178602">
        <ele>35.5</ele>
        <time>2022-10-06T20:47:48Z</time>
      </trkpt>
      <trkpt lat="10.0262149" lon="-85.2176894">
        <ele>35.6</ele>
        <time>2022-10-06T20:47:49Z</time>
      </trkpt>
      <trkpt lat="10.0261451" lon="-85.2175203">
        <ele>35.5</ele>
        <time>2022-10-06T20:47:50Z</time>
      </trkpt>
      <trkpt lat="10.0260742" lon="-85.2173479">
        <ele>35.1</ele>
        <time>2022-10-06T20:47:51Z</time>
      </trkpt>
      <trkpt lat="10.0260025" lon="-85.2171737">
        <ele>35.0</ele>
        <time>2022-10-06T20:47:52Z</time>
      </trkpt>
      <trkpt lat="10.0259280" lon="-85.2169976">
        <ele>34.8</ele>
        <time>2022-10-06T20:47:53Z</time>
      </trkpt>
      <trkpt lat="10.0258539" lon="-85.2168210">
        <ele>34.7</ele>
        <time>2022-10-06T20:47:54Z</time>
      </trkpt>
      <trkpt lat="10.0257775" lon="-85.2166445">
        <ele>34.7</ele>
        <time>2022-10-06T20:47:55Z</time>
      </trkpt>
      <trkpt lat="10.0257012" lon="-85.2164689">
        <ele>34.5</ele>
        <time>2022-10-06T20:47:56Z</time>
      </trkpt>
      <trkpt lat="10.0256254" lon="-85.2162926">
        <ele>34.4</ele>
        <time>2022-10-06T20:47:57Z</time>
      </trkpt>
      <trkpt lat="10.0255492" lon="-85.2161120">
        <ele>34.3</ele>
        <time>2022-10-06T20:47:58Z</time>
      </trkpt>
      <trkpt lat="10.0254731" lon="-85.2159295">
        <ele>34.1</ele>
        <time>2022-10-06T20:47:59Z</time>
      </trkpt>
      <trkpt lat="10.0253969" lon="-85.2157453">
        <ele>34.0</ele>
        <time>2022-10-06T20:48:00Z</time>
      </trkpt>
      <trkpt lat="10.0253192" lon="-85.2155609">
        <ele>33.8</ele>
        <time>2022-10-06T20:48:01Z</time>
      </trkpt>
      <trkpt lat="10.0252435" lon="-85.2153792">
        <ele>33.7</ele>
        <time>2022-10-06T20:48:02Z</time>
      </trkpt>
      <trkpt lat="10.0251668" lon="-85.2151983">
        <ele>33.7</ele>
        <time>2022-10-06T20:48:03Z</time>
      </trkpt>
      <trkpt lat="10.0250920" lon="-85.2150242">
        <ele>33.9</ele>
        <time>2022-10-06T20:48:04Z</time>
      </trkpt>
      <trkpt lat="10.0250104" lon="-85.2148544">
        <ele>33.8</ele>
        <time>2022-10-06T20:48:05Z</time>
      </trkpt>
      <trkpt lat="10.0249181" lon="-85.2146950">
        <ele>33.9</ele>
        <time>2022-10-06T20:48:06Z</time>
      </trkpt>
      <trkpt lat="10.0248124" lon="-85.2145459">
        <ele>33.8</ele>
        <time>2022-10-06T20:48:07Z</time>
      </trkpt>
      <trkpt lat="10.0246990" lon="-85.2143994">
        <ele>33.5</ele>
        <time>2022-10-06T20:48:08Z</time>
      </trkpt>
      <trkpt lat="10.0245665" lon="-85.2142648">
        <ele>34.1</ele>
        <time>2022-10-06T20:48:09Z</time>
      </trkpt>
      <trkpt lat="10.0244165" lon="-85.2141462">
        <ele>34.2</ele>
        <time>2022-10-06T20:48:10Z</time>
      </trkpt>
      <trkpt lat="10.0242626" lon="-85.2140347">
        <ele>34.0</ele>
        <time>2022-10-06T20:48:11Z</time>
      </trkpt>
      <trkpt lat="10.0240904" lon="-85.2139401">
        <ele>34.1</ele>
        <time>2022-10-06T20:48:12Z</time>
      </trkpt>
      <trkpt lat="10.0239133" lon="-85.2138495">
        <ele>33.8</ele>
        <time>2022-10-06T20:48:13Z</time>
      </trkpt>
      <trkpt lat="10.0237381" lon="-85.2137583">
        <ele>33.7</ele>
        <time>2022-10-06T20:48:14Z</time>
      </trkpt>
      <trkpt lat="10.0235622" lon="-85.2136651">
        <ele>33.6</ele>
        <time>2022-10-06T20:48:15Z</time>
      </trkpt>
      <trkpt lat="10.0233861" lon="-85.2135716">
        <ele>33.5</ele>
        <time>2022-10-06T20:48:16Z</time>
      </trkpt>
      <trkpt lat="10.0232102" lon="-85.2134816">
        <ele>33.4</ele>
        <time>2022-10-06T20:48:17Z</time>
      </trkpt>
      <trkpt lat="10.0230340" lon="-85.2133921">
        <ele>33.3</ele>
        <time>2022-10-06T20:48:18Z</time>
      </trkpt>
      <trkpt lat="10.0228575" lon="-85.2133018">
        <ele>33.1</ele>
        <time>2022-10-06T20:48:19Z</time>
      </trkpt>
      <trkpt lat="10.0226828" lon="-85.2132117">
        <ele>33.0</ele>
        <time>2022-10-06T20:48:20Z</time>
      </trkpt>
      <trkpt lat="10.0225099" lon="-85.2131227">
        <ele>32.8</ele>
        <time>2022-10-06T20:48:21Z</time>
      </trkpt>
      <trkpt lat="10.0223357" lon="-85.2130324">
        <ele>32.7</ele>
        <time>2022-10-06T20:48:22Z</time>
      </trkpt>
      <trkpt lat="10.0221615" lon="-85.2129418">
        <ele>32.7</ele>
        <time>2022-10-06T20:48:23Z</time>
      </trkpt>
      <trkpt lat="10.0219869" lon="-85.2128514">
        <ele>32.6</ele>
        <time>2022-10-06T20:48:24Z</time>
      </trkpt>
      <trkpt lat="10.0218131" lon="-85.2127614">
        <ele>32.6</ele>
        <time>2022-10-06T20:48:25Z</time>
      </trkpt>
      <trkpt lat="10.0216401" lon="-85.2126698">
        <ele>32.6</ele>
        <time>2022-10-06T20:48:26Z</time>
      </trkpt>
      <trkpt lat="10.0214682" lon="-85.2125774">
        <ele>32.6</ele>
        <time>2022-10-06T20:48:27Z</time>
      </trkpt>
      <trkpt lat="10.0212958" lon="-85.2124857">
        <ele>32.5</ele>
        <time>2022-10-06T20:48:28Z</time>
      </trkpt>
      <trkpt lat="10.0211229" lon="-85.2123941">
        <ele>32.5</ele>
        <time>2022-10-06T20:48:29Z</time>
      </trkpt>
      <trkpt lat="10.0209527" lon="-85.2123046">
        <ele>32.6</ele>
        <time>2022-10-06T20:48:30Z</time>
      </trkpt>
      <trkpt lat="10.0207874" lon="-85.2122183">
        <ele>32.7</ele>
        <time>2022-10-06T20:48:31Z</time>
      </trkpt>
      <trkpt lat="10.0206223" lon="-85.2121322">
        <ele>32.9</ele>
        <time>2022-10-06T20:48:32Z</time>
      </trkpt>
      <trkpt lat="10.0204617" lon="-85.2120500">
        <ele>33.1</ele>
        <time>2022-10-06T20:48:33Z</time>
      </trkpt>
      <trkpt lat="10.0203006" lon="-85.2119724">
        <ele>33.2</ele>
        <time>2022-10-06T20:48:34Z</time>
      </trkpt>
      <trkpt lat="10.0201384" lon="-85.2118953">
        <ele>33.4</ele>
        <time>2022-10-06T20:48:35Z</time>
      </trkpt>
      <trkpt lat="10.0199721" lon="-85.2118206">
        <ele>33.6</ele>
        <time>2022-10-06T20:48:36Z</time>
      </trkpt>
      <trkpt lat="10.0198012" lon="-85.2117527">
        <ele>33.8</ele>
        <time>2022-10-06T20:48:37Z</time>
      </trkpt>
      <trkpt lat="10.0196255" lon="-85.2116944">
        <ele>34.1</ele>
        <time>2022-10-06T20:48:38Z</time>
      </trkpt>
      <trkpt lat="10.0194477" lon="-85.2116431">
        <ele>34.1</ele>
        <time>2022-10-06T20:48:39Z</time>
      </trkpt>
      <trkpt lat="10.0192618" lon="-85.2116031">
        <ele>34.4</ele>
        <time>2022-10-06T20:48:40Z</time>
      </trkpt>
      <trkpt lat="10.0190766" lon="-85.2115738">
        <ele>34.8</ele>
        <time>2022-10-06T20:48:41Z</time>
      </trkpt>
      <trkpt lat="10.0188955" lon="-85.2115514">
        <ele>35.1</ele>
        <time>2022-10-06T20:48:42Z</time>
      </trkpt>
      <trkpt lat="10.0187231" lon="-85.2115353">
        <ele>35.5</ele>
        <time>2022-10-06T20:48:43Z</time>
      </trkpt>
      <trkpt lat="10.0185522" lon="-85.2115308">
        <ele>35.8</ele>
        <time>2022-10-06T20:48:44Z</time>
      </trkpt>
      <trkpt lat="10.0183805" lon="-85.2115396">
        <ele>36.1</ele>
        <time>2022-10-06T20:48:45Z</time>
      </trkpt>
      <trkpt lat="10.0182058" lon="-85.2115612">
        <ele>36.3</ele>
        <time>2022-10-06T20:48:46Z</time>
      </trkpt>
      <trkpt lat="10.0180268" lon="-85.2115892">
        <ele>36.5</ele>
        <time>2022-10-06T20:48:47Z</time>
      </trkpt>
      <trkpt lat="10.0178469" lon="-85.2116213">
        <ele>36.7</ele>
        <time>2022-10-06T20:48:48Z</time>
      </trkpt>
      <trkpt lat="10.0176642" lon="-85.2116576">
        <ele>37.0</ele>
        <time>2022-10-06T20:48:49Z</time>
      </trkpt>
      <trkpt lat="10.0174791" lon="-85.2116944">
        <ele>37.2</ele>
        <time>2022-10-06T20:48:50Z</time>
      </trkpt>
      <trkpt lat="10.0172941" lon="-85.2117312">
        <ele>37.2</ele>
        <time>2022-10-06T20:48:51Z</time>
      </trkpt>
      <trkpt lat="10.0171094" lon="-85.2117708">
        <ele>37.5</ele>
        <time>2022-10-06T20:48:52Z</time>
      </trkpt>
      <trkpt lat="10.0169256" lon="-85.2118110">
        <ele>37.8</ele>
        <time>2022-10-06T20:48:53Z</time>
      </trkpt>
      <trkpt lat="10.0167409" lon="-85.2118501">
        <ele>38.1</ele>
        <time>2022-10-06T20:48:54Z</time>
      </trkpt>
      <trkpt lat="10.0165549" lon="-85.2118897">
        <ele>38.4</ele>
        <time>2022-10-06T20:48:55Z</time>
      </trkpt>
      <trkpt lat="10.0163676" lon="-85.2119290">
        <ele>38.6</ele>
        <time>2022-10-06T20:48:56Z</time>
      </trkpt>
      <trkpt lat="10.0161761" lon="-85.2119681">
        <ele>38.9</ele>
        <time>2022-10-06T20:48:57Z</time>
      </trkpt>
      <trkpt lat="10.0159855" lon="-85.2120090">
        <ele>39.1</ele>
        <time>2022-10-06T20:48:58Z</time>
      </trkpt>
      <trkpt lat="10.0157938" lon="-85.2120511">
        <ele>39.5</ele>
        <time>2022-10-06T20:48:59Z</time>
      </trkpt>
      <trkpt lat="10.0156021" lon="-85.2120921">
        <ele>39.8</ele>
        <time>2022-10-06T20:49:00Z</time>
      </trkpt>
      <trkpt lat="10.0154118" lon="-85.2121331">
        <ele>40.2</ele>
        <time>2022-10-06T20:49:01Z</time>
      </trkpt>
      <trkpt lat="10.0152256" lon="-85.2121737">
        <ele>40.6</ele>
        <time>2022-10-06T20:49:02Z</time>
      </trkpt>
      <trkpt lat="10.0150385" lon="-85.2122148">
        <ele>40.8</ele>
        <time>2022-10-06T20:49:03Z</time>
      </trkpt>
      <trkpt lat="10.0148519" lon="-85.2122549">
        <ele>41.2</ele>
        <time>2022-10-06T20:49:04Z</time>
      </trkpt>
      <trkpt lat="10.0146678" lon="-85.2122948">
        <ele>41.4</ele>
        <time>2022-10-06T20:49:05Z</time>
      </trkpt>
      <trkpt lat="10.0144810" lon="-85.2123337">
        <ele>41.6</ele>
        <time>2022-10-06T20:49:06Z</time>
      </trkpt>
      <trkpt lat="10.0142955" lon="-85.2123733">
        <ele>41.7</ele>
        <time>2022-10-06T20:49:07Z</time>
      </trkpt>
      <trkpt lat="10.0141089" lon="-85.2124130">
        <ele>41.9</ele>
        <time>2022-10-06T20:49:08Z</time>
      </trkpt>
      <trkpt lat="10.0139193" lon="-85.2124524">
        <ele>42.1</ele>
        <time>2022-10-06T20:49:09Z</time>
      </trkpt>
      <trkpt lat="10.0137290" lon="-85.2124916">
        <ele>42.3</ele>
        <time>2022-10-06T20:49:10Z</time>
      </trkpt>
      <trkpt lat="10.0135373" lon="-85.2125324">
        <ele>42.6</ele>
        <time>2022-10-06T20:49:11Z</time>
      </trkpt>
      <trkpt lat="10.0133447" lon="-85.2125734">
        <ele>42.9</ele>
        <time>2022-10-06T20:49:12Z</time>
      </trkpt>
      <trkpt lat="10.0131548" lon="-85.2126147">
        <ele>43.2</ele>
        <time>2022-10-06T20:49:13Z</time>
      </trkpt>
      <trkpt lat="10.0129674" lon="-85.2126555">
        <ele>43.4</ele>
        <time>2022-10-06T20:49:14Z</time>
      </trkpt>
      <trkpt lat="10.0127814" lon="-85.2126955">
        <ele>43.8</ele>
        <time>2022-10-06T20:49:15Z</time>
      </trkpt>
      <trkpt lat="10.0125972" lon="-85.2127351">
        <ele>44.2</ele>
        <time>2022-10-06T20:49:16Z</time>
      </trkpt>
      <trkpt lat="10.0124114" lon="-85.2127742">
        <ele>44.6</ele>
        <time>2022-10-06T20:49:17Z</time>
      </trkpt>
      <trkpt lat="10.0122262" lon="-85.2128076">
        <ele>45.1</ele>
        <time>2022-10-06T20:49:18Z</time>
      </trkpt>
      <trkpt lat="10.0120387" lon="-85.2128339">
        <ele>45.6</ele>
        <time>2022-10-06T20:49:19Z</time>
      </trkpt>
      <trkpt lat="10.0118503" lon="-85.2128532">
        <ele>46.0</ele>
        <time>2022-10-06T20:49:20Z</time>
      </trkpt>
      <trkpt lat="10.0116614" lon="-85.2128654">
        <ele>46.1</ele>
        <time>2022-10-06T20:49:21Z</time>
      </trkpt>
      <trkpt lat="10.0114686" lon="-85.2128707">
        <ele>46.6</ele>
        <time>2022-10-06T20:49:22Z</time>
      </trkpt>
      <trkpt lat="10.0112746" lon="-85.2128729">
        <ele>47.1</ele>
        <time>2022-10-06T20:49:23Z</time>
      </trkpt>
      <trkpt lat="10.0110800" lon="-85.2128740">
        <ele>47.4</ele>
        <time>2022-10-06T20:49:24Z</time>
      </trkpt>
      <trkpt lat="10.0108859" lon="-85.2128736">
        <ele>47.9</ele>
        <time>2022-10-06T20:49:25Z</time>
      </trkpt>
      <trkpt lat="10.0106886" lon="-85.2128717">
        <ele>48.4</ele>
        <time>2022-10-06T20:49:26Z</time>
      </trkpt>
      <trkpt lat="10.0104909" lon="-85.2128693">
        <ele>48.8</ele>
        <time>2022-10-06T20:49:27Z</time>
      </trkpt>
      <trkpt lat="10.0102944" lon="-85.2128646">
        <ele>49.4</ele>
        <time>2022-10-06T20:49:28Z</time>
      </trkpt>
      <trkpt lat="10.0100983" lon="-85.2128623">
        <ele>49.7</ele>
        <time>2022-10-06T20:49:29Z</time>
      </trkpt>
      <trkpt lat="10.0099025" lon="-85.2128607">
        <ele>50.1</ele>
        <time>2022-10-06T20:49:30Z</time>
      </trkpt>
      <trkpt lat="10.0097054" lon="-85.2128602">
        <ele>50.4</ele>
        <time>2022-10-06T20:49:31Z</time>
      </trkpt>
      <trkpt lat="10.0095053" lon="-85.2128603">
        <ele>50.7</ele>
        <time>2022-10-06T20:49:32Z</time>
      </trkpt>
      <trkpt lat="10.0093056" lon="-85.2128611">
        <ele>51.0</ele>
        <time>2022-10-06T20:49:33Z</time>
      </trkpt>
      <trkpt lat="10.0091063" lon="-85.2128611">
        <ele>51.3</ele>
        <time>2022-10-06T20:49:34Z</time>
      </trkpt>
      <trkpt lat="10.0089054" lon="-85.2128618">
        <ele>51.6</ele>
        <time>2022-10-06T20:49:35Z</time>
      </trkpt>
      <trkpt lat="10.0087042" lon="-85.2128620">
        <ele>52.0</ele>
        <time>2022-10-06T20:49:36Z</time>
      </trkpt>
      <trkpt lat="10.0085018" lon="-85.2128631">
        <ele>52.3</ele>
        <time>2022-10-06T20:49:37Z</time>
      </trkpt>
      <trkpt lat="10.0082986" lon="-85.2128623">
        <ele>52.6</ele>
        <time>2022-10-06T20:49:38Z</time>
      </trkpt>
      <trkpt lat="10.0080955" lon="-85.2128605">
        <ele>53.0</ele>
        <time>2022-10-06T20:49:39Z</time>
      </trkpt>
      <trkpt lat="10.0078911" lon="-85.2128602">
        <ele>53.5</ele>
        <time>2022-10-06T20:49:40Z</time>
      </trkpt>
      <trkpt lat="10.0076860" lon="-85.2128591">
        <ele>54.0</ele>
        <time>2022-10-06T20:49:41Z</time>
      </trkpt>
      <trkpt lat="10.0074798" lon="-85.2128593">
        <ele>54.5</ele>
        <time>2022-10-06T20:49:42Z</time>
      </trkpt>
      <trkpt lat="10.0072747" lon="-85.2128594">
        <ele>54.9</ele>
        <time>2022-10-06T20:49:43Z</time>
      </trkpt>
      <trkpt lat="10.0070721" lon="-85.2128599">
        <ele>55.4</ele>
        <time>2022-10-06T20:49:44Z</time>
      </trkpt>
      <trkpt lat="10.0068704" lon="-85.2128592">
        <ele>55.8</ele>
        <time>2022-10-06T20:49:45Z</time>
      </trkpt>
      <trkpt lat="10.0066688" lon="-85.2128588">
        <ele>56.3</ele>
        <time>2022-10-06T20:49:46Z</time>
      </trkpt>
      <trkpt lat="10.0064645" lon="-85.2128590">
        <ele>56.7</ele>
        <time>2022-10-06T20:49:47Z</time>
      </trkpt>
      <trkpt lat="10.0062626" lon="-85.2128595">
        <ele>57.2</ele>
        <time>2022-10-06T20:49:48Z</time>
      </trkpt>
      <trkpt lat="10.0060599" lon="-85.2128600">
        <ele>57.5</ele>
        <time>2022-10-06T20:49:49Z</time>
      </trkpt>
      <trkpt lat="10.0058584" lon="-85.2128605">
        <ele>57.8</ele>
        <time>2022-10-06T20:49:50Z</time>
      </trkpt>
      <trkpt lat="10.0056572" lon="-85.2128599">
        <ele>58.0</ele>
        <time>2022-10-06T20:49:51Z</time>
      </trkpt>
      <trkpt lat="10.0054551" lon="-85.2128595">
        <ele>58.2</ele>
        <time>2022-10-06T20:49:52Z</time>
      </trkpt>
      <trkpt lat="10.0052526" lon="-85.2128584">
        <ele>58.5</ele>
        <time>2022-10-06T20:49:53Z</time>
      </trkpt>
      <trkpt lat="10.0050498" lon="-85.2128566">
        <ele>58.9</ele>
        <time>2022-10-06T20:49:54Z</time>
      </trkpt>
      <trkpt lat="10.0048489" lon="-85.2128550">
        <ele>59.4</ele>
        <time>2022-10-06T20:49:55Z</time>
      </trkpt>
      <trkpt lat="10.0046477" lon="-85.2128535">
        <ele>59.8</ele>
        <time>2022-10-06T20:49:56Z</time>
      </trkpt>
      <trkpt lat="10.0044491" lon="-85.2128540">
        <ele>60.2</ele>
        <time>2022-10-06T20:49:57Z</time>
      </trkpt>
      <trkpt lat="10.0042523" lon="-85.2128525">
        <ele>60.6</ele>
        <time>2022-10-06T20:49:58Z</time>
      </trkpt>
      <trkpt lat="10.0040581" lon="-85.2128470">
        <ele>61.0</ele>
        <time>2022-10-06T20:49:59Z</time>
      </trkpt>
      <trkpt lat="10.0038655" lon="-85.2128368">
        <ele>61.4</ele>
        <time>2022-10-06T20:50:00Z</time>
      </trkpt>
      <trkpt lat="10.0036738" lon="-85.2128226">
        <ele>61.6</ele>
        <time>2022-10-06T20:50:01Z</time>
      </trkpt>
      <trkpt lat="10.0034861" lon="-85.2127997">
        <ele>61.9</ele>
        <time>2022-10-06T20:50:02Z</time>
      </trkpt>
      <trkpt lat="10.0032995" lon="-85.2127693">
        <ele>62.0</ele>
        <time>2022-10-06T20:50:03Z</time>
      </trkpt>
      <trkpt lat="10.0031166" lon="-85.2127295">
        <ele>62.4</ele>
        <time>2022-10-06T20:50:04Z</time>
      </trkpt>
      <trkpt lat="10.0029393" lon="-85.2126774">
        <ele>62.7</ele>
        <time>2022-10-06T20:50:05Z</time>
      </trkpt>
      <trkpt lat="10.0027641" lon="-85.2126203">
        <ele>62.8</ele>
        <time>2022-10-06T20:50:06Z</time>
      </trkpt>
      <trkpt lat="10.0025945" lon="-85.2125534">
        <ele>63.0</ele>
        <time>2022-10-06T20:50:07Z</time>
      </trkpt>
      <trkpt lat="10.0024286" lon="-85.2124784">
        <ele>63.3</ele>
        <time>2022-10-06T20:50:08Z</time>
      </trkpt>
      <trkpt lat="10.0022679" lon="-85.2123945">
        <ele>63.5</ele>
        <time>2022-10-06T20:50:09Z</time>
      </trkpt>
      <trkpt lat="10.0021100" lon="-85.2122983">
        <ele>63.8</ele>
        <time>2022-10-06T20:50:10Z</time>
      </trkpt>
      <trkpt lat="10.0019552" lon="-85.2121970">
        <ele>63.9</ele>
        <time>2022-10-06T20:50:11Z</time>
      </trkpt>
      <trkpt lat="10.0018036" lon="-85.2120928">
        <ele>64.2</ele>
        <time>2022-10-06T20:50:12Z</time>
      </trkpt>
      <trkpt lat="10.0016537" lon="-85.2119860">
        <ele>64.1</ele>
        <time>2022-10-06T20:50:13Z</time>
      </trkpt>
      <trkpt lat="10.0015048" lon="-85.2118770">
        <ele>64.2</ele>
        <time>2022-10-06T20:50:14Z</time>
      </trkpt>
      <trkpt lat="10.0013557" lon="-85.2117689">
        <ele>64.4</ele>
        <time>2022-10-06T20:50:15Z</time>
      </trkpt>
      <trkpt lat="10.0012064" lon="-85.2116578">
        <ele>64.4</ele>
        <time>2022-10-06T20:50:16Z</time>
      </trkpt>
      <trkpt lat="10.0010583" lon="-85.2115470">
        <ele>64.5</ele>
        <time>2022-10-06T20:50:17Z</time>
      </trkpt>
      <trkpt lat="10.0009107" lon="-85.2114380">
        <ele>64.5</ele>
        <time>2022-10-06T20:50:18Z</time>
      </trkpt>
      <trkpt lat="10.0007621" lon="-85.2113292">
        <ele>64.7</ele>
        <time>2022-10-06T20:50:19Z</time>
      </trkpt>
      <trkpt lat="10.0006123" lon="-85.2112219">
        <ele>64.8</ele>
        <time>2022-10-06T20:50:20Z</time>
      </trkpt>
      <trkpt lat="10.0004613" lon="-85.2111162">
        <ele>64.9</ele>
        <time>2022-10-06T20:50:21Z</time>
      </trkpt>
      <trkpt lat="10.0003143" lon="-85.2110124">
        <ele>65.1</ele>
        <time>2022-10-06T20:50:22Z</time>
      </trkpt>
      <trkpt lat="10.0001705" lon="-85.2109099">
        <ele>65.2</ele>
        <time>2022-10-06T20:50:23Z</time>
      </trkpt>
      <trkpt lat="10.0000293" lon="-85.2108073">
        <ele>65.3</ele>
        <time>2022-10-06T20:50:24Z</time>
      </trkpt>
      <trkpt lat="9.9998918" lon="-85.2106992">
        <ele>64.9</ele>
        <time>2022-10-06T20:50:25Z</time>
      </trkpt>
      <trkpt lat="9.9997661" lon="-85.2105888">
        <ele>64.7</ele>
        <time>2022-10-06T20:50:26Z</time>
      </trkpt>
      <trkpt lat="9.9996545" lon="-85.2104799">
        <ele>64.5</ele>
        <time>2022-10-06T20:50:27Z</time>
      </trkpt>
      <trkpt lat="9.9995546" lon="-85.2103725">
        <ele>64.3</ele>
        <time>2022-10-06T20:50:28Z</time>
      </trkpt>
      <trkpt lat="9.9994650" lon="-85.2102643">
        <ele>64.1</ele>
        <time>2022-10-06T20:50:29Z</time>
      </trkpt>
      <trkpt lat="9.9993816" lon="-85.2101509">
        <ele>63.9</ele>
        <time>2022-10-06T20:50:30Z</time>
      </trkpt>
      <trkpt lat="9.9993010" lon="-85.2100316">
        <ele>63.8</ele>
        <time>2022-10-06T20:50:31Z</time>
      </trkpt>
      <trkpt lat="9.9992173" lon="-85.2099083">
        <ele>63.6</ele>
        <time>2022-10-06T20:50:32Z</time>
      </trkpt>
      <trkpt lat="9.9991311" lon="-85.2097788">
        <ele>63.4</ele>
        <time>2022-10-06T20:50:33Z</time>
      </trkpt>
      <trkpt lat="9.9990415" lon="-85.2096468">
        <ele>63.1</ele>
        <time>2022-10-06T20:50:34Z</time>
      </trkpt>
      <trkpt lat="9.9989490" lon="-85.2095108">
        <ele>62.8</ele>
        <time>2022-10-06T20:50:35Z</time>
      </trkpt>
      <trkpt lat="9.9988524" lon="-85.2093764">
        <ele>62.7</ele>
        <time>2022-10-06T20:50:36Z</time>
      </trkpt>
      <trkpt lat="9.9987572" lon="-85.2092402">
        <ele>62.7</ele>
        <time>2022-10-06T20:50:37Z</time>
      </trkpt>
      <trkpt lat="9.9986572" lon="-85.2091028">
        <ele>62.4</ele>
        <time>2022-10-06T20:50:38Z</time>
      </trkpt>
      <trkpt lat="9.9985586" lon="-85.2089664">
        <ele>62.4</ele>
        <time>2022-10-06T20:50:39Z</time>
      </trkpt>
      <trkpt lat="9.9984564" lon="-85.2088268">
        <ele>62.2</ele>
        <time>2022-10-06T20:50:40Z</time>
      </trkpt>
      <trkpt lat="9.9983534" lon="-85.2086852">
        <ele>62.0</ele>
        <time>2022-10-06T20:50:41Z</time>
      </trkpt>
      <trkpt lat="9.9982533" lon="-85.2085445">
        <ele>61.7</ele>
        <time>2022-10-06T20:50:42Z</time>
      </trkpt>
      <trkpt lat="9.9981592" lon="-85.2084137">
        <ele>61.3</ele>
        <time>2022-10-06T20:50:43Z</time>
      </trkpt>
      <trkpt lat="9.9980722" lon="-85.2082953">
        <ele>61.0</ele>
        <time>2022-10-06T20:50:44Z</time>
      </trkpt>
      <trkpt lat="9.9979998" lon="-85.2081957">
        <ele>60.9</ele>
        <time>2022-10-06T20:50:45Z</time>
      </trkpt>
      <trkpt lat="9.9979319" lon="-85.2081088">
        <ele>60.6</ele>
        <time>2022-10-06T20:50:46Z</time>
      </trkpt>
      <trkpt lat="9.9978759" lon="-85.2080403">
        <ele>60.4</ele>
        <time>2022-10-06T20:50:47Z</time>
      </trkpt>
      <trkpt lat="9.9978381" lon="-85.2079937">
        <ele>60.2</ele>
        <time>2022-10-06T20:50:48Z</time>
      </trkpt>
      <trkpt lat="9.9978067" lon="-85.2079567">
        <ele>60.1</ele>
        <time>2022-10-06T20:50:49Z</time>
      </trkpt>
      <trkpt lat="9.9977714" lon="-85.2079146">
        <ele>60.1</ele>
        <time>2022-10-06T20:50:50Z</time>
      </trkpt>
      <trkpt lat="9.9977303" lon="-85.2078679">
        <ele>60.0</ele>
        <time>2022-10-06T20:50:51Z</time>
      </trkpt>
      <trkpt lat="9.9976781" lon="-85.2078094">
        <ele>59.8</ele>
        <time>2022-10-06T20:50:52Z</time>
      </trkpt>
      <trkpt lat="9.9976199" lon="-85.2077422">
        <ele>59.6</ele>
        <time>2022-10-06T20:50:53Z</time>
      </trkpt>
      <trkpt lat="9.9975542" lon="-85.2076666">
        <ele>59.4</ele>
        <time>2022-10-06T20:50:54Z</time>
      </trkpt>
      <trkpt lat="9.9974822" lon="-85.2075845">
        <ele>59.2</ele>
        <time>2022-10-06T20:50:55Z</time>
      </trkpt>
      <trkpt lat="9.9974011" lon="-85.2074944">
        <ele>59.0</ele>
        <time>2022-10-06T20:50:56Z</time>
      </trkpt>
      <trkpt lat="9.9973170" lon="-85.2073997">
        <ele>59.0</ele>
        <time>2022-10-06T20:50:57Z</time>
      </trkpt>
      <trkpt lat="9.9972357" lon="-85.2073037">
        <ele>58.7</ele>
        <time>2022-10-06T20:50:58Z</time>
      </trkpt>
      <trkpt lat="9.9971619" lon="-85.2072069">
        <ele>58.5</ele>
        <time>2022-10-06T20:50:59Z</time>
      </trkpt>
      <trkpt lat="9.9970959" lon="-85.2071055">
        <ele>58.3</ele>
        <time>2022-10-06T20:51:00Z</time>
      </trkpt>
      <trkpt lat="9.9970374" lon="-85.2070002">
        <ele>58.2</ele>
        <time>2022-10-06T20:51:01Z</time>
      </trkpt>
      <trkpt lat="9.9969875" lon="-85.2068928">
        <ele>58.0</ele>
        <time>2022-10-06T20:51:02Z</time>
      </trkpt>
      <trkpt lat="9.9969449" lon="-85.2067820">
        <ele>57.9</ele>
        <time>2022-10-06T20:51:03Z</time>
      </trkpt>
      <trkpt lat="9.9969030" lon="-85.2066679">
        <ele>57.8</ele>
        <time>2022-10-06T20:51:04Z</time>
      </trkpt>
      <trkpt lat="9.9968612" lon="-85.2065479">
        <ele>57.8</ele>
        <time>2022-10-06T20:51:05Z</time>
      </trkpt>
      <trkpt lat="9.9968182" lon="-85.2064232">
        <ele>57.6</ele>
        <time>2022-10-06T20:51:06Z</time>
      </trkpt>
      <trkpt lat="9.9967735" lon="-85.2062952">
        <ele>57.5</ele>
        <time>2022-10-06T20:51:07Z</time>
      </trkpt>
      <trkpt lat="9.9967187" lon="-85.2061651">
        <ele>57.3</ele>
        <time>2022-10-06T20:51:08Z</time>
      </trkpt>
      <trkpt lat="9.9966550" lon="-85.2060397">
        <ele>57.0</ele>
        <time>2022-10-06T20:51:09Z</time>
      </trkpt>
      <trkpt lat="9.9965822" lon="-85.2059184">
        <ele>56.6</ele>
        <time>2022-10-06T20:51:10Z</time>
      </trkpt>
      <trkpt lat="9.9965045" lon="-85.2058014">
        <ele>56.3</ele>
        <time>2022-10-06T20:51:11Z</time>
      </trkpt>
      <trkpt lat="9.9964120" lon="-85.2056938">
        <ele>56.0</ele>
        <time>2022-10-06T20:51:12Z</time>
      </trkpt>
      <trkpt lat="9.9963141" lon="-85.2055922">
        <ele>55.8</ele>
        <time>2022-10-06T20:51:13Z</time>
      </trkpt>
      <trkpt lat="9.9962183" lon="-85.2055001">
        <ele>55.4</ele>
        <time>2022-10-06T20:51:14Z</time>
      </trkpt>
      <trkpt lat="9.9961294" lon="-85.2054178">
        <ele>55.0</ele>
        <time>2022-10-06T20:51:15Z</time>
      </trkpt>
      <trkpt lat="9.9960500" lon="-85.2053439">
        <ele>54.7</ele>
        <time>2022-10-06T20:51:16Z</time>
      </trkpt>
      <trkpt lat="9.9959838" lon="-85.2052836">
        <ele>54.6</ele>
        <time>2022-10-06T20:51:17Z</time>
      </trkpt>
      <trkpt lat="9.9959320" lon="-85.2052379">
        <ele>54.3</ele>
        <time>2022-10-06T20:51:18Z</time>
      </trkpt>
      <trkpt lat="9.9958962" lon="-85.2052037">
        <ele>54.1</ele>
        <time>2022-10-06T20:51:19Z</time>
      </trkpt>
      <trkpt lat="9.9958750" lon="-85.2051834">
        <ele>54.0</ele>
        <time>2022-10-06T20:51:20Z</time>
      </trkpt>
      <trkpt lat="9.9958582" lon="-85.2051669">
        <ele>53.9</ele>
        <time>2022-10-06T20:51:21Z</time>
      </trkpt>
      <trkpt lat="9.9958348" lon="-85.2051441">
        <ele>53.8</ele>
        <time>2022-10-06T20:51:22Z</time>
      </trkpt>
      <trkpt lat="9.9958040" lon="-85.2051167">
        <ele>53.9</ele>
        <time>2022-10-06T20:51:23Z</time>
      </trkpt>
      <trkpt lat="9.9957631" lon="-85.2050794">
        <ele>53.6</ele>
        <time>2022-10-06T20:51:24Z</time>
      </trkpt>
      <trkpt lat="9.9957115" lon="-85.2050318">
        <ele>53.5</ele>
        <time>2022-10-06T20:51:25Z</time>
      </trkpt>
      <trkpt lat="9.9956502" lon="-85.2049738">
        <ele>53.2</ele>
        <time>2022-10-06T20:51:26Z</time>
      </trkpt>
      <trkpt lat="9.9955823" lon="-85.2049091">
        <ele>53.0</ele>
        <time>2022-10-06T20:51:27Z</time>
      </trkpt>
      <trkpt lat="9.9955077" lon="-85.2048395">
        <ele>53.0</ele>
        <time>2022-10-06T20:51:28Z</time>
      </trkpt>
      <trkpt lat="9.9954259" lon="-85.2047619">
        <ele>52.8</ele>
        <time>2022-10-06T20:51:29Z</time>
      </trkpt>
      <trkpt lat="9.9953364" lon="-85.2046788">
        <ele>52.5</ele>
        <time>2022-10-06T20:51:30Z</time>
      </trkpt>
      <trkpt lat="9.9952408" lon="-85.2045902">
        <ele>52.3</ele>
        <time>2022-10-06T20:51:31Z</time>
      </trkpt>
      <trkpt lat="9.9951398" lon="-85.2044979">
        <ele>52.1</ele>
        <time>2022-10-06T20:51:32Z</time>
      </trkpt>
      <trkpt lat="9.9950373" lon="-85.2044042">
        <ele>52.1</ele>
        <time>2022-10-06T20:51:33Z</time>
      </trkpt>
      <trkpt lat="9.9949313" lon="-85.2043070">
        <ele>52.0</ele>
        <time>2022-10-06T20:51:34Z</time>
      </trkpt>
      <trkpt lat="9.9948193" lon="-85.2042056">
        <ele>52.1</ele>
        <time>2022-10-06T20:51:35Z</time>
      </trkpt>
      <trkpt lat="9.9947049" lon="-85.2041005">
        <ele>52.1</ele>
        <time>2022-10-06T20:51:36Z</time>
      </trkpt>
      <trkpt lat="9.9945923" lon="-85.2039971">
        <ele>52.0</ele>
        <time>2022-10-06T20:51:37Z</time>
      </trkpt>
      <trkpt lat="9.9944814" lon="-85.2038944">
        <ele>52.0</ele>
        <time>2022-10-06T20:51:38Z</time>
      </trkpt>
      <trkpt lat="9.9943786" lon="-85.2037914">
        <ele>51.9</ele>
        <time>2022-10-06T20:51:39Z</time>
      </trkpt>
      <trkpt lat="9.9942887" lon="-85.2036867">
        <ele>51.8</ele>
        <time>2022-10-06T20:51:40Z</time>
      </trkpt>
      <trkpt lat="9.9942118" lon="-85.2035739">
        <ele>51.8</ele>
        <time>2022-10-06T20:51:41Z</time>
      </trkpt>
      <trkpt lat="9.9941476" lon="-85.2034495">
        <ele>51.6</ele>
        <time>2022-10-06T20:51:42Z</time>
      </trkpt>
      <trkpt lat="9.9940918" lon="-85.2033163">
        <ele>51.7</ele>
        <time>2022-10-06T20:51:43Z</time>
      </trkpt>
      <trkpt lat="9.9940491" lon="-85.2031755">
        <ele>51.6</ele>
        <time>2022-10-06T20:51:44Z</time>
      </trkpt>
      <trkpt lat="9.9940197" lon="-85.2030261">
        <ele>51.8</ele>
        <time>2022-10-06T20:51:45Z</time>
      </trkpt>
      <trkpt lat="9.9940031" lon="-85.2028703">
        <ele>52.2</ele>
        <time>2022-10-06T20:51:46Z</time>
      </trkpt>
      <trkpt lat="9.9939909" lon="-85.2027106">
        <ele>52.4</ele>
        <time>2022-10-06T20:51:47Z</time>
      </trkpt>
      <trkpt lat="9.9939796" lon="-85.2025500">
        <ele>52.1</ele>
        <time>2022-10-06T20:51:48Z</time>
      </trkpt>
      <trkpt lat="9.9939731" lon="-85.2023923">
        <ele>52.5</ele>
        <time>2022-10-06T20:51:49Z</time>
      </trkpt>
      <trkpt lat="9.9939623" lon="-85.2022261">
        <ele>52.3</ele>
        <time>2022-10-06T20:51:50Z</time>
      </trkpt>
      <trkpt lat="9.9939526" lon="-85.2020566">
        <ele>52.2</ele>
        <time>2022-10-06T20:51:51Z</time>
      </trkpt>
      <trkpt lat="9.9939435" lon="-85.2018826">
        <ele>52.1</ele>
        <time>2022-10-06T20:51:52Z</time>
      </trkpt>
      <trkpt lat="9.9939346" lon="-85.2017055">
        <ele>52.0</ele>
        <time>2022-10-06T20:51:53Z</time>
      </trkpt>
      <trkpt lat="9.9939254" lon="-85.2015294">
        <ele>52.2</ele>
        <time>2022-10-06T20:51:54Z</time>
      </trkpt>
      <trkpt lat="9.9939164" lon="-85.2013539">
        <ele>52.2</ele>
        <time>2022-10-06T20:51:55Z</time>
      </trkpt>
      <trkpt lat="9.9939044" lon="-85.2011779">
        <ele>52.1</ele>
        <time>2022-10-06T20:51:56Z</time>
      </trkpt>
      <trkpt lat="9.9938887" lon="-85.2009975">
        <ele>51.8</ele>
        <time>2022-10-06T20:51:57Z</time>
      </trkpt>
      <trkpt lat="9.9938683" lon="-85.2008173">
        <ele>51.7</ele>
        <time>2022-10-06T20:51:58Z</time>
      </trkpt>
      <trkpt lat="9.9938422" lon="-85.2006365">
        <ele>51.5</ele>
        <time>2022-10-06T20:51:59Z</time>
      </trkpt>
      <trkpt lat="9.9938101" lon="-85.2004541">
        <ele>51.3</ele>
        <time>2022-10-06T20:52:00Z</time>
      </trkpt>
      <trkpt lat="9.9937679" lon="-85.2002726">
        <ele>51.2</ele>
        <time>2022-10-06T20:52:01Z</time>
      </trkpt>
      <trkpt lat="9.9937063" lon="-85.2001006">
        <ele>51.6</ele>
        <time>2022-10-06T20:52:02Z</time>
      </trkpt>
      <trkpt lat="9.9936306" lon="-85.1999372">
        <ele>51.8</ele>
        <time>2022-10-06T20:52:03Z</time>
      </trkpt>
      <trkpt lat="9.9935414" lon="-85.1997792">
        <ele>52.3</ele>
        <time>2022-10-06T20:52:04Z</time>
      </trkpt>
      <trkpt lat="9.9934382" lon="-85.1996307">
        <ele>52.9</ele>
        <time>2022-10-06T20:52:05Z</time>
      </trkpt>
      <trkpt lat="9.9933289" lon="-85.1994963">
        <ele>53.0</ele>
        <time>2022-10-06T20:52:06Z</time>
      </trkpt>
      <trkpt lat="9.9932023" lon="-85.1993757">
        <ele>53.4</ele>
        <time>2022-10-06T20:52:07Z</time>
      </trkpt>
      <trkpt lat="9.9930723" lon="-85.1992632">
        <ele>54.0</ele>
        <time>2022-10-06T20:52:08Z</time>
      </trkpt>
      <trkpt lat="9.9929259" lon="-85.1991571">
        <ele>55.1</ele>
        <time>2022-10-06T20:52:09Z</time>
      </trkpt>
      <trkpt lat="9.9927786" lon="-85.1990614">
        <ele>56.4</ele>
        <time>2022-10-06T20:52:10Z</time>
      </trkpt>
      <trkpt lat="9.9926281" lon="-85.1989717">
        <ele>57.4</ele>
        <time>2022-10-06T20:52:11Z</time>
      </trkpt>
      <trkpt lat="9.9924741" lon="-85.1988825">
        <ele>58.5</ele>
        <time>2022-10-06T20:52:12Z</time>
      </trkpt>
      <trkpt lat="9.9923221" lon="-85.1987955">
        <ele>59.5</ele>
        <time>2022-10-06T20:52:13Z</time>
      </trkpt>
      <trkpt lat="9.9921707" lon="-85.1987088">
        <ele>60.4</ele>
        <time>2022-10-06T20:52:14Z</time>
      </trkpt>
      <trkpt lat="9.9920183" lon="-85.1986222">
        <ele>60.3</ele>
        <time>2022-10-06T20:52:15Z</time>
      </trkpt>
      <trkpt lat="9.9918658" lon="-85.1985332">
        <ele>60.3</ele>
        <time>2022-10-06T20:52:16Z</time>
      </trkpt>
      <trkpt lat="9.9917125" lon="-85.1984415">
        <ele>60.6</ele>
        <time>2022-10-06T20:52:17Z</time>
      </trkpt>
      <trkpt lat="9.9915549" lon="-85.1983469">
        <ele>60.7</ele>
        <time>2022-10-06T20:52:18Z</time>
      </trkpt>
      <trkpt lat="9.9913965" lon="-85.1982509">
        <ele>60.9</ele>
        <time>2022-10-06T20:52:19Z</time>
      </trkpt>
      <trkpt lat="9.9912355" lon="-85.1981515">
        <ele>61.0</ele>
        <time>2022-10-06T20:52:20Z</time>
      </trkpt>
      <trkpt lat="9.9910720" lon="-85.1980521">
        <ele>61.2</ele>
        <time>2022-10-06T20:52:21Z</time>
      </trkpt>
      <trkpt lat="9.9909113" lon="-85.1979541">
        <ele>61.1</ele>
        <time>2022-10-06T20:52:22Z</time>
      </trkpt>
      <trkpt lat="9.9907498" lon="-85.1978565">
        <ele>61.0</ele>
        <time>2022-10-06T20:52:23Z</time>
      </trkpt>
      <trkpt lat="9.9905887" lon="-85.1977567">
        <ele>60.9</ele>
        <time>2022-10-06T20:52:24Z</time>
      </trkpt>
      <trkpt lat="9.9904280" lon="-85.1976574">
        <ele>61.0</ele>
        <time>2022-10-06T20:52:25Z</time>
      </trkpt>
      <trkpt lat="9.9902650" lon="-85.1975579">
        <ele>60.8</ele>
        <time>2022-10-06T20:52:26Z</time>
      </trkpt>
      <trkpt lat="9.9901003" lon="-85.1974544">
        <ele>60.9</ele>
        <time>2022-10-06T20:52:27Z</time>
      </trkpt>
      <trkpt lat="9.9899349" lon="-85.1973506">
        <ele>60.8</ele>
        <time>2022-10-06T20:52:28Z</time>
      </trkpt>
      <trkpt lat="9.9897744" lon="-85.1972501">
        <ele>60.9</ele>
        <time>2022-10-06T20:52:29Z</time>
      </trkpt>
      <trkpt lat="9.9896151" lon="-85.1971526">
        <ele>61.0</ele>
        <time>2022-10-06T20:52:30Z</time>
      </trkpt>
      <trkpt lat="9.9894528" lon="-85.1970605">
        <ele>61.1</ele>
        <time>2022-10-06T20:52:31Z</time>
      </trkpt>
      <trkpt lat="9.9892865" lon="-85.1969761">
        <ele>61.2</ele>
        <time>2022-10-06T20:52:32Z</time>
      </trkpt>
      <trkpt lat="9.9891113" lon="-85.1969085">
        <ele>61.2</ele>
        <time>2022-10-06T20:52:33Z</time>
      </trkpt>
      <trkpt lat="9.9889294" lon="-85.1968524">
        <ele>61.1</ele>
        <time>2022-10-06T20:52:34Z</time>
      </trkpt>
      <trkpt lat="9.9887447" lon="-85.1968048">
        <ele>60.9</ele>
        <time>2022-10-06T20:52:35Z</time>
      </trkpt>
      <trkpt lat="9.9885570" lon="-85.1967626">
        <ele>60.6</ele>
        <time>2022-10-06T20:52:36Z</time>
      </trkpt>
      <trkpt lat="9.9883658" lon="-85.1967191">
        <ele>60.1</ele>
        <time>2022-10-06T20:52:37Z</time>
      </trkpt>
      <trkpt lat="9.9881753" lon="-85.1966764">
        <ele>59.6</ele>
        <time>2022-10-06T20:52:38Z</time>
      </trkpt>
      <trkpt lat="9.9879835" lon="-85.1966321">
        <ele>59.2</ele>
        <time>2022-10-06T20:52:39Z</time>
      </trkpt>
      <trkpt lat="9.9877969" lon="-85.1965898">
        <ele>59.4</ele>
        <time>2022-10-06T20:52:40Z</time>
      </trkpt>
      <trkpt lat="9.9876157" lon="-85.1965390">
        <ele>59.0</ele>
        <time>2022-10-06T20:52:41Z</time>
      </trkpt>
      <trkpt lat="9.9874448" lon="-85.1964722">
        <ele>58.8</ele>
        <time>2022-10-06T20:52:42Z</time>
      </trkpt>
      <trkpt lat="9.9872842" lon="-85.1963893">
        <ele>59.0</ele>
        <time>2022-10-06T20:52:43Z</time>
      </trkpt>
      <trkpt lat="9.9871344" lon="-85.1962902">
        <ele>59.0</ele>
        <time>2022-10-06T20:52:44Z</time>
      </trkpt>
      <trkpt lat="9.9870012" lon="-85.1961761">
        <ele>59.2</ele>
        <time>2022-10-06T20:52:45Z</time>
      </trkpt>
      <trkpt lat="9.9868853" lon="-85.1960500">
        <ele>59.5</ele>
        <time>2022-10-06T20:52:46Z</time>
      </trkpt>
      <trkpt lat="9.9867782" lon="-85.1959143">
        <ele>59.5</ele>
        <time>2022-10-06T20:52:47Z</time>
      </trkpt>
      <trkpt lat="9.9866751" lon="-85.1957713">
        <ele>59.2</ele>
        <time>2022-10-06T20:52:48Z</time>
      </trkpt>
      <trkpt lat="9.9865747" lon="-85.1956254">
        <ele>58.9</ele>
        <time>2022-10-06T20:52:49Z</time>
      </trkpt>
      <trkpt lat="9.9864716" lon="-85.1954764">
        <ele>58.5</ele>
        <time>2022-10-06T20:52:50Z</time>
      </trkpt>
      <trkpt lat="9.9863682" lon="-85.1953263">
        <ele>58.1</ele>
        <time>2022-10-06T20:52:51Z</time>
      </trkpt>
      <trkpt lat="9.9862645" lon="-85.1951739">
        <ele>57.6</ele>
        <time>2022-10-06T20:52:52Z</time>
      </trkpt>
      <trkpt lat="9.9861570" lon="-85.1950176">
        <ele>57.1</ele>
        <time>2022-10-06T20:52:53Z</time>
      </trkpt>
      <trkpt lat="9.9860504" lon="-85.1948601">
        <ele>56.7</ele>
        <time>2022-10-06T20:52:54Z</time>
      </trkpt>
      <trkpt lat="9.9859414" lon="-85.1947020">
        <ele>56.5</ele>
        <time>2022-10-06T20:52:55Z</time>
      </trkpt>
      <trkpt lat="9.9858329" lon="-85.1945428">
        <ele>56.1</ele>
        <time>2022-10-06T20:52:56Z</time>
      </trkpt>
      <trkpt lat="9.9857260" lon="-85.1943863">
        <ele>55.7</ele>
        <time>2022-10-06T20:52:57Z</time>
      </trkpt>
      <trkpt lat="9.9856162" lon="-85.1942310">
        <ele>55.3</ele>
        <time>2022-10-06T20:52:58Z</time>
      </trkpt>
      <trkpt lat="9.9854986" lon="-85.1940782">
        <ele>54.7</ele>
        <time>2022-10-06T20:52:59Z</time>
      </trkpt>
      <trkpt lat="9.9853693" lon="-85.1939326">
        <ele>54.1</ele>
        <time>2022-10-06T20:53:00Z</time>
      </trkpt>
      <trkpt lat="9.9852280" lon="-85.1937947">
        <ele>53.5</ele>
        <time>2022-10-06T20:53:01Z</time>
      </trkpt>
      <trkpt lat="9.9850790" lon="-85.1936595">
        <ele>53.4</ele>
        <time>2022-10-06T20:53:02Z</time>
      </trkpt>
      <trkpt lat="9.9849153" lon="-85.1935454">
        <ele>53.1</ele>
        <time>2022-10-06T20:53:03Z</time>
      </trkpt>
      <trkpt lat="9.9847420" lon="-85.1934449">
        <ele>52.7</ele>
        <time>2022-10-06T20:53:04Z</time>
      </trkpt>
      <trkpt lat="9.9845627" lon="-85.1933527">
        <ele>52.1</ele>
        <time>2022-10-06T20:53:05Z</time>
      </trkpt>
      <trkpt lat="9.9843815" lon="-85.1932640">
        <ele>51.7</ele>
        <time>2022-10-06T20:53:06Z</time>
      </trkpt>
      <trkpt lat="9.9841995" lon="-85.1931782">
        <ele>51.3</ele>
        <time>2022-10-06T20:53:07Z</time>
      </trkpt>
      <trkpt lat="9.9840147" lon="-85.1930944">
        <ele>50.7</ele>
        <time>2022-10-06T20:53:08Z</time>
      </trkpt>
      <trkpt lat="9.9838332" lon="-85.1930103">
        <ele>50.2</ele>
        <time>2022-10-06T20:53:09Z</time>
      </trkpt>
      <trkpt lat="9.9836532" lon="-85.1929231">
        <ele>49.8</ele>
        <time>2022-10-06T20:53:10Z</time>
      </trkpt>
      <trkpt lat="9.9834734" lon="-85.1928352">
        <ele>49.5</ele>
        <time>2022-10-06T20:53:11Z</time>
      </trkpt>
      <trkpt lat="9.9832965" lon="-85.1927508">
        <ele>49.2</ele>
        <time>2022-10-06T20:53:12Z</time>
      </trkpt>
      <trkpt lat="9.9831222" lon="-85.1926667">
        <ele>48.9</ele>
        <time>2022-10-06T20:53:13Z</time>
      </trkpt>
      <trkpt lat="9.9829502" lon="-85.1925871">
        <ele>48.6</ele>
        <time>2022-10-06T20:53:14Z</time>
      </trkpt>
      <trkpt lat="9.9827774" lon="-85.1925099">
        <ele>48.6</ele>
        <time>2022-10-06T20:53:15Z</time>
      </trkpt>
      <trkpt lat="9.9825966" lon="-85.1924549">
        <ele>48.5</ele>
        <time>2022-10-06T20:53:16Z</time>
      </trkpt>
      <trkpt lat="9.9824112" lon="-85.1924129">
        <ele>48.3</ele>
        <time>2022-10-06T20:53:17Z</time>
      </trkpt>
      <trkpt lat="9.9822229" lon="-85.1923826">
        <ele>48.1</ele>
        <time>2022-10-06T20:53:18Z</time>
      </trkpt>
      <trkpt lat="9.9820336" lon="-85.1923606">
        <ele>47.8</ele>
        <time>2022-10-06T20:53:19Z</time>
      </trkpt>
      <trkpt lat="9.9818403" lon="-85.1923417">
        <ele>47.6</ele>
        <time>2022-10-06T20:53:20Z</time>
      </trkpt>
      <trkpt lat="9.9816444" lon="-85.1923213">
        <ele>47.3</ele>
        <time>2022-10-06T20:53:21Z</time>
      </trkpt>
      <trkpt lat="9.9814492" lon="-85.1922991">
        <ele>47.1</ele>
        <time>2022-10-06T20:53:22Z</time>
      </trkpt>
      <trkpt lat="9.9812543" lon="-85.1922777">
        <ele>47.1</ele>
        <time>2022-10-06T20:53:23Z</time>
      </trkpt>
      <trkpt lat="9.9810587" lon="-85.1922566">
        <ele>47.0</ele>
        <time>2022-10-06T20:53:24Z</time>
      </trkpt>
      <trkpt lat="9.9808608" lon="-85.1922347">
        <ele>47.0</ele>
        <time>2022-10-06T20:53:25Z</time>
      </trkpt>
      <trkpt lat="9.9806635" lon="-85.1922120">
        <ele>47.0</ele>
        <time>2022-10-06T20:53:26Z</time>
      </trkpt>
      <trkpt lat="9.9804653" lon="-85.1921896">
        <ele>47.2</ele>
        <time>2022-10-06T20:53:27Z</time>
      </trkpt>
      <trkpt lat="9.9802677" lon="-85.1921654">
        <ele>47.3</ele>
        <time>2022-10-06T20:53:28Z</time>
      </trkpt>
      <trkpt lat="9.9800668" lon="-85.1921441">
        <ele>47.5</ele>
        <time>2022-10-06T20:53:29Z</time>
      </trkpt>
      <trkpt lat="9.9798670" lon="-85.1921237">
        <ele>47.5</ele>
        <time>2022-10-06T20:53:30Z</time>
      </trkpt>
      <trkpt lat="9.9796658" lon="-85.1920997">
        <ele>47.8</ele>
        <time>2022-10-06T20:53:31Z</time>
      </trkpt>
      <trkpt lat="9.9794643" lon="-85.1920740">
        <ele>48.0</ele>
        <time>2022-10-06T20:53:32Z</time>
      </trkpt>
      <trkpt lat="9.9792617" lon="-85.1920486">
        <ele>48.3</ele>
        <time>2022-10-06T20:53:33Z</time>
      </trkpt>
      <trkpt lat="9.9790597" lon="-85.1920225">
        <ele>48.5</ele>
        <time>2022-10-06T20:53:34Z</time>
      </trkpt>
      <trkpt lat="9.9788535" lon="-85.1919975">
        <ele>48.6</ele>
        <time>2022-10-06T20:53:35Z</time>
      </trkpt>
      <trkpt lat="9.9786457" lon="-85.1919720">
        <ele>48.8</ele>
        <time>2022-10-06T20:53:36Z</time>
      </trkpt>
      <trkpt lat="9.9784388" lon="-85.1919458">
        <ele>49.0</ele>
        <time>2022-10-06T20:53:37Z</time>
      </trkpt>
      <trkpt lat="9.9782296" lon="-85.1919197">
        <ele>49.2</ele>
        <time>2022-10-06T20:53:38Z</time>
      </trkpt>
      <trkpt lat="9.9780204" lon="-85.1918946">
        <ele>49.3</ele>
        <time>2022-10-06T20:53:39Z</time>
      </trkpt>
      <trkpt lat="9.9778129" lon="-85.1918690">
        <ele>49.5</ele>
        <time>2022-10-06T20:53:40Z</time>
      </trkpt>
      <trkpt lat="9.9776067" lon="-85.1918443">
        <ele>49.7</ele>
        <time>2022-10-06T20:53:41Z</time>
      </trkpt>
      <trkpt lat="9.9773992" lon="-85.1918187">
        <ele>49.9</ele>
        <time>2022-10-06T20:53:42Z</time>
      </trkpt>
      <trkpt lat="9.9771955" lon="-85.1917932">
        <ele>50.2</ele>
        <time>2022-10-06T20:53:43Z</time>
      </trkpt>
      <trkpt lat="9.9769972" lon="-85.1917700">
        <ele>50.4</ele>
        <time>2022-10-06T20:53:44Z</time>
      </trkpt>
      <trkpt lat="9.9768045" lon="-85.1917477">
        <ele>50.6</ele>
        <time>2022-10-06T20:53:45Z</time>
      </trkpt>
      <trkpt lat="9.9766157" lon="-85.1917254">
        <ele>50.9</ele>
        <time>2022-10-06T20:53:46Z</time>
      </trkpt>
      <trkpt lat="9.9764333" lon="-85.1917037">
        <ele>51.1</ele>
        <time>2022-10-06T20:53:47Z</time>
      </trkpt>
      <trkpt lat="9.9762542" lon="-85.1916778">
        <ele>51.4</ele>
        <time>2022-10-06T20:53:48Z</time>
      </trkpt>
      <trkpt lat="9.9760813" lon="-85.1916438">
        <ele>51.7</ele>
        <time>2022-10-06T20:53:49Z</time>
      </trkpt>
      <trkpt lat="9.9759153" lon="-85.1915971">
        <ele>52.0</ele>
        <time>2022-10-06T20:53:50Z</time>
      </trkpt>
      <trkpt lat="9.9757580" lon="-85.1915342">
        <ele>52.1</ele>
        <time>2022-10-06T20:53:51Z</time>
      </trkpt>
      <trkpt lat="9.9756075" lon="-85.1914588">
        <ele>52.2</ele>
        <time>2022-10-06T20:53:52Z</time>
      </trkpt>
      <trkpt lat="9.9754616" lon="-85.1913785">
        <ele>52.3</ele>
        <time>2022-10-06T20:53:53Z</time>
      </trkpt>
      <trkpt lat="9.9753268" lon="-85.1912838">
        <ele>52.2</ele>
        <time>2022-10-06T20:53:54Z</time>
      </trkpt>
      <trkpt lat="9.9751998" lon="-85.1911807">
        <ele>52.2</ele>
        <time>2022-10-06T20:53:55Z</time>
      </trkpt>
      <trkpt lat="9.9750897" lon="-85.1910600">
        <ele>52.0</ele>
        <time>2022-10-06T20:53:56Z</time>
      </trkpt>
      <trkpt lat="9.9749897" lon="-85.1909328">
        <ele>52.0</ele>
        <time>2022-10-06T20:53:57Z</time>
      </trkpt>
      <trkpt lat="9.9748962" lon="-85.1907953">
        <ele>51.9</ele>
        <time>2022-10-06T20:53:58Z</time>
      </trkpt>
      <trkpt lat="9.9748057" lon="-85.1906516">
        <ele>51.7</ele>
        <time>2022-10-06T20:53:59Z</time>
      </trkpt>
      <trkpt lat="9.9747146" lon="-85.1905018">
        <ele>51.6</ele>
        <time>2022-10-06T20:54:00Z</time>
      </trkpt>
      <trkpt lat="9.9746244" lon="-85.1903503">
        <ele>51.6</ele>
        <time>2022-10-06T20:54:01Z</time>
      </trkpt>
      <trkpt lat="9.9745320" lon="-85.1901945">
        <ele>51.4</ele>
        <time>2022-10-06T20:54:02Z</time>
      </trkpt>
      <trkpt lat="9.9744389" lon="-85.1900381">
        <ele>51.3</ele>
        <time>2022-10-06T20:54:03Z</time>
      </trkpt>
      <trkpt lat="9.9743466" lon="-85.1898791">
        <ele>51.2</ele>
        <time>2022-10-06T20:54:04Z</time>
      </trkpt>
      <trkpt lat="9.9742526" lon="-85.1897199">
        <ele>51.0</ele>
        <time>2022-10-06T20:54:05Z</time>
      </trkpt>
      <trkpt lat="9.9741588" lon="-85.1895598">
        <ele>51.1</ele>
        <time>2022-10-06T20:54:06Z</time>
      </trkpt>
      <trkpt lat="9.9740657" lon="-85.1894005">
        <ele>51.1</ele>
        <time>2022-10-06T20:54:07Z</time>
      </trkpt>
      <trkpt lat="9.9739734" lon="-85.1892431">
        <ele>50.9</ele>
        <time>2022-10-06T20:54:08Z</time>
      </trkpt>
      <trkpt lat="9.9738780" lon="-85.1890864">
        <ele>50.8</ele>
        <time>2022-10-06T20:54:09Z</time>
      </trkpt>
      <trkpt lat="9.9737815" lon="-85.1889274">
        <ele>50.7</ele>
        <time>2022-10-06T20:54:10Z</time>
      </trkpt>
      <trkpt lat="9.9736851" lon="-85.1887683">
        <ele>50.6</ele>
        <time>2022-10-06T20:54:11Z</time>
      </trkpt>
      <trkpt lat="9.9735895" lon="-85.1886100">
        <ele>50.5</ele>
        <time>2022-10-06T20:54:12Z</time>
      </trkpt>
      <trkpt lat="9.9734958" lon="-85.1884564">
        <ele>50.4</ele>
        <time>2022-10-06T20:54:13Z</time>
      </trkpt>
      <trkpt lat="9.9734031" lon="-85.1883068">
        <ele>50.3</ele>
        <time>2022-10-06T20:54:14Z</time>
      </trkpt>
      <trkpt lat="9.9733124" lon="-85.1881586">
        <ele>50.3</ele>
        <time>2022-10-06T20:54:15Z</time>
      </trkpt>
      <trkpt lat="9.9732258" lon="-85.1880136">
        <ele>50.2</ele>
        <time>2022-10-06T20:54:16Z</time>
      </trkpt>
      <trkpt lat="9.9731482" lon="-85.1878717">
        <ele>50.1</ele>
        <time>2022-10-06T20:54:17Z</time>
      </trkpt>
      <trkpt lat="9.9730810" lon="-85.1877297">
        <ele>50.1</ele>
        <time>2022-10-06T20:54:18Z</time>
      </trkpt>
      <trkpt lat="9.9730275" lon="-85.1875864">
        <ele>50.0</ele>
        <time>2022-10-06T20:54:19Z</time>
      </trkpt>
      <trkpt lat="9.9729867" lon="-85.1874391">
        <ele>50.0</ele>
        <time>2022-10-06T20:54:20Z</time>
      </trkpt>
      <trkpt lat="9.9729640" lon="-85.1872893">
        <ele>49.9</ele>
        <time>2022-10-06T20:54:21Z</time>
      </trkpt>
      <trkpt lat="9.9729602" lon="-85.1871384">
        <ele>49.6</ele>
        <time>2022-10-06T20:54:22Z</time>
      </trkpt>
      <trkpt lat="9.9729762" lon="-85.1869856">
        <ele>49.5</ele>
        <time>2022-10-06T20:54:23Z</time>
      </trkpt>
      <trkpt lat="9.9730124" lon="-85.1868373">
        <ele>49.3</ele>
        <time>2022-10-06T20:54:24Z</time>
      </trkpt>
      <trkpt lat="9.9730604" lon="-85.1866911">
        <ele>49.1</ele>
        <time>2022-10-06T20:54:25Z</time>
      </trkpt>
      <trkpt lat="9.9731212" lon="-85.1865452">
        <ele>49.0</ele>
        <time>2022-10-06T20:54:26Z</time>
      </trkpt>
      <trkpt lat="9.9731923" lon="-85.1863977">
        <ele>48.8</ele>
        <time>2022-10-06T20:54:27Z</time>
      </trkpt>
      <trkpt lat="9.9732709" lon="-85.1862529">
        <ele>48.5</ele>
        <time>2022-10-06T20:54:28Z</time>
      </trkpt>
      <trkpt lat="9.9733577" lon="-85.1861068">
        <ele>48.3</ele>
        <time>2022-10-06T20:54:29Z</time>
      </trkpt>
      <trkpt lat="9.9734489" lon="-85.1859587">
        <ele>48.2</ele>
        <time>2022-10-06T20:54:30Z</time>
      </trkpt>
      <trkpt lat="9.9735441" lon="-85.1858071">
        <ele>48.3</ele>
        <time>2022-10-06T20:54:31Z</time>
      </trkpt>
      <trkpt lat="9.9736392" lon="-85.1856550">
        <ele>48.0</ele>
        <time>2022-10-06T20:54:32Z</time>
      </trkpt>
      <trkpt lat="9.9737370" lon="-85.1855001">
        <ele>48.1</ele>
        <time>2022-10-06T20:54:33Z</time>
      </trkpt>
      <trkpt lat="9.9738356" lon="-85.1853469">
        <ele>48.0</ele>
        <time>2022-10-06T20:54:34Z</time>
      </trkpt>
      <trkpt lat="9.9739338" lon="-85.1851938">
        <ele>47.9</ele>
        <time>2022-10-06T20:54:35Z</time>
      </trkpt>
      <trkpt lat="9.9740335" lon="-85.1850413">
        <ele>47.9</ele>
        <time>2022-10-06T20:54:36Z</time>
      </trkpt>
      <trkpt lat="9.9741319" lon="-85.1848879">
        <ele>48.0</ele>
        <time>2022-10-06T20:54:37Z</time>
      </trkpt>
      <trkpt lat="9.9742250" lon="-85.1847366">
        <ele>48.0</ele>
        <time>2022-10-06T20:54:38Z</time>
      </trkpt>
      <trkpt lat="9.9743175" lon="-85.1845866">
        <ele>48.1</ele>
        <time>2022-10-06T20:54:39Z</time>
      </trkpt>
      <trkpt lat="9.9743992" lon="-85.1844342">
        <ele>47.8</ele>
        <time>2022-10-06T20:54:40Z</time>
      </trkpt>
      <trkpt lat="9.9744744" lon="-85.1842709">
        <ele>47.7</ele>
        <time>2022-10-06T20:54:41Z</time>
      </trkpt>
      <trkpt lat="9.9745374" lon="-85.1841012">
        <ele>47.5</ele>
        <time>2022-10-06T20:54:42Z</time>
      </trkpt>
      <trkpt lat="9.9745904" lon="-85.1839251">
        <ele>47.4</ele>
        <time>2022-10-06T20:54:43Z</time>
      </trkpt>
      <trkpt lat="9.9746340" lon="-85.1837447">
        <ele>47.3</ele>
        <time>2022-10-06T20:54:44Z</time>
      </trkpt>
      <trkpt lat="9.9746668" lon="-85.1835583">
        <ele>47.4</ele>
        <time>2022-10-06T20:54:45Z</time>
      </trkpt>
      <trkpt lat="9.9746880" lon="-85.1833706">
        <ele>47.5</ele>
        <time>2022-10-06T20:54:46Z</time>
      </trkpt>
      <trkpt lat="9.9747043" lon="-85.1831840">
        <ele>47.8</ele>
        <time>2022-10-06T20:54:47Z</time>
      </trkpt>
      <trkpt lat="9.9747203" lon="-85.1830049">
        <ele>48.1</ele>
        <time>2022-10-06T20:54:48Z</time>
      </trkpt>
      <trkpt lat="9.9747346" lon="-85.1828397">
        <ele>48.2</ele>
        <time>2022-10-06T20:54:49Z</time>
      </trkpt>
      <trkpt lat="9.9747474" lon="-85.1826874">
        <ele>48.1</ele>
        <time>2022-10-06T20:54:50Z</time>
      </trkpt>
      <trkpt lat="9.9747571" lon="-85.1825559">
        <ele>48.2</ele>
        <time>2022-10-06T20:54:51Z</time>
      </trkpt>
      <trkpt lat="9.9747622" lon="-85.1824419">
        <ele>48.3</ele>
        <time>2022-10-06T20:54:52Z</time>
      </trkpt>
      <trkpt lat="9.9747715" lon="-85.1823369">
        <ele>48.0</ele>
        <time>2022-10-06T20:54:53Z</time>
      </trkpt>
      <trkpt lat="9.9747796" lon="-85.1822447">
        <ele>47.9</ele>
        <time>2022-10-06T20:54:54Z</time>
      </trkpt>
      <trkpt lat="9.9747874" lon="-85.1821606">
        <ele>48.0</ele>
        <time>2022-10-06T20:54:55Z</time>
      </trkpt>
      <trkpt lat="9.9747958" lon="-85.1820782">
        <ele>47.9</ele>
        <time>2022-10-06T20:54:56Z</time>
      </trkpt>
      <trkpt lat="9.9748016" lon="-85.1819957">
        <ele>47.8</ele>
        <time>2022-10-06T20:54:57Z</time>
      </trkpt>
      <trkpt lat="9.9748079" lon="-85.1819280">
        <ele>47.6</ele>
        <time>2022-10-06T20:54:58Z</time>
      </trkpt>
      <trkpt lat="9.9748102" lon="-85.1818933">
        <ele>47.6</ele>
        <time>2022-10-06T20:54:59Z</time>
      </trkpt>
      <trkpt lat="9.9748119" lon="-85.1818825">
        <ele>47.5</ele>
        <time>2022-10-06T20:55:00Z</time>
      </trkpt>
      <trkpt lat="9.9748119" lon="-85.1818825">
        <ele>47.6</ele>
        <time>2022-10-06T20:55:01Z</time>
      </trkpt>
      <trkpt lat="9.9748119" lon="-85.1818825">
        <ele>47.5</ele>
        <time>2022-10-06T20:55:02Z</time>
      </trkpt>
      <trkpt lat="9.9748119" lon="-85.1818825">
        <ele>47.5</ele>
        <time>2022-10-06T20:55:03Z</time>
      </trkpt>
      <trkpt lat="9.9748119" lon="-85.1818825">
        <ele>47.4</ele>
        <time>2022-10-06T20:55:04Z</time>
      </trkpt>
      <trkpt lat="9.9748119" lon="-85.1818825">
        <ele>47.4</ele>
        <time>2022-10-06T20:55:05Z</time>
      </trkpt>
      <trkpt lat="9.9748119" lon="-85.1818825">
        <ele>47.5</ele>
        <time>2022-10-06T20:55:06Z</time>
      </trkpt>
      <trkpt lat="9.9748119" lon="-85.1818825">
        <ele>47.4</ele>
        <time>2022-10-06T20:55:07Z</time>
      </trkpt>
      <trkpt lat="9.9748119" lon="-85.1818825">
        <ele>47.3</ele>
        <time>2022-10-06T20:55:08Z</time>
      </trkpt>
      <trkpt lat="9.9748119" lon="-85.1818825">
        <ele>47.2</ele>
        <time>2022-10-06T20:55:09Z</time>
      </trkpt>
      <trkpt lat="9.9748119" lon="-85.1818825">
        <ele>47.3</ele>
        <time>2022-10-06T20:55:10Z</time>
      </trkpt>
      <trkpt lat="9.9748119" lon="-85.1818825">
        <ele>47.2</ele>
        <time>2022-10-06T20:55:11Z</time>
      </trkpt>
      <trkpt lat="9.9748119" lon="-85.1818825">
        <ele>47.2</ele>
        <time>2022-10-06T20:55:12Z</time>
      </trkpt>
      <trkpt lat="9.9748256" lon="-85.1818539">
        <ele>47.2</ele>
        <time>2022-10-06T20:55:13Z</time>
      </trkpt>
      <trkpt lat="9.9748289" lon="-85.1818328">
        <ele>47.1</ele>
        <time>2022-10-06T20:55:14Z</time>
      </trkpt>
      <trkpt lat="9.9748340" lon="-85.1818011">
        <ele>47.1</ele>
        <time>2022-10-06T20:55:15Z</time>
      </trkpt>
      <trkpt lat="9.9748412" lon="-85.1817535">
        <ele>47.1</ele>
        <time>2022-10-06T20:55:16Z</time>
      </trkpt>
      <trkpt lat="9.9748499" lon="-85.1816984">
        <ele>47.1</ele>
        <time>2022-10-06T20:55:17Z</time>
      </trkpt>
      <trkpt lat="9.9748539" lon="-85.1816396">
        <ele>47.2</ele>
        <time>2022-10-06T20:55:18Z</time>
      </trkpt>
      <trkpt lat="9.9748610" lon="-85.1815730">
        <ele>47.4</ele>
        <time>2022-10-06T20:55:19Z</time>
      </trkpt>
      <trkpt lat="9.9748685" lon="-85.1815016">
        <ele>47.3</ele>
        <time>2022-10-06T20:55:20Z</time>
      </trkpt>
      <trkpt lat="9.9748742" lon="-85.1814209">
        <ele>47.1</ele>
        <time>2022-10-06T20:55:21Z</time>
      </trkpt>
      <trkpt lat="9.9748812" lon="-85.1813383">
        <ele>47.1</ele>
        <time>2022-10-06T20:55:22Z</time>
      </trkpt>
      <trkpt lat="9.9748885" lon="-85.1812560">
        <ele>46.9</ele>
        <time>2022-10-06T20:55:23Z</time>
      </trkpt>
      <trkpt lat="9.9748954" lon="-85.1811697">
        <ele>46.8</ele>
        <time>2022-10-06T20:55:24Z</time>
      </trkpt>
      <trkpt lat="9.9749005" lon="-85.1810794">
        <ele>46.4</ele>
        <time>2022-10-06T20:55:25Z</time>
      </trkpt>
      <trkpt lat="9.9749071" lon="-85.1809898">
        <ele>46.3</ele>
        <time>2022-10-06T20:55:26Z</time>
      </trkpt>
      <trkpt lat="9.9749130" lon="-85.1808880">
        <ele>46.2</ele>
        <time>2022-10-06T20:55:27Z</time>
      </trkpt>
      <trkpt lat="9.9749209" lon="-85.1807833">
        <ele>45.8</ele>
        <time>2022-10-06T20:55:28Z</time>
      </trkpt>
      <trkpt lat="9.9749295" lon="-85.1806659">
        <ele>45.5</ele>
        <time>2022-10-06T20:55:29Z</time>
      </trkpt>
      <trkpt lat="9.9749368" lon="-85.1805415">
        <ele>45.0</ele>
        <time>2022-10-06T20:55:30Z</time>
      </trkpt>
      <trkpt lat="9.9749442" lon="-85.1804103">
        <ele>44.6</ele>
        <time>2022-10-06T20:55:31Z</time>
      </trkpt>
      <trkpt lat="9.9749524" lon="-85.1802730">
        <ele>44.3</ele>
        <time>2022-10-06T20:55:32Z</time>
      </trkpt>
      <trkpt lat="9.9749611" lon="-85.1801283">
        <ele>44.0</ele>
        <time>2022-10-06T20:55:33Z</time>
      </trkpt>
      <trkpt lat="9.9749721" lon="-85.1799765">
        <ele>43.7</ele>
        <time>2022-10-06T20:55:34Z</time>
      </trkpt>
      <trkpt lat="9.9749832" lon="-85.1798201">
        <ele>43.5</ele>
        <time>2022-10-06T20:55:35Z</time>
      </trkpt>
      <trkpt lat="9.9749955" lon="-85.1796593">
        <ele>43.1</ele>
        <time>2022-10-06T20:55:36Z</time>
      </trkpt>
      <trkpt lat="9.9750092" lon="-85.1794911">
        <ele>43.3</ele>
        <time>2022-10-06T20:55:37Z</time>
      </trkpt>
      <trkpt lat="9.9750243" lon="-85.1793204">
        <ele>43.1</ele>
        <time>2022-10-06T20:55:38Z</time>
      </trkpt>
      <trkpt lat="9.9750380" lon="-85.1791460">
        <ele>43.1</ele>
        <time>2022-10-06T20:55:39Z</time>
      </trkpt>
      <trkpt lat="9.9750521" lon="-85.1789676">
        <ele>43.2</ele>
        <time>2022-10-06T20:55:40Z</time>
      </trkpt>
      <trkpt lat="9.9750681" lon="-85.1787873">
        <ele>43.3</ele>
        <time>2022-10-06T20:55:41Z</time>
      </trkpt>
      <trkpt lat="9.9750851" lon="-85.1786035">
        <ele>43.6</ele>
        <time>2022-10-06T20:55:42Z</time>
      </trkpt>
      <trkpt lat="9.9751031" lon="-85.1784190">
        <ele>43.7</ele>
        <time>2022-10-06T20:55:43Z</time>
      </trkpt>
      <trkpt lat="9.9751212" lon="-85.1782301">
        <ele>44.0</ele>
        <time>2022-10-06T20:55:44Z</time>
      </trkpt>
      <trkpt lat="9.9751380" lon="-85.1780393">
        <ele>44.3</ele>
        <time>2022-10-06T20:55:45Z</time>
      </trkpt>
      <trkpt lat="9.9751534" lon="-85.1778477">
        <ele>44.4</ele>
        <time>2022-10-06T20:55:46Z</time>
      </trkpt>
      <trkpt lat="9.9751684" lon="-85.1776558">
        <ele>44.6</ele>
        <time>2022-10-06T20:55:47Z</time>
      </trkpt>
      <trkpt lat="9.9751847" lon="-85.1774604">
        <ele>44.8</ele>
        <time>2022-10-06T20:55:48Z</time>
      </trkpt>
      <trkpt lat="9.9752012" lon="-85.1772632">
        <ele>45.1</ele>
        <time>2022-10-06T20:55:49Z</time>
      </trkpt>
      <trkpt lat="9.9752181" lon="-85.1770685">
        <ele>45.3</ele>
        <time>2022-10-06T20:55:50Z</time>
      </trkpt>
      <trkpt lat="9.9752347" lon="-85.1768692">
        <ele>45.5</ele>
        <time>2022-10-06T20:55:51Z</time>
      </trkpt>
      <trkpt lat="9.9752518" lon="-85.1766672">
        <ele>45.6</ele>
        <time>2022-10-06T20:55:52Z</time>
      </trkpt>
      <trkpt lat="9.9752681" lon="-85.1764663">
        <ele>45.8</ele>
        <time>2022-10-06T20:55:53Z</time>
      </trkpt>
      <trkpt lat="9.9752833" lon="-85.1762656">
        <ele>46.0</ele>
        <time>2022-10-06T20:55:54Z</time>
      </trkpt>
      <trkpt lat="9.9753001" lon="-85.1760652">
        <ele>46.2</ele>
        <time>2022-10-06T20:55:55Z</time>
      </trkpt>
      <trkpt lat="9.9753164" lon="-85.1758639">
        <ele>46.3</ele>
        <time>2022-10-06T20:55:56Z</time>
      </trkpt>
      <trkpt lat="9.9753323" lon="-85.1756653">
        <ele>46.4</ele>
        <time>2022-10-06T20:55:57Z</time>
      </trkpt>
      <trkpt lat="9.9753499" lon="-85.1754684">
        <ele>46.5</ele>
        <time>2022-10-06T20:55:58Z</time>
      </trkpt>
      <trkpt lat="9.9753663" lon="-85.1752747">
        <ele>46.7</ele>
        <time>2022-10-06T20:55:59Z</time>
      </trkpt>
      <trkpt lat="9.9753819" lon="-85.1750856">
        <ele>46.7</ele>
        <time>2022-10-06T20:56:00Z</time>
      </trkpt>
      <trkpt lat="9.9753970" lon="-85.1749019">
        <ele>47.3</ele>
        <time>2022-10-06T20:56:01Z</time>
      </trkpt>
      <trkpt lat="9.9754125" lon="-85.1747191">
        <ele>47.4</ele>
        <time>2022-10-06T20:56:02Z</time>
      </trkpt>
      <trkpt lat="9.9754248" lon="-85.1745396">
        <ele>47.4</ele>
        <time>2022-10-06T20:56:03Z</time>
      </trkpt>
      <trkpt lat="9.9754373" lon="-85.1743606">
        <ele>47.3</ele>
        <time>2022-10-06T20:56:04Z</time>
      </trkpt>
      <trkpt lat="9.9754502" lon="-85.1741825">
        <ele>47.5</ele>
        <time>2022-10-06T20:56:05Z</time>
      </trkpt>
      <trkpt lat="9.9754635" lon="-85.1740061">
        <ele>47.6</ele>
        <time>2022-10-06T20:56:06Z</time>
      </trkpt>
      <trkpt lat="9.9754770" lon="-85.1738270">
        <ele>47.7</ele>
        <time>2022-10-06T20:56:07Z</time>
      </trkpt>
      <trkpt lat="9.9754918" lon="-85.1736490">
        <ele>47.8</ele>
        <time>2022-10-06T20:56:09Z</time>
      </trkpt>
      <trkpt lat="9.9755061" lon="-85.1734700">
        <ele>47.9</ele>
        <time>2022-10-06T20:56:09Z</time>
      </trkpt>
      <trkpt lat="9.9755192" lon="-85.1732889">
        <ele>48.1</ele>
        <time>2022-10-06T20:56:10Z</time>
      </trkpt>
      <trkpt lat="9.9755341" lon="-85.1731063">
        <ele>48.3</ele>
        <time>2022-10-06T20:56:11Z</time>
      </trkpt>
      <trkpt lat="9.9755468" lon="-85.1729246">
        <ele>48.4</ele>
        <time>2022-10-06T20:56:12Z</time>
      </trkpt>
      <trkpt lat="9.9755588" lon="-85.1727447">
        <ele>48.3</ele>
        <time>2022-10-06T20:56:13Z</time>
      </trkpt>
      <trkpt lat="9.9755719" lon="-85.1725691">
        <ele>48.5</ele>
        <time>2022-10-06T20:56:14Z</time>
      </trkpt>
      <trkpt lat="9.9755854" lon="-85.1723938">
        <ele>48.6</ele>
        <time>2022-10-06T20:56:15Z</time>
      </trkpt>
      <trkpt lat="9.9755959" lon="-85.1722237">
        <ele>48.7</ele>
        <time>2022-10-06T20:56:16Z</time>
      </trkpt>
      <trkpt lat="9.9756065" lon="-85.1720539">
        <ele>48.5</ele>
        <time>2022-10-06T20:56:17Z</time>
      </trkpt>
      <trkpt lat="9.9756160" lon="-85.1718864">
        <ele>48.4</ele>
        <time>2022-10-06T20:56:18Z</time>
      </trkpt>
      <trkpt lat="9.9756281" lon="-85.1717160">
        <ele>48.2</ele>
        <time>2022-10-06T20:56:19Z</time>
      </trkpt>
      <trkpt lat="9.9756398" lon="-85.1715526">
        <ele>48.0</ele>
        <time>2022-10-06T20:56:20Z</time>
      </trkpt>
      <trkpt lat="9.9756492" lon="-85.1713995">
        <ele>48.1</ele>
        <time>2022-10-06T20:56:21Z</time>
      </trkpt>
      <trkpt lat="9.9756593" lon="-85.1712456">
        <ele>48.0</ele>
        <time>2022-10-06T20:56:22Z</time>
      </trkpt>
      <trkpt lat="9.9756698" lon="-85.1710923">
        <ele>47.8</ele>
        <time>2022-10-06T20:56:23Z</time>
      </trkpt>
      <trkpt lat="9.9756839" lon="-85.1709428">
        <ele>47.6</ele>
        <time>2022-10-06T20:56:24Z</time>
      </trkpt>
      <trkpt lat="9.9757001" lon="-85.1707955">
        <ele>47.3</ele>
        <time>2022-10-06T20:56:25Z</time>
      </trkpt>
      <trkpt lat="9.9757155" lon="-85.1706480">
        <ele>47.1</ele>
        <time>2022-10-06T20:56:26Z</time>
      </trkpt>
      <trkpt lat="9.9757286" lon="-85.1704997">
        <ele>46.8</ele>
        <time>2022-10-06T20:56:27Z</time>
      </trkpt>
      <trkpt lat="9.9757399" lon="-85.1703479">
        <ele>46.7</ele>
        <time>2022-10-06T20:56:29Z</time>
      </trkpt>
      <trkpt lat="9.9757462" lon="-85.1701930">
        <ele>46.6</ele>
        <time>2022-10-06T20:56:29Z</time>
      </trkpt>
      <trkpt lat="9.9757521" lon="-85.1700378">
        <ele>46.4</ele>
        <time>2022-10-06T20:56:30Z</time>
      </trkpt>
      <trkpt lat="9.9757606" lon="-85.1698807">
        <ele>46.2</ele>
        <time>2022-10-06T20:56:31Z</time>
      </trkpt>
      <trkpt lat="9.9757697" lon="-85.1697206">
        <ele>46.0</ele>
        <time>2022-10-06T20:56:32Z</time>
      </trkpt>
      <trkpt lat="9.9757810" lon="-85.1695589">
        <ele>45.9</ele>
        <time>2022-10-06T20:56:33Z</time>
      </trkpt>
      <trkpt lat="9.9757916" lon="-85.1693953">
        <ele>45.7</ele>
        <time>2022-10-06T20:56:34Z</time>
      </trkpt>
      <trkpt lat="9.9758013" lon="-85.1692300">
        <ele>45.6</ele>
        <time>2022-10-06T20:56:35Z</time>
      </trkpt>
      <trkpt lat="9.9758126" lon="-85.1690613">
        <ele>45.4</ele>
        <time>2022-10-06T20:56:36Z</time>
      </trkpt>
      <trkpt lat="9.9758245" lon="-85.1688915">
        <ele>45.3</ele>
        <time>2022-10-06T20:56:37Z</time>
      </trkpt>
      <trkpt lat="9.9758338" lon="-85.1687241">
        <ele>45.2</ele>
        <time>2022-10-06T20:56:38Z</time>
      </trkpt>
      <trkpt lat="9.9758436" lon="-85.1685578">
        <ele>45.1</ele>
        <time>2022-10-06T20:56:39Z</time>
      </trkpt>
      <trkpt lat="9.9758540" lon="-85.1683971">
        <ele>44.9</ele>
        <time>2022-10-06T20:56:40Z</time>
      </trkpt>
      <trkpt lat="9.9758626" lon="-85.1682415">
        <ele>44.9</ele>
        <time>2022-10-06T20:56:41Z</time>
      </trkpt>
      <trkpt lat="9.9758715" lon="-85.1680965">
        <ele>44.7</ele>
        <time>2022-10-06T20:56:42Z</time>
      </trkpt>
      <trkpt lat="9.9758796" lon="-85.1679696">
        <ele>44.5</ele>
        <time>2022-10-06T20:56:43Z</time>
      </trkpt>
      <trkpt lat="9.9758856" lon="-85.1678625">
        <ele>44.4</ele>
        <time>2022-10-06T20:56:44Z</time>
      </trkpt>
      <trkpt lat="9.9758903" lon="-85.1677756">
        <ele>44.3</ele>
        <time>2022-10-06T20:56:45Z</time>
      </trkpt>
      <trkpt lat="9.9758942" lon="-85.1677147">
        <ele>44.2</ele>
        <time>2022-10-06T20:56:46Z</time>
      </trkpt>
      <trkpt lat="9.9758957" lon="-85.1676843">
        <ele>44.1</ele>
        <time>2022-10-06T20:56:47Z</time>
      </trkpt>
      <trkpt lat="9.9758975" lon="-85.1676640">
        <ele>44.2</ele>
        <time>2022-10-06T20:56:48Z</time>
      </trkpt>
      <trkpt lat="9.9758988" lon="-85.1676413">
        <ele>44.0</ele>
        <time>2022-10-06T20:56:49Z</time>
      </trkpt>
      <trkpt lat="9.9759009" lon="-85.1676126">
        <ele>44.0</ele>
        <time>2022-10-06T20:56:50Z</time>
      </trkpt>
      <trkpt lat="9.9759029" lon="-85.1675746">
        <ele>44.0</ele>
        <time>2022-10-06T20:56:51Z</time>
      </trkpt>
      <trkpt lat="9.9759062" lon="-85.1675209">
        <ele>43.9</ele>
        <time>2022-10-06T20:56:52Z</time>
      </trkpt>
      <trkpt lat="9.9759113" lon="-85.1674529">
        <ele>43.8</ele>
        <time>2022-10-06T20:56:53Z</time>
      </trkpt>
      <trkpt lat="9.9759171" lon="-85.1673740">
        <ele>43.8</ele>
        <time>2022-10-06T20:56:54Z</time>
      </trkpt>
      <trkpt lat="9.9759235" lon="-85.1672867">
        <ele>43.7</ele>
        <time>2022-10-06T20:56:55Z</time>
      </trkpt>
      <trkpt lat="9.9759298" lon="-85.1671932">
        <ele>43.7</ele>
        <time>2022-10-06T20:56:56Z</time>
      </trkpt>
      <trkpt lat="9.9759366" lon="-85.1670922">
        <ele>43.6</ele>
        <time>2022-10-06T20:56:57Z</time>
      </trkpt>
      <trkpt lat="9.9759436" lon="-85.1669951">
        <ele>43.5</ele>
        <time>2022-10-06T20:56:58Z</time>
      </trkpt>
      <trkpt lat="9.9759493" lon="-85.1669052">
        <ele>43.5</ele>
        <time>2022-10-06T20:56:59Z</time>
      </trkpt>
      <trkpt lat="9.9759540" lon="-85.1668329">
        <ele>43.3</ele>
        <time>2022-10-06T20:57:00Z</time>
      </trkpt>
      <trkpt lat="9.9759577" lon="-85.1667822">
        <ele>43.2</ele>
        <time>2022-10-06T20:57:01Z</time>
      </trkpt>
      <trkpt lat="9.9759602" lon="-85.1667552">
        <ele>43.3</ele>
        <time>2022-10-06T20:57:02Z</time>
      </trkpt>
      <trkpt lat="9.9759617" lon="-85.1667323">
        <ele>43.1</ele>
        <time>2022-10-06T20:57:03Z</time>
      </trkpt>
      <trkpt lat="9.9759640" lon="-85.1667008">
        <ele>43.1</ele>
        <time>2022-10-06T20:57:04Z</time>
      </trkpt>
      <trkpt lat="9.9759671" lon="-85.1666555">
        <ele>43.1</ele>
        <time>2022-10-06T20:57:05Z</time>
      </trkpt>
      <trkpt lat="9.9759706" lon="-85.1665964">
        <ele>43.2</ele>
        <time>2022-10-06T20:57:06Z</time>
      </trkpt>
      <trkpt lat="9.9759749" lon="-85.1665268">
        <ele>43.2</ele>
        <time>2022-10-06T20:57:07Z</time>
      </trkpt>
      <trkpt lat="9.9759792" lon="-85.1664492">
        <ele>43.2</ele>
        <time>2022-10-06T20:57:08Z</time>
      </trkpt>
      <trkpt lat="9.9759861" lon="-85.1663593">
        <ele>43.2</ele>
        <time>2022-10-06T20:57:09Z</time>
      </trkpt>
      <trkpt lat="9.9759916" lon="-85.1662627">
        <ele>43.1</ele>
        <time>2022-10-06T20:57:10Z</time>
      </trkpt>
      <trkpt lat="9.9759963" lon="-85.1661603">
        <ele>43.1</ele>
        <time>2022-10-06T20:57:11Z</time>
      </trkpt>
      <trkpt lat="9.9760027" lon="-85.1660575">
        <ele>42.9</ele>
        <time>2022-10-06T20:57:12Z</time>
      </trkpt>
      <trkpt lat="9.9760078" lon="-85.1659524">
        <ele>42.9</ele>
        <time>2022-10-06T20:57:13Z</time>
      </trkpt>
      <trkpt lat="9.9760131" lon="-85.1658464">
        <ele>42.8</ele>
        <time>2022-10-06T20:57:14Z</time>
      </trkpt>
      <trkpt lat="9.9760214" lon="-85.1657387">
        <ele>43.0</ele>
        <time>2022-10-06T20:57:15Z</time>
      </trkpt>
      <trkpt lat="9.9760332" lon="-85.1656273">
        <ele>43.1</ele>
        <time>2022-10-06T20:57:16Z</time>
      </trkpt>
      <trkpt lat="9.9760456" lon="-85.1655160">
        <ele>43.1</ele>
        <time>2022-10-06T20:57:17Z</time>
      </trkpt>
      <trkpt lat="9.9760547" lon="-85.1654118">
        <ele>43.5</ele>
        <time>2022-10-06T20:57:18Z</time>
      </trkpt>
      <trkpt lat="9.9760599" lon="-85.1653338">
        <ele>43.3</ele>
        <time>2022-10-06T20:57:19Z</time>
      </trkpt>
      <trkpt lat="9.9760685" lon="-85.1652725">
        <ele>42.5</ele>
        <time>2022-10-06T20:57:20Z</time>
      </trkpt>
      <trkpt lat="9.9760705" lon="-85.1652167">
        <ele>42.7</ele>
        <time>2022-10-06T20:57:21Z</time>
      </trkpt>
      <trkpt lat="9.9760659" lon="-85.1651567">
        <ele>43.3</ele>
        <time>2022-10-06T20:57:22Z</time>
      </trkpt>
      <trkpt lat="9.9760590" lon="-85.1651043">
        <ele>44.0</ele>
        <time>2022-10-06T20:57:23Z</time>
      </trkpt>
      <trkpt lat="9.9760567" lon="-85.1650542">
        <ele>43.6</ele>
        <time>2022-10-06T20:57:24Z</time>
      </trkpt>
      <trkpt lat="9.9760586" lon="-85.1650165">
        <ele>43.4</ele>
        <time>2022-10-06T20:57:25Z</time>
      </trkpt>
      <trkpt lat="9.9760591" lon="-85.1649883">
        <ele>43.4</ele>
        <time>2022-10-06T20:57:26Z</time>
      </trkpt>
      <trkpt lat="9.9760601" lon="-85.1649741">
        <ele>43.4</ele>
        <time>2022-10-06T20:57:27Z</time>
      </trkpt>
      <trkpt lat="9.9760591" lon="-85.1649668">
        <ele>43.6</ele>
        <time>2022-10-06T20:57:28Z</time>
      </trkpt>
      <trkpt lat="9.9760591" lon="-85.1649668">
        <ele>43.6</ele>
        <time>2022-10-06T20:57:29Z</time>
      </trkpt>
      <trkpt lat="9.9760591" lon="-85.1649668">
        <ele>43.7</ele>
        <time>2022-10-06T20:57:30Z</time>
      </trkpt>
      <trkpt lat="9.9760591" lon="-85.1649668">
        <ele>43.5</ele>
        <time>2022-10-06T20:57:31Z</time>
      </trkpt>
      <trkpt lat="9.9760591" lon="-85.1649668">
        <ele>43.5</ele>
        <time>2022-10-06T20:57:32Z</time>
      </trkpt>
      <trkpt lat="9.9760591" lon="-85.1649668">
        <ele>43.5</ele>
        <time>2022-10-06T20:57:33Z</time>
      </trkpt>
      <trkpt lat="9.9760591" lon="-85.1649668">
        <ele>43.4</ele>
        <time>2022-10-06T20:57:34Z</time>
      </trkpt>
      <trkpt lat="9.9760591" lon="-85.1649668">
        <ele>43.4</ele>
        <time>2022-10-06T20:57:35Z</time>
      </trkpt>
      <trkpt lat="9.9760591" lon="-85.1649668">
        <ele>43.4</ele>
        <time>2022-10-06T20:57:36Z</time>
      </trkpt>
      <trkpt lat="9.9760591" lon="-85.1649668">
        <ele>43.3</ele>
        <time>2022-10-06T20:57:37Z</time>
      </trkpt>
      <trkpt lat="9.9760591" lon="-85.1649668">
        <ele>43.3</ele>
        <time>2022-10-06T20:57:38Z</time>
      </trkpt>
      <trkpt lat="9.9760591" lon="-85.1649668">
        <ele>43.3</ele>
        <time>2022-10-06T20:57:39Z</time>
      </trkpt>
      <trkpt lat="9.9760591" lon="-85.1649668">
        <ele>43.1</ele>
        <time>2022-10-06T20:57:40Z</time>
      </trkpt>
      <trkpt lat="9.9760591" lon="-85.1649668">
        <ele>43.0</ele>
        <time>2022-10-06T20:57:41Z</time>
      </trkpt>
      <trkpt lat="9.9760591" lon="-85.1649668">
        <ele>43.1</ele>
        <time>2022-10-06T20:57:42Z</time>
      </trkpt>
      <trkpt lat="9.9760591" lon="-85.1649668">
        <ele>42.9</ele>
        <time>2022-10-06T20:57:43Z</time>
      </trkpt>
      <trkpt lat="9.9760591" lon="-85.1649668">
        <ele>42.9</ele>
        <time>2022-10-06T20:57:44Z</time>
      </trkpt>
      <trkpt lat="9.9760591" lon="-85.1649668">
        <ele>42.9</ele>
        <time>2022-10-06T20:57:45Z</time>
      </trkpt>
      <trkpt lat="9.9760591" lon="-85.1649668">
        <ele>43.0</ele>
        <time>2022-10-06T20:57:46Z</time>
      </trkpt>
      <trkpt lat="9.9760591" lon="-85.1649668">
        <ele>42.9</ele>
        <time>2022-10-06T20:57:47Z</time>
      </trkpt>
      <trkpt lat="9.9760591" lon="-85.1649668">
        <ele>42.9</ele>
        <time>2022-10-06T20:57:48Z</time>
      </trkpt>
      <trkpt lat="9.9760591" lon="-85.1649668">
        <ele>42.9</ele>
        <time>2022-10-06T20:57:49Z</time>
      </trkpt>
      <trkpt lat="9.9760591" lon="-85.1649668">
        <ele>42.8</ele>
        <time>2022-10-06T20:57:50Z</time>
      </trkpt>
      <trkpt lat="9.9760591" lon="-85.1649668">
        <ele>42.7</ele>
        <time>2022-10-06T20:57:51Z</time>
      </trkpt>
      <trkpt lat="9.9760591" lon="-85.1649668">
        <ele>42.6</ele>
        <time>2022-10-06T20:57:52Z</time>
      </trkpt>
      <trkpt lat="9.9760591" lon="-85.1649668">
        <ele>42.5</ele>
        <time>2022-10-06T20:57:53Z</time>
      </trkpt>
      <trkpt lat="9.9760591" lon="-85.1649668">
        <ele>42.4</ele>
        <time>2022-10-06T20:57:54Z</time>
      </trkpt>
      <trkpt lat="9.9760591" lon="-85.1649668">
        <ele>42.4</ele>
        <time>2022-10-06T20:57:55Z</time>
      </trkpt>
      <trkpt lat="9.9760591" lon="-85.1649668">
        <ele>42.4</ele>
        <time>2022-10-06T20:57:56Z</time>
      </trkpt>
      <trkpt lat="9.9760591" lon="-85.1649668">
        <ele>42.3</ele>
        <time>2022-10-06T20:57:57Z</time>
      </trkpt>
      <trkpt lat="9.9760591" lon="-85.1649668">
        <ele>42.2</ele>
        <time>2022-10-06T20:57:58Z</time>
      </trkpt>
      <trkpt lat="9.9760591" lon="-85.1649668">
        <ele>42.2</ele>
        <time>2022-10-06T20:57:59Z</time>
      </trkpt>
      <trkpt lat="9.9760591" lon="-85.1649668">
        <ele>42.1</ele>
        <time>2022-10-06T20:58:00Z</time>
      </trkpt>
      <trkpt lat="9.9760591" lon="-85.1649668">
        <ele>42.0</ele>
        <time>2022-10-06T20:58:01Z</time>
      </trkpt>
      <trkpt lat="9.9760591" lon="-85.1649668">
        <ele>42.0</ele>
        <time>2022-10-06T20:58:02Z</time>
      </trkpt>
      <trkpt lat="9.9760591" lon="-85.1649668">
        <ele>42.0</ele>
        <time>2022-10-06T20:58:03Z</time>
      </trkpt>
      <trkpt lat="9.9760591" lon="-85.1649668">
        <ele>42.0</ele>
        <time>2022-10-06T20:58:04Z</time>
      </trkpt>
      <trkpt lat="9.9760591" lon="-85.1649668">
        <ele>41.9</ele>
        <time>2022-10-06T20:58:05Z</time>
      </trkpt>
      <trkpt lat="9.9760591" lon="-85.1649668">
        <ele>42.0</ele>
        <time>2022-10-06T20:58:06Z</time>
      </trkpt>
      <trkpt lat="9.9760591" lon="-85.1649668">
        <ele>41.9</ele>
        <time>2022-10-06T20:58:07Z</time>
      </trkpt>
      <trkpt lat="9.9760591" lon="-85.1649668">
        <ele>41.8</ele>
        <time>2022-10-06T20:58:08Z</time>
      </trkpt>
      <trkpt lat="9.9760591" lon="-85.1649668">
        <ele>41.8</ele>
        <time>2022-10-06T20:58:09Z</time>
      </trkpt>
      <trkpt lat="9.9760591" lon="-85.1649668">
        <ele>41.8</ele>
        <time>2022-10-06T20:58:10Z</time>
      </trkpt>
      <trkpt lat="9.9760591" lon="-85.1649668">
        <ele>41.8</ele>
        <time>2022-10-06T20:58:11Z</time>
      </trkpt>
      <trkpt lat="9.9760591" lon="-85.1649668">
        <ele>41.9</ele>
        <time>2022-10-06T20:58:12Z</time>
      </trkpt>
      <trkpt lat="9.9760591" lon="-85.1649668">
        <ele>42.0</ele>
        <time>2022-10-06T20:58:13Z</time>
      </trkpt>
      <trkpt lat="9.9760591" lon="-85.1649668">
        <ele>42.0</ele>
        <time>2022-10-06T20:58:14Z</time>
      </trkpt>
      <trkpt lat="9.9760591" lon="-85.1649668">
        <ele>42.1</ele>
        <time>2022-10-06T20:58:15Z</time>
      </trkpt>
      <trkpt lat="9.9760591" lon="-85.1649668">
        <ele>42.2</ele>
        <time>2022-10-06T20:58:16Z</time>
      </trkpt>
      <trkpt lat="9.9760591" lon="-85.1649668">
        <ele>42.2</ele>
        <time>2022-10-06T20:58:17Z</time>
      </trkpt>
      <trkpt lat="9.9760591" lon="-85.1649668">
        <ele>42.2</ele>
        <time>2022-10-06T20:58:18Z</time>
      </trkpt>
      <trkpt lat="9.9760591" lon="-85.1649668">
        <ele>42.3</ele>
        <time>2022-10-06T20:58:19Z</time>
      </trkpt>
      <trkpt lat="9.9760591" lon="-85.1649668">
        <ele>42.3</ele>
        <time>2022-10-06T20:58:20Z</time>
      </trkpt>
      <trkpt lat="9.9760591" lon="-85.1649668">
        <ele>42.3</ele>
        <time>2022-10-06T20:58:21Z</time>
      </trkpt>
      <trkpt lat="9.9760591" lon="-85.1649668">
        <ele>42.4</ele>
        <time>2022-10-06T20:58:22Z</time>
      </trkpt>
      <trkpt lat="9.9760591" lon="-85.1649668">
        <ele>42.4</ele>
        <time>2022-10-06T20:58:23Z</time>
      </trkpt>
      <trkpt lat="9.9760591" lon="-85.1649668">
        <ele>42.4</ele>
        <time>2022-10-06T20:58:24Z</time>
      </trkpt>
      <trkpt lat="9.9760591" lon="-85.1649668">
        <ele>42.4</ele>
        <time>2022-10-06T20:58:25Z</time>
      </trkpt>
      <trkpt lat="9.9760591" lon="-85.1649668">
        <ele>42.4</ele>
        <time>2022-10-06T20:58:26Z</time>
      </trkpt>
      <trkpt lat="9.9760591" lon="-85.1649668">
        <ele>42.2</ele>
        <time>2022-10-06T20:58:27Z</time>
      </trkpt>
      <trkpt lat="9.9760591" lon="-85.1649668">
        <ele>42.2</ele>
        <time>2022-10-06T20:58:28Z</time>
      </trkpt>
      <trkpt lat="9.9760591" lon="-85.1649668">
        <ele>42.2</ele>
        <time>2022-10-06T20:58:29Z</time>
      </trkpt>
      <trkpt lat="9.9760591" lon="-85.1649668">
        <ele>42.1</ele>
        <time>2022-10-06T20:58:30Z</time>
      </trkpt>
      <trkpt lat="9.9760591" lon="-85.1649668">
        <ele>42.1</ele>
        <time>2022-10-06T20:58:31Z</time>
      </trkpt>
      <trkpt lat="9.9760591" lon="-85.1649668">
        <ele>42.0</ele>
        <time>2022-10-06T20:58:32Z</time>
      </trkpt>
      <trkpt lat="9.9760591" lon="-85.1649668">
        <ele>41.9</ele>
        <time>2022-10-06T20:58:33Z</time>
      </trkpt>
      <trkpt lat="9.9760591" lon="-85.1649668">
        <ele>41.9</ele>
        <time>2022-10-06T20:58:34Z</time>
      </trkpt>
      <trkpt lat="9.9760591" lon="-85.1649668">
        <ele>41.8</ele>
        <time>2022-10-06T20:58:35Z</time>
      </trkpt>
      <trkpt lat="9.9760591" lon="-85.1649668">
        <ele>41.8</ele>
        <time>2022-10-06T20:58:36Z</time>
      </trkpt>
      <trkpt lat="9.9760591" lon="-85.1649668">
        <ele>41.8</ele>
        <time>2022-10-06T20:58:37Z</time>
      </trkpt>
      <trkpt lat="9.9760591" lon="-85.1649668">
        <ele>41.8</ele>
        <time>2022-10-06T20:58:38Z</time>
      </trkpt>
      <trkpt lat="9.9760591" lon="-85.1649668">
        <ele>41.8</ele>
        <time>2022-10-06T20:58:39Z</time>
      </trkpt>
      <trkpt lat="9.9760591" lon="-85.1649668">
        <ele>41.8</ele>
        <time>2022-10-06T20:58:40Z</time>
      </trkpt>
      <trkpt lat="9.9760591" lon="-85.1649668">
        <ele>41.8</ele>
        <time>2022-10-06T20:58:41Z</time>
      </trkpt>
      <trkpt lat="9.9760591" lon="-85.1649668">
        <ele>41.8</ele>
        <time>2022-10-06T20:58:42Z</time>
      </trkpt>
      <trkpt lat="9.9760591" lon="-85.1649668">
        <ele>41.8</ele>
        <time>2022-10-06T20:58:43Z</time>
      </trkpt>
      <trkpt lat="9.9760591" lon="-85.1649668">
        <ele>41.8</ele>
        <time>2022-10-06T20:58:44Z</time>
      </trkpt>
      <trkpt lat="9.9760591" lon="-85.1649668">
        <ele>41.9</ele>
        <time>2022-10-06T20:58:45Z</time>
      </trkpt>
      <trkpt lat="9.9760591" lon="-85.1649668">
        <ele>41.8</ele>
        <time>2022-10-06T20:58:46Z</time>
      </trkpt>
      <trkpt lat="9.9760591" lon="-85.1649668">
        <ele>41.8</ele>
        <time>2022-10-06T20:58:47Z</time>
      </trkpt>
      <trkpt lat="9.9760591" lon="-85.1649668">
        <ele>41.8</ele>
        <time>2022-10-06T20:58:48Z</time>
      </trkpt>
      <trkpt lat="9.9760591" lon="-85.1649668">
        <ele>41.9</ele>
        <time>2022-10-06T20:58:49Z</time>
      </trkpt>
      <trkpt lat="9.9760591" lon="-85.1649668">
        <ele>41.8</ele>
        <time>2022-10-06T20:58:50Z</time>
      </trkpt>
      <trkpt lat="9.9760591" lon="-85.1649668">
        <ele>41.9</ele>
        <time>2022-10-06T20:58:51Z</time>
      </trkpt>
      <trkpt lat="9.9760591" lon="-85.1649668">
        <ele>41.9</ele>
        <time>2022-10-06T20:58:52Z</time>
      </trkpt>
      <trkpt lat="9.9760591" lon="-85.1649668">
        <ele>41.8</ele>
        <time>2022-10-06T20:58:53Z</time>
      </trkpt>
      <trkpt lat="9.9760591" lon="-85.1649668">
        <ele>41.8</ele>
        <time>2022-10-06T20:58:54Z</time>
      </trkpt>
      <trkpt lat="9.9760591" lon="-85.1649668">
        <ele>41.8</ele>
        <time>2022-10-06T20:58:55Z</time>
      </trkpt>
      <trkpt lat="9.9760591" lon="-85.1649668">
        <ele>41.7</ele>
        <time>2022-10-06T20:58:56Z</time>
      </trkpt>
      <trkpt lat="9.9760591" lon="-85.1649668">
        <ele>41.7</ele>
        <time>2022-10-06T20:58:57Z</time>
      </trkpt>
      <trkpt lat="9.9760591" lon="-85.1649668">
        <ele>41.8</ele>
        <time>2022-10-06T20:58:58Z</time>
      </trkpt>
      <trkpt lat="9.9760591" lon="-85.1649668">
        <ele>41.7</ele>
        <time>2022-10-06T20:58:59Z</time>
      </trkpt>
      <trkpt lat="9.9760591" lon="-85.1649668">
        <ele>41.7</ele>
        <time>2022-10-06T20:59:00Z</time>
      </trkpt>
      <trkpt lat="9.9760591" lon="-85.1649668">
        <ele>41.6</ele>
        <time>2022-10-06T20:59:01Z</time>
      </trkpt>
      <trkpt lat="9.9760591" lon="-85.1649668">
        <ele>41.6</ele>
        <time>2022-10-06T20:59:02Z</time>
      </trkpt>
      <trkpt lat="9.9760591" lon="-85.1649668">
        <ele>41.4</ele>
        <time>2022-10-06T20:59:03Z</time>
      </trkpt>
      <trkpt lat="9.9760591" lon="-85.1649668">
        <ele>41.3</ele>
        <time>2022-10-06T20:59:04Z</time>
      </trkpt>
      <trkpt lat="9.9760591" lon="-85.1649668">
        <ele>41.2</ele>
        <time>2022-10-06T20:59:05Z</time>
      </trkpt>
      <trkpt lat="9.9760591" lon="-85.1649668">
        <ele>41.3</ele>
        <time>2022-10-06T20:59:06Z</time>
      </trkpt>
      <trkpt lat="9.9760591" lon="-85.1649668">
        <ele>41.3</ele>
        <time>2022-10-06T20:59:07Z</time>
      </trkpt>
      <trkpt lat="9.9760591" lon="-85.1649668">
        <ele>41.3</ele>
        <time>2022-10-06T20:59:08Z</time>
      </trkpt>
      <trkpt lat="9.9760591" lon="-85.1649668">
        <ele>41.1</ele>
        <time>2022-10-06T20:59:09Z</time>
      </trkpt>
      <trkpt lat="9.9760591" lon="-85.1649668">
        <ele>41.1</ele>
        <time>2022-10-06T20:59:10Z</time>
      </trkpt>
      <trkpt lat="9.9760591" lon="-85.1649668">
        <ele>41.0</ele>
        <time>2022-10-06T20:59:11Z</time>
      </trkpt>
      <trkpt lat="9.9760591" lon="-85.1649668">
        <ele>40.9</ele>
        <time>2022-10-06T20:59:12Z</time>
      </trkpt>
      <trkpt lat="9.9760591" lon="-85.1649668">
        <ele>40.8</ele>
        <time>2022-10-06T20:59:13Z</time>
      </trkpt>
      <trkpt lat="9.9760591" lon="-85.1649668">
        <ele>40.8</ele>
        <time>2022-10-06T20:59:14Z</time>
      </trkpt>
      <trkpt lat="9.9760591" lon="-85.1649668">
        <ele>40.8</ele>
        <time>2022-10-06T20:59:15Z</time>
      </trkpt>
      <trkpt lat="9.9760591" lon="-85.1649668">
        <ele>40.7</ele>
        <time>2022-10-06T20:59:16Z</time>
      </trkpt>
      <trkpt lat="9.9760591" lon="-85.1649668">
        <ele>40.8</ele>
        <time>2022-10-06T20:59:17Z</time>
      </trkpt>
      <trkpt lat="9.9760591" lon="-85.1649668">
        <ele>40.9</ele>
        <time>2022-10-06T20:59:18Z</time>
      </trkpt>
      <trkpt lat="9.9760591" lon="-85.1649668">
        <ele>40.8</ele>
        <time>2022-10-06T20:59:19Z</time>
      </trkpt>
      <trkpt lat="9.9760591" lon="-85.1649668">
        <ele>40.8</ele>
        <time>2022-10-06T20:59:20Z</time>
      </trkpt>
      <trkpt lat="9.9760474" lon="-85.1649330">
        <ele>40.9</ele>
        <time>2022-10-06T20:59:21Z</time>
      </trkpt>
      <trkpt lat="9.9760551" lon="-85.1649115">
        <ele>41.1</ele>
        <time>2022-10-06T20:59:22Z</time>
      </trkpt>
      <trkpt lat="9.9760631" lon="-85.1648787">
        <ele>41.2</ele>
        <time>2022-10-06T20:59:23Z</time>
      </trkpt>
      <trkpt lat="9.9760721" lon="-85.1648352">
        <ele>41.3</ele>
        <time>2022-10-06T20:59:24Z</time>
      </trkpt>
      <trkpt lat="9.9760775" lon="-85.1647845">
        <ele>41.6</ele>
        <time>2022-10-06T20:59:25Z</time>
      </trkpt>
      <trkpt lat="9.9760832" lon="-85.1647210">
        <ele>41.5</ele>
        <time>2022-10-06T20:59:26Z</time>
      </trkpt>
      <trkpt lat="9.9760898" lon="-85.1646451">
        <ele>41.9</ele>
        <time>2022-10-06T20:59:27Z</time>
      </trkpt>
      <trkpt lat="9.9760958" lon="-85.1645597">
        <ele>42.0</ele>
        <time>2022-10-06T20:59:28Z</time>
      </trkpt>
      <trkpt lat="9.9761028" lon="-85.1644668">
        <ele>42.1</ele>
        <time>2022-10-06T20:59:29Z</time>
      </trkpt>
      <trkpt lat="9.9761090" lon="-85.1643636">
        <ele>42.2</ele>
        <time>2022-10-06T20:59:30Z</time>
      </trkpt>
      <trkpt lat="9.9761152" lon="-85.1642556">
        <ele>42.4</ele>
        <time>2022-10-06T20:59:31Z</time>
      </trkpt>
      <trkpt lat="9.9761232" lon="-85.1641398">
        <ele>42.6</ele>
        <time>2022-10-06T20:59:32Z</time>
      </trkpt>
      <trkpt lat="9.9761310" lon="-85.1640166">
        <ele>42.3</ele>
        <time>2022-10-06T20:59:33Z</time>
      </trkpt>
      <trkpt lat="9.9761405" lon="-85.1638869">
        <ele>42.4</ele>
        <time>2022-10-06T20:59:34Z</time>
      </trkpt>
      <trkpt lat="9.9761487" lon="-85.1637505">
        <ele>42.6</ele>
        <time>2022-10-06T20:59:35Z</time>
      </trkpt>
      <trkpt lat="9.9761596" lon="-85.1636069">
        <ele>42.6</ele>
        <time>2022-10-06T20:59:36Z</time>
      </trkpt>
      <trkpt lat="9.9761692" lon="-85.1634612">
        <ele>42.5</ele>
        <time>2022-10-06T20:59:37Z</time>
      </trkpt>
      <trkpt lat="9.9761796" lon="-85.1633152">
        <ele>42.5</ele>
        <time>2022-10-06T20:59:38Z</time>
      </trkpt>
      <trkpt lat="9.9761906" lon="-85.1631679">
        <ele>42.5</ele>
        <time>2022-10-06T20:59:39Z</time>
      </trkpt>
      <trkpt lat="9.9762018" lon="-85.1630185">
        <ele>42.6</ele>
        <time>2022-10-06T20:59:40Z</time>
      </trkpt>
      <trkpt lat="9.9762129" lon="-85.1628710">
        <ele>42.6</ele>
        <time>2022-10-06T20:59:41Z</time>
      </trkpt>
      <trkpt lat="9.9762229" lon="-85.1627188">
        <ele>42.6</ele>
        <time>2022-10-06T20:59:42Z</time>
      </trkpt>
      <trkpt lat="9.9762324" lon="-85.1625640">
        <ele>42.7</ele>
        <time>2022-10-06T20:59:43Z</time>
      </trkpt>
      <trkpt lat="9.9762421" lon="-85.1624083">
        <ele>42.7</ele>
        <time>2022-10-06T20:59:44Z</time>
      </trkpt>
      <trkpt lat="9.9762546" lon="-85.1622460">
        <ele>42.9</ele>
        <time>2022-10-06T20:59:45Z</time>
      </trkpt>
      <trkpt lat="9.9762686" lon="-85.1620817">
        <ele>43.0</ele>
        <time>2022-10-06T20:59:46Z</time>
      </trkpt>
      <trkpt lat="9.9762818" lon="-85.1619177">
        <ele>43.1</ele>
        <time>2022-10-06T20:59:47Z</time>
      </trkpt>
      <trkpt lat="9.9762917" lon="-85.1617531">
        <ele>43.1</ele>
        <time>2022-10-06T20:59:48Z</time>
      </trkpt>
      <trkpt lat="9.9762973" lon="-85.1615902">
        <ele>43.1</ele>
        <time>2022-10-06T20:59:49Z</time>
      </trkpt>
      <trkpt lat="9.9762938" lon="-85.1614300">
        <ele>43.1</ele>
        <time>2022-10-06T20:59:50Z</time>
      </trkpt>
      <trkpt lat="9.9762850" lon="-85.1612703">
        <ele>43.0</ele>
        <time>2022-10-06T20:59:51Z</time>
      </trkpt>
      <trkpt lat="9.9762710" lon="-85.1611087">
        <ele>43.2</ele>
        <time>2022-10-06T20:59:52Z</time>
      </trkpt>
      <trkpt lat="9.9762479" lon="-85.1609474">
        <ele>43.2</ele>
        <time>2022-10-06T20:59:53Z</time>
      </trkpt>
      <trkpt lat="9.9762197" lon="-85.1607849">
        <ele>43.4</ele>
        <time>2022-10-06T20:59:54Z</time>
      </trkpt>
      <trkpt lat="9.9761867" lon="-85.1606228">
        <ele>43.2</ele>
        <time>2022-10-06T20:59:55Z</time>
      </trkpt>
      <trkpt lat="9.9761490" lon="-85.1604581">
        <ele>44.0</ele>
        <time>2022-10-06T20:59:56Z</time>
      </trkpt>
      <trkpt lat="9.9761065" lon="-85.1602923">
        <ele>44.0</ele>
        <time>2022-10-06T20:59:57Z</time>
      </trkpt>
      <trkpt lat="9.9760634" lon="-85.1601265">
        <ele>44.3</ele>
        <time>2022-10-06T20:59:58Z</time>
      </trkpt>
      <trkpt lat="9.9760198" lon="-85.1599576">
        <ele>44.7</ele>
        <time>2022-10-06T20:59:59Z</time>
      </trkpt>
      <trkpt lat="9.9759759" lon="-85.1597917">
        <ele>45.3</ele>
        <time>2022-10-06T21:00:00Z</time>
      </trkpt>
      <trkpt lat="9.9759317" lon="-85.1596204">
        <ele>46.2</ele>
        <time>2022-10-06T21:00:01Z</time>
      </trkpt>
      <trkpt lat="9.9758891" lon="-85.1594490">
        <ele>47.0</ele>
        <time>2022-10-06T21:00:02Z</time>
      </trkpt>
      <trkpt lat="9.9758499" lon="-85.1592829">
        <ele>47.3</ele>
        <time>2022-10-06T21:00:03Z</time>
      </trkpt>
      <trkpt lat="9.9758187" lon="-85.1591103">
        <ele>48.2</ele>
        <time>2022-10-06T21:00:04Z</time>
      </trkpt>
      <trkpt lat="9.9757940" lon="-85.1589403">
        <ele>49.0</ele>
        <time>2022-10-06T21:00:05Z</time>
      </trkpt>
      <trkpt lat="9.9757800" lon="-85.1587666">
        <ele>49.9</ele>
        <time>2022-10-06T21:00:06Z</time>
      </trkpt>
      <trkpt lat="9.9757764" lon="-85.1585941">
        <ele>50.8</ele>
        <time>2022-10-06T21:00:07Z</time>
      </trkpt>
      <trkpt lat="9.9757800" lon="-85.1584235">
        <ele>51.4</ele>
        <time>2022-10-06T21:00:08Z</time>
      </trkpt>
      <trkpt lat="9.9757931" lon="-85.1582518">
        <ele>52.0</ele>
        <time>2022-10-06T21:00:09Z</time>
      </trkpt>
      <trkpt lat="9.9758116" lon="-85.1580813">
        <ele>52.5</ele>
        <time>2022-10-06T21:00:10Z</time>
      </trkpt>
      <trkpt lat="9.9758337" lon="-85.1579079">
        <ele>53.3</ele>
        <time>2022-10-06T21:00:11Z</time>
      </trkpt>
      <trkpt lat="9.9758562" lon="-85.1577363">
        <ele>53.6</ele>
        <time>2022-10-06T21:00:12Z</time>
      </trkpt>
      <trkpt lat="9.9758777" lon="-85.1575659">
        <ele>53.6</ele>
        <time>2022-10-06T21:00:13Z</time>
      </trkpt>
      <trkpt lat="9.9758987" lon="-85.1573984">
        <ele>54.2</ele>
        <time>2022-10-06T21:00:14Z</time>
      </trkpt>
      <trkpt lat="9.9759177" lon="-85.1572280">
        <ele>54.6</ele>
        <time>2022-10-06T21:00:15Z</time>
      </trkpt>
      <trkpt lat="9.9759351" lon="-85.1570578">
        <ele>54.7</ele>
        <time>2022-10-06T21:00:16Z</time>
      </trkpt>
      <trkpt lat="9.9759510" lon="-85.1568855">
        <ele>55.0</ele>
        <time>2022-10-06T21:00:17Z</time>
      </trkpt>
      <trkpt lat="9.9759682" lon="-85.1567131">
        <ele>55.3</ele>
        <time>2022-10-06T21:00:18Z</time>
      </trkpt>
      <trkpt lat="9.9759844" lon="-85.1565428">
        <ele>55.6</ele>
        <time>2022-10-06T21:00:19Z</time>
      </trkpt>
      <trkpt lat="9.9760022" lon="-85.1563748">
        <ele>55.9</ele>
        <time>2022-10-06T21:00:20Z</time>
      </trkpt>
      <trkpt lat="9.9760226" lon="-85.1562047">
        <ele>55.9</ele>
        <time>2022-10-06T21:00:21Z</time>
      </trkpt>
      <trkpt lat="9.9760401" lon="-85.1560273">
        <ele>56.0</ele>
        <time>2022-10-06T21:00:22Z</time>
      </trkpt>
      <trkpt lat="9.9760580" lon="-85.1558488">
        <ele>56.0</ele>
        <time>2022-10-06T21:00:23Z</time>
      </trkpt>
      <trkpt lat="9.9760772" lon="-85.1556690">
        <ele>55.8</ele>
        <time>2022-10-06T21:00:24Z</time>
      </trkpt>
      <trkpt lat="9.9760968" lon="-85.1554820">
        <ele>55.9</ele>
        <time>2022-10-06T21:00:25Z</time>
      </trkpt>
      <trkpt lat="9.9761153" lon="-85.1552985">
        <ele>55.3</ele>
        <time>2022-10-06T21:00:26Z</time>
      </trkpt>
      <trkpt lat="9.9761331" lon="-85.1551128">
        <ele>54.8</ele>
        <time>2022-10-06T21:00:27Z</time>
      </trkpt>
      <trkpt lat="9.9761542" lon="-85.1549258">
        <ele>54.0</ele>
        <time>2022-10-06T21:00:28Z</time>
      </trkpt>
      <trkpt lat="9.9761752" lon="-85.1547388">
        <ele>53.2</ele>
        <time>2022-10-06T21:00:29Z</time>
      </trkpt>
      <trkpt lat="9.9761988" lon="-85.1545524">
        <ele>52.5</ele>
        <time>2022-10-06T21:00:30Z</time>
      </trkpt>
      <trkpt lat="9.9762229" lon="-85.1543652">
        <ele>51.7</ele>
        <time>2022-10-06T21:00:31Z</time>
      </trkpt>
      <trkpt lat="9.9762451" lon="-85.1541785">
        <ele>51.0</ele>
        <time>2022-10-06T21:00:32Z</time>
      </trkpt>
      <trkpt lat="9.9762679" lon="-85.1539923">
        <ele>50.2</ele>
        <time>2022-10-06T21:00:33Z</time>
      </trkpt>
      <trkpt lat="9.9762851" lon="-85.1538049">
        <ele>49.5</ele>
        <time>2022-10-06T21:00:34Z</time>
      </trkpt>
      <trkpt lat="9.9763002" lon="-85.1536178">
        <ele>48.8</ele>
        <time>2022-10-06T21:00:35Z</time>
      </trkpt>
      <trkpt lat="9.9763122" lon="-85.1534276">
        <ele>48.3</ele>
        <time>2022-10-06T21:00:36Z</time>
      </trkpt>
      <trkpt lat="9.9763205" lon="-85.1532403">
        <ele>47.8</ele>
        <time>2022-10-06T21:00:37Z</time>
      </trkpt>
      <trkpt lat="9.9763257" lon="-85.1530532">
        <ele>47.3</ele>
        <time>2022-10-06T21:00:38Z</time>
      </trkpt>
      <trkpt lat="9.9763264" lon="-85.1528726">
        <ele>46.9</ele>
        <time>2022-10-06T21:00:39Z</time>
      </trkpt>
      <trkpt lat="9.9763250" lon="-85.1526957">
        <ele>46.6</ele>
        <time>2022-10-06T21:00:40Z</time>
      </trkpt>
      <trkpt lat="9.9763241" lon="-85.1525263">
        <ele>46.3</ele>
        <time>2022-10-06T21:00:41Z</time>
      </trkpt>
      <trkpt lat="9.9763233" lon="-85.1523667">
        <ele>45.9</ele>
        <time>2022-10-06T21:00:42Z</time>
      </trkpt>
      <trkpt lat="9.9763228" lon="-85.1522170">
        <ele>45.6</ele>
        <time>2022-10-06T21:00:43Z</time>
      </trkpt>
      <trkpt lat="9.9763210" lon="-85.1520761">
        <ele>45.2</ele>
        <time>2022-10-06T21:00:44Z</time>
      </trkpt>
      <trkpt lat="9.9763203" lon="-85.1519447">
        <ele>44.9</ele>
        <time>2022-10-06T21:00:45Z</time>
      </trkpt>
      <trkpt lat="9.9763194" lon="-85.1518178">
        <ele>44.7</ele>
        <time>2022-10-06T21:00:46Z</time>
      </trkpt>
      <trkpt lat="9.9763169" lon="-85.1516921">
        <ele>44.6</ele>
        <time>2022-10-06T21:00:47Z</time>
      </trkpt>
      <trkpt lat="9.9763159" lon="-85.1515686">
        <ele>44.4</ele>
        <time>2022-10-06T21:00:48Z</time>
      </trkpt>
      <trkpt lat="9.9763201" lon="-85.1514424">
        <ele>44.1</ele>
        <time>2022-10-06T21:00:49Z</time>
      </trkpt>
      <trkpt lat="9.9763264" lon="-85.1513089">
        <ele>44.0</ele>
        <time>2022-10-06T21:00:50Z</time>
      </trkpt>
      <trkpt lat="9.9763309" lon="-85.1511681">
        <ele>43.9</ele>
        <time>2022-10-06T21:00:51Z</time>
      </trkpt>
      <trkpt lat="9.9763321" lon="-85.1510221">
        <ele>43.7</ele>
        <time>2022-10-06T21:00:52Z</time>
      </trkpt>
      <trkpt lat="9.9763304" lon="-85.1508695">
        <ele>43.7</ele>
        <time>2022-10-06T21:00:53Z</time>
      </trkpt>
      <trkpt lat="9.9763263" lon="-85.1507161">
        <ele>43.4</ele>
        <time>2022-10-06T21:00:54Z</time>
      </trkpt>
      <trkpt lat="9.9763208" lon="-85.1505582">
        <ele>43.2</ele>
        <time>2022-10-06T21:00:55Z</time>
      </trkpt>
      <trkpt lat="9.9763143" lon="-85.1503967">
        <ele>43.2</ele>
        <time>2022-10-06T21:00:56Z</time>
      </trkpt>
      <trkpt lat="9.9763085" lon="-85.1502320">
        <ele>43.1</ele>
        <time>2022-10-06T21:00:57Z</time>
      </trkpt>
      <trkpt lat="9.9763023" lon="-85.1500702">
        <ele>43.1</ele>
        <time>2022-10-06T21:00:58Z</time>
      </trkpt>
      <trkpt lat="9.9762968" lon="-85.1499057">
        <ele>43.1</ele>
        <time>2022-10-06T21:00:59Z</time>
      </trkpt>
      <trkpt lat="9.9762898" lon="-85.1497428">
        <ele>43.1</ele>
        <time>2022-10-06T21:01:00Z</time>
      </trkpt>
      <trkpt lat="9.9762780" lon="-85.1495835">
        <ele>43.2</ele>
        <time>2022-10-06T21:01:01Z</time>
      </trkpt>
      <trkpt lat="9.9762606" lon="-85.1494296">
        <ele>43.3</ele>
        <time>2022-10-06T21:01:02Z</time>
      </trkpt>
      <trkpt lat="9.9762317" lon="-85.1492761">
        <ele>43.6</ele>
        <time>2022-10-06T21:01:03Z</time>
      </trkpt>
      <trkpt lat="9.9761920" lon="-85.1491196">
        <ele>43.6</ele>
        <time>2022-10-06T21:01:04Z</time>
      </trkpt>
      <trkpt lat="9.9761397" lon="-85.1489650">
        <ele>43.8</ele>
        <time>2022-10-06T21:01:05Z</time>
      </trkpt>
      <trkpt lat="9.9760756" lon="-85.1488146">
        <ele>44.0</ele>
        <time>2022-10-06T21:01:06Z</time>
      </trkpt>
      <trkpt lat="9.9759946" lon="-85.1486706">
        <ele>44.5</ele>
        <time>2022-10-06T21:01:07Z</time>
      </trkpt>
      <trkpt lat="9.9758960" lon="-85.1485353">
        <ele>43.6</ele>
        <time>2022-10-06T21:01:08Z</time>
      </trkpt>
      <trkpt lat="9.9757883" lon="-85.1484063">
        <ele>43.4</ele>
        <time>2022-10-06T21:01:09Z</time>
      </trkpt>
      <trkpt lat="9.9756724" lon="-85.1482805">
        <ele>43.5</ele>
        <time>2022-10-06T21:01:10Z</time>
      </trkpt>
      <trkpt lat="9.9755477" lon="-85.1481657">
        <ele>43.4</ele>
        <time>2022-10-06T21:01:11Z</time>
      </trkpt>
      <trkpt lat="9.9754132" lon="-85.1480542">
        <ele>43.4</ele>
        <time>2022-10-06T21:01:12Z</time>
      </trkpt>
      <trkpt lat="9.9752751" lon="-85.1479446">
        <ele>43.1</ele>
        <time>2022-10-06T21:01:13Z</time>
      </trkpt>
      <trkpt lat="9.9751326" lon="-85.1478340">
        <ele>43.1</ele>
        <time>2022-10-06T21:01:14Z</time>
      </trkpt>
      <trkpt lat="9.9749879" lon="-85.1477212">
        <ele>43.1</ele>
        <time>2022-10-06T21:01:15Z</time>
      </trkpt>
      <trkpt lat="9.9748443" lon="-85.1476054">
        <ele>43.0</ele>
        <time>2022-10-06T21:01:16Z</time>
      </trkpt>
      <trkpt lat="9.9747018" lon="-85.1474940">
        <ele>43.1</ele>
        <time>2022-10-06T21:01:17Z</time>
      </trkpt>
      <trkpt lat="9.9745618" lon="-85.1473836">
        <ele>43.1</ele>
        <time>2022-10-06T21:01:18Z</time>
      </trkpt>
      <trkpt lat="9.9744207" lon="-85.1472749">
        <ele>42.8</ele>
        <time>2022-10-06T21:01:19Z</time>
      </trkpt>
      <trkpt lat="9.9742793" lon="-85.1471636">
        <ele>42.9</ele>
        <time>2022-10-06T21:01:20Z</time>
      </trkpt>
      <trkpt lat="9.9741421" lon="-85.1470489">
        <ele>43.0</ele>
        <time>2022-10-06T21:01:21Z</time>
      </trkpt>
      <trkpt lat="9.9740150" lon="-85.1469311">
        <ele>43.0</ele>
        <time>2022-10-06T21:01:22Z</time>
      </trkpt>
      <trkpt lat="9.9739016" lon="-85.1468037">
        <ele>43.0</ele>
        <time>2022-10-06T21:01:23Z</time>
      </trkpt>
      <trkpt lat="9.9737963" lon="-85.1466676">
        <ele>43.0</ele>
        <time>2022-10-06T21:01:24Z</time>
      </trkpt>
      <trkpt lat="9.9736968" lon="-85.1465275">
        <ele>42.9</ele>
        <time>2022-10-06T21:01:25Z</time>
      </trkpt>
      <trkpt lat="9.9736104" lon="-85.1463770">
        <ele>43.6</ele>
        <time>2022-10-06T21:01:26Z</time>
      </trkpt>
      <trkpt lat="9.9735297" lon="-85.1462207">
        <ele>43.2</ele>
        <time>2022-10-06T21:01:27Z</time>
      </trkpt>
      <trkpt lat="9.9734649" lon="-85.1460550">
        <ele>43.0</ele>
        <time>2022-10-06T21:01:28Z</time>
      </trkpt>
      <trkpt lat="9.9734109" lon="-85.1458907">
        <ele>43.0</ele>
        <time>2022-10-06T21:01:29Z</time>
      </trkpt>
      <trkpt lat="9.9733679" lon="-85.1457258">
        <ele>42.8</ele>
        <time>2022-10-06T21:01:30Z</time>
      </trkpt>
      <trkpt lat="9.9733321" lon="-85.1455618">
        <ele>42.8</ele>
        <time>2022-10-06T21:01:31Z</time>
      </trkpt>
      <trkpt lat="9.9733068" lon="-85.1454008">
        <ele>42.9</ele>
        <time>2022-10-06T21:01:32Z</time>
      </trkpt>
      <trkpt lat="9.9732929" lon="-85.1452394">
        <ele>42.7</ele>
        <time>2022-10-06T21:01:33Z</time>
      </trkpt>
      <trkpt lat="9.9732863" lon="-85.1450861">
        <ele>42.6</ele>
        <time>2022-10-06T21:01:34Z</time>
      </trkpt>
      <trkpt lat="9.9732869" lon="-85.1449366">
        <ele>42.4</ele>
        <time>2022-10-06T21:01:35Z</time>
      </trkpt>
      <trkpt lat="9.9732929" lon="-85.1447856">
        <ele>42.4</ele>
        <time>2022-10-06T21:01:36Z</time>
      </trkpt>
      <trkpt lat="9.9733142" lon="-85.1446379">
        <ele>42.2</ele>
        <time>2022-10-06T21:01:37Z</time>
      </trkpt>
      <trkpt lat="9.9733462" lon="-85.1444903">
        <ele>42.0</ele>
        <time>2022-10-06T21:01:38Z</time>
      </trkpt>
      <trkpt lat="9.9733836" lon="-85.1443373">
        <ele>42.1</ele>
        <time>2022-10-06T21:01:39Z</time>
      </trkpt>
      <trkpt lat="9.9734322" lon="-85.1441871">
        <ele>41.8</ele>
        <time>2022-10-06T21:01:40Z</time>
      </trkpt>
      <trkpt lat="9.9734897" lon="-85.1440408">
        <ele>41.6</ele>
        <time>2022-10-06T21:01:41Z</time>
      </trkpt>
      <trkpt lat="9.9735570" lon="-85.1438995">
        <ele>41.5</ele>
        <time>2022-10-06T21:01:42Z</time>
      </trkpt>
      <trkpt lat="9.9736362" lon="-85.1437638">
        <ele>41.2</ele>
        <time>2022-10-06T21:01:43Z</time>
      </trkpt>
      <trkpt lat="9.9737220" lon="-85.1436311">
        <ele>41.1</ele>
        <time>2022-10-06T21:01:44Z</time>
      </trkpt>
      <trkpt lat="9.9738130" lon="-85.1434972">
        <ele>41.0</ele>
        <time>2022-10-06T21:01:45Z</time>
      </trkpt>
      <trkpt lat="9.9739101" lon="-85.1433617">
        <ele>40.9</ele>
        <time>2022-10-06T21:01:46Z</time>
      </trkpt>
      <trkpt lat="9.9740176" lon="-85.1432274">
        <ele>40.9</ele>
        <time>2022-10-06T21:01:47Z</time>
      </trkpt>
      <trkpt lat="9.9741346" lon="-85.1430972">
        <ele>40.9</ele>
        <time>2022-10-06T21:01:48Z</time>
      </trkpt>
      <trkpt lat="9.9742563" lon="-85.1429644">
        <ele>41.2</ele>
        <time>2022-10-06T21:01:49Z</time>
      </trkpt>
      <trkpt lat="9.9743797" lon="-85.1428334">
        <ele>41.9</ele>
        <time>2022-10-06T21:01:50Z</time>
      </trkpt>
      <trkpt lat="9.9745054" lon="-85.1427010">
        <ele>42.8</ele>
        <time>2022-10-06T21:01:51Z</time>
      </trkpt>
      <trkpt lat="9.9746306" lon="-85.1425675">
        <ele>43.8</ele>
        <time>2022-10-06T21:01:52Z</time>
      </trkpt>
      <trkpt lat="9.9747545" lon="-85.1424342">
        <ele>44.7</ele>
        <time>2022-10-06T21:01:53Z</time>
      </trkpt>
      <trkpt lat="9.9748788" lon="-85.1423017">
        <ele>45.6</ele>
        <time>2022-10-06T21:01:54Z</time>
      </trkpt>
      <trkpt lat="9.9750047" lon="-85.1421682">
        <ele>46.4</ele>
        <time>2022-10-06T21:01:55Z</time>
      </trkpt>
      <trkpt lat="9.9751289" lon="-85.1420369">
        <ele>47.2</ele>
        <time>2022-10-06T21:01:56Z</time>
      </trkpt>
      <trkpt lat="9.9752547" lon="-85.1419010">
        <ele>47.3</ele>
        <time>2022-10-06T21:01:57Z</time>
      </trkpt>
      <trkpt lat="9.9753806" lon="-85.1417673">
        <ele>48.3</ele>
        <time>2022-10-06T21:01:58Z</time>
      </trkpt>
      <trkpt lat="9.9755087" lon="-85.1416299">
        <ele>48.3</ele>
        <time>2022-10-06T21:01:59Z</time>
      </trkpt>
      <trkpt lat="9.9756288" lon="-85.1414929">
        <ele>48.3</ele>
        <time>2022-10-06T21:02:00Z</time>
      </trkpt>
      <trkpt lat="9.9757523" lon="-85.1413531">
        <ele>48.1</ele>
        <time>2022-10-06T21:02:01Z</time>
      </trkpt>
      <trkpt lat="9.9758708" lon="-85.1412086">
        <ele>48.4</ele>
        <time>2022-10-06T21:02:02Z</time>
      </trkpt>
      <trkpt lat="9.9759822" lon="-85.1410601">
        <ele>48.5</ele>
        <time>2022-10-06T21:02:03Z</time>
      </trkpt>
      <trkpt lat="9.9760882" lon="-85.1409047">
        <ele>48.3</ele>
        <time>2022-10-06T21:02:04Z</time>
      </trkpt>
      <trkpt lat="9.9761877" lon="-85.1407415">
        <ele>48.4</ele>
        <time>2022-10-06T21:02:05Z</time>
      </trkpt>
      <trkpt lat="9.9762775" lon="-85.1405737">
        <ele>48.7</ele>
        <time>2022-10-06T21:02:06Z</time>
      </trkpt>
      <trkpt lat="9.9763595" lon="-85.1404017">
        <ele>48.7</ele>
        <time>2022-10-06T21:02:07Z</time>
      </trkpt>
      <trkpt lat="9.9764289" lon="-85.1402247">
        <ele>48.8</ele>
        <time>2022-10-06T21:02:08Z</time>
      </trkpt>
      <trkpt lat="9.9764845" lon="-85.1400460">
        <ele>48.6</ele>
        <time>2022-10-06T21:02:09Z</time>
      </trkpt>
      <trkpt lat="9.9765240" lon="-85.1398631">
        <ele>46.7</ele>
        <time>2022-10-06T21:02:10Z</time>
      </trkpt>
      <trkpt lat="9.9765521" lon="-85.1396763">
        <ele>45.6</ele>
        <time>2022-10-06T21:02:11Z</time>
      </trkpt>
      <trkpt lat="9.9765688" lon="-85.1394890">
        <ele>44.6</ele>
        <time>2022-10-06T21:02:12Z</time>
      </trkpt>
      <trkpt lat="9.9765745" lon="-85.1392988">
        <ele>43.7</ele>
        <time>2022-10-06T21:02:13Z</time>
      </trkpt>
      <trkpt lat="9.9765728" lon="-85.1391074">
        <ele>43.5</ele>
        <time>2022-10-06T21:02:14Z</time>
      </trkpt>
      <trkpt lat="9.9765585" lon="-85.1389146">
        <ele>42.7</ele>
        <time>2022-10-06T21:02:15Z</time>
      </trkpt>
      <trkpt lat="9.9765427" lon="-85.1387214">
        <ele>42.5</ele>
        <time>2022-10-06T21:02:16Z</time>
      </trkpt>
      <trkpt lat="9.9765293" lon="-85.1385285">
        <ele>41.9</ele>
        <time>2022-10-06T21:02:17Z</time>
      </trkpt>
      <trkpt lat="9.9765147" lon="-85.1383328">
        <ele>41.1</ele>
        <time>2022-10-06T21:02:18Z</time>
      </trkpt>
      <trkpt lat="9.9764983" lon="-85.1381360">
        <ele>40.5</ele>
        <time>2022-10-06T21:02:19Z</time>
      </trkpt>
      <trkpt lat="9.9764810" lon="-85.1379366">
        <ele>40.0</ele>
        <time>2022-10-06T21:02:20Z</time>
      </trkpt>
      <trkpt lat="9.9764637" lon="-85.1377346">
        <ele>39.6</ele>
        <time>2022-10-06T21:02:21Z</time>
      </trkpt>
      <trkpt lat="9.9764454" lon="-85.1375332">
        <ele>39.2</ele>
        <time>2022-10-06T21:02:22Z</time>
      </trkpt>
      <trkpt lat="9.9764269" lon="-85.1373318">
        <ele>38.9</ele>
        <time>2022-10-06T21:02:23Z</time>
      </trkpt>
      <trkpt lat="9.9764098" lon="-85.1371341">
        <ele>38.7</ele>
        <time>2022-10-06T21:02:24Z</time>
      </trkpt>
      <trkpt lat="9.9763937" lon="-85.1369361">
        <ele>38.6</ele>
        <time>2022-10-06T21:02:25Z</time>
      </trkpt>
      <trkpt lat="9.9763781" lon="-85.1367390">
        <ele>38.4</ele>
        <time>2022-10-06T21:02:26Z</time>
      </trkpt>
      <trkpt lat="9.9763574" lon="-85.1365404">
        <ele>38.3</ele>
        <time>2022-10-06T21:02:27Z</time>
      </trkpt>
      <trkpt lat="9.9763268" lon="-85.1363452">
        <ele>38.1</ele>
        <time>2022-10-06T21:02:28Z</time>
      </trkpt>
      <trkpt lat="9.9762899" lon="-85.1361510">
        <ele>38.2</ele>
        <time>2022-10-06T21:02:29Z</time>
      </trkpt>
      <trkpt lat="9.9762373" lon="-85.1359601">
        <ele>38.0</ele>
        <time>2022-10-06T21:02:30Z</time>
      </trkpt>
      <trkpt lat="9.9761745" lon="-85.1357744">
        <ele>38.0</ele>
        <time>2022-10-06T21:02:31Z</time>
      </trkpt>
      <trkpt lat="9.9761022" lon="-85.1355970">
        <ele>38.2</ele>
        <time>2022-10-06T21:02:32Z</time>
      </trkpt>
      <trkpt lat="9.9760177" lon="-85.1354271">
        <ele>38.1</ele>
        <time>2022-10-06T21:02:33Z</time>
      </trkpt>
      <trkpt lat="9.9759208" lon="-85.1352574">
        <ele>38.0</ele>
        <time>2022-10-06T21:02:34Z</time>
      </trkpt>
      <trkpt lat="9.9758094" lon="-85.1350953">
        <ele>37.7</ele>
        <time>2022-10-06T21:02:35Z</time>
      </trkpt>
      <trkpt lat="9.9756906" lon="-85.1349355">
        <ele>37.5</ele>
        <time>2022-10-06T21:02:36Z</time>
      </trkpt>
      <trkpt lat="9.9755654" lon="-85.1347798">
        <ele>37.5</ele>
        <time>2022-10-06T21:02:37Z</time>
      </trkpt>
      <trkpt lat="9.9754425" lon="-85.1346242">
        <ele>37.3</ele>
        <time>2022-10-06T21:02:38Z</time>
      </trkpt>
      <trkpt lat="9.9753167" lon="-85.1344690">
        <ele>37.4</ele>
        <time>2022-10-06T21:02:39Z</time>
      </trkpt>
      <trkpt lat="9.9751928" lon="-85.1343141">
        <ele>37.2</ele>
        <time>2022-10-06T21:02:40Z</time>
      </trkpt>
      <trkpt lat="9.9750667" lon="-85.1341602">
        <ele>36.8</ele>
        <time>2022-10-06T21:02:41Z</time>
      </trkpt>
      <trkpt lat="9.9749436" lon="-85.1340112">
        <ele>36.5</ele>
        <time>2022-10-06T21:02:42Z</time>
      </trkpt>
      <trkpt lat="9.9748200" lon="-85.1338585">
        <ele>36.3</ele>
        <time>2022-10-06T21:02:43Z</time>
      </trkpt>
      <trkpt lat="9.9746955" lon="-85.1337039">
        <ele>36.0</ele>
        <time>2022-10-06T21:02:44Z</time>
      </trkpt>
      <trkpt lat="9.9745715" lon="-85.1335477">
        <ele>35.8</ele>
        <time>2022-10-06T21:02:45Z</time>
      </trkpt>
      <trkpt lat="9.9744497" lon="-85.1333952">
        <ele>36.0</ele>
        <time>2022-10-06T21:02:46Z</time>
      </trkpt>
      <trkpt lat="9.9743260" lon="-85.1332418">
        <ele>36.0</ele>
        <time>2022-10-06T21:02:47Z</time>
      </trkpt>
      <trkpt lat="9.9742025" lon="-85.1330888">
        <ele>35.9</ele>
        <time>2022-10-06T21:02:48Z</time>
      </trkpt>
      <trkpt lat="9.9740800" lon="-85.1329362">
        <ele>36.0</ele>
        <time>2022-10-06T21:02:49Z</time>
      </trkpt>
      <trkpt lat="9.9739584" lon="-85.1327862">
        <ele>36.0</ele>
        <time>2022-10-06T21:02:50Z</time>
      </trkpt>
      <trkpt lat="9.9738370" lon="-85.1326378">
        <ele>36.2</ele>
        <time>2022-10-06T21:02:51Z</time>
      </trkpt>
      <trkpt lat="9.9737199" lon="-85.1324925">
        <ele>36.3</ele>
        <time>2022-10-06T21:02:52Z</time>
      </trkpt>
      <trkpt lat="9.9736065" lon="-85.1323508">
        <ele>36.4</ele>
        <time>2022-10-06T21:02:53Z</time>
      </trkpt>
      <trkpt lat="9.9734940" lon="-85.1322132">
        <ele>36.7</ele>
        <time>2022-10-06T21:02:54Z</time>
      </trkpt>
      <trkpt lat="9.9733845" lon="-85.1320773">
        <ele>36.6</ele>
        <time>2022-10-06T21:02:55Z</time>
      </trkpt>
      <trkpt lat="9.9732760" lon="-85.1319396">
        <ele>36.6</ele>
        <time>2022-10-06T21:02:56Z</time>
      </trkpt>
      <trkpt lat="9.9731661" lon="-85.1318025">
        <ele>36.8</ele>
        <time>2022-10-06T21:02:57Z</time>
      </trkpt>
      <trkpt lat="9.9730535" lon="-85.1316634">
        <ele>37.0</ele>
        <time>2022-10-06T21:02:58Z</time>
      </trkpt>
      <trkpt lat="9.9729430" lon="-85.1315230">
        <ele>37.2</ele>
        <time>2022-10-06T21:02:59Z</time>
      </trkpt>
      <trkpt lat="9.9728309" lon="-85.1313834">
        <ele>37.5</ele>
        <time>2022-10-06T21:03:00Z</time>
      </trkpt>
      <trkpt lat="9.9727193" lon="-85.1312457">
        <ele>37.6</ele>
        <time>2022-10-06T21:03:01Z</time>
      </trkpt>
      <trkpt lat="9.9726068" lon="-85.1311019">
        <ele>38.1</ele>
        <time>2022-10-06T21:03:02Z</time>
      </trkpt>
      <trkpt lat="9.9724940" lon="-85.1309620">
        <ele>38.4</ele>
        <time>2022-10-06T21:03:03Z</time>
      </trkpt>
      <trkpt lat="9.9723850" lon="-85.1308265">
        <ele>38.3</ele>
        <time>2022-10-06T21:03:04Z</time>
      </trkpt>
      <trkpt lat="9.9722740" lon="-85.1306885">
        <ele>38.4</ele>
        <time>2022-10-06T21:03:05Z</time>
      </trkpt>
      <trkpt lat="9.9721634" lon="-85.1305502">
        <ele>38.5</ele>
        <time>2022-10-06T21:03:06Z</time>
      </trkpt>
      <trkpt lat="9.9720492" lon="-85.1304080">
        <ele>38.3</ele>
        <time>2022-10-06T21:03:07Z</time>
      </trkpt>
      <trkpt lat="9.9719346" lon="-85.1302646">
        <ele>38.1</ele>
        <time>2022-10-06T21:03:08Z</time>
      </trkpt>
      <trkpt lat="9.9718166" lon="-85.1301163">
        <ele>38.0</ele>
        <time>2022-10-06T21:03:09Z</time>
      </trkpt>
      <trkpt lat="9.9716965" lon="-85.1299673">
        <ele>37.9</ele>
        <time>2022-10-06T21:03:10Z</time>
      </trkpt>
      <trkpt lat="9.9715760" lon="-85.1298174">
        <ele>37.7</ele>
        <time>2022-10-06T21:03:11Z</time>
      </trkpt>
      <trkpt lat="9.9714557" lon="-85.1296665">
        <ele>37.7</ele>
        <time>2022-10-06T21:03:12Z</time>
      </trkpt>
      <trkpt lat="9.9713346" lon="-85.1295142">
        <ele>37.6</ele>
        <time>2022-10-06T21:03:13Z</time>
      </trkpt>
      <trkpt lat="9.9712129" lon="-85.1293636">
        <ele>37.3</ele>
        <time>2022-10-06T21:03:14Z</time>
      </trkpt>
      <trkpt lat="9.9710907" lon="-85.1292105">
        <ele>37.2</ele>
        <time>2022-10-06T21:03:15Z</time>
      </trkpt>
      <trkpt lat="9.9709666" lon="-85.1290558">
        <ele>37.0</ele>
        <time>2022-10-06T21:03:16Z</time>
      </trkpt>
      <trkpt lat="9.9708432" lon="-85.1289001">
        <ele>36.8</ele>
        <time>2022-10-06T21:03:17Z</time>
      </trkpt>
      <trkpt lat="9.9707183" lon="-85.1287427">
        <ele>36.6</ele>
        <time>2022-10-06T21:03:18Z</time>
      </trkpt>
      <trkpt lat="9.9705930" lon="-85.1285889">
        <ele>36.3</ele>
        <time>2022-10-06T21:03:19Z</time>
      </trkpt>
      <trkpt lat="9.9704678" lon="-85.1284320">
        <ele>36.0</ele>
        <time>2022-10-06T21:03:20Z</time>
      </trkpt>
      <trkpt lat="9.9703460" lon="-85.1282765">
        <ele>35.8</ele>
        <time>2022-10-06T21:03:21Z</time>
      </trkpt>
      <trkpt lat="9.9702268" lon="-85.1281239">
        <ele>35.6</ele>
        <time>2022-10-06T21:03:22Z</time>
      </trkpt>
      <trkpt lat="9.9701069" lon="-85.1279720">
        <ele>35.4</ele>
        <time>2022-10-06T21:03:23Z</time>
      </trkpt>
      <trkpt lat="9.9699873" lon="-85.1278218">
        <ele>35.3</ele>
        <time>2022-10-06T21:03:24Z</time>
      </trkpt>
      <trkpt lat="9.9698653" lon="-85.1276716">
        <ele>34.9</ele>
        <time>2022-10-06T21:03:25Z</time>
      </trkpt>
      <trkpt lat="9.9697459" lon="-85.1275265">
        <ele>34.7</ele>
        <time>2022-10-06T21:03:26Z</time>
      </trkpt>
      <trkpt lat="9.9696166" lon="-85.1273946">
        <ele>34.7</ele>
        <time>2022-10-06T21:03:27Z</time>
      </trkpt>
      <trkpt lat="9.9694821" lon="-85.1272713">
        <ele>34.6</ele>
        <time>2022-10-06T21:03:28Z</time>
      </trkpt>
      <trkpt lat="9.9693446" lon="-85.1271582">
        <ele>34.4</ele>
        <time>2022-10-06T21:03:29Z</time>
      </trkpt>
      <trkpt lat="9.9691968" lon="-85.1270548">
        <ele>34.4</ele>
        <time>2022-10-06T21:03:30Z</time>
      </trkpt>
      <trkpt lat="9.9690394" lon="-85.1269573">
        <ele>34.1</ele>
        <time>2022-10-06T21:03:31Z</time>
      </trkpt>
      <trkpt lat="9.9688725" lon="-85.1268839">
        <ele>33.9</ele>
        <time>2022-10-06T21:03:32Z</time>
      </trkpt>
      <trkpt lat="9.9686985" lon="-85.1268228">
        <ele>34.0</ele>
        <time>2022-10-06T21:03:33Z</time>
      </trkpt>
      <trkpt lat="9.9685179" lon="-85.1267724">
        <ele>33.8</ele>
        <time>2022-10-06T21:03:34Z</time>
      </trkpt>
      <trkpt lat="9.9683362" lon="-85.1267370">
        <ele>33.9</ele>
        <time>2022-10-06T21:03:35Z</time>
      </trkpt>
      <trkpt lat="9.9681519" lon="-85.1267145">
        <ele>34.0</ele>
        <time>2022-10-06T21:03:36Z</time>
      </trkpt>
      <trkpt lat="9.9679665" lon="-85.1267065">
        <ele>34.2</ele>
        <time>2022-10-06T21:03:37Z</time>
      </trkpt>
      <trkpt lat="9.9677780" lon="-85.1267120">
        <ele>34.3</ele>
        <time>2022-10-06T21:03:38Z</time>
      </trkpt>
      <trkpt lat="9.9675904" lon="-85.1267283">
        <ele>34.6</ele>
        <time>2022-10-06T21:03:39Z</time>
      </trkpt>
      <trkpt lat="9.9673978" lon="-85.1267432">
        <ele>34.8</ele>
        <time>2022-10-06T21:03:40Z</time>
      </trkpt>
      <trkpt lat="9.9672063" lon="-85.1267590">
        <ele>35.0</ele>
        <time>2022-10-06T21:03:41Z</time>
      </trkpt>
      <trkpt lat="9.9670132" lon="-85.1267771">
        <ele>35.1</ele>
        <time>2022-10-06T21:03:42Z</time>
      </trkpt>
      <trkpt lat="9.9668191" lon="-85.1267985">
        <ele>35.1</ele>
        <time>2022-10-06T21:03:43Z</time>
      </trkpt>
      <trkpt lat="9.9666285" lon="-85.1268196">
        <ele>35.4</ele>
        <time>2022-10-06T21:03:44Z</time>
      </trkpt>
      <trkpt lat="9.9664404" lon="-85.1268398">
        <ele>35.5</ele>
        <time>2022-10-06T21:03:45Z</time>
      </trkpt>
      <trkpt lat="9.9662550" lon="-85.1268573">
        <ele>35.7</ele>
        <time>2022-10-06T21:03:46Z</time>
      </trkpt>
      <trkpt lat="9.9660760" lon="-85.1268770">
        <ele>35.7</ele>
        <time>2022-10-06T21:03:47Z</time>
      </trkpt>
      <trkpt lat="9.9658997" lon="-85.1268944">
        <ele>35.9</ele>
        <time>2022-10-06T21:03:48Z</time>
      </trkpt>
      <trkpt lat="9.9657315" lon="-85.1269120">
        <ele>36.1</ele>
        <time>2022-10-06T21:03:49Z</time>
      </trkpt>
      <trkpt lat="9.9655659" lon="-85.1269287">
        <ele>36.2</ele>
        <time>2022-10-06T21:03:50Z</time>
      </trkpt>
      <trkpt lat="9.9654049" lon="-85.1269427">
        <ele>36.3</ele>
        <time>2022-10-06T21:03:51Z</time>
      </trkpt>
      <trkpt lat="9.9652443" lon="-85.1269568">
        <ele>36.5</ele>
        <time>2022-10-06T21:03:52Z</time>
      </trkpt>
      <trkpt lat="9.9650853" lon="-85.1269723">
        <ele>36.6</ele>
        <time>2022-10-06T21:03:53Z</time>
      </trkpt>
      <trkpt lat="9.9649271" lon="-85.1269892">
        <ele>36.7</ele>
        <time>2022-10-06T21:03:54Z</time>
      </trkpt>
      <trkpt lat="9.9647733" lon="-85.1270051">
        <ele>36.7</ele>
        <time>2022-10-06T21:03:55Z</time>
      </trkpt>
      <trkpt lat="9.9646265" lon="-85.1270189">
        <ele>36.9</ele>
        <time>2022-10-06T21:03:56Z</time>
      </trkpt>
      <trkpt lat="9.9644884" lon="-85.1270334">
        <ele>37.0</ele>
        <time>2022-10-06T21:03:57Z</time>
      </trkpt>
      <trkpt lat="9.9643624" lon="-85.1270447">
        <ele>37.1</ele>
        <time>2022-10-06T21:03:58Z</time>
      </trkpt>
      <trkpt lat="9.9642467" lon="-85.1270549">
        <ele>37.2</ele>
        <time>2022-10-06T21:03:59Z</time>
      </trkpt>
      <trkpt lat="9.9641347" lon="-85.1270669">
        <ele>37.2</ele>
        <time>2022-10-06T21:04:00Z</time>
      </trkpt>
      <trkpt lat="9.9640299" lon="-85.1270775">
        <ele>37.3</ele>
        <time>2022-10-06T21:04:01Z</time>
      </trkpt>
      <trkpt lat="9.9639266" lon="-85.1270893">
        <ele>37.3</ele>
        <time>2022-10-06T21:04:02Z</time>
      </trkpt>
      <trkpt lat="9.9638312" lon="-85.1270994">
        <ele>37.3</ele>
        <time>2022-10-06T21:04:03Z</time>
      </trkpt>
      <trkpt lat="9.9637447" lon="-85.1271049">
        <ele>37.3</ele>
        <time>2022-10-06T21:04:04Z</time>
      </trkpt>
      <trkpt lat="9.9636588" lon="-85.1271108">
        <ele>37.3</ele>
        <time>2022-10-06T21:04:05Z</time>
      </trkpt>
      <trkpt lat="9.9635720" lon="-85.1271159">
        <ele>37.5</ele>
        <time>2022-10-06T21:04:06Z</time>
      </trkpt>
      <trkpt lat="9.9634868" lon="-85.1271164">
        <ele>37.4</ele>
        <time>2022-10-06T21:04:07Z</time>
      </trkpt>
      <trkpt lat="9.9634005" lon="-85.1271151">
        <ele>37.4</ele>
        <time>2022-10-06T21:04:08Z</time>
      </trkpt>
      <trkpt lat="9.9633134" lon="-85.1271112">
        <ele>37.3</ele>
        <time>2022-10-06T21:04:09Z</time>
      </trkpt>
      <trkpt lat="9.9632226" lon="-85.1271079">
        <ele>37.3</ele>
        <time>2022-10-06T21:04:10Z</time>
      </trkpt>
      <trkpt lat="9.9631225" lon="-85.1271054">
        <ele>37.3</ele>
        <time>2022-10-06T21:04:11Z</time>
      </trkpt>
      <trkpt lat="9.9630193" lon="-85.1270987">
        <ele>37.3</ele>
        <time>2022-10-06T21:04:12Z</time>
      </trkpt>
      <trkpt lat="9.9629100" lon="-85.1270908">
        <ele>37.3</ele>
        <time>2022-10-06T21:04:13Z</time>
      </trkpt>
      <trkpt lat="9.9627954" lon="-85.1270811">
        <ele>37.2</ele>
        <time>2022-10-06T21:04:14Z</time>
      </trkpt>
      <trkpt lat="9.9626763" lon="-85.1270672">
        <ele>37.3</ele>
        <time>2022-10-06T21:04:15Z</time>
      </trkpt>
      <trkpt lat="9.9625499" lon="-85.1270482">
        <ele>37.2</ele>
        <time>2022-10-06T21:04:16Z</time>
      </trkpt>
      <trkpt lat="9.9624229" lon="-85.1270230">
        <ele>37.2</ele>
        <time>2022-10-06T21:04:17Z</time>
      </trkpt>
      <trkpt lat="9.9622945" lon="-85.1269908">
        <ele>37.2</ele>
        <time>2022-10-06T21:04:18Z</time>
      </trkpt>
      <trkpt lat="9.9621661" lon="-85.1269516">
        <ele>37.2</ele>
        <time>2022-10-06T21:04:19Z</time>
      </trkpt>
      <trkpt lat="9.9620394" lon="-85.1269046">
        <ele>37.2</ele>
        <time>2022-10-06T21:04:20Z</time>
      </trkpt>
      <trkpt lat="9.9619186" lon="-85.1268559">
        <ele>37.2</ele>
        <time>2022-10-06T21:04:21Z</time>
      </trkpt>
      <trkpt lat="9.9618080" lon="-85.1268090">
        <ele>37.1</ele>
        <time>2022-10-06T21:04:22Z</time>
      </trkpt>
      <trkpt lat="9.9617149" lon="-85.1267663">
        <ele>37.0</ele>
        <time>2022-10-06T21:04:23Z</time>
      </trkpt>
      <trkpt lat="9.9616367" lon="-85.1267272">
        <ele>37.0</ele>
        <time>2022-10-06T21:04:24Z</time>
      </trkpt>
      <trkpt lat="9.9615714" lon="-85.1266936">
        <ele>36.8</ele>
        <time>2022-10-06T21:04:25Z</time>
      </trkpt>
      <trkpt lat="9.9615097" lon="-85.1266631">
        <ele>36.8</ele>
        <time>2022-10-06T21:04:26Z</time>
      </trkpt>
      <trkpt lat="9.9614508" lon="-85.1266287">
        <ele>36.7</ele>
        <time>2022-10-06T21:04:27Z</time>
      </trkpt>
      <trkpt lat="9.9613999" lon="-85.1265908">
        <ele>36.7</ele>
        <time>2022-10-06T21:04:28Z</time>
      </trkpt>
      <trkpt lat="9.9613458" lon="-85.1265565">
        <ele>36.7</ele>
        <time>2022-10-06T21:04:29Z</time>
      </trkpt>
      <trkpt lat="9.9612888" lon="-85.1265265">
        <ele>36.6</ele>
        <time>2022-10-06T21:04:30Z</time>
      </trkpt>
      <trkpt lat="9.9612241" lon="-85.1264962">
        <ele>36.5</ele>
        <time>2022-10-06T21:04:31Z</time>
      </trkpt>
      <trkpt lat="9.9611516" lon="-85.1264633">
        <ele>36.4</ele>
        <time>2022-10-06T21:04:32Z</time>
      </trkpt>
      <trkpt lat="9.9610750" lon="-85.1264304">
        <ele>36.3</ele>
        <time>2022-10-06T21:04:33Z</time>
      </trkpt>
      <trkpt lat="9.9609889" lon="-85.1263925">
        <ele>36.4</ele>
        <time>2022-10-06T21:04:34Z</time>
      </trkpt>
      <trkpt lat="9.9608954" lon="-85.1263473">
        <ele>36.4</ele>
        <time>2022-10-06T21:04:35Z</time>
      </trkpt>
      <trkpt lat="9.9607966" lon="-85.1262980">
        <ele>36.4</ele>
        <time>2022-10-06T21:04:36Z</time>
      </trkpt>
      <trkpt lat="9.9606903" lon="-85.1262461">
        <ele>36.6</ele>
        <time>2022-10-06T21:04:37Z</time>
      </trkpt>
      <trkpt lat="9.9605783" lon="-85.1261912">
        <ele>36.7</ele>
        <time>2022-10-06T21:04:38Z</time>
      </trkpt>
      <trkpt lat="9.9604634" lon="-85.1261363">
        <ele>36.9</ele>
        <time>2022-10-06T21:04:39Z</time>
      </trkpt>
      <trkpt lat="9.9603435" lon="-85.1260778">
        <ele>36.8</ele>
        <time>2022-10-06T21:04:40Z</time>
      </trkpt>
      <trkpt lat="9.9602200" lon="-85.1260172">
        <ele>36.8</ele>
        <time>2022-10-06T21:04:41Z</time>
      </trkpt>
      <trkpt lat="9.9600934" lon="-85.1259524">
        <ele>36.8</ele>
        <time>2022-10-06T21:04:42Z</time>
      </trkpt>
      <trkpt lat="9.9599655" lon="-85.1258871">
        <ele>36.7</ele>
        <time>2022-10-06T21:04:43Z</time>
      </trkpt>
      <trkpt lat="9.9598356" lon="-85.1258152">
        <ele>36.7</ele>
        <time>2022-10-06T21:04:44Z</time>
      </trkpt>
      <trkpt lat="9.9597068" lon="-85.1257362">
        <ele>36.7</ele>
        <time>2022-10-06T21:04:45Z</time>
      </trkpt>
      <trkpt lat="9.9595823" lon="-85.1256474">
        <ele>36.8</ele>
        <time>2022-10-06T21:04:46Z</time>
      </trkpt>
      <trkpt lat="9.9594637" lon="-85.1255507">
        <ele>37.1</ele>
        <time>2022-10-06T21:04:47Z</time>
      </trkpt>
      <trkpt lat="9.9593515" lon="-85.1254438">
        <ele>37.1</ele>
        <time>2022-10-06T21:04:48Z</time>
      </trkpt>
      <trkpt lat="9.9592448" lon="-85.1253248">
        <ele>37.4</ele>
        <time>2022-10-06T21:04:49Z</time>
      </trkpt>
      <trkpt lat="9.9591466" lon="-85.1251976">
        <ele>37.8</ele>
        <time>2022-10-06T21:04:50Z</time>
      </trkpt>
      <trkpt lat="9.9590515" lon="-85.1250685">
        <ele>38.0</ele>
        <time>2022-10-06T21:04:51Z</time>
      </trkpt>
      <trkpt lat="9.9589690" lon="-85.1249276">
        <ele>38.5</ele>
        <time>2022-10-06T21:04:52Z</time>
      </trkpt>
      <trkpt lat="9.9589000" lon="-85.1247804">
        <ele>39.2</ele>
        <time>2022-10-06T21:04:53Z</time>
      </trkpt>
      <trkpt lat="9.9588436" lon="-85.1246305">
        <ele>39.8</ele>
        <time>2022-10-06T21:04:54Z</time>
      </trkpt>
      <trkpt lat="9.9587989" lon="-85.1244751">
        <ele>40.4</ele>
        <time>2022-10-06T21:04:55Z</time>
      </trkpt>
      <trkpt lat="9.9587657" lon="-85.1243175">
        <ele>40.9</ele>
        <time>2022-10-06T21:04:56Z</time>
      </trkpt>
      <trkpt lat="9.9587434" lon="-85.1241566">
        <ele>41.4</ele>
        <time>2022-10-06T21:04:57Z</time>
      </trkpt>
      <trkpt lat="9.9587324" lon="-85.1239983">
        <ele>41.9</ele>
        <time>2022-10-06T21:04:58Z</time>
      </trkpt>
      <trkpt lat="9.9587340" lon="-85.1238435">
        <ele>42.4</ele>
        <time>2022-10-06T21:04:59Z</time>
      </trkpt>
      <trkpt lat="9.9587459" lon="-85.1236944">
        <ele>42.6</ele>
        <time>2022-10-06T21:05:00Z</time>
      </trkpt>
      <trkpt lat="9.9587632" lon="-85.1235502">
        <ele>42.6</ele>
        <time>2022-10-06T21:05:01Z</time>
      </trkpt>
      <trkpt lat="9.9587814" lon="-85.1234024">
        <ele>42.5</ele>
        <time>2022-10-06T21:05:02Z</time>
      </trkpt>
      <trkpt lat="9.9588063" lon="-85.1232509">
        <ele>42.1</ele>
        <time>2022-10-06T21:05:03Z</time>
      </trkpt>
      <trkpt lat="9.9588356" lon="-85.1231001">
        <ele>42.1</ele>
        <time>2022-10-06T21:05:04Z</time>
      </trkpt>
      <trkpt lat="9.9588616" lon="-85.1229453">
        <ele>41.6</ele>
        <time>2022-10-06T21:05:05Z</time>
      </trkpt>
      <trkpt lat="9.9588863" lon="-85.1227884">
        <ele>41.1</ele>
        <time>2022-10-06T21:05:06Z</time>
      </trkpt>
      <trkpt lat="9.9589114" lon="-85.1226253">
        <ele>40.8</ele>
        <time>2022-10-06T21:05:07Z</time>
      </trkpt>
      <trkpt lat="9.9589388" lon="-85.1224634">
        <ele>40.1</ele>
        <time>2022-10-06T21:05:08Z</time>
      </trkpt>
      <trkpt lat="9.9589675" lon="-85.1222976">
        <ele>39.3</ele>
        <time>2022-10-06T21:05:09Z</time>
      </trkpt>
      <trkpt lat="9.9589966" lon="-85.1221298">
        <ele>38.5</ele>
        <time>2022-10-06T21:05:10Z</time>
      </trkpt>
      <trkpt lat="9.9590281" lon="-85.1219638">
        <ele>37.8</ele>
        <time>2022-10-06T21:05:11Z</time>
      </trkpt>
      <trkpt lat="9.9590589" lon="-85.1217977">
        <ele>37.3</ele>
        <time>2022-10-06T21:05:12Z</time>
      </trkpt>
      <trkpt lat="9.9590870" lon="-85.1216373">
        <ele>36.8</ele>
        <time>2022-10-06T21:05:13Z</time>
      </trkpt>
      <trkpt lat="9.9591164" lon="-85.1214732">
        <ele>36.3</ele>
        <time>2022-10-06T21:05:14Z</time>
      </trkpt>
      <trkpt lat="9.9591443" lon="-85.1213096">
        <ele>36.4</ele>
        <time>2022-10-06T21:05:15Z</time>
      </trkpt>
      <trkpt lat="9.9591736" lon="-85.1211446">
        <ele>36.4</ele>
        <time>2022-10-06T21:05:16Z</time>
      </trkpt>
      <trkpt lat="9.9592036" lon="-85.1209794">
        <ele>36.4</ele>
        <time>2022-10-06T21:05:17Z</time>
      </trkpt>
      <trkpt lat="9.9592331" lon="-85.1208170">
        <ele>36.5</ele>
        <time>2022-10-06T21:05:18Z</time>
      </trkpt>
      <trkpt lat="9.9592601" lon="-85.1206635">
        <ele>36.5</ele>
        <time>2022-10-06T21:05:19Z</time>
      </trkpt>
      <trkpt lat="9.9592859" lon="-85.1205173">
        <ele>36.7</ele>
        <time>2022-10-06T21:05:20Z</time>
      </trkpt>
      <trkpt lat="9.9593095" lon="-85.1203748">
        <ele>36.9</ele>
        <time>2022-10-06T21:05:21Z</time>
      </trkpt>
      <trkpt lat="9.9593297" lon="-85.1202445">
        <ele>37.0</ele>
        <time>2022-10-06T21:05:22Z</time>
      </trkpt>
      <trkpt lat="9.9593487" lon="-85.1201223">
        <ele>37.1</ele>
        <time>2022-10-06T21:05:23Z</time>
      </trkpt>
      <trkpt lat="9.9593691" lon="-85.1200089">
        <ele>37.2</ele>
        <time>2022-10-06T21:05:24Z</time>
      </trkpt>
      <trkpt lat="9.9593851" lon="-85.1199134">
        <ele>37.1</ele>
        <time>2022-10-06T21:05:25Z</time>
      </trkpt>
      <trkpt lat="9.9593988" lon="-85.1198324">
        <ele>37.0</ele>
        <time>2022-10-06T21:05:26Z</time>
      </trkpt>
      <trkpt lat="9.9594089" lon="-85.1197723">
        <ele>36.9</ele>
        <time>2022-10-06T21:05:27Z</time>
      </trkpt>
      <trkpt lat="9.9594118" lon="-85.1197458">
        <ele>36.9</ele>
        <time>2022-10-06T21:05:28Z</time>
      </trkpt>
      <trkpt lat="9.9594133" lon="-85.1197275">
        <ele>36.9</ele>
        <time>2022-10-06T21:05:29Z</time>
      </trkpt>
      <trkpt lat="9.9594151" lon="-85.1197096">
        <ele>36.7</ele>
        <time>2022-10-06T21:05:30Z</time>
      </trkpt>
      <trkpt lat="9.9594136" lon="-85.1196927">
        <ele>36.6</ele>
        <time>2022-10-06T21:05:31Z</time>
      </trkpt>
      <trkpt lat="9.9594164" lon="-85.1196708">
        <ele>36.4</ele>
        <time>2022-10-06T21:05:32Z</time>
      </trkpt>
      <trkpt lat="9.9594195" lon="-85.1196412">
        <ele>36.4</ele>
        <time>2022-10-06T21:05:33Z</time>
      </trkpt>
      <trkpt lat="9.9594233" lon="-85.1196073">
        <ele>36.4</ele>
        <time>2022-10-06T21:05:34Z</time>
      </trkpt>
      <trkpt lat="9.9594264" lon="-85.1195804">
        <ele>36.4</ele>
        <time>2022-10-06T21:05:35Z</time>
      </trkpt>
      <trkpt lat="9.9594278" lon="-85.1195646">
        <ele>36.4</ele>
        <time>2022-10-06T21:05:36Z</time>
      </trkpt>
      <trkpt lat="9.9594298" lon="-85.1195545">
        <ele>36.4</ele>
        <time>2022-10-06T21:05:37Z</time>
      </trkpt>
      <trkpt lat="9.9594317" lon="-85.1195477">
        <ele>36.3</ele>
        <time>2022-10-06T21:05:38Z</time>
      </trkpt>
      <trkpt lat="9.9594331" lon="-85.1195423">
        <ele>36.4</ele>
        <time>2022-10-06T21:05:39Z</time>
      </trkpt>
      <trkpt lat="9.9594331" lon="-85.1195423">
        <ele>36.4</ele>
        <time>2022-10-06T21:05:40Z</time>
      </trkpt>
      <trkpt lat="9.9594331" lon="-85.1195423">
        <ele>36.3</ele>
        <time>2022-10-06T21:05:41Z</time>
      </trkpt>
      <trkpt lat="9.9594354" lon="-85.1195298">
        <ele>36.3</ele>
        <time>2022-10-06T21:05:42Z</time>
      </trkpt>
      <trkpt lat="9.9594378" lon="-85.1195218">
        <ele>36.4</ele>
        <time>2022-10-06T21:05:43Z</time>
      </trkpt>
      <trkpt lat="9.9594407" lon="-85.1195058">
        <ele>36.4</ele>
        <time>2022-10-06T21:05:44Z</time>
      </trkpt>
      <trkpt lat="9.9594444" lon="-85.1194829">
        <ele>36.4</ele>
        <time>2022-10-06T21:05:45Z</time>
      </trkpt>
      <trkpt lat="9.9594485" lon="-85.1194535">
        <ele>36.5</ele>
        <time>2022-10-06T21:05:46Z</time>
      </trkpt>
      <trkpt lat="9.9594536" lon="-85.1194129">
        <ele>36.4</ele>
        <time>2022-10-06T21:05:47Z</time>
      </trkpt>
      <trkpt lat="9.9594605" lon="-85.1193700">
        <ele>36.4</ele>
        <time>2022-10-06T21:05:48Z</time>
      </trkpt>
      <trkpt lat="9.9594690" lon="-85.1193224">
        <ele>36.6</ele>
        <time>2022-10-06T21:05:49Z</time>
      </trkpt>
      <trkpt lat="9.9594798" lon="-85.1192678">
        <ele>36.6</ele>
        <time>2022-10-06T21:05:50Z</time>
      </trkpt>
      <trkpt lat="9.9594916" lon="-85.1192105">
        <ele>36.6</ele>
        <time>2022-10-06T21:05:51Z</time>
      </trkpt>
      <trkpt lat="9.9595052" lon="-85.1191465">
        <ele>36.7</ele>
        <time>2022-10-06T21:05:52Z</time>
      </trkpt>
      <trkpt lat="9.9595197" lon="-85.1190724">
        <ele>36.7</ele>
        <time>2022-10-06T21:05:53Z</time>
      </trkpt>
      <trkpt lat="9.9595354" lon="-85.1189916">
        <ele>36.6</ele>
        <time>2022-10-06T21:05:54Z</time>
      </trkpt>
      <trkpt lat="9.9595506" lon="-85.1189058">
        <ele>36.5</ele>
        <time>2022-10-06T21:05:55Z</time>
      </trkpt>
      <trkpt lat="9.9595673" lon="-85.1188080">
        <ele>36.5</ele>
        <time>2022-10-06T21:05:56Z</time>
      </trkpt>
      <trkpt lat="9.9595840" lon="-85.1187063">
        <ele>36.3</ele>
        <time>2022-10-06T21:05:57Z</time>
      </trkpt>
      <trkpt lat="9.9596013" lon="-85.1185951">
        <ele>36.3</ele>
        <time>2022-10-06T21:05:58Z</time>
      </trkpt>
      <trkpt lat="9.9596216" lon="-85.1184802">
        <ele>36.0</ele>
        <time>2022-10-06T21:05:59Z</time>
      </trkpt>
      <trkpt lat="9.9596431" lon="-85.1183660">
        <ele>35.8</ele>
        <time>2022-10-06T21:06:00Z</time>
      </trkpt>
      <trkpt lat="9.9596660" lon="-85.1182496">
        <ele>35.6</ele>
        <time>2022-10-06T21:06:01Z</time>
      </trkpt>
      <trkpt lat="9.9596882" lon="-85.1181350">
        <ele>35.3</ele>
        <time>2022-10-06T21:06:02Z</time>
      </trkpt>
      <trkpt lat="9.9597103" lon="-85.1180232">
        <ele>35.0</ele>
        <time>2022-10-06T21:06:03Z</time>
      </trkpt>
      <trkpt lat="9.9597304" lon="-85.1179149">
        <ele>34.8</ele>
        <time>2022-10-06T21:06:04Z</time>
      </trkpt>
      <trkpt lat="9.9597483" lon="-85.1178100">
        <ele>34.4</ele>
        <time>2022-10-06T21:06:05Z</time>
      </trkpt>
      <trkpt lat="9.9597664" lon="-85.1177090">
        <ele>34.0</ele>
        <time>2022-10-06T21:06:06Z</time>
      </trkpt>
      <trkpt lat="9.9597853" lon="-85.1176124">
        <ele>34.2</ele>
        <time>2022-10-06T21:06:07Z</time>
      </trkpt>
      <trkpt lat="9.9598058" lon="-85.1175205">
        <ele>33.8</ele>
        <time>2022-10-06T21:06:08Z</time>
      </trkpt>
      <trkpt lat="9.9598258" lon="-85.1174307">
        <ele>33.5</ele>
        <time>2022-10-06T21:06:09Z</time>
      </trkpt>
      <trkpt lat="9.9598453" lon="-85.1173419">
        <ele>33.4</ele>
        <time>2022-10-06T21:06:10Z</time>
      </trkpt>
      <trkpt lat="9.9598619" lon="-85.1172477">
        <ele>33.1</ele>
        <time>2022-10-06T21:06:11Z</time>
      </trkpt>
      <trkpt lat="9.9598748" lon="-85.1171483">
        <ele>33.0</ele>
        <time>2022-10-06T21:06:12Z</time>
      </trkpt>
      <trkpt lat="9.9598910" lon="-85.1170425">
        <ele>32.7</ele>
        <time>2022-10-06T21:06:13Z</time>
      </trkpt>
      <trkpt lat="9.9599079" lon="-85.1169298">
        <ele>32.4</ele>
        <time>2022-10-06T21:06:14Z</time>
      </trkpt>
      <trkpt lat="9.9599265" lon="-85.1168166">
        <ele>32.1</ele>
        <time>2022-10-06T21:06:15Z</time>
      </trkpt>
      <trkpt lat="9.9599470" lon="-85.1166979">
        <ele>32.0</ele>
        <time>2022-10-06T21:06:16Z</time>
      </trkpt>
      <trkpt lat="9.9599693" lon="-85.1165765">
        <ele>31.8</ele>
        <time>2022-10-06T21:06:17Z</time>
      </trkpt>
      <trkpt lat="9.9599917" lon="-85.1164546">
        <ele>31.7</ele>
        <time>2022-10-06T21:06:18Z</time>
      </trkpt>
      <trkpt lat="9.9600140" lon="-85.1163322">
        <ele>31.6</ele>
        <time>2022-10-06T21:06:19Z</time>
      </trkpt>
      <trkpt lat="9.9600359" lon="-85.1162075">
        <ele>31.5</ele>
        <time>2022-10-06T21:06:20Z</time>
      </trkpt>
      <trkpt lat="9.9600603" lon="-85.1160804">
        <ele>31.5</ele>
        <time>2022-10-06T21:06:21Z</time>
      </trkpt>
      <trkpt lat="9.9600845" lon="-85.1159553">
        <ele>31.5</ele>
        <time>2022-10-06T21:06:22Z</time>
      </trkpt>
      <trkpt lat="9.9601095" lon="-85.1158338">
        <ele>31.5</ele>
        <time>2022-10-06T21:06:23Z</time>
      </trkpt>
      <trkpt lat="9.9601344" lon="-85.1157171">
        <ele>31.5</ele>
        <time>2022-10-06T21:06:24Z</time>
      </trkpt>
      <trkpt lat="9.9601600" lon="-85.1156052">
        <ele>31.4</ele>
        <time>2022-10-06T21:06:25Z</time>
      </trkpt>
      <trkpt lat="9.9601844" lon="-85.1154931">
        <ele>31.3</ele>
        <time>2022-10-06T21:06:26Z</time>
      </trkpt>
      <trkpt lat="9.9602095" lon="-85.1153836">
        <ele>31.5</ele>
        <time>2022-10-06T21:06:27Z</time>
      </trkpt>
      <trkpt lat="9.9602344" lon="-85.1152780">
        <ele>31.4</ele>
        <time>2022-10-06T21:06:28Z</time>
      </trkpt>
      <trkpt lat="9.9602614" lon="-85.1151729">
        <ele>31.3</ele>
        <time>2022-10-06T21:06:29Z</time>
      </trkpt>
      <trkpt lat="9.9602886" lon="-85.1150726">
        <ele>31.4</ele>
        <time>2022-10-06T21:06:30Z</time>
      </trkpt>
      <trkpt lat="9.9603147" lon="-85.1149773">
        <ele>31.3</ele>
        <time>2022-10-06T21:06:31Z</time>
      </trkpt>
      <trkpt lat="9.9603407" lon="-85.1148865">
        <ele>31.2</ele>
        <time>2022-10-06T21:06:32Z</time>
      </trkpt>
      <trkpt lat="9.9603687" lon="-85.1148008">
        <ele>31.1</ele>
        <time>2022-10-06T21:06:33Z</time>
      </trkpt>
      <trkpt lat="9.9603950" lon="-85.1147255">
        <ele>31.0</ele>
        <time>2022-10-06T21:06:34Z</time>
      </trkpt>
      <trkpt lat="9.9604144" lon="-85.1146546">
        <ele>30.9</ele>
        <time>2022-10-06T21:06:35Z</time>
      </trkpt>
      <trkpt lat="9.9604320" lon="-85.1145885">
        <ele>30.8</ele>
        <time>2022-10-06T21:06:36Z</time>
      </trkpt>
      <trkpt lat="9.9604490" lon="-85.1145212">
        <ele>30.8</ele>
        <time>2022-10-06T21:06:37Z</time>
      </trkpt>
      <trkpt lat="9.9604657" lon="-85.1144558">
        <ele>30.7</ele>
        <time>2022-10-06T21:06:38Z</time>
      </trkpt>
      <trkpt lat="9.9604826" lon="-85.1143911">
        <ele>30.6</ele>
        <time>2022-10-06T21:06:39Z</time>
      </trkpt>
      <trkpt lat="9.9604989" lon="-85.1143264">
        <ele>30.5</ele>
        <time>2022-10-06T21:06:40Z</time>
      </trkpt>
      <trkpt lat="9.9605184" lon="-85.1142617">
        <ele>30.5</ele>
        <time>2022-10-06T21:06:41Z</time>
      </trkpt>
      <trkpt lat="9.9605401" lon="-85.1141969">
        <ele>30.4</ele>
        <time>2022-10-06T21:06:42Z</time>
      </trkpt>
      <trkpt lat="9.9605610" lon="-85.1141315">
        <ele>30.3</ele>
        <time>2022-10-06T21:06:43Z</time>
      </trkpt>
      <trkpt lat="9.9605802" lon="-85.1140698">
        <ele>30.3</ele>
        <time>2022-10-06T21:06:44Z</time>
      </trkpt>
      <trkpt lat="9.9605996" lon="-85.1140073">
        <ele>30.4</ele>
        <time>2022-10-06T21:06:45Z</time>
      </trkpt>
      <trkpt lat="9.9606178" lon="-85.1139466">
        <ele>30.5</ele>
        <time>2022-10-06T21:06:46Z</time>
      </trkpt>
      <trkpt lat="9.9606354" lon="-85.1138863">
        <ele>30.6</ele>
        <time>2022-10-06T21:06:47Z</time>
      </trkpt>
      <trkpt lat="9.9606525" lon="-85.1138213">
        <ele>30.5</ele>
        <time>2022-10-06T21:06:48Z</time>
      </trkpt>
      <trkpt lat="9.9606647" lon="-85.1137663">
        <ele>30.6</ele>
        <time>2022-10-06T21:06:49Z</time>
      </trkpt>
      <trkpt lat="9.9606734" lon="-85.1137252">
        <ele>30.4</ele>
        <time>2022-10-06T21:06:50Z</time>
      </trkpt>
      <trkpt lat="9.9606796" lon="-85.1137050">
        <ele>30.3</ele>
        <time>2022-10-06T21:06:51Z</time>
      </trkpt>
      <trkpt lat="9.9606841" lon="-85.1136880">
        <ele>30.4</ele>
        <time>2022-10-06T21:06:52Z</time>
      </trkpt>
      <trkpt lat="9.9606892" lon="-85.1136713">
        <ele>30.2</ele>
        <time>2022-10-06T21:06:53Z</time>
      </trkpt>
      <trkpt lat="9.9606970" lon="-85.1136520">
        <ele>30.2</ele>
        <time>2022-10-06T21:06:54Z</time>
      </trkpt>
      <trkpt lat="9.9607046" lon="-85.1136252">
        <ele>30.2</ele>
        <time>2022-10-06T21:06:55Z</time>
      </trkpt>
      <trkpt lat="9.9607154" lon="-85.1135868">
        <ele>30.1</ele>
        <time>2022-10-06T21:06:56Z</time>
      </trkpt>
      <trkpt lat="9.9607284" lon="-85.1135406">
        <ele>30.2</ele>
        <time>2022-10-06T21:06:57Z</time>
      </trkpt>
      <trkpt lat="9.9607421" lon="-85.1134906">
        <ele>30.1</ele>
        <time>2022-10-06T21:06:58Z</time>
      </trkpt>
      <trkpt lat="9.9607553" lon="-85.1134388">
        <ele>30.1</ele>
        <time>2022-10-06T21:06:59Z</time>
      </trkpt>
      <trkpt lat="9.9607689" lon="-85.1133870">
        <ele>30.2</ele>
        <time>2022-10-06T21:07:00Z</time>
      </trkpt>
      <trkpt lat="9.9607806" lon="-85.1133352">
        <ele>30.1</ele>
        <time>2022-10-06T21:07:01Z</time>
      </trkpt>
      <trkpt lat="9.9607935" lon="-85.1132763">
        <ele>30.2</ele>
        <time>2022-10-06T21:07:02Z</time>
      </trkpt>
      <trkpt lat="9.9608099" lon="-85.1132119">
        <ele>30.2</ele>
        <time>2022-10-06T21:07:03Z</time>
      </trkpt>
      <trkpt lat="9.9608264" lon="-85.1131447">
        <ele>30.3</ele>
        <time>2022-10-06T21:07:04Z</time>
      </trkpt>
      <trkpt lat="9.9608478" lon="-85.1130684">
        <ele>30.4</ele>
        <time>2022-10-06T21:07:05Z</time>
      </trkpt>
      <trkpt lat="9.9608717" lon="-85.1129863">
        <ele>30.5</ele>
        <time>2022-10-06T21:07:06Z</time>
      </trkpt>
      <trkpt lat="9.9608978" lon="-85.1129047">
        <ele>31.0</ele>
        <time>2022-10-06T21:07:07Z</time>
      </trkpt>
      <trkpt lat="9.9609246" lon="-85.1128180">
        <ele>31.4</ele>
        <time>2022-10-06T21:07:08Z</time>
      </trkpt>
      <trkpt lat="9.9609532" lon="-85.1127263">
        <ele>31.7</ele>
        <time>2022-10-06T21:07:09Z</time>
      </trkpt>
      <trkpt lat="9.9609813" lon="-85.1126317">
        <ele>32.1</ele>
        <time>2022-10-06T21:07:10Z</time>
      </trkpt>
      <trkpt lat="9.9610107" lon="-85.1125334">
        <ele>32.5</ele>
        <time>2022-10-06T21:07:11Z</time>
      </trkpt>
      <trkpt lat="9.9610403" lon="-85.1124313">
        <ele>32.8</ele>
        <time>2022-10-06T21:07:12Z</time>
      </trkpt>
      <trkpt lat="9.9610684" lon="-85.1123260">
        <ele>33.3</ele>
        <time>2022-10-06T21:07:13Z</time>
      </trkpt>
      <trkpt lat="9.9610967" lon="-85.1122134">
        <ele>33.5</ele>
        <time>2022-10-06T21:07:14Z</time>
      </trkpt>
      <trkpt lat="9.9611254" lon="-85.1121013">
        <ele>33.6</ele>
        <time>2022-10-06T21:07:15Z</time>
      </trkpt>
      <trkpt lat="9.9611526" lon="-85.1119864">
        <ele>33.6</ele>
        <time>2022-10-06T21:07:16Z</time>
      </trkpt>
      <trkpt lat="9.9611764" lon="-85.1118727">
        <ele>33.5</ele>
        <time>2022-10-06T21:07:17Z</time>
      </trkpt>
      <trkpt lat="9.9611944" lon="-85.1117496">
        <ele>33.3</ele>
        <time>2022-10-06T21:07:18Z</time>
      </trkpt>
      <trkpt lat="9.9612079" lon="-85.1116222">
        <ele>33.1</ele>
        <time>2022-10-06T21:07:19Z</time>
      </trkpt>
      <trkpt lat="9.9612198" lon="-85.1114879">
        <ele>33.0</ele>
        <time>2022-10-06T21:07:20Z</time>
      </trkpt>
      <trkpt lat="9.9612204" lon="-85.1113470">
        <ele>32.4</ele>
        <time>2022-10-06T21:07:21Z</time>
      </trkpt>
      <trkpt lat="9.9612104" lon="-85.1111994">
        <ele>31.7</ele>
        <time>2022-10-06T21:07:22Z</time>
      </trkpt>
      <trkpt lat="9.9611946" lon="-85.1110487">
        <ele>31.0</ele>
        <time>2022-10-06T21:07:23Z</time>
      </trkpt>
      <trkpt lat="9.9611742" lon="-85.1108942">
        <ele>30.5</ele>
        <time>2022-10-06T21:07:24Z</time>
      </trkpt>
      <trkpt lat="9.9611507" lon="-85.1107337">
        <ele>30.0</ele>
        <time>2022-10-06T21:07:25Z</time>
      </trkpt>
      <trkpt lat="9.9611262" lon="-85.1105704">
        <ele>29.6</ele>
        <time>2022-10-06T21:07:26Z</time>
      </trkpt>
      <trkpt lat="9.9611011" lon="-85.1104053">
        <ele>29.4</ele>
        <time>2022-10-06T21:07:27Z</time>
      </trkpt>
      <trkpt lat="9.9610761" lon="-85.1102392">
        <ele>29.3</ele>
        <time>2022-10-06T21:07:28Z</time>
      </trkpt>
      <trkpt lat="9.9610512" lon="-85.1100703">
        <ele>29.4</ele>
        <time>2022-10-06T21:07:29Z</time>
      </trkpt>
      <trkpt lat="9.9610259" lon="-85.1099011">
        <ele>29.3</ele>
        <time>2022-10-06T21:07:30Z</time>
      </trkpt>
      <trkpt lat="9.9610007" lon="-85.1097311">
        <ele>29.5</ele>
        <time>2022-10-06T21:07:31Z</time>
      </trkpt>
      <trkpt lat="9.9609754" lon="-85.1095584">
        <ele>29.7</ele>
        <time>2022-10-06T21:07:32Z</time>
      </trkpt>
      <trkpt lat="9.9609502" lon="-85.1093864">
        <ele>29.8</ele>
        <time>2022-10-06T21:07:33Z</time>
      </trkpt>
      <trkpt lat="9.9609261" lon="-85.1092169">
        <ele>30.1</ele>
        <time>2022-10-06T21:07:34Z</time>
      </trkpt>
      <trkpt lat="9.9609037" lon="-85.1090423">
        <ele>31.2</ele>
        <time>2022-10-06T21:07:35Z</time>
      </trkpt>
      <trkpt lat="9.9608778" lon="-85.1088715">
        <ele>31.9</ele>
        <time>2022-10-06T21:07:36Z</time>
      </trkpt>
      <trkpt lat="9.9608533" lon="-85.1087031">
        <ele>32.7</ele>
        <time>2022-10-06T21:07:37Z</time>
      </trkpt>
      <trkpt lat="9.9608276" lon="-85.1085358">
        <ele>33.7</ele>
        <time>2022-10-06T21:07:38Z</time>
      </trkpt>
      <trkpt lat="9.9608013" lon="-85.1083670">
        <ele>33.8</ele>
        <time>2022-10-06T21:07:39Z</time>
      </trkpt>
      <trkpt lat="9.9607748" lon="-85.1082011">
        <ele>35.1</ele>
        <time>2022-10-06T21:07:40Z</time>
      </trkpt>
      <trkpt lat="9.9607487" lon="-85.1080391">
        <ele>35.0</ele>
        <time>2022-10-06T21:07:41Z</time>
      </trkpt>
      <trkpt lat="9.9607266" lon="-85.1078774">
        <ele>35.7</ele>
        <time>2022-10-06T21:07:42Z</time>
      </trkpt>
      <trkpt lat="9.9607013" lon="-85.1077097">
        <ele>35.7</ele>
        <time>2022-10-06T21:07:43Z</time>
      </trkpt>
      <trkpt lat="9.9606756" lon="-85.1075410">
        <ele>35.5</ele>
        <time>2022-10-06T21:07:44Z</time>
      </trkpt>
      <trkpt lat="9.9606505" lon="-85.1073718">
        <ele>35.3</ele>
        <time>2022-10-06T21:07:45Z</time>
      </trkpt>
      <trkpt lat="9.9606252" lon="-85.1072024">
        <ele>35.0</ele>
        <time>2022-10-06T21:07:46Z</time>
      </trkpt>
      <trkpt lat="9.9605991" lon="-85.1070335">
        <ele>34.6</ele>
        <time>2022-10-06T21:07:47Z</time>
      </trkpt>
      <trkpt lat="9.9605741" lon="-85.1068647">
        <ele>34.3</ele>
        <time>2022-10-06T21:07:48Z</time>
      </trkpt>
      <trkpt lat="9.9605478" lon="-85.1066916">
        <ele>34.2</ele>
        <time>2022-10-06T21:07:49Z</time>
      </trkpt>
      <trkpt lat="9.9605208" lon="-85.1065154">
        <ele>34.1</ele>
        <time>2022-10-06T21:07:50Z</time>
      </trkpt>
      <trkpt lat="9.9604922" lon="-85.1063366">
        <ele>34.1</ele>
        <time>2022-10-06T21:07:51Z</time>
      </trkpt>
      <trkpt lat="9.9604621" lon="-85.1061553">
        <ele>34.4</ele>
        <time>2022-10-06T21:07:52Z</time>
      </trkpt>
      <trkpt lat="9.9604339" lon="-85.1059751">
        <ele>34.3</ele>
        <time>2022-10-06T21:07:53Z</time>
      </trkpt>
      <trkpt lat="9.9604074" lon="-85.1057890">
        <ele>34.6</ele>
        <time>2022-10-06T21:07:54Z</time>
      </trkpt>
      <trkpt lat="9.9603803" lon="-85.1056037">
        <ele>34.7</ele>
        <time>2022-10-06T21:07:55Z</time>
      </trkpt>
      <trkpt lat="9.9603541" lon="-85.1054190">
        <ele>34.8</ele>
        <time>2022-10-06T21:07:56Z</time>
      </trkpt>
      <trkpt lat="9.9603282" lon="-85.1052330">
        <ele>34.9</ele>
        <time>2022-10-06T21:07:57Z</time>
      </trkpt>
      <trkpt lat="9.9603009" lon="-85.1050429">
        <ele>34.7</ele>
        <time>2022-10-06T21:07:58Z</time>
      </trkpt>
      <trkpt lat="9.9602732" lon="-85.1048509">
        <ele>34.6</ele>
        <time>2022-10-06T21:07:59Z</time>
      </trkpt>
      <trkpt lat="9.9602469" lon="-85.1046649">
        <ele>34.5</ele>
        <time>2022-10-06T21:08:00Z</time>
      </trkpt>
      <trkpt lat="9.9602203" lon="-85.1044834">
        <ele>34.4</ele>
        <time>2022-10-06T21:08:01Z</time>
      </trkpt>
      <trkpt lat="9.9601932" lon="-85.1042983">
        <ele>34.5</ele>
        <time>2022-10-06T21:08:02Z</time>
      </trkpt>
      <trkpt lat="9.9601627" lon="-85.1041105">
        <ele>34.9</ele>
        <time>2022-10-06T21:08:03Z</time>
      </trkpt>
      <trkpt lat="9.9601306" lon="-85.1039250">
        <ele>35.7</ele>
        <time>2022-10-06T21:08:04Z</time>
      </trkpt>
      <trkpt lat="9.9600992" lon="-85.1037359">
        <ele>36.4</ele>
        <time>2022-10-06T21:08:05Z</time>
      </trkpt>
      <trkpt lat="9.9600707" lon="-85.1035434">
        <ele>37.2</ele>
        <time>2022-10-06T21:08:06Z</time>
      </trkpt>
      <trkpt lat="9.9600458" lon="-85.1033503">
        <ele>37.7</ele>
        <time>2022-10-06T21:08:07Z</time>
      </trkpt>
      <trkpt lat="9.9600236" lon="-85.1031586">
        <ele>37.9</ele>
        <time>2022-10-06T21:08:08Z</time>
      </trkpt>
      <trkpt lat="9.9600169" lon="-85.1029687">
        <ele>38.7</ele>
        <time>2022-10-06T21:08:09Z</time>
      </trkpt>
      <trkpt lat="9.9600221" lon="-85.1027755">
        <ele>39.3</ele>
        <time>2022-10-06T21:08:10Z</time>
      </trkpt>
      <trkpt lat="9.9600366" lon="-85.1025777">
        <ele>39.3</ele>
        <time>2022-10-06T21:08:11Z</time>
      </trkpt>
      <trkpt lat="9.9600689" lon="-85.1023831">
        <ele>39.4</ele>
        <time>2022-10-06T21:08:12Z</time>
      </trkpt>
      <trkpt lat="9.9601144" lon="-85.1021896">
        <ele>39.5</ele>
        <time>2022-10-06T21:08:13Z</time>
      </trkpt>
      <trkpt lat="9.9601745" lon="-85.1019975">
        <ele>39.2</ele>
        <time>2022-10-06T21:08:14Z</time>
      </trkpt>
      <trkpt lat="9.9602487" lon="-85.1018077">
        <ele>38.6</ele>
        <time>2022-10-06T21:08:15Z</time>
      </trkpt>
      <trkpt lat="9.9603334" lon="-85.1016174">
        <ele>38.0</ele>
        <time>2022-10-06T21:08:16Z</time>
      </trkpt>
      <trkpt lat="9.9604277" lon="-85.1014286">
        <ele>37.6</ele>
        <time>2022-10-06T21:08:17Z</time>
      </trkpt>
      <trkpt lat="9.9605253" lon="-85.1012375">
        <ele>37.0</ele>
        <time>2022-10-06T21:08:18Z</time>
      </trkpt>
      <trkpt lat="9.9606244" lon="-85.1010444">
        <ele>36.9</ele>
        <time>2022-10-06T21:08:19Z</time>
      </trkpt>
      <trkpt lat="9.9607249" lon="-85.1008510">
        <ele>36.5</ele>
        <time>2022-10-06T21:08:20Z</time>
      </trkpt>
      <trkpt lat="9.9608270" lon="-85.1006589">
        <ele>36.0</ele>
        <time>2022-10-06T21:08:21Z</time>
      </trkpt>
      <trkpt lat="9.9609301" lon="-85.1004656">
        <ele>35.5</ele>
        <time>2022-10-06T21:08:22Z</time>
      </trkpt>
      <trkpt lat="9.9610326" lon="-85.1002733">
        <ele>35.2</ele>
        <time>2022-10-06T21:08:23Z</time>
      </trkpt>
      <trkpt lat="9.9611341" lon="-85.1000790">
        <ele>35.0</ele>
        <time>2022-10-06T21:08:24Z</time>
      </trkpt>
      <trkpt lat="9.9612350" lon="-85.0998873">
        <ele>34.9</ele>
        <time>2022-10-06T21:08:25Z</time>
      </trkpt>
      <trkpt lat="9.9613339" lon="-85.0996981">
        <ele>35.1</ele>
        <time>2022-10-06T21:08:26Z</time>
      </trkpt>
      <trkpt lat="9.9614316" lon="-85.0995136">
        <ele>35.6</ele>
        <time>2022-10-06T21:08:27Z</time>
      </trkpt>
      <trkpt lat="9.9615259" lon="-85.0993355">
        <ele>36.6</ele>
        <time>2022-10-06T21:08:28Z</time>
      </trkpt>
      <trkpt lat="9.9616168" lon="-85.0991618">
        <ele>37.2</ele>
        <time>2022-10-06T21:08:29Z</time>
      </trkpt>
      <trkpt lat="9.9617065" lon="-85.0989913">
        <ele>38.0</ele>
        <time>2022-10-06T21:08:30Z</time>
      </trkpt>
      <trkpt lat="9.9617928" lon="-85.0988278">
        <ele>38.7</ele>
        <time>2022-10-06T21:08:31Z</time>
      </trkpt>
      <trkpt lat="9.9618771" lon="-85.0986686">
        <ele>38.5</ele>
        <time>2022-10-06T21:08:32Z</time>
      </trkpt>
      <trkpt lat="9.9619531" lon="-85.0985128">
        <ele>38.6</ele>
        <time>2022-10-06T21:08:33Z</time>
      </trkpt>
      <trkpt lat="9.9620226" lon="-85.0983550">
        <ele>38.2</ele>
        <time>2022-10-06T21:08:34Z</time>
      </trkpt>
      <trkpt lat="9.9620846" lon="-85.0981933">
        <ele>37.6</ele>
        <time>2022-10-06T21:08:35Z</time>
      </trkpt>
      <trkpt lat="9.9621355" lon="-85.0980280">
        <ele>36.7</ele>
        <time>2022-10-06T21:08:36Z</time>
      </trkpt>
      <trkpt lat="9.9621758" lon="-85.0978579">
        <ele>36.0</ele>
        <time>2022-10-06T21:08:37Z</time>
      </trkpt>
      <trkpt lat="9.9622039" lon="-85.0976817">
        <ele>35.2</ele>
        <time>2022-10-06T21:08:38Z</time>
      </trkpt>
      <trkpt lat="9.9622221" lon="-85.0975074">
        <ele>34.3</ele>
        <time>2022-10-06T21:08:39Z</time>
      </trkpt>
      <trkpt lat="9.9622358" lon="-85.0973334">
        <ele>33.7</ele>
        <time>2022-10-06T21:08:40Z</time>
      </trkpt>
      <trkpt lat="9.9622469" lon="-85.0971593">
        <ele>33.3</ele>
        <time>2022-10-06T21:08:41Z</time>
      </trkpt>
      <trkpt lat="9.9622583" lon="-85.0969826">
        <ele>32.9</ele>
        <time>2022-10-06T21:08:42Z</time>
      </trkpt>
      <trkpt lat="9.9622714" lon="-85.0968030">
        <ele>32.5</ele>
        <time>2022-10-06T21:08:43Z</time>
      </trkpt>
      <trkpt lat="9.9622847" lon="-85.0966231">
        <ele>32.3</ele>
        <time>2022-10-06T21:08:44Z</time>
      </trkpt>
      <trkpt lat="9.9622981" lon="-85.0964417">
        <ele>32.0</ele>
        <time>2022-10-06T21:08:45Z</time>
      </trkpt>
      <trkpt lat="9.9623111" lon="-85.0962563">
        <ele>31.9</ele>
        <time>2022-10-06T21:08:46Z</time>
      </trkpt>
      <trkpt lat="9.9623261" lon="-85.0960673">
        <ele>31.6</ele>
        <time>2022-10-06T21:08:47Z</time>
      </trkpt>
      <trkpt lat="9.9623408" lon="-85.0958812">
        <ele>31.3</ele>
        <time>2022-10-06T21:08:48Z</time>
      </trkpt>
      <trkpt lat="9.9623653" lon="-85.0957006">
        <ele>31.3</ele>
        <time>2022-10-06T21:08:49Z</time>
      </trkpt>
      <trkpt lat="9.9624042" lon="-85.0955287">
        <ele>31.4</ele>
        <time>2022-10-06T21:08:50Z</time>
      </trkpt>
      <trkpt lat="9.9624473" lon="-85.0953597">
        <ele>31.4</ele>
        <time>2022-10-06T21:08:51Z</time>
      </trkpt>
      <trkpt lat="9.9625114" lon="-85.0951925">
        <ele>31.3</ele>
        <time>2022-10-06T21:08:52Z</time>
      </trkpt>
      <trkpt lat="9.9625892" lon="-85.0950329">
        <ele>31.5</ele>
        <time>2022-10-06T21:08:53Z</time>
      </trkpt>
      <trkpt lat="9.9626797" lon="-85.0948798">
        <ele>31.6</ele>
        <time>2022-10-06T21:08:54Z</time>
      </trkpt>
      <trkpt lat="9.9627775" lon="-85.0947321">
        <ele>31.8</ele>
        <time>2022-10-06T21:08:55Z</time>
      </trkpt>
      <trkpt lat="9.9628754" lon="-85.0945861">
        <ele>32.3</ele>
        <time>2022-10-06T21:08:56Z</time>
      </trkpt>
      <trkpt lat="9.9629744" lon="-85.0944369">
        <ele>32.7</ele>
        <time>2022-10-06T21:08:57Z</time>
      </trkpt>
      <trkpt lat="9.9630691" lon="-85.0942854">
        <ele>32.9</ele>
        <time>2022-10-06T21:08:58Z</time>
      </trkpt>
      <trkpt lat="9.9631562" lon="-85.0941310">
        <ele>33.2</ele>
        <time>2022-10-06T21:08:59Z</time>
      </trkpt>
      <trkpt lat="9.9632359" lon="-85.0939763">
        <ele>33.8</ele>
        <time>2022-10-06T21:09:00Z</time>
      </trkpt>
      <trkpt lat="9.9633095" lon="-85.0938177">
        <ele>34.3</ele>
        <time>2022-10-06T21:09:01Z</time>
      </trkpt>
      <trkpt lat="9.9633739" lon="-85.0936582">
        <ele>34.8</ele>
        <time>2022-10-06T21:09:02Z</time>
      </trkpt>
      <trkpt lat="9.9634280" lon="-85.0934912">
        <ele>35.4</ele>
        <time>2022-10-06T21:09:03Z</time>
      </trkpt>
      <trkpt lat="9.9634634" lon="-85.0933264">
        <ele>36.1</ele>
        <time>2022-10-06T21:09:04Z</time>
      </trkpt>
      <trkpt lat="9.9634821" lon="-85.0931563">
        <ele>36.5</ele>
        <time>2022-10-06T21:09:05Z</time>
      </trkpt>
      <trkpt lat="9.9634920" lon="-85.0929879">
        <ele>36.5</ele>
        <time>2022-10-06T21:09:06Z</time>
      </trkpt>
      <trkpt lat="9.9634844" lon="-85.0928164">
        <ele>36.5</ele>
        <time>2022-10-06T21:09:07Z</time>
      </trkpt>
      <trkpt lat="9.9634598" lon="-85.0926409">
        <ele>36.9</ele>
        <time>2022-10-06T21:09:08Z</time>
      </trkpt>
      <trkpt lat="9.9634274" lon="-85.0924667">
        <ele>37.2</ele>
        <time>2022-10-06T21:09:09Z</time>
      </trkpt>
      <trkpt lat="9.9633820" lon="-85.0922947">
        <ele>37.5</ele>
        <time>2022-10-06T21:09:10Z</time>
      </trkpt>
      <trkpt lat="9.9633229" lon="-85.0921241">
        <ele>38.1</ele>
        <time>2022-10-06T21:09:11Z</time>
      </trkpt>
      <trkpt lat="9.9632531" lon="-85.0919602">
        <ele>38.5</ele>
        <time>2022-10-06T21:09:12Z</time>
      </trkpt>
      <trkpt lat="9.9631811" lon="-85.0917992">
        <ele>38.7</ele>
        <time>2022-10-06T21:09:13Z</time>
      </trkpt>
      <trkpt lat="9.9631084" lon="-85.0916385">
        <ele>39.0</ele>
        <time>2022-10-06T21:09:14Z</time>
      </trkpt>
      <trkpt lat="9.9630375" lon="-85.0914763">
        <ele>39.1</ele>
        <time>2022-10-06T21:09:15Z</time>
      </trkpt>
      <trkpt lat="9.9629645" lon="-85.0913130">
        <ele>39.5</ele>
        <time>2022-10-06T21:09:16Z</time>
      </trkpt>
      <trkpt lat="9.9628907" lon="-85.0911474">
        <ele>40.0</ele>
        <time>2022-10-06T21:09:17Z</time>
      </trkpt>
      <trkpt lat="9.9628186" lon="-85.0909830">
        <ele>40.4</ele>
        <time>2022-10-06T21:09:18Z</time>
      </trkpt>
      <trkpt lat="9.9627456" lon="-85.0908192">
        <ele>40.8</ele>
        <time>2022-10-06T21:09:19Z</time>
      </trkpt>
      <trkpt lat="9.9626736" lon="-85.0906551">
        <ele>41.1</ele>
        <time>2022-10-06T21:09:20Z</time>
      </trkpt>
      <trkpt lat="9.9625990" lon="-85.0904894">
        <ele>41.1</ele>
        <time>2022-10-06T21:09:21Z</time>
      </trkpt>
      <trkpt lat="9.9625261" lon="-85.0903245">
        <ele>41.3</ele>
        <time>2022-10-06T21:09:22Z</time>
      </trkpt>
      <trkpt lat="9.9624511" lon="-85.0901589">
        <ele>41.2</ele>
        <time>2022-10-06T21:09:23Z</time>
      </trkpt>
      <trkpt lat="9.9623772" lon="-85.0899960">
        <ele>41.2</ele>
        <time>2022-10-06T21:09:24Z</time>
      </trkpt>
      <trkpt lat="9.9623028" lon="-85.0898315">
        <ele>41.3</ele>
        <time>2022-10-06T21:09:25Z</time>
      </trkpt>
      <trkpt lat="9.9622283" lon="-85.0896675">
        <ele>41.4</ele>
        <time>2022-10-06T21:09:26Z</time>
      </trkpt>
      <trkpt lat="9.9621540" lon="-85.0895031">
        <ele>41.1</ele>
        <time>2022-10-06T21:09:27Z</time>
      </trkpt>
      <trkpt lat="9.9620780" lon="-85.0893378">
        <ele>40.5</ele>
        <time>2022-10-06T21:09:28Z</time>
      </trkpt>
      <trkpt lat="9.9620014" lon="-85.0891690">
        <ele>39.8</ele>
        <time>2022-10-06T21:09:29Z</time>
      </trkpt>
      <trkpt lat="9.9619236" lon="-85.0889964">
        <ele>38.8</ele>
        <time>2022-10-06T21:09:30Z</time>
      </trkpt>
      <trkpt lat="9.9618429" lon="-85.0888202">
        <ele>37.8</ele>
        <time>2022-10-06T21:09:31Z</time>
      </trkpt>
      <trkpt lat="9.9617603" lon="-85.0886409">
        <ele>36.8</ele>
        <time>2022-10-06T21:09:32Z</time>
      </trkpt>
      <trkpt lat="9.9616789" lon="-85.0884598">
        <ele>35.8</ele>
        <time>2022-10-06T21:09:33Z</time>
      </trkpt>
      <trkpt lat="9.9615957" lon="-85.0882747">
        <ele>34.8</ele>
        <time>2022-10-06T21:09:34Z</time>
      </trkpt>
      <trkpt lat="9.9615124" lon="-85.0880894">
        <ele>34.0</ele>
        <time>2022-10-06T21:09:35Z</time>
      </trkpt>
      <trkpt lat="9.9614282" lon="-85.0879047">
        <ele>33.5</ele>
        <time>2022-10-06T21:09:36Z</time>
      </trkpt>
      <trkpt lat="9.9613434" lon="-85.0877199">
        <ele>33.5</ele>
        <time>2022-10-06T21:09:37Z</time>
      </trkpt>
      <trkpt lat="9.9612600" lon="-85.0875365">
        <ele>33.3</ele>
        <time>2022-10-06T21:09:38Z</time>
      </trkpt>
      <trkpt lat="9.9611749" lon="-85.0873518">
        <ele>33.0</ele>
        <time>2022-10-06T21:09:39Z</time>
      </trkpt>
      <trkpt lat="9.9610929" lon="-85.0871658">
        <ele>32.9</ele>
        <time>2022-10-06T21:09:40Z</time>
      </trkpt>
      <trkpt lat="9.9610107" lon="-85.0869788">
        <ele>32.8</ele>
        <time>2022-10-06T21:09:41Z</time>
      </trkpt>
      <trkpt lat="9.9609266" lon="-85.0867944">
        <ele>32.8</ele>
        <time>2022-10-06T21:09:42Z</time>
      </trkpt>
      <trkpt lat="9.9608431" lon="-85.0866107">
        <ele>32.9</ele>
        <time>2022-10-06T21:09:43Z</time>
      </trkpt>
      <trkpt lat="9.9607606" lon="-85.0864284">
        <ele>32.9</ele>
        <time>2022-10-06T21:09:44Z</time>
      </trkpt>
      <trkpt lat="9.9606771" lon="-85.0862463">
        <ele>32.8</ele>
        <time>2022-10-06T21:09:45Z</time>
      </trkpt>
      <trkpt lat="9.9605957" lon="-85.0860618">
        <ele>33.0</ele>
        <time>2022-10-06T21:09:46Z</time>
      </trkpt>
      <trkpt lat="9.9605158" lon="-85.0858806">
        <ele>33.2</ele>
        <time>2022-10-06T21:09:47Z</time>
      </trkpt>
      <trkpt lat="9.9604343" lon="-85.0856996">
        <ele>33.2</ele>
        <time>2022-10-06T21:09:48Z</time>
      </trkpt>
      <trkpt lat="9.9603544" lon="-85.0855208">
        <ele>33.4</ele>
        <time>2022-10-06T21:09:49Z</time>
      </trkpt>
      <trkpt lat="9.9602744" lon="-85.0853419">
        <ele>33.6</ele>
        <time>2022-10-06T21:09:50Z</time>
      </trkpt>
      <trkpt lat="9.9601943" lon="-85.0851652">
        <ele>33.5</ele>
        <time>2022-10-06T21:09:51Z</time>
      </trkpt>
      <trkpt lat="9.9601152" lon="-85.0849902">
        <ele>33.5</ele>
        <time>2022-10-06T21:09:52Z</time>
      </trkpt>
      <trkpt lat="9.9600371" lon="-85.0848161">
        <ele>33.5</ele>
        <time>2022-10-06T21:09:53Z</time>
      </trkpt>
      <trkpt lat="9.9599596" lon="-85.0846457">
        <ele>33.5</ele>
        <time>2022-10-06T21:09:54Z</time>
      </trkpt>
      <trkpt lat="9.9598820" lon="-85.0844729">
        <ele>33.6</ele>
        <time>2022-10-06T21:09:55Z</time>
      </trkpt>
      <trkpt lat="9.9598045" lon="-85.0843041">
        <ele>33.5</ele>
        <time>2022-10-06T21:09:56Z</time>
      </trkpt>
      <trkpt lat="9.9597298" lon="-85.0841398">
        <ele>33.6</ele>
        <time>2022-10-06T21:09:57Z</time>
      </trkpt>
      <trkpt lat="9.9596576" lon="-85.0839749">
        <ele>33.7</ele>
        <time>2022-10-06T21:09:58Z</time>
      </trkpt>
      <trkpt lat="9.9595934" lon="-85.0838133">
        <ele>33.8</ele>
        <time>2022-10-06T21:09:59Z</time>
      </trkpt>
      <trkpt lat="9.9595383" lon="-85.0836479">
        <ele>33.9</ele>
        <time>2022-10-06T21:10:00Z</time>
      </trkpt>
      <trkpt lat="9.9594947" lon="-85.0834812">
        <ele>33.8</ele>
        <time>2022-10-06T21:10:01Z</time>
      </trkpt>
      <trkpt lat="9.9594592" lon="-85.0833117">
        <ele>33.8</ele>
        <time>2022-10-06T21:10:02Z</time>
      </trkpt>
      <trkpt lat="9.9594364" lon="-85.0831419">
        <ele>33.8</ele>
        <time>2022-10-06T21:10:03Z</time>
      </trkpt>
      <trkpt lat="9.9594279" lon="-85.0829714">
        <ele>33.9</ele>
        <time>2022-10-06T21:10:04Z</time>
      </trkpt>
      <trkpt lat="9.9594292" lon="-85.0827994">
        <ele>34.2</ele>
        <time>2022-10-06T21:10:05Z</time>
      </trkpt>
      <trkpt lat="9.9594379" lon="-85.0826269">
        <ele>34.0</ele>
        <time>2022-10-06T21:10:06Z</time>
      </trkpt>
      <trkpt lat="9.9594508" lon="-85.0824535">
        <ele>34.1</ele>
        <time>2022-10-06T21:10:07Z</time>
      </trkpt>
      <trkpt lat="9.9594726" lon="-85.0822819">
        <ele>34.4</ele>
        <time>2022-10-06T21:10:08Z</time>
      </trkpt>
      <trkpt lat="9.9595004" lon="-85.0821088">
        <ele>34.3</ele>
        <time>2022-10-06T21:10:09Z</time>
      </trkpt>
      <trkpt lat="9.9595410" lon="-85.0819388">
        <ele>34.3</ele>
        <time>2022-10-06T21:10:10Z</time>
      </trkpt>
      <trkpt lat="9.9595973" lon="-85.0817730">
        <ele>34.6</ele>
        <time>2022-10-06T21:10:11Z</time>
      </trkpt>
      <trkpt lat="9.9596692" lon="-85.0816143">
        <ele>34.5</ele>
        <time>2022-10-06T21:10:12Z</time>
      </trkpt>
      <trkpt lat="9.9597522" lon="-85.0814585">
        <ele>34.3</ele>
        <time>2022-10-06T21:10:13Z</time>
      </trkpt>
      <trkpt lat="9.9598403" lon="-85.0813021">
        <ele>34.1</ele>
        <time>2022-10-06T21:10:14Z</time>
      </trkpt>
      <trkpt lat="9.9599297" lon="-85.0811447">
        <ele>33.9</ele>
        <time>2022-10-06T21:10:15Z</time>
      </trkpt>
      <trkpt lat="9.9600209" lon="-85.0809856">
        <ele>33.6</ele>
        <time>2022-10-06T21:10:16Z</time>
      </trkpt>
      <trkpt lat="9.9601127" lon="-85.0808249">
        <ele>33.2</ele>
        <time>2022-10-06T21:10:17Z</time>
      </trkpt>
      <trkpt lat="9.9602052" lon="-85.0806607">
        <ele>32.9</ele>
        <time>2022-10-06T21:10:18Z</time>
      </trkpt>
      <trkpt lat="9.9603008" lon="-85.0804937">
        <ele>32.5</ele>
        <time>2022-10-06T21:10:19Z</time>
      </trkpt>
      <trkpt lat="9.9603958" lon="-85.0803234">
        <ele>32.1</ele>
        <time>2022-10-06T21:10:20Z</time>
      </trkpt>
      <trkpt lat="9.9604901" lon="-85.0801526">
        <ele>31.6</ele>
        <time>2022-10-06T21:10:21Z</time>
      </trkpt>
      <trkpt lat="9.9605846" lon="-85.0799815">
        <ele>31.2</ele>
        <time>2022-10-06T21:10:22Z</time>
      </trkpt>
      <trkpt lat="9.9606804" lon="-85.0798103">
        <ele>31.1</ele>
        <time>2022-10-06T21:10:23Z</time>
      </trkpt>
      <trkpt lat="9.9607752" lon="-85.0796414">
        <ele>30.9</ele>
        <time>2022-10-06T21:10:24Z</time>
      </trkpt>
      <trkpt lat="9.9608702" lon="-85.0794702">
        <ele>30.8</ele>
        <time>2022-10-06T21:10:25Z</time>
      </trkpt>
      <trkpt lat="9.9609654" lon="-85.0793007">
        <ele>30.8</ele>
        <time>2022-10-06T21:10:26Z</time>
      </trkpt>
      <trkpt lat="9.9610609" lon="-85.0791280">
        <ele>30.9</ele>
        <time>2022-10-06T21:10:27Z</time>
      </trkpt>
      <trkpt lat="9.9611578" lon="-85.0789547">
        <ele>30.9</ele>
        <time>2022-10-06T21:10:28Z</time>
      </trkpt>
      <trkpt lat="9.9612535" lon="-85.0787812">
        <ele>31.1</ele>
        <time>2022-10-06T21:10:29Z</time>
      </trkpt>
      <trkpt lat="9.9613489" lon="-85.0786095">
        <ele>31.0</ele>
        <time>2022-10-06T21:10:30Z</time>
      </trkpt>
      <trkpt lat="9.9614422" lon="-85.0784391">
        <ele>31.1</ele>
        <time>2022-10-06T21:10:31Z</time>
      </trkpt>
      <trkpt lat="9.9615336" lon="-85.0782736">
        <ele>31.1</ele>
        <time>2022-10-06T21:10:32Z</time>
      </trkpt>
      <trkpt lat="9.9616227" lon="-85.0781111">
        <ele>31.1</ele>
        <time>2022-10-06T21:10:33Z</time>
      </trkpt>
      <trkpt lat="9.9617111" lon="-85.0779523">
        <ele>31.2</ele>
        <time>2022-10-06T21:10:34Z</time>
      </trkpt>
      <trkpt lat="9.9617982" lon="-85.0777965">
        <ele>31.2</ele>
        <time>2022-10-06T21:10:35Z</time>
      </trkpt>
      <trkpt lat="9.9618842" lon="-85.0776452">
        <ele>31.2</ele>
        <time>2022-10-06T21:10:36Z</time>
      </trkpt>
      <trkpt lat="9.9619654" lon="-85.0774995">
        <ele>31.2</ele>
        <time>2022-10-06T21:10:37Z</time>
      </trkpt>
      <trkpt lat="9.9620397" lon="-85.0773609">
        <ele>31.2</ele>
        <time>2022-10-06T21:10:38Z</time>
      </trkpt>
      <trkpt lat="9.9621067" lon="-85.0772367">
        <ele>31.2</ele>
        <time>2022-10-06T21:10:39Z</time>
      </trkpt>
      <trkpt lat="9.9621699" lon="-85.0771156">
        <ele>31.4</ele>
        <time>2022-10-06T21:10:40Z</time>
      </trkpt>
      <trkpt lat="9.9622319" lon="-85.0769966">
        <ele>31.5</ele>
        <time>2022-10-06T21:10:41Z</time>
      </trkpt>
      <trkpt lat="9.9622941" lon="-85.0768743">
        <ele>31.4</ele>
        <time>2022-10-06T21:10:42Z</time>
      </trkpt>
      <trkpt lat="9.9623593" lon="-85.0767455">
        <ele>31.5</ele>
        <time>2022-10-06T21:10:43Z</time>
      </trkpt>
      <trkpt lat="9.9624257" lon="-85.0766105">
        <ele>31.6</ele>
        <time>2022-10-06T21:10:44Z</time>
      </trkpt>
      <trkpt lat="9.9624894" lon="-85.0764701">
        <ele>31.7</ele>
        <time>2022-10-06T21:10:45Z</time>
      </trkpt>
      <trkpt lat="9.9625530" lon="-85.0763256">
        <ele>31.9</ele>
        <time>2022-10-06T21:10:46Z</time>
      </trkpt>
      <trkpt lat="9.9626121" lon="-85.0761763">
        <ele>32.1</ele>
        <time>2022-10-06T21:10:47Z</time>
      </trkpt>
      <trkpt lat="9.9626707" lon="-85.0760182">
        <ele>32.2</ele>
        <time>2022-10-06T21:10:48Z</time>
      </trkpt>
      <trkpt lat="9.9627279" lon="-85.0758610">
        <ele>32.2</ele>
        <time>2022-10-06T21:10:49Z</time>
      </trkpt>
      <trkpt lat="9.9627880" lon="-85.0756996">
        <ele>32.3</ele>
        <time>2022-10-06T21:10:50Z</time>
      </trkpt>
      <trkpt lat="9.9628480" lon="-85.0755402">
        <ele>32.3</ele>
        <time>2022-10-06T21:10:51Z</time>
      </trkpt>
      <trkpt lat="9.9629111" lon="-85.0753774">
        <ele>32.3</ele>
        <time>2022-10-06T21:10:52Z</time>
      </trkpt>
      <trkpt lat="9.9629718" lon="-85.0752126">
        <ele>32.4</ele>
        <time>2022-10-06T21:10:53Z</time>
      </trkpt>
      <trkpt lat="9.9630329" lon="-85.0750492">
        <ele>32.5</ele>
        <time>2022-10-06T21:10:54Z</time>
      </trkpt>
      <trkpt lat="9.9630953" lon="-85.0748859">
        <ele>32.6</ele>
        <time>2022-10-06T21:10:55Z</time>
      </trkpt>
      <trkpt lat="9.9631557" lon="-85.0747245">
        <ele>32.7</ele>
        <time>2022-10-06T21:10:56Z</time>
      </trkpt>
      <trkpt lat="9.9632125" lon="-85.0745603">
        <ele>32.5</ele>
        <time>2022-10-06T21:10:57Z</time>
      </trkpt>
      <trkpt lat="9.9632701" lon="-85.0743958">
        <ele>32.3</ele>
        <time>2022-10-06T21:10:58Z</time>
      </trkpt>
      <trkpt lat="9.9633309" lon="-85.0742319">
        <ele>32.1</ele>
        <time>2022-10-06T21:10:59Z</time>
      </trkpt>
      <trkpt lat="9.9633923" lon="-85.0740658">
        <ele>31.8</ele>
        <time>2022-10-06T21:11:00Z</time>
      </trkpt>
      <trkpt lat="9.9634537" lon="-85.0738961">
        <ele>31.6</ele>
        <time>2022-10-06T21:11:01Z</time>
      </trkpt>
      <trkpt lat="9.9635152" lon="-85.0737250">
        <ele>31.3</ele>
        <time>2022-10-06T21:11:02Z</time>
      </trkpt>
      <trkpt lat="9.9635752" lon="-85.0735475">
        <ele>31.1</ele>
        <time>2022-10-06T21:11:03Z</time>
      </trkpt>
      <trkpt lat="9.9636282" lon="-85.0733707">
        <ele>31.0</ele>
        <time>2022-10-06T21:11:04Z</time>
      </trkpt>
      <trkpt lat="9.9636799" lon="-85.0731971">
        <ele>30.8</ele>
        <time>2022-10-06T21:11:05Z</time>
      </trkpt>
      <trkpt lat="9.9637268" lon="-85.0730294">
        <ele>30.9</ele>
        <time>2022-10-06T21:11:06Z</time>
      </trkpt>
      <trkpt lat="9.9637723" lon="-85.0728621">
        <ele>30.8</ele>
        <time>2022-10-06T21:11:07Z</time>
      </trkpt>
      <trkpt lat="9.9638154" lon="-85.0727026">
        <ele>30.6</ele>
        <time>2022-10-06T21:11:08Z</time>
      </trkpt>
      <trkpt lat="9.9638589" lon="-85.0725471">
        <ele>30.6</ele>
        <time>2022-10-06T21:11:09Z</time>
      </trkpt>
      <trkpt lat="9.9639004" lon="-85.0724015">
        <ele>30.4</ele>
        <time>2022-10-06T21:11:10Z</time>
      </trkpt>
      <trkpt lat="9.9639421" lon="-85.0722575">
        <ele>30.2</ele>
        <time>2022-10-06T21:11:11Z</time>
      </trkpt>
      <trkpt lat="9.9639826" lon="-85.0721140">
        <ele>30.2</ele>
        <time>2022-10-06T21:11:12Z</time>
      </trkpt>
      <trkpt lat="9.9640221" lon="-85.0719737">
        <ele>30.1</ele>
        <time>2022-10-06T21:11:13Z</time>
      </trkpt>
      <trkpt lat="9.9640618" lon="-85.0718348">
        <ele>30.1</ele>
        <time>2022-10-06T21:11:14Z</time>
      </trkpt>
      <trkpt lat="9.9641007" lon="-85.0716964">
        <ele>30.2</ele>
        <time>2022-10-06T21:11:15Z</time>
      </trkpt>
      <trkpt lat="9.9641389" lon="-85.0715571">
        <ele>30.4</ele>
        <time>2022-10-06T21:11:16Z</time>
      </trkpt>
      <trkpt lat="9.9641749" lon="-85.0714205">
        <ele>30.4</ele>
        <time>2022-10-06T21:11:17Z</time>
      </trkpt>
      <trkpt lat="9.9642089" lon="-85.0712882">
        <ele>30.2</ele>
        <time>2022-10-06T21:11:18Z</time>
      </trkpt>
      <trkpt lat="9.9642423" lon="-85.0711584">
        <ele>29.9</ele>
        <time>2022-10-06T21:11:19Z</time>
      </trkpt>
      <trkpt lat="9.9642780" lon="-85.0710311">
        <ele>30.0</ele>
        <time>2022-10-06T21:11:20Z</time>
      </trkpt>
      <trkpt lat="9.9643167" lon="-85.0708979">
        <ele>30.1</ele>
        <time>2022-10-06T21:11:21Z</time>
      </trkpt>
      <trkpt lat="9.9643562" lon="-85.0707590">
        <ele>30.0</ele>
        <time>2022-10-06T21:11:22Z</time>
      </trkpt>
      <trkpt lat="9.9643980" lon="-85.0706096">
        <ele>30.0</ele>
        <time>2022-10-06T21:11:23Z</time>
      </trkpt>
      <trkpt lat="9.9644396" lon="-85.0704578">
        <ele>30.1</ele>
        <time>2022-10-06T21:11:24Z</time>
      </trkpt>
      <trkpt lat="9.9644823" lon="-85.0703023">
        <ele>30.2</ele>
        <time>2022-10-06T21:11:25Z</time>
      </trkpt>
      <trkpt lat="9.9645225" lon="-85.0701454">
        <ele>30.5</ele>
        <time>2022-10-06T21:11:26Z</time>
      </trkpt>
      <trkpt lat="9.9645600" lon="-85.0699841">
        <ele>30.6</ele>
        <time>2022-10-06T21:11:27Z</time>
      </trkpt>
      <trkpt lat="9.9645941" lon="-85.0698218">
        <ele>30.7</ele>
        <time>2022-10-06T21:11:28Z</time>
      </trkpt>
      <trkpt lat="9.9646261" lon="-85.0696563">
        <ele>30.7</ele>
        <time>2022-10-06T21:11:29Z</time>
      </trkpt>
      <trkpt lat="9.9646557" lon="-85.0694893">
        <ele>30.6</ele>
        <time>2022-10-06T21:11:30Z</time>
      </trkpt>
      <trkpt lat="9.9646849" lon="-85.0693206">
        <ele>30.7</ele>
        <time>2022-10-06T21:11:31Z</time>
      </trkpt>
      <trkpt lat="9.9647148" lon="-85.0691509">
        <ele>30.7</ele>
        <time>2022-10-06T21:11:32Z</time>
      </trkpt>
      <trkpt lat="9.9647438" lon="-85.0689780">
        <ele>30.6</ele>
        <time>2022-10-06T21:11:33Z</time>
      </trkpt>
      <trkpt lat="9.9647734" lon="-85.0688048">
        <ele>30.5</ele>
        <time>2022-10-06T21:11:34Z</time>
      </trkpt>
      <trkpt lat="9.9648042" lon="-85.0686278">
        <ele>30.5</ele>
        <time>2022-10-06T21:11:35Z</time>
      </trkpt>
      <trkpt lat="9.9648359" lon="-85.0684493">
        <ele>30.5</ele>
        <time>2022-10-06T21:11:36Z</time>
      </trkpt>
      <trkpt lat="9.9648654" lon="-85.0682693">
        <ele>30.6</ele>
        <time>2022-10-06T21:11:37Z</time>
      </trkpt>
      <trkpt lat="9.9648973" lon="-85.0680878">
        <ele>30.5</ele>
        <time>2022-10-06T21:11:38Z</time>
      </trkpt>
      <trkpt lat="9.9649298" lon="-85.0679051">
        <ele>30.4</ele>
        <time>2022-10-06T21:11:39Z</time>
      </trkpt>
      <trkpt lat="9.9649636" lon="-85.0677207">
        <ele>30.5</ele>
        <time>2022-10-06T21:11:40Z</time>
      </trkpt>
      <trkpt lat="9.9649965" lon="-85.0675362">
        <ele>30.6</ele>
        <time>2022-10-06T21:11:41Z</time>
      </trkpt>
      <trkpt lat="9.9650289" lon="-85.0673510">
        <ele>30.9</ele>
        <time>2022-10-06T21:11:42Z</time>
      </trkpt>
      <trkpt lat="9.9650621" lon="-85.0671638">
        <ele>31.3</ele>
        <time>2022-10-06T21:11:43Z</time>
      </trkpt>
      <trkpt lat="9.9650939" lon="-85.0669764">
        <ele>31.4</ele>
        <time>2022-10-06T21:11:44Z</time>
      </trkpt>
      <trkpt lat="9.9651271" lon="-85.0667858">
        <ele>31.7</ele>
        <time>2022-10-06T21:11:46Z</time>
      </trkpt>
      <trkpt lat="9.9651608" lon="-85.0665971">
        <ele>31.9</ele>
        <time>2022-10-06T21:11:46Z</time>
      </trkpt>
      <trkpt lat="9.9651933" lon="-85.0664106">
        <ele>32.1</ele>
        <time>2022-10-06T21:11:47Z</time>
      </trkpt>
      <trkpt lat="9.9652255" lon="-85.0662235">
        <ele>32.1</ele>
        <time>2022-10-06T21:11:48Z</time>
      </trkpt>
      <trkpt lat="9.9652589" lon="-85.0660320">
        <ele>32.4</ele>
        <time>2022-10-06T21:11:49Z</time>
      </trkpt>
      <trkpt lat="9.9652910" lon="-85.0658410">
        <ele>32.6</ele>
        <time>2022-10-06T21:11:50Z</time>
      </trkpt>
      <trkpt lat="9.9653232" lon="-85.0656487">
        <ele>32.7</ele>
        <time>2022-10-06T21:11:51Z</time>
      </trkpt>
      <trkpt lat="9.9653559" lon="-85.0654576">
        <ele>32.7</ele>
        <time>2022-10-06T21:11:52Z</time>
      </trkpt>
      <trkpt lat="9.9653879" lon="-85.0652692">
        <ele>32.8</ele>
        <time>2022-10-06T21:11:53Z</time>
      </trkpt>
      <trkpt lat="9.9654196" lon="-85.0650782">
        <ele>32.7</ele>
        <time>2022-10-06T21:11:54Z</time>
      </trkpt>
      <trkpt lat="9.9654522" lon="-85.0648859">
        <ele>33.0</ele>
        <time>2022-10-06T21:11:55Z</time>
      </trkpt>
      <trkpt lat="9.9654827" lon="-85.0646936">
        <ele>33.0</ele>
        <time>2022-10-06T21:11:56Z</time>
      </trkpt>
      <trkpt lat="9.9655131" lon="-85.0645033">
        <ele>33.0</ele>
        <time>2022-10-06T21:11:57Z</time>
      </trkpt>
      <trkpt lat="9.9655386" lon="-85.0643120">
        <ele>32.9</ele>
        <time>2022-10-06T21:11:58Z</time>
      </trkpt>
      <trkpt lat="9.9655580" lon="-85.0641190">
        <ele>32.9</ele>
        <time>2022-10-06T21:11:59Z</time>
      </trkpt>
      <trkpt lat="9.9655729" lon="-85.0639276">
        <ele>32.9</ele>
        <time>2022-10-06T21:12:00Z</time>
      </trkpt>
      <trkpt lat="9.9655822" lon="-85.0637311">
        <ele>32.9</ele>
        <time>2022-10-06T21:12:01Z</time>
      </trkpt>
      <trkpt lat="9.9655802" lon="-85.0635373">
        <ele>32.7</ele>
        <time>2022-10-06T21:12:02Z</time>
      </trkpt>
      <trkpt lat="9.9655725" lon="-85.0633419">
        <ele>32.4</ele>
        <time>2022-10-06T21:12:03Z</time>
      </trkpt>
      <trkpt lat="9.9655577" lon="-85.0631475">
        <ele>32.2</ele>
        <time>2022-10-06T21:12:04Z</time>
      </trkpt>
      <trkpt lat="9.9655351" lon="-85.0629557">
        <ele>32.1</ele>
        <time>2022-10-06T21:12:05Z</time>
      </trkpt>
      <trkpt lat="9.9655083" lon="-85.0627638">
        <ele>32.2</ele>
        <time>2022-10-06T21:12:06Z</time>
      </trkpt>
      <trkpt lat="9.9654710" lon="-85.0625712">
        <ele>32.2</ele>
        <time>2022-10-06T21:12:07Z</time>
      </trkpt>
      <trkpt lat="9.9654292" lon="-85.0623826">
        <ele>32.4</ele>
        <time>2022-10-06T21:12:08Z</time>
      </trkpt>
      <trkpt lat="9.9653823" lon="-85.0621932">
        <ele>32.2</ele>
        <time>2022-10-06T21:12:09Z</time>
      </trkpt>
      <trkpt lat="9.9653274" lon="-85.0620101">
        <ele>32.2</ele>
        <time>2022-10-06T21:12:10Z</time>
      </trkpt>
      <trkpt lat="9.9652653" lon="-85.0618284">
        <ele>32.4</ele>
        <time>2022-10-06T21:12:11Z</time>
      </trkpt>
      <trkpt lat="9.9651957" lon="-85.0616483">
        <ele>32.4</ele>
        <time>2022-10-06T21:12:12Z</time>
      </trkpt>
      <trkpt lat="9.9651200" lon="-85.0614705">
        <ele>32.3</ele>
        <time>2022-10-06T21:12:13Z</time>
      </trkpt>
      <trkpt lat="9.9650402" lon="-85.0612938">
        <ele>32.4</ele>
        <time>2022-10-06T21:12:14Z</time>
      </trkpt>
      <trkpt lat="9.9649578" lon="-85.0611218">
        <ele>32.3</ele>
        <time>2022-10-06T21:12:15Z</time>
      </trkpt>
      <trkpt lat="9.9648782" lon="-85.0609489">
        <ele>32.5</ele>
        <time>2022-10-06T21:12:16Z</time>
      </trkpt>
      <trkpt lat="9.9647999" lon="-85.0607731">
        <ele>32.9</ele>
        <time>2022-10-06T21:12:17Z</time>
      </trkpt>
      <trkpt lat="9.9647218" lon="-85.0605996">
        <ele>33.2</ele>
        <time>2022-10-06T21:12:18Z</time>
      </trkpt>
      <trkpt lat="9.9646427" lon="-85.0604256">
        <ele>33.5</ele>
        <time>2022-10-06T21:12:19Z</time>
      </trkpt>
      <trkpt lat="9.9645655" lon="-85.0602556">
        <ele>34.0</ele>
        <time>2022-10-06T21:12:20Z</time>
      </trkpt>
      <trkpt lat="9.9644899" lon="-85.0600871">
        <ele>34.2</ele>
        <time>2022-10-06T21:12:21Z</time>
      </trkpt>
      <trkpt lat="9.9644178" lon="-85.0599199">
        <ele>34.3</ele>
        <time>2022-10-06T21:12:22Z</time>
      </trkpt>
      <trkpt lat="9.9643409" lon="-85.0597491">
        <ele>34.2</ele>
        <time>2022-10-06T21:12:23Z</time>
      </trkpt>
      <trkpt lat="9.9642629" lon="-85.0595789">
        <ele>34.2</ele>
        <time>2022-10-06T21:12:24Z</time>
      </trkpt>
      <trkpt lat="9.9641843" lon="-85.0594067">
        <ele>34.2</ele>
        <time>2022-10-06T21:12:25Z</time>
      </trkpt>
      <trkpt lat="9.9641057" lon="-85.0592336">
        <ele>34.2</ele>
        <time>2022-10-06T21:12:26Z</time>
      </trkpt>
      <trkpt lat="9.9640282" lon="-85.0590615">
        <ele>34.3</ele>
        <time>2022-10-06T21:12:27Z</time>
      </trkpt>
      <trkpt lat="9.9639512" lon="-85.0588848">
        <ele>34.2</ele>
        <time>2022-10-06T21:12:28Z</time>
      </trkpt>
      <trkpt lat="9.9638729" lon="-85.0587075">
        <ele>34.3</ele>
        <time>2022-10-06T21:12:29Z</time>
      </trkpt>
      <trkpt lat="9.9637952" lon="-85.0585270">
        <ele>34.5</ele>
        <time>2022-10-06T21:12:30Z</time>
      </trkpt>
      <trkpt lat="9.9637174" lon="-85.0583467">
        <ele>34.5</ele>
        <time>2022-10-06T21:12:31Z</time>
      </trkpt>
      <trkpt lat="9.9636377" lon="-85.0581644">
        <ele>34.7</ele>
        <time>2022-10-06T21:12:32Z</time>
      </trkpt>
      <trkpt lat="9.9635579" lon="-85.0579828">
        <ele>34.8</ele>
        <time>2022-10-06T21:12:33Z</time>
      </trkpt>
      <trkpt lat="9.9634787" lon="-85.0578034">
        <ele>34.9</ele>
        <time>2022-10-06T21:12:34Z</time>
      </trkpt>
      <trkpt lat="9.9633994" lon="-85.0576254">
        <ele>35.1</ele>
        <time>2022-10-06T21:12:35Z</time>
      </trkpt>
      <trkpt lat="9.9633184" lon="-85.0574438">
        <ele>35.4</ele>
        <time>2022-10-06T21:12:36Z</time>
      </trkpt>
      <trkpt lat="9.9632391" lon="-85.0572627">
        <ele>35.4</ele>
        <time>2022-10-06T21:12:37Z</time>
      </trkpt>
      <trkpt lat="9.9631576" lon="-85.0570819">
        <ele>35.7</ele>
        <time>2022-10-06T21:12:38Z</time>
      </trkpt>
      <trkpt lat="9.9630769" lon="-85.0569026">
        <ele>35.9</ele>
        <time>2022-10-06T21:12:39Z</time>
      </trkpt>
      <trkpt lat="9.9629967" lon="-85.0567212">
        <ele>36.1</ele>
        <time>2022-10-06T21:12:40Z</time>
      </trkpt>
      <trkpt lat="9.9629148" lon="-85.0565372">
        <ele>36.4</ele>
        <time>2022-10-06T21:12:41Z</time>
      </trkpt>
      <trkpt lat="9.9628324" lon="-85.0563529">
        <ele>36.7</ele>
        <time>2022-10-06T21:12:42Z</time>
      </trkpt>
      <trkpt lat="9.9627498" lon="-85.0561687">
        <ele>37.0</ele>
        <time>2022-10-06T21:12:43Z</time>
      </trkpt>
      <trkpt lat="9.9626669" lon="-85.0559855">
        <ele>37.2</ele>
        <time>2022-10-06T21:12:44Z</time>
      </trkpt>
      <trkpt lat="9.9625855" lon="-85.0557990">
        <ele>37.6</ele>
        <time>2022-10-06T21:12:45Z</time>
      </trkpt>
      <trkpt lat="9.9625040" lon="-85.0556125">
        <ele>38.0</ele>
        <time>2022-10-06T21:12:46Z</time>
      </trkpt>
      <trkpt lat="9.9624220" lon="-85.0554270">
        <ele>38.4</ele>
        <time>2022-10-06T21:12:47Z</time>
      </trkpt>
      <trkpt lat="9.9623379" lon="-85.0552403">
        <ele>38.5</ele>
        <time>2022-10-06T21:12:48Z</time>
      </trkpt>
      <trkpt lat="9.9622555" lon="-85.0550558">
        <ele>38.8</ele>
        <time>2022-10-06T21:12:49Z</time>
      </trkpt>
      <trkpt lat="9.9621723" lon="-85.0548720">
        <ele>39.2</ele>
        <time>2022-10-06T21:12:50Z</time>
      </trkpt>
      <trkpt lat="9.9620880" lon="-85.0546881">
        <ele>39.2</ele>
        <time>2022-10-06T21:12:51Z</time>
      </trkpt>
      <trkpt lat="9.9620050" lon="-85.0545052">
        <ele>39.3</ele>
        <time>2022-10-06T21:12:52Z</time>
      </trkpt>
      <trkpt lat="9.9619225" lon="-85.0543224">
        <ele>39.4</ele>
        <time>2022-10-06T21:12:53Z</time>
      </trkpt>
      <trkpt lat="9.9618426" lon="-85.0541417">
        <ele>39.5</ele>
        <time>2022-10-06T21:12:54Z</time>
      </trkpt>
      <trkpt lat="9.9617623" lon="-85.0539590">
        <ele>39.6</ele>
        <time>2022-10-06T21:12:55Z</time>
      </trkpt>
      <trkpt lat="9.9616807" lon="-85.0537733">
        <ele>39.8</ele>
        <time>2022-10-06T21:12:56Z</time>
      </trkpt>
      <trkpt lat="9.9615995" lon="-85.0535909">
        <ele>39.7</ele>
        <time>2022-10-06T21:12:57Z</time>
      </trkpt>
      <trkpt lat="9.9615183" lon="-85.0534083">
        <ele>39.8</ele>
        <time>2022-10-06T21:12:58Z</time>
      </trkpt>
      <trkpt lat="9.9614368" lon="-85.0532283">
        <ele>39.9</ele>
        <time>2022-10-06T21:12:59Z</time>
      </trkpt>
      <trkpt lat="9.9613591" lon="-85.0530476">
        <ele>40.0</ele>
        <time>2022-10-06T21:13:00Z</time>
      </trkpt>
      <trkpt lat="9.9612795" lon="-85.0528658">
        <ele>39.9</ele>
        <time>2022-10-06T21:13:01Z</time>
      </trkpt>
      <trkpt lat="9.9611987" lon="-85.0526850">
        <ele>39.9</ele>
        <time>2022-10-06T21:13:02Z</time>
      </trkpt>
      <trkpt lat="9.9611176" lon="-85.0525050">
        <ele>39.8</ele>
        <time>2022-10-06T21:13:03Z</time>
      </trkpt>
      <trkpt lat="9.9610377" lon="-85.0523240">
        <ele>39.8</ele>
        <time>2022-10-06T21:13:04Z</time>
      </trkpt>
      <trkpt lat="9.9609569" lon="-85.0521423">
        <ele>39.7</ele>
        <time>2022-10-06T21:13:05Z</time>
      </trkpt>
      <trkpt lat="9.9608760" lon="-85.0519595">
        <ele>39.9</ele>
        <time>2022-10-06T21:13:06Z</time>
      </trkpt>
      <trkpt lat="9.9607920" lon="-85.0517769">
        <ele>39.7</ele>
        <time>2022-10-06T21:13:07Z</time>
      </trkpt>
      <trkpt lat="9.9607086" lon="-85.0515925">
        <ele>39.7</ele>
        <time>2022-10-06T21:13:08Z</time>
      </trkpt>
      <trkpt lat="9.9606245" lon="-85.0514052">
        <ele>39.7</ele>
        <time>2022-10-06T21:13:09Z</time>
      </trkpt>
      <trkpt lat="9.9605430" lon="-85.0512182">
        <ele>39.8</ele>
        <time>2022-10-06T21:13:10Z</time>
      </trkpt>
      <trkpt lat="9.9604601" lon="-85.0510307">
        <ele>40.1</ele>
        <time>2022-10-06T21:13:11Z</time>
      </trkpt>
      <trkpt lat="9.9603766" lon="-85.0508422">
        <ele>40.2</ele>
        <time>2022-10-06T21:13:12Z</time>
      </trkpt>
      <trkpt lat="9.9602939" lon="-85.0506554">
        <ele>40.3</ele>
        <time>2022-10-06T21:13:13Z</time>
      </trkpt>
      <trkpt lat="9.9602113" lon="-85.0504695">
        <ele>40.6</ele>
        <time>2022-10-06T21:13:14Z</time>
      </trkpt>
      <trkpt lat="9.9601285" lon="-85.0502817">
        <ele>41.1</ele>
        <time>2022-10-06T21:13:15Z</time>
      </trkpt>
      <trkpt lat="9.9600459" lon="-85.0500953">
        <ele>41.3</ele>
        <time>2022-10-06T21:13:16Z</time>
      </trkpt>
      <trkpt lat="9.9599644" lon="-85.0499084">
        <ele>42.1</ele>
        <time>2022-10-06T21:13:17Z</time>
      </trkpt>
      <trkpt lat="9.9598811" lon="-85.0497235">
        <ele>42.5</ele>
        <time>2022-10-06T21:13:18Z</time>
      </trkpt>
      <trkpt lat="9.9597983" lon="-85.0495374">
        <ele>43.1</ele>
        <time>2022-10-06T21:13:19Z</time>
      </trkpt>
      <trkpt lat="9.9597138" lon="-85.0493506">
        <ele>43.3</ele>
        <time>2022-10-06T21:13:20Z</time>
      </trkpt>
      <trkpt lat="9.9596307" lon="-85.0491644">
        <ele>43.6</ele>
        <time>2022-10-06T21:13:21Z</time>
      </trkpt>
      <trkpt lat="9.9595482" lon="-85.0489809">
        <ele>44.0</ele>
        <time>2022-10-06T21:13:22Z</time>
      </trkpt>
      <trkpt lat="9.9594662" lon="-85.0487958">
        <ele>44.5</ele>
        <time>2022-10-06T21:13:23Z</time>
      </trkpt>
      <trkpt lat="9.9593850" lon="-85.0486127">
        <ele>44.9</ele>
        <time>2022-10-06T21:13:24Z</time>
      </trkpt>
      <trkpt lat="9.9593036" lon="-85.0484292">
        <ele>45.2</ele>
        <time>2022-10-06T21:13:25Z</time>
      </trkpt>
      <trkpt lat="9.9592220" lon="-85.0482451">
        <ele>45.3</ele>
        <time>2022-10-06T21:13:26Z</time>
      </trkpt>
      <trkpt lat="9.9591392" lon="-85.0480595">
        <ele>45.4</ele>
        <time>2022-10-06T21:13:27Z</time>
      </trkpt>
      <trkpt lat="9.9590559" lon="-85.0478711">
        <ele>45.5</ele>
        <time>2022-10-06T21:13:28Z</time>
      </trkpt>
      <trkpt lat="9.9589733" lon="-85.0476836">
        <ele>45.6</ele>
        <time>2022-10-06T21:13:29Z</time>
      </trkpt>
      <trkpt lat="9.9588868" lon="-85.0474976">
        <ele>45.5</ele>
        <time>2022-10-06T21:13:30Z</time>
      </trkpt>
      <trkpt lat="9.9587957" lon="-85.0473109">
        <ele>45.5</ele>
        <time>2022-10-06T21:13:31Z</time>
      </trkpt>
      <trkpt lat="9.9586974" lon="-85.0471327">
        <ele>45.4</ele>
        <time>2022-10-06T21:13:32Z</time>
      </trkpt>
      <trkpt lat="9.9585913" lon="-85.0469571">
        <ele>45.2</ele>
        <time>2022-10-06T21:13:33Z</time>
      </trkpt>
      <trkpt lat="9.9584771" lon="-85.0467898">
        <ele>45.3</ele>
        <time>2022-10-06T21:13:34Z</time>
      </trkpt>
      <trkpt lat="9.9583534" lon="-85.0466320">
        <ele>45.5</ele>
        <time>2022-10-06T21:13:35Z</time>
      </trkpt>
      <trkpt lat="9.9582163" lon="-85.0464844">
        <ele>45.5</ele>
        <time>2022-10-06T21:13:36Z</time>
      </trkpt>
      <trkpt lat="9.9580679" lon="-85.0463458">
        <ele>45.6</ele>
        <time>2022-10-06T21:13:37Z</time>
      </trkpt>
      <trkpt lat="9.9579086" lon="-85.0462196">
        <ele>45.7</ele>
        <time>2022-10-06T21:13:38Z</time>
      </trkpt>
      <trkpt lat="9.9577422" lon="-85.0461089">
        <ele>45.7</ele>
        <time>2022-10-06T21:13:39Z</time>
      </trkpt>
      <trkpt lat="9.9575694" lon="-85.0460069">
        <ele>45.8</ele>
        <time>2022-10-06T21:13:40Z</time>
      </trkpt>
      <trkpt lat="9.9573978" lon="-85.0459076">
        <ele>46.2</ele>
        <time>2022-10-06T21:13:41Z</time>
      </trkpt>
      <trkpt lat="9.9572290" lon="-85.0458082">
        <ele>46.2</ele>
        <time>2022-10-06T21:13:42Z</time>
      </trkpt>
      <trkpt lat="9.9570603" lon="-85.0457095">
        <ele>46.1</ele>
        <time>2022-10-06T21:13:43Z</time>
      </trkpt>
      <trkpt lat="9.9568924" lon="-85.0456121">
        <ele>46.0</ele>
        <time>2022-10-06T21:13:44Z</time>
      </trkpt>
      <trkpt lat="9.9567235" lon="-85.0455127">
        <ele>45.9</ele>
        <time>2022-10-06T21:13:45Z</time>
      </trkpt>
      <trkpt lat="9.9565532" lon="-85.0454138">
        <ele>45.6</ele>
        <time>2022-10-06T21:13:46Z</time>
      </trkpt>
      <trkpt lat="9.9563848" lon="-85.0453128">
        <ele>45.4</ele>
        <time>2022-10-06T21:13:47Z</time>
      </trkpt>
      <trkpt lat="9.9562174" lon="-85.0452122">
        <ele>45.1</ele>
        <time>2022-10-06T21:13:48Z</time>
      </trkpt>
      <trkpt lat="9.9560466" lon="-85.0451093">
        <ele>44.9</ele>
        <time>2022-10-06T21:13:49Z</time>
      </trkpt>
      <trkpt lat="9.9558759" lon="-85.0450076">
        <ele>45.0</ele>
        <time>2022-10-06T21:13:50Z</time>
      </trkpt>
      <trkpt lat="9.9557044" lon="-85.0449065">
        <ele>44.8</ele>
        <time>2022-10-06T21:13:51Z</time>
      </trkpt>
      <trkpt lat="9.9555321" lon="-85.0448037">
        <ele>44.6</ele>
        <time>2022-10-06T21:13:52Z</time>
      </trkpt>
      <trkpt lat="9.9553587" lon="-85.0447011">
        <ele>44.5</ele>
        <time>2022-10-06T21:13:53Z</time>
      </trkpt>
      <trkpt lat="9.9551877" lon="-85.0445994">
        <ele>44.5</ele>
        <time>2022-10-06T21:13:54Z</time>
      </trkpt>
      <trkpt lat="9.9550178" lon="-85.0444988">
        <ele>44.4</ele>
        <time>2022-10-06T21:13:55Z</time>
      </trkpt>
      <trkpt lat="9.9548498" lon="-85.0443999">
        <ele>44.5</ele>
        <time>2022-10-06T21:13:56Z</time>
      </trkpt>
      <trkpt lat="9.9546835" lon="-85.0443017">
        <ele>44.4</ele>
        <time>2022-10-06T21:13:57Z</time>
      </trkpt>
      <trkpt lat="9.9545179" lon="-85.0442031">
        <ele>44.2</ele>
        <time>2022-10-06T21:13:58Z</time>
      </trkpt>
      <trkpt lat="9.9543511" lon="-85.0441033">
        <ele>44.1</ele>
        <time>2022-10-06T21:13:59Z</time>
      </trkpt>
      <trkpt lat="9.9541871" lon="-85.0440052">
        <ele>44.0</ele>
        <time>2022-10-06T21:14:00Z</time>
      </trkpt>
      <trkpt lat="9.9540250" lon="-85.0439084">
        <ele>43.9</ele>
        <time>2022-10-06T21:14:01Z</time>
      </trkpt>
      <trkpt lat="9.9538600" lon="-85.0438112">
        <ele>43.7</ele>
        <time>2022-10-06T21:14:02Z</time>
      </trkpt>
      <trkpt lat="9.9536940" lon="-85.0437152">
        <ele>43.4</ele>
        <time>2022-10-06T21:14:03Z</time>
      </trkpt>
      <trkpt lat="9.9535292" lon="-85.0436165">
        <ele>43.3</ele>
        <time>2022-10-06T21:14:04Z</time>
      </trkpt>
      <trkpt lat="9.9533597" lon="-85.0435153">
        <ele>43.2</ele>
        <time>2022-10-06T21:14:05Z</time>
      </trkpt>
      <trkpt lat="9.9531913" lon="-85.0434165">
        <ele>43.2</ele>
        <time>2022-10-06T21:14:06Z</time>
      </trkpt>
      <trkpt lat="9.9530212" lon="-85.0433152">
        <ele>42.8</ele>
        <time>2022-10-06T21:14:07Z</time>
      </trkpt>
      <trkpt lat="9.9528480" lon="-85.0432137">
        <ele>42.6</ele>
        <time>2022-10-06T21:14:08Z</time>
      </trkpt>
      <trkpt lat="9.9526752" lon="-85.0431137">
        <ele>42.2</ele>
        <time>2022-10-06T21:14:09Z</time>
      </trkpt>
      <trkpt lat="9.9525062" lon="-85.0430140">
        <ele>41.9</ele>
        <time>2022-10-06T21:14:10Z</time>
      </trkpt>
      <trkpt lat="9.9523360" lon="-85.0429126">
        <ele>41.7</ele>
        <time>2022-10-06T21:14:11Z</time>
      </trkpt>
      <trkpt lat="9.9521660" lon="-85.0428110">
        <ele>41.6</ele>
        <time>2022-10-06T21:14:12Z</time>
      </trkpt>
      <trkpt lat="9.9519997" lon="-85.0427100">
        <ele>41.6</ele>
        <time>2022-10-06T21:14:13Z</time>
      </trkpt>
      <trkpt lat="9.9518334" lon="-85.0426117">
        <ele>41.6</ele>
        <time>2022-10-06T21:14:14Z</time>
      </trkpt>
      <trkpt lat="9.9516686" lon="-85.0425131">
        <ele>41.6</ele>
        <time>2022-10-06T21:14:15Z</time>
      </trkpt>
      <trkpt lat="9.9515031" lon="-85.0424155">
        <ele>41.6</ele>
        <time>2022-10-06T21:14:16Z</time>
      </trkpt>
      <trkpt lat="9.9513352" lon="-85.0423163">
        <ele>41.6</ele>
        <time>2022-10-06T21:14:17Z</time>
      </trkpt>
      <trkpt lat="9.9511708" lon="-85.0422174">
        <ele>41.7</ele>
        <time>2022-10-06T21:14:18Z</time>
      </trkpt>
      <trkpt lat="9.9510064" lon="-85.0421194">
        <ele>41.9</ele>
        <time>2022-10-06T21:14:19Z</time>
      </trkpt>
      <trkpt lat="9.9508415" lon="-85.0420199">
        <ele>41.8</ele>
        <time>2022-10-06T21:14:20Z</time>
      </trkpt>
      <trkpt lat="9.9506758" lon="-85.0419213">
        <ele>41.9</ele>
        <time>2022-10-06T21:14:21Z</time>
      </trkpt>
      <trkpt lat="9.9505090" lon="-85.0418216">
        <ele>42.0</ele>
        <time>2022-10-06T21:14:22Z</time>
      </trkpt>
      <trkpt lat="9.9503445" lon="-85.0417249">
        <ele>42.1</ele>
        <time>2022-10-06T21:14:23Z</time>
      </trkpt>
      <trkpt lat="9.9501791" lon="-85.0416270">
        <ele>42.1</ele>
        <time>2022-10-06T21:14:24Z</time>
      </trkpt>
      <trkpt lat="9.9500111" lon="-85.0415276">
        <ele>42.3</ele>
        <time>2022-10-06T21:14:25Z</time>
      </trkpt>
      <trkpt lat="9.9498464" lon="-85.0414289">
        <ele>42.4</ele>
        <time>2022-10-06T21:14:26Z</time>
      </trkpt>
      <trkpt lat="9.9496804" lon="-85.0413277">
        <ele>42.5</ele>
        <time>2022-10-06T21:14:27Z</time>
      </trkpt>
      <trkpt lat="9.9495153" lon="-85.0412292">
        <ele>42.6</ele>
        <time>2022-10-06T21:14:28Z</time>
      </trkpt>
      <trkpt lat="9.9493511" lon="-85.0411323">
        <ele>42.8</ele>
        <time>2022-10-06T21:14:29Z</time>
      </trkpt>
      <trkpt lat="9.9491866" lon="-85.0410350">
        <ele>43.1</ele>
        <time>2022-10-06T21:14:30Z</time>
      </trkpt>
      <trkpt lat="9.9490227" lon="-85.0409404">
        <ele>43.3</ele>
        <time>2022-10-06T21:14:31Z</time>
      </trkpt>
      <trkpt lat="9.9488580" lon="-85.0408494">
        <ele>43.4</ele>
        <time>2022-10-06T21:14:32Z</time>
      </trkpt>
      <trkpt lat="9.9486891" lon="-85.0407633">
        <ele>43.4</ele>
        <time>2022-10-06T21:14:33Z</time>
      </trkpt>
      <trkpt lat="9.9485193" lon="-85.0406832">
        <ele>43.6</ele>
        <time>2022-10-06T21:14:34Z</time>
      </trkpt>
      <trkpt lat="9.9483493" lon="-85.0406096">
        <ele>43.8</ele>
        <time>2022-10-06T21:14:35Z</time>
      </trkpt>
      <trkpt lat="9.9481819" lon="-85.0405413">
        <ele>44.0</ele>
        <time>2022-10-06T21:14:36Z</time>
      </trkpt>
      <trkpt lat="9.9480131" lon="-85.0404756">
        <ele>44.1</ele>
        <time>2022-10-06T21:14:37Z</time>
      </trkpt>
      <trkpt lat="9.9478430" lon="-85.0404097">
        <ele>44.2</ele>
        <time>2022-10-06T21:14:38Z</time>
      </trkpt>
      <trkpt lat="9.9476761" lon="-85.0403476">
        <ele>44.0</ele>
        <time>2022-10-06T21:14:39Z</time>
      </trkpt>
      <trkpt lat="9.9475127" lon="-85.0402864">
        <ele>44.1</ele>
        <time>2022-10-06T21:14:40Z</time>
      </trkpt>
      <trkpt lat="9.9473559" lon="-85.0402225">
        <ele>43.9</ele>
        <time>2022-10-06T21:14:41Z</time>
      </trkpt>
      <trkpt lat="9.9472073" lon="-85.0401504">
        <ele>43.5</ele>
        <time>2022-10-06T21:14:42Z</time>
      </trkpt>
      <trkpt lat="9.9470738" lon="-85.0400668">
        <ele>43.3</ele>
        <time>2022-10-06T21:14:43Z</time>
      </trkpt>
      <trkpt lat="9.9469542" lon="-85.0399732">
        <ele>42.9</ele>
        <time>2022-10-06T21:14:44Z</time>
      </trkpt>
      <trkpt lat="9.9468410" lon="-85.0398698">
        <ele>43.0</ele>
        <time>2022-10-06T21:14:45Z</time>
      </trkpt>
      <trkpt lat="9.9467432" lon="-85.0397533">
        <ele>42.4</ele>
        <time>2022-10-06T21:14:46Z</time>
      </trkpt>
      <trkpt lat="9.9466578" lon="-85.0396220">
        <ele>41.8</ele>
        <time>2022-10-06T21:14:47Z</time>
      </trkpt>
      <trkpt lat="9.9465812" lon="-85.0394799">
        <ele>41.3</ele>
        <time>2022-10-06T21:14:48Z</time>
      </trkpt>
      <trkpt lat="9.9465156" lon="-85.0393270">
        <ele>41.0</ele>
        <time>2022-10-06T21:14:49Z</time>
      </trkpt>
      <trkpt lat="9.9464703" lon="-85.0391663">
        <ele>40.5</ele>
        <time>2022-10-06T21:14:50Z</time>
      </trkpt>
      <trkpt lat="9.9464424" lon="-85.0389983">
        <ele>40.2</ele>
        <time>2022-10-06T21:14:51Z</time>
      </trkpt>
      <trkpt lat="9.9464249" lon="-85.0388275">
        <ele>40.1</ele>
        <time>2022-10-06T21:14:52Z</time>
      </trkpt>
      <trkpt lat="9.9464327" lon="-85.0386521">
        <ele>39.6</ele>
        <time>2022-10-06T21:14:53Z</time>
      </trkpt>
      <trkpt lat="9.9464560" lon="-85.0384780">
        <ele>39.0</ele>
        <time>2022-10-06T21:14:54Z</time>
      </trkpt>
      <trkpt lat="9.9464886" lon="-85.0383019">
        <ele>38.4</ele>
        <time>2022-10-06T21:14:55Z</time>
      </trkpt>
      <trkpt lat="9.9465261" lon="-85.0381274">
        <ele>38.4</ele>
        <time>2022-10-06T21:14:56Z</time>
      </trkpt>
      <trkpt lat="9.9465650" lon="-85.0379506">
        <ele>38.6</ele>
        <time>2022-10-06T21:14:57Z</time>
      </trkpt>
      <trkpt lat="9.9466007" lon="-85.0377728">
        <ele>38.3</ele>
        <time>2022-10-06T21:14:58Z</time>
      </trkpt>
      <trkpt lat="9.9466374" lon="-85.0375900">
        <ele>38.1</ele>
        <time>2022-10-06T21:14:59Z</time>
      </trkpt>
      <trkpt lat="9.9466765" lon="-85.0374120">
        <ele>38.0</ele>
        <time>2022-10-06T21:15:00Z</time>
      </trkpt>
      <trkpt lat="9.9467124" lon="-85.0372359">
        <ele>37.6</ele>
        <time>2022-10-06T21:15:01Z</time>
      </trkpt>
      <trkpt lat="9.9467498" lon="-85.0370603">
        <ele>37.3</ele>
        <time>2022-10-06T21:15:02Z</time>
      </trkpt>
      <trkpt lat="9.9467883" lon="-85.0368868">
        <ele>37.1</ele>
        <time>2022-10-06T21:15:03Z</time>
      </trkpt>
      <trkpt lat="9.9468262" lon="-85.0367142">
        <ele>37.0</ele>
        <time>2022-10-06T21:15:04Z</time>
      </trkpt>
      <trkpt lat="9.9468604" lon="-85.0365438">
        <ele>36.7</ele>
        <time>2022-10-06T21:15:05Z</time>
      </trkpt>
      <trkpt lat="9.9468938" lon="-85.0363686">
        <ele>36.4</ele>
        <time>2022-10-06T21:15:06Z</time>
      </trkpt>
      <trkpt lat="9.9469293" lon="-85.0361948">
        <ele>36.3</ele>
        <time>2022-10-06T21:15:07Z</time>
      </trkpt>
      <trkpt lat="9.9469633" lon="-85.0360203">
        <ele>36.1</ele>
        <time>2022-10-06T21:15:08Z</time>
      </trkpt>
      <trkpt lat="9.9469972" lon="-85.0358474">
        <ele>35.9</ele>
        <time>2022-10-06T21:15:09Z</time>
      </trkpt>
      <trkpt lat="9.9470322" lon="-85.0356717">
        <ele>35.7</ele>
        <time>2022-10-06T21:15:10Z</time>
      </trkpt>
      <trkpt lat="9.9470682" lon="-85.0355004">
        <ele>35.4</ele>
        <time>2022-10-06T21:15:11Z</time>
      </trkpt>
      <trkpt lat="9.9471099" lon="-85.0353359">
        <ele>35.1</ele>
        <time>2022-10-06T21:15:12Z</time>
      </trkpt>
      <trkpt lat="9.9471626" lon="-85.0351811">
        <ele>35.0</ele>
        <time>2022-10-06T21:15:13Z</time>
      </trkpt>
      <trkpt lat="9.9472249" lon="-85.0350379">
        <ele>34.8</ele>
        <time>2022-10-06T21:15:14Z</time>
      </trkpt>
      <trkpt lat="9.9473003" lon="-85.0349102">
        <ele>34.6</ele>
        <time>2022-10-06T21:15:15Z</time>
      </trkpt>
      <trkpt lat="9.9473873" lon="-85.0347949">
        <ele>34.7</ele>
        <time>2022-10-06T21:15:16Z</time>
      </trkpt>
      <trkpt lat="9.9474774" lon="-85.0346903">
        <ele>34.6</ele>
        <time>2022-10-06T21:15:17Z</time>
      </trkpt>
      <trkpt lat="9.9475630" lon="-85.0345941">
        <ele>34.5</ele>
        <time>2022-10-06T21:15:18Z</time>
      </trkpt>
      <trkpt lat="9.9476400" lon="-85.0345085">
        <ele>34.4</ele>
        <time>2022-10-06T21:15:19Z</time>
      </trkpt>
      <trkpt lat="9.9477102" lon="-85.0344290">
        <ele>34.2</ele>
        <time>2022-10-06T21:15:20Z</time>
      </trkpt>
      <trkpt lat="9.9477739" lon="-85.0343584">
        <ele>34.1</ele>
        <time>2022-10-06T21:15:21Z</time>
      </trkpt>
      <trkpt lat="9.9478334" lon="-85.0342894">
        <ele>33.9</ele>
        <time>2022-10-06T21:15:22Z</time>
      </trkpt>
      <trkpt lat="9.9478844" lon="-85.0342316">
        <ele>33.6</ele>
        <time>2022-10-06T21:15:23Z</time>
      </trkpt>
      <trkpt lat="9.9479296" lon="-85.0341801">
        <ele>33.3</ele>
        <time>2022-10-06T21:15:24Z</time>
      </trkpt>
      <trkpt lat="9.9479670" lon="-85.0341408">
        <ele>33.2</ele>
        <time>2022-10-06T21:15:25Z</time>
      </trkpt>
      <trkpt lat="9.9479985" lon="-85.0341055">
        <ele>33.0</ele>
        <time>2022-10-06T21:15:26Z</time>
      </trkpt>
      <trkpt lat="9.9480302" lon="-85.0340713">
        <ele>32.9</ele>
        <time>2022-10-06T21:15:27Z</time>
      </trkpt>
      <trkpt lat="9.9480633" lon="-85.0340358">
        <ele>32.8</ele>
        <time>2022-10-06T21:15:28Z</time>
      </trkpt>
      <trkpt lat="9.9480998" lon="-85.0339960">
        <ele>32.7</ele>
        <time>2022-10-06T21:15:29Z</time>
      </trkpt>
      <trkpt lat="9.9481383" lon="-85.0339517">
        <ele>32.6</ele>
        <time>2022-10-06T21:15:30Z</time>
      </trkpt>
      <trkpt lat="9.9481809" lon="-85.0339059">
        <ele>32.5</ele>
        <time>2022-10-06T21:15:31Z</time>
      </trkpt>
      <trkpt lat="9.9482247" lon="-85.0338585">
        <ele>32.4</ele>
        <time>2022-10-06T21:15:32Z</time>
      </trkpt>
      <trkpt lat="9.9482692" lon="-85.0338154">
        <ele>32.3</ele>
        <time>2022-10-06T21:15:33Z</time>
      </trkpt>
      <trkpt lat="9.9483105" lon="-85.0337747">
        <ele>32.2</ele>
        <time>2022-10-06T21:15:34Z</time>
      </trkpt>
      <trkpt lat="9.9483538" lon="-85.0337351">
        <ele>32.1</ele>
        <time>2022-10-06T21:15:35Z</time>
      </trkpt>
      <trkpt lat="9.9483958" lon="-85.0336935">
        <ele>32.0</ele>
        <time>2022-10-06T21:15:36Z</time>
      </trkpt>
      <trkpt lat="9.9484380" lon="-85.0336552">
        <ele>31.9</ele>
        <time>2022-10-06T21:15:37Z</time>
      </trkpt>
      <trkpt lat="9.9484810" lon="-85.0336168">
        <ele>31.8</ele>
        <time>2022-10-06T21:15:38Z</time>
      </trkpt>
      <trkpt lat="9.9485217" lon="-85.0335745">
        <ele>31.7</ele>
        <time>2022-10-06T21:15:39Z</time>
      </trkpt>
      <trkpt lat="9.9485612" lon="-85.0335282">
        <ele>31.6</ele>
        <time>2022-10-06T21:15:40Z</time>
      </trkpt>
      <trkpt lat="9.9486028" lon="-85.0334791">
        <ele>31.5</ele>
        <time>2022-10-06T21:15:41Z</time>
      </trkpt>
      <trkpt lat="9.9486497" lon="-85.0334267">
        <ele>31.4</ele>
        <time>2022-10-06T21:15:42Z</time>
      </trkpt>
      <trkpt lat="9.9486987" lon="-85.0333731">
        <ele>31.2</ele>
        <time>2022-10-06T21:15:43Z</time>
      </trkpt>
      <trkpt lat="9.9487460" lon="-85.0333231">
        <ele>31.0</ele>
        <time>2022-10-06T21:15:44Z</time>
      </trkpt>
      <trkpt lat="9.9487827" lon="-85.0332848">
        <ele>31.0</ele>
        <time>2022-10-06T21:15:45Z</time>
      </trkpt>
      <trkpt lat="9.9487977" lon="-85.0332691">
        <ele>31.0</ele>
        <time>2022-10-06T21:15:46Z</time>
      </trkpt>
      <trkpt lat="9.9488109" lon="-85.0332533">
        <ele>30.7</ele>
        <time>2022-10-06T21:15:47Z</time>
      </trkpt>
      <trkpt lat="9.9488242" lon="-85.0332359">
        <ele>30.5</ele>
        <time>2022-10-06T21:15:48Z</time>
      </trkpt>
      <trkpt lat="9.9488416" lon="-85.0332205">
        <ele>30.4</ele>
        <time>2022-10-06T21:15:49Z</time>
      </trkpt>
      <trkpt lat="9.9488654" lon="-85.0331992">
        <ele>30.4</ele>
        <time>2022-10-06T21:15:50Z</time>
      </trkpt>
      <trkpt lat="9.9488965" lon="-85.0331669">
        <ele>30.4</ele>
        <time>2022-10-06T21:15:51Z</time>
      </trkpt>
      <trkpt lat="9.9489316" lon="-85.0331291">
        <ele>30.3</ele>
        <time>2022-10-06T21:15:52Z</time>
      </trkpt>
      <trkpt lat="9.9489717" lon="-85.0330843">
        <ele>30.2</ele>
        <time>2022-10-06T21:15:53Z</time>
      </trkpt>
      <trkpt lat="9.9490174" lon="-85.0330323">
        <ele>30.1</ele>
        <time>2022-10-06T21:15:54Z</time>
      </trkpt>
      <trkpt lat="9.9490702" lon="-85.0329732">
        <ele>30.1</ele>
        <time>2022-10-06T21:15:55Z</time>
      </trkpt>
      <trkpt lat="9.9491231" lon="-85.0329095">
        <ele>29.9</ele>
        <time>2022-10-06T21:15:56Z</time>
      </trkpt>
      <trkpt lat="9.9491804" lon="-85.0328469">
        <ele>29.5</ele>
        <time>2022-10-06T21:15:57Z</time>
      </trkpt>
      <trkpt lat="9.9492387" lon="-85.0327798">
        <ele>29.4</ele>
        <time>2022-10-06T21:15:58Z</time>
      </trkpt>
      <trkpt lat="9.9493010" lon="-85.0327077">
        <ele>29.3</ele>
        <time>2022-10-06T21:15:59Z</time>
      </trkpt>
      <trkpt lat="9.9493640" lon="-85.0326368">
        <ele>29.2</ele>
        <time>2022-10-06T21:16:00Z</time>
      </trkpt>
      <trkpt lat="9.9494279" lon="-85.0325651">
        <ele>28.6</ele>
        <time>2022-10-06T21:16:01Z</time>
      </trkpt>
      <trkpt lat="9.9494886" lon="-85.0324973">
        <ele>28.5</ele>
        <time>2022-10-06T21:16:02Z</time>
      </trkpt>
      <trkpt lat="9.9495481" lon="-85.0324299">
        <ele>28.5</ele>
        <time>2022-10-06T21:16:03Z</time>
      </trkpt>
      <trkpt lat="9.9496082" lon="-85.0323630">
        <ele>28.5</ele>
        <time>2022-10-06T21:16:04Z</time>
      </trkpt>
      <trkpt lat="9.9496683" lon="-85.0322937">
        <ele>28.4</ele>
        <time>2022-10-06T21:16:05Z</time>
      </trkpt>
      <trkpt lat="9.9497253" lon="-85.0322276">
        <ele>28.5</ele>
        <time>2022-10-06T21:16:06Z</time>
      </trkpt>
      <trkpt lat="9.9497840" lon="-85.0321586">
        <ele>28.5</ele>
        <time>2022-10-06T21:16:07Z</time>
      </trkpt>
      <trkpt lat="9.9498413" lon="-85.0320932">
        <ele>28.4</ele>
        <time>2022-10-06T21:16:08Z</time>
      </trkpt>
      <trkpt lat="9.9498967" lon="-85.0320312">
        <ele>28.2</ele>
        <time>2022-10-06T21:16:09Z</time>
      </trkpt>
      <trkpt lat="9.9499462" lon="-85.0319734">
        <ele>28.3</ele>
        <time>2022-10-06T21:16:10Z</time>
      </trkpt>
      <trkpt lat="9.9499976" lon="-85.0319163">
        <ele>28.2</ele>
        <time>2022-10-06T21:16:11Z</time>
      </trkpt>
      <trkpt lat="9.9500444" lon="-85.0318654">
        <ele>28.1</ele>
        <time>2022-10-06T21:16:12Z</time>
      </trkpt>
      <trkpt lat="9.9500928" lon="-85.0318122">
        <ele>28.1</ele>
        <time>2022-10-06T21:16:13Z</time>
      </trkpt>
      <trkpt lat="9.9501417" lon="-85.0317605">
        <ele>28.1</ele>
        <time>2022-10-06T21:16:14Z</time>
      </trkpt>
      <trkpt lat="9.9501906" lon="-85.0317056">
        <ele>28.0</ele>
        <time>2022-10-06T21:16:15Z</time>
      </trkpt>
      <trkpt lat="9.9502438" lon="-85.0316450">
        <ele>28.0</ele>
        <time>2022-10-06T21:16:16Z</time>
      </trkpt>
      <trkpt lat="9.9502972" lon="-85.0315853">
        <ele>27.9</ele>
        <time>2022-10-06T21:16:17Z</time>
      </trkpt>
      <trkpt lat="9.9503502" lon="-85.0315258">
        <ele>28.0</ele>
        <time>2022-10-06T21:16:18Z</time>
      </trkpt>
      <trkpt lat="9.9503953" lon="-85.0314764">
        <ele>28.0</ele>
        <time>2022-10-06T21:16:19Z</time>
      </trkpt>
      <trkpt lat="9.9504286" lon="-85.0314396">
        <ele>28.1</ele>
        <time>2022-10-06T21:16:20Z</time>
      </trkpt>
      <trkpt lat="9.9504523" lon="-85.0314145">
        <ele>28.1</ele>
        <time>2022-10-06T21:16:21Z</time>
      </trkpt>
      <trkpt lat="9.9504663" lon="-85.0314026">
        <ele>28.1</ele>
        <time>2022-10-06T21:16:22Z</time>
      </trkpt>
      <trkpt lat="9.9504746" lon="-85.0313920">
        <ele>28.0</ele>
        <time>2022-10-06T21:16:23Z</time>
      </trkpt>
      <trkpt lat="9.9504862" lon="-85.0313772">
        <ele>28.1</ele>
        <time>2022-10-06T21:16:24Z</time>
      </trkpt>
      <trkpt lat="9.9505019" lon="-85.0313594">
        <ele>28.0</ele>
        <time>2022-10-06T21:16:25Z</time>
      </trkpt>
      <trkpt lat="9.9505237" lon="-85.0313358">
        <ele>28.0</ele>
        <time>2022-10-06T21:16:26Z</time>
      </trkpt>
      <trkpt lat="9.9505526" lon="-85.0313026">
        <ele>28.0</ele>
        <time>2022-10-06T21:16:27Z</time>
      </trkpt>
      <trkpt lat="9.9505868" lon="-85.0312632">
        <ele>28.0</ele>
        <time>2022-10-06T21:16:28Z</time>
      </trkpt>
      <trkpt lat="9.9506243" lon="-85.0312224">
        <ele>28.0</ele>
        <time>2022-10-06T21:16:29Z</time>
      </trkpt>
      <trkpt lat="9.9506669" lon="-85.0311733">
        <ele>27.9</ele>
        <time>2022-10-06T21:16:30Z</time>
      </trkpt>
      <trkpt lat="9.9507128" lon="-85.0311202">
        <ele>27.8</ele>
        <time>2022-10-06T21:16:31Z</time>
      </trkpt>
      <trkpt lat="9.9507662" lon="-85.0310612">
        <ele>27.7</ele>
        <time>2022-10-06T21:16:32Z</time>
      </trkpt>
      <trkpt lat="9.9508239" lon="-85.0309949">
        <ele>27.7</ele>
        <time>2022-10-06T21:16:33Z</time>
      </trkpt>
      <trkpt lat="9.9508843" lon="-85.0309255">
        <ele>27.6</ele>
        <time>2022-10-06T21:16:34Z</time>
      </trkpt>
      <trkpt lat="9.9509511" lon="-85.0308503">
        <ele>27.5</ele>
        <time>2022-10-06T21:16:35Z</time>
      </trkpt>
      <trkpt lat="9.9510198" lon="-85.0307711">
        <ele>27.5</ele>
        <time>2022-10-06T21:16:36Z</time>
      </trkpt>
      <trkpt lat="9.9510917" lon="-85.0306876">
        <ele>27.5</ele>
        <time>2022-10-06T21:16:37Z</time>
      </trkpt>
      <trkpt lat="9.9511642" lon="-85.0305995">
        <ele>27.6</ele>
        <time>2022-10-06T21:16:38Z</time>
      </trkpt>
      <trkpt lat="9.9512387" lon="-85.0305087">
        <ele>27.6</ele>
        <time>2022-10-06T21:16:39Z</time>
      </trkpt>
      <trkpt lat="9.9513173" lon="-85.0304162">
        <ele>27.7</ele>
        <time>2022-10-06T21:16:40Z</time>
      </trkpt>
      <trkpt lat="9.9513982" lon="-85.0303198">
        <ele>27.7</ele>
        <time>2022-10-06T21:16:41Z</time>
      </trkpt>
      <trkpt lat="9.9514832" lon="-85.0302203">
        <ele>27.7</ele>
        <time>2022-10-06T21:16:42Z</time>
      </trkpt>
      <trkpt lat="9.9515697" lon="-85.0301215">
        <ele>27.7</ele>
        <time>2022-10-06T21:16:43Z</time>
      </trkpt>
      <trkpt lat="9.9516596" lon="-85.0300200">
        <ele>27.7</ele>
        <time>2022-10-06T21:16:44Z</time>
      </trkpt>
      <trkpt lat="9.9517489" lon="-85.0299210">
        <ele>27.7</ele>
        <time>2022-10-06T21:16:45Z</time>
      </trkpt>
      <trkpt lat="9.9518352" lon="-85.0298222">
        <ele>27.7</ele>
        <time>2022-10-06T21:16:46Z</time>
      </trkpt>
      <trkpt lat="9.9519230" lon="-85.0297213">
        <ele>27.6</ele>
        <time>2022-10-06T21:16:47Z</time>
      </trkpt>
      <trkpt lat="9.9520066" lon="-85.0296255">
        <ele>27.6</ele>
        <time>2022-10-06T21:16:48Z</time>
      </trkpt>
      <trkpt lat="9.9520881" lon="-85.0295351">
        <ele>27.6</ele>
        <time>2022-10-06T21:16:49Z</time>
      </trkpt>
      <trkpt lat="9.9521668" lon="-85.0294484">
        <ele>27.5</ele>
        <time>2022-10-06T21:16:50Z</time>
      </trkpt>
      <trkpt lat="9.9522430" lon="-85.0293670">
        <ele>27.4</ele>
        <time>2022-10-06T21:16:51Z</time>
      </trkpt>
      <trkpt lat="9.9523175" lon="-85.0292912">
        <ele>27.4</ele>
        <time>2022-10-06T21:16:52Z</time>
      </trkpt>
      <trkpt lat="9.9523975" lon="-85.0292269">
        <ele>27.3</ele>
        <time>2022-10-06T21:16:53Z</time>
      </trkpt>
      <trkpt lat="9.9524890" lon="-85.0291752">
        <ele>27.3</ele>
        <time>2022-10-06T21:16:54Z</time>
      </trkpt>
      <trkpt lat="9.9525897" lon="-85.0291290">
        <ele>27.2</ele>
        <time>2022-10-06T21:16:55Z</time>
      </trkpt>
      <trkpt lat="9.9526985" lon="-85.0290982">
        <ele>27.1</ele>
        <time>2022-10-06T21:16:56Z</time>
      </trkpt>
      <trkpt lat="9.9528109" lon="-85.0290707">
        <ele>26.8</ele>
        <time>2022-10-06T21:16:57Z</time>
      </trkpt>
      <trkpt lat="9.9529280" lon="-85.0290429">
        <ele>26.7</ele>
        <time>2022-10-06T21:16:58Z</time>
      </trkpt>
      <trkpt lat="9.9530440" lon="-85.0290172">
        <ele>26.6</ele>
        <time>2022-10-06T21:16:59Z</time>
      </trkpt>
      <trkpt lat="9.9531495" lon="-85.0289941">
        <ele>26.6</ele>
        <time>2022-10-06T21:17:00Z</time>
      </trkpt>
      <trkpt lat="9.9532405" lon="-85.0289721">
        <ele>26.5</ele>
        <time>2022-10-06T21:17:01Z</time>
      </trkpt>
      <trkpt lat="9.9533104" lon="-85.0289430">
        <ele>26.6</ele>
        <time>2022-10-06T21:17:02Z</time>
      </trkpt>
      <trkpt lat="9.9533595" lon="-85.0288993">
        <ele>26.4</ele>
        <time>2022-10-06T21:17:03Z</time>
      </trkpt>
      <trkpt lat="9.9533957" lon="-85.0288415">
        <ele>26.5</ele>
        <time>2022-10-06T21:17:04Z</time>
      </trkpt>
      <trkpt lat="9.9534186" lon="-85.0287759">
        <ele>25.8</ele>
        <time>2022-10-06T21:17:05Z</time>
      </trkpt>
      <trkpt lat="9.9534375" lon="-85.0287060">
        <ele>26.0</ele>
        <time>2022-10-06T21:17:06Z</time>
      </trkpt>
      <trkpt lat="9.9534424" lon="-85.0286254">
        <ele>26.1</ele>
        <time>2022-10-06T21:17:07Z</time>
      </trkpt>
      <trkpt lat="9.9534447" lon="-85.0285408">
        <ele>26.2</ele>
        <time>2022-10-06T21:17:08Z</time>
      </trkpt>
      <trkpt lat="9.9534474" lon="-85.0284519">
        <ele>26.3</ele>
        <time>2022-10-06T21:17:09Z</time>
      </trkpt>
      <trkpt lat="9.9534511" lon="-85.0283530">
        <ele>26.3</ele>
        <time>2022-10-06T21:17:10Z</time>
      </trkpt>
      <trkpt lat="9.9534524" lon="-85.0282485">
        <ele>26.4</ele>
        <time>2022-10-06T21:17:11Z</time>
      </trkpt>
      <trkpt lat="9.9534560" lon="-85.0281407">
        <ele>26.3</ele>
        <time>2022-10-06T21:17:12Z</time>
      </trkpt>
      <trkpt lat="9.9534666" lon="-85.0280269">
        <ele>26.3</ele>
        <time>2022-10-06T21:17:13Z</time>
      </trkpt>
      <trkpt lat="9.9534827" lon="-85.0279069">
        <ele>26.3</ele>
        <time>2022-10-06T21:17:14Z</time>
      </trkpt>
      <trkpt lat="9.9535023" lon="-85.0277834">
        <ele>26.3</ele>
        <time>2022-10-06T21:17:15Z</time>
      </trkpt>
      <trkpt lat="9.9535249" lon="-85.0276501">
        <ele>26.5</ele>
        <time>2022-10-06T21:17:16Z</time>
      </trkpt>
      <trkpt lat="9.9535508" lon="-85.0275149">
        <ele>26.3</ele>
        <time>2022-10-06T21:17:17Z</time>
      </trkpt>
      <trkpt lat="9.9535721" lon="-85.0273775">
        <ele>26.7</ele>
        <time>2022-10-06T21:17:18Z</time>
      </trkpt>
      <trkpt lat="9.9535856" lon="-85.0272339">
        <ele>27.8</ele>
        <time>2022-10-06T21:17:19Z</time>
      </trkpt>
      <trkpt lat="9.9535947" lon="-85.0270862">
        <ele>27.7</ele>
        <time>2022-10-06T21:17:20Z</time>
      </trkpt>
      <trkpt lat="9.9535985" lon="-85.0269385">
        <ele>27.7</ele>
        <time>2022-10-06T21:17:21Z</time>
      </trkpt>
      <trkpt lat="9.9535989" lon="-85.0267851">
        <ele>27.6</ele>
        <time>2022-10-06T21:17:22Z</time>
      </trkpt>
      <trkpt lat="9.9535952" lon="-85.0266335">
        <ele>27.6</ele>
        <time>2022-10-06T21:17:23Z</time>
      </trkpt>
      <trkpt lat="9.9535879" lon="-85.0264781">
        <ele>27.6</ele>
        <time>2022-10-06T21:17:24Z</time>
      </trkpt>
      <trkpt lat="9.9535792" lon="-85.0263182">
        <ele>27.6</ele>
        <time>2022-10-06T21:17:25Z</time>
      </trkpt>
      <trkpt lat="9.9535697" lon="-85.0261572">
        <ele>27.6</ele>
        <time>2022-10-06T21:17:26Z</time>
      </trkpt>
      <trkpt lat="9.9535584" lon="-85.0259940">
        <ele>27.7</ele>
        <time>2022-10-06T21:17:27Z</time>
      </trkpt>
      <trkpt lat="9.9535474" lon="-85.0258312">
        <ele>27.7</ele>
        <time>2022-10-06T21:17:28Z</time>
      </trkpt>
      <trkpt lat="9.9535354" lon="-85.0256687">
        <ele>27.8</ele>
        <time>2022-10-06T21:17:29Z</time>
      </trkpt>
      <trkpt lat="9.9535244" lon="-85.0255032">
        <ele>27.8</ele>
        <time>2022-10-06T21:17:30Z</time>
      </trkpt>
      <trkpt lat="9.9535144" lon="-85.0253378">
        <ele>27.9</ele>
        <time>2022-10-06T21:17:31Z</time>
      </trkpt>
      <trkpt lat="9.9535054" lon="-85.0251768">
        <ele>27.9</ele>
        <time>2022-10-06T21:17:32Z</time>
      </trkpt>
      <trkpt lat="9.9534940" lon="-85.0250186">
        <ele>27.8</ele>
        <time>2022-10-06T21:17:33Z</time>
      </trkpt>
      <trkpt lat="9.9534826" lon="-85.0248620">
        <ele>27.7</ele>
        <time>2022-10-06T21:17:34Z</time>
      </trkpt>
      <trkpt lat="9.9534744" lon="-85.0247062">
        <ele>27.7</ele>
        <time>2022-10-06T21:17:35Z</time>
      </trkpt>
      <trkpt lat="9.9534659" lon="-85.0245504">
        <ele>27.7</ele>
        <time>2022-10-06T21:17:36Z</time>
      </trkpt>
      <trkpt lat="9.9534558" lon="-85.0243982">
        <ele>27.7</ele>
        <time>2022-10-06T21:17:37Z</time>
      </trkpt>
      <trkpt lat="9.9534443" lon="-85.0242483">
        <ele>27.7</ele>
        <time>2022-10-06T21:17:38Z</time>
      </trkpt>
      <trkpt lat="9.9534330" lon="-85.0241008">
        <ele>27.7</ele>
        <time>2022-10-06T21:17:39Z</time>
      </trkpt>
      <trkpt lat="9.9534211" lon="-85.0239648">
        <ele>27.6</ele>
        <time>2022-10-06T21:17:40Z</time>
      </trkpt>
      <trkpt lat="9.9534070" lon="-85.0238464">
        <ele>27.6</ele>
        <time>2022-10-06T21:17:41Z</time>
      </trkpt>
      <trkpt lat="9.9533810" lon="-85.0237515">
        <ele>27.4</ele>
        <time>2022-10-06T21:17:42Z</time>
      </trkpt>
      <trkpt lat="9.9533516" lon="-85.0236786">
        <ele>27.6</ele>
        <time>2022-10-06T21:17:43Z</time>
      </trkpt>
      <trkpt lat="9.9532781" lon="-85.0236337">
        <ele>27.3</ele>
        <time>2022-10-06T21:17:44Z</time>
      </trkpt>
      <trkpt lat="9.9532014" lon="-85.0236127">
        <ele>27.2</ele>
        <time>2022-10-06T21:17:45Z</time>
      </trkpt>
      <trkpt lat="9.9531206" lon="-85.0236234">
        <ele>27.1</ele>
        <time>2022-10-06T21:17:46Z</time>
      </trkpt>
      <trkpt lat="9.9530360" lon="-85.0236489">
        <ele>27.1</ele>
        <time>2022-10-06T21:17:47Z</time>
      </trkpt>
      <trkpt lat="9.9529419" lon="-85.0236771">
        <ele>27.6</ele>
        <time>2022-10-06T21:17:48Z</time>
      </trkpt>
      <trkpt lat="9.9528449" lon="-85.0237118">
        <ele>27.6</ele>
        <time>2022-10-06T21:17:49Z</time>
      </trkpt>
      <trkpt lat="9.9527456" lon="-85.0237456">
        <ele>27.4</ele>
        <time>2022-10-06T21:17:50Z</time>
      </trkpt>
      <trkpt lat="9.9526378" lon="-85.0237813">
        <ele>27.4</ele>
        <time>2022-10-06T21:17:51Z</time>
      </trkpt>
      <trkpt lat="9.9525260" lon="-85.0238163">
        <ele>27.2</ele>
        <time>2022-10-06T21:17:52Z</time>
      </trkpt>
      <trkpt lat="9.9524096" lon="-85.0238528">
        <ele>27.1</ele>
        <time>2022-10-06T21:17:53Z</time>
      </trkpt>
      <trkpt lat="9.9522926" lon="-85.0238919">
        <ele>27.1</ele>
        <time>2022-10-06T21:17:54Z</time>
      </trkpt>
      <trkpt lat="9.9521705" lon="-85.0239303">
        <ele>27.0</ele>
        <time>2022-10-06T21:17:55Z</time>
      </trkpt>
      <trkpt lat="9.9520445" lon="-85.0239720">
        <ele>26.9</ele>
        <time>2022-10-06T21:17:56Z</time>
      </trkpt>
      <trkpt lat="9.9519152" lon="-85.0240129">
        <ele>26.7</ele>
        <time>2022-10-06T21:17:57Z</time>
      </trkpt>
      <trkpt lat="9.9517801" lon="-85.0240550">
        <ele>26.7</ele>
        <time>2022-10-06T21:17:58Z</time>
      </trkpt>
      <trkpt lat="9.9516422" lon="-85.0240977">
        <ele>26.6</ele>
        <time>2022-10-06T21:17:59Z</time>
      </trkpt>
      <trkpt lat="9.9514985" lon="-85.0241426">
        <ele>26.6</ele>
        <time>2022-10-06T21:18:00Z</time>
      </trkpt>
      <trkpt lat="9.9513587" lon="-85.0241851">
        <ele>26.6</ele>
        <time>2022-10-06T21:18:01Z</time>
      </trkpt>
      <trkpt lat="9.9512154" lon="-85.0242276">
        <ele>26.7</ele>
        <time>2022-10-06T21:18:02Z</time>
      </trkpt>
      <trkpt lat="9.9510743" lon="-85.0242713">
        <ele>26.6</ele>
        <time>2022-10-06T21:18:03Z</time>
      </trkpt>
      <trkpt lat="9.9509337" lon="-85.0243247">
        <ele>26.7</ele>
        <time>2022-10-06T21:18:04Z</time>
      </trkpt>
      <trkpt lat="9.9507924" lon="-85.0243861">
        <ele>26.7</ele>
        <time>2022-10-06T21:18:05Z</time>
      </trkpt>
      <trkpt lat="9.9506504" lon="-85.0244517">
        <ele>26.7</ele>
        <time>2022-10-06T21:18:06Z</time>
      </trkpt>
      <trkpt lat="9.9505078" lon="-85.0245246">
        <ele>26.7</ele>
        <time>2022-10-06T21:18:07Z</time>
      </trkpt>
      <trkpt lat="9.9503664" lon="-85.0245981">
        <ele>26.7</ele>
        <time>2022-10-06T21:18:08Z</time>
      </trkpt>
      <trkpt lat="9.9502254" lon="-85.0246715">
        <ele>26.8</ele>
        <time>2022-10-06T21:18:09Z</time>
      </trkpt>
      <trkpt lat="9.9500866" lon="-85.0247455">
        <ele>26.8</ele>
        <time>2022-10-06T21:18:10Z</time>
      </trkpt>
      <trkpt lat="9.9499485" lon="-85.0248205">
        <ele>26.8</ele>
        <time>2022-10-06T21:18:11Z</time>
      </trkpt>
      <trkpt lat="9.9498140" lon="-85.0248927">
        <ele>26.9</ele>
        <time>2022-10-06T21:18:12Z</time>
      </trkpt>
      <trkpt lat="9.9496797" lon="-85.0249612">
        <ele>26.8</ele>
        <time>2022-10-06T21:18:13Z</time>
      </trkpt>
      <trkpt lat="9.9495435" lon="-85.0250197">
        <ele>26.8</ele>
        <time>2022-10-06T21:18:14Z</time>
      </trkpt>
      <trkpt lat="9.9494046" lon="-85.0250635">
        <ele>26.7</ele>
        <time>2022-10-06T21:18:15Z</time>
      </trkpt>
      <trkpt lat="9.9492549" lon="-85.0250911">
        <ele>27.1</ele>
        <time>2022-10-06T21:18:16Z</time>
      </trkpt>
      <trkpt lat="9.9491017" lon="-85.0251043">
        <ele>27.1</ele>
        <time>2022-10-06T21:18:17Z</time>
      </trkpt>
      <trkpt lat="9.9489431" lon="-85.0251132">
        <ele>27.1</ele>
        <time>2022-10-06T21:18:18Z</time>
      </trkpt>
      <trkpt lat="9.9487765" lon="-85.0251208">
        <ele>27.1</ele>
        <time>2022-10-06T21:18:19Z</time>
      </trkpt>
      <trkpt lat="9.9486128" lon="-85.0251277">
        <ele>27.2</ele>
        <time>2022-10-06T21:18:20Z</time>
      </trkpt>
      <trkpt lat="9.9484462" lon="-85.0251346">
        <ele>27.3</ele>
        <time>2022-10-06T21:18:21Z</time>
      </trkpt>
      <trkpt lat="9.9482773" lon="-85.0251445">
        <ele>27.3</ele>
        <time>2022-10-06T21:18:22Z</time>
      </trkpt>
      <trkpt lat="9.9481087" lon="-85.0251542">
        <ele>27.3</ele>
        <time>2022-10-06T21:18:23Z</time>
      </trkpt>
      <trkpt lat="9.9479446" lon="-85.0251617">
        <ele>27.4</ele>
        <time>2022-10-06T21:18:24Z</time>
      </trkpt>
      <trkpt lat="9.9477810" lon="-85.0251688">
        <ele>27.4</ele>
        <time>2022-10-06T21:18:25Z</time>
      </trkpt>
      <trkpt lat="9.9476212" lon="-85.0251771">
        <ele>27.5</ele>
        <time>2022-10-06T21:18:26Z</time>
      </trkpt>
      <trkpt lat="9.9474666" lon="-85.0251852">
        <ele>27.6</ele>
        <time>2022-10-06T21:18:27Z</time>
      </trkpt>
      <trkpt lat="9.9473143" lon="-85.0251899">
        <ele>27.6</ele>
        <time>2022-10-06T21:18:28Z</time>
      </trkpt>
      <trkpt lat="9.9471693" lon="-85.0251853">
        <ele>27.6</ele>
        <time>2022-10-06T21:18:29Z</time>
      </trkpt>
      <trkpt lat="9.9470305" lon="-85.0251720">
        <ele>27.6</ele>
        <time>2022-10-06T21:18:30Z</time>
      </trkpt>
      <trkpt lat="9.9469022" lon="-85.0251381">
        <ele>27.5</ele>
        <time>2022-10-06T21:18:31Z</time>
      </trkpt>
      <trkpt lat="9.9467912" lon="-85.0250693">
        <ele>27.2</ele>
        <time>2022-10-06T21:18:32Z</time>
      </trkpt>
      <trkpt lat="9.9466890" lon="-85.0250005">
        <ele>27.2</ele>
        <time>2022-10-06T21:18:33Z</time>
      </trkpt>
      <trkpt lat="9.9466102" lon="-85.0248963">
        <ele>27.2</ele>
        <time>2022-10-06T21:18:34Z</time>
      </trkpt>
      <trkpt lat="9.9465373" lon="-85.0247822">
        <ele>27.5</ele>
        <time>2022-10-06T21:18:35Z</time>
      </trkpt>
      <trkpt lat="9.9464640" lon="-85.0246578">
        <ele>27.4</ele>
        <time>2022-10-06T21:18:36Z</time>
      </trkpt>
      <trkpt lat="9.9463877" lon="-85.0245296">
        <ele>27.2</ele>
        <time>2022-10-06T21:18:37Z</time>
      </trkpt>
      <trkpt lat="9.9463098" lon="-85.0243969">
        <ele>27.2</ele>
        <time>2022-10-06T21:18:38Z</time>
      </trkpt>
      <trkpt lat="9.9462325" lon="-85.0242592">
        <ele>27.1</ele>
        <time>2022-10-06T21:18:39Z</time>
      </trkpt>
      <trkpt lat="9.9461517" lon="-85.0241174">
        <ele>27.1</ele>
        <time>2022-10-06T21:18:40Z</time>
      </trkpt>
      <trkpt lat="9.9460715" lon="-85.0239768">
        <ele>27.3</ele>
        <time>2022-10-06T21:18:41Z</time>
      </trkpt>
      <trkpt lat="9.9459917" lon="-85.0238309">
        <ele>27.2</ele>
        <time>2022-10-06T21:18:42Z</time>
      </trkpt>
      <trkpt lat="9.9459092" lon="-85.0236887">
        <ele>27.2</ele>
        <time>2022-10-06T21:18:43Z</time>
      </trkpt>
      <trkpt lat="9.9458260" lon="-85.0235486">
        <ele>27.2</ele>
        <time>2022-10-06T21:18:44Z</time>
      </trkpt>
      <trkpt lat="9.9457436" lon="-85.0234054">
        <ele>27.1</ele>
        <time>2022-10-06T21:18:45Z</time>
      </trkpt>
      <trkpt lat="9.9456624" lon="-85.0232627">
        <ele>27.2</ele>
        <time>2022-10-06T21:18:46Z</time>
      </trkpt>
      <trkpt lat="9.9455815" lon="-85.0231172">
        <ele>27.2</ele>
        <time>2022-10-06T21:18:47Z</time>
      </trkpt>
      <trkpt lat="9.9455004" lon="-85.0229685">
        <ele>26.9</ele>
        <time>2022-10-06T21:18:48Z</time>
      </trkpt>
      <trkpt lat="9.9454165" lon="-85.0228175">
        <ele>27.0</ele>
        <time>2022-10-06T21:18:49Z</time>
      </trkpt>
      <trkpt lat="9.9453331" lon="-85.0226696">
        <ele>27.2</ele>
        <time>2022-10-06T21:18:50Z</time>
      </trkpt>
      <trkpt lat="9.9452495" lon="-85.0225222">
        <ele>27.3</ele>
        <time>2022-10-06T21:18:51Z</time>
      </trkpt>
      <trkpt lat="9.9451670" lon="-85.0223752">
        <ele>27.4</ele>
        <time>2022-10-06T21:18:52Z</time>
      </trkpt>
      <trkpt lat="9.9450892" lon="-85.0222302">
        <ele>27.4</ele>
        <time>2022-10-06T21:18:53Z</time>
      </trkpt>
      <trkpt lat="9.9450132" lon="-85.0220871">
        <ele>27.5</ele>
        <time>2022-10-06T21:18:54Z</time>
      </trkpt>
      <trkpt lat="9.9449367" lon="-85.0219428">
        <ele>27.6</ele>
        <time>2022-10-06T21:18:55Z</time>
      </trkpt>
      <trkpt lat="9.9448620" lon="-85.0218033">
        <ele>27.7</ele>
        <time>2022-10-06T21:18:56Z</time>
      </trkpt>
      <trkpt lat="9.9447880" lon="-85.0216672">
        <ele>27.9</ele>
        <time>2022-10-06T21:18:57Z</time>
      </trkpt>
      <trkpt lat="9.9447097" lon="-85.0215310">
        <ele>27.9</ele>
        <time>2022-10-06T21:18:58Z</time>
      </trkpt>
      <trkpt lat="9.9446203" lon="-85.0214011">
        <ele>28.0</ele>
        <time>2022-10-06T21:18:59Z</time>
      </trkpt>
      <trkpt lat="9.9445205" lon="-85.0212797">
        <ele>28.2</ele>
        <time>2022-10-06T21:19:00Z</time>
      </trkpt>
      <trkpt lat="9.9444074" lon="-85.0211589">
        <ele>28.0</ele>
        <time>2022-10-06T21:19:01Z</time>
      </trkpt>
      <trkpt lat="9.9442901" lon="-85.0210389">
        <ele>28.0</ele>
        <time>2022-10-06T21:19:02Z</time>
      </trkpt>
      <trkpt lat="9.9441674" lon="-85.0209213">
        <ele>28.3</ele>
        <time>2022-10-06T21:19:03Z</time>
      </trkpt>
      <trkpt lat="9.9440440" lon="-85.0208020">
        <ele>28.5</ele>
        <time>2022-10-06T21:19:04Z</time>
      </trkpt>
      <trkpt lat="9.9439171" lon="-85.0206856">
        <ele>28.7</ele>
        <time>2022-10-06T21:19:05Z</time>
      </trkpt>
      <trkpt lat="9.9437876" lon="-85.0205787">
        <ele>29.0</ele>
        <time>2022-10-06T21:19:06Z</time>
      </trkpt>
      <trkpt lat="9.9436582" lon="-85.0204803">
        <ele>29.3</ele>
        <time>2022-10-06T21:19:07Z</time>
      </trkpt>
      <trkpt lat="9.9435290" lon="-85.0203878">
        <ele>29.6</ele>
        <time>2022-10-06T21:19:08Z</time>
      </trkpt>
      <trkpt lat="9.9433999" lon="-85.0203004">
        <ele>29.9</ele>
        <time>2022-10-06T21:19:09Z</time>
      </trkpt>
      <trkpt lat="9.9432754" lon="-85.0202154">
        <ele>30.3</ele>
        <time>2022-10-06T21:19:10Z</time>
      </trkpt>
      <trkpt lat="9.9431678" lon="-85.0201320">
        <ele>30.4</ele>
        <time>2022-10-06T21:19:11Z</time>
      </trkpt>
      <trkpt lat="9.9430765" lon="-85.0200395">
        <ele>30.6</ele>
        <time>2022-10-06T21:19:12Z</time>
      </trkpt>
      <trkpt lat="9.9429916" lon="-85.0199391">
        <ele>30.4</ele>
        <time>2022-10-06T21:19:13Z</time>
      </trkpt>
      <trkpt lat="9.9429381" lon="-85.0198246">
        <ele>30.8</ele>
        <time>2022-10-06T21:19:14Z</time>
      </trkpt>
      <trkpt lat="9.9428958" lon="-85.0196955">
        <ele>31.0</ele>
        <time>2022-10-06T21:19:15Z</time>
      </trkpt>
      <trkpt lat="9.9428640" lon="-85.0195622">
        <ele>31.0</ele>
        <time>2022-10-06T21:19:16Z</time>
      </trkpt>
      <trkpt lat="9.9428313" lon="-85.0194254">
        <ele>30.9</ele>
        <time>2022-10-06T21:19:17Z</time>
      </trkpt>
      <trkpt lat="9.9427966" lon="-85.0192816">
        <ele>30.8</ele>
        <time>2022-10-06T21:19:18Z</time>
      </trkpt>
      <trkpt lat="9.9427639" lon="-85.0191350">
        <ele>30.8</ele>
        <time>2022-10-06T21:19:19Z</time>
      </trkpt>
      <trkpt lat="9.9427278" lon="-85.0189871">
        <ele>30.8</ele>
        <time>2022-10-06T21:19:20Z</time>
      </trkpt>
      <trkpt lat="9.9426901" lon="-85.0188334">
        <ele>30.8</ele>
        <time>2022-10-06T21:19:21Z</time>
      </trkpt>
      <trkpt lat="9.9426529" lon="-85.0186830">
        <ele>30.7</ele>
        <time>2022-10-06T21:19:22Z</time>
      </trkpt>
      <trkpt lat="9.9426144" lon="-85.0185369">
        <ele>30.7</ele>
        <time>2022-10-06T21:19:23Z</time>
      </trkpt>
      <trkpt lat="9.9425739" lon="-85.0183991">
        <ele>30.6</ele>
        <time>2022-10-06T21:19:24Z</time>
      </trkpt>
      <trkpt lat="9.9425265" lon="-85.0182642">
        <ele>30.7</ele>
        <time>2022-10-06T21:19:25Z</time>
      </trkpt>
      <trkpt lat="9.9424758" lon="-85.0181369">
        <ele>30.8</ele>
        <time>2022-10-06T21:19:26Z</time>
      </trkpt>
      <trkpt lat="9.9424069" lon="-85.0180142">
        <ele>30.6</ele>
        <time>2022-10-06T21:19:27Z</time>
      </trkpt>
      <trkpt lat="9.9423194" lon="-85.0178975">
        <ele>31.0</ele>
        <time>2022-10-06T21:19:28Z</time>
      </trkpt>
      <trkpt lat="9.9422140" lon="-85.0177838">
        <ele>30.8</ele>
        <time>2022-10-06T21:19:29Z</time>
      </trkpt>
      <trkpt lat="9.9421066" lon="-85.0176687">
        <ele>30.4</ele>
        <time>2022-10-06T21:19:30Z</time>
      </trkpt>
      <trkpt lat="9.9419950" lon="-85.0175511">
        <ele>30.4</ele>
        <time>2022-10-06T21:19:31Z</time>
      </trkpt>
      <trkpt lat="9.9418829" lon="-85.0174343">
        <ele>30.4</ele>
        <time>2022-10-06T21:19:32Z</time>
      </trkpt>
      <trkpt lat="9.9417736" lon="-85.0173181">
        <ele>30.6</ele>
        <time>2022-10-06T21:19:33Z</time>
      </trkpt>
      <trkpt lat="9.9416674" lon="-85.0172025">
        <ele>30.8</ele>
        <time>2022-10-06T21:19:34Z</time>
      </trkpt>
      <trkpt lat="9.9415581" lon="-85.0170869">
        <ele>30.7</ele>
        <time>2022-10-06T21:19:35Z</time>
      </trkpt>
      <trkpt lat="9.9414465" lon="-85.0169686">
        <ele>30.3</ele>
        <time>2022-10-06T21:19:36Z</time>
      </trkpt>
      <trkpt lat="9.9413343" lon="-85.0168485">
        <ele>30.6</ele>
        <time>2022-10-06T21:19:37Z</time>
      </trkpt>
      <trkpt lat="9.9412215" lon="-85.0167320">
        <ele>30.8</ele>
        <time>2022-10-06T21:19:38Z</time>
      </trkpt>
      <trkpt lat="9.9411144" lon="-85.0166133">
        <ele>30.8</ele>
        <time>2022-10-06T21:19:39Z</time>
      </trkpt>
      <trkpt lat="9.9410211" lon="-85.0165049">
        <ele>30.7</ele>
        <time>2022-10-06T21:19:40Z</time>
      </trkpt>
      <trkpt lat="9.9409453" lon="-85.0163837">
        <ele>30.6</ele>
        <time>2022-10-06T21:19:41Z</time>
      </trkpt>
      <trkpt lat="9.9408789" lon="-85.0162504">
        <ele>30.3</ele>
        <time>2022-10-06T21:19:42Z</time>
      </trkpt>
      <trkpt lat="9.9408427" lon="-85.0160991">
        <ele>30.6</ele>
        <time>2022-10-06T21:19:43Z</time>
      </trkpt>
      <trkpt lat="9.9408252" lon="-85.0159405">
        <ele>30.8</ele>
        <time>2022-10-06T21:19:44Z</time>
      </trkpt>
      <trkpt lat="9.9408034" lon="-85.0157788">
        <ele>30.5</ele>
        <time>2022-10-06T21:19:45Z</time>
      </trkpt>
      <trkpt lat="9.9407783" lon="-85.0156192">
        <ele>30.4</ele>
        <time>2022-10-06T21:19:46Z</time>
      </trkpt>
      <trkpt lat="9.9407456" lon="-85.0154590">
        <ele>30.2</ele>
        <time>2022-10-06T21:19:47Z</time>
      </trkpt>
      <trkpt lat="9.9406968" lon="-85.0152996">
        <ele>30.2</ele>
        <time>2022-10-06T21:19:48Z</time>
      </trkpt>
      <trkpt lat="9.9406266" lon="-85.0151437">
        <ele>30.8</ele>
        <time>2022-10-06T21:19:49Z</time>
      </trkpt>
      <trkpt lat="9.9405398" lon="-85.0149947">
        <ele>31.5</ele>
        <time>2022-10-06T21:19:50Z</time>
      </trkpt>
      <trkpt lat="9.9404469" lon="-85.0148486">
        <ele>30.8</ele>
        <time>2022-10-06T21:19:51Z</time>
      </trkpt>
      <trkpt lat="9.9403485" lon="-85.0147005">
        <ele>30.6</ele>
        <time>2022-10-06T21:19:52Z</time>
      </trkpt>
      <trkpt lat="9.9402500" lon="-85.0145517">
        <ele>30.4</ele>
        <time>2022-10-06T21:19:53Z</time>
      </trkpt>
      <trkpt lat="9.9401521" lon="-85.0144009">
        <ele>30.3</ele>
        <time>2022-10-06T21:19:54Z</time>
      </trkpt>
      <trkpt lat="9.9400545" lon="-85.0142529">
        <ele>30.1</ele>
        <time>2022-10-06T21:19:55Z</time>
      </trkpt>
      <trkpt lat="9.9399559" lon="-85.0141068">
        <ele>30.0</ele>
        <time>2022-10-06T21:19:56Z</time>
      </trkpt>
      <trkpt lat="9.9398616" lon="-85.0139625">
        <ele>30.1</ele>
        <time>2022-10-06T21:19:57Z</time>
      </trkpt>
      <trkpt lat="9.9397688" lon="-85.0138187">
        <ele>29.9</ele>
        <time>2022-10-06T21:19:58Z</time>
      </trkpt>
      <trkpt lat="9.9396785" lon="-85.0136783">
        <ele>29.7</ele>
        <time>2022-10-06T21:19:59Z</time>
      </trkpt>
      <trkpt lat="9.9395854" lon="-85.0135373">
        <ele>29.7</ele>
        <time>2022-10-06T21:20:00Z</time>
      </trkpt>
      <trkpt lat="9.9394911" lon="-85.0133930">
        <ele>29.7</ele>
        <time>2022-10-06T21:20:01Z</time>
      </trkpt>
      <trkpt lat="9.9393966" lon="-85.0132466">
        <ele>29.8</ele>
        <time>2022-10-06T21:20:02Z</time>
      </trkpt>
      <trkpt lat="9.9393048" lon="-85.0131005">
        <ele>29.7</ele>
        <time>2022-10-06T21:20:03Z</time>
      </trkpt>
      <trkpt lat="9.9392133" lon="-85.0129606">
        <ele>29.7</ele>
        <time>2022-10-06T21:20:04Z</time>
      </trkpt>
      <trkpt lat="9.9391232" lon="-85.0128350">
        <ele>29.6</ele>
        <time>2022-10-06T21:20:05Z</time>
      </trkpt>
      <trkpt lat="9.9390359" lon="-85.0127267">
        <ele>29.5</ele>
        <time>2022-10-06T21:20:06Z</time>
      </trkpt>
      <trkpt lat="9.9389187" lon="-85.0126523">
        <ele>29.6</ele>
        <time>2022-10-06T21:20:07Z</time>
      </trkpt>
      <trkpt lat="9.9387909" lon="-85.0125966">
        <ele>29.6</ele>
        <time>2022-10-06T21:20:08Z</time>
      </trkpt>
      <trkpt lat="9.9386579" lon="-85.0125488">
        <ele>29.7</ele>
        <time>2022-10-06T21:20:09Z</time>
      </trkpt>
      <trkpt lat="9.9385289" lon="-85.0124924">
        <ele>29.6</ele>
        <time>2022-10-06T21:20:10Z</time>
      </trkpt>
      <trkpt lat="9.9384042" lon="-85.0124206">
        <ele>29.6</ele>
        <time>2022-10-06T21:20:11Z</time>
      </trkpt>
      <trkpt lat="9.9382900" lon="-85.0123346">
        <ele>29.4</ele>
        <time>2022-10-06T21:20:12Z</time>
      </trkpt>
      <trkpt lat="9.9381794" lon="-85.0122412">
        <ele>29.6</ele>
        <time>2022-10-06T21:20:13Z</time>
      </trkpt>
      <trkpt lat="9.9380858" lon="-85.0121191">
        <ele>29.2</ele>
        <time>2022-10-06T21:20:14Z</time>
      </trkpt>
      <trkpt lat="9.9379922" lon="-85.0119901">
        <ele>29.2</ele>
        <time>2022-10-06T21:20:15Z</time>
      </trkpt>
      <trkpt lat="9.9378990" lon="-85.0118570">
        <ele>29.2</ele>
        <time>2022-10-06T21:20:16Z</time>
      </trkpt>
      <trkpt lat="9.9378035" lon="-85.0117194">
        <ele>29.1</ele>
        <time>2022-10-06T21:20:17Z</time>
      </trkpt>
      <trkpt lat="9.9377080" lon="-85.0115781">
        <ele>29.2</ele>
        <time>2022-10-06T21:20:18Z</time>
      </trkpt>
      <trkpt lat="9.9376181" lon="-85.0114359">
        <ele>29.3</ele>
        <time>2022-10-06T21:20:19Z</time>
      </trkpt>
      <trkpt lat="9.9375352" lon="-85.0112858">
        <ele>29.4</ele>
        <time>2022-10-06T21:20:20Z</time>
      </trkpt>
      <trkpt lat="9.9374695" lon="-85.0111233">
        <ele>29.3</ele>
        <time>2022-10-06T21:20:21Z</time>
      </trkpt>
      <trkpt lat="9.9374148" lon="-85.0109582">
        <ele>29.5</ele>
        <time>2022-10-06T21:20:22Z</time>
      </trkpt>
      <trkpt lat="9.9373620" lon="-85.0107875">
        <ele>29.5</ele>
        <time>2022-10-06T21:20:23Z</time>
      </trkpt>
      <trkpt lat="9.9373102" lon="-85.0106192">
        <ele>29.4</ele>
        <time>2022-10-06T21:20:24Z</time>
      </trkpt>
      <trkpt lat="9.9372554" lon="-85.0104494">
        <ele>29.8</ele>
        <time>2022-10-06T21:20:25Z</time>
      </trkpt>
      <trkpt lat="9.9371945" lon="-85.0102782">
        <ele>29.8</ele>
        <time>2022-10-06T21:20:26Z</time>
      </trkpt>
      <trkpt lat="9.9371264" lon="-85.0101091">
        <ele>29.8</ele>
        <time>2022-10-06T21:20:27Z</time>
      </trkpt>
      <trkpt lat="9.9370518" lon="-85.0099460">
        <ele>29.6</ele>
        <time>2022-10-06T21:20:28Z</time>
      </trkpt>
      <trkpt lat="9.9369758" lon="-85.0097862">
        <ele>29.5</ele>
        <time>2022-10-06T21:20:29Z</time>
      </trkpt>
      <trkpt lat="9.9369064" lon="-85.0096276">
        <ele>29.4</ele>
        <time>2022-10-06T21:20:30Z</time>
      </trkpt>
      <trkpt lat="9.9368441" lon="-85.0094674">
        <ele>29.3</ele>
        <time>2022-10-06T21:20:31Z</time>
      </trkpt>
      <trkpt lat="9.9367918" lon="-85.0093042">
        <ele>29.2</ele>
        <time>2022-10-06T21:20:32Z</time>
      </trkpt>
      <trkpt lat="9.9367523" lon="-85.0091393">
        <ele>29.0</ele>
        <time>2022-10-06T21:20:33Z</time>
      </trkpt>
      <trkpt lat="9.9367251" lon="-85.0089710">
        <ele>29.0</ele>
        <time>2022-10-06T21:20:34Z</time>
      </trkpt>
      <trkpt lat="9.9367061" lon="-85.0088049">
        <ele>28.9</ele>
        <time>2022-10-06T21:20:35Z</time>
      </trkpt>
      <trkpt lat="9.9366986" lon="-85.0086405">
        <ele>28.6</ele>
        <time>2022-10-06T21:20:36Z</time>
      </trkpt>
      <trkpt lat="9.9367103" lon="-85.0084765">
        <ele>28.6</ele>
        <time>2022-10-06T21:20:37Z</time>
      </trkpt>
      <trkpt lat="9.9367328" lon="-85.0083146">
        <ele>28.6</ele>
        <time>2022-10-06T21:20:38Z</time>
      </trkpt>
      <trkpt lat="9.9367750" lon="-85.0081637">
        <ele>28.8</ele>
        <time>2022-10-06T21:20:39Z</time>
      </trkpt>
      <trkpt lat="9.9368204" lon="-85.0080165">
        <ele>29.0</ele>
        <time>2022-10-06T21:20:40Z</time>
      </trkpt>
      <trkpt lat="9.9368520" lon="-85.0078691">
        <ele>28.6</ele>
        <time>2022-10-06T21:20:41Z</time>
      </trkpt>
      <trkpt lat="9.9368681" lon="-85.0077233">
        <ele>28.8</ele>
        <time>2022-10-06T21:20:42Z</time>
      </trkpt>
      <trkpt lat="9.9368604" lon="-85.0075840">
        <ele>29.1</ele>
        <time>2022-10-06T21:20:43Z</time>
      </trkpt>
      <trkpt lat="9.9368301" lon="-85.0074504">
        <ele>29.2</ele>
        <time>2022-10-06T21:20:44Z</time>
      </trkpt>
      <trkpt lat="9.9367869" lon="-85.0073186">
        <ele>29.4</ele>
        <time>2022-10-06T21:20:45Z</time>
      </trkpt>
      <trkpt lat="9.9367237" lon="-85.0071914">
        <ele>29.3</ele>
        <time>2022-10-06T21:20:46Z</time>
      </trkpt>
      <trkpt lat="9.9366537" lon="-85.0070615">
        <ele>29.3</ele>
        <time>2022-10-06T21:20:47Z</time>
      </trkpt>
      <trkpt lat="9.9365811" lon="-85.0069318">
        <ele>29.1</ele>
        <time>2022-10-06T21:20:48Z</time>
      </trkpt>
      <trkpt lat="9.9365072" lon="-85.0067990">
        <ele>29.1</ele>
        <time>2022-10-06T21:20:49Z</time>
      </trkpt>
      <trkpt lat="9.9364308" lon="-85.0066641">
        <ele>29.0</ele>
        <time>2022-10-06T21:20:50Z</time>
      </trkpt>
      <trkpt lat="9.9363523" lon="-85.0065272">
        <ele>28.6</ele>
        <time>2022-10-06T21:20:51Z</time>
      </trkpt>
      <trkpt lat="9.9362754" lon="-85.0063916">
        <ele>28.5</ele>
        <time>2022-10-06T21:20:52Z</time>
      </trkpt>
      <trkpt lat="9.9361959" lon="-85.0062531">
        <ele>28.4</ele>
        <time>2022-10-06T21:20:54Z</time>
      </trkpt>
      <trkpt lat="9.9361161" lon="-85.0061088">
        <ele>28.4</ele>
        <time>2022-10-06T21:20:54Z</time>
      </trkpt>
      <trkpt lat="9.9360381" lon="-85.0059661">
        <ele>28.5</ele>
        <time>2022-10-06T21:20:55Z</time>
      </trkpt>
      <trkpt lat="9.9359600" lon="-85.0058206">
        <ele>28.7</ele>
        <time>2022-10-06T21:20:56Z</time>
      </trkpt>
      <trkpt lat="9.9358835" lon="-85.0056743">
        <ele>28.7</ele>
        <time>2022-10-06T21:20:57Z</time>
      </trkpt>
      <trkpt lat="9.9358079" lon="-85.0055260">
        <ele>28.7</ele>
        <time>2022-10-06T21:20:58Z</time>
      </trkpt>
      <trkpt lat="9.9357327" lon="-85.0053768">
        <ele>28.8</ele>
        <time>2022-10-06T21:20:59Z</time>
      </trkpt>
      <trkpt lat="9.9356581" lon="-85.0052280">
        <ele>28.7</ele>
        <time>2022-10-06T21:21:00Z</time>
      </trkpt>
      <trkpt lat="9.9355852" lon="-85.0050777">
        <ele>28.8</ele>
        <time>2022-10-06T21:21:01Z</time>
      </trkpt>
      <trkpt lat="9.9355134" lon="-85.0049270">
        <ele>28.7</ele>
        <time>2022-10-06T21:21:02Z</time>
      </trkpt>
      <trkpt lat="9.9354406" lon="-85.0047750">
        <ele>28.7</ele>
        <time>2022-10-06T21:21:03Z</time>
      </trkpt>
      <trkpt lat="9.9353658" lon="-85.0046204">
        <ele>28.7</ele>
        <time>2022-10-06T21:21:04Z</time>
      </trkpt>
      <trkpt lat="9.9352935" lon="-85.0044643">
        <ele>28.8</ele>
        <time>2022-10-06T21:21:05Z</time>
      </trkpt>
      <trkpt lat="9.9352211" lon="-85.0043060">
        <ele>28.9</ele>
        <time>2022-10-06T21:21:06Z</time>
      </trkpt>
      <trkpt lat="9.9351507" lon="-85.0041422">
        <ele>29.0</ele>
        <time>2022-10-06T21:21:07Z</time>
      </trkpt>
      <trkpt lat="9.9350848" lon="-85.0039763">
        <ele>29.2</ele>
        <time>2022-10-06T21:21:08Z</time>
      </trkpt>
      <trkpt lat="9.9350214" lon="-85.0038046">
        <ele>29.1</ele>
        <time>2022-10-06T21:21:09Z</time>
      </trkpt>
      <trkpt lat="9.9349626" lon="-85.0036279">
        <ele>29.2</ele>
        <time>2022-10-06T21:21:10Z</time>
      </trkpt>
      <trkpt lat="9.9349051" lon="-85.0034475">
        <ele>29.3</ele>
        <time>2022-10-06T21:21:11Z</time>
      </trkpt>
      <trkpt lat="9.9348476" lon="-85.0032673">
        <ele>29.3</ele>
        <time>2022-10-06T21:21:12Z</time>
      </trkpt>
      <trkpt lat="9.9347890" lon="-85.0030834">
        <ele>29.5</ele>
        <time>2022-10-06T21:21:13Z</time>
      </trkpt>
      <trkpt lat="9.9347284" lon="-85.0029001">
        <ele>29.4</ele>
        <time>2022-10-06T21:21:14Z</time>
      </trkpt>
      <trkpt lat="9.9346673" lon="-85.0027200">
        <ele>29.4</ele>
        <time>2022-10-06T21:21:15Z</time>
      </trkpt>
      <trkpt lat="9.9346072" lon="-85.0025406">
        <ele>29.5</ele>
        <time>2022-10-06T21:21:16Z</time>
      </trkpt>
      <trkpt lat="9.9345486" lon="-85.0023655">
        <ele>29.5</ele>
        <time>2022-10-06T21:21:17Z</time>
      </trkpt>
      <trkpt lat="9.9344918" lon="-85.0021956">
        <ele>29.5</ele>
        <time>2022-10-06T21:21:18Z</time>
      </trkpt>
      <trkpt lat="9.9344352" lon="-85.0020304">
        <ele>29.5</ele>
        <time>2022-10-06T21:21:19Z</time>
      </trkpt>
      <trkpt lat="9.9343771" lon="-85.0018677">
        <ele>29.1</ele>
        <time>2022-10-06T21:21:20Z</time>
      </trkpt>
      <trkpt lat="9.9343215" lon="-85.0017079">
        <ele>29.0</ele>
        <time>2022-10-06T21:21:21Z</time>
      </trkpt>
      <trkpt lat="9.9342681" lon="-85.0015490">
        <ele>29.2</ele>
        <time>2022-10-06T21:21:22Z</time>
      </trkpt>
      <trkpt lat="9.9342162" lon="-85.0013964">
        <ele>29.2</ele>
        <time>2022-10-06T21:21:23Z</time>
      </trkpt>
      <trkpt lat="9.9341652" lon="-85.0012488">
        <ele>29.2</ele>
        <time>2022-10-06T21:21:24Z</time>
      </trkpt>
      <trkpt lat="9.9341163" lon="-85.0011032">
        <ele>29.2</ele>
        <time>2022-10-06T21:21:25Z</time>
      </trkpt>
      <trkpt lat="9.9340680" lon="-85.0009594">
        <ele>29.1</ele>
        <time>2022-10-06T21:21:26Z</time>
      </trkpt>
      <trkpt lat="9.9340217" lon="-85.0008187">
        <ele>29.1</ele>
        <time>2022-10-06T21:21:27Z</time>
      </trkpt>
      <trkpt lat="9.9339755" lon="-85.0006846">
        <ele>28.8</ele>
        <time>2022-10-06T21:21:28Z</time>
      </trkpt>
      <trkpt lat="9.9339325" lon="-85.0005517">
        <ele>28.9</ele>
        <time>2022-10-06T21:21:29Z</time>
      </trkpt>
      <trkpt lat="9.9338902" lon="-85.0004252">
        <ele>28.8</ele>
        <time>2022-10-06T21:21:30Z</time>
      </trkpt>
      <trkpt lat="9.9338481" lon="-85.0003035">
        <ele>28.8</ele>
        <time>2022-10-06T21:21:31Z</time>
      </trkpt>
      <trkpt lat="9.9338024" lon="-85.0001851">
        <ele>28.6</ele>
        <time>2022-10-06T21:21:32Z</time>
      </trkpt>
      <trkpt lat="9.9337463" lon="-85.0000677">
        <ele>28.6</ele>
        <time>2022-10-06T21:21:33Z</time>
      </trkpt>
      <trkpt lat="9.9336770" lon="-84.9999569">
        <ele>28.5</ele>
        <time>2022-10-06T21:21:34Z</time>
      </trkpt>
      <trkpt lat="9.9335908" lon="-84.9998502">
        <ele>28.5</ele>
        <time>2022-10-06T21:21:35Z</time>
      </trkpt>
      <trkpt lat="9.9334929" lon="-84.9997563">
        <ele>28.5</ele>
        <time>2022-10-06T21:21:36Z</time>
      </trkpt>
      <trkpt lat="9.9333845" lon="-84.9996777">
        <ele>28.6</ele>
        <time>2022-10-06T21:21:37Z</time>
      </trkpt>
      <trkpt lat="9.9332693" lon="-84.9996071">
        <ele>28.7</ele>
        <time>2022-10-06T21:21:38Z</time>
      </trkpt>
      <trkpt lat="9.9331556" lon="-84.9995434">
        <ele>28.8</ele>
        <time>2022-10-06T21:21:39Z</time>
      </trkpt>
      <trkpt lat="9.9330472" lon="-84.9994755">
        <ele>28.8</ele>
        <time>2022-10-06T21:21:40Z</time>
      </trkpt>
      <trkpt lat="9.9329483" lon="-84.9994060">
        <ele>28.8</ele>
        <time>2022-10-06T21:21:41Z</time>
      </trkpt>
      <trkpt lat="9.9328577" lon="-84.9993296">
        <ele>28.9</ele>
        <time>2022-10-06T21:21:42Z</time>
      </trkpt>
      <trkpt lat="9.9327755" lon="-84.9992533">
        <ele>28.8</ele>
        <time>2022-10-06T21:21:43Z</time>
      </trkpt>
      <trkpt lat="9.9327186" lon="-84.9991572">
        <ele>28.9</ele>
        <time>2022-10-06T21:21:44Z</time>
      </trkpt>
      <trkpt lat="9.9326647" lon="-84.9990556">
        <ele>28.8</ele>
        <time>2022-10-06T21:21:45Z</time>
      </trkpt>
      <trkpt lat="9.9326234" lon="-84.9989430">
        <ele>28.9</ele>
        <time>2022-10-06T21:21:46Z</time>
      </trkpt>
      <trkpt lat="9.9325906" lon="-84.9988259">
        <ele>29.0</ele>
        <time>2022-10-06T21:21:47Z</time>
      </trkpt>
      <trkpt lat="9.9325609" lon="-84.9987048">
        <ele>29.0</ele>
        <time>2022-10-06T21:21:48Z</time>
      </trkpt>
      <trkpt lat="9.9325346" lon="-84.9985825">
        <ele>29.0</ele>
        <time>2022-10-06T21:21:49Z</time>
      </trkpt>
      <trkpt lat="9.9325117" lon="-84.9984565">
        <ele>29.1</ele>
        <time>2022-10-06T21:21:50Z</time>
      </trkpt>
      <trkpt lat="9.9324905" lon="-84.9983268">
        <ele>29.2</ele>
        <time>2022-10-06T21:21:51Z</time>
      </trkpt>
      <trkpt lat="9.9324771" lon="-84.9981914">
        <ele>29.2</ele>
        <time>2022-10-06T21:21:52Z</time>
      </trkpt>
      <trkpt lat="9.9324702" lon="-84.9980470">
        <ele>29.3</ele>
        <time>2022-10-06T21:21:53Z</time>
      </trkpt>
      <trkpt lat="9.9324662" lon="-84.9978966">
        <ele>29.4</ele>
        <time>2022-10-06T21:21:54Z</time>
      </trkpt>
      <trkpt lat="9.9324592" lon="-84.9977402">
        <ele>29.5</ele>
        <time>2022-10-06T21:21:55Z</time>
      </trkpt>
      <trkpt lat="9.9324502" lon="-84.9975787">
        <ele>29.7</ele>
        <time>2022-10-06T21:21:56Z</time>
      </trkpt>
      <trkpt lat="9.9324383" lon="-84.9974162">
        <ele>29.9</ele>
        <time>2022-10-06T21:21:57Z</time>
      </trkpt>
      <trkpt lat="9.9324259" lon="-84.9972527">
        <ele>29.9</ele>
        <time>2022-10-06T21:21:58Z</time>
      </trkpt>
      <trkpt lat="9.9324116" lon="-84.9970849">
        <ele>30.0</ele>
        <time>2022-10-06T21:21:59Z</time>
      </trkpt>
      <trkpt lat="9.9323959" lon="-84.9969184">
        <ele>30.2</ele>
        <time>2022-10-06T21:22:00Z</time>
      </trkpt>
      <trkpt lat="9.9323800" lon="-84.9967551">
        <ele>30.4</ele>
        <time>2022-10-06T21:22:01Z</time>
      </trkpt>
      <trkpt lat="9.9323649" lon="-84.9965936">
        <ele>30.4</ele>
        <time>2022-10-06T21:22:02Z</time>
      </trkpt>
      <trkpt lat="9.9323507" lon="-84.9964296">
        <ele>30.4</ele>
        <time>2022-10-06T21:22:03Z</time>
      </trkpt>
      <trkpt lat="9.9323380" lon="-84.9962651">
        <ele>30.4</ele>
        <time>2022-10-06T21:22:04Z</time>
      </trkpt>
      <trkpt lat="9.9323279" lon="-84.9961026">
        <ele>30.5</ele>
        <time>2022-10-06T21:22:05Z</time>
      </trkpt>
      <trkpt lat="9.9323197" lon="-84.9959335">
        <ele>30.5</ele>
        <time>2022-10-06T21:22:06Z</time>
      </trkpt>
      <trkpt lat="9.9323237" lon="-84.9957671">
        <ele>30.4</ele>
        <time>2022-10-06T21:22:07Z</time>
      </trkpt>
      <trkpt lat="9.9323382" lon="-84.9955991">
        <ele>30.3</ele>
        <time>2022-10-06T21:22:08Z</time>
      </trkpt>
      <trkpt lat="9.9323656" lon="-84.9954252">
        <ele>29.9</ele>
        <time>2022-10-06T21:22:09Z</time>
      </trkpt>
      <trkpt lat="9.9323995" lon="-84.9952529">
        <ele>29.8</ele>
        <time>2022-10-06T21:22:10Z</time>
      </trkpt>
      <trkpt lat="9.9324380" lon="-84.9950789">
        <ele>29.8</ele>
        <time>2022-10-06T21:22:11Z</time>
      </trkpt>
      <trkpt lat="9.9324771" lon="-84.9949032">
        <ele>29.7</ele>
        <time>2022-10-06T21:22:12Z</time>
      </trkpt>
      <trkpt lat="9.9325149" lon="-84.9947276">
        <ele>29.8</ele>
        <time>2022-10-06T21:22:13Z</time>
      </trkpt>
      <trkpt lat="9.9325527" lon="-84.9945535">
        <ele>29.8</ele>
        <time>2022-10-06T21:22:14Z</time>
      </trkpt>
      <trkpt lat="9.9325919" lon="-84.9943794">
        <ele>29.6</ele>
        <time>2022-10-06T21:22:15Z</time>
      </trkpt>
      <trkpt lat="9.9326320" lon="-84.9942063">
        <ele>29.5</ele>
        <time>2022-10-06T21:22:16Z</time>
      </trkpt>
      <trkpt lat="9.9326738" lon="-84.9940308">
        <ele>29.3</ele>
        <time>2022-10-06T21:22:17Z</time>
      </trkpt>
      <trkpt lat="9.9327177" lon="-84.9938562">
        <ele>29.2</ele>
        <time>2022-10-06T21:22:18Z</time>
      </trkpt>
      <trkpt lat="9.9327581" lon="-84.9936811">
        <ele>29.2</ele>
        <time>2022-10-06T21:22:19Z</time>
      </trkpt>
      <trkpt lat="9.9327969" lon="-84.9935044">
        <ele>29.3</ele>
        <time>2022-10-06T21:22:20Z</time>
      </trkpt>
      <trkpt lat="9.9328372" lon="-84.9933273">
        <ele>29.2</ele>
        <time>2022-10-06T21:22:21Z</time>
      </trkpt>
      <trkpt lat="9.9328807" lon="-84.9931480">
        <ele>29.1</ele>
        <time>2022-10-06T21:22:22Z</time>
      </trkpt>
      <trkpt lat="9.9329260" lon="-84.9929698">
        <ele>29.0</ele>
        <time>2022-10-06T21:22:23Z</time>
      </trkpt>
      <trkpt lat="9.9329708" lon="-84.9927921">
        <ele>28.9</ele>
        <time>2022-10-06T21:22:24Z</time>
      </trkpt>
      <trkpt lat="9.9330189" lon="-84.9926122">
        <ele>28.9</ele>
        <time>2022-10-06T21:22:25Z</time>
      </trkpt>
      <trkpt lat="9.9330669" lon="-84.9924308">
        <ele>28.9</ele>
        <time>2022-10-06T21:22:26Z</time>
      </trkpt>
      <trkpt lat="9.9331160" lon="-84.9922446">
        <ele>28.8</ele>
        <time>2022-10-06T21:22:27Z</time>
      </trkpt>
      <trkpt lat="9.9331636" lon="-84.9920618">
        <ele>28.7</ele>
        <time>2022-10-06T21:22:28Z</time>
      </trkpt>
      <trkpt lat="9.9332107" lon="-84.9918805">
        <ele>28.6</ele>
        <time>2022-10-06T21:22:29Z</time>
      </trkpt>
      <trkpt lat="9.9332571" lon="-84.9917061">
        <ele>28.6</ele>
        <time>2022-10-06T21:22:30Z</time>
      </trkpt>
      <trkpt lat="9.9333024" lon="-84.9915313">
        <ele>28.5</ele>
        <time>2022-10-06T21:22:31Z</time>
      </trkpt>
      <trkpt lat="9.9333460" lon="-84.9913620">
        <ele>28.5</ele>
        <time>2022-10-06T21:22:32Z</time>
      </trkpt>
      <trkpt lat="9.9333864" lon="-84.9911949">
        <ele>28.2</ele>
        <time>2022-10-06T21:22:33Z</time>
      </trkpt>
      <trkpt lat="9.9334265" lon="-84.9910334">
        <ele>28.0</ele>
        <time>2022-10-06T21:22:34Z</time>
      </trkpt>
      <trkpt lat="9.9334668" lon="-84.9908732">
        <ele>28.0</ele>
        <time>2022-10-06T21:22:35Z</time>
      </trkpt>
      <trkpt lat="9.9335067" lon="-84.9907169">
        <ele>28.1</ele>
        <time>2022-10-06T21:22:36Z</time>
      </trkpt>
      <trkpt lat="9.9335442" lon="-84.9905607">
        <ele>27.6</ele>
        <time>2022-10-06T21:22:37Z</time>
      </trkpt>
      <trkpt lat="9.9335803" lon="-84.9904070">
        <ele>27.5</ele>
        <time>2022-10-06T21:22:38Z</time>
      </trkpt>
      <trkpt lat="9.9336157" lon="-84.9902529">
        <ele>26.9</ele>
        <time>2022-10-06T21:22:39Z</time>
      </trkpt>
      <trkpt lat="9.9336528" lon="-84.9901012">
        <ele>26.7</ele>
        <time>2022-10-06T21:22:40Z</time>
      </trkpt>
      <trkpt lat="9.9336858" lon="-84.9899576">
        <ele>26.4</ele>
        <time>2022-10-06T21:22:41Z</time>
      </trkpt>
      <trkpt lat="9.9337185" lon="-84.9898203">
        <ele>26.3</ele>
        <time>2022-10-06T21:22:42Z</time>
      </trkpt>
      <trkpt lat="9.9337476" lon="-84.9896917">
        <ele>26.3</ele>
        <time>2022-10-06T21:22:43Z</time>
      </trkpt>
      <trkpt lat="9.9337688" lon="-84.9895695">
        <ele>26.0</ele>
        <time>2022-10-06T21:22:44Z</time>
      </trkpt>
      <trkpt lat="9.9337720" lon="-84.9894609">
        <ele>25.9</ele>
        <time>2022-10-06T21:22:45Z</time>
      </trkpt>
      <trkpt lat="9.9337614" lon="-84.9893613">
        <ele>26.0</ele>
        <time>2022-10-06T21:22:46Z</time>
      </trkpt>
      <trkpt lat="9.9336928" lon="-84.9892733">
        <ele>25.7</ele>
        <time>2022-10-06T21:22:47Z</time>
      </trkpt>
      <trkpt lat="9.9336208" lon="-84.9892026">
        <ele>25.7</ele>
        <time>2022-10-06T21:22:48Z</time>
      </trkpt>
      <trkpt lat="9.9335458" lon="-84.9891378">
        <ele>25.7</ele>
        <time>2022-10-06T21:22:49Z</time>
      </trkpt>
      <trkpt lat="9.9334810" lon="-84.9890829">
        <ele>25.6</ele>
        <time>2022-10-06T21:22:50Z</time>
      </trkpt>
      <trkpt lat="9.9334234" lon="-84.9890442">
        <ele>25.5</ele>
        <time>2022-10-06T21:22:51Z</time>
      </trkpt>
      <trkpt lat="9.9333781" lon="-84.9890098">
        <ele>25.5</ele>
        <time>2022-10-06T21:22:52Z</time>
      </trkpt>
      <trkpt lat="9.9333360" lon="-84.9889779">
        <ele>25.7</ele>
        <time>2022-10-06T21:22:53Z</time>
      </trkpt>
      <trkpt lat="9.9333030" lon="-84.9889396">
        <ele>25.9</ele>
        <time>2022-10-06T21:22:54Z</time>
      </trkpt>
      <trkpt lat="9.9332793" lon="-84.9889057">
        <ele>26.3</ele>
        <time>2022-10-06T21:22:55Z</time>
      </trkpt>
      <trkpt lat="9.9332645" lon="-84.9888821">
        <ele>26.3</ele>
        <time>2022-10-06T21:22:56Z</time>
      </trkpt>
      <trkpt lat="9.9332462" lon="-84.9888546">
        <ele>26.4</ele>
        <time>2022-10-06T21:22:57Z</time>
      </trkpt>
      <trkpt lat="9.9332234" lon="-84.9888237">
        <ele>26.4</ele>
        <time>2022-10-06T21:22:58Z</time>
      </trkpt>
      <trkpt lat="9.9332002" lon="-84.9887875">
        <ele>26.5</ele>
        <time>2022-10-06T21:22:59Z</time>
      </trkpt>
      <trkpt lat="9.9331710" lon="-84.9887475">
        <ele>26.5</ele>
        <time>2022-10-06T21:23:00Z</time>
      </trkpt>
      <trkpt lat="9.9331386" lon="-84.9887050">
        <ele>26.6</ele>
        <time>2022-10-06T21:23:01Z</time>
      </trkpt>
      <trkpt lat="9.9331015" lon="-84.9886575">
        <ele>26.6</ele>
        <time>2022-10-06T21:23:02Z</time>
      </trkpt>
      <trkpt lat="9.9330618" lon="-84.9886054">
        <ele>26.5</ele>
        <time>2022-10-06T21:23:03Z</time>
      </trkpt>
      <trkpt lat="9.9330259" lon="-84.9885549">
        <ele>26.8</ele>
        <time>2022-10-06T21:23:04Z</time>
      </trkpt>
      <trkpt lat="9.9329965" lon="-84.9885077">
        <ele>26.6</ele>
        <time>2022-10-06T21:23:05Z</time>
      </trkpt>
      <trkpt lat="9.9329829" lon="-84.9884456">
        <ele>26.3</ele>
        <time>2022-10-06T21:23:06Z</time>
      </trkpt>
      <trkpt lat="9.9329765" lon="-84.9883722">
        <ele>26.0</ele>
        <time>2022-10-06T21:23:07Z</time>
      </trkpt>
      <trkpt lat="9.9329725" lon="-84.9882813">
        <ele>26.1</ele>
        <time>2022-10-06T21:23:08Z</time>
      </trkpt>
      <trkpt lat="9.9329729" lon="-84.9881842">
        <ele>26.2</ele>
        <time>2022-10-06T21:23:09Z</time>
      </trkpt>
      <trkpt lat="9.9329701" lon="-84.9880779">
        <ele>26.2</ele>
        <time>2022-10-06T21:23:10Z</time>
      </trkpt>
      <trkpt lat="9.9329662" lon="-84.9879642">
        <ele>26.4</ele>
        <time>2022-10-06T21:23:11Z</time>
      </trkpt>
      <trkpt lat="9.9329560" lon="-84.9878394">
        <ele>26.5</ele>
        <time>2022-10-06T21:23:12Z</time>
      </trkpt>
      <trkpt lat="9.9329395" lon="-84.9877094">
        <ele>26.6</ele>
        <time>2022-10-06T21:23:13Z</time>
      </trkpt>
      <trkpt lat="9.9329153" lon="-84.9875719">
        <ele>26.7</ele>
        <time>2022-10-06T21:23:14Z</time>
      </trkpt>
      <trkpt lat="9.9328845" lon="-84.9874296">
        <ele>26.8</ele>
        <time>2022-10-06T21:23:15Z</time>
      </trkpt>
      <trkpt lat="9.9328539" lon="-84.9872844">
        <ele>27.1</ele>
        <time>2022-10-06T21:23:16Z</time>
      </trkpt>
      <trkpt lat="9.9328252" lon="-84.9871383">
        <ele>27.1</ele>
        <time>2022-10-06T21:23:17Z</time>
      </trkpt>
      <trkpt lat="9.9328049" lon="-84.9869864">
        <ele>27.2</ele>
        <time>2022-10-06T21:23:18Z</time>
      </trkpt>
      <trkpt lat="9.9327919" lon="-84.9868298">
        <ele>27.3</ele>
        <time>2022-10-06T21:23:19Z</time>
      </trkpt>
      <trkpt lat="9.9327806" lon="-84.9866743">
        <ele>27.5</ele>
        <time>2022-10-06T21:23:20Z</time>
      </trkpt>
      <trkpt lat="9.9327747" lon="-84.9865200">
        <ele>27.5</ele>
        <time>2022-10-06T21:23:21Z</time>
      </trkpt>
      <trkpt lat="9.9327721" lon="-84.9863672">
        <ele>27.8</ele>
        <time>2022-10-06T21:23:22Z</time>
      </trkpt>
      <trkpt lat="9.9327681" lon="-84.9862134">
        <ele>28.4</ele>
        <time>2022-10-06T21:23:23Z</time>
      </trkpt>
      <trkpt lat="9.9327732" lon="-84.9860636">
        <ele>28.7</ele>
        <time>2022-10-06T21:23:24Z</time>
      </trkpt>
      <trkpt lat="9.9327955" lon="-84.9859116">
        <ele>28.7</ele>
        <time>2022-10-06T21:23:25Z</time>
      </trkpt>
      <trkpt lat="9.9328312" lon="-84.9857610">
        <ele>28.9</ele>
        <time>2022-10-06T21:23:26Z</time>
      </trkpt>
      <trkpt lat="9.9328757" lon="-84.9856148">
        <ele>28.9</ele>
        <time>2022-10-06T21:23:27Z</time>
      </trkpt>
      <trkpt lat="9.9329156" lon="-84.9854758">
        <ele>29.0</ele>
        <time>2022-10-06T21:23:28Z</time>
      </trkpt>
      <trkpt lat="9.9329449" lon="-84.9853468">
        <ele>29.0</ele>
        <time>2022-10-06T21:23:29Z</time>
      </trkpt>
      <trkpt lat="9.9329602" lon="-84.9852250">
        <ele>28.9</ele>
        <time>2022-10-06T21:23:30Z</time>
      </trkpt>
      <trkpt lat="9.9329556" lon="-84.9851013">
        <ele>29.0</ele>
        <time>2022-10-06T21:23:31Z</time>
      </trkpt>
      <trkpt lat="9.9329394" lon="-84.9849763">
        <ele>29.1</ele>
        <time>2022-10-06T21:23:32Z</time>
      </trkpt>
      <trkpt lat="9.9328936" lon="-84.9848435">
        <ele>29.1</ele>
        <time>2022-10-06T21:23:33Z</time>
      </trkpt>
      <trkpt lat="9.9328371" lon="-84.9847093">
        <ele>29.1</ele>
        <time>2022-10-06T21:23:34Z</time>
      </trkpt>
      <trkpt lat="9.9327775" lon="-84.9845687">
        <ele>28.9</ele>
        <time>2022-10-06T21:23:35Z</time>
      </trkpt>
      <trkpt lat="9.9327208" lon="-84.9844254">
        <ele>29.0</ele>
        <time>2022-10-06T21:23:36Z</time>
      </trkpt>
      <trkpt lat="9.9326724" lon="-84.9842756">
        <ele>29.4</ele>
        <time>2022-10-06T21:23:37Z</time>
      </trkpt>
      <trkpt lat="9.9326335" lon="-84.9841162">
        <ele>29.7</ele>
        <time>2022-10-06T21:23:38Z</time>
      </trkpt>
      <trkpt lat="9.9326067" lon="-84.9839549">
        <ele>30.0</ele>
        <time>2022-10-06T21:23:39Z</time>
      </trkpt>
      <trkpt lat="9.9325861" lon="-84.9837946">
        <ele>30.5</ele>
        <time>2022-10-06T21:23:40Z</time>
      </trkpt>
      <trkpt lat="9.9325746" lon="-84.9836373">
        <ele>31.0</ele>
        <time>2022-10-06T21:23:41Z</time>
      </trkpt>
      <trkpt lat="9.9325711" lon="-84.9834854">
        <ele>31.4</ele>
        <time>2022-10-06T21:23:42Z</time>
      </trkpt>
      <trkpt lat="9.9325797" lon="-84.9833492">
        <ele>31.6</ele>
        <time>2022-10-06T21:23:43Z</time>
      </trkpt>
      <trkpt lat="9.9326074" lon="-84.9832223">
        <ele>32.0</ele>
        <time>2022-10-06T21:23:44Z</time>
      </trkpt>
      <trkpt lat="9.9326457" lon="-84.9831001">
        <ele>31.8</ele>
        <time>2022-10-06T21:23:45Z</time>
      </trkpt>
      <trkpt lat="9.9327127" lon="-84.9829872">
        <ele>31.9</ele>
        <time>2022-10-06T21:23:46Z</time>
      </trkpt>
      <trkpt lat="9.9328026" lon="-84.9828777">
        <ele>31.7</ele>
        <time>2022-10-06T21:23:47Z</time>
      </trkpt>
      <trkpt lat="9.9329112" lon="-84.9827816">
        <ele>32.1</ele>
        <time>2022-10-06T21:23:48Z</time>
      </trkpt>
      <trkpt lat="9.9330195" lon="-84.9826879">
        <ele>31.9</ele>
        <time>2022-10-06T21:23:49Z</time>
      </trkpt>
      <trkpt lat="9.9331429" lon="-84.9826096">
        <ele>31.7</ele>
        <time>2022-10-06T21:23:50Z</time>
      </trkpt>
      <trkpt lat="9.9332795" lon="-84.9825609">
        <ele>30.4</ele>
        <time>2022-10-06T21:23:51Z</time>
      </trkpt>
      <trkpt lat="9.9334199" lon="-84.9825174">
        <ele>30.7</ele>
        <time>2022-10-06T21:23:52Z</time>
      </trkpt>
      <trkpt lat="9.9335708" lon="-84.9824849">
        <ele>31.1</ele>
        <time>2022-10-06T21:23:53Z</time>
      </trkpt>
      <trkpt lat="9.9337240" lon="-84.9824537">
        <ele>31.2</ele>
        <time>2022-10-06T21:23:54Z</time>
      </trkpt>
      <trkpt lat="9.9338761" lon="-84.9824179">
        <ele>31.0</ele>
        <time>2022-10-06T21:23:55Z</time>
      </trkpt>
      <trkpt lat="9.9340133" lon="-84.9823615">
        <ele>30.4</ele>
        <time>2022-10-06T21:23:56Z</time>
      </trkpt>
      <trkpt lat="9.9341410" lon="-84.9822919">
        <ele>30.3</ele>
        <time>2022-10-06T21:23:57Z</time>
      </trkpt>
      <trkpt lat="9.9342360" lon="-84.9821879">
        <ele>29.6</ele>
        <time>2022-10-06T21:23:58Z</time>
      </trkpt>
      <trkpt lat="9.9343159" lon="-84.9820690">
        <ele>29.2</ele>
        <time>2022-10-06T21:23:59Z</time>
      </trkpt>
      <trkpt lat="9.9343852" lon="-84.9819318">
        <ele>29.4</ele>
        <time>2022-10-06T21:24:00Z</time>
      </trkpt>
      <trkpt lat="9.9344372" lon="-84.9817886">
        <ele>28.7</ele>
        <time>2022-10-06T21:24:01Z</time>
      </trkpt>
      <trkpt lat="9.9344961" lon="-84.9816429">
        <ele>28.5</ele>
        <time>2022-10-06T21:24:02Z</time>
      </trkpt>
      <trkpt lat="9.9345626" lon="-84.9815011">
        <ele>28.1</ele>
        <time>2022-10-06T21:24:03Z</time>
      </trkpt>
      <trkpt lat="9.9346382" lon="-84.9813527">
        <ele>28.1</ele>
        <time>2022-10-06T21:24:04Z</time>
      </trkpt>
      <trkpt lat="9.9347230" lon="-84.9812098">
        <ele>28.4</ele>
        <time>2022-10-06T21:24:05Z</time>
      </trkpt>
      <trkpt lat="9.9348120" lon="-84.9810661">
        <ele>28.8</ele>
        <time>2022-10-06T21:24:06Z</time>
      </trkpt>
      <trkpt lat="9.9349053" lon="-84.9809242">
        <ele>29.0</ele>
        <time>2022-10-06T21:24:07Z</time>
      </trkpt>
      <trkpt lat="9.9350040" lon="-84.9807847">
        <ele>29.4</ele>
        <time>2022-10-06T21:24:08Z</time>
      </trkpt>
      <trkpt lat="9.9351073" lon="-84.9806465">
        <ele>29.8</ele>
        <time>2022-10-06T21:24:09Z</time>
      </trkpt>
      <trkpt lat="9.9352141" lon="-84.9805131">
        <ele>30.2</ele>
        <time>2022-10-06T21:24:10Z</time>
      </trkpt>
      <trkpt lat="9.9353215" lon="-84.9803780">
        <ele>30.4</ele>
        <time>2022-10-06T21:24:11Z</time>
      </trkpt>
      <trkpt lat="9.9354328" lon="-84.9802425">
        <ele>30.8</ele>
        <time>2022-10-06T21:24:12Z</time>
      </trkpt>
      <trkpt lat="9.9355418" lon="-84.9801068">
        <ele>30.9</ele>
        <time>2022-10-06T21:24:13Z</time>
      </trkpt>
      <trkpt lat="9.9356503" lon="-84.9799693">
        <ele>31.2</ele>
        <time>2022-10-06T21:24:14Z</time>
      </trkpt>
      <trkpt lat="9.9357597" lon="-84.9798324">
        <ele>31.5</ele>
        <time>2022-10-06T21:24:15Z</time>
      </trkpt>
      <trkpt lat="9.9358663" lon="-84.9796978">
        <ele>31.9</ele>
        <time>2022-10-06T21:24:16Z</time>
      </trkpt>
      <trkpt lat="9.9359673" lon="-84.9795675">
        <ele>32.6</ele>
        <time>2022-10-06T21:24:17Z</time>
      </trkpt>
      <trkpt lat="9.9360628" lon="-84.9794383">
        <ele>33.5</ele>
        <time>2022-10-06T21:24:18Z</time>
      </trkpt>
      <trkpt lat="9.9361471" lon="-84.9793131">
        <ele>34.2</ele>
        <time>2022-10-06T21:24:19Z</time>
      </trkpt>
      <trkpt lat="9.9362188" lon="-84.9791861">
        <ele>35.5</ele>
        <time>2022-10-06T21:24:20Z</time>
      </trkpt>
      <trkpt lat="9.9362744" lon="-84.9790554">
        <ele>37.1</ele>
        <time>2022-10-06T21:24:21Z</time>
      </trkpt>
      <trkpt lat="9.9363178" lon="-84.9789323">
        <ele>37.1</ele>
        <time>2022-10-06T21:24:22Z</time>
      </trkpt>
      <trkpt lat="9.9363363" lon="-84.9788063">
        <ele>37.4</ele>
        <time>2022-10-06T21:24:23Z</time>
      </trkpt>
      <trkpt lat="9.9363272" lon="-84.9786811">
        <ele>37.0</ele>
        <time>2022-10-06T21:24:24Z</time>
      </trkpt>
      <trkpt lat="9.9362858" lon="-84.9785569">
        <ele>37.2</ele>
        <time>2022-10-06T21:24:25Z</time>
      </trkpt>
      <trkpt lat="9.9362308" lon="-84.9784371">
        <ele>36.4</ele>
        <time>2022-10-06T21:24:26Z</time>
      </trkpt>
      <trkpt lat="9.9361793" lon="-84.9783148">
        <ele>36.8</ele>
        <time>2022-10-06T21:24:27Z</time>
      </trkpt>
      <trkpt lat="9.9361322" lon="-84.9781915">
        <ele>36.9</ele>
        <time>2022-10-06T21:24:28Z</time>
      </trkpt>
      <trkpt lat="9.9360870" lon="-84.9780657">
        <ele>36.9</ele>
        <time>2022-10-06T21:24:29Z</time>
      </trkpt>
      <trkpt lat="9.9360443" lon="-84.9779428">
        <ele>36.7</ele>
        <time>2022-10-06T21:24:30Z</time>
      </trkpt>
      <trkpt lat="9.9360028" lon="-84.9778195">
        <ele>36.6</ele>
        <time>2022-10-06T21:24:31Z</time>
      </trkpt>
      <trkpt lat="9.9359608" lon="-84.9776974">
        <ele>36.4</ele>
        <time>2022-10-06T21:24:32Z</time>
      </trkpt>
      <trkpt lat="9.9359178" lon="-84.9775720">
        <ele>36.4</ele>
        <time>2022-10-06T21:24:33Z</time>
      </trkpt>
      <trkpt lat="9.9358758" lon="-84.9774477">
        <ele>36.4</ele>
        <time>2022-10-06T21:24:34Z</time>
      </trkpt>
      <trkpt lat="9.9358380" lon="-84.9773202">
        <ele>36.3</ele>
        <time>2022-10-06T21:24:35Z</time>
      </trkpt>
      <trkpt lat="9.9358119" lon="-84.9771930">
        <ele>36.5</ele>
        <time>2022-10-06T21:24:36Z</time>
      </trkpt>
      <trkpt lat="9.9357953" lon="-84.9770655">
        <ele>36.8</ele>
        <time>2022-10-06T21:24:37Z</time>
      </trkpt>
      <trkpt lat="9.9357943" lon="-84.9769352">
        <ele>36.9</ele>
        <time>2022-10-06T21:24:38Z</time>
      </trkpt>
      <trkpt lat="9.9358070" lon="-84.9768025">
        <ele>37.2</ele>
        <time>2022-10-06T21:24:39Z</time>
      </trkpt>
      <trkpt lat="9.9358300" lon="-84.9766686">
        <ele>37.8</ele>
        <time>2022-10-06T21:24:40Z</time>
      </trkpt>
      <trkpt lat="9.9358559" lon="-84.9765327">
        <ele>38.6</ele>
        <time>2022-10-06T21:24:41Z</time>
      </trkpt>
      <trkpt lat="9.9358825" lon="-84.9763958">
        <ele>39.5</ele>
        <time>2022-10-06T21:24:42Z</time>
      </trkpt>
      <trkpt lat="9.9359078" lon="-84.9762588">
        <ele>40.5</ele>
        <time>2022-10-06T21:24:43Z</time>
      </trkpt>
      <trkpt lat="9.9359346" lon="-84.9761240">
        <ele>41.7</ele>
        <time>2022-10-06T21:24:44Z</time>
      </trkpt>
      <trkpt lat="9.9359605" lon="-84.9759901">
        <ele>43.0</ele>
        <time>2022-10-06T21:24:45Z</time>
      </trkpt>
      <trkpt lat="9.9359869" lon="-84.9758523">
        <ele>44.3</ele>
        <time>2022-10-06T21:24:46Z</time>
      </trkpt>
      <trkpt lat="9.9360134" lon="-84.9757144">
        <ele>45.4</ele>
        <time>2022-10-06T21:24:47Z</time>
      </trkpt>
      <trkpt lat="9.9360382" lon="-84.9755768">
        <ele>46.4</ele>
        <time>2022-10-06T21:24:48Z</time>
      </trkpt>
      <trkpt lat="9.9360653" lon="-84.9754395">
        <ele>47.4</ele>
        <time>2022-10-06T21:24:49Z</time>
      </trkpt>
      <trkpt lat="9.9360964" lon="-84.9753028">
        <ele>48.4</ele>
        <time>2022-10-06T21:24:50Z</time>
      </trkpt>
      <trkpt lat="9.9361295" lon="-84.9751679">
        <ele>49.3</ele>
        <time>2022-10-06T21:24:51Z</time>
      </trkpt>
      <trkpt lat="9.9361674" lon="-84.9750390">
        <ele>50.1</ele>
        <time>2022-10-06T21:24:52Z</time>
      </trkpt>
      <trkpt lat="9.9362049" lon="-84.9749125">
        <ele>50.6</ele>
        <time>2022-10-06T21:24:53Z</time>
      </trkpt>
      <trkpt lat="9.9362401" lon="-84.9747914">
        <ele>51.0</ele>
        <time>2022-10-06T21:24:54Z</time>
      </trkpt>
      <trkpt lat="9.9362747" lon="-84.9746727">
        <ele>51.4</ele>
        <time>2022-10-06T21:24:55Z</time>
      </trkpt>
      <trkpt lat="9.9363125" lon="-84.9745549">
        <ele>51.4</ele>
        <time>2022-10-06T21:24:56Z</time>
      </trkpt>
      <trkpt lat="9.9363511" lon="-84.9744318">
        <ele>51.5</ele>
        <time>2022-10-06T21:24:57Z</time>
      </trkpt>
      <trkpt lat="9.9363899" lon="-84.9743058">
        <ele>51.3</ele>
        <time>2022-10-06T21:24:58Z</time>
      </trkpt>
      <trkpt lat="9.9364311" lon="-84.9741767">
        <ele>50.9</ele>
        <time>2022-10-06T21:24:59Z</time>
      </trkpt>
      <trkpt lat="9.9364761" lon="-84.9740441">
        <ele>50.4</ele>
        <time>2022-10-06T21:25:00Z</time>
      </trkpt>
      <trkpt lat="9.9365264" lon="-84.9739070">
        <ele>49.6</ele>
        <time>2022-10-06T21:25:01Z</time>
      </trkpt>
      <trkpt lat="9.9365806" lon="-84.9737717">
        <ele>48.8</ele>
        <time>2022-10-06T21:25:02Z</time>
      </trkpt>
      <trkpt lat="9.9366403" lon="-84.9736336">
        <ele>47.9</ele>
        <time>2022-10-06T21:25:03Z</time>
      </trkpt>
      <trkpt lat="9.9367010" lon="-84.9734990">
        <ele>47.4</ele>
        <time>2022-10-06T21:25:04Z</time>
      </trkpt>
      <trkpt lat="9.9367647" lon="-84.9733637">
        <ele>47.1</ele>
        <time>2022-10-06T21:25:05Z</time>
      </trkpt>
      <trkpt lat="9.9368285" lon="-84.9732268">
        <ele>47.1</ele>
        <time>2022-10-06T21:25:06Z</time>
      </trkpt>
      <trkpt lat="9.9368913" lon="-84.9730947">
        <ele>47.4</ele>
        <time>2022-10-06T21:25:07Z</time>
      </trkpt>
      <trkpt lat="9.9369504" lon="-84.9729632">
        <ele>47.3</ele>
        <time>2022-10-06T21:25:08Z</time>
      </trkpt>
      <trkpt lat="9.9370064" lon="-84.9728379">
        <ele>47.1</ele>
        <time>2022-10-06T21:25:09Z</time>
      </trkpt>
      <trkpt lat="9.9370608" lon="-84.9727150">
        <ele>47.2</ele>
        <time>2022-10-06T21:25:10Z</time>
      </trkpt>
      <trkpt lat="9.9371143" lon="-84.9725924">
        <ele>47.2</ele>
        <time>2022-10-06T21:25:11Z</time>
      </trkpt>
      <trkpt lat="9.9371649" lon="-84.9724758">
        <ele>47.2</ele>
        <time>2022-10-06T21:25:12Z</time>
      </trkpt>
      <trkpt lat="9.9372154" lon="-84.9723613">
        <ele>47.3</ele>
        <time>2022-10-06T21:25:13Z</time>
      </trkpt>
      <trkpt lat="9.9372636" lon="-84.9722489">
        <ele>47.4</ele>
        <time>2022-10-06T21:25:14Z</time>
      </trkpt>
      <trkpt lat="9.9373101" lon="-84.9721411">
        <ele>47.4</ele>
        <time>2022-10-06T21:25:15Z</time>
      </trkpt>
      <trkpt lat="9.9373512" lon="-84.9720391">
        <ele>47.3</ele>
        <time>2022-10-06T21:25:16Z</time>
      </trkpt>
      <trkpt lat="9.9373880" lon="-84.9719402">
        <ele>47.0</ele>
        <time>2022-10-06T21:25:17Z</time>
      </trkpt>
      <trkpt lat="9.9374239" lon="-84.9718405">
        <ele>46.8</ele>
        <time>2022-10-06T21:25:18Z</time>
      </trkpt>
      <trkpt lat="9.9374586" lon="-84.9717459">
        <ele>46.5</ele>
        <time>2022-10-06T21:25:19Z</time>
      </trkpt>
      <trkpt lat="9.9374939" lon="-84.9716494">
        <ele>46.1</ele>
        <time>2022-10-06T21:25:20Z</time>
      </trkpt>
      <trkpt lat="9.9375290" lon="-84.9715535">
        <ele>45.3</ele>
        <time>2022-10-06T21:25:21Z</time>
      </trkpt>
      <trkpt lat="9.9375668" lon="-84.9714564">
        <ele>44.5</ele>
        <time>2022-10-06T21:25:22Z</time>
      </trkpt>
      <trkpt lat="9.9376082" lon="-84.9713568">
        <ele>43.6</ele>
        <time>2022-10-06T21:25:23Z</time>
      </trkpt>
      <trkpt lat="9.9376509" lon="-84.9712623">
        <ele>42.7</ele>
        <time>2022-10-06T21:25:24Z</time>
      </trkpt>
      <trkpt lat="9.9376962" lon="-84.9711668">
        <ele>42.0</ele>
        <time>2022-10-06T21:25:25Z</time>
      </trkpt>
      <trkpt lat="9.9377427" lon="-84.9710705">
        <ele>41.2</ele>
        <time>2022-10-06T21:25:26Z</time>
      </trkpt>
      <trkpt lat="9.9377859" lon="-84.9709798">
        <ele>40.3</ele>
        <time>2022-10-06T21:25:27Z</time>
      </trkpt>
      <trkpt lat="9.9378282" lon="-84.9708874">
        <ele>39.5</ele>
        <time>2022-10-06T21:25:28Z</time>
      </trkpt>
      <trkpt lat="9.9378686" lon="-84.9707987">
        <ele>38.9</ele>
        <time>2022-10-06T21:25:29Z</time>
      </trkpt>
      <trkpt lat="9.9379065" lon="-84.9707126">
        <ele>38.4</ele>
        <time>2022-10-06T21:25:30Z</time>
      </trkpt>
      <trkpt lat="9.9379425" lon="-84.9706323">
        <ele>38.1</ele>
        <time>2022-10-06T21:25:31Z</time>
      </trkpt>
      <trkpt lat="9.9379761" lon="-84.9705533">
        <ele>37.8</ele>
        <time>2022-10-06T21:25:32Z</time>
      </trkpt>
      <trkpt lat="9.9380070" lon="-84.9704776">
        <ele>37.7</ele>
        <time>2022-10-06T21:25:33Z</time>
      </trkpt>
      <trkpt lat="9.9380328" lon="-84.9704137">
        <ele>37.6</ele>
        <time>2022-10-06T21:25:34Z</time>
      </trkpt>
      <trkpt lat="9.9380530" lon="-84.9703643">
        <ele>37.5</ele>
        <time>2022-10-06T21:25:35Z</time>
      </trkpt>
      <trkpt lat="9.9380679" lon="-84.9703281">
        <ele>37.4</ele>
        <time>2022-10-06T21:25:36Z</time>
      </trkpt>
      <trkpt lat="9.9380791" lon="-84.9703031">
        <ele>37.3</ele>
        <time>2022-10-06T21:25:37Z</time>
      </trkpt>
      <trkpt lat="9.9380901" lon="-84.9702831">
        <ele>37.2</ele>
        <time>2022-10-06T21:25:38Z</time>
      </trkpt>
      <trkpt lat="9.9381048" lon="-84.9702656">
        <ele>37.3</ele>
        <time>2022-10-06T21:25:39Z</time>
      </trkpt>
      <trkpt lat="9.9381233" lon="-84.9702489">
        <ele>37.4</ele>
        <time>2022-10-06T21:25:40Z</time>
      </trkpt>
      <trkpt lat="9.9381454" lon="-84.9702377">
        <ele>37.3</ele>
        <time>2022-10-06T21:25:41Z</time>
      </trkpt>
      <trkpt lat="9.9381652" lon="-84.9702293">
        <ele>37.2</ele>
        <time>2022-10-06T21:25:42Z</time>
      </trkpt>
      <trkpt lat="9.9381876" lon="-84.9702278">
        <ele>36.9</ele>
        <time>2022-10-06T21:25:43Z</time>
      </trkpt>
      <trkpt lat="9.9382149" lon="-84.9702334">
        <ele>37.2</ele>
        <time>2022-10-06T21:25:44Z</time>
      </trkpt>
      <trkpt lat="9.9382461" lon="-84.9702442">
        <ele>37.8</ele>
        <time>2022-10-06T21:25:45Z</time>
      </trkpt>
      <trkpt lat="9.9382850" lon="-84.9702556">
        <ele>38.0</ele>
        <time>2022-10-06T21:25:46Z</time>
      </trkpt>
      <trkpt lat="9.9383314" lon="-84.9702701">
        <ele>38.3</ele>
        <time>2022-10-06T21:25:47Z</time>
      </trkpt>
      <trkpt lat="9.9383836" lon="-84.9702866">
        <ele>38.7</ele>
        <time>2022-10-06T21:25:48Z</time>
      </trkpt>
      <trkpt lat="9.9384454" lon="-84.9703023">
        <ele>38.9</ele>
        <time>2022-10-06T21:25:49Z</time>
      </trkpt>
      <trkpt lat="9.9385080" lon="-84.9703183">
        <ele>39.3</ele>
        <time>2022-10-06T21:25:50Z</time>
      </trkpt>
      <trkpt lat="9.9385756" lon="-84.9703326">
        <ele>39.8</ele>
        <time>2022-10-06T21:25:51Z</time>
      </trkpt>
      <trkpt lat="9.9386465" lon="-84.9703499">
        <ele>40.8</ele>
        <time>2022-10-06T21:25:52Z</time>
      </trkpt>
      <trkpt lat="9.9387214" lon="-84.9703668">
        <ele>41.5</ele>
        <time>2022-10-06T21:25:53Z</time>
      </trkpt>
      <trkpt lat="9.9388005" lon="-84.9703838">
        <ele>41.4</ele>
        <time>2022-10-06T21:25:54Z</time>
      </trkpt>
      <trkpt lat="9.9388857" lon="-84.9704036">
        <ele>41.2</ele>
        <time>2022-10-06T21:25:55Z</time>
      </trkpt>
      <trkpt lat="9.9389751" lon="-84.9704270">
        <ele>41.0</ele>
        <time>2022-10-06T21:25:56Z</time>
      </trkpt>
      <trkpt lat="9.9390688" lon="-84.9704560">
        <ele>41.4</ele>
        <time>2022-10-06T21:25:57Z</time>
      </trkpt>
      <trkpt lat="9.9391654" lon="-84.9704850">
        <ele>41.4</ele>
        <time>2022-10-06T21:25:58Z</time>
      </trkpt>
      <trkpt lat="9.9392664" lon="-84.9705170">
        <ele>41.4</ele>
        <time>2022-10-06T21:25:59Z</time>
      </trkpt>
      <trkpt lat="9.9393685" lon="-84.9705504">
        <ele>41.3</ele>
        <time>2022-10-06T21:26:00Z</time>
      </trkpt>
      <trkpt lat="9.9394656" lon="-84.9705838">
        <ele>41.3</ele>
        <time>2022-10-06T21:26:01Z</time>
      </trkpt>
      <trkpt lat="9.9395648" lon="-84.9706163">
        <ele>40.9</ele>
        <time>2022-10-06T21:26:02Z</time>
      </trkpt>
      <trkpt lat="9.9396609" lon="-84.9706499">
        <ele>40.4</ele>
        <time>2022-10-06T21:26:03Z</time>
      </trkpt>
      <trkpt lat="9.9397600" lon="-84.9706855">
        <ele>39.8</ele>
        <time>2022-10-06T21:26:04Z</time>
      </trkpt>
      <trkpt lat="9.9398641" lon="-84.9707241">
        <ele>39.0</ele>
        <time>2022-10-06T21:26:05Z</time>
      </trkpt>
      <trkpt lat="9.9399718" lon="-84.9707638">
        <ele>38.1</ele>
        <time>2022-10-06T21:26:06Z</time>
      </trkpt>
      <trkpt lat="9.9400804" lon="-84.9708052">
        <ele>37.3</ele>
        <time>2022-10-06T21:26:07Z</time>
      </trkpt>
      <trkpt lat="9.9401924" lon="-84.9708463">
        <ele>36.5</ele>
        <time>2022-10-06T21:26:08Z</time>
      </trkpt>
      <trkpt lat="9.9403069" lon="-84.9708878">
        <ele>35.6</ele>
        <time>2022-10-06T21:26:09Z</time>
      </trkpt>
      <trkpt lat="9.9404202" lon="-84.9709289">
        <ele>34.7</ele>
        <time>2022-10-06T21:26:10Z</time>
      </trkpt>
      <trkpt lat="9.9405239" lon="-84.9709673">
        <ele>34.7</ele>
        <time>2022-10-06T21:26:11Z</time>
      </trkpt>
      <trkpt lat="9.9406252" lon="-84.9709989">
        <ele>33.8</ele>
        <time>2022-10-06T21:26:12Z</time>
      </trkpt>
      <trkpt lat="9.9407178" lon="-84.9710253">
        <ele>33.4</ele>
        <time>2022-10-06T21:26:13Z</time>
      </trkpt>
      <trkpt lat="9.9407955" lon="-84.9710483">
        <ele>33.4</ele>
        <time>2022-10-06T21:26:14Z</time>
      </trkpt>
      <trkpt lat="9.9408681" lon="-84.9710647">
        <ele>32.6</ele>
        <time>2022-10-06T21:26:15Z</time>
      </trkpt>
      <trkpt lat="9.9409257" lon="-84.9710762">
        <ele>32.6</ele>
        <time>2022-10-06T21:26:16Z</time>
      </trkpt>
      <trkpt lat="9.9409838" lon="-84.9710778">
        <ele>32.1</ele>
        <time>2022-10-06T21:26:17Z</time>
      </trkpt>
      <trkpt lat="9.9410355" lon="-84.9710799">
        <ele>31.7</ele>
        <time>2022-10-06T21:26:18Z</time>
      </trkpt>
      <trkpt lat="9.9410756" lon="-84.9710804">
        <ele>31.5</ele>
        <time>2022-10-06T21:26:19Z</time>
      </trkpt>
      <trkpt lat="9.9411156" lon="-84.9710833">
        <ele>31.1</ele>
        <time>2022-10-06T21:26:20Z</time>
      </trkpt>
      <trkpt lat="9.9411544" lon="-84.9710853">
        <ele>30.8</ele>
        <time>2022-10-06T21:26:21Z</time>
      </trkpt>
      <trkpt lat="9.9411934" lon="-84.9710863">
        <ele>30.6</ele>
        <time>2022-10-06T21:26:22Z</time>
      </trkpt>
      <trkpt lat="9.9412375" lon="-84.9710839">
        <ele>30.2</ele>
        <time>2022-10-06T21:26:23Z</time>
      </trkpt>
      <trkpt lat="9.9412786" lon="-84.9710803">
        <ele>29.8</ele>
        <time>2022-10-06T21:26:24Z</time>
      </trkpt>
      <trkpt lat="9.9413136" lon="-84.9710761">
        <ele>29.6</ele>
        <time>2022-10-06T21:26:25Z</time>
      </trkpt>
      <trkpt lat="9.9413444" lon="-84.9710725">
        <ele>29.3</ele>
        <time>2022-10-06T21:26:26Z</time>
      </trkpt>
      <trkpt lat="9.9413710" lon="-84.9710673">
        <ele>29.0</ele>
        <time>2022-10-06T21:26:27Z</time>
      </trkpt>
      <trkpt lat="9.9413916" lon="-84.9710627">
        <ele>28.6</ele>
        <time>2022-10-06T21:26:28Z</time>
      </trkpt>
      <trkpt lat="9.9414118" lon="-84.9710574">
        <ele>28.4</ele>
        <time>2022-10-06T21:26:29Z</time>
      </trkpt>
      <trkpt lat="9.9414328" lon="-84.9710526">
        <ele>28.3</ele>
        <time>2022-10-06T21:26:30Z</time>
      </trkpt>
      <trkpt lat="9.9414432" lon="-84.9710513">
        <ele>28.1</ele>
        <time>2022-10-06T21:26:31Z</time>
      </trkpt>
      <trkpt lat="9.9414506" lon="-84.9710520">
        <ele>28.1</ele>
        <time>2022-10-06T21:26:32Z</time>
      </trkpt>
      <trkpt lat="9.9414506" lon="-84.9710520">
        <ele>27.9</ele>
        <time>2022-10-06T21:26:33Z</time>
      </trkpt>
      <trkpt lat="9.9414506" lon="-84.9710520">
        <ele>27.9</ele>
        <time>2022-10-06T21:26:34Z</time>
      </trkpt>
      <trkpt lat="9.9414506" lon="-84.9710520">
        <ele>27.9</ele>
        <time>2022-10-06T21:26:35Z</time>
      </trkpt>
      <trkpt lat="9.9414506" lon="-84.9710520">
        <ele>27.9</ele>
        <time>2022-10-06T21:26:36Z</time>
      </trkpt>
      <trkpt lat="9.9414506" lon="-84.9710520">
        <ele>28.0</ele>
        <time>2022-10-06T21:26:37Z</time>
      </trkpt>
      <trkpt lat="9.9414506" lon="-84.9710520">
        <ele>28.0</ele>
        <time>2022-10-06T21:26:38Z</time>
      </trkpt>
      <trkpt lat="9.9414506" lon="-84.9710520">
        <ele>27.9</ele>
        <time>2022-10-06T21:26:39Z</time>
      </trkpt>
      <trkpt lat="9.9414506" lon="-84.9710520">
        <ele>27.9</ele>
        <time>2022-10-06T21:26:40Z</time>
      </trkpt>
      <trkpt lat="9.9414506" lon="-84.9710520">
        <ele>27.9</ele>
        <time>2022-10-06T21:26:41Z</time>
      </trkpt>
      <trkpt lat="9.9414506" lon="-84.9710520">
        <ele>27.9</ele>
        <time>2022-10-06T21:26:42Z</time>
      </trkpt>
      <trkpt lat="9.9414506" lon="-84.9710520">
        <ele>27.8</ele>
        <time>2022-10-06T21:26:43Z</time>
      </trkpt>
      <trkpt lat="9.9414506" lon="-84.9710520">
        <ele>27.8</ele>
        <time>2022-10-06T21:26:44Z</time>
      </trkpt>
      <trkpt lat="9.9414506" lon="-84.9710520">
        <ele>27.6</ele>
        <time>2022-10-06T21:26:45Z</time>
      </trkpt>
      <trkpt lat="9.9414506" lon="-84.9710520">
        <ele>27.6</ele>
        <time>2022-10-06T21:26:46Z</time>
      </trkpt>
      <trkpt lat="9.9414506" lon="-84.9710520">
        <ele>27.6</ele>
        <time>2022-10-06T21:26:47Z</time>
      </trkpt>
      <trkpt lat="9.9414506" lon="-84.9710520">
        <ele>27.5</ele>
        <time>2022-10-06T21:26:48Z</time>
      </trkpt>
      <trkpt lat="9.9414506" lon="-84.9710520">
        <ele>27.5</ele>
        <time>2022-10-06T21:26:49Z</time>
      </trkpt>
      <trkpt lat="9.9414506" lon="-84.9710520">
        <ele>27.5</ele>
        <time>2022-10-06T21:26:50Z</time>
      </trkpt>
      <trkpt lat="9.9414506" lon="-84.9710520">
        <ele>27.4</ele>
        <time>2022-10-06T21:26:51Z</time>
      </trkpt>
      <trkpt lat="9.9414506" lon="-84.9710520">
        <ele>27.4</ele>
        <time>2022-10-06T21:26:52Z</time>
      </trkpt>
      <trkpt lat="9.9414506" lon="-84.9710520">
        <ele>27.4</ele>
        <time>2022-10-06T21:26:53Z</time>
      </trkpt>
      <trkpt lat="9.9414506" lon="-84.9710520">
        <ele>27.7</ele>
        <time>2022-10-06T21:26:54Z</time>
      </trkpt>
      <trkpt lat="9.9414506" lon="-84.9710520">
        <ele>27.7</ele>
        <time>2022-10-06T21:26:55Z</time>
      </trkpt>
      <trkpt lat="9.9414506" lon="-84.9710520">
        <ele>27.7</ele>
        <time>2022-10-06T21:26:56Z</time>
      </trkpt>
      <trkpt lat="9.9414506" lon="-84.9710520">
        <ele>27.6</ele>
        <time>2022-10-06T21:26:57Z</time>
      </trkpt>
      <trkpt lat="9.9414506" lon="-84.9710520">
        <ele>27.6</ele>
        <time>2022-10-06T21:26:58Z</time>
      </trkpt>
      <trkpt lat="9.9414506" lon="-84.9710520">
        <ele>27.5</ele>
        <time>2022-10-06T21:26:59Z</time>
      </trkpt>
      <trkpt lat="9.9414506" lon="-84.9710520">
        <ele>27.5</ele>
        <time>2022-10-06T21:27:00Z</time>
      </trkpt>
      <trkpt lat="9.9414506" lon="-84.9710520">
        <ele>27.5</ele>
        <time>2022-10-06T21:27:01Z</time>
      </trkpt>
      <trkpt lat="9.9414506" lon="-84.9710520">
        <ele>27.4</ele>
        <time>2022-10-06T21:27:02Z</time>
      </trkpt>
      <trkpt lat="9.9414506" lon="-84.9710520">
        <ele>27.4</ele>
        <time>2022-10-06T21:27:03Z</time>
      </trkpt>
      <trkpt lat="9.9414506" lon="-84.9710520">
        <ele>27.3</ele>
        <time>2022-10-06T21:27:04Z</time>
      </trkpt>
      <trkpt lat="9.9414506" lon="-84.9710520">
        <ele>27.3</ele>
        <time>2022-10-06T21:27:05Z</time>
      </trkpt>
      <trkpt lat="9.9414506" lon="-84.9710520">
        <ele>27.3</ele>
        <time>2022-10-06T21:27:06Z</time>
      </trkpt>
      <trkpt lat="9.9414506" lon="-84.9710520">
        <ele>27.3</ele>
        <time>2022-10-06T21:27:07Z</time>
      </trkpt>
      <trkpt lat="9.9414506" lon="-84.9710520">
        <ele>27.2</ele>
        <time>2022-10-06T21:27:08Z</time>
      </trkpt>
      <trkpt lat="9.9414506" lon="-84.9710520">
        <ele>27.1</ele>
        <time>2022-10-06T21:27:09Z</time>
      </trkpt>
      <trkpt lat="9.9414506" lon="-84.9710520">
        <ele>27.1</ele>
        <time>2022-10-06T21:27:10Z</time>
      </trkpt>
      <trkpt lat="9.9414506" lon="-84.9710520">
        <ele>27.0</ele>
        <time>2022-10-06T21:27:11Z</time>
      </trkpt>
      <trkpt lat="9.9414506" lon="-84.9710520">
        <ele>27.0</ele>
        <time>2022-10-06T21:27:12Z</time>
      </trkpt>
      <trkpt lat="9.9414506" lon="-84.9710520">
        <ele>27.0</ele>
        <time>2022-10-06T21:27:13Z</time>
      </trkpt>
      <trkpt lat="9.9414506" lon="-84.9710520">
        <ele>27.0</ele>
        <time>2022-10-06T21:27:14Z</time>
      </trkpt>
      <trkpt lat="9.9414506" lon="-84.9710520">
        <ele>27.0</ele>
        <time>2022-10-06T21:27:15Z</time>
      </trkpt>
      <trkpt lat="9.9414506" lon="-84.9710520">
        <ele>27.0</ele>
        <time>2022-10-06T21:27:16Z</time>
      </trkpt>
      <trkpt lat="9.9414506" lon="-84.9710520">
        <ele>27.0</ele>
        <time>2022-10-06T21:27:17Z</time>
      </trkpt>
      <trkpt lat="9.9414506" lon="-84.9710520">
        <ele>27.0</ele>
        <time>2022-10-06T21:27:18Z</time>
      </trkpt>
      <trkpt lat="9.9414506" lon="-84.9710520">
        <ele>26.9</ele>
        <time>2022-10-06T21:27:19Z</time>
      </trkpt>
      <trkpt lat="9.9414506" lon="-84.9710520">
        <ele>26.9</ele>
        <time>2022-10-06T21:27:20Z</time>
      </trkpt>
      <trkpt lat="9.9414506" lon="-84.9710520">
        <ele>26.8</ele>
        <time>2022-10-06T21:27:21Z</time>
      </trkpt>
      <trkpt lat="9.9414506" lon="-84.9710520">
        <ele>26.8</ele>
        <time>2022-10-06T21:27:22Z</time>
      </trkpt>
      <trkpt lat="9.9414506" lon="-84.9710520">
        <ele>26.7</ele>
        <time>2022-10-06T21:27:23Z</time>
      </trkpt>
      <trkpt lat="9.9414506" lon="-84.9710520">
        <ele>26.7</ele>
        <time>2022-10-06T21:27:24Z</time>
      </trkpt>
    </trkseg>
  </trk>
</gpx>
